<?xml version='1.0' encoding='UTF-8'?><gpx version="1.1" creator="JPX - https://github.com/jenetics/jpx" xmlns="http://www.topografix.com/GPX/1/1"><trk><trkseg><trkpt lat="45.5953135" lon="12.3126149"><ele>5.0</ele><time>2026-04-26T06:06:09.984Z</time></trkpt><trkpt lat="45.5952489" lon="12.3127087"><ele>5.0</ele><time>2026-04-26T06:06:36.979Z</time></trkpt><trkpt lat="45.5953303" lon="12.3126698"><ele>5.0</ele><time>2026-04-26T06:06:57.977Z</time></trkpt><trkpt lat="45.5954237" lon="12.3126662"><ele>5.0</ele><time>2026-04-26T06:09:06.129Z</time></trkpt><trkpt lat="45.5954817" lon="12.3126298"><ele>5.0</ele><time>2026-04-26T06:09:56.011Z</time></trkpt><trkpt lat="45.5955169" lon="12.3125234"><ele>5.0</ele><time>2026-04-26T06:09:59.009Z</time></trkpt><trkpt lat="45.5955745" lon="12.3124104"><ele>4.8</ele><time>2026-04-26T06:10:01.003Z</time></trkpt><trkpt lat="45.5956269" lon="12.3122619"><ele>4.6</ele><time>2026-04-26T06:10:02.999Z</time></trkpt><trkpt lat="45.5956684" lon="12.31215"><ele>4.4</ele><time>2026-04-26T06:10:05.01Z</time></trkpt><trkpt lat="45.5957241" lon="12.3120954"><ele>4.2</ele><time>2026-04-26T06:10:13.019Z</time></trkpt><trkpt lat="45.5958209" lon="12.312218"><ele>4.0</ele><time>2026-04-26T06:10:15.011Z</time></trkpt><trkpt lat="45.5958932" lon="12.3123062"><ele>4.0</ele><time>2026-04-26T06:10:16.064Z</time></trkpt><trkpt lat="45.5959755" lon="12.3124079"><ele>4.0</ele><time>2026-04-26T06:10:17.025Z</time></trkpt><trkpt lat="45.5960659" lon="12.3125217"><ele>4.0</ele><time>2026-04-26T06:10:18.031Z</time></trkpt><trkpt lat="45.5961569" lon="12.3126387"><ele>4.0</ele><time>2026-04-26T06:10:19.024Z</time></trkpt><trkpt lat="45.596246" lon="12.312751"><ele>3.75</ele><time>2026-04-26T06:10:20.013Z</time></trkpt><trkpt lat="45.5963374" lon="12.3128531"><ele>3.5</ele><time>2026-04-26T06:10:21.012Z</time></trkpt><trkpt lat="45.5964262" lon="12.312956"><ele>3.25</ele><time>2026-04-26T06:10:22.047Z</time></trkpt><trkpt lat="45.5965174" lon="12.313056"><ele>3.0</ele><time>2026-04-26T06:10:23.015Z</time></trkpt><trkpt lat="45.5966066" lon="12.3131453"><ele>3.0</ele><time>2026-04-26T06:10:24.018Z</time></trkpt><trkpt lat="45.5966834" lon="12.3132234"><ele>3.0</ele><time>2026-04-26T06:10:25.016Z</time></trkpt><trkpt lat="45.5967519" lon="12.3132866"><ele>3.0</ele><time>2026-04-26T06:10:26.013Z</time></trkpt><trkpt lat="45.5968187" lon="12.3133466"><ele>3.0</ele><time>2026-04-26T06:10:27.014Z</time></trkpt><trkpt lat="45.5968879" lon="12.3134116"><ele>3.0</ele><time>2026-04-26T06:10:28.007Z</time></trkpt><trkpt lat="45.5969618" lon="12.3134877"><ele>3.0</ele><time>2026-04-26T06:10:29.012Z</time></trkpt><trkpt lat="45.5970406" lon="12.3135634"><ele>3.0</ele><time>2026-04-26T06:10:30.008Z</time></trkpt><trkpt lat="45.597117" lon="12.3136382"><ele>3.0</ele><time>2026-04-26T06:10:31.01Z</time></trkpt><trkpt lat="45.597188" lon="12.3137029"><ele>3.0</ele><time>2026-04-26T06:10:32.026Z</time></trkpt><trkpt lat="45.597253" lon="12.3137551"><ele>3.0</ele><time>2026-04-26T06:10:33.019Z</time></trkpt><trkpt lat="45.5973138" lon="12.3138043"><ele>3.0</ele><time>2026-04-26T06:10:34.012Z</time></trkpt><trkpt lat="45.5973639" lon="12.313875"><ele>3.0</ele><time>2026-04-26T06:10:35.02Z</time></trkpt><trkpt lat="45.5974051" lon="12.313971"><ele>3.0</ele><time>2026-04-26T06:10:36.005Z</time></trkpt><trkpt lat="45.5974385" lon="12.3140871"><ele>3.0</ele><time>2026-04-26T06:10:37.016Z</time></trkpt><trkpt lat="45.5974644" lon="12.3142223"><ele>3.0</ele><time>2026-04-26T06:10:38.011Z</time></trkpt><trkpt lat="45.5974836" lon="12.3143776"><ele>3.0</ele><time>2026-04-26T06:10:39.011Z</time></trkpt><trkpt lat="45.5975042" lon="12.3145416"><ele>3.0</ele><time>2026-04-26T06:10:40.012Z</time></trkpt><trkpt lat="45.5975245" lon="12.3147038"><ele>2.8</ele><time>2026-04-26T06:10:41.015Z</time></trkpt><trkpt lat="45.5975432" lon="12.3148608"><ele>2.5999999999999996</ele><time>2026-04-26T06:10:42.009Z</time></trkpt><trkpt lat="45.597567" lon="12.3150103"><ele>2.4000000000000004</ele><time>2026-04-26T06:10:43.008Z</time></trkpt><trkpt lat="45.597591" lon="12.3151566"><ele>2.2</ele><time>2026-04-26T06:10:44.008Z</time></trkpt><trkpt lat="45.5976171" lon="12.3153008"><ele>2.0</ele><time>2026-04-26T06:10:45.006Z</time></trkpt><trkpt lat="45.5976456" lon="12.3154446"><ele>2.0</ele><time>2026-04-26T06:10:46.015Z</time></trkpt><trkpt lat="45.5976791" lon="12.3155918"><ele>2.0</ele><time>2026-04-26T06:10:47.018Z</time></trkpt><trkpt lat="45.5977251" lon="12.3157397"><ele>2.0</ele><time>2026-04-26T06:10:48.035Z</time></trkpt><trkpt lat="45.5977899" lon="12.3158774"><ele>2.0</ele><time>2026-04-26T06:10:49.024Z</time></trkpt><trkpt lat="45.5978669" lon="12.3160047"><ele>2.0</ele><time>2026-04-26T06:10:50.007Z</time></trkpt><trkpt lat="45.597953" lon="12.3161233"><ele>2.0</ele><time>2026-04-26T06:10:51.015Z</time></trkpt><trkpt lat="45.5980417" lon="12.3162314"><ele>2.0</ele><time>2026-04-26T06:10:52.007Z</time></trkpt><trkpt lat="45.5981261" lon="12.3163378"><ele>2.0</ele><time>2026-04-26T06:10:53.021Z</time></trkpt><trkpt lat="45.5982108" lon="12.3164348"><ele>2.6</ele><time>2026-04-26T06:10:54.03Z</time></trkpt><trkpt lat="45.598289" lon="12.3165299"><ele>3.2</ele><time>2026-04-26T06:10:55.017Z</time></trkpt><trkpt lat="45.598363" lon="12.3166207"><ele>3.8</ele><time>2026-04-26T06:10:56.017Z</time></trkpt><trkpt lat="45.5984327" lon="12.3167086"><ele>4.4</ele><time>2026-04-26T06:10:57.013Z</time></trkpt><trkpt lat="45.5985004" lon="12.3167932"><ele>5.0</ele><time>2026-04-26T06:10:58.013Z</time></trkpt><trkpt lat="45.598569" lon="12.3168704"><ele>5.0</ele><time>2026-04-26T06:10:59.02Z</time></trkpt><trkpt lat="45.5986347" lon="12.3169447"><ele>5.0</ele><time>2026-04-26T06:11:00.037Z</time></trkpt><trkpt lat="45.5986978" lon="12.3170165"><ele>5.0</ele><time>2026-04-26T06:11:01.014Z</time></trkpt><trkpt lat="45.5987554" lon="12.3170864"><ele>5.0</ele><time>2026-04-26T06:11:02.017Z</time></trkpt><trkpt lat="45.5988074" lon="12.3171522"><ele>5.0</ele><time>2026-04-26T06:11:03.015Z</time></trkpt><trkpt lat="45.5988577" lon="12.3172084"><ele>5.0</ele><time>2026-04-26T06:11:04.011Z</time></trkpt><trkpt lat="45.5989478" lon="12.3173085"><ele>5.0</ele><time>2026-04-26T06:11:06.014Z</time></trkpt><trkpt lat="45.5990287" lon="12.3173947"><ele>5.0</ele><time>2026-04-26T06:11:08.009Z</time></trkpt><trkpt lat="45.5990961" lon="12.3174637"><ele>5.0</ele><time>2026-04-26T06:11:10.003Z</time></trkpt><trkpt lat="45.5991501" lon="12.3175118"><ele>5.0</ele><time>2026-04-26T06:11:12.021Z</time></trkpt><trkpt lat="45.5992096" lon="12.3175494"><ele>5.0</ele><time>2026-04-26T06:11:14.026Z</time></trkpt><trkpt lat="45.5992775" lon="12.3176396"><ele>5.0</ele><time>2026-04-26T06:11:17.023Z</time></trkpt><trkpt lat="45.5992902" lon="12.317805"><ele>5.0</ele><time>2026-04-26T06:11:19.017Z</time></trkpt><trkpt lat="45.5992485" lon="12.3179487"><ele>5.0</ele><time>2026-04-26T06:11:20.017Z</time></trkpt><trkpt lat="45.5992004" lon="12.3181331"><ele>5.0</ele><time>2026-04-26T06:11:21.019Z</time></trkpt><trkpt lat="45.5991578" lon="12.3183522"><ele>5.0</ele><time>2026-04-26T06:11:22.021Z</time></trkpt><trkpt lat="45.5991103" lon="12.3185909"><ele>4.666666666666667</ele><time>2026-04-26T06:11:23.029Z</time></trkpt><trkpt lat="45.5990658" lon="12.3188528"><ele>4.333333333333333</ele><time>2026-04-26T06:11:24.024Z</time></trkpt><trkpt lat="45.5990173" lon="12.3191236"><ele>4.0</ele><time>2026-04-26T06:11:25.022Z</time></trkpt><trkpt lat="45.598971" lon="12.3193859"><ele>4.0</ele><time>2026-04-26T06:11:26.044Z</time></trkpt><trkpt lat="45.5989284" lon="12.3196363"><ele>4.0</ele><time>2026-04-26T06:11:27.027Z</time></trkpt><trkpt lat="45.5988916" lon="12.3198792"><ele>4.0</ele><time>2026-04-26T06:11:28.023Z</time></trkpt><trkpt lat="45.5988509" lon="12.3201089"><ele>4.0</ele><time>2026-04-26T06:11:29.03Z</time></trkpt><trkpt lat="45.5987962" lon="12.3203213"><ele>4.0</ele><time>2026-04-26T06:11:30.023Z</time></trkpt><trkpt lat="45.5987382" lon="12.3205227"><ele>4.0</ele><time>2026-04-26T06:11:31.028Z</time></trkpt><trkpt lat="45.5986889" lon="12.3207217"><ele>4.0</ele><time>2026-04-26T06:11:32.025Z</time></trkpt><trkpt lat="45.598649" lon="12.3209158"><ele>4.0</ele><time>2026-04-26T06:11:33.025Z</time></trkpt><trkpt lat="45.5986112" lon="12.3211011"><ele>4.0</ele><time>2026-04-26T06:11:34.042Z</time></trkpt><trkpt lat="45.5985751" lon="12.3212806"><ele>4.0</ele><time>2026-04-26T06:11:35.029Z</time></trkpt><trkpt lat="45.5985384" lon="12.3214553"><ele>4.0</ele><time>2026-04-26T06:11:36.023Z</time></trkpt><trkpt lat="45.5984983" lon="12.3216193"><ele>4.0</ele><time>2026-04-26T06:11:37.04Z</time></trkpt><trkpt lat="45.5984586" lon="12.3217765"><ele>4.0</ele><time>2026-04-26T06:11:38.032Z</time></trkpt><trkpt lat="45.598421" lon="12.3219286"><ele>4.0</ele><time>2026-04-26T06:11:39.018Z</time></trkpt><trkpt lat="45.5983868" lon="12.322078"><ele>4.0</ele><time>2026-04-26T06:11:40.03Z</time></trkpt><trkpt lat="45.5983586" lon="12.3222253"><ele>4.0</ele><time>2026-04-26T06:11:41.032Z</time></trkpt><trkpt lat="45.5983262" lon="12.3223707"><ele>4.0</ele><time>2026-04-26T06:11:42.018Z</time></trkpt><trkpt lat="45.5982852" lon="12.3225139"><ele>4.0</ele><time>2026-04-26T06:11:43.026Z</time></trkpt><trkpt lat="45.5982361" lon="12.3226518"><ele>4.0</ele><time>2026-04-26T06:11:44.017Z</time></trkpt><trkpt lat="45.5981962" lon="12.322791"><ele>4.2</ele><time>2026-04-26T06:11:45.02Z</time></trkpt><trkpt lat="45.5981434" lon="12.3229126"><ele>4.4</ele><time>2026-04-26T06:11:46.024Z</time></trkpt><trkpt lat="45.5980823" lon="12.323018"><ele>4.6</ele><time>2026-04-26T06:11:47.02Z</time></trkpt><trkpt lat="45.5980117" lon="12.3230988"><ele>4.8</ele><time>2026-04-26T06:11:48.037Z</time></trkpt><trkpt lat="45.5979559" lon="12.3231801"><ele>5.0</ele><time>2026-04-26T06:11:49.026Z</time></trkpt><trkpt lat="45.5979457" lon="12.3233017"><ele>5.0</ele><time>2026-04-26T06:11:50.028Z</time></trkpt><trkpt lat="45.5979577" lon="12.3234257"><ele>5.0</ele><time>2026-04-26T06:11:51.037Z</time></trkpt><trkpt lat="45.5980129" lon="12.3235432"><ele>5.0</ele><time>2026-04-26T06:11:52.048Z</time></trkpt><trkpt lat="45.5980927" lon="12.3236465"><ele>5.0</ele><time>2026-04-26T06:11:53.045Z</time></trkpt><trkpt lat="45.5981949" lon="12.3237474"><ele>5.0</ele><time>2026-04-26T06:11:54.037Z</time></trkpt><trkpt lat="45.5983093" lon="12.3238725"><ele>5.333333333333334</ele><time>2026-04-26T06:11:55.035Z</time></trkpt><trkpt lat="45.5984267" lon="12.3240281"><ele>5.666666666666667</ele><time>2026-04-26T06:11:56.04Z</time></trkpt><trkpt lat="45.5985414" lon="12.3242046"><ele>6.0</ele><time>2026-04-26T06:11:57.035Z</time></trkpt><trkpt lat="45.5986572" lon="12.3243924"><ele>6.333333333333334</ele><time>2026-04-26T06:11:58.027Z</time></trkpt><trkpt lat="45.5987734" lon="12.3245832"><ele>6.666666666666667</ele><time>2026-04-26T06:11:59.031Z</time></trkpt><trkpt lat="45.5988938" lon="12.3247588"><ele>7.0</ele><time>2026-04-26T06:12:00.03Z</time></trkpt><trkpt lat="45.5990234" lon="12.3249157"><ele>6.5</ele><time>2026-04-26T06:12:01.026Z</time></trkpt><trkpt lat="45.5991619" lon="12.3250408"><ele>6.0</ele><time>2026-04-26T06:12:02.032Z</time></trkpt><trkpt lat="45.5992973" lon="12.3251335"><ele>5.5</ele><time>2026-04-26T06:12:03.024Z</time></trkpt><trkpt lat="45.5994147" lon="12.3252025"><ele>5.0</ele><time>2026-04-26T06:12:04.032Z</time></trkpt><trkpt lat="45.5995036" lon="12.3252813"><ele>4.6</ele><time>2026-04-26T06:12:05.039Z</time></trkpt><trkpt lat="45.5995742" lon="12.3253433"><ele>4.2</ele><time>2026-04-26T06:12:06.029Z</time></trkpt><trkpt lat="45.5996345" lon="12.325397"><ele>3.8</ele><time>2026-04-26T06:12:07.055Z</time></trkpt><trkpt lat="45.5996959" lon="12.3255388"><ele>3.4</ele><time>2026-04-26T06:12:09.025Z</time></trkpt><trkpt lat="45.5997182" lon="12.3257119"><ele>3.0</ele><time>2026-04-26T06:12:11.031Z</time></trkpt><trkpt lat="45.5997307" lon="12.3258356"><ele>3.0</ele><time>2026-04-26T06:12:12.038Z</time></trkpt><trkpt lat="45.5997894" lon="12.3259838"><ele>3.0</ele><time>2026-04-26T06:12:13.03Z</time></trkpt><trkpt lat="45.5998708" lon="12.3261376"><ele>3.0</ele><time>2026-04-26T06:12:14.03Z</time></trkpt><trkpt lat="45.5999495" lon="12.3263083"><ele>3.0</ele><time>2026-04-26T06:12:15.027Z</time></trkpt><trkpt lat="45.6000151" lon="12.3264999"><ele>3.333333333333333</ele><time>2026-04-26T06:12:16.031Z</time></trkpt><trkpt lat="45.6000746" lon="12.3267034"><ele>3.6666666666666665</ele><time>2026-04-26T06:12:17.034Z</time></trkpt><trkpt lat="45.6001761" lon="12.3268862"><ele>4.0</ele><time>2026-04-26T06:12:18.028Z</time></trkpt><trkpt lat="45.6002874" lon="12.3270622"><ele>4.0</ele><time>2026-04-26T06:12:19.037Z</time></trkpt><trkpt lat="45.6004021" lon="12.3272388"><ele>4.0</ele><time>2026-04-26T06:12:20.046Z</time></trkpt><trkpt lat="45.6005186" lon="12.3274216"><ele>4.0</ele><time>2026-04-26T06:12:21.032Z</time></trkpt><trkpt lat="45.6006356" lon="12.3276143"><ele>4.0</ele><time>2026-04-26T06:12:22.029Z</time></trkpt><trkpt lat="45.6007631" lon="12.327805"><ele>4.0</ele><time>2026-04-26T06:12:23.032Z</time></trkpt><trkpt lat="45.6008881" lon="12.3280071"><ele>4.0</ele><time>2026-04-26T06:12:24.034Z</time></trkpt><trkpt lat="45.6010122" lon="12.328218"><ele>4.0</ele><time>2026-04-26T06:12:25.03Z</time></trkpt><trkpt lat="45.6011397" lon="12.3284299"><ele>4.0</ele><time>2026-04-26T06:12:26.036Z</time></trkpt><trkpt lat="45.6012695" lon="12.3286449"><ele>4.0</ele><time>2026-04-26T06:12:27.028Z</time></trkpt><trkpt lat="45.6014029" lon="12.3288547"><ele>4.0</ele><time>2026-04-26T06:12:28.037Z</time></trkpt><trkpt lat="45.6015319" lon="12.3290669"><ele>4.0</ele><time>2026-04-26T06:12:29.038Z</time></trkpt><trkpt lat="45.6016575" lon="12.3292714"><ele>4.0</ele><time>2026-04-26T06:12:30.028Z</time></trkpt><trkpt lat="45.6017798" lon="12.3294719"><ele>4.0</ele><time>2026-04-26T06:12:31.037Z</time></trkpt><trkpt lat="45.6019003" lon="12.3296695"><ele>4.0</ele><time>2026-04-26T06:12:32.034Z</time></trkpt><trkpt lat="45.6020186" lon="12.3298626"><ele>4.0</ele><time>2026-04-26T06:12:33.036Z</time></trkpt><trkpt lat="45.6021284" lon="12.3300597"><ele>4.0</ele><time>2026-04-26T06:12:34.028Z</time></trkpt><trkpt lat="45.6022421" lon="12.3302468"><ele>4.0</ele><time>2026-04-26T06:12:35.027Z</time></trkpt><trkpt lat="45.6023534" lon="12.3304369"><ele>4.0</ele><time>2026-04-26T06:12:36.029Z</time></trkpt><trkpt lat="45.6024648" lon="12.3306295"><ele>4.333333333333333</ele><time>2026-04-26T06:12:37.026Z</time></trkpt><trkpt lat="45.6025768" lon="12.3308257"><ele>4.666666666666667</ele><time>2026-04-26T06:12:38.035Z</time></trkpt><trkpt lat="45.6026916" lon="12.3310248"><ele>5.0</ele><time>2026-04-26T06:12:39.031Z</time></trkpt><trkpt lat="45.6028054" lon="12.3312268"><ele>4.333333333333334</ele><time>2026-04-26T06:12:40.025Z</time></trkpt><trkpt lat="45.6029125" lon="12.3314357"><ele>3.666666666666667</ele><time>2026-04-26T06:12:41.042Z</time></trkpt><trkpt lat="45.6030041" lon="12.3316608"><ele>3.0</ele><time>2026-04-26T06:12:42.036Z</time></trkpt><trkpt lat="45.6030911" lon="12.3318916"><ele>3.0</ele><time>2026-04-26T06:12:43.037Z</time></trkpt><trkpt lat="45.6031762" lon="12.3321181"><ele>3.0</ele><time>2026-04-26T06:12:44.034Z</time></trkpt><trkpt lat="45.603251" lon="12.3323431"><ele>3.0</ele><time>2026-04-26T06:12:45.031Z</time></trkpt><trkpt lat="45.6033186" lon="12.3325658"><ele>2.6666666666666665</ele><time>2026-04-26T06:12:46.035Z</time></trkpt><trkpt lat="45.6033796" lon="12.3327915"><ele>2.333333333333333</ele><time>2026-04-26T06:12:47.031Z</time></trkpt><trkpt lat="45.6034341" lon="12.3330212"><ele>2.0</ele><time>2026-04-26T06:12:48.041Z</time></trkpt><trkpt lat="45.6034831" lon="12.3332529"><ele>2.0</ele><time>2026-04-26T06:12:49.029Z</time></trkpt><trkpt lat="45.6035316" lon="12.3334841"><ele>2.0</ele><time>2026-04-26T06:12:50.028Z</time></trkpt><trkpt lat="45.6035811" lon="12.3337134"><ele>2.0</ele><time>2026-04-26T06:12:51.039Z</time></trkpt><trkpt lat="45.6036298" lon="12.3339423"><ele>2.6666666666666665</ele><time>2026-04-26T06:12:52.032Z</time></trkpt><trkpt lat="45.6036775" lon="12.3341698"><ele>3.333333333333333</ele><time>2026-04-26T06:12:53.04Z</time></trkpt><trkpt lat="45.6037266" lon="12.3343944"><ele>4.0</ele><time>2026-04-26T06:12:54.034Z</time></trkpt><trkpt lat="45.6037751" lon="12.3346176"><ele>3.333333333333333</ele><time>2026-04-26T06:12:55.031Z</time></trkpt><trkpt lat="45.6038234" lon="12.334842"><ele>2.6666666666666665</ele><time>2026-04-26T06:12:56.045Z</time></trkpt><trkpt lat="45.6038722" lon="12.3350651"><ele>2.0</ele><time>2026-04-26T06:12:57.041Z</time></trkpt><trkpt lat="45.6039192" lon="12.3352879"><ele>2.0</ele><time>2026-04-26T06:12:58.037Z</time></trkpt><trkpt lat="45.6039656" lon="12.3355116"><ele>2.0</ele><time>2026-04-26T06:12:59.029Z</time></trkpt><trkpt lat="45.6040151" lon="12.3357411"><ele>2.0</ele><time>2026-04-26T06:13:00.034Z</time></trkpt><trkpt lat="45.6040637" lon="12.3359749"><ele>2.0</ele><time>2026-04-26T06:13:01.04Z</time></trkpt><trkpt lat="45.6041138" lon="12.3362097"><ele>2.0</ele><time>2026-04-26T06:13:02.044Z</time></trkpt><trkpt lat="45.6041637" lon="12.3364443"><ele>2.0</ele><time>2026-04-26T06:13:03.062Z</time></trkpt><trkpt lat="45.6042144" lon="12.3366779"><ele>2.6666666666666665</ele><time>2026-04-26T06:13:04.04Z</time></trkpt><trkpt lat="45.604263" lon="12.336911"><ele>3.333333333333333</ele><time>2026-04-26T06:13:05.046Z</time></trkpt><trkpt lat="45.6043178" lon="12.3371419"><ele>4.0</ele><time>2026-04-26T06:13:06.042Z</time></trkpt><trkpt lat="45.6043714" lon="12.337375"><ele>4.0</ele><time>2026-04-26T06:13:07.044Z</time></trkpt><trkpt lat="45.6044224" lon="12.3376136"><ele>4.0</ele><time>2026-04-26T06:13:08.03Z</time></trkpt><trkpt lat="45.6044675" lon="12.3378571"><ele>4.0</ele><time>2026-04-26T06:13:09.037Z</time></trkpt><trkpt lat="45.6045166" lon="12.3380999"><ele>3.333333333333333</ele><time>2026-04-26T06:13:10.028Z</time></trkpt><trkpt lat="45.6045665" lon="12.3383411"><ele>2.6666666666666665</ele><time>2026-04-26T06:13:11.034Z</time></trkpt><trkpt lat="45.6046181" lon="12.3385789"><ele>2.0</ele><time>2026-04-26T06:13:12.028Z</time></trkpt><trkpt lat="45.6046645" lon="12.3388162"><ele>1.6666666666666665</ele><time>2026-04-26T06:13:13.04Z</time></trkpt><trkpt lat="45.604715" lon="12.3390516"><ele>1.3333333333333333</ele><time>2026-04-26T06:13:14.041Z</time></trkpt><trkpt lat="45.6047464" lon="12.3392943"><ele>1.0</ele><time>2026-04-26T06:13:15.036Z</time></trkpt><trkpt lat="45.6047669" lon="12.3395405"><ele>1.6666666666666665</ele><time>2026-04-26T06:13:16.038Z</time></trkpt><trkpt lat="45.6047698" lon="12.3397912"><ele>2.3333333333333335</ele><time>2026-04-26T06:13:17.036Z</time></trkpt><trkpt lat="45.6047641" lon="12.3400461"><ele>3.0</ele><time>2026-04-26T06:13:18.058Z</time></trkpt><trkpt lat="45.6047495" lon="12.3403051"><ele>3.0</ele><time>2026-04-26T06:13:19.042Z</time></trkpt><trkpt lat="45.6047279" lon="12.3405669"><ele>3.0</ele><time>2026-04-26T06:13:20.037Z</time></trkpt><trkpt lat="45.6047046" lon="12.3408307"><ele>3.0</ele><time>2026-04-26T06:13:21.037Z</time></trkpt><trkpt lat="45.6046834" lon="12.3410976"><ele>3.0</ele><time>2026-04-26T06:13:22.047Z</time></trkpt><trkpt lat="45.6046638" lon="12.3413685"><ele>3.0</ele><time>2026-04-26T06:13:23.036Z</time></trkpt><trkpt lat="45.6046425" lon="12.3416417"><ele>3.0</ele><time>2026-04-26T06:13:24.04Z</time></trkpt><trkpt lat="45.6046117" lon="12.3419147"><ele>2.6666666666666665</ele><time>2026-04-26T06:13:25.036Z</time></trkpt><trkpt lat="45.604589" lon="12.3421872"><ele>2.333333333333333</ele><time>2026-04-26T06:13:26.033Z</time></trkpt><trkpt lat="45.6045712" lon="12.342456"><ele>2.0</ele><time>2026-04-26T06:13:27.037Z</time></trkpt><trkpt lat="45.6045521" lon="12.3427192"><ele>2.0</ele><time>2026-04-26T06:13:28.037Z</time></trkpt><trkpt lat="45.6045319" lon="12.3429769"><ele>2.0</ele><time>2026-04-26T06:13:29.036Z</time></trkpt><trkpt lat="45.6045128" lon="12.3432241"><ele>2.0</ele><time>2026-04-26T06:13:30.046Z</time></trkpt><trkpt lat="45.6044934" lon="12.3434587"><ele>2.0</ele><time>2026-04-26T06:13:31.032Z</time></trkpt><trkpt lat="45.6044795" lon="12.3436861"><ele>2.0</ele><time>2026-04-26T06:13:32.04Z</time></trkpt><trkpt lat="45.6044651" lon="12.3439113"><ele>2.0</ele><time>2026-04-26T06:13:33.047Z</time></trkpt><trkpt lat="45.6044577" lon="12.3441386"><ele>2.0</ele><time>2026-04-26T06:13:34.034Z</time></trkpt><trkpt lat="45.6044589" lon="12.3443714"><ele>2.0</ele><time>2026-04-26T06:13:35.042Z</time></trkpt><trkpt lat="45.6044755" lon="12.3446081"><ele>2.0</ele><time>2026-04-26T06:13:36.03Z</time></trkpt><trkpt lat="45.6045063" lon="12.3448439"><ele>1.0</ele><time>2026-04-26T06:13:37.032Z</time></trkpt><trkpt lat="45.6045319" lon="12.3450758"><ele>0.0</ele><time>2026-04-26T06:13:38.041Z</time></trkpt><trkpt lat="45.6045582" lon="12.3452997"><ele>-1.0</ele><time>2026-04-26T06:13:39.045Z</time></trkpt><trkpt lat="45.6045956" lon="12.3455111"><ele>-0.25</ele><time>2026-04-26T06:13:40.031Z</time></trkpt><trkpt lat="45.604647" lon="12.3457059"><ele>0.5</ele><time>2026-04-26T06:13:41.038Z</time></trkpt><trkpt lat="45.604709" lon="12.3458876"><ele>1.25</ele><time>2026-04-26T06:13:42.034Z</time></trkpt><trkpt lat="45.6047818" lon="12.3460594"><ele>2.0</ele><time>2026-04-26T06:13:43.04Z</time></trkpt><trkpt lat="45.6048732" lon="12.3462156"><ele>2.0</ele><time>2026-04-26T06:13:44.047Z</time></trkpt><trkpt lat="45.6049761" lon="12.3463605"><ele>2.0</ele><time>2026-04-26T06:13:45.053Z</time></trkpt><trkpt lat="45.6050922" lon="12.3464869"><ele>2.0</ele><time>2026-04-26T06:13:46.036Z</time></trkpt><trkpt lat="45.6051998" lon="12.346613"><ele>2.0</ele><time>2026-04-26T06:13:47.048Z</time></trkpt><trkpt lat="45.6053123" lon="12.3467078"><ele>2.2</ele><time>2026-04-26T06:13:48.054Z</time></trkpt><trkpt lat="45.6054095" lon="12.3468157"><ele>2.4000000000000004</ele><time>2026-04-26T06:13:49.032Z</time></trkpt><trkpt lat="45.6054957" lon="12.3469081"><ele>2.5999999999999996</ele><time>2026-04-26T06:13:50.04Z</time></trkpt><trkpt lat="45.6055706" lon="12.3469901"><ele>2.8</ele><time>2026-04-26T06:13:51.042Z</time></trkpt><trkpt lat="45.6056585" lon="12.3470263"><ele>3.0</ele><time>2026-04-26T06:13:52.036Z</time></trkpt><trkpt lat="45.6057422" lon="12.3470487"><ele>3.0</ele><time>2026-04-26T06:13:53.046Z</time></trkpt><trkpt lat="45.6058307" lon="12.3470579"><ele>3.0</ele><time>2026-04-26T06:13:54.051Z</time></trkpt><trkpt lat="45.6059353" lon="12.3470482"><ele>3.0</ele><time>2026-04-26T06:13:55.039Z</time></trkpt><trkpt lat="45.6060605" lon="12.3470285"><ele>3.0</ele><time>2026-04-26T06:13:56.04Z</time></trkpt><trkpt lat="45.6062016" lon="12.3470091"><ele>2.6666666666666665</ele><time>2026-04-26T06:13:57.048Z</time></trkpt><trkpt lat="45.6063627" lon="12.3469852"><ele>2.333333333333333</ele><time>2026-04-26T06:13:58.05Z</time></trkpt><trkpt lat="45.6065376" lon="12.3469438"><ele>2.0</ele><time>2026-04-26T06:13:59.038Z</time></trkpt><trkpt lat="45.6067149" lon="12.3468919"><ele>2.0</ele><time>2026-04-26T06:14:00.046Z</time></trkpt><trkpt lat="45.6068908" lon="12.3468841"><ele>2.0</ele><time>2026-04-26T06:14:01.029Z</time></trkpt><trkpt lat="45.6070656" lon="12.3468601"><ele>2.0</ele><time>2026-04-26T06:14:02.029Z</time></trkpt><trkpt lat="45.6072393" lon="12.3468353"><ele>2.0</ele><time>2026-04-26T06:14:03.034Z</time></trkpt><trkpt lat="45.6074103" lon="12.3468063"><ele>2.0</ele><time>2026-04-26T06:14:04.028Z</time></trkpt><trkpt lat="45.6075775" lon="12.3467679"><ele>2.0</ele><time>2026-04-26T06:14:05.026Z</time></trkpt><trkpt lat="45.6077391" lon="12.3467171"><ele>1.6666666666666665</ele><time>2026-04-26T06:14:06.033Z</time></trkpt><trkpt lat="45.6079056" lon="12.3466893"><ele>1.3333333333333333</ele><time>2026-04-26T06:14:07.031Z</time></trkpt><trkpt lat="45.6080743" lon="12.3466443"><ele>1.0</ele><time>2026-04-26T06:14:08.032Z</time></trkpt><trkpt lat="45.6082478" lon="12.3465942"><ele>1.0</ele><time>2026-04-26T06:14:09.034Z</time></trkpt><trkpt lat="45.608424" lon="12.346524"><ele>1.0</ele><time>2026-04-26T06:14:10.028Z</time></trkpt><trkpt lat="45.6086" lon="12.3464306"><ele>1.0</ele><time>2026-04-26T06:14:11.029Z</time></trkpt><trkpt lat="45.6087772" lon="12.3463234"><ele>1.6666666666666665</ele><time>2026-04-26T06:14:12.042Z</time></trkpt><trkpt lat="45.608958" lon="12.3462082"><ele>2.3333333333333335</ele><time>2026-04-26T06:14:13.035Z</time></trkpt><trkpt lat="45.6091405" lon="12.3460922"><ele>3.0</ele><time>2026-04-26T06:14:14.039Z</time></trkpt><trkpt lat="45.6093241" lon="12.3459753"><ele>2.6666666666666665</ele><time>2026-04-26T06:14:15.034Z</time></trkpt><trkpt lat="45.6095038" lon="12.3458479"><ele>2.333333333333333</ele><time>2026-04-26T06:14:16.037Z</time></trkpt><trkpt lat="45.609685" lon="12.3457283"><ele>2.0</ele><time>2026-04-26T06:14:17.035Z</time></trkpt><trkpt lat="45.6098689" lon="12.3456167"><ele>1.6666666666666665</ele><time>2026-04-26T06:14:18.043Z</time></trkpt><trkpt lat="45.6100529" lon="12.3455068"><ele>1.3333333333333333</ele><time>2026-04-26T06:14:19.049Z</time></trkpt><trkpt lat="45.6102356" lon="12.3453972"><ele>1.0</ele><time>2026-04-26T06:14:20.042Z</time></trkpt><trkpt lat="45.6104145" lon="12.3452837"><ele>1.0</ele><time>2026-04-26T06:14:21.044Z</time></trkpt><trkpt lat="45.6105904" lon="12.3451735"><ele>1.0</ele><time>2026-04-26T06:14:22.044Z</time></trkpt><trkpt lat="45.6107641" lon="12.3450679"><ele>1.0</ele><time>2026-04-26T06:14:23.045Z</time></trkpt><trkpt lat="45.6109362" lon="12.344963"><ele>1.0</ele><time>2026-04-26T06:14:24.032Z</time></trkpt><trkpt lat="45.6111068" lon="12.3448581"><ele>1.0</ele><time>2026-04-26T06:14:25.031Z</time></trkpt><trkpt lat="45.6112753" lon="12.3447504"><ele>1.0</ele><time>2026-04-26T06:14:26.039Z</time></trkpt><trkpt lat="45.6114443" lon="12.3446468"><ele>2.0</ele><time>2026-04-26T06:14:27.06Z</time></trkpt><trkpt lat="45.6116124" lon="12.3445461"><ele>3.0</ele><time>2026-04-26T06:14:28.035Z</time></trkpt><trkpt lat="45.6117771" lon="12.3444402"><ele>4.0</ele><time>2026-04-26T06:14:29.043Z</time></trkpt><trkpt lat="45.6119407" lon="12.3443351"><ele>4.0</ele><time>2026-04-26T06:14:30.047Z</time></trkpt><trkpt lat="45.6121058" lon="12.3442317"><ele>4.0</ele><time>2026-04-26T06:14:31.039Z</time></trkpt><trkpt lat="45.6122619" lon="12.3441046"><ele>4.0</ele><time>2026-04-26T06:14:32.038Z</time></trkpt><trkpt lat="45.6124026" lon="12.3439431"><ele>3.6666666666666665</ele><time>2026-04-26T06:14:33.045Z</time></trkpt><trkpt lat="45.6125437" lon="12.3437776"><ele>3.333333333333333</ele><time>2026-04-26T06:14:34.036Z</time></trkpt><trkpt lat="45.6126894" lon="12.3436092"><ele>3.0</ele><time>2026-04-26T06:14:35.047Z</time></trkpt><trkpt lat="45.6128278" lon="12.3434295"><ele>3.0</ele><time>2026-04-26T06:14:36.025Z</time></trkpt><trkpt lat="45.6129658" lon="12.34325"><ele>3.0</ele><time>2026-04-26T06:14:37.055Z</time></trkpt><trkpt lat="45.6131118" lon="12.3430828"><ele>3.0</ele><time>2026-04-26T06:14:38.056Z</time></trkpt><trkpt lat="45.6132513" lon="12.3429066"><ele>3.0</ele><time>2026-04-26T06:14:39.037Z</time></trkpt><trkpt lat="45.6133877" lon="12.3427283"><ele>3.0</ele><time>2026-04-26T06:14:40.055Z</time></trkpt><trkpt lat="45.6135224" lon="12.3425558"><ele>3.0</ele><time>2026-04-26T06:14:41.036Z</time></trkpt><trkpt lat="45.6136553" lon="12.3423895"><ele>3.0</ele><time>2026-04-26T06:14:42.035Z</time></trkpt><trkpt lat="45.6137866" lon="12.3422271"><ele>3.0</ele><time>2026-04-26T06:14:43.04Z</time></trkpt><trkpt lat="45.6139141" lon="12.342065"><ele>3.0</ele><time>2026-04-26T06:14:44.027Z</time></trkpt><trkpt lat="45.6140427" lon="12.3419055"><ele>3.666666666666667</ele><time>2026-04-26T06:14:45.051Z</time></trkpt><trkpt lat="45.6141686" lon="12.3417414"><ele>4.333333333333334</ele><time>2026-04-26T06:14:46.052Z</time></trkpt><trkpt lat="45.6142955" lon="12.3415796"><ele>5.0</ele><time>2026-04-26T06:14:47.043Z</time></trkpt><trkpt lat="45.6144234" lon="12.3414171"><ele>5.0</ele><time>2026-04-26T06:14:48.046Z</time></trkpt><trkpt lat="45.6145557" lon="12.3412628"><ele>5.0</ele><time>2026-04-26T06:14:49.037Z</time></trkpt><trkpt lat="45.6146928" lon="12.3411178"><ele>5.0</ele><time>2026-04-26T06:14:50.038Z</time></trkpt><trkpt lat="45.6148262" lon="12.3409672"><ele>5.0</ele><time>2026-04-26T06:14:51.033Z</time></trkpt><trkpt lat="45.6149761" lon="12.3408499"><ele>5.0</ele><time>2026-04-26T06:14:52.036Z</time></trkpt><trkpt lat="45.6151404" lon="12.3407687"><ele>5.0</ele><time>2026-04-26T06:14:53.034Z</time></trkpt><trkpt lat="45.6153158" lon="12.3407025"><ele>4.333333333333334</ele><time>2026-04-26T06:14:54.033Z</time></trkpt><trkpt lat="45.6155036" lon="12.3406518"><ele>3.666666666666667</ele><time>2026-04-26T06:14:55.034Z</time></trkpt><trkpt lat="45.6156961" lon="12.3406111"><ele>3.0</ele><time>2026-04-26T06:14:56.046Z</time></trkpt><trkpt lat="45.6158935" lon="12.3405786"><ele>3.0</ele><time>2026-04-26T06:14:57.034Z</time></trkpt><trkpt lat="45.6160942" lon="12.3405422"><ele>3.0</ele><time>2026-04-26T06:14:58.035Z</time></trkpt><trkpt lat="45.616295" lon="12.340521"><ele>3.0</ele><time>2026-04-26T06:14:59.038Z</time></trkpt><trkpt lat="45.6164909" lon="12.3404976"><ele>3.0</ele><time>2026-04-26T06:15:00.044Z</time></trkpt><trkpt lat="45.6166815" lon="12.3404672"><ele>3.0</ele><time>2026-04-26T06:15:01.032Z</time></trkpt><trkpt lat="45.6168656" lon="12.3404466"><ele>3.0</ele><time>2026-04-26T06:15:02.037Z</time></trkpt><trkpt lat="45.617047" lon="12.3404354"><ele>2.6666666666666665</ele><time>2026-04-26T06:15:03.039Z</time></trkpt><trkpt lat="45.6172275" lon="12.340412"><ele>2.333333333333333</ele><time>2026-04-26T06:15:04.04Z</time></trkpt><trkpt lat="45.6174079" lon="12.3403853"><ele>2.0</ele><time>2026-04-26T06:15:05.06Z</time></trkpt><trkpt lat="45.6175868" lon="12.3403532"><ele>2.0</ele><time>2026-04-26T06:15:06.066Z</time></trkpt><trkpt lat="45.6177622" lon="12.3403157"><ele>2.0</ele><time>2026-04-26T06:15:07.064Z</time></trkpt><trkpt lat="45.6179354" lon="12.3402661"><ele>2.0</ele><time>2026-04-26T06:15:08.04Z</time></trkpt><trkpt lat="45.6181029" lon="12.3401846"><ele>1.3333333333333333</ele><time>2026-04-26T06:15:09.049Z</time></trkpt><trkpt lat="45.6182614" lon="12.3400683"><ele>0.6666666666666666</ele><time>2026-04-26T06:15:10.046Z</time></trkpt><trkpt lat="45.6184092" lon="12.3399128"><ele>0.0</ele><time>2026-04-26T06:15:11.029Z</time></trkpt><trkpt lat="45.6185517" lon="12.3397489"><ele>0.6666666666666666</ele><time>2026-04-26T06:15:12.043Z</time></trkpt><trkpt lat="45.6186838" lon="12.3395663"><ele>1.3333333333333333</ele><time>2026-04-26T06:15:13.044Z</time></trkpt><trkpt lat="45.6188073" lon="12.339369"><ele>2.0</ele><time>2026-04-26T06:15:14.049Z</time></trkpt><trkpt lat="45.6189263" lon="12.339166"><ele>2.0</ele><time>2026-04-26T06:15:15.042Z</time></trkpt><trkpt lat="45.6190473" lon="12.3389621"><ele>2.0</ele><time>2026-04-26T06:15:16.054Z</time></trkpt><trkpt lat="45.6191661" lon="12.3387577"><ele>2.0</ele><time>2026-04-26T06:15:17.037Z</time></trkpt><trkpt lat="45.6192824" lon="12.3385541"><ele>2.0</ele><time>2026-04-26T06:15:18.039Z</time></trkpt><trkpt lat="45.6193997" lon="12.3383585"><ele>2.0</ele><time>2026-04-26T06:15:19.054Z</time></trkpt><trkpt lat="45.6195167" lon="12.3381723"><ele>2.0</ele><time>2026-04-26T06:15:20.037Z</time></trkpt><trkpt lat="45.6196375" lon="12.3380013"><ele>2.333333333333333</ele><time>2026-04-26T06:15:21.036Z</time></trkpt><trkpt lat="45.6197646" lon="12.337847"><ele>2.6666666666666665</ele><time>2026-04-26T06:15:22.03Z</time></trkpt><trkpt lat="45.619903" lon="12.3377131"><ele>3.0</ele><time>2026-04-26T06:15:23.043Z</time></trkpt><trkpt lat="45.6200573" lon="12.3376127"><ele>3.0</ele><time>2026-04-26T06:15:24.037Z</time></trkpt><trkpt lat="45.6202158" lon="12.3375247"><ele>3.0</ele><time>2026-04-26T06:15:25.037Z</time></trkpt><trkpt lat="45.6203785" lon="12.3374475"><ele>3.0</ele><time>2026-04-26T06:15:26.035Z</time></trkpt><trkpt lat="45.6205457" lon="12.3373861"><ele>3.333333333333333</ele><time>2026-04-26T06:15:27.038Z</time></trkpt><trkpt lat="45.6207195" lon="12.3373403"><ele>3.6666666666666665</ele><time>2026-04-26T06:15:28.053Z</time></trkpt><trkpt lat="45.6208968" lon="12.3372953"><ele>4.0</ele><time>2026-04-26T06:15:29.041Z</time></trkpt><trkpt lat="45.6210752" lon="12.337258"><ele>4.666666666666666</ele><time>2026-04-26T06:15:30.051Z</time></trkpt><trkpt lat="45.6212547" lon="12.3372166"><ele>5.333333333333333</ele><time>2026-04-26T06:15:31.051Z</time></trkpt><trkpt lat="45.6214348" lon="12.3371733"><ele>6.0</ele><time>2026-04-26T06:15:32.077Z</time></trkpt><trkpt lat="45.6216156" lon="12.3371289"><ele>6.0</ele><time>2026-04-26T06:15:33.049Z</time></trkpt><trkpt lat="45.6217966" lon="12.337085"><ele>6.0</ele><time>2026-04-26T06:15:34.047Z</time></trkpt><trkpt lat="45.6219783" lon="12.3370487"><ele>6.0</ele><time>2026-04-26T06:15:35.049Z</time></trkpt><trkpt lat="45.6221599" lon="12.3370042"><ele>6.0</ele><time>2026-04-26T06:15:36.038Z</time></trkpt><trkpt lat="45.622343" lon="12.3369591"><ele>6.0</ele><time>2026-04-26T06:15:37.041Z</time></trkpt><trkpt lat="45.6225271" lon="12.3369145"><ele>6.0</ele><time>2026-04-26T06:15:38.049Z</time></trkpt><trkpt lat="45.6227138" lon="12.3368724"><ele>5.666666666666667</ele><time>2026-04-26T06:15:39.064Z</time></trkpt><trkpt lat="45.6229024" lon="12.3368318"><ele>5.333333333333334</ele><time>2026-04-26T06:15:40.036Z</time></trkpt><trkpt lat="45.6230914" lon="12.33679"><ele>5.0</ele><time>2026-04-26T06:15:41.056Z</time></trkpt><trkpt lat="45.6232799" lon="12.3367448"><ele>5.0</ele><time>2026-04-26T06:15:42.045Z</time></trkpt><trkpt lat="45.6234673" lon="12.3366971"><ele>5.0</ele><time>2026-04-26T06:15:43.044Z</time></trkpt><trkpt lat="45.6236517" lon="12.3366501"><ele>5.0</ele><time>2026-04-26T06:15:44.04Z</time></trkpt><trkpt lat="45.6238344" lon="12.3366055"><ele>5.333333333333334</ele><time>2026-04-26T06:15:45.033Z</time></trkpt><trkpt lat="45.6240165" lon="12.3365655"><ele>5.666666666666667</ele><time>2026-04-26T06:15:46.05Z</time></trkpt><trkpt lat="45.6241969" lon="12.3365166"><ele>6.0</ele><time>2026-04-26T06:15:47.042Z</time></trkpt><trkpt lat="45.6243785" lon="12.3364798"><ele>6.0</ele><time>2026-04-26T06:15:48.042Z</time></trkpt><trkpt lat="45.6245572" lon="12.3364393"><ele>6.0</ele><time>2026-04-26T06:15:49.066Z</time></trkpt><trkpt lat="45.6247298" lon="12.3363951"><ele>6.0</ele><time>2026-04-26T06:15:50.046Z</time></trkpt><trkpt lat="45.6248997" lon="12.3363542"><ele>6.0</ele><time>2026-04-26T06:15:51.044Z</time></trkpt><trkpt lat="45.6250694" lon="12.3363144"><ele>6.0</ele><time>2026-04-26T06:15:52.056Z</time></trkpt><trkpt lat="45.6252393" lon="12.3362724"><ele>6.0</ele><time>2026-04-26T06:15:53.032Z</time></trkpt><trkpt lat="45.6254095" lon="12.3362286"><ele>6.0</ele><time>2026-04-26T06:15:54.041Z</time></trkpt><trkpt lat="45.6255801" lon="12.3361793"><ele>6.0</ele><time>2026-04-26T06:15:55.04Z</time></trkpt><trkpt lat="45.6257521" lon="12.3361276"><ele>6.0</ele><time>2026-04-26T06:15:56.04Z</time></trkpt><trkpt lat="45.6259263" lon="12.3360813"><ele>6.0</ele><time>2026-04-26T06:15:57.041Z</time></trkpt><trkpt lat="45.6260957" lon="12.3360058"><ele>6.0</ele><time>2026-04-26T06:15:58.041Z</time></trkpt><trkpt lat="45.6262662" lon="12.3359423"><ele>6.0</ele><time>2026-04-26T06:15:59.061Z</time></trkpt><trkpt lat="45.6264387" lon="12.3358846"><ele>6.0</ele><time>2026-04-26T06:16:00.062Z</time></trkpt><trkpt lat="45.6266166" lon="12.3358548"><ele>6.0</ele><time>2026-04-26T06:16:01.038Z</time></trkpt><trkpt lat="45.6267922" lon="12.3358045"><ele>6.0</ele><time>2026-04-26T06:16:02.038Z</time></trkpt><trkpt lat="45.6269679" lon="12.335752"><ele>6.333333333333334</ele><time>2026-04-26T06:16:03.048Z</time></trkpt><trkpt lat="45.6271443" lon="12.3356962"><ele>6.666666666666667</ele><time>2026-04-26T06:16:04.038Z</time></trkpt><trkpt lat="45.6273218" lon="12.335643"><ele>7.0</ele><time>2026-04-26T06:16:05.059Z</time></trkpt><trkpt lat="45.6274998" lon="12.3355924"><ele>6.666666666666667</ele><time>2026-04-26T06:16:06.06Z</time></trkpt><trkpt lat="45.6276791" lon="12.3355406"><ele>6.333333333333334</ele><time>2026-04-26T06:16:07.052Z</time></trkpt><trkpt lat="45.6278592" lon="12.3354816"><ele>6.0</ele><time>2026-04-26T06:16:08.038Z</time></trkpt><trkpt lat="45.6280377" lon="12.3354172"><ele>5.666666666666667</ele><time>2026-04-26T06:16:09.033Z</time></trkpt><trkpt lat="45.6282133" lon="12.3353534"><ele>5.333333333333334</ele><time>2026-04-26T06:16:10.037Z</time></trkpt><trkpt lat="45.6283842" lon="12.3352901"><ele>5.0</ele><time>2026-04-26T06:16:11.036Z</time></trkpt><trkpt lat="45.6285532" lon="12.3352212"><ele>5.333333333333334</ele><time>2026-04-26T06:16:12.06Z</time></trkpt><trkpt lat="45.6287186" lon="12.335145"><ele>5.666666666666667</ele><time>2026-04-26T06:16:13.038Z</time></trkpt><trkpt lat="45.6288654" lon="12.3350178"><ele>6.0</ele><time>2026-04-26T06:16:14.037Z</time></trkpt><trkpt lat="45.6290009" lon="12.3348706"><ele>6.0</ele><time>2026-04-26T06:16:15.035Z</time></trkpt><trkpt lat="45.6291192" lon="12.3346945"><ele>6.0</ele><time>2026-04-26T06:16:16.04Z</time></trkpt><trkpt lat="45.6292238" lon="12.3345018"><ele>6.0</ele><time>2026-04-26T06:16:17.039Z</time></trkpt><trkpt lat="45.6293199" lon="12.3342986"><ele>6.0</ele><time>2026-04-26T06:16:18.048Z</time></trkpt><trkpt lat="45.6294069" lon="12.3340852"><ele>6.0</ele><time>2026-04-26T06:16:19.032Z</time></trkpt><trkpt lat="45.629497" lon="12.3338736"><ele>6.0</ele><time>2026-04-26T06:16:20.033Z</time></trkpt><trkpt lat="45.62959" lon="12.333663"><ele>6.0</ele><time>2026-04-26T06:16:21.039Z</time></trkpt><trkpt lat="45.6296848" lon="12.3334539"><ele>6.0</ele><time>2026-04-26T06:16:22.049Z</time></trkpt><trkpt lat="45.6297778" lon="12.333244"><ele>6.0</ele><time>2026-04-26T06:16:23.058Z</time></trkpt><trkpt lat="45.6298686" lon="12.3330333"><ele>5.666666666666667</ele><time>2026-04-26T06:16:24.045Z</time></trkpt><trkpt lat="45.6299602" lon="12.332826"><ele>5.333333333333334</ele><time>2026-04-26T06:16:25.059Z</time></trkpt><trkpt lat="45.6300534" lon="12.3326197"><ele>5.0</ele><time>2026-04-26T06:16:26.052Z</time></trkpt><trkpt lat="45.6301558" lon="12.3324192"><ele>5.0</ele><time>2026-04-26T06:16:27.06Z</time></trkpt><trkpt lat="45.6302711" lon="12.3322267"><ele>5.0</ele><time>2026-04-26T06:16:28.057Z</time></trkpt><trkpt lat="45.6303956" lon="12.3320476"><ele>5.0</ele><time>2026-04-26T06:16:29.057Z</time></trkpt><trkpt lat="45.6305272" lon="12.3318737"><ele>5.0</ele><time>2026-04-26T06:16:30.044Z</time></trkpt><trkpt lat="45.6306591" lon="12.331695"><ele>5.0</ele><time>2026-04-26T06:16:31.043Z</time></trkpt><trkpt lat="45.630791" lon="12.3315169"><ele>5.0</ele><time>2026-04-26T06:16:32.04Z</time></trkpt><trkpt lat="45.6309245" lon="12.3313388"><ele>4.666666666666667</ele><time>2026-04-26T06:16:33.046Z</time></trkpt><trkpt lat="45.6310643" lon="12.3311642"><ele>4.333333333333333</ele><time>2026-04-26T06:16:34.051Z</time></trkpt><trkpt lat="45.6311991" lon="12.330976"><ele>4.0</ele><time>2026-04-26T06:16:35.039Z</time></trkpt><trkpt lat="45.6313332" lon="12.3307896"><ele>4.333333333333333</ele><time>2026-04-26T06:16:36.04Z</time></trkpt><trkpt lat="45.6314653" lon="12.3306036"><ele>4.666666666666667</ele><time>2026-04-26T06:16:37.059Z</time></trkpt><trkpt lat="45.6316001" lon="12.3304224"><ele>5.0</ele><time>2026-04-26T06:16:38.054Z</time></trkpt><trkpt lat="45.6317302" lon="12.330239"><ele>5.0</ele><time>2026-04-26T06:16:39.055Z</time></trkpt><trkpt lat="45.6318626" lon="12.330068"><ele>5.0</ele><time>2026-04-26T06:16:40.05Z</time></trkpt><trkpt lat="45.6319905" lon="12.3298998"><ele>5.0</ele><time>2026-04-26T06:16:41.048Z</time></trkpt><trkpt lat="45.6321151" lon="12.3297347"><ele>4.333333333333334</ele><time>2026-04-26T06:16:42.05Z</time></trkpt><trkpt lat="45.6322365" lon="12.3295614"><ele>3.666666666666667</ele><time>2026-04-26T06:16:43.053Z</time></trkpt><trkpt lat="45.6323675" lon="12.3293944"><ele>3.0</ele><time>2026-04-26T06:16:44.065Z</time></trkpt><trkpt lat="45.6324923" lon="12.3292087"><ele>3.0</ele><time>2026-04-26T06:16:45.051Z</time></trkpt><trkpt lat="45.6326019" lon="12.3289968"><ele>3.0</ele><time>2026-04-26T06:16:46.05Z</time></trkpt><trkpt lat="45.6327089" lon="12.3287776"><ele>3.0</ele><time>2026-04-26T06:16:47.044Z</time></trkpt><trkpt lat="45.6328022" lon="12.3285352"><ele>4.0</ele><time>2026-04-26T06:16:48.06Z</time></trkpt><trkpt lat="45.632901" lon="12.3283041"><ele>5.0</ele><time>2026-04-26T06:16:49.055Z</time></trkpt><trkpt lat="45.6329842" lon="12.3280711"><ele>6.0</ele><time>2026-04-26T06:16:50.051Z</time></trkpt><trkpt lat="45.6330651" lon="12.3278482"><ele>6.333333333333334</ele><time>2026-04-26T06:16:51.056Z</time></trkpt><trkpt lat="45.6331474" lon="12.3276359"><ele>6.666666666666667</ele><time>2026-04-26T06:16:52.055Z</time></trkpt><trkpt lat="45.6332332" lon="12.3274319"><ele>7.0</ele><time>2026-04-26T06:16:53.066Z</time></trkpt><trkpt lat="45.6333137" lon="12.3272243"><ele>7.0</ele><time>2026-04-26T06:16:54.047Z</time></trkpt><trkpt lat="45.6333924" lon="12.3270142"><ele>7.0</ele><time>2026-04-26T06:16:55.05Z</time></trkpt><trkpt lat="45.6334733" lon="12.3268045"><ele>7.0</ele><time>2026-04-26T06:16:56.027Z</time></trkpt><trkpt lat="45.6335581" lon="12.3265964"><ele>6.666666666666667</ele><time>2026-04-26T06:16:57.057Z</time></trkpt><trkpt lat="45.6336384" lon="12.3263833"><ele>6.333333333333334</ele><time>2026-04-26T06:16:58.056Z</time></trkpt><trkpt lat="45.6337292" lon="12.3261788"><ele>6.0</ele><time>2026-04-26T06:16:59.041Z</time></trkpt><trkpt lat="45.633814" lon="12.3259679"><ele>6.0</ele><time>2026-04-26T06:17:00.069Z</time></trkpt><trkpt lat="45.633909" lon="12.325764"><ele>6.0</ele><time>2026-04-26T06:17:01.054Z</time></trkpt><trkpt lat="45.6340143" lon="12.3255671"><ele>6.0</ele><time>2026-04-26T06:17:02.056Z</time></trkpt><trkpt lat="45.634125" lon="12.3253717"><ele>5.666666666666667</ele><time>2026-04-26T06:17:03.04Z</time></trkpt><trkpt lat="45.634243" lon="12.3251763"><ele>5.333333333333334</ele><time>2026-04-26T06:17:04.03Z</time></trkpt><trkpt lat="45.6343787" lon="12.3249932"><ele>5.0</ele><time>2026-04-26T06:17:05.053Z</time></trkpt><trkpt lat="45.6345174" lon="12.3248109"><ele>5.666666666666667</ele><time>2026-04-26T06:17:06.059Z</time></trkpt><trkpt lat="45.6346632" lon="12.3246282"><ele>6.333333333333334</ele><time>2026-04-26T06:17:07.03Z</time></trkpt><trkpt lat="45.6348184" lon="12.3244586"><ele>7.0</ele><time>2026-04-26T06:17:08.053Z</time></trkpt><trkpt lat="45.6349747" lon="12.3242945"><ele>7.0</ele><time>2026-04-26T06:17:09.053Z</time></trkpt><trkpt lat="45.6351303" lon="12.3241442"><ele>7.0</ele><time>2026-04-26T06:17:10.035Z</time></trkpt><trkpt lat="45.6352765" lon="12.3240028"><ele>7.0</ele><time>2026-04-26T06:17:11.051Z</time></trkpt><trkpt lat="45.6354111" lon="12.3238748"><ele>6.25</ele><time>2026-04-26T06:17:12.064Z</time></trkpt><trkpt lat="45.6355379" lon="12.323774"><ele>5.5</ele><time>2026-04-26T06:17:13.037Z</time></trkpt><trkpt lat="45.635649" lon="12.3236876"><ele>4.75</ele><time>2026-04-26T06:17:14.048Z</time></trkpt><trkpt lat="45.6357423" lon="12.3236146"><ele>4.0</ele><time>2026-04-26T06:17:15.048Z</time></trkpt><trkpt lat="45.6358178" lon="12.3235662"><ele>4.0</ele><time>2026-04-26T06:17:16.053Z</time></trkpt><trkpt lat="45.6359392" lon="12.323564"><ele>4.0</ele><time>2026-04-26T06:17:18.035Z</time></trkpt><trkpt lat="45.6360051" lon="12.3236429"><ele>4.0</ele><time>2026-04-26T06:17:19.05Z</time></trkpt><trkpt lat="45.6360795" lon="12.3237483"><ele>4.0</ele><time>2026-04-26T06:17:20.049Z</time></trkpt><trkpt lat="45.6361803" lon="12.3238312"><ele>4.0</ele><time>2026-04-26T06:17:21.035Z</time></trkpt><trkpt lat="45.6362827" lon="12.323916"><ele>5.0</ele><time>2026-04-26T06:17:22.03Z</time></trkpt><trkpt lat="45.6363934" lon="12.3239978"><ele>6.0</ele><time>2026-04-26T06:17:23.037Z</time></trkpt><trkpt lat="45.636508" lon="12.3240849"><ele>7.0</ele><time>2026-04-26T06:17:24.047Z</time></trkpt><trkpt lat="45.6366283" lon="12.3241696"><ele>8.0</ele><time>2026-04-26T06:17:25.026Z</time></trkpt><trkpt lat="45.6367423" lon="12.3242716"><ele>8.0</ele><time>2026-04-26T06:17:26.042Z</time></trkpt><trkpt lat="45.6368574" lon="12.3243745"><ele>8.0</ele><time>2026-04-26T06:17:27.039Z</time></trkpt><trkpt lat="45.6369799" lon="12.3244716"><ele>8.0</ele><time>2026-04-26T06:17:28.034Z</time></trkpt><trkpt lat="45.6371025" lon="12.3245708"><ele>8.0</ele><time>2026-04-26T06:17:29.042Z</time></trkpt><trkpt lat="45.6372204" lon="12.3246768"><ele>8.0</ele><time>2026-04-26T06:17:30.032Z</time></trkpt><trkpt lat="45.6373352" lon="12.3247765"><ele>8.0</ele><time>2026-04-26T06:17:31.027Z</time></trkpt><trkpt lat="45.6374479" lon="12.3248655"><ele>8.0</ele><time>2026-04-26T06:17:32.045Z</time></trkpt><trkpt lat="45.6375538" lon="12.3249587"><ele>8.0</ele><time>2026-04-26T06:17:33.041Z</time></trkpt><trkpt lat="45.6376554" lon="12.3250629"><ele>8.0</ele><time>2026-04-26T06:17:34.052Z</time></trkpt><trkpt lat="45.637763" lon="12.3251602"><ele>8.0</ele><time>2026-04-26T06:17:35.038Z</time></trkpt><trkpt lat="45.6378714" lon="12.3252703"><ele>8.0</ele><time>2026-04-26T06:17:36.03Z</time></trkpt><trkpt lat="45.6379881" lon="12.3253767"><ele>8.0</ele><time>2026-04-26T06:17:37.034Z</time></trkpt><trkpt lat="45.6381078" lon="12.3254892"><ele>8.0</ele><time>2026-04-26T06:17:38.043Z</time></trkpt><trkpt lat="45.6382338" lon="12.3255977"><ele>8.0</ele><time>2026-04-26T06:17:39.031Z</time></trkpt><trkpt lat="45.6383604" lon="12.3257144"><ele>8.0</ele><time>2026-04-26T06:17:40.039Z</time></trkpt><trkpt lat="45.6384868" lon="12.3258337"><ele>8.0</ele><time>2026-04-26T06:17:41.046Z</time></trkpt><trkpt lat="45.6386127" lon="12.3259541"><ele>8.0</ele><time>2026-04-26T06:17:42.033Z</time></trkpt><trkpt lat="45.6387373" lon="12.3260783"><ele>8.0</ele><time>2026-04-26T06:17:43.03Z</time></trkpt><trkpt lat="45.6388617" lon="12.3261974"><ele>8.0</ele><time>2026-04-26T06:17:44.036Z</time></trkpt><trkpt lat="45.6389758" lon="12.3263289"><ele>8.0</ele><time>2026-04-26T06:17:45.033Z</time></trkpt><trkpt lat="45.6390938" lon="12.326451"><ele>8.0</ele><time>2026-04-26T06:17:46.034Z</time></trkpt><trkpt lat="45.6392226" lon="12.3265567"><ele>8.0</ele><time>2026-04-26T06:17:47.039Z</time></trkpt><trkpt lat="45.6393648" lon="12.3266361"><ele>8.0</ele><time>2026-04-26T06:17:48.03Z</time></trkpt><trkpt lat="45.63952" lon="12.3266784"><ele>8.0</ele><time>2026-04-26T06:17:49.03Z</time></trkpt><trkpt lat="45.639676" lon="12.3267271"><ele>8.0</ele><time>2026-04-26T06:17:50.032Z</time></trkpt><trkpt lat="45.6398334" lon="12.3267826"><ele>8.0</ele><time>2026-04-26T06:17:51.03Z</time></trkpt><trkpt lat="45.6399897" lon="12.3268553"><ele>8.0</ele><time>2026-04-26T06:17:52.034Z</time></trkpt><trkpt lat="45.6401508" lon="12.3269158"><ele>8.0</ele><time>2026-04-26T06:17:53.038Z</time></trkpt><trkpt lat="45.6403107" lon="12.3269782"><ele>8.0</ele><time>2026-04-26T06:17:54.038Z</time></trkpt><trkpt lat="45.6404663" lon="12.3270362"><ele>7.666666666666666</ele><time>2026-04-26T06:17:55.03Z</time></trkpt><trkpt lat="45.6406163" lon="12.3270979"><ele>7.333333333333334</ele><time>2026-04-26T06:17:56.043Z</time></trkpt><trkpt lat="45.6407637" lon="12.3271549"><ele>7.0</ele><time>2026-04-26T06:17:57.028Z</time></trkpt><trkpt lat="45.6409131" lon="12.3271995"><ele>7.333333333333334</ele><time>2026-04-26T06:17:58.027Z</time></trkpt><trkpt lat="45.6410599" lon="12.3272613"><ele>7.666666666666666</ele><time>2026-04-26T06:17:59.031Z</time></trkpt><trkpt lat="45.6412009" lon="12.3273564"><ele>8.0</ele><time>2026-04-26T06:18:00.041Z</time></trkpt><trkpt lat="45.6413377" lon="12.3274689"><ele>8.333333333333332</ele><time>2026-04-26T06:18:01.036Z</time></trkpt><trkpt lat="45.6414827" lon="12.3275623"><ele>8.666666666666666</ele><time>2026-04-26T06:18:02.026Z</time></trkpt><trkpt lat="45.6416303" lon="12.3276466"><ele>9.0</ele><time>2026-04-26T06:18:03.026Z</time></trkpt><trkpt lat="45.6417764" lon="12.3277172"><ele>9.0</ele><time>2026-04-26T06:18:04.034Z</time></trkpt><trkpt lat="45.641912" lon="12.3277772"><ele>9.0</ele><time>2026-04-26T06:18:05.037Z</time></trkpt><trkpt lat="45.6420345" lon="12.3278376"><ele>9.0</ele><time>2026-04-26T06:18:06.052Z</time></trkpt><trkpt lat="45.642159" lon="12.3278448"><ele>9.0</ele><time>2026-04-26T06:18:07.045Z</time></trkpt><trkpt lat="45.6422773" lon="12.3277822"><ele>8.25</ele><time>2026-04-26T06:18:08.033Z</time></trkpt><trkpt lat="45.6423883" lon="12.3276981"><ele>7.5</ele><time>2026-04-26T06:18:09.039Z</time></trkpt><trkpt lat="45.6424938" lon="12.3275942"><ele>6.75</ele><time>2026-04-26T06:18:10.041Z</time></trkpt><trkpt lat="45.6426056" lon="12.327483"><ele>6.0</ele><time>2026-04-26T06:18:11.039Z</time></trkpt><trkpt lat="45.6427396" lon="12.3274092"><ele>7.0</ele><time>2026-04-26T06:18:12.018Z</time></trkpt><trkpt lat="45.6428883" lon="12.3273634"><ele>8.0</ele><time>2026-04-26T06:18:13.031Z</time></trkpt><trkpt lat="45.6430497" lon="12.3273594"><ele>9.0</ele><time>2026-04-26T06:18:14.04Z</time></trkpt><trkpt lat="45.6432128" lon="12.3273546"><ele>9.0</ele><time>2026-04-26T06:18:15.037Z</time></trkpt><trkpt lat="45.6433769" lon="12.3273466"><ele>9.0</ele><time>2026-04-26T06:18:16.044Z</time></trkpt><trkpt lat="45.6435428" lon="12.3273244"><ele>9.0</ele><time>2026-04-26T06:18:17.039Z</time></trkpt><trkpt lat="45.6437065" lon="12.3273115"><ele>8.666666666666666</ele><time>2026-04-26T06:18:18.036Z</time></trkpt><trkpt lat="45.6438638" lon="12.3273047"><ele>8.333333333333332</ele><time>2026-04-26T06:18:19.034Z</time></trkpt><trkpt lat="45.6440161" lon="12.3272973"><ele>8.0</ele><time>2026-04-26T06:18:20.033Z</time></trkpt><trkpt lat="45.6441638" lon="12.3272984"><ele>8.0</ele><time>2026-04-26T06:18:21.038Z</time></trkpt><trkpt lat="45.6443069" lon="12.3272896"><ele>8.0</ele><time>2026-04-26T06:18:22.051Z</time></trkpt><trkpt lat="45.6444419" lon="12.3273002"><ele>8.0</ele><time>2026-04-26T06:18:23.029Z</time></trkpt><trkpt lat="45.6445631" lon="12.3273083"><ele>8.0</ele><time>2026-04-26T06:18:24.042Z</time></trkpt><trkpt lat="45.6446725" lon="12.3273229"><ele>7.857142857142857</ele><time>2026-04-26T06:18:25.041Z</time></trkpt><trkpt lat="45.644767" lon="12.3273272"><ele>7.7142857142857135</ele><time>2026-04-26T06:18:26.043Z</time></trkpt><trkpt lat="45.6448447" lon="12.3273498"><ele>7.571428571428571</ele><time>2026-04-26T06:18:27.031Z</time></trkpt><trkpt lat="45.6449119" lon="12.3273756"><ele>7.428571428571429</ele><time>2026-04-26T06:18:28.036Z</time></trkpt><trkpt lat="45.6449732" lon="12.3274109"><ele>7.285714285714286</ele><time>2026-04-26T06:18:29.037Z</time></trkpt><trkpt lat="45.6450308" lon="12.3274581"><ele>7.142857142857142</ele><time>2026-04-26T06:18:30.027Z</time></trkpt><trkpt lat="45.6450786" lon="12.3275356"><ele>7.0</ele><time>2026-04-26T06:18:31.027Z</time></trkpt><trkpt lat="45.6451267" lon="12.3276252"><ele>7.0</ele><time>2026-04-26T06:18:32.03Z</time></trkpt><trkpt lat="45.645174" lon="12.3277297"><ele>6.999999999999999</ele><time>2026-04-26T06:18:33.026Z</time></trkpt><trkpt lat="45.6452263" lon="12.3278407"><ele>6.999999999999999</ele><time>2026-04-26T06:18:34.035Z</time></trkpt><trkpt lat="45.6452752" lon="12.3279613"><ele>7.0</ele><time>2026-04-26T06:18:35.02Z</time></trkpt><trkpt lat="45.6453111" lon="12.3280985"><ele>7.0</ele><time>2026-04-26T06:18:36.031Z</time></trkpt><trkpt lat="45.6453273" lon="12.3282562"><ele>7.0</ele><time>2026-04-26T06:18:37.046Z</time></trkpt><trkpt lat="45.6453128" lon="12.3284332"><ele>7.0</ele><time>2026-04-26T06:18:38.043Z</time></trkpt><trkpt lat="45.6452748" lon="12.3286171"><ele>7.0</ele><time>2026-04-26T06:18:39.043Z</time></trkpt><trkpt lat="45.645229" lon="12.3288053"><ele>7.0</ele><time>2026-04-26T06:18:40.032Z</time></trkpt><trkpt lat="45.6451859" lon="12.3290029"><ele>7.333333333333334</ele><time>2026-04-26T06:18:41.037Z</time></trkpt><trkpt lat="45.6451436" lon="12.3292117"><ele>7.666666666666666</ele><time>2026-04-26T06:18:42.027Z</time></trkpt><trkpt lat="45.645097" lon="12.3294245"><ele>8.0</ele><time>2026-04-26T06:18:43.027Z</time></trkpt><trkpt lat="45.6450559" lon="12.3296432"><ele>8.5</ele><time>2026-04-26T06:18:44.037Z</time></trkpt><trkpt lat="45.6450136" lon="12.3298547"><ele>9.0</ele><time>2026-04-26T06:18:45.041Z</time></trkpt><trkpt lat="45.6449727" lon="12.3300533"><ele>9.5</ele><time>2026-04-26T06:18:46.041Z</time></trkpt><trkpt lat="45.644946" lon="12.3302417"><ele>10.0</ele><time>2026-04-26T06:18:47.046Z</time></trkpt><trkpt lat="45.6449113" lon="12.3304103"><ele>9.6</ele><time>2026-04-26T06:18:48.049Z</time></trkpt><trkpt lat="45.6448832" lon="12.3305688"><ele>9.2</ele><time>2026-04-26T06:18:49.042Z</time></trkpt><trkpt lat="45.6448538" lon="12.3307167"><ele>8.8</ele><time>2026-04-26T06:18:50.027Z</time></trkpt><trkpt lat="45.6448276" lon="12.3308562"><ele>8.4</ele><time>2026-04-26T06:18:51.042Z</time></trkpt><trkpt lat="45.6448085" lon="12.3309767"><ele>8.0</ele><time>2026-04-26T06:18:52.038Z</time></trkpt><trkpt lat="45.6448123" lon="12.3310771"><ele>7.999999999999999</ele><time>2026-04-26T06:18:53.049Z</time></trkpt><trkpt lat="45.6448838" lon="12.331191"><ele>8.0</ele><time>2026-04-26T06:18:55.028Z</time></trkpt><trkpt lat="45.6449648" lon="12.3311573"><ele>8.0</ele><time>2026-04-26T06:18:57.031Z</time></trkpt><trkpt lat="45.6449952" lon="12.3310658"><ele>8.0</ele><time>2026-04-26T06:18:59.044Z</time></trkpt><trkpt lat="45.6449922" lon="12.3309749"><ele>7.999999999999999</ele><time>2026-04-26T06:19:01.034Z</time></trkpt><trkpt lat="45.644978" lon="12.3308454"><ele>8.0</ele><time>2026-04-26T06:23:33.041Z</time></trkpt><trkpt lat="45.6449599" lon="12.3307269"><ele>7.999999999999999</ele><time>2026-04-26T06:23:44.023Z</time></trkpt><trkpt lat="45.6449786" lon="12.3305893"><ele>8.0</ele><time>2026-04-26T06:23:47.041Z</time></trkpt><trkpt lat="45.6450003" lon="12.3304779"><ele>8.0</ele><time>2026-04-26T06:23:49.037Z</time></trkpt><trkpt lat="45.6450289" lon="12.3303695"><ele>8.0</ele><time>2026-04-26T06:23:51.049Z</time></trkpt><trkpt lat="45.6450836" lon="12.3303205"><ele>7.999999999999999</ele><time>2026-04-26T06:23:53.037Z</time></trkpt><trkpt lat="45.6451605" lon="12.3303129"><ele>8.0</ele><time>2026-04-26T06:23:55.035Z</time></trkpt><trkpt lat="45.6450802" lon="12.3303253"><ele>8.0</ele><time>2026-04-26T06:24:02.041Z</time></trkpt><trkpt lat="45.6450512" lon="12.3304194"><ele>7.999999999999999</ele><time>2026-04-26T06:24:05.027Z</time></trkpt><trkpt lat="45.6450571" lon="12.3305121"><ele>8.0</ele><time>2026-04-26T06:24:08.029Z</time></trkpt><trkpt lat="45.6450927" lon="12.3305864"><ele>8.0</ele><time>2026-04-26T06:36:39.01Z</time></trkpt><trkpt lat="45.6450409" lon="12.3305252"><ele>7.999999999999999</ele><time>2026-04-26T06:42:07.008Z</time></trkpt><trkpt lat="45.6449695" lon="12.3305827"><ele>8.0</ele><time>2026-04-26T06:42:09.03Z</time></trkpt><trkpt lat="45.6449085" lon="12.3304839"><ele>8.0</ele><time>2026-04-26T06:42:15.043Z</time></trkpt><trkpt lat="45.6449145" lon="12.3303912"><ele>8.0</ele><time>2026-04-26T06:42:16.03Z</time></trkpt><trkpt lat="45.6449363" lon="12.3302813"><ele>8.0</ele><time>2026-04-26T06:42:17.037Z</time></trkpt><trkpt lat="45.6449791" lon="12.3301286"><ele>8.0</ele><time>2026-04-26T06:42:18.043Z</time></trkpt><trkpt lat="45.6450199" lon="12.329979"><ele>8.0</ele><time>2026-04-26T06:42:19.052Z</time></trkpt><trkpt lat="45.6450559" lon="12.329824"><ele>8.0</ele><time>2026-04-26T06:42:20.039Z</time></trkpt><trkpt lat="45.6450923" lon="12.3296592"><ele>8.0</ele><time>2026-04-26T06:42:21.047Z</time></trkpt><trkpt lat="45.6451276" lon="12.3295031"><ele>8.0</ele><time>2026-04-26T06:42:22.032Z</time></trkpt><trkpt lat="45.64516" lon="12.3293577"><ele>8.0</ele><time>2026-04-26T06:42:23.04Z</time></trkpt><trkpt lat="45.6451873" lon="12.3292224"><ele>8.0</ele><time>2026-04-26T06:42:24.038Z</time></trkpt><trkpt lat="45.6452129" lon="12.3290913"><ele>8.0</ele><time>2026-04-26T06:42:25.041Z</time></trkpt><trkpt lat="45.6452467" lon="12.3289601"><ele>7.800000000000001</ele><time>2026-04-26T06:42:26.047Z</time></trkpt><trkpt lat="45.6452812" lon="12.3288138"><ele>7.6000000000000005</ele><time>2026-04-26T06:42:27.039Z</time></trkpt><trkpt lat="45.6453209" lon="12.3286615"><ele>7.3999999999999995</ele><time>2026-04-26T06:42:28.038Z</time></trkpt><trkpt lat="45.6453548" lon="12.3285133"><ele>7.199999999999999</ele><time>2026-04-26T06:42:29.037Z</time></trkpt><trkpt lat="45.6453798" lon="12.3283759"><ele>7.0</ele><time>2026-04-26T06:42:30.045Z</time></trkpt><trkpt lat="45.6454195" lon="12.328248"><ele>6.8</ele><time>2026-04-26T06:42:31.035Z</time></trkpt><trkpt lat="45.6454647" lon="12.3281286"><ele>6.6</ele><time>2026-04-26T06:42:32.035Z</time></trkpt><trkpt lat="45.6455341" lon="12.3280349"><ele>6.3999999999999995</ele><time>2026-04-26T06:42:33.031Z</time></trkpt><trkpt lat="45.645613" lon="12.3279564"><ele>6.199999999999999</ele><time>2026-04-26T06:42:34.077Z</time></trkpt><trkpt lat="45.6457117" lon="12.3279022"><ele>6.0</ele><time>2026-04-26T06:42:35.045Z</time></trkpt><trkpt lat="45.6458036" lon="12.3278269"><ele>6.0</ele><time>2026-04-26T06:42:36.036Z</time></trkpt><trkpt lat="45.6458747" lon="12.3277215"><ele>6.0</ele><time>2026-04-26T06:42:37.059Z</time></trkpt><trkpt lat="45.6459194" lon="12.3275959"><ele>6.0</ele><time>2026-04-26T06:42:38.028Z</time></trkpt><trkpt lat="45.6459435" lon="12.3274625"><ele>6.0</ele><time>2026-04-26T06:42:39.034Z</time></trkpt><trkpt lat="45.645936" lon="12.3273197"><ele>6.0</ele><time>2026-04-26T06:42:40.046Z</time></trkpt><trkpt lat="45.6458962" lon="12.3271764"><ele>5.75</ele><time>2026-04-26T06:42:41.031Z</time></trkpt><trkpt lat="45.6458506" lon="12.327027"><ele>5.5</ele><time>2026-04-26T06:42:42.036Z</time></trkpt><trkpt lat="45.6458059" lon="12.32688"><ele>5.25</ele><time>2026-04-26T06:42:43.03Z</time></trkpt><trkpt lat="45.6457756" lon="12.3267219"><ele>5.0</ele><time>2026-04-26T06:42:44.031Z</time></trkpt><trkpt lat="45.6457757" lon="12.3265489"><ele>5.0</ele><time>2026-04-26T06:42:45.036Z</time></trkpt><trkpt lat="45.6457978" lon="12.3263725"><ele>5.0</ele><time>2026-04-26T06:42:46.033Z</time></trkpt><trkpt lat="45.645828" lon="12.3261916"><ele>5.0</ele><time>2026-04-26T06:42:47.038Z</time></trkpt><trkpt lat="45.6458696" lon="12.326004"><ele>5.0</ele><time>2026-04-26T06:42:48.051Z</time></trkpt><trkpt lat="45.6459105" lon="12.325811"><ele>5.0</ele><time>2026-04-26T06:42:49.03Z</time></trkpt><trkpt lat="45.6459505" lon="12.3256153"><ele>5.0</ele><time>2026-04-26T06:42:50.028Z</time></trkpt><trkpt lat="45.6459922" lon="12.3254163"><ele>5.0</ele><time>2026-04-26T06:42:51.04Z</time></trkpt><trkpt lat="45.6460388" lon="12.3252162"><ele>5.0</ele><time>2026-04-26T06:42:52.038Z</time></trkpt><trkpt lat="45.6460879" lon="12.3250124"><ele>5.333333333333334</ele><time>2026-04-26T06:42:53.047Z</time></trkpt><trkpt lat="45.6461355" lon="12.3248058"><ele>5.666666666666667</ele><time>2026-04-26T06:42:54.025Z</time></trkpt><trkpt lat="45.6461818" lon="12.3245909"><ele>6.0</ele><time>2026-04-26T06:42:55.045Z</time></trkpt><trkpt lat="45.6462256" lon="12.3243771"><ele>6.0</ele><time>2026-04-26T06:42:56.033Z</time></trkpt><trkpt lat="45.6462654" lon="12.3241735"><ele>6.0</ele><time>2026-04-26T06:42:57.027Z</time></trkpt><trkpt lat="45.6463062" lon="12.3239758"><ele>6.0</ele><time>2026-04-26T06:42:58.047Z</time></trkpt><trkpt lat="45.6463459" lon="12.3237764"><ele>6.0</ele><time>2026-04-26T06:42:59.041Z</time></trkpt><trkpt lat="45.6463877" lon="12.3235798"><ele>6.0</ele><time>2026-04-26T06:43:00.033Z</time></trkpt><trkpt lat="45.6464308" lon="12.3233824"><ele>6.0</ele><time>2026-04-26T06:43:01.032Z</time></trkpt><trkpt lat="45.6464729" lon="12.3231837"><ele>6.0</ele><time>2026-04-26T06:43:02.027Z</time></trkpt><trkpt lat="45.6465167" lon="12.3229829"><ele>6.0</ele><time>2026-04-26T06:43:03.023Z</time></trkpt><trkpt lat="45.646561" lon="12.3227789"><ele>6.333333333333334</ele><time>2026-04-26T06:43:04.05Z</time></trkpt><trkpt lat="45.6466087" lon="12.3225677"><ele>6.666666666666667</ele><time>2026-04-26T06:43:05.047Z</time></trkpt><trkpt lat="45.6466495" lon="12.3223445"><ele>7.0</ele><time>2026-04-26T06:43:06.041Z</time></trkpt><trkpt lat="45.6466949" lon="12.3221162"><ele>7.0</ele><time>2026-04-26T06:43:07.055Z</time></trkpt><trkpt lat="45.6467414" lon="12.3218844"><ele>7.0</ele><time>2026-04-26T06:43:08.044Z</time></trkpt><trkpt lat="45.6467891" lon="12.321652"><ele>7.0</ele><time>2026-04-26T06:43:09.041Z</time></trkpt><trkpt lat="45.6468414" lon="12.3214196"><ele>7.333333333333334</ele><time>2026-04-26T06:43:10.048Z</time></trkpt><trkpt lat="45.6468927" lon="12.3211858"><ele>7.666666666666666</ele><time>2026-04-26T06:43:11.029Z</time></trkpt><trkpt lat="45.6469422" lon="12.3209521"><ele>8.0</ele><time>2026-04-26T06:43:12.028Z</time></trkpt><trkpt lat="45.6469959" lon="12.3207199"><ele>7.666666666666666</ele><time>2026-04-26T06:43:13.04Z</time></trkpt><trkpt lat="45.6470441" lon="12.3204857"><ele>7.333333333333334</ele><time>2026-04-26T06:43:14.032Z</time></trkpt><trkpt lat="45.6470896" lon="12.3202504"><ele>7.0</ele><time>2026-04-26T06:43:15.045Z</time></trkpt><trkpt lat="45.6471334" lon="12.3200148"><ele>7.0</ele><time>2026-04-26T06:43:16.029Z</time></trkpt><trkpt lat="45.6471871" lon="12.3197848"><ele>7.0</ele><time>2026-04-26T06:43:17.043Z</time></trkpt><trkpt lat="45.6472344" lon="12.319553"><ele>7.0</ele><time>2026-04-26T06:43:18.035Z</time></trkpt><trkpt lat="45.6472932" lon="12.3193247"><ele>7.333333333333334</ele><time>2026-04-26T06:43:19.044Z</time></trkpt><trkpt lat="45.6473446" lon="12.319094"><ele>7.666666666666666</ele><time>2026-04-26T06:43:20.047Z</time></trkpt><trkpt lat="45.6473927" lon="12.3188613"><ele>8.0</ele><time>2026-04-26T06:43:21.03Z</time></trkpt><trkpt lat="45.647449" lon="12.3186307"><ele>8.0</ele><time>2026-04-26T06:43:22.064Z</time></trkpt><trkpt lat="45.6474963" lon="12.318394"><ele>8.0</ele><time>2026-04-26T06:43:23.048Z</time></trkpt><trkpt lat="45.6475421" lon="12.3181548"><ele>8.0</ele><time>2026-04-26T06:43:24.033Z</time></trkpt><trkpt lat="45.6475933" lon="12.3179174"><ele>8.333333333333332</ele><time>2026-04-26T06:43:25.031Z</time></trkpt><trkpt lat="45.6476422" lon="12.3176799"><ele>8.666666666666666</ele><time>2026-04-26T06:43:26.048Z</time></trkpt><trkpt lat="45.6476965" lon="12.3174446"><ele>9.0</ele><time>2026-04-26T06:43:27.046Z</time></trkpt><trkpt lat="45.6477367" lon="12.317204"><ele>9.0</ele><time>2026-04-26T06:43:28.029Z</time></trkpt><trkpt lat="45.6477907" lon="12.3169683"><ele>9.0</ele><time>2026-04-26T06:43:29.05Z</time></trkpt><trkpt lat="45.6478379" lon="12.3167313"><ele>9.0</ele><time>2026-04-26T06:43:30.046Z</time></trkpt><trkpt lat="45.6478811" lon="12.3164922"><ele>9.333333333333334</ele><time>2026-04-26T06:43:31.039Z</time></trkpt><trkpt lat="45.6479195" lon="12.316252"><ele>9.666666666666668</ele><time>2026-04-26T06:43:32.044Z</time></trkpt><trkpt lat="45.6479397" lon="12.3160049"><ele>10.0</ele><time>2026-04-26T06:43:33.042Z</time></trkpt><trkpt lat="45.6479734" lon="12.3157624"><ele>10.0</ele><time>2026-04-26T06:43:34.04Z</time></trkpt><trkpt lat="45.6480087" lon="12.3155224"><ele>10.0</ele><time>2026-04-26T06:43:35.05Z</time></trkpt><trkpt lat="45.648049" lon="12.3152917"><ele>10.0</ele><time>2026-04-26T06:43:36.052Z</time></trkpt><trkpt lat="45.6480932" lon="12.3150703"><ele>10.0</ele><time>2026-04-26T06:43:37.032Z</time></trkpt><trkpt lat="45.6481398" lon="12.3148526"><ele>10.0</ele><time>2026-04-26T06:43:38.032Z</time></trkpt><trkpt lat="45.6481987" lon="12.3146398"><ele>10.0</ele><time>2026-04-26T06:43:39.028Z</time></trkpt><trkpt lat="45.6482589" lon="12.3144284"><ele>10.0</ele><time>2026-04-26T06:43:40.062Z</time></trkpt><trkpt lat="45.6483294" lon="12.3142242"><ele>10.0</ele><time>2026-04-26T06:43:41.036Z</time></trkpt><trkpt lat="45.6483976" lon="12.3140185"><ele>10.0</ele><time>2026-04-26T06:43:42.047Z</time></trkpt><trkpt lat="45.6484568" lon="12.3138056"><ele>10.0</ele><time>2026-04-26T06:43:43.046Z</time></trkpt><trkpt lat="45.6485104" lon="12.3135795"><ele>10.0</ele><time>2026-04-26T06:43:44.041Z</time></trkpt><trkpt lat="45.6485568" lon="12.313344"><ele>10.0</ele><time>2026-04-26T06:43:45.044Z</time></trkpt><trkpt lat="45.6486243" lon="12.3131154"><ele>10.333333333333334</ele><time>2026-04-26T06:43:46.035Z</time></trkpt><trkpt lat="45.6486805" lon="12.3128781"><ele>10.666666666666666</ele><time>2026-04-26T06:43:47.04Z</time></trkpt><trkpt lat="45.6487334" lon="12.312639"><ele>11.0</ele><time>2026-04-26T06:43:48.039Z</time></trkpt><trkpt lat="45.6487854" lon="12.3124008"><ele>11.0</ele><time>2026-04-26T06:43:49.033Z</time></trkpt><trkpt lat="45.6488343" lon="12.3121668"><ele>11.0</ele><time>2026-04-26T06:43:50.034Z</time></trkpt><trkpt lat="45.6488832" lon="12.3119342"><ele>11.0</ele><time>2026-04-26T06:43:51.03Z</time></trkpt><trkpt lat="45.6489332" lon="12.311705"><ele>11.0</ele><time>2026-04-26T06:43:52.044Z</time></trkpt><trkpt lat="45.6489731" lon="12.3114748"><ele>11.0</ele><time>2026-04-26T06:43:53.043Z</time></trkpt><trkpt lat="45.6490107" lon="12.3112484"><ele>11.0</ele><time>2026-04-26T06:43:54.03Z</time></trkpt><trkpt lat="45.6490525" lon="12.3110303"><ele>11.0</ele><time>2026-04-26T06:43:55.042Z</time></trkpt><trkpt lat="45.6490985" lon="12.3108256"><ele>11.0</ele><time>2026-04-26T06:43:56.04Z</time></trkpt><trkpt lat="45.6491387" lon="12.3106452"><ele>11.0</ele><time>2026-04-26T06:43:57.031Z</time></trkpt><trkpt lat="45.6491792" lon="12.3105004"><ele>11.0</ele><time>2026-04-26T06:43:58.032Z</time></trkpt><trkpt lat="45.6492259" lon="12.3103891"><ele>10.8</ele><time>2026-04-26T06:43:59.042Z</time></trkpt><trkpt lat="45.6492855" lon="12.3103063"><ele>10.600000000000001</ele><time>2026-04-26T06:44:00.053Z</time></trkpt><trkpt lat="45.6493553" lon="12.3102325"><ele>10.4</ele><time>2026-04-26T06:44:01.039Z</time></trkpt><trkpt lat="45.6494524" lon="12.3101869"><ele>10.2</ele><time>2026-04-26T06:44:02.043Z</time></trkpt><trkpt lat="45.6495524" lon="12.3101362"><ele>10.0</ele><time>2026-04-26T06:44:03.046Z</time></trkpt><trkpt lat="45.6496488" lon="12.3100711"><ele>10.0</ele><time>2026-04-26T06:44:04.039Z</time></trkpt><trkpt lat="45.6497306" lon="12.3099773"><ele>10.0</ele><time>2026-04-26T06:44:05.042Z</time></trkpt><trkpt lat="45.6497962" lon="12.3098659"><ele>10.0</ele><time>2026-04-26T06:44:06.036Z</time></trkpt><trkpt lat="45.6498406" lon="12.309736"><ele>10.0</ele><time>2026-04-26T06:44:07.05Z</time></trkpt><trkpt lat="45.6498508" lon="12.3095907"><ele>10.0</ele><time>2026-04-26T06:44:08.04Z</time></trkpt><trkpt lat="45.6498376" lon="12.3094404"><ele>10.0</ele><time>2026-04-26T06:44:09.048Z</time></trkpt><trkpt lat="45.6497986" lon="12.309297"><ele>10.0</ele><time>2026-04-26T06:44:10.034Z</time></trkpt><trkpt lat="45.6497471" lon="12.3091656"><ele>10.0</ele><time>2026-04-26T06:44:11.038Z</time></trkpt><trkpt lat="45.6497002" lon="12.3090363"><ele>10.0</ele><time>2026-04-26T06:44:12.035Z</time></trkpt><trkpt lat="45.6496685" lon="12.3089019"><ele>10.0</ele><time>2026-04-26T06:44:13.037Z</time></trkpt><trkpt lat="45.6496487" lon="12.3087604"><ele>9.0</ele><time>2026-04-26T06:44:14.045Z</time></trkpt><trkpt lat="45.6496457" lon="12.3086048"><ele>8.0</ele><time>2026-04-26T06:44:15.051Z</time></trkpt><trkpt lat="45.6496732" lon="12.3084406"><ele>7.0</ele><time>2026-04-26T06:44:16.032Z</time></trkpt><trkpt lat="45.6497132" lon="12.3082672"><ele>6.0</ele><time>2026-04-26T06:44:17.037Z</time></trkpt><trkpt lat="45.6497583" lon="12.3080921"><ele>6.25</ele><time>2026-04-26T06:44:18.03Z</time></trkpt><trkpt lat="45.6497887" lon="12.3079033"><ele>6.5</ele><time>2026-04-26T06:44:19.044Z</time></trkpt><trkpt lat="45.6498253" lon="12.3077115"><ele>6.75</ele><time>2026-04-26T06:44:20.032Z</time></trkpt><trkpt lat="45.6498688" lon="12.3075181"><ele>7.0</ele><time>2026-04-26T06:44:21.046Z</time></trkpt><trkpt lat="45.6499263" lon="12.307322"><ele>7.666666666666667</ele><time>2026-04-26T06:44:22.037Z</time></trkpt><trkpt lat="45.6499709" lon="12.3071122"><ele>8.333333333333334</ele><time>2026-04-26T06:44:23.041Z</time></trkpt><trkpt lat="45.6500233" lon="12.3068949"><ele>9.0</ele><time>2026-04-26T06:44:24.039Z</time></trkpt><trkpt lat="45.65007" lon="12.3066701"><ele>9.0</ele><time>2026-04-26T06:44:25.027Z</time></trkpt><trkpt lat="45.6501066" lon="12.3064379"><ele>9.0</ele><time>2026-04-26T06:44:26.053Z</time></trkpt><trkpt lat="45.6501468" lon="12.3062033"><ele>9.0</ele><time>2026-04-26T06:44:27.036Z</time></trkpt><trkpt lat="45.6502001" lon="12.3059764"><ele>9.0</ele><time>2026-04-26T06:44:28.027Z</time></trkpt><trkpt lat="45.6502492" lon="12.3057426"><ele>9.0</ele><time>2026-04-26T06:44:29.043Z</time></trkpt><trkpt lat="45.6503057" lon="12.3055032"><ele>9.0</ele><time>2026-04-26T06:44:30.036Z</time></trkpt><trkpt lat="45.6503655" lon="12.3052589"><ele>8.333333333333334</ele><time>2026-04-26T06:44:31.046Z</time></trkpt><trkpt lat="45.6504188" lon="12.3050006"><ele>7.666666666666667</ele><time>2026-04-26T06:44:32.046Z</time></trkpt><trkpt lat="45.6504622" lon="12.3047282"><ele>7.0</ele><time>2026-04-26T06:44:33.034Z</time></trkpt><trkpt lat="45.6504933" lon="12.30445"><ele>8.333333333333334</ele><time>2026-04-26T06:44:34.024Z</time></trkpt><trkpt lat="45.6505249" lon="12.3041685"><ele>9.666666666666666</ele><time>2026-04-26T06:44:35.041Z</time></trkpt><trkpt lat="45.6505608" lon="12.3038849"><ele>11.0</ele><time>2026-04-26T06:44:36.035Z</time></trkpt><trkpt lat="45.6505939" lon="12.3035831"><ele>11.0</ele><time>2026-04-26T06:44:37.028Z</time></trkpt><trkpt lat="45.6506232" lon="12.3032632"><ele>11.0</ele><time>2026-04-26T06:44:38.043Z</time></trkpt><trkpt lat="45.6506641" lon="12.3029376"><ele>10.0</ele><time>2026-04-26T06:44:39.032Z</time></trkpt><trkpt lat="45.650706" lon="12.3026093"><ele>9.0</ele><time>2026-04-26T06:44:40.036Z</time></trkpt><trkpt lat="45.6507437" lon="12.3022777"><ele>8.5</ele><time>2026-04-26T06:44:41.038Z</time></trkpt><trkpt lat="45.650774" lon="12.3019477"><ele>8.0</ele><time>2026-04-26T06:44:42.024Z</time></trkpt><trkpt lat="45.6507996" lon="12.3016329"><ele>7.666666666666666</ele><time>2026-04-26T06:44:43.035Z</time></trkpt><trkpt lat="45.6508273" lon="12.3013319"><ele>7.333333333333334</ele><time>2026-04-26T06:44:44.042Z</time></trkpt><trkpt lat="45.6508756" lon="12.3010507"><ele>7.0</ele><time>2026-04-26T06:44:45.042Z</time></trkpt><trkpt lat="45.6509125" lon="12.3007678"><ele>6.666666666666667</ele><time>2026-04-26T06:44:46.056Z</time></trkpt><trkpt lat="45.6509456" lon="12.3004859"><ele>6.333333333333334</ele><time>2026-04-26T06:44:47.06Z</time></trkpt><trkpt lat="45.650999" lon="12.3002067"><ele>6.0</ele><time>2026-04-26T06:44:48.05Z</time></trkpt><trkpt lat="45.6510295" lon="12.2999206"><ele>5.666666666666667</ele><time>2026-04-26T06:44:49.041Z</time></trkpt><trkpt lat="45.6510631" lon="12.2996306"><ele>5.333333333333334</ele><time>2026-04-26T06:44:50.047Z</time></trkpt><trkpt lat="45.6510972" lon="12.2993379"><ele>5.0</ele><time>2026-04-26T06:44:51.04Z</time></trkpt><trkpt lat="45.6511319" lon="12.2990487"><ele>5.666666666666667</ele><time>2026-04-26T06:44:52.038Z</time></trkpt><trkpt lat="45.6511777" lon="12.2987621"><ele>6.333333333333334</ele><time>2026-04-26T06:44:53.045Z</time></trkpt><trkpt lat="45.6512321" lon="12.2984834"><ele>7.0</ele><time>2026-04-26T06:44:54.055Z</time></trkpt><trkpt lat="45.6512965" lon="12.2982113"><ele>7.333333333333334</ele><time>2026-04-26T06:44:55.041Z</time></trkpt><trkpt lat="45.651363" lon="12.2979389"><ele>7.666666666666666</ele><time>2026-04-26T06:44:56.04Z</time></trkpt><trkpt lat="45.6514295" lon="12.2976655"><ele>8.0</ele><time>2026-04-26T06:44:57.051Z</time></trkpt><trkpt lat="45.6515183" lon="12.2974048"><ele>8.666666666666666</ele><time>2026-04-26T06:44:58.048Z</time></trkpt><trkpt lat="45.6515967" lon="12.2971386"><ele>9.333333333333334</ele><time>2026-04-26T06:44:59.042Z</time></trkpt><trkpt lat="45.6516792" lon="12.2968722"><ele>10.0</ele><time>2026-04-26T06:45:00.052Z</time></trkpt><trkpt lat="45.6517672" lon="12.2966085"><ele>10.0</ele><time>2026-04-26T06:45:01.048Z</time></trkpt><trkpt lat="45.6518512" lon="12.2963405"><ele>10.0</ele><time>2026-04-26T06:45:02.056Z</time></trkpt><trkpt lat="45.6519193" lon="12.2960596"><ele>10.0</ele><time>2026-04-26T06:45:03.038Z</time></trkpt><trkpt lat="45.6519899" lon="12.2957805"><ele>10.0</ele><time>2026-04-26T06:45:04.033Z</time></trkpt><trkpt lat="45.652078" lon="12.2955099"><ele>10.0</ele><time>2026-04-26T06:45:05.035Z</time></trkpt><trkpt lat="45.6521674" lon="12.2952371"><ele>10.0</ele><time>2026-04-26T06:45:06.044Z</time></trkpt><trkpt lat="45.6522676" lon="12.294969"><ele>9.666666666666668</ele><time>2026-04-26T06:45:07.037Z</time></trkpt><trkpt lat="45.6523618" lon="12.2946967"><ele>9.333333333333334</ele><time>2026-04-26T06:45:08.036Z</time></trkpt><trkpt lat="45.6524516" lon="12.2944212"><ele>9.0</ele><time>2026-04-26T06:45:09.038Z</time></trkpt><trkpt lat="45.6525446" lon="12.2941445"><ele>9.666666666666666</ele><time>2026-04-26T06:45:10.037Z</time></trkpt><trkpt lat="45.6526398" lon="12.2938672"><ele>10.333333333333332</ele><time>2026-04-26T06:45:11.041Z</time></trkpt><trkpt lat="45.6527206" lon="12.2935824"><ele>11.0</ele><time>2026-04-26T06:45:12.04Z</time></trkpt><trkpt lat="45.6528105" lon="12.2933061"><ele>11.333333333333332</ele><time>2026-04-26T06:45:13.039Z</time></trkpt><trkpt lat="45.6528988" lon="12.2930286"><ele>11.666666666666666</ele><time>2026-04-26T06:45:14.038Z</time></trkpt><trkpt lat="45.6529936" lon="12.2927573"><ele>12.0</ele><time>2026-04-26T06:45:15.044Z</time></trkpt><trkpt lat="45.6530866" lon="12.2924851"><ele>11.0</ele><time>2026-04-26T06:45:16.033Z</time></trkpt><trkpt lat="45.6531838" lon="12.2922171"><ele>10.0</ele><time>2026-04-26T06:45:17.027Z</time></trkpt><trkpt lat="45.6532702" lon="12.291946"><ele>9.0</ele><time>2026-04-26T06:45:18.034Z</time></trkpt><trkpt lat="45.6533622" lon="12.2916825"><ele>9.666666666666666</ele><time>2026-04-26T06:45:19.026Z</time></trkpt><trkpt lat="45.6534451" lon="12.291417"><ele>10.333333333333332</ele><time>2026-04-26T06:45:20.037Z</time></trkpt><trkpt lat="45.65352" lon="12.2911488"><ele>11.0</ele><time>2026-04-26T06:45:21.037Z</time></trkpt><trkpt lat="45.6536044" lon="12.2908883"><ele>11.333333333333332</ele><time>2026-04-26T06:45:22.046Z</time></trkpt><trkpt lat="45.6536776" lon="12.2906183"><ele>11.666666666666666</ele><time>2026-04-26T06:45:23.032Z</time></trkpt><trkpt lat="45.6537545" lon="12.2903503"><ele>12.0</ele><time>2026-04-26T06:45:24.036Z</time></trkpt><trkpt lat="45.653825" lon="12.2900795"><ele>11.666666666666666</ele><time>2026-04-26T06:45:25.039Z</time></trkpt><trkpt lat="45.6539086" lon="12.2898157"><ele>11.333333333333332</ele><time>2026-04-26T06:45:26.031Z</time></trkpt><trkpt lat="45.6539841" lon="12.2895465"><ele>11.0</ele><time>2026-04-26T06:45:27.034Z</time></trkpt><trkpt lat="45.6540644" lon="12.2892815"><ele>11.0</ele><time>2026-04-26T06:45:28.037Z</time></trkpt><trkpt lat="45.6541469" lon="12.2890194"><ele>11.0</ele><time>2026-04-26T06:45:29.041Z</time></trkpt><trkpt lat="45.6542355" lon="12.2887591"><ele>11.0</ele><time>2026-04-26T06:45:30.026Z</time></trkpt><trkpt lat="45.6543193" lon="12.2884942"><ele>10.666666666666666</ele><time>2026-04-26T06:45:31.051Z</time></trkpt><trkpt lat="45.6544038" lon="12.2882286"><ele>10.333333333333334</ele><time>2026-04-26T06:45:32.048Z</time></trkpt><trkpt lat="45.6545029" lon="12.2879712"><ele>10.0</ele><time>2026-04-26T06:45:33.048Z</time></trkpt><trkpt lat="45.6546134" lon="12.287722"><ele>9.666666666666668</ele><time>2026-04-26T06:45:34.032Z</time></trkpt><trkpt lat="45.6547329" lon="12.2874801"><ele>9.333333333333334</ele><time>2026-04-26T06:45:35.029Z</time></trkpt><trkpt lat="45.6548553" lon="12.287242"><ele>9.0</ele><time>2026-04-26T06:45:36.03Z</time></trkpt><trkpt lat="45.6549711" lon="12.2869978"><ele>9.0</ele><time>2026-04-26T06:45:37.033Z</time></trkpt><trkpt lat="45.6550842" lon="12.28675"><ele>9.0</ele><time>2026-04-26T06:45:38.046Z</time></trkpt><trkpt lat="45.6552016" lon="12.2865088"><ele>9.0</ele><time>2026-04-26T06:45:39.05Z</time></trkpt><trkpt lat="45.6553246" lon="12.2862713"><ele>9.0</ele><time>2026-04-26T06:45:40.046Z</time></trkpt><trkpt lat="45.6554445" lon="12.2860263"><ele>9.0</ele><time>2026-04-26T06:45:41.025Z</time></trkpt><trkpt lat="45.6555636" lon="12.2857809"><ele>9.0</ele><time>2026-04-26T06:45:42.039Z</time></trkpt><trkpt lat="45.6556797" lon="12.2855322"><ele>9.0</ele><time>2026-04-26T06:45:43.055Z</time></trkpt><trkpt lat="45.655793" lon="12.2852837"><ele>9.0</ele><time>2026-04-26T06:45:44.03Z</time></trkpt><trkpt lat="45.6559156" lon="12.2850507"><ele>9.0</ele><time>2026-04-26T06:45:45.051Z</time></trkpt><trkpt lat="45.6560355" lon="12.2848208"><ele>9.333333333333334</ele><time>2026-04-26T06:45:46.03Z</time></trkpt><trkpt lat="45.6561371" lon="12.284579"><ele>9.666666666666668</ele><time>2026-04-26T06:45:47.049Z</time></trkpt><trkpt lat="45.6562469" lon="12.2843482"><ele>10.0</ele><time>2026-04-26T06:45:48.026Z</time></trkpt><trkpt lat="45.6563553" lon="12.2841163"><ele>9.0</ele><time>2026-04-26T06:45:49.036Z</time></trkpt><trkpt lat="45.6564267" lon="12.2838546"><ele>8.0</ele><time>2026-04-26T06:45:50.033Z</time></trkpt><trkpt lat="45.6564817" lon="12.2835844"><ele>7.0</ele><time>2026-04-26T06:45:51.032Z</time></trkpt><trkpt lat="45.6565147" lon="12.2833051"><ele>7.0</ele><time>2026-04-26T06:45:52.037Z</time></trkpt><trkpt lat="45.6565302" lon="12.2830245"><ele>7.0</ele><time>2026-04-26T06:45:53.041Z</time></trkpt><trkpt lat="45.6565214" lon="12.2827467"><ele>7.0</ele><time>2026-04-26T06:45:54.048Z</time></trkpt><trkpt lat="45.656496" lon="12.2824736"><ele>7.0</ele><time>2026-04-26T06:45:55.038Z</time></trkpt><trkpt lat="45.6564434" lon="12.2821978"><ele>7.0</ele><time>2026-04-26T06:45:56.039Z</time></trkpt><trkpt lat="45.656374" lon="12.2819272"><ele>7.0</ele><time>2026-04-26T06:45:57.049Z</time></trkpt><trkpt lat="45.6562932" lon="12.2816557"><ele>7.333333333333334</ele><time>2026-04-26T06:45:58.053Z</time></trkpt><trkpt lat="45.6562179" lon="12.2813721"><ele>7.666666666666666</ele><time>2026-04-26T06:45:59.032Z</time></trkpt><trkpt lat="45.6561487" lon="12.2810753"><ele>8.0</ele><time>2026-04-26T06:46:00.037Z</time></trkpt><trkpt lat="45.6560796" lon="12.2807729"><ele>9.0</ele><time>2026-04-26T06:46:01.028Z</time></trkpt><trkpt lat="45.6560156" lon="12.2804636"><ele>10.0</ele><time>2026-04-26T06:46:02.037Z</time></trkpt><trkpt lat="45.6559626" lon="12.2801424"><ele>10.0</ele><time>2026-04-26T06:46:03.038Z</time></trkpt><trkpt lat="45.6559183" lon="12.2798108"><ele>10.0</ele><time>2026-04-26T06:46:04.032Z</time></trkpt><trkpt lat="45.6558899" lon="12.2794712"><ele>8.5</ele><time>2026-04-26T06:46:05.034Z</time></trkpt><trkpt lat="45.6558441" lon="12.2791317"><ele>7.0</ele><time>2026-04-26T06:46:06.042Z</time></trkpt><trkpt lat="45.6558079" lon="12.2787911"><ele>6.5</ele><time>2026-04-26T06:46:07.037Z</time></trkpt><trkpt lat="45.6557774" lon="12.2784507"><ele>6.0</ele><time>2026-04-26T06:46:08.036Z</time></trkpt><trkpt lat="45.6557366" lon="12.2781103"><ele>5.5</ele><time>2026-04-26T06:46:09.04Z</time></trkpt><trkpt lat="45.6556994" lon="12.2777693"><ele>5.0</ele><time>2026-04-26T06:46:10.042Z</time></trkpt><trkpt lat="45.6556699" lon="12.2774287"><ele>3.5</ele><time>2026-04-26T06:46:11.051Z</time></trkpt><trkpt lat="45.6556374" lon="12.2770902"><ele>2.0</ele><time>2026-04-26T06:46:12.053Z</time></trkpt><trkpt lat="45.6556032" lon="12.2767557"><ele>2.5</ele><time>2026-04-26T06:46:13.045Z</time></trkpt><trkpt lat="45.6555773" lon="12.2764253"><ele>3.0</ele><time>2026-04-26T06:46:14.041Z</time></trkpt><trkpt lat="45.6555482" lon="12.2761015"><ele>3.0</ele><time>2026-04-26T06:46:15.037Z</time></trkpt><trkpt lat="45.6555056" lon="12.2757848"><ele>3.0</ele><time>2026-04-26T06:46:16.039Z</time></trkpt><trkpt lat="45.6554726" lon="12.2754711"><ele>3.0</ele><time>2026-04-26T06:46:17.064Z</time></trkpt><trkpt lat="45.6554393" lon="12.2751643"><ele>3.333333333333333</ele><time>2026-04-26T06:46:18.047Z</time></trkpt><trkpt lat="45.6554192" lon="12.2748563"><ele>3.6666666666666665</ele><time>2026-04-26T06:46:19.053Z</time></trkpt><trkpt lat="45.6553863" lon="12.274554"><ele>4.0</ele><time>2026-04-26T06:46:20.057Z</time></trkpt><trkpt lat="45.6553611" lon="12.2742527"><ele>4.666666666666666</ele><time>2026-04-26T06:46:21.038Z</time></trkpt><trkpt lat="45.6553398" lon="12.2739536"><ele>5.333333333333333</ele><time>2026-04-26T06:46:22.04Z</time></trkpt><trkpt lat="45.6553136" lon="12.2736602"><ele>6.0</ele><time>2026-04-26T06:46:23.054Z</time></trkpt><trkpt lat="45.6552839" lon="12.2733708"><ele>6.666666666666666</ele><time>2026-04-26T06:46:24.033Z</time></trkpt><trkpt lat="45.6552557" lon="12.2730811"><ele>7.333333333333333</ele><time>2026-04-26T06:46:25.051Z</time></trkpt><trkpt lat="45.6552312" lon="12.2727905"><ele>8.0</ele><time>2026-04-26T06:46:26.042Z</time></trkpt><trkpt lat="45.6552051" lon="12.2725007"><ele>9.0</ele><time>2026-04-26T06:46:27.05Z</time></trkpt><trkpt lat="45.6551769" lon="12.272212"><ele>10.0</ele><time>2026-04-26T06:46:28.04Z</time></trkpt><trkpt lat="45.6551522" lon="12.2719232"><ele>11.0</ele><time>2026-04-26T06:46:29.045Z</time></trkpt><trkpt lat="45.6551183" lon="12.2716337"><ele>11.0</ele><time>2026-04-26T06:46:30.04Z</time></trkpt><trkpt lat="45.6550954" lon="12.2713417"><ele>11.0</ele><time>2026-04-26T06:46:31.049Z</time></trkpt><trkpt lat="45.6550689" lon="12.271049"><ele>11.0</ele><time>2026-04-26T06:46:32.044Z</time></trkpt><trkpt lat="45.655039" lon="12.2707545"><ele>11.0</ele><time>2026-04-26T06:46:33.066Z</time></trkpt><trkpt lat="45.6550061" lon="12.2704596"><ele>11.0</ele><time>2026-04-26T06:46:34.04Z</time></trkpt><trkpt lat="45.6549803" lon="12.2701631"><ele>11.0</ele><time>2026-04-26T06:46:35.046Z</time></trkpt><trkpt lat="45.6549474" lon="12.2698685"><ele>11.333333333333332</ele><time>2026-04-26T06:46:36.039Z</time></trkpt><trkpt lat="45.6549199" lon="12.2695726"><ele>11.666666666666666</ele><time>2026-04-26T06:46:37.039Z</time></trkpt><trkpt lat="45.6548917" lon="12.2692759"><ele>12.0</ele><time>2026-04-26T06:46:38.051Z</time></trkpt><trkpt lat="45.6548633" lon="12.2689778"><ele>12.0</ele><time>2026-04-26T06:46:39.051Z</time></trkpt><trkpt lat="45.6548308" lon="12.2686789"><ele>12.0</ele><time>2026-04-26T06:46:40.038Z</time></trkpt><trkpt lat="45.6547972" lon="12.2683802"><ele>12.0</ele><time>2026-04-26T06:46:41.044Z</time></trkpt><trkpt lat="45.6547652" lon="12.2680809"><ele>12.0</ele><time>2026-04-26T06:46:42.038Z</time></trkpt><trkpt lat="45.6547333" lon="12.2677821"><ele>12.0</ele><time>2026-04-26T06:46:43.061Z</time></trkpt><trkpt lat="45.6547004" lon="12.2674898"><ele>12.0</ele><time>2026-04-26T06:46:44.071Z</time></trkpt><trkpt lat="45.6546797" lon="12.2672098"><ele>12.0</ele><time>2026-04-26T06:46:45.04Z</time></trkpt><trkpt lat="45.6546631" lon="12.2669421"><ele>12.0</ele><time>2026-04-26T06:46:46.04Z</time></trkpt><trkpt lat="45.6546348" lon="12.2666845"><ele>12.0</ele><time>2026-04-26T06:46:47.047Z</time></trkpt><trkpt lat="45.6546147" lon="12.2664264"><ele>12.0</ele><time>2026-04-26T06:46:48.053Z</time></trkpt><trkpt lat="45.6545939" lon="12.2661687"><ele>12.0</ele><time>2026-04-26T06:46:49.041Z</time></trkpt><trkpt lat="45.6545709" lon="12.2659128"><ele>12.0</ele><time>2026-04-26T06:46:50.04Z</time></trkpt><trkpt lat="45.6545409" lon="12.265659"><ele>11.0</ele><time>2026-04-26T06:46:51.032Z</time></trkpt><trkpt lat="45.654519" lon="12.2653961"><ele>10.0</ele><time>2026-04-26T06:46:52.031Z</time></trkpt><trkpt lat="45.6544878" lon="12.265129"><ele>9.0</ele><time>2026-04-26T06:46:53.036Z</time></trkpt><trkpt lat="45.654462" lon="12.2648561"><ele>9.0</ele><time>2026-04-26T06:46:54.046Z</time></trkpt><trkpt lat="45.6544337" lon="12.2645795"><ele>9.0</ele><time>2026-04-26T06:46:55.036Z</time></trkpt><trkpt lat="45.6544046" lon="12.2642989"><ele>9.0</ele><time>2026-04-26T06:46:56.033Z</time></trkpt><trkpt lat="45.6543866" lon="12.2640153"><ele>9.333333333333334</ele><time>2026-04-26T06:46:57.04Z</time></trkpt><trkpt lat="45.6543649" lon="12.26373"><ele>9.666666666666668</ele><time>2026-04-26T06:46:58.048Z</time></trkpt><trkpt lat="45.6543382" lon="12.2634429"><ele>10.0</ele><time>2026-04-26T06:46:59.044Z</time></trkpt><trkpt lat="45.6543109" lon="12.2631531"><ele>10.333333333333334</ele><time>2026-04-26T06:47:00.047Z</time></trkpt><trkpt lat="45.6542849" lon="12.2628598"><ele>10.666666666666666</ele><time>2026-04-26T06:47:01.041Z</time></trkpt><trkpt lat="45.654254" lon="12.2625617"><ele>11.0</ele><time>2026-04-26T06:47:02.048Z</time></trkpt><trkpt lat="45.6542211" lon="12.2622578"><ele>11.0</ele><time>2026-04-26T06:47:03.059Z</time></trkpt><trkpt lat="45.6541876" lon="12.261945"><ele>11.0</ele><time>2026-04-26T06:47:04.051Z</time></trkpt><trkpt lat="45.6541613" lon="12.261621"><ele>11.0</ele><time>2026-04-26T06:47:05.045Z</time></trkpt><trkpt lat="45.6541346" lon="12.2612918"><ele>11.0</ele><time>2026-04-26T06:47:06.044Z</time></trkpt><trkpt lat="45.6541067" lon="12.2609577"><ele>11.0</ele><time>2026-04-26T06:47:07.053Z</time></trkpt><trkpt lat="45.6540733" lon="12.260621"><ele>11.0</ele><time>2026-04-26T06:47:08.046Z</time></trkpt><trkpt lat="45.6540349" lon="12.2602858"><ele>11.0</ele><time>2026-04-26T06:47:09.049Z</time></trkpt><trkpt lat="45.6539977" lon="12.25995"><ele>12.0</ele><time>2026-04-26T06:47:10.048Z</time></trkpt><trkpt lat="45.6539531" lon="12.2596156"><ele>13.0</ele><time>2026-04-26T06:47:11.036Z</time></trkpt><trkpt lat="45.653905" lon="12.2592815"><ele>13.0</ele><time>2026-04-26T06:47:12.035Z</time></trkpt><trkpt lat="45.6538444" lon="12.2589514"><ele>13.0</ele><time>2026-04-26T06:47:13.031Z</time></trkpt><trkpt lat="45.653774" lon="12.2586251"><ele>12.5</ele><time>2026-04-26T06:47:14.043Z</time></trkpt><trkpt lat="45.6536909" lon="12.2583015"><ele>12.0</ele><time>2026-04-26T06:47:15.045Z</time></trkpt><trkpt lat="45.6536122" lon="12.2579759"><ele>13.0</ele><time>2026-04-26T06:47:16.048Z</time></trkpt><trkpt lat="45.6535337" lon="12.2576585"><ele>14.0</ele><time>2026-04-26T06:47:17.051Z</time></trkpt><trkpt lat="45.6534405" lon="12.2573629"><ele>14.0</ele><time>2026-04-26T06:47:18.056Z</time></trkpt><trkpt lat="45.6533476" lon="12.2570823"><ele>14.0</ele><time>2026-04-26T06:47:19.048Z</time></trkpt><trkpt lat="45.6532528" lon="12.256797"><ele>14.0</ele><time>2026-04-26T06:47:20.043Z</time></trkpt><trkpt lat="45.6531546" lon="12.2565185"><ele>13.333333333333334</ele><time>2026-04-26T06:47:21.046Z</time></trkpt><trkpt lat="45.6530559" lon="12.2562416"><ele>12.666666666666668</ele><time>2026-04-26T06:47:22.053Z</time></trkpt><trkpt lat="45.6529606" lon="12.255974"><ele>12.0</ele><time>2026-04-26T06:47:23.048Z</time></trkpt><trkpt lat="45.6528639" lon="12.2557131"><ele>12.333333333333332</ele><time>2026-04-26T06:47:24.058Z</time></trkpt><trkpt lat="45.6527674" lon="12.255458"><ele>12.666666666666666</ele><time>2026-04-26T06:47:25.047Z</time></trkpt><trkpt lat="45.652669" lon="12.2552"><ele>13.0</ele><time>2026-04-26T06:47:26.045Z</time></trkpt><trkpt lat="45.6525698" lon="12.2549395"><ele>13.333333333333332</ele><time>2026-04-26T06:47:27.045Z</time></trkpt><trkpt lat="45.6524726" lon="12.2546747"><ele>13.666666666666668</ele><time>2026-04-26T06:47:28.05Z</time></trkpt><trkpt lat="45.6523704" lon="12.2544032"><ele>14.0</ele><time>2026-04-26T06:47:29.048Z</time></trkpt><trkpt lat="45.652267" lon="12.2541276"><ele>13.333333333333334</ele><time>2026-04-26T06:47:30.036Z</time></trkpt><trkpt lat="45.6521833" lon="12.2538687"><ele>12.666666666666668</ele><time>2026-04-26T06:47:31.035Z</time></trkpt><trkpt lat="45.6521002" lon="12.253608"><ele>12.0</ele><time>2026-04-26T06:47:32.037Z</time></trkpt><trkpt lat="45.6520082" lon="12.2533321"><ele>11.333333333333334</ele><time>2026-04-26T06:47:33.032Z</time></trkpt><trkpt lat="45.6519132" lon="12.2530612"><ele>10.666666666666668</ele><time>2026-04-26T06:47:34.045Z</time></trkpt><trkpt lat="45.6518199" lon="12.2527928"><ele>10.0</ele><time>2026-04-26T06:47:35.041Z</time></trkpt><trkpt lat="45.6517209" lon="12.2525175"><ele>10.0</ele><time>2026-04-26T06:47:36.045Z</time></trkpt><trkpt lat="45.6516139" lon="12.2522532"><ele>10.0</ele><time>2026-04-26T06:47:37.038Z</time></trkpt><trkpt lat="45.651507" lon="12.2519803"><ele>10.0</ele><time>2026-04-26T06:47:38.045Z</time></trkpt><trkpt lat="45.6514009" lon="12.2517184"><ele>11.333333333333334</ele><time>2026-04-26T06:47:39.042Z</time></trkpt><trkpt lat="45.6512945" lon="12.2514486"><ele>12.666666666666668</ele><time>2026-04-26T06:47:40.048Z</time></trkpt><trkpt lat="45.6511912" lon="12.2511872"><ele>14.0</ele><time>2026-04-26T06:47:41.034Z</time></trkpt><trkpt lat="45.6510864" lon="12.2509178"><ele>14.0</ele><time>2026-04-26T06:47:42.039Z</time></trkpt><trkpt lat="45.6509886" lon="12.2506549"><ele>14.0</ele><time>2026-04-26T06:47:43.041Z</time></trkpt><trkpt lat="45.6508805" lon="12.2503937"><ele>14.0</ele><time>2026-04-26T06:47:44.044Z</time></trkpt><trkpt lat="45.6507736" lon="12.2501289"><ele>14.333333333333334</ele><time>2026-04-26T06:47:45.04Z</time></trkpt><trkpt lat="45.650679" lon="12.2498667"><ele>14.666666666666668</ele><time>2026-04-26T06:47:46.044Z</time></trkpt><trkpt lat="45.6505751" lon="12.2496152"><ele>15.0</ele><time>2026-04-26T06:47:47.04Z</time></trkpt><trkpt lat="45.6504616" lon="12.2493173"><ele>15.0</ele><time>2026-04-26T06:47:48.041Z</time></trkpt><trkpt lat="45.650363" lon="12.2490581"><ele>15.0</ele><time>2026-04-26T06:47:49.056Z</time></trkpt><trkpt lat="45.6502664" lon="12.2487947"><ele>15.0</ele><time>2026-04-26T06:47:50.034Z</time></trkpt><trkpt lat="45.6501713" lon="12.2485211"><ele>14.333333333333332</ele><time>2026-04-26T06:47:51.05Z</time></trkpt><trkpt lat="45.6500838" lon="12.2482449"><ele>13.666666666666666</ele><time>2026-04-26T06:47:52.04Z</time></trkpt><trkpt lat="45.6499993" lon="12.2479577"><ele>13.0</ele><time>2026-04-26T06:47:53.046Z</time></trkpt><trkpt lat="45.6499335" lon="12.2476859"><ele>13.0</ele><time>2026-04-26T06:47:54.046Z</time></trkpt><trkpt lat="45.6498579" lon="12.2473888"><ele>13.0</ele><time>2026-04-26T06:47:55.043Z</time></trkpt><trkpt lat="45.6497911" lon="12.2471127"><ele>13.0</ele><time>2026-04-26T06:47:56.05Z</time></trkpt><trkpt lat="45.6497371" lon="12.2468039"><ele>13.0</ele><time>2026-04-26T06:47:57.048Z</time></trkpt><trkpt lat="45.6497102" lon="12.2465158"><ele>13.0</ele><time>2026-04-26T06:47:58.049Z</time></trkpt><trkpt lat="45.6496869" lon="12.24621"><ele>13.0</ele><time>2026-04-26T06:47:59.063Z</time></trkpt><trkpt lat="45.6496714" lon="12.245918"><ele>13.333333333333332</ele><time>2026-04-26T06:48:00.045Z</time></trkpt><trkpt lat="45.6496638" lon="12.2455851"><ele>13.666666666666668</ele><time>2026-04-26T06:48:01.044Z</time></trkpt><trkpt lat="45.649681" lon="12.2452902"><ele>14.0</ele><time>2026-04-26T06:48:02.051Z</time></trkpt><trkpt lat="45.649704" lon="12.2449956"><ele>14.666666666666668</ele><time>2026-04-26T06:48:03.039Z</time></trkpt><trkpt lat="45.6497322" lon="12.2446891"><ele>15.333333333333332</ele><time>2026-04-26T06:48:04.038Z</time></trkpt><trkpt lat="45.6497683" lon="12.2443664"><ele>16.0</ele><time>2026-04-26T06:48:05.044Z</time></trkpt><trkpt lat="45.6498054" lon="12.2440672"><ele>15.666666666666666</ele><time>2026-04-26T06:48:06.053Z</time></trkpt><trkpt lat="45.6498466" lon="12.2437646"><ele>15.333333333333332</ele><time>2026-04-26T06:48:07.056Z</time></trkpt><trkpt lat="45.6498818" lon="12.2434713"><ele>15.0</ele><time>2026-04-26T06:48:08.053Z</time></trkpt><trkpt lat="45.6499843" lon="12.2431913"><ele>15.0</ele><time>2026-04-26T06:48:09.045Z</time></trkpt><trkpt lat="45.6500268" lon="12.2428947"><ele>15.0</ele><time>2026-04-26T06:48:10.048Z</time></trkpt><trkpt lat="45.6500677" lon="12.2425976"><ele>15.0</ele><time>2026-04-26T06:48:11.048Z</time></trkpt><trkpt lat="45.6501111" lon="12.2423001"><ele>15.0</ele><time>2026-04-26T06:48:12.048Z</time></trkpt><trkpt lat="45.6501524" lon="12.2420004"><ele>15.0</ele><time>2026-04-26T06:48:13.049Z</time></trkpt><trkpt lat="45.6501907" lon="12.2416979"><ele>15.0</ele><time>2026-04-26T06:48:14.046Z</time></trkpt><trkpt lat="45.6502493" lon="12.2414024"><ele>14.333333333333332</ele><time>2026-04-26T06:48:15.04Z</time></trkpt><trkpt lat="45.6502933" lon="12.2411041"><ele>13.666666666666666</ele><time>2026-04-26T06:48:16.039Z</time></trkpt><trkpt lat="45.6503332" lon="12.240804"><ele>13.0</ele><time>2026-04-26T06:48:17.048Z</time></trkpt><trkpt lat="45.6503889" lon="12.240509"><ele>13.0</ele><time>2026-04-26T06:48:18.041Z</time></trkpt><trkpt lat="45.6504383" lon="12.2402099"><ele>13.0</ele><time>2026-04-26T06:48:19.044Z</time></trkpt><trkpt lat="45.6504757" lon="12.2399082"><ele>13.0</ele><time>2026-04-26T06:48:20.046Z</time></trkpt><trkpt lat="45.6505238" lon="12.2396097"><ele>13.0</ele><time>2026-04-26T06:48:21.05Z</time></trkpt><trkpt lat="45.6505698" lon="12.2393116"><ele>13.0</ele><time>2026-04-26T06:48:22.036Z</time></trkpt><trkpt lat="45.6506132" lon="12.2390137"><ele>13.0</ele><time>2026-04-26T06:48:23.037Z</time></trkpt><trkpt lat="45.6506509" lon="12.2387147"><ele>13.333333333333332</ele><time>2026-04-26T06:48:24.039Z</time></trkpt><trkpt lat="45.6506956" lon="12.2384185"><ele>13.666666666666668</ele><time>2026-04-26T06:48:25.032Z</time></trkpt><trkpt lat="45.6507392" lon="12.2381224"><ele>14.0</ele><time>2026-04-26T06:48:26.04Z</time></trkpt><trkpt lat="45.6507802" lon="12.237827"><ele>14.0</ele><time>2026-04-26T06:48:27.041Z</time></trkpt><trkpt lat="45.6508103" lon="12.2375279"><ele>14.0</ele><time>2026-04-26T06:48:28.028Z</time></trkpt><trkpt lat="45.6508477" lon="12.2372303"><ele>14.0</ele><time>2026-04-26T06:48:29.046Z</time></trkpt><trkpt lat="45.6508879" lon="12.2369336"><ele>13.333333333333334</ele><time>2026-04-26T06:48:30.03Z</time></trkpt><trkpt lat="45.6509234" lon="12.2366346"><ele>12.666666666666668</ele><time>2026-04-26T06:48:31.033Z</time></trkpt><trkpt lat="45.6509509" lon="12.2363327"><ele>12.0</ele><time>2026-04-26T06:48:32.046Z</time></trkpt><trkpt lat="45.6509762" lon="12.2360318"><ele>12.0</ele><time>2026-04-26T06:48:33.053Z</time></trkpt><trkpt lat="45.6510047" lon="12.2357321"><ele>12.0</ele><time>2026-04-26T06:48:34.036Z</time></trkpt><trkpt lat="45.6510304" lon="12.2354345"><ele>12.0</ele><time>2026-04-26T06:48:35.048Z</time></trkpt><trkpt lat="45.6510532" lon="12.2351333"><ele>12.333333333333332</ele><time>2026-04-26T06:48:36.04Z</time></trkpt><trkpt lat="45.6510769" lon="12.2348313"><ele>12.666666666666666</ele><time>2026-04-26T06:48:37.05Z</time></trkpt><trkpt lat="45.6510985" lon="12.2345287"><ele>13.0</ele><time>2026-04-26T06:48:38.044Z</time></trkpt><trkpt lat="45.6511174" lon="12.2342272"><ele>13.0</ele><time>2026-04-26T06:48:39.043Z</time></trkpt><trkpt lat="45.6511445" lon="12.2339252"><ele>13.0</ele><time>2026-04-26T06:48:40.063Z</time></trkpt><trkpt lat="45.6511647" lon="12.2336211"><ele>13.0</ele><time>2026-04-26T06:48:41.039Z</time></trkpt><trkpt lat="45.6511954" lon="12.2333199"><ele>13.666666666666666</ele><time>2026-04-26T06:48:42.039Z</time></trkpt><trkpt lat="45.6511992" lon="12.2330125"><ele>14.333333333333332</ele><time>2026-04-26T06:48:43.042Z</time></trkpt><trkpt lat="45.6512054" lon="12.2327054"><ele>15.0</ele><time>2026-04-26T06:48:44.048Z</time></trkpt><trkpt lat="45.6512425" lon="12.2324052"><ele>14.333333333333332</ele><time>2026-04-26T06:48:45.043Z</time></trkpt><trkpt lat="45.6512651" lon="12.2321026"><ele>13.666666666666666</ele><time>2026-04-26T06:48:46.051Z</time></trkpt><trkpt lat="45.6512928" lon="12.2318005"><ele>13.0</ele><time>2026-04-26T06:48:47.033Z</time></trkpt><trkpt lat="45.6513108" lon="12.2314965"><ele>12.666666666666666</ele><time>2026-04-26T06:48:48.033Z</time></trkpt><trkpt lat="45.651337" lon="12.2311946"><ele>12.333333333333332</ele><time>2026-04-26T06:48:49.038Z</time></trkpt><trkpt lat="45.6513628" lon="12.2308931"><ele>12.0</ele><time>2026-04-26T06:48:50.037Z</time></trkpt><trkpt lat="45.6513917" lon="12.2305921"><ele>12.666666666666668</ele><time>2026-04-26T06:48:51.06Z</time></trkpt><trkpt lat="45.6514193" lon="12.2302893"><ele>13.333333333333334</ele><time>2026-04-26T06:48:52.044Z</time></trkpt><trkpt lat="45.6514363" lon="12.2299837"><ele>14.0</ele><time>2026-04-26T06:48:53.037Z</time></trkpt><trkpt lat="45.6514654" lon="12.2296815"><ele>14.333333333333334</ele><time>2026-04-26T06:48:54.055Z</time></trkpt><trkpt lat="45.6514785" lon="12.2293776"><ele>14.666666666666668</ele><time>2026-04-26T06:48:55.032Z</time></trkpt><trkpt lat="45.6515051" lon="12.229076"><ele>15.0</ele><time>2026-04-26T06:48:56.054Z</time></trkpt><trkpt lat="45.6515248" lon="12.2287734"><ele>14.333333333333332</ele><time>2026-04-26T06:48:57.047Z</time></trkpt><trkpt lat="45.6515538" lon="12.2284706"><ele>13.666666666666666</ele><time>2026-04-26T06:48:58.03Z</time></trkpt><trkpt lat="45.6515849" lon="12.2281696"><ele>13.0</ele><time>2026-04-26T06:48:59.036Z</time></trkpt><trkpt lat="45.6516066" lon="12.227868"><ele>12.666666666666666</ele><time>2026-04-26T06:49:00.044Z</time></trkpt><trkpt lat="45.6516388" lon="12.2275674"><ele>12.333333333333332</ele><time>2026-04-26T06:49:01.03Z</time></trkpt><trkpt lat="45.6516665" lon="12.2272654"><ele>12.0</ele><time>2026-04-26T06:49:02.035Z</time></trkpt><trkpt lat="45.6516941" lon="12.2269638"><ele>12.0</ele><time>2026-04-26T06:49:03.037Z</time></trkpt><trkpt lat="45.6517168" lon="12.2266615"><ele>12.0</ele><time>2026-04-26T06:49:04.046Z</time></trkpt><trkpt lat="45.6517429" lon="12.2263611"><ele>12.0</ele><time>2026-04-26T06:49:05.035Z</time></trkpt><trkpt lat="45.6517671" lon="12.2260594"><ele>12.0</ele><time>2026-04-26T06:49:06.048Z</time></trkpt><trkpt lat="45.6517907" lon="12.2257565"><ele>12.0</ele><time>2026-04-26T06:49:07.036Z</time></trkpt><trkpt lat="45.651816" lon="12.2254537"><ele>12.0</ele><time>2026-04-26T06:49:08.045Z</time></trkpt><trkpt lat="45.6518418" lon="12.2251518"><ele>11.666666666666666</ele><time>2026-04-26T06:49:09.034Z</time></trkpt><trkpt lat="45.6518631" lon="12.2248502"><ele>11.333333333333332</ele><time>2026-04-26T06:49:10.048Z</time></trkpt><trkpt lat="45.6518878" lon="12.2245501"><ele>11.0</ele><time>2026-04-26T06:49:11.032Z</time></trkpt><trkpt lat="45.6518911" lon="12.2242468"><ele>11.333333333333332</ele><time>2026-04-26T06:49:12.031Z</time></trkpt><trkpt lat="45.651906" lon="12.2239437"><ele>11.666666666666666</ele><time>2026-04-26T06:49:13.038Z</time></trkpt><trkpt lat="45.6519209" lon="12.2236408"><ele>12.0</ele><time>2026-04-26T06:49:14.056Z</time></trkpt><trkpt lat="45.6519432" lon="12.223337"><ele>12.333333333333332</ele><time>2026-04-26T06:49:15.027Z</time></trkpt><trkpt lat="45.6519656" lon="12.2230335"><ele>12.666666666666666</ele><time>2026-04-26T06:49:16.043Z</time></trkpt><trkpt lat="45.6519923" lon="12.2227312"><ele>13.0</ele><time>2026-04-26T06:49:17.027Z</time></trkpt><trkpt lat="45.652015" lon="12.2224278"><ele>13.333333333333332</ele><time>2026-04-26T06:49:18.036Z</time></trkpt><trkpt lat="45.6520404" lon="12.2221248"><ele>13.666666666666668</ele><time>2026-04-26T06:49:19.041Z</time></trkpt><trkpt lat="45.6520612" lon="12.2218213"><ele>14.0</ele><time>2026-04-26T06:49:20.051Z</time></trkpt><trkpt lat="45.6520835" lon="12.2215185"><ele>13.666666666666668</ele><time>2026-04-26T06:49:21.043Z</time></trkpt><trkpt lat="45.6521066" lon="12.2212166"><ele>13.333333333333332</ele><time>2026-04-26T06:49:22.035Z</time></trkpt><trkpt lat="45.6521424" lon="12.2209166"><ele>13.0</ele><time>2026-04-26T06:49:23.037Z</time></trkpt><trkpt lat="45.6521644" lon="12.220614"><ele>13.0</ele><time>2026-04-26T06:49:24.041Z</time></trkpt><trkpt lat="45.6522102" lon="12.2203166"><ele>13.0</ele><time>2026-04-26T06:49:25.032Z</time></trkpt><trkpt lat="45.6522595" lon="12.22002"><ele>13.0</ele><time>2026-04-26T06:49:26.045Z</time></trkpt><trkpt lat="45.6523159" lon="12.2197248"><ele>13.0</ele><time>2026-04-26T06:49:27.049Z</time></trkpt><trkpt lat="45.6523757" lon="12.2194335"><ele>13.0</ele><time>2026-04-26T06:49:28.033Z</time></trkpt><trkpt lat="45.6524419" lon="12.2191472"><ele>13.0</ele><time>2026-04-26T06:49:29.033Z</time></trkpt><trkpt lat="45.6525147" lon="12.2188646"><ele>13.0</ele><time>2026-04-26T06:49:30.041Z</time></trkpt><trkpt lat="45.6525917" lon="12.2185837"><ele>13.0</ele><time>2026-04-26T06:49:31.039Z</time></trkpt><trkpt lat="45.652674" lon="12.218302"><ele>13.0</ele><time>2026-04-26T06:49:32.031Z</time></trkpt><trkpt lat="45.6527639" lon="12.218026"><ele>13.0</ele><time>2026-04-26T06:49:33.041Z</time></trkpt><trkpt lat="45.6528662" lon="12.2177569"><ele>13.0</ele><time>2026-04-26T06:49:34.039Z</time></trkpt><trkpt lat="45.6529741" lon="12.2174917"><ele>13.0</ele><time>2026-04-26T06:49:35.055Z</time></trkpt><trkpt lat="45.6530847" lon="12.2172316"><ele>13.333333333333332</ele><time>2026-04-26T06:49:36.046Z</time></trkpt><trkpt lat="45.6531972" lon="12.2169724"><ele>13.666666666666668</ele><time>2026-04-26T06:49:37.044Z</time></trkpt><trkpt lat="45.6533029" lon="12.2167065"><ele>14.0</ele><time>2026-04-26T06:49:38.045Z</time></trkpt><trkpt lat="45.6534099" lon="12.2164416"><ele>14.0</ele><time>2026-04-26T06:49:39.038Z</time></trkpt><trkpt lat="45.6535233" lon="12.2161818"><ele>14.0</ele><time>2026-04-26T06:49:40.045Z</time></trkpt><trkpt lat="45.6536218" lon="12.2159087"><ele>14.0</ele><time>2026-04-26T06:49:41.032Z</time></trkpt><trkpt lat="45.6537411" lon="12.2156513"><ele>13.333333333333334</ele><time>2026-04-26T06:49:42.034Z</time></trkpt><trkpt lat="45.6538411" lon="12.2153786"><ele>12.666666666666668</ele><time>2026-04-26T06:49:43.036Z</time></trkpt><trkpt lat="45.6539496" lon="12.2151168"><ele>12.0</ele><time>2026-04-26T06:49:44.032Z</time></trkpt><trkpt lat="45.6540586" lon="12.2148562"><ele>12.333333333333332</ele><time>2026-04-26T06:49:45.032Z</time></trkpt><trkpt lat="45.6541642" lon="12.2145929"><ele>12.666666666666666</ele><time>2026-04-26T06:49:46.034Z</time></trkpt><trkpt lat="45.6542761" lon="12.2143344"><ele>13.0</ele><time>2026-04-26T06:49:47.043Z</time></trkpt><trkpt lat="45.6543847" lon="12.2140722"><ele>13.666666666666666</ele><time>2026-04-26T06:49:48.037Z</time></trkpt><trkpt lat="45.6544984" lon="12.2138147"><ele>14.333333333333332</ele><time>2026-04-26T06:49:49.042Z</time></trkpt><trkpt lat="45.6546062" lon="12.2135508"><ele>15.0</ele><time>2026-04-26T06:49:50.041Z</time></trkpt><trkpt lat="45.6547081" lon="12.2132847"><ele>14.666666666666668</ele><time>2026-04-26T06:49:51.044Z</time></trkpt><trkpt lat="45.6548227" lon="12.2130326"><ele>14.333333333333334</ele><time>2026-04-26T06:49:52.034Z</time></trkpt><trkpt lat="45.6549474" lon="12.212787"><ele>14.0</ele><time>2026-04-26T06:49:53.048Z</time></trkpt><trkpt lat="45.6550671" lon="12.2125416"><ele>14.0</ele><time>2026-04-26T06:49:54.048Z</time></trkpt><trkpt lat="45.6551821" lon="12.2122925"><ele>14.0</ele><time>2026-04-26T06:49:55.047Z</time></trkpt><trkpt lat="45.6552986" lon="12.2120417"><ele>14.0</ele><time>2026-04-26T06:49:56.051Z</time></trkpt><trkpt lat="45.6554138" lon="12.211788"><ele>13.666666666666668</ele><time>2026-04-26T06:49:57.03Z</time></trkpt><trkpt lat="45.6555302" lon="12.211536"><ele>13.333333333333332</ele><time>2026-04-26T06:49:58.037Z</time></trkpt><trkpt lat="45.6556485" lon="12.2112857"><ele>13.0</ele><time>2026-04-26T06:49:59.045Z</time></trkpt><trkpt lat="45.6557671" lon="12.2110321"><ele>13.0</ele><time>2026-04-26T06:50:00.035Z</time></trkpt><trkpt lat="45.6558898" lon="12.2107795"><ele>13.0</ele><time>2026-04-26T06:50:01.035Z</time></trkpt><trkpt lat="45.6560106" lon="12.2105264"><ele>13.0</ele><time>2026-04-26T06:50:02.032Z</time></trkpt><trkpt lat="45.6561219" lon="12.2102663"><ele>13.333333333333332</ele><time>2026-04-26T06:50:03.039Z</time></trkpt><trkpt lat="45.6562302" lon="12.2100047"><ele>13.666666666666668</ele><time>2026-04-26T06:50:04.033Z</time></trkpt><trkpt lat="45.6563356" lon="12.2097431"><ele>14.0</ele><time>2026-04-26T06:50:05.044Z</time></trkpt><trkpt lat="45.6564348" lon="12.2094796"><ele>14.0</ele><time>2026-04-26T06:50:06.037Z</time></trkpt><trkpt lat="45.6565402" lon="12.2092193"><ele>14.0</ele><time>2026-04-26T06:50:07.047Z</time></trkpt><trkpt lat="45.6566434" lon="12.2089539"><ele>14.0</ele><time>2026-04-26T06:50:08.046Z</time></trkpt><trkpt lat="45.6567431" lon="12.2086862"><ele>14.0</ele><time>2026-04-26T06:50:09.041Z</time></trkpt><trkpt lat="45.6568419" lon="12.2084166"><ele>14.0</ele><time>2026-04-26T06:50:10.05Z</time></trkpt><trkpt lat="45.6569631" lon="12.2081606"><ele>14.0</ele><time>2026-04-26T06:50:11.041Z</time></trkpt><trkpt lat="45.6570696" lon="12.2078898"><ele>14.0</ele><time>2026-04-26T06:50:12.043Z</time></trkpt><trkpt lat="45.6571762" lon="12.2076183"><ele>14.0</ele><time>2026-04-26T06:50:13.023Z</time></trkpt><trkpt lat="45.6572827" lon="12.2073476"><ele>14.0</ele><time>2026-04-26T06:50:14.04Z</time></trkpt><trkpt lat="45.6573739" lon="12.2070664"><ele>14.0</ele><time>2026-04-26T06:50:15.053Z</time></trkpt><trkpt lat="45.6574764" lon="12.206797"><ele>14.0</ele><time>2026-04-26T06:50:16.051Z</time></trkpt><trkpt lat="45.6575792" lon="12.2065333"><ele>14.0</ele><time>2026-04-26T06:50:17.04Z</time></trkpt><trkpt lat="45.6576839" lon="12.2062741"><ele>14.333333333333334</ele><time>2026-04-26T06:50:18.032Z</time></trkpt><trkpt lat="45.6577922" lon="12.2060161"><ele>14.666666666666668</ele><time>2026-04-26T06:50:19.037Z</time></trkpt><trkpt lat="45.6579003" lon="12.205758"><ele>15.0</ele><time>2026-04-26T06:50:20.045Z</time></trkpt><trkpt lat="45.6580032" lon="12.2054947"><ele>15.0</ele><time>2026-04-26T06:50:21.048Z</time></trkpt><trkpt lat="45.6581089" lon="12.2052325"><ele>15.0</ele><time>2026-04-26T06:50:22.031Z</time></trkpt><trkpt lat="45.6582149" lon="12.2049708"><ele>15.0</ele><time>2026-04-26T06:50:23.035Z</time></trkpt><trkpt lat="45.6583183" lon="12.2047052"><ele>15.0</ele><time>2026-04-26T06:50:24.037Z</time></trkpt><trkpt lat="45.6584213" lon="12.2044382"><ele>15.0</ele><time>2026-04-26T06:50:25.048Z</time></trkpt><trkpt lat="45.6585217" lon="12.2041702"><ele>15.0</ele><time>2026-04-26T06:50:26.035Z</time></trkpt><trkpt lat="45.6586351" lon="12.2039124"><ele>15.0</ele><time>2026-04-26T06:50:27.036Z</time></trkpt><trkpt lat="45.6587444" lon="12.2036513"><ele>15.0</ele><time>2026-04-26T06:50:28.034Z</time></trkpt><trkpt lat="45.658846" lon="12.2033836"><ele>15.0</ele><time>2026-04-26T06:50:29.036Z</time></trkpt><trkpt lat="45.6589459" lon="12.2031142"><ele>15.0</ele><time>2026-04-26T06:50:30.056Z</time></trkpt><trkpt lat="45.6590569" lon="12.2028522"><ele>15.0</ele><time>2026-04-26T06:50:31.03Z</time></trkpt><trkpt lat="45.6591699" lon="12.2025952"><ele>15.0</ele><time>2026-04-26T06:50:32.044Z</time></trkpt><trkpt lat="45.6592793" lon="12.2023342"><ele>15.0</ele><time>2026-04-26T06:50:33.05Z</time></trkpt><trkpt lat="45.6593899" lon="12.2020744"><ele>15.0</ele><time>2026-04-26T06:50:34.061Z</time></trkpt><trkpt lat="45.6594887" lon="12.2018054"><ele>15.0</ele><time>2026-04-26T06:50:35.049Z</time></trkpt><trkpt lat="45.6595974" lon="12.2015443"><ele>14.666666666666668</ele><time>2026-04-26T06:50:36.063Z</time></trkpt><trkpt lat="45.6597108" lon="12.2012873"><ele>14.333333333333334</ele><time>2026-04-26T06:50:37.038Z</time></trkpt><trkpt lat="45.6598169" lon="12.201023"><ele>14.0</ele><time>2026-04-26T06:50:38.035Z</time></trkpt><trkpt lat="45.6599417" lon="12.2007722"><ele>14.0</ele><time>2026-04-26T06:50:39.042Z</time></trkpt><trkpt lat="45.6600687" lon="12.2005227"><ele>14.0</ele><time>2026-04-26T06:50:40.04Z</time></trkpt><trkpt lat="45.6601976" lon="12.2002759"><ele>14.0</ele><time>2026-04-26T06:50:41.042Z</time></trkpt><trkpt lat="45.6603322" lon="12.2000378"><ele>13.666666666666668</ele><time>2026-04-26T06:50:42.059Z</time></trkpt><trkpt lat="45.6604731" lon="12.1998084"><ele>13.333333333333332</ele><time>2026-04-26T06:50:43.035Z</time></trkpt><trkpt lat="45.6606145" lon="12.19958"><ele>13.0</ele><time>2026-04-26T06:50:44.032Z</time></trkpt><trkpt lat="45.6607607" lon="12.1993584"><ele>13.0</ele><time>2026-04-26T06:50:45.035Z</time></trkpt><trkpt lat="45.6609051" lon="12.1991357"><ele>13.0</ele><time>2026-04-26T06:50:46.041Z</time></trkpt><trkpt lat="45.6610648" lon="12.198935"><ele>13.0</ele><time>2026-04-26T06:50:47.044Z</time></trkpt><trkpt lat="45.6612235" lon="12.1987329"><ele>13.333333333333332</ele><time>2026-04-26T06:50:48.037Z</time></trkpt><trkpt lat="45.6613908" lon="12.1985407"><ele>13.666666666666668</ele><time>2026-04-26T06:50:49.039Z</time></trkpt><trkpt lat="45.6615561" lon="12.1983441"><ele>14.0</ele><time>2026-04-26T06:50:50.037Z</time></trkpt><trkpt lat="45.6617203" lon="12.1981541"><ele>14.666666666666668</ele><time>2026-04-26T06:50:51.046Z</time></trkpt><trkpt lat="45.6618894" lon="12.1979735"><ele>15.333333333333332</ele><time>2026-04-26T06:50:52.043Z</time></trkpt><trkpt lat="45.6620615" lon="12.1977975"><ele>16.0</ele><time>2026-04-26T06:50:53.052Z</time></trkpt><trkpt lat="45.6622389" lon="12.1976318"><ele>16.0</ele><time>2026-04-26T06:50:54.035Z</time></trkpt><trkpt lat="45.6624186" lon="12.1974727"><ele>16.0</ele><time>2026-04-26T06:50:55.04Z</time></trkpt><trkpt lat="45.662599" lon="12.1973163"><ele>16.0</ele><time>2026-04-26T06:50:56.039Z</time></trkpt><trkpt lat="45.6627854" lon="12.1971693"><ele>15.0</ele><time>2026-04-26T06:50:57.058Z</time></trkpt><trkpt lat="45.662976" lon="12.1970346"><ele>14.0</ele><time>2026-04-26T06:50:58.038Z</time></trkpt><trkpt lat="45.6631551" lon="12.1968718"><ele>13.0</ele><time>2026-04-26T06:50:59.068Z</time></trkpt><trkpt lat="45.6633394" lon="12.1967135"><ele>13.0</ele><time>2026-04-26T06:51:00.06Z</time></trkpt><trkpt lat="45.6635228" lon="12.1965535"><ele>13.0</ele><time>2026-04-26T06:51:01.037Z</time></trkpt><trkpt lat="45.6637073" lon="12.1963947"><ele>13.0</ele><time>2026-04-26T06:51:02.043Z</time></trkpt><trkpt lat="45.6638947" lon="12.1962404"><ele>14.0</ele><time>2026-04-26T06:51:03.04Z</time></trkpt><trkpt lat="45.6640757" lon="12.1960764"><ele>15.0</ele><time>2026-04-26T06:51:04.047Z</time></trkpt><trkpt lat="45.6642591" lon="12.1959203"><ele>16.0</ele><time>2026-04-26T06:51:05.046Z</time></trkpt><trkpt lat="45.6644446" lon="12.1957691"><ele>16.666666666666664</ele><time>2026-04-26T06:51:06.046Z</time></trkpt><trkpt lat="45.6646284" lon="12.1956159"><ele>17.333333333333332</ele><time>2026-04-26T06:51:07.045Z</time></trkpt><trkpt lat="45.6648099" lon="12.1954557"><ele>18.0</ele><time>2026-04-26T06:51:08.043Z</time></trkpt><trkpt lat="45.6649946" lon="12.1953024"><ele>18.0</ele><time>2026-04-26T06:51:09.049Z</time></trkpt><trkpt lat="45.6651762" lon="12.1951426"><ele>18.0</ele><time>2026-04-26T06:51:10.046Z</time></trkpt><trkpt lat="45.6653583" lon="12.1949849"><ele>18.0</ele><time>2026-04-26T06:51:11.063Z</time></trkpt><trkpt lat="45.665541" lon="12.1948304"><ele>18.333333333333332</ele><time>2026-04-26T06:51:12.018Z</time></trkpt><trkpt lat="45.6657226" lon="12.1946701"><ele>18.666666666666664</ele><time>2026-04-26T06:51:13.027Z</time></trkpt><trkpt lat="45.6659061" lon="12.1945153"><ele>19.0</ele><time>2026-04-26T06:51:14.02Z</time></trkpt><trkpt lat="45.6660896" lon="12.1943597"><ele>19.0</ele><time>2026-04-26T06:51:15.026Z</time></trkpt><trkpt lat="45.6662734" lon="12.1942076"><ele>19.0</ele><time>2026-04-26T06:51:16.014Z</time></trkpt><trkpt lat="45.666454" lon="12.1940453"><ele>19.0</ele><time>2026-04-26T06:51:17.038Z</time></trkpt><trkpt lat="45.6666391" lon="12.1938906"><ele>19.0</ele><time>2026-04-26T06:51:18.031Z</time></trkpt><trkpt lat="45.6668249" lon="12.1937361"><ele>19.0</ele><time>2026-04-26T06:51:19.024Z</time></trkpt><trkpt lat="45.6670046" lon="12.1935788"><ele>19.0</ele><time>2026-04-26T06:51:20.01Z</time></trkpt><trkpt lat="45.6671811" lon="12.1934347"><ele>19.0</ele><time>2026-04-26T06:51:21.02Z</time></trkpt><trkpt lat="45.667348" lon="12.1932908"><ele>19.0</ele><time>2026-04-26T06:51:22.018Z</time></trkpt><trkpt lat="45.6675093" lon="12.1931561"><ele>19.0</ele><time>2026-04-26T06:51:23.019Z</time></trkpt><trkpt lat="45.6676623" lon="12.1930213"><ele>19.666666666666664</ele><time>2026-04-26T06:51:24.043Z</time></trkpt><trkpt lat="45.667811" lon="12.1928887"><ele>20.333333333333332</ele><time>2026-04-26T06:51:25.041Z</time></trkpt><trkpt lat="45.6679576" lon="12.192763"><ele>21.0</ele><time>2026-04-26T06:51:26.035Z</time></trkpt><trkpt lat="45.6681048" lon="12.1926403"><ele>21.0</ele><time>2026-04-26T06:51:27.042Z</time></trkpt><trkpt lat="45.6682639" lon="12.1925257"><ele>21.0</ele><time>2026-04-26T06:51:28.028Z</time></trkpt><trkpt lat="45.6684379" lon="12.19243"><ele>21.0</ele><time>2026-04-26T06:51:29.034Z</time></trkpt><trkpt lat="45.6686227" lon="12.1923631"><ele>20.333333333333332</ele><time>2026-04-26T06:51:30.038Z</time></trkpt><trkpt lat="45.6688184" lon="12.1923451"><ele>19.666666666666664</ele><time>2026-04-26T06:51:31.033Z</time></trkpt><trkpt lat="45.6690145" lon="12.1923587"><ele>19.0</ele><time>2026-04-26T06:51:32.027Z</time></trkpt><trkpt lat="45.6692032" lon="12.1924161"><ele>19.0</ele><time>2026-04-26T06:51:33.022Z</time></trkpt><trkpt lat="45.6693845" lon="12.1925047"><ele>19.0</ele><time>2026-04-26T06:51:34.034Z</time></trkpt><trkpt lat="45.6695621" lon="12.1925764"><ele>19.0</ele><time>2026-04-26T06:51:35.013Z</time></trkpt><trkpt lat="45.6697334" lon="12.1926343"><ele>19.333333333333332</ele><time>2026-04-26T06:51:36.016Z</time></trkpt><trkpt lat="45.6698959" lon="12.1926944"><ele>19.666666666666668</ele><time>2026-04-26T06:51:37.017Z</time></trkpt><trkpt lat="45.6700465" lon="12.1927275"><ele>20.0</ele><time>2026-04-26T06:51:38.026Z</time></trkpt><trkpt lat="45.6701892" lon="12.19267"><ele>20.0</ele><time>2026-04-26T06:51:39.025Z</time></trkpt><trkpt lat="45.6703155" lon="12.1926056"><ele>20.0</ele><time>2026-04-26T06:51:40.024Z</time></trkpt><trkpt lat="45.6704172" lon="12.1924695"><ele>20.0</ele><time>2026-04-26T06:51:41.034Z</time></trkpt><trkpt lat="45.6704941" lon="12.1923005"><ele>20.0</ele><time>2026-04-26T06:51:42.02Z</time></trkpt><trkpt lat="45.6705434" lon="12.1921072"><ele>20.0</ele><time>2026-04-26T06:51:43.037Z</time></trkpt><trkpt lat="45.6705471" lon="12.1918927"><ele>20.0</ele><time>2026-04-26T06:51:44.041Z</time></trkpt><trkpt lat="45.6705153" lon="12.1916735"><ele>20.0</ele><time>2026-04-26T06:51:45.016Z</time></trkpt><trkpt lat="45.6704615" lon="12.1914377"><ele>20.333333333333336</ele><time>2026-04-26T06:51:46.018Z</time></trkpt><trkpt lat="45.6703961" lon="12.1911803"><ele>20.666666666666668</ele><time>2026-04-26T06:51:47.048Z</time></trkpt><trkpt lat="45.6703338" lon="12.1909117"><ele>21.0</ele><time>2026-04-26T06:51:48.019Z</time></trkpt><trkpt lat="45.6702798" lon="12.1906376"><ele>21.0</ele><time>2026-04-26T06:51:49.024Z</time></trkpt><trkpt lat="45.670226" lon="12.1903645"><ele>21.0</ele><time>2026-04-26T06:51:50.02Z</time></trkpt><trkpt lat="45.6701725" lon="12.1900941"><ele>21.0</ele><time>2026-04-26T06:51:51.027Z</time></trkpt><trkpt lat="45.6701182" lon="12.1898289"><ele>20.666666666666668</ele><time>2026-04-26T06:51:52.028Z</time></trkpt><trkpt lat="45.6700637" lon="12.1895693"><ele>20.333333333333336</ele><time>2026-04-26T06:51:53.03Z</time></trkpt><trkpt lat="45.6700088" lon="12.1893121"><ele>20.0</ele><time>2026-04-26T06:51:54.031Z</time></trkpt><trkpt lat="45.6699582" lon="12.1890542"><ele>19.333333333333336</ele><time>2026-04-26T06:51:55.03Z</time></trkpt><trkpt lat="45.6699053" lon="12.1888001"><ele>18.666666666666668</ele><time>2026-04-26T06:51:56.029Z</time></trkpt><trkpt lat="45.6698517" lon="12.1885473"><ele>18.0</ele><time>2026-04-26T06:51:57.038Z</time></trkpt><trkpt lat="45.669798" lon="12.188301"><ele>17.666666666666668</ele><time>2026-04-26T06:51:58.009Z</time></trkpt><trkpt lat="45.6697569" lon="12.1880596"><ele>17.333333333333336</ele><time>2026-04-26T06:51:59.023Z</time></trkpt><trkpt lat="45.6697076" lon="12.1878284"><ele>17.0</ele><time>2026-04-26T06:52:00.034Z</time></trkpt><trkpt lat="45.6696641" lon="12.1876015"><ele>17.0</ele><time>2026-04-26T06:52:01.023Z</time></trkpt><trkpt lat="45.6696208" lon="12.1873776"><ele>17.0</ele><time>2026-04-26T06:52:02.02Z</time></trkpt><trkpt lat="45.6695767" lon="12.1871549"><ele>17.0</ele><time>2026-04-26T06:52:03.037Z</time></trkpt><trkpt lat="45.6695255" lon="12.1869396"><ele>17.666666666666668</ele><time>2026-04-26T06:52:04.026Z</time></trkpt><trkpt lat="45.6694601" lon="12.1867346"><ele>18.333333333333332</ele><time>2026-04-26T06:52:05.035Z</time></trkpt><trkpt lat="45.6693736" lon="12.1865493"><ele>19.0</ele><time>2026-04-26T06:52:06.025Z</time></trkpt><trkpt lat="45.6692589" lon="12.1863952"><ele>19.25</ele><time>2026-04-26T06:52:07.036Z</time></trkpt><trkpt lat="45.6691415" lon="12.186258"><ele>19.5</ele><time>2026-04-26T06:52:08.05Z</time></trkpt><trkpt lat="45.6690268" lon="12.1861392"><ele>19.75</ele><time>2026-04-26T06:52:09.044Z</time></trkpt><trkpt lat="45.6689179" lon="12.1860321"><ele>20.0</ele><time>2026-04-26T06:52:10.042Z</time></trkpt><trkpt lat="45.6688197" lon="12.1859256"><ele>20.0</ele><time>2026-04-26T06:52:11.032Z</time></trkpt><trkpt lat="45.6687307" lon="12.1858206"><ele>20.0</ele><time>2026-04-26T06:52:12.04Z</time></trkpt><trkpt lat="45.6686667" lon="12.1856886"><ele>20.0</ele><time>2026-04-26T06:52:13.032Z</time></trkpt><trkpt lat="45.6686491" lon="12.1855297"><ele>20.0</ele><time>2026-04-26T06:52:14.048Z</time></trkpt><trkpt lat="45.6686479" lon="12.1853678"><ele>20.0</ele><time>2026-04-26T06:52:15.025Z</time></trkpt><trkpt lat="45.6686702" lon="12.1851874"><ele>20.0</ele><time>2026-04-26T06:52:16.041Z</time></trkpt><trkpt lat="45.6686964" lon="12.1849841"><ele>20.0</ele><time>2026-04-26T06:52:17.03Z</time></trkpt><trkpt lat="45.6687266" lon="12.1847531"><ele>20.0</ele><time>2026-04-26T06:52:18.017Z</time></trkpt><trkpt lat="45.6687517" lon="12.184502"><ele>20.333333333333336</ele><time>2026-04-26T06:52:19.031Z</time></trkpt><trkpt lat="45.6687956" lon="12.1842548"><ele>20.666666666666668</ele><time>2026-04-26T06:52:20.027Z</time></trkpt><trkpt lat="45.6688163" lon="12.183998"><ele>21.0</ele><time>2026-04-26T06:52:21.028Z</time></trkpt><trkpt lat="45.6688417" lon="12.1837491"><ele>21.0</ele><time>2026-04-26T06:52:22.041Z</time></trkpt><trkpt lat="45.668872" lon="12.1834984"><ele>21.0</ele><time>2026-04-26T06:52:23.018Z</time></trkpt><trkpt lat="45.6689126" lon="12.1832499"><ele>21.0</ele><time>2026-04-26T06:52:24.041Z</time></trkpt><trkpt lat="45.6689459" lon="12.1829997"><ele>21.0</ele><time>2026-04-26T06:52:25.042Z</time></trkpt><trkpt lat="45.668978" lon="12.1827517"><ele>21.0</ele><time>2026-04-26T06:52:26.027Z</time></trkpt><trkpt lat="45.6690187" lon="12.1825078"><ele>21.0</ele><time>2026-04-26T06:52:27.043Z</time></trkpt><trkpt lat="45.6690579" lon="12.1822635"><ele>21.0</ele><time>2026-04-26T06:52:28.047Z</time></trkpt><trkpt lat="45.6690825" lon="12.1820155"><ele>21.0</ele><time>2026-04-26T06:52:29.038Z</time></trkpt><trkpt lat="45.6691154" lon="12.1817682"><ele>21.0</ele><time>2026-04-26T06:52:30.041Z</time></trkpt><trkpt lat="45.6691471" lon="12.1815163"><ele>20.333333333333332</ele><time>2026-04-26T06:52:31.036Z</time></trkpt><trkpt lat="45.6691686" lon="12.1812567"><ele>19.666666666666664</ele><time>2026-04-26T06:52:32.056Z</time></trkpt><trkpt lat="45.6691905" lon="12.1809964"><ele>19.0</ele><time>2026-04-26T06:52:33.04Z</time></trkpt><trkpt lat="45.6692183" lon="12.1807377"><ele>19.666666666666664</ele><time>2026-04-26T06:52:34.046Z</time></trkpt><trkpt lat="45.669249" lon="12.1804807"><ele>20.333333333333332</ele><time>2026-04-26T06:52:35.033Z</time></trkpt><trkpt lat="45.6692863" lon="12.180224"><ele>21.0</ele><time>2026-04-26T06:52:36.02Z</time></trkpt><trkpt lat="45.6693083" lon="12.1799619"><ele>21.333333333333332</ele><time>2026-04-26T06:52:37.036Z</time></trkpt><trkpt lat="45.6693371" lon="12.1796988"><ele>21.666666666666664</ele><time>2026-04-26T06:52:38.04Z</time></trkpt><trkpt lat="45.6693666" lon="12.1794366"><ele>22.0</ele><time>2026-04-26T06:52:39.041Z</time></trkpt><trkpt lat="45.6694012" lon="12.1791822"><ele>22.666666666666664</ele><time>2026-04-26T06:52:40.035Z</time></trkpt><trkpt lat="45.6694346" lon="12.1789362"><ele>23.333333333333332</ele><time>2026-04-26T06:52:41.034Z</time></trkpt><trkpt lat="45.6694746" lon="12.1786982"><ele>24.0</ele><time>2026-04-26T06:52:42.03Z</time></trkpt><trkpt lat="45.6695073" lon="12.178466"><ele>24.0</ele><time>2026-04-26T06:52:43.039Z</time></trkpt><trkpt lat="45.6695374" lon="12.1782398"><ele>24.0</ele><time>2026-04-26T06:52:44.043Z</time></trkpt><trkpt lat="45.6695559" lon="12.1780173"><ele>24.0</ele><time>2026-04-26T06:52:45.022Z</time></trkpt><trkpt lat="45.6695758" lon="12.1778054"><ele>24.0</ele><time>2026-04-26T06:52:46.041Z</time></trkpt><trkpt lat="45.6695959" lon="12.1776051"><ele>24.0</ele><time>2026-04-26T06:52:47.031Z</time></trkpt><trkpt lat="45.6696288" lon="12.1774213"><ele>24.0</ele><time>2026-04-26T06:52:48.037Z</time></trkpt><trkpt lat="45.6696556" lon="12.1772503"><ele>24.0</ele><time>2026-04-26T06:52:49.046Z</time></trkpt><trkpt lat="45.669693" lon="12.177088"><ele>23.799999999999997</ele><time>2026-04-26T06:52:50.047Z</time></trkpt><trkpt lat="45.6697352" lon="12.17693"><ele>23.599999999999998</ele><time>2026-04-26T06:52:51.04Z</time></trkpt><trkpt lat="45.6697831" lon="12.1767824"><ele>23.4</ele><time>2026-04-26T06:52:52.06Z</time></trkpt><trkpt lat="45.6698298" lon="12.176644"><ele>23.2</ele><time>2026-04-26T06:52:53.071Z</time></trkpt><trkpt lat="45.6698706" lon="12.1765257"><ele>23.0</ele><time>2026-04-26T06:52:54.039Z</time></trkpt><trkpt lat="45.6699164" lon="12.1764521"><ele>23.0</ele><time>2026-04-26T06:52:55.06Z</time></trkpt><trkpt lat="45.6700027" lon="12.1763969"><ele>23.0</ele><time>2026-04-26T06:52:57.043Z</time></trkpt><trkpt lat="45.6701169" lon="12.1763586"><ele>23.0</ele><time>2026-04-26T06:52:59.039Z</time></trkpt><trkpt lat="45.6701968" lon="12.176332"><ele>23.0</ele><time>2026-04-26T06:53:00.056Z</time></trkpt><trkpt lat="45.6702729" lon="12.1762685"><ele>23.0</ele><time>2026-04-26T06:53:01.039Z</time></trkpt><trkpt lat="45.6703336" lon="12.1761716"><ele>23.2</ele><time>2026-04-26T06:53:02.061Z</time></trkpt><trkpt lat="45.6703656" lon="12.1760435"><ele>23.4</ele><time>2026-04-26T06:53:03.06Z</time></trkpt><trkpt lat="45.6703808" lon="12.1758943"><ele>23.599999999999998</ele><time>2026-04-26T06:53:04.059Z</time></trkpt><trkpt lat="45.6704011" lon="12.175732"><ele>23.799999999999997</ele><time>2026-04-26T06:53:05.039Z</time></trkpt><trkpt lat="45.670439" lon="12.1755608"><ele>24.0</ele><time>2026-04-26T06:53:06.048Z</time></trkpt><trkpt lat="45.670492" lon="12.1753827"><ele>24.0</ele><time>2026-04-26T06:53:07.056Z</time></trkpt><trkpt lat="45.6705643" lon="12.1752108"><ele>24.0</ele><time>2026-04-26T06:53:08.051Z</time></trkpt><trkpt lat="45.6706519" lon="12.1750341"><ele>24.0</ele><time>2026-04-26T06:53:09.051Z</time></trkpt><trkpt lat="45.6707538" lon="12.1748561"><ele>24.0</ele><time>2026-04-26T06:53:10.041Z</time></trkpt><trkpt lat="45.670848" lon="12.1746679"><ele>24.0</ele><time>2026-04-26T06:53:11.057Z</time></trkpt><trkpt lat="45.6709395" lon="12.1744719"><ele>24.0</ele><time>2026-04-26T06:53:12.043Z</time></trkpt><trkpt lat="45.671021" lon="12.1742644"><ele>24.0</ele><time>2026-04-26T06:53:13.038Z</time></trkpt><trkpt lat="45.6710878" lon="12.1740428"><ele>24.0</ele><time>2026-04-26T06:53:14.051Z</time></trkpt><trkpt lat="45.6711349" lon="12.1738121"><ele>24.0</ele><time>2026-04-26T06:53:15.048Z</time></trkpt><trkpt lat="45.6711786" lon="12.1735812"><ele>24.333333333333336</ele><time>2026-04-26T06:53:16.056Z</time></trkpt><trkpt lat="45.6712105" lon="12.1733471"><ele>24.666666666666668</ele><time>2026-04-26T06:53:17.034Z</time></trkpt><trkpt lat="45.6712471" lon="12.1731229"><ele>25.0</ele><time>2026-04-26T06:53:18.034Z</time></trkpt><trkpt lat="45.6712879" lon="12.1729031"><ele>25.0</ele><time>2026-04-26T06:53:19.038Z</time></trkpt><trkpt lat="45.6713404" lon="12.1726883"><ele>25.0</ele><time>2026-04-26T06:53:20.041Z</time></trkpt><trkpt lat="45.6713854" lon="12.1724689"><ele>25.0</ele><time>2026-04-26T06:53:21.042Z</time></trkpt><trkpt lat="45.6714196" lon="12.1722429"><ele>24.666666666666668</ele><time>2026-04-26T06:53:22.052Z</time></trkpt><trkpt lat="45.6714472" lon="12.172012"><ele>24.333333333333336</ele><time>2026-04-26T06:53:23.05Z</time></trkpt><trkpt lat="45.6714854" lon="12.1717843"><ele>24.0</ele><time>2026-04-26T06:53:24.037Z</time></trkpt><trkpt lat="45.6715075" lon="12.1715498"><ele>23.666666666666668</ele><time>2026-04-26T06:53:25.05Z</time></trkpt><trkpt lat="45.6715577" lon="12.1713287"><ele>23.333333333333336</ele><time>2026-04-26T06:53:26.049Z</time></trkpt><trkpt lat="45.6716003" lon="12.1711108"><ele>23.0</ele><time>2026-04-26T06:53:27.044Z</time></trkpt><trkpt lat="45.6716357" lon="12.1708962"><ele>23.0</ele><time>2026-04-26T06:53:28.055Z</time></trkpt><trkpt lat="45.6716704" lon="12.1707036"><ele>23.0</ele><time>2026-04-26T06:53:29.057Z</time></trkpt><trkpt lat="45.6716793" lon="12.170564"><ele>23.0</ele><time>2026-04-26T06:53:30.063Z</time></trkpt><trkpt lat="45.671675" lon="12.1704305"><ele>23.0</ele><time>2026-04-26T06:53:32.033Z</time></trkpt><trkpt lat="45.6716513" lon="12.1702846"><ele>23.0</ele><time>2026-04-26T06:53:37.049Z</time></trkpt><trkpt lat="45.6716714" lon="12.1701713"><ele>23.0</ele><time>2026-04-26T06:53:44.031Z</time></trkpt><trkpt lat="45.6716869" lon="12.1699926"><ele>23.0</ele><time>2026-04-26T06:53:46.039Z</time></trkpt><trkpt lat="45.6717027" lon="12.1698577"><ele>23.0</ele><time>2026-04-26T06:53:47.049Z</time></trkpt><trkpt lat="45.6717256" lon="12.1696937"><ele>23.0</ele><time>2026-04-26T06:53:48.05Z</time></trkpt><trkpt lat="45.6717443" lon="12.1695174"><ele>23.5</ele><time>2026-04-26T06:53:49.052Z</time></trkpt><trkpt lat="45.6717696" lon="12.1693412"><ele>24.0</ele><time>2026-04-26T06:53:50.046Z</time></trkpt><trkpt lat="45.6718051" lon="12.1691679"><ele>24.5</ele><time>2026-04-26T06:53:51.053Z</time></trkpt><trkpt lat="45.6718397" lon="12.1689896"><ele>25.0</ele><time>2026-04-26T06:53:52.042Z</time></trkpt><trkpt lat="45.6718683" lon="12.1688062"><ele>25.0</ele><time>2026-04-26T06:53:53.043Z</time></trkpt><trkpt lat="45.6718934" lon="12.1686186"><ele>25.0</ele><time>2026-04-26T06:53:54.035Z</time></trkpt><trkpt lat="45.6719232" lon="12.1684289"><ele>25.0</ele><time>2026-04-26T06:53:55.04Z</time></trkpt><trkpt lat="45.6719635" lon="12.1682416"><ele>25.0</ele><time>2026-04-26T06:53:56.03Z</time></trkpt><trkpt lat="45.6719863" lon="12.1680484"><ele>25.25</ele><time>2026-04-26T06:53:57.043Z</time></trkpt><trkpt lat="45.6720084" lon="12.1678614"><ele>25.5</ele><time>2026-04-26T06:53:58.057Z</time></trkpt><trkpt lat="45.672022" lon="12.1676794"><ele>25.75</ele><time>2026-04-26T06:53:59.053Z</time></trkpt><trkpt lat="45.6720379" lon="12.1675016"><ele>26.0</ele><time>2026-04-26T06:54:00.036Z</time></trkpt><trkpt lat="45.6720562" lon="12.1673231"><ele>26.25</ele><time>2026-04-26T06:54:01.039Z</time></trkpt><trkpt lat="45.6720754" lon="12.1671416"><ele>26.5</ele><time>2026-04-26T06:54:02.036Z</time></trkpt><trkpt lat="45.6720906" lon="12.1669549"><ele>26.75</ele><time>2026-04-26T06:54:03.04Z</time></trkpt><trkpt lat="45.6721033" lon="12.166765"><ele>27.0</ele><time>2026-04-26T06:54:04.081Z</time></trkpt><trkpt lat="45.6721127" lon="12.1665736"><ele>27.0</ele><time>2026-04-26T06:54:05.05Z</time></trkpt><trkpt lat="45.6721098" lon="12.1663773"><ele>27.0</ele><time>2026-04-26T06:54:06.066Z</time></trkpt><trkpt lat="45.6720998" lon="12.1661805"><ele>27.0</ele><time>2026-04-26T06:54:07.03Z</time></trkpt><trkpt lat="45.6720848" lon="12.1659839"><ele>27.0</ele><time>2026-04-26T06:54:08.021Z</time></trkpt><trkpt lat="45.6720771" lon="12.1657867"><ele>27.0</ele><time>2026-04-26T06:54:09.052Z</time></trkpt><trkpt lat="45.6720728" lon="12.165587"><ele>27.0</ele><time>2026-04-26T06:54:10.04Z</time></trkpt><trkpt lat="45.6720547" lon="12.1653832"><ele>27.0</ele><time>2026-04-26T06:54:11.038Z</time></trkpt><trkpt lat="45.6720433" lon="12.1651731"><ele>27.0</ele><time>2026-04-26T06:54:12.044Z</time></trkpt><trkpt lat="45.6720379" lon="12.1649635"><ele>27.0</ele><time>2026-04-26T06:54:13.038Z</time></trkpt><trkpt lat="45.6720434" lon="12.1647592"><ele>27.0</ele><time>2026-04-26T06:54:14.046Z</time></trkpt><trkpt lat="45.6720361" lon="12.1645704"><ele>27.0</ele><time>2026-04-26T06:54:15.041Z</time></trkpt><trkpt lat="45.6720227" lon="12.1643927"><ele>27.0</ele><time>2026-04-26T06:54:16.051Z</time></trkpt><trkpt lat="45.672007" lon="12.1642152"><ele>27.5</ele><time>2026-04-26T06:54:17.055Z</time></trkpt><trkpt lat="45.6719934" lon="12.1640276"><ele>28.0</ele><time>2026-04-26T06:54:18.044Z</time></trkpt><trkpt lat="45.6719878" lon="12.1638247"><ele>28.5</ele><time>2026-04-26T06:54:19.035Z</time></trkpt><trkpt lat="45.6719909" lon="12.1636187"><ele>29.0</ele><time>2026-04-26T06:54:20.032Z</time></trkpt><trkpt lat="45.6720097" lon="12.1634172"><ele>29.0</ele><time>2026-04-26T06:54:21.042Z</time></trkpt><trkpt lat="45.6720221" lon="12.1632199"><ele>29.0</ele><time>2026-04-26T06:54:22.062Z</time></trkpt><trkpt lat="45.6720169" lon="12.1630233"><ele>29.0</ele><time>2026-04-26T06:54:23.037Z</time></trkpt><trkpt lat="45.6720034" lon="12.1628234"><ele>29.0</ele><time>2026-04-26T06:54:24.049Z</time></trkpt><trkpt lat="45.6720019" lon="12.1626166"><ele>29.0</ele><time>2026-04-26T06:54:25.042Z</time></trkpt><trkpt lat="45.6719985" lon="12.162407"><ele>29.0</ele><time>2026-04-26T06:54:26.036Z</time></trkpt><trkpt lat="45.6719971" lon="12.1621945"><ele>29.0</ele><time>2026-04-26T06:54:27.046Z</time></trkpt><trkpt lat="45.6719917" lon="12.161977"><ele>29.0</ele><time>2026-04-26T06:54:28.05Z</time></trkpt><trkpt lat="45.6719744" lon="12.1617574"><ele>29.0</ele><time>2026-04-26T06:54:29.076Z</time></trkpt><trkpt lat="45.6719682" lon="12.1615328"><ele>29.0</ele><time>2026-04-26T06:54:30.045Z</time></trkpt><trkpt lat="45.6719612" lon="12.1613005"><ele>29.0</ele><time>2026-04-26T06:54:31.047Z</time></trkpt><trkpt lat="45.6719572" lon="12.161059"><ele>28.666666666666664</ele><time>2026-04-26T06:54:32.069Z</time></trkpt><trkpt lat="45.6719649" lon="12.1608065"><ele>28.333333333333336</ele><time>2026-04-26T06:54:33.037Z</time></trkpt><trkpt lat="45.67198" lon="12.1605475"><ele>28.0</ele><time>2026-04-26T06:54:34.049Z</time></trkpt><trkpt lat="45.6720184" lon="12.1602853"><ele>28.0</ele><time>2026-04-26T06:54:35.055Z</time></trkpt><trkpt lat="45.6720295" lon="12.1600197"><ele>28.0</ele><time>2026-04-26T06:54:36.057Z</time></trkpt><trkpt lat="45.6720484" lon="12.1597583"><ele>28.0</ele><time>2026-04-26T06:54:37.038Z</time></trkpt><trkpt lat="45.6720688" lon="12.1595012"><ele>28.0</ele><time>2026-04-26T06:54:38.046Z</time></trkpt><trkpt lat="45.6720878" lon="12.1592459"><ele>28.0</ele><time>2026-04-26T06:54:39.049Z</time></trkpt><trkpt lat="45.6721064" lon="12.158991"><ele>28.0</ele><time>2026-04-26T06:54:40.041Z</time></trkpt><trkpt lat="45.6721281" lon="12.1587374"><ele>28.0</ele><time>2026-04-26T06:54:41.041Z</time></trkpt><trkpt lat="45.6721601" lon="12.1584844"><ele>28.0</ele><time>2026-04-26T06:54:42.048Z</time></trkpt><trkpt lat="45.6721863" lon="12.1582339"><ele>28.0</ele><time>2026-04-26T06:54:43.048Z</time></trkpt><trkpt lat="45.6722053" lon="12.1579866"><ele>28.0</ele><time>2026-04-26T06:54:44.052Z</time></trkpt><trkpt lat="45.6722197" lon="12.1577413"><ele>28.0</ele><time>2026-04-26T06:54:45.053Z</time></trkpt><trkpt lat="45.6722333" lon="12.157498"><ele>28.0</ele><time>2026-04-26T06:54:46.045Z</time></trkpt><trkpt lat="45.672253" lon="12.1572599"><ele>28.0</ele><time>2026-04-26T06:54:47.046Z</time></trkpt><trkpt lat="45.6722708" lon="12.1570261"><ele>28.0</ele><time>2026-04-26T06:54:48.038Z</time></trkpt><trkpt lat="45.6722877" lon="12.1567913"><ele>28.0</ele><time>2026-04-26T06:54:49.043Z</time></trkpt><trkpt lat="45.6723045" lon="12.1565556"><ele>27.666666666666668</ele><time>2026-04-26T06:54:50.053Z</time></trkpt><trkpt lat="45.672323" lon="12.1563232"><ele>27.333333333333336</ele><time>2026-04-26T06:54:51.046Z</time></trkpt><trkpt lat="45.6723386" lon="12.156096"><ele>27.0</ele><time>2026-04-26T06:54:52.047Z</time></trkpt><trkpt lat="45.6723563" lon="12.1558785"><ele>27.25</ele><time>2026-04-26T06:54:53.052Z</time></trkpt><trkpt lat="45.6723661" lon="12.1556716"><ele>27.5</ele><time>2026-04-26T06:54:54.046Z</time></trkpt><trkpt lat="45.6723754" lon="12.1554703"><ele>27.75</ele><time>2026-04-26T06:54:55.048Z</time></trkpt><trkpt lat="45.6723914" lon="12.1552723"><ele>28.0</ele><time>2026-04-26T06:54:56.042Z</time></trkpt><trkpt lat="45.6724047" lon="12.1550746"><ele>28.0</ele><time>2026-04-26T06:54:57.06Z</time></trkpt><trkpt lat="45.6724141" lon="12.1548745"><ele>28.0</ele><time>2026-04-26T06:54:58.049Z</time></trkpt><trkpt lat="45.672426" lon="12.1546722"><ele>28.0</ele><time>2026-04-26T06:54:59.044Z</time></trkpt><trkpt lat="45.672442" lon="12.1544709"><ele>28.0</ele><time>2026-04-26T06:55:00.057Z</time></trkpt><trkpt lat="45.6724593" lon="12.1542732"><ele>28.0</ele><time>2026-04-26T06:55:01.058Z</time></trkpt><trkpt lat="45.6724862" lon="12.1540781"><ele>28.0</ele><time>2026-04-26T06:55:02.037Z</time></trkpt><trkpt lat="45.6725091" lon="12.1538829"><ele>28.0</ele><time>2026-04-26T06:55:03.039Z</time></trkpt><trkpt lat="45.6725323" lon="12.1536868"><ele>28.0</ele><time>2026-04-26T06:55:04.057Z</time></trkpt><trkpt lat="45.6725411" lon="12.1534882"><ele>28.0</ele><time>2026-04-26T06:55:05.034Z</time></trkpt><trkpt lat="45.6725566" lon="12.15329"><ele>28.0</ele><time>2026-04-26T06:55:06.042Z</time></trkpt><trkpt lat="45.672571" lon="12.1530909"><ele>28.0</ele><time>2026-04-26T06:55:07.052Z</time></trkpt><trkpt lat="45.6725897" lon="12.1528926"><ele>28.0</ele><time>2026-04-26T06:55:08.037Z</time></trkpt><trkpt lat="45.672617" lon="12.152694"><ele>28.0</ele><time>2026-04-26T06:55:09.04Z</time></trkpt><trkpt lat="45.6726374" lon="12.1524988"><ele>28.0</ele><time>2026-04-26T06:55:10.045Z</time></trkpt><trkpt lat="45.6726581" lon="12.1523105"><ele>28.0</ele><time>2026-04-26T06:55:11.049Z</time></trkpt><trkpt lat="45.6726855" lon="12.1521269"><ele>28.0</ele><time>2026-04-26T06:55:12.038Z</time></trkpt><trkpt lat="45.6727072" lon="12.1519433"><ele>28.0</ele><time>2026-04-26T06:55:13.028Z</time></trkpt><trkpt lat="45.6727396" lon="12.1517573"><ele>28.0</ele><time>2026-04-26T06:55:14.049Z</time></trkpt><trkpt lat="45.6727869" lon="12.1515684"><ele>28.0</ele><time>2026-04-26T06:55:15.045Z</time></trkpt><trkpt lat="45.6728368" lon="12.1513758"><ele>28.0</ele><time>2026-04-26T06:55:16.052Z</time></trkpt><trkpt lat="45.672891" lon="12.1511834"><ele>29.25</ele><time>2026-04-26T06:55:17.058Z</time></trkpt><trkpt lat="45.6729627" lon="12.1510009"><ele>30.5</ele><time>2026-04-26T06:55:18.043Z</time></trkpt><trkpt lat="45.6730303" lon="12.1508185"><ele>31.75</ele><time>2026-04-26T06:55:19.04Z</time></trkpt><trkpt lat="45.6730904" lon="12.1506318"><ele>33.0</ele><time>2026-04-26T06:55:20.045Z</time></trkpt><trkpt lat="45.6731507" lon="12.1504521"><ele>33.0</ele><time>2026-04-26T06:55:21.045Z</time></trkpt><trkpt lat="45.6732052" lon="12.1502769"><ele>33.0</ele><time>2026-04-26T06:55:22.044Z</time></trkpt><trkpt lat="45.6732558" lon="12.1501048"><ele>33.0</ele><time>2026-04-26T06:55:23.047Z</time></trkpt><trkpt lat="45.6733372" lon="12.149962"><ele>33.0</ele><time>2026-04-26T06:55:24.043Z</time></trkpt><trkpt lat="45.6733908" lon="12.149804"><ele>32.25</ele><time>2026-04-26T06:55:25.039Z</time></trkpt><trkpt lat="45.6734274" lon="12.1496392"><ele>31.5</ele><time>2026-04-26T06:55:26.044Z</time></trkpt><trkpt lat="45.6734918" lon="12.1495008"><ele>30.75</ele><time>2026-04-26T06:55:27.036Z</time></trkpt><trkpt lat="45.673541" lon="12.1493557"><ele>30.0</ele><time>2026-04-26T06:55:28.046Z</time></trkpt><trkpt lat="45.6735929" lon="12.1492121"><ele>30.25</ele><time>2026-04-26T06:55:29.041Z</time></trkpt><trkpt lat="45.6736709" lon="12.1490736"><ele>30.5</ele><time>2026-04-26T06:55:30.045Z</time></trkpt><trkpt lat="45.6737364" lon="12.1489129"><ele>30.75</ele><time>2026-04-26T06:55:31.049Z</time></trkpt><trkpt lat="45.6738015" lon="12.148742"><ele>31.0</ele><time>2026-04-26T06:55:32.025Z</time></trkpt><trkpt lat="45.6738705" lon="12.1485634"><ele>31.0</ele><time>2026-04-26T06:55:33.033Z</time></trkpt><trkpt lat="45.6739557" lon="12.1483932"><ele>31.0</ele><time>2026-04-26T06:55:34.037Z</time></trkpt><trkpt lat="45.674044" lon="12.148221"><ele>31.0</ele><time>2026-04-26T06:55:35.057Z</time></trkpt><trkpt lat="45.6741253" lon="12.1480381"><ele>31.0</ele><time>2026-04-26T06:55:36.047Z</time></trkpt><trkpt lat="45.6742032" lon="12.1478453"><ele>31.0</ele><time>2026-04-26T06:55:37.042Z</time></trkpt><trkpt lat="45.6742773" lon="12.1476495"><ele>31.0</ele><time>2026-04-26T06:55:38.038Z</time></trkpt><trkpt lat="45.6743408" lon="12.1474562"><ele>31.0</ele><time>2026-04-26T06:55:39.043Z</time></trkpt><trkpt lat="45.6743931" lon="12.1472633"><ele>31.0</ele><time>2026-04-26T06:55:40.037Z</time></trkpt><trkpt lat="45.6744463" lon="12.1470806"><ele>31.0</ele><time>2026-04-26T06:55:41.043Z</time></trkpt><trkpt lat="45.6745016" lon="12.1469061"><ele>31.0</ele><time>2026-04-26T06:55:42.053Z</time></trkpt><trkpt lat="45.6745541" lon="12.1467352"><ele>31.0</ele><time>2026-04-26T06:55:43.053Z</time></trkpt><trkpt lat="45.6746178" lon="12.1465802"><ele>31.0</ele><time>2026-04-26T06:55:44.06Z</time></trkpt><trkpt lat="45.6746759" lon="12.1464253"><ele>31.0</ele><time>2026-04-26T06:55:45.055Z</time></trkpt><trkpt lat="45.6747255" lon="12.1462718"><ele>31.0</ele><time>2026-04-26T06:55:46.04Z</time></trkpt><trkpt lat="45.6747718" lon="12.1461248"><ele>31.0</ele><time>2026-04-26T06:55:47.043Z</time></trkpt><trkpt lat="45.6748147" lon="12.1459849"><ele>31.0</ele><time>2026-04-26T06:55:48.07Z</time></trkpt><trkpt lat="45.6748496" lon="12.1458451"><ele>31.0</ele><time>2026-04-26T06:55:49.044Z</time></trkpt><trkpt lat="45.6748854" lon="12.145708"><ele>31.0</ele><time>2026-04-26T06:55:50.043Z</time></trkpt><trkpt lat="45.6749252" lon="12.1455712"><ele>31.0</ele><time>2026-04-26T06:55:51.066Z</time></trkpt><trkpt lat="45.6749676" lon="12.1454366"><ele>31.0</ele><time>2026-04-26T06:55:52.035Z</time></trkpt><trkpt lat="45.675027" lon="12.1452985"><ele>31.0</ele><time>2026-04-26T06:55:53.056Z</time></trkpt><trkpt lat="45.6750853" lon="12.1451375"><ele>31.0</ele><time>2026-04-26T06:55:54.037Z</time></trkpt><trkpt lat="45.6751388" lon="12.1449528"><ele>31.0</ele><time>2026-04-26T06:55:55.039Z</time></trkpt><trkpt lat="45.6752169" lon="12.1447747"><ele>31.0</ele><time>2026-04-26T06:55:56.037Z</time></trkpt><trkpt lat="45.6752805" lon="12.1445805"><ele>31.0</ele><time>2026-04-26T06:55:57.043Z</time></trkpt><trkpt lat="45.675336" lon="12.1443871"><ele>31.0</ele><time>2026-04-26T06:55:58.042Z</time></trkpt><trkpt lat="45.6753934" lon="12.1441996"><ele>31.25</ele><time>2026-04-26T06:55:59.05Z</time></trkpt><trkpt lat="45.6754511" lon="12.1440174"><ele>31.5</ele><time>2026-04-26T06:56:00.044Z</time></trkpt><trkpt lat="45.6755105" lon="12.1438414"><ele>31.75</ele><time>2026-04-26T06:56:01.037Z</time></trkpt><trkpt lat="45.6755621" lon="12.1436671"><ele>32.0</ele><time>2026-04-26T06:56:02.04Z</time></trkpt><trkpt lat="45.6756118" lon="12.1434997"><ele>32.0</ele><time>2026-04-26T06:56:03.041Z</time></trkpt><trkpt lat="45.6756626" lon="12.1433417"><ele>32.0</ele><time>2026-04-26T06:56:04.035Z</time></trkpt><trkpt lat="45.6757084" lon="12.1431903"><ele>32.0</ele><time>2026-04-26T06:56:05.031Z</time></trkpt><trkpt lat="45.6757604" lon="12.1430513"><ele>32.0</ele><time>2026-04-26T06:56:06.034Z</time></trkpt><trkpt lat="45.675807" lon="12.1429127"><ele>32.0</ele><time>2026-04-26T06:56:07.037Z</time></trkpt><trkpt lat="45.675833" lon="12.1427637"><ele>32.0</ele><time>2026-04-26T06:56:08.037Z</time></trkpt><trkpt lat="45.6758651" lon="12.1426194"><ele>32.0</ele><time>2026-04-26T06:56:09.044Z</time></trkpt><trkpt lat="45.6759018" lon="12.1424788"><ele>32.0</ele><time>2026-04-26T06:56:10.04Z</time></trkpt><trkpt lat="45.675944" lon="12.1423387"><ele>32.0</ele><time>2026-04-26T06:56:11.042Z</time></trkpt><trkpt lat="45.6759947" lon="12.1421928"><ele>31.75</ele><time>2026-04-26T06:56:12.035Z</time></trkpt><trkpt lat="45.6760517" lon="12.1420342"><ele>31.5</ele><time>2026-04-26T06:56:13.039Z</time></trkpt><trkpt lat="45.6761328" lon="12.1418822"><ele>31.25</ele><time>2026-04-26T06:56:14.061Z</time></trkpt><trkpt lat="45.6761899" lon="12.1416983"><ele>31.0</ele><time>2026-04-26T06:56:15.059Z</time></trkpt><trkpt lat="45.6762464" lon="12.1414923"><ele>31.0</ele><time>2026-04-26T06:56:16.038Z</time></trkpt><trkpt lat="45.6763191" lon="12.1412757"><ele>31.0</ele><time>2026-04-26T06:56:17.034Z</time></trkpt><trkpt lat="45.6763975" lon="12.1410529"><ele>31.0</ele><time>2026-04-26T06:56:18.041Z</time></trkpt><trkpt lat="45.6764809" lon="12.1408271"><ele>31.333333333333336</ele><time>2026-04-26T06:56:19.048Z</time></trkpt><trkpt lat="45.6765678" lon="12.1405791"><ele>31.666666666666664</ele><time>2026-04-26T06:56:20.047Z</time></trkpt><trkpt lat="45.6766523" lon="12.140307"><ele>32.0</ele><time>2026-04-26T06:56:21.059Z</time></trkpt><trkpt lat="45.6767411" lon="12.1400394"><ele>32.0</ele><time>2026-04-26T06:56:22.054Z</time></trkpt><trkpt lat="45.6768173" lon="12.1397794"><ele>32.0</ele><time>2026-04-26T06:56:23.044Z</time></trkpt><trkpt lat="45.6768959" lon="12.1395402"><ele>32.0</ele><time>2026-04-26T06:56:24.05Z</time></trkpt><trkpt lat="45.6769714" lon="12.1393116"><ele>31.666666666666664</ele><time>2026-04-26T06:56:25.052Z</time></trkpt><trkpt lat="45.6770394" lon="12.1391001"><ele>31.333333333333336</ele><time>2026-04-26T06:56:26.047Z</time></trkpt><trkpt lat="45.6771037" lon="12.1389031"><ele>31.0</ele><time>2026-04-26T06:56:27.045Z</time></trkpt><trkpt lat="45.6771642" lon="12.1387149"><ele>31.75</ele><time>2026-04-26T06:56:28.048Z</time></trkpt><trkpt lat="45.6772245" lon="12.1385341"><ele>32.5</ele><time>2026-04-26T06:56:29.043Z</time></trkpt><trkpt lat="45.6772869" lon="12.1383517"><ele>33.25</ele><time>2026-04-26T06:56:30.14Z</time></trkpt><trkpt lat="45.6773412" lon="12.1381506"><ele>34.0</ele><time>2026-04-26T06:56:31.042Z</time></trkpt><trkpt lat="45.6774066" lon="12.137939"><ele>34.0</ele><time>2026-04-26T06:56:32.031Z</time></trkpt><trkpt lat="45.6774728" lon="12.1377107"><ele>34.0</ele><time>2026-04-26T06:56:33.132Z</time></trkpt><trkpt lat="45.6775558" lon="12.1374778"><ele>34.0</ele><time>2026-04-26T06:56:34.038Z</time></trkpt><trkpt lat="45.6776312" lon="12.1372415"><ele>34.0</ele><time>2026-04-26T06:56:35.033Z</time></trkpt><trkpt lat="45.6777048" lon="12.1370035"><ele>34.0</ele><time>2026-04-26T06:56:36.04Z</time></trkpt><trkpt lat="45.6777794" lon="12.1367639"><ele>34.0</ele><time>2026-04-26T06:56:37.045Z</time></trkpt><trkpt lat="45.6778545" lon="12.1365238"><ele>34.333333333333336</ele><time>2026-04-26T06:56:38.058Z</time></trkpt><trkpt lat="45.6779309" lon="12.1362825"><ele>34.666666666666664</ele><time>2026-04-26T06:56:39.054Z</time></trkpt><trkpt lat="45.6780115" lon="12.1360347"><ele>35.0</ele><time>2026-04-26T06:56:40.045Z</time></trkpt><trkpt lat="45.6780818" lon="12.1357812"><ele>35.0</ele><time>2026-04-26T06:56:41.046Z</time></trkpt><trkpt lat="45.6781555" lon="12.1355266"><ele>35.0</ele><time>2026-04-26T06:56:42.061Z</time></trkpt><trkpt lat="45.6782226" lon="12.1352655"><ele>35.0</ele><time>2026-04-26T06:56:43.038Z</time></trkpt><trkpt lat="45.6782938" lon="12.1349999"><ele>34.666666666666664</ele><time>2026-04-26T06:56:44.051Z</time></trkpt><trkpt lat="45.6783598" lon="12.1347315"><ele>34.333333333333336</ele><time>2026-04-26T06:56:45.045Z</time></trkpt><trkpt lat="45.6784258" lon="12.1344641"><ele>34.0</ele><time>2026-04-26T06:56:46.048Z</time></trkpt><trkpt lat="45.6784917" lon="12.1342026"><ele>34.0</ele><time>2026-04-26T06:56:47.033Z</time></trkpt><trkpt lat="45.6785592" lon="12.1339423"><ele>34.0</ele><time>2026-04-26T06:56:48.034Z</time></trkpt><trkpt lat="45.6786223" lon="12.1336855"><ele>34.0</ele><time>2026-04-26T06:56:49.031Z</time></trkpt><trkpt lat="45.6786881" lon="12.1334315"><ele>34.333333333333336</ele><time>2026-04-26T06:56:50.046Z</time></trkpt><trkpt lat="45.6787527" lon="12.1331788"><ele>34.666666666666664</ele><time>2026-04-26T06:56:51.038Z</time></trkpt><trkpt lat="45.6788169" lon="12.1329245"><ele>35.0</ele><time>2026-04-26T06:56:52.041Z</time></trkpt><trkpt lat="45.6788641" lon="12.1326624"><ele>35.0</ele><time>2026-04-26T06:56:53.046Z</time></trkpt><trkpt lat="45.6788878" lon="12.1323931"><ele>35.0</ele><time>2026-04-26T06:56:54.039Z</time></trkpt><trkpt lat="45.6789071" lon="12.1321219"><ele>35.0</ele><time>2026-04-26T06:56:55.042Z</time></trkpt><trkpt lat="45.6789115" lon="12.131845"><ele>34.666666666666664</ele><time>2026-04-26T06:56:56.045Z</time></trkpt><trkpt lat="45.6789164" lon="12.131566"><ele>34.333333333333336</ele><time>2026-04-26T06:56:57.059Z</time></trkpt><trkpt lat="45.6789124" lon="12.1312907"><ele>34.0</ele><time>2026-04-26T06:56:58.049Z</time></trkpt><trkpt lat="45.6789157" lon="12.1310289"><ele>34.66666666666667</ele><time>2026-04-26T06:56:59.063Z</time></trkpt><trkpt lat="45.6789208" lon="12.1307785"><ele>35.333333333333336</ele><time>2026-04-26T06:57:00.045Z</time></trkpt><trkpt lat="45.6789203" lon="12.1305349"><ele>36.0</ele><time>2026-04-26T06:57:01.039Z</time></trkpt><trkpt lat="45.6789027" lon="12.1302933"><ele>36.0</ele><time>2026-04-26T06:57:02.04Z</time></trkpt><trkpt lat="45.6789012" lon="12.1300559"><ele>36.0</ele><time>2026-04-26T06:57:03.043Z</time></trkpt><trkpt lat="45.678903" lon="12.1298342"><ele>36.0</ele><time>2026-04-26T06:57:04.053Z</time></trkpt><trkpt lat="45.6789098" lon="12.1296469"><ele>36.0</ele><time>2026-04-26T06:57:05.044Z</time></trkpt><trkpt lat="45.6789404" lon="12.1294923"><ele>36.0</ele><time>2026-04-26T06:57:06.044Z</time></trkpt><trkpt lat="45.6789801" lon="12.1293564"><ele>36.0</ele><time>2026-04-26T06:57:07.054Z</time></trkpt><trkpt lat="45.6790426" lon="12.1292373"><ele>36.0</ele><time>2026-04-26T06:57:08.056Z</time></trkpt><trkpt lat="45.6791128" lon="12.1291331"><ele>36.0</ele><time>2026-04-26T06:57:09.05Z</time></trkpt><trkpt lat="45.6791298" lon="12.128999"><ele>36.25</ele><time>2026-04-26T06:57:10.044Z</time></trkpt><trkpt lat="45.6791001" lon="12.1288534"><ele>36.5</ele><time>2026-04-26T06:57:11.036Z</time></trkpt><trkpt lat="45.6790516" lon="12.1287135"><ele>36.75</ele><time>2026-04-26T06:57:12.036Z</time></trkpt><trkpt lat="45.6789877" lon="12.1285705"><ele>37.0</ele><time>2026-04-26T06:57:13.046Z</time></trkpt><trkpt lat="45.6789455" lon="12.1283913"><ele>37.0</ele><time>2026-04-26T06:57:14.065Z</time></trkpt><trkpt lat="45.6789239" lon="12.1281704"><ele>37.0</ele><time>2026-04-26T06:57:15.051Z</time></trkpt><trkpt lat="45.6789165" lon="12.1279308"><ele>37.0</ele><time>2026-04-26T06:57:16.061Z</time></trkpt><trkpt lat="45.6789044" lon="12.1276717"><ele>37.0</ele><time>2026-04-26T06:57:17.053Z</time></trkpt><trkpt lat="45.678874" lon="12.1274064"><ele>37.0</ele><time>2026-04-26T06:57:18.038Z</time></trkpt><trkpt lat="45.6788383" lon="12.1271456"><ele>37.0</ele><time>2026-04-26T06:57:19.053Z</time></trkpt><trkpt lat="45.6788149" lon="12.1268939"><ele>37.0</ele><time>2026-04-26T06:57:20.032Z</time></trkpt><trkpt lat="45.6787805" lon="12.1266516"><ele>37.0</ele><time>2026-04-26T06:57:21.039Z</time></trkpt><trkpt lat="45.6787326" lon="12.1264117"><ele>37.0</ele><time>2026-04-26T06:57:22.047Z</time></trkpt><trkpt lat="45.6787016" lon="12.1261719"><ele>36.66666666666667</ele><time>2026-04-26T06:57:23.047Z</time></trkpt><trkpt lat="45.6786652" lon="12.1259327"><ele>36.333333333333336</ele><time>2026-04-26T06:57:24.044Z</time></trkpt><trkpt lat="45.6786284" lon="12.1256909"><ele>36.0</ele><time>2026-04-26T06:57:25.041Z</time></trkpt><trkpt lat="45.6785952" lon="12.1254437"><ele>36.0</ele><time>2026-04-26T06:57:26.034Z</time></trkpt><trkpt lat="45.6785489" lon="12.1251975"><ele>36.0</ele><time>2026-04-26T06:57:27.04Z</time></trkpt><trkpt lat="45.6785096" lon="12.1249531"><ele>36.0</ele><time>2026-04-26T06:57:28.051Z</time></trkpt><trkpt lat="45.6784761" lon="12.1247068"><ele>36.0</ele><time>2026-04-26T06:57:29.043Z</time></trkpt><trkpt lat="45.6784414" lon="12.1244587"><ele>36.0</ele><time>2026-04-26T06:57:30.036Z</time></trkpt><trkpt lat="45.6784094" lon="12.1242109"><ele>36.0</ele><time>2026-04-26T06:57:31.034Z</time></trkpt><trkpt lat="45.6783759" lon="12.123965"><ele>35.666666666666664</ele><time>2026-04-26T06:57:32.051Z</time></trkpt><trkpt lat="45.678345" lon="12.1237223"><ele>35.33333333333333</ele><time>2026-04-26T06:57:33.049Z</time></trkpt><trkpt lat="45.6783087" lon="12.1234901"><ele>35.0</ele><time>2026-04-26T06:57:34.041Z</time></trkpt><trkpt lat="45.6782791" lon="12.1232594"><ele>34.666666666666664</ele><time>2026-04-26T06:57:35.05Z</time></trkpt><trkpt lat="45.6782439" lon="12.1230278"><ele>34.333333333333336</ele><time>2026-04-26T06:57:36.036Z</time></trkpt><trkpt lat="45.6782061" lon="12.1227913"><ele>34.0</ele><time>2026-04-26T06:57:37.052Z</time></trkpt><trkpt lat="45.6781747" lon="12.1225513"><ele>34.333333333333336</ele><time>2026-04-26T06:57:38.05Z</time></trkpt><trkpt lat="45.6781403" lon="12.1223083"><ele>34.666666666666664</ele><time>2026-04-26T06:57:39.05Z</time></trkpt><trkpt lat="45.6781124" lon="12.1220594"><ele>35.0</ele><time>2026-04-26T06:57:40.054Z</time></trkpt><trkpt lat="45.6780796" lon="12.1218084"><ele>34.666666666666664</ele><time>2026-04-26T06:57:41.065Z</time></trkpt><trkpt lat="45.6780475" lon="12.1215567"><ele>34.333333333333336</ele><time>2026-04-26T06:57:42.061Z</time></trkpt><trkpt lat="45.6780187" lon="12.1213036"><ele>34.0</ele><time>2026-04-26T06:57:43.058Z</time></trkpt><trkpt lat="45.6779971" lon="12.121047"><ele>34.0</ele><time>2026-04-26T06:57:44.047Z</time></trkpt><trkpt lat="45.6779727" lon="12.1207908"><ele>34.0</ele><time>2026-04-26T06:57:45.048Z</time></trkpt><trkpt lat="45.6779449" lon="12.1205353"><ele>34.0</ele><time>2026-04-26T06:57:46.057Z</time></trkpt><trkpt lat="45.6779212" lon="12.1202791"><ele>34.333333333333336</ele><time>2026-04-26T06:57:47.056Z</time></trkpt><trkpt lat="45.6778968" lon="12.1200227"><ele>34.666666666666664</ele><time>2026-04-26T06:57:48.041Z</time></trkpt><trkpt lat="45.6778757" lon="12.1197664"><ele>35.0</ele><time>2026-04-26T06:57:49.07Z</time></trkpt><trkpt lat="45.6778591" lon="12.1195109"><ele>35.0</ele><time>2026-04-26T06:57:50.045Z</time></trkpt><trkpt lat="45.6778466" lon="12.1192552"><ele>35.0</ele><time>2026-04-26T06:57:51.043Z</time></trkpt><trkpt lat="45.6778256" lon="12.1190044"><ele>35.0</ele><time>2026-04-26T06:57:52.049Z</time></trkpt><trkpt lat="45.6778116" lon="12.1187538"><ele>35.0</ele><time>2026-04-26T06:57:53.054Z</time></trkpt><trkpt lat="45.6778041" lon="12.118503"><ele>35.0</ele><time>2026-04-26T06:57:54.042Z</time></trkpt><trkpt lat="45.6778019" lon="12.1182514"><ele>35.0</ele><time>2026-04-26T06:57:55.05Z</time></trkpt><trkpt lat="45.6777995" lon="12.1179989"><ele>34.666666666666664</ele><time>2026-04-26T06:57:56.043Z</time></trkpt><trkpt lat="45.6777997" lon="12.1177461"><ele>34.333333333333336</ele><time>2026-04-26T06:57:57.05Z</time></trkpt><trkpt lat="45.6777979" lon="12.1174908"><ele>34.0</ele><time>2026-04-26T06:57:58.034Z</time></trkpt><trkpt lat="45.6778009" lon="12.1172326"><ele>35.0</ele><time>2026-04-26T06:57:59.046Z</time></trkpt><trkpt lat="45.6778037" lon="12.1169731"><ele>36.0</ele><time>2026-04-26T06:58:00.047Z</time></trkpt><trkpt lat="45.6778076" lon="12.1167136"><ele>37.0</ele><time>2026-04-26T06:58:01.049Z</time></trkpt><trkpt lat="45.6778143" lon="12.116452"><ele>37.0</ele><time>2026-04-26T06:58:02.04Z</time></trkpt><trkpt lat="45.6778088" lon="12.1161908"><ele>37.0</ele><time>2026-04-26T06:58:03.047Z</time></trkpt><trkpt lat="45.6778109" lon="12.1159326"><ele>37.0</ele><time>2026-04-26T06:58:04.042Z</time></trkpt><trkpt lat="45.6778197" lon="12.115677"><ele>36.333333333333336</ele><time>2026-04-26T06:58:05.06Z</time></trkpt><trkpt lat="45.6778216" lon="12.1154225"><ele>35.666666666666664</ele><time>2026-04-26T06:58:06.045Z</time></trkpt><trkpt lat="45.6778168" lon="12.115169"><ele>35.0</ele><time>2026-04-26T06:58:07.046Z</time></trkpt><trkpt lat="45.6778125" lon="12.114916"><ele>35.33333333333333</ele><time>2026-04-26T06:58:08.038Z</time></trkpt><trkpt lat="45.6778039" lon="12.1146646"><ele>35.666666666666664</ele><time>2026-04-26T06:58:09.061Z</time></trkpt><trkpt lat="45.6778004" lon="12.1144133"><ele>36.0</ele><time>2026-04-26T06:58:10.041Z</time></trkpt><trkpt lat="45.6777962" lon="12.1141642"><ele>36.0</ele><time>2026-04-26T06:58:11.045Z</time></trkpt><trkpt lat="45.6777879" lon="12.1139164"><ele>36.0</ele><time>2026-04-26T06:58:12.048Z</time></trkpt><trkpt lat="45.6777836" lon="12.1136691"><ele>36.0</ele><time>2026-04-26T06:58:13.04Z</time></trkpt><trkpt lat="45.6777798" lon="12.1134229"><ele>36.333333333333336</ele><time>2026-04-26T06:58:14.037Z</time></trkpt><trkpt lat="45.6777756" lon="12.1131783"><ele>36.66666666666667</ele><time>2026-04-26T06:58:15.04Z</time></trkpt><trkpt lat="45.6777707" lon="12.1129365"><ele>37.0</ele><time>2026-04-26T06:58:16.045Z</time></trkpt><trkpt lat="45.6777669" lon="12.1126971"><ele>37.0</ele><time>2026-04-26T06:58:17.047Z</time></trkpt><trkpt lat="45.6777637" lon="12.1124613"><ele>37.0</ele><time>2026-04-26T06:58:18.059Z</time></trkpt><trkpt lat="45.677764" lon="12.1122291"><ele>37.0</ele><time>2026-04-26T06:58:19.049Z</time></trkpt><trkpt lat="45.6777719" lon="12.1119991"><ele>37.333333333333336</ele><time>2026-04-26T06:58:20.038Z</time></trkpt><trkpt lat="45.67778" lon="12.1117678"><ele>37.666666666666664</ele><time>2026-04-26T06:58:21.046Z</time></trkpt><trkpt lat="45.6777909" lon="12.1115359"><ele>38.0</ele><time>2026-04-26T06:58:22.057Z</time></trkpt><trkpt lat="45.6778104" lon="12.1113053"><ele>37.33333333333333</ele><time>2026-04-26T06:58:23.057Z</time></trkpt><trkpt lat="45.6778439" lon="12.1110825"><ele>36.666666666666664</ele><time>2026-04-26T06:58:24.044Z</time></trkpt><trkpt lat="45.6778745" lon="12.1108675"><ele>36.0</ele><time>2026-04-26T06:58:25.036Z</time></trkpt><trkpt lat="45.6779043" lon="12.1106635"><ele>35.5</ele><time>2026-04-26T06:58:26.056Z</time></trkpt><trkpt lat="45.6779432" lon="12.1104807"><ele>35.0</ele><time>2026-04-26T06:58:27.046Z</time></trkpt><trkpt lat="45.6779694" lon="12.1103134"><ele>34.5</ele><time>2026-04-26T06:58:28.052Z</time></trkpt><trkpt lat="45.6779931" lon="12.1101669"><ele>34.0</ele><time>2026-04-26T06:58:29.044Z</time></trkpt><trkpt lat="45.6780186" lon="12.1100414"><ele>34.0</ele><time>2026-04-26T06:58:30.055Z</time></trkpt><trkpt lat="45.678035" lon="12.1099242"><ele>34.0</ele><time>2026-04-26T06:58:31.048Z</time></trkpt><trkpt lat="45.6780505" lon="12.1098306"><ele>34.0</ele><time>2026-04-26T06:58:32.043Z</time></trkpt><trkpt lat="45.6780718" lon="12.1097143"><ele>34.0</ele><time>2026-04-26T06:58:34.05Z</time></trkpt><trkpt lat="45.6780941" lon="12.1096054"><ele>34.0</ele><time>2026-04-26T06:58:37.052Z</time></trkpt><trkpt lat="45.6781273" lon="12.1094664"><ele>34.0</ele><time>2026-04-26T06:58:42.049Z</time></trkpt><trkpt lat="45.6781601" lon="12.1093856"><ele>34.2</ele><time>2026-04-26T06:58:44.05Z</time></trkpt><trkpt lat="45.6782329" lon="12.1092838"><ele>34.4</ele><time>2026-04-26T06:58:46.045Z</time></trkpt><trkpt lat="45.6782658" lon="12.1091252"><ele>34.6</ele><time>2026-04-26T06:58:48.044Z</time></trkpt><trkpt lat="45.6782464" lon="12.1089528"><ele>34.8</ele><time>2026-04-26T06:58:50.042Z</time></trkpt><trkpt lat="45.6782394" lon="12.1088621"><ele>35.0</ele><time>2026-04-26T06:58:51.047Z</time></trkpt><trkpt lat="45.6782398" lon="12.1087618"><ele>35.0</ele><time>2026-04-26T06:58:52.047Z</time></trkpt><trkpt lat="45.6782514" lon="12.1086511"><ele>35.0</ele><time>2026-04-26T06:58:53.044Z</time></trkpt><trkpt lat="45.6782647" lon="12.1085369"><ele>35.0</ele><time>2026-04-26T06:58:54.039Z</time></trkpt><trkpt lat="45.6782793" lon="12.1084233"><ele>35.0</ele><time>2026-04-26T06:58:55.051Z</time></trkpt><trkpt lat="45.6782901" lon="12.1083099"><ele>35.0</ele><time>2026-04-26T06:58:56.056Z</time></trkpt><trkpt lat="45.6783047" lon="12.1081925"><ele>35.0</ele><time>2026-04-26T06:58:57.047Z</time></trkpt><trkpt lat="45.6783226" lon="12.1080619"><ele>35.0</ele><time>2026-04-26T06:58:58.039Z</time></trkpt><trkpt lat="45.6783357" lon="12.1079246"><ele>35.0</ele><time>2026-04-26T06:58:59.054Z</time></trkpt><trkpt lat="45.6783615" lon="12.1077906"><ele>35.0</ele><time>2026-04-26T06:59:00.044Z</time></trkpt><trkpt lat="45.6783825" lon="12.1076616"><ele>35.0</ele><time>2026-04-26T06:59:01.053Z</time></trkpt><trkpt lat="45.6783978" lon="12.1075397"><ele>35.0</ele><time>2026-04-26T06:59:02.061Z</time></trkpt><trkpt lat="45.6784223" lon="12.1074256"><ele>35.142857142857146</ele><time>2026-04-26T06:59:03.042Z</time></trkpt><trkpt lat="45.6784357" lon="12.107313"><ele>35.285714285714285</ele><time>2026-04-26T06:59:04.048Z</time></trkpt><trkpt lat="45.6784427" lon="12.1072055"><ele>35.42857142857143</ele><time>2026-04-26T06:59:05.067Z</time></trkpt><trkpt lat="45.6784589" lon="12.1071038"><ele>35.57142857142857</ele><time>2026-04-26T06:59:06.036Z</time></trkpt><trkpt lat="45.6784685" lon="12.1070035"><ele>35.714285714285715</ele><time>2026-04-26T06:59:07.049Z</time></trkpt><trkpt lat="45.6784846" lon="12.1069061"><ele>35.85714285714286</ele><time>2026-04-26T06:59:08.048Z</time></trkpt><trkpt lat="45.6784953" lon="12.1068114"><ele>36.0</ele><time>2026-04-26T06:59:09.054Z</time></trkpt><trkpt lat="45.6785054" lon="12.1066468"><ele>36.2</ele><time>2026-04-26T06:59:11.046Z</time></trkpt><trkpt lat="45.6785651" lon="12.1065074"><ele>36.400000000000006</ele><time>2026-04-26T06:59:13.045Z</time></trkpt><trkpt lat="45.6785935" lon="12.1063645"><ele>36.6</ele><time>2026-04-26T06:59:15.036Z</time></trkpt><trkpt lat="45.6786328" lon="12.1062085"><ele>36.800000000000004</ele><time>2026-04-26T06:59:17.039Z</time></trkpt><trkpt lat="45.6786641" lon="12.1061292"><ele>37.0</ele><time>2026-04-26T06:59:18.038Z</time></trkpt><trkpt lat="45.6786779" lon="12.1060217"><ele>37.0</ele><time>2026-04-26T06:59:19.039Z</time></trkpt><trkpt lat="45.6786775" lon="12.1058835"><ele>37.0</ele><time>2026-04-26T06:59:20.042Z</time></trkpt><trkpt lat="45.6786837" lon="12.1057282"><ele>37.0</ele><time>2026-04-26T06:59:21.059Z</time></trkpt><trkpt lat="45.6786994" lon="12.1055653"><ele>37.0</ele><time>2026-04-26T06:59:22.052Z</time></trkpt><trkpt lat="45.6787052" lon="12.1053968"><ele>37.0</ele><time>2026-04-26T06:59:23.055Z</time></trkpt><trkpt lat="45.6787079" lon="12.105233"><ele>37.0</ele><time>2026-04-26T06:59:24.056Z</time></trkpt><trkpt lat="45.6787149" lon="12.1050763"><ele>37.0</ele><time>2026-04-26T06:59:25.041Z</time></trkpt><trkpt lat="45.6787099" lon="12.1049446"><ele>37.0</ele><time>2026-04-26T06:59:26.04Z</time></trkpt><trkpt lat="45.6787196" lon="12.1048524"><ele>37.0</ele><time>2026-04-26T06:59:27.056Z</time></trkpt><trkpt lat="45.6787239" lon="12.1047193"><ele>37.0</ele><time>2026-04-26T06:59:29.059Z</time></trkpt><trkpt lat="45.6786961" lon="12.1045706"><ele>36.85714285714286</ele><time>2026-04-26T06:59:31.042Z</time></trkpt><trkpt lat="45.6786738" lon="12.1044795"><ele>36.714285714285715</ele><time>2026-04-26T06:59:32.044Z</time></trkpt><trkpt lat="45.678664" lon="12.1043888"><ele>36.57142857142857</ele><time>2026-04-26T06:59:33.061Z</time></trkpt><trkpt lat="45.6786707" lon="12.1042984"><ele>36.42857142857143</ele><time>2026-04-26T06:59:34.035Z</time></trkpt><trkpt lat="45.678662" lon="12.1042085"><ele>36.285714285714285</ele><time>2026-04-26T06:59:35.04Z</time></trkpt><trkpt lat="45.6786569" lon="12.1041172"><ele>36.142857142857146</ele><time>2026-04-26T06:59:36.047Z</time></trkpt><trkpt lat="45.6786473" lon="12.1039482"><ele>36.0</ele><time>2026-04-26T06:59:38.062Z</time></trkpt><trkpt lat="45.678658" lon="12.1037908"><ele>35.8</ele><time>2026-04-26T06:59:40.042Z</time></trkpt><trkpt lat="45.6786689" lon="12.1036058"><ele>35.6</ele><time>2026-04-26T06:59:42.068Z</time></trkpt><trkpt lat="45.6786682" lon="12.1034982"><ele>35.4</ele><time>2026-04-26T06:59:43.059Z</time></trkpt><trkpt lat="45.6786719" lon="12.1033851"><ele>35.2</ele><time>2026-04-26T06:59:44.061Z</time></trkpt><trkpt lat="45.6786872" lon="12.1032642"><ele>35.0</ele><time>2026-04-26T06:59:45.038Z</time></trkpt><trkpt lat="45.6787024" lon="12.1031329"><ele>35.5</ele><time>2026-04-26T06:59:46.046Z</time></trkpt><trkpt lat="45.678698" lon="12.1029863"><ele>36.0</ele><time>2026-04-26T06:59:47.037Z</time></trkpt><trkpt lat="45.6787088" lon="12.1028277"><ele>36.5</ele><time>2026-04-26T06:59:48.049Z</time></trkpt><trkpt lat="45.6787298" lon="12.1026613"><ele>37.0</ele><time>2026-04-26T06:59:49.058Z</time></trkpt><trkpt lat="45.6787451" lon="12.1024818"><ele>37.25</ele><time>2026-04-26T06:59:50.055Z</time></trkpt><trkpt lat="45.6787559" lon="12.1022969"><ele>37.5</ele><time>2026-04-26T06:59:51.041Z</time></trkpt><trkpt lat="45.6787714" lon="12.1021172"><ele>37.75</ele><time>2026-04-26T06:59:52.049Z</time></trkpt><trkpt lat="45.6788177" lon="12.1019501"><ele>38.0</ele><time>2026-04-26T06:59:53.06Z</time></trkpt><trkpt lat="45.6788371" lon="12.101783"><ele>38.0</ele><time>2026-04-26T06:59:54.039Z</time></trkpt><trkpt lat="45.6788488" lon="12.1016225"><ele>38.0</ele><time>2026-04-26T06:59:55.044Z</time></trkpt><trkpt lat="45.6788399" lon="12.1014671"><ele>38.0</ele><time>2026-04-26T06:59:56.058Z</time></trkpt><trkpt lat="45.678817" lon="12.1013159"><ele>38.0</ele><time>2026-04-26T06:59:57.052Z</time></trkpt><trkpt lat="45.6787993" lon="12.1011713"><ele>38.0</ele><time>2026-04-26T06:59:58.046Z</time></trkpt><trkpt lat="45.6787921" lon="12.1010364"><ele>38.0</ele><time>2026-04-26T06:59:59.037Z</time></trkpt><trkpt lat="45.6787668" lon="12.100921"><ele>38.0</ele><time>2026-04-26T07:00:00.049Z</time></trkpt><trkpt lat="45.6787448" lon="12.1008361"><ele>38.0</ele><time>2026-04-26T07:00:01.05Z</time></trkpt><trkpt lat="45.6787361" lon="12.1007399"><ele>38.0</ele><time>2026-04-26T07:00:03.049Z</time></trkpt><trkpt lat="45.6787109" lon="12.1005998"><ele>38.0</ele><time>2026-04-26T07:00:06.038Z</time></trkpt><trkpt lat="45.6786887" lon="12.1004916"><ele>38.0</ele><time>2026-04-26T07:00:08.055Z</time></trkpt><trkpt lat="45.6786877" lon="12.1003994"><ele>37.8</ele><time>2026-04-26T07:00:10.052Z</time></trkpt><trkpt lat="45.6786893" lon="12.1003063"><ele>37.599999999999994</ele><time>2026-04-26T07:00:12.047Z</time></trkpt><trkpt lat="45.6786587" lon="12.1001362"><ele>37.400000000000006</ele><time>2026-04-26T07:00:14.059Z</time></trkpt><trkpt lat="45.6786327" lon="12.1000095"><ele>37.2</ele><time>2026-04-26T07:00:15.045Z</time></trkpt><trkpt lat="45.6786154" lon="12.0998577"><ele>37.0</ele><time>2026-04-26T07:00:16.057Z</time></trkpt><trkpt lat="45.6786004" lon="12.0996953"><ele>36.75</ele><time>2026-04-26T07:00:17.056Z</time></trkpt><trkpt lat="45.6785936" lon="12.099522"><ele>36.5</ele><time>2026-04-26T07:00:18.04Z</time></trkpt><trkpt lat="45.6785705" lon="12.0993406"><ele>36.25</ele><time>2026-04-26T07:00:19.046Z</time></trkpt><trkpt lat="45.6785545" lon="12.0991521"><ele>36.0</ele><time>2026-04-26T07:00:20.044Z</time></trkpt><trkpt lat="45.6785563" lon="12.0989531"><ele>36.0</ele><time>2026-04-26T07:00:21.053Z</time></trkpt><trkpt lat="45.6785658" lon="12.0987442"><ele>36.0</ele><time>2026-04-26T07:00:22.057Z</time></trkpt><trkpt lat="45.6785722" lon="12.098524"><ele>36.0</ele><time>2026-04-26T07:00:23.056Z</time></trkpt><trkpt lat="45.6785846" lon="12.0982902"><ele>36.0</ele><time>2026-04-26T07:00:24.04Z</time></trkpt><trkpt lat="45.6785951" lon="12.0980532"><ele>36.0</ele><time>2026-04-26T07:00:25.046Z</time></trkpt><trkpt lat="45.6786089" lon="12.0978141"><ele>36.0</ele><time>2026-04-26T07:00:26.051Z</time></trkpt><trkpt lat="45.6786193" lon="12.0975706"><ele>36.333333333333336</ele><time>2026-04-26T07:00:27.043Z</time></trkpt><trkpt lat="45.6786245" lon="12.0973244"><ele>36.66666666666667</ele><time>2026-04-26T07:00:28.076Z</time></trkpt><trkpt lat="45.6786384" lon="12.0970831"><ele>37.0</ele><time>2026-04-26T07:00:29.039Z</time></trkpt><trkpt lat="45.6786472" lon="12.0968452"><ele>37.0</ele><time>2026-04-26T07:00:30.055Z</time></trkpt><trkpt lat="45.6786608" lon="12.0966129"><ele>37.0</ele><time>2026-04-26T07:00:31.065Z</time></trkpt><trkpt lat="45.6786773" lon="12.0963852"><ele>37.0</ele><time>2026-04-26T07:00:32.05Z</time></trkpt><trkpt lat="45.6786983" lon="12.096162"><ele>37.0</ele><time>2026-04-26T07:00:33.068Z</time></trkpt><trkpt lat="45.6787124" lon="12.0959403"><ele>37.0</ele><time>2026-04-26T07:00:34.048Z</time></trkpt><trkpt lat="45.6787294" lon="12.0957211"><ele>37.0</ele><time>2026-04-26T07:00:35.053Z</time></trkpt><trkpt lat="45.6787477" lon="12.0955007"><ele>37.0</ele><time>2026-04-26T07:00:36.038Z</time></trkpt><trkpt lat="45.6787614" lon="12.0952769"><ele>37.0</ele><time>2026-04-26T07:00:37.044Z</time></trkpt><trkpt lat="45.678777" lon="12.0950479"><ele>37.0</ele><time>2026-04-26T07:00:38.036Z</time></trkpt><trkpt lat="45.6787933" lon="12.094814"><ele>37.333333333333336</ele><time>2026-04-26T07:00:39.038Z</time></trkpt><trkpt lat="45.6788025" lon="12.0945803"><ele>37.666666666666664</ele><time>2026-04-26T07:00:40.046Z</time></trkpt><trkpt lat="45.6788143" lon="12.0943429"><ele>38.0</ele><time>2026-04-26T07:00:41.047Z</time></trkpt><trkpt lat="45.6788249" lon="12.0941053"><ele>38.33333333333333</ele><time>2026-04-26T07:00:42.044Z</time></trkpt><trkpt lat="45.6788309" lon="12.0938729"><ele>38.666666666666664</ele><time>2026-04-26T07:00:43.051Z</time></trkpt><trkpt lat="45.6788312" lon="12.0936469"><ele>39.0</ele><time>2026-04-26T07:00:44.041Z</time></trkpt><trkpt lat="45.6788313" lon="12.0934249"><ele>38.333333333333336</ele><time>2026-04-26T07:00:45.046Z</time></trkpt><trkpt lat="45.6788331" lon="12.0932054"><ele>37.66666666666667</ele><time>2026-04-26T07:00:46.062Z</time></trkpt><trkpt lat="45.6788362" lon="12.0929927"><ele>37.0</ele><time>2026-04-26T07:00:47.042Z</time></trkpt><trkpt lat="45.6788419" lon="12.0927783"><ele>37.0</ele><time>2026-04-26T07:00:48.067Z</time></trkpt><trkpt lat="45.6788499" lon="12.0925635"><ele>37.0</ele><time>2026-04-26T07:00:49.057Z</time></trkpt><trkpt lat="45.6788554" lon="12.0923415"><ele>37.0</ele><time>2026-04-26T07:00:50.055Z</time></trkpt><trkpt lat="45.6788594" lon="12.092119"><ele>37.0</ele><time>2026-04-26T07:00:51.065Z</time></trkpt><trkpt lat="45.6788647" lon="12.091894"><ele>37.0</ele><time>2026-04-26T07:00:52.041Z</time></trkpt><trkpt lat="45.6788707" lon="12.0916632"><ele>37.0</ele><time>2026-04-26T07:00:53.052Z</time></trkpt><trkpt lat="45.6788753" lon="12.0914352"><ele>37.0</ele><time>2026-04-26T07:00:54.048Z</time></trkpt><trkpt lat="45.6788823" lon="12.091213"><ele>37.0</ele><time>2026-04-26T07:00:55.068Z</time></trkpt><trkpt lat="45.6788903" lon="12.0910006"><ele>37.0</ele><time>2026-04-26T07:00:56.048Z</time></trkpt><trkpt lat="45.6788999" lon="12.0907887"><ele>36.5</ele><time>2026-04-26T07:00:57.05Z</time></trkpt><trkpt lat="45.6789074" lon="12.0905848"><ele>36.0</ele><time>2026-04-26T07:00:58.071Z</time></trkpt><trkpt lat="45.6789132" lon="12.0903903"><ele>35.5</ele><time>2026-04-26T07:00:59.063Z</time></trkpt><trkpt lat="45.6789169" lon="12.0902045"><ele>35.0</ele><time>2026-04-26T07:01:00.055Z</time></trkpt><trkpt lat="45.6789193" lon="12.0900292"><ele>35.0</ele><time>2026-04-26T07:01:01.05Z</time></trkpt><trkpt lat="45.678922" lon="12.0898656"><ele>35.0</ele><time>2026-04-26T07:01:02.041Z</time></trkpt><trkpt lat="45.6789278" lon="12.0897069"><ele>35.0</ele><time>2026-04-26T07:01:03.049Z</time></trkpt><trkpt lat="45.6789509" lon="12.0895738"><ele>35.0</ele><time>2026-04-26T07:01:04.046Z</time></trkpt><trkpt lat="45.678994" lon="12.0894511"><ele>35.0</ele><time>2026-04-26T07:01:05.062Z</time></trkpt><trkpt lat="45.6790143" lon="12.0893489"><ele>35.0</ele><time>2026-04-26T07:01:06.064Z</time></trkpt><trkpt lat="45.6790031" lon="12.0891172"><ele>35.0</ele><time>2026-04-26T07:01:08.037Z</time></trkpt><trkpt lat="45.6790022" lon="12.0889713"><ele>35.0</ele><time>2026-04-26T07:01:09.042Z</time></trkpt><trkpt lat="45.6790233" lon="12.0887562"><ele>35.0</ele><time>2026-04-26T07:01:10.059Z</time></trkpt><trkpt lat="45.679045" lon="12.0885256"><ele>35.33333333333333</ele><time>2026-04-26T07:01:11.039Z</time></trkpt><trkpt lat="45.679066" lon="12.0882887"><ele>35.666666666666664</ele><time>2026-04-26T07:01:12.064Z</time></trkpt><trkpt lat="45.6790905" lon="12.0880406"><ele>36.0</ele><time>2026-04-26T07:01:13.038Z</time></trkpt><trkpt lat="45.6791157" lon="12.0877933"><ele>36.0</ele><time>2026-04-26T07:01:14.042Z</time></trkpt><trkpt lat="45.6791402" lon="12.0875284"><ele>36.0</ele><time>2026-04-26T07:01:15.044Z</time></trkpt><trkpt lat="45.6791612" lon="12.0872827"><ele>36.0</ele><time>2026-04-26T07:01:16.048Z</time></trkpt><trkpt lat="45.6791809" lon="12.0870387"><ele>36.0</ele><time>2026-04-26T07:01:17.046Z</time></trkpt><trkpt lat="45.6792006" lon="12.0867875"><ele>36.0</ele><time>2026-04-26T07:01:18.048Z</time></trkpt><trkpt lat="45.6792205" lon="12.0865399"><ele>36.0</ele><time>2026-04-26T07:01:19.064Z</time></trkpt><trkpt lat="45.6792398" lon="12.0862922"><ele>36.0</ele><time>2026-04-26T07:01:20.055Z</time></trkpt><trkpt lat="45.679258" lon="12.0860397"><ele>36.0</ele><time>2026-04-26T07:01:21.049Z</time></trkpt><trkpt lat="45.6792745" lon="12.0857699"><ele>36.0</ele><time>2026-04-26T07:01:22.053Z</time></trkpt><trkpt lat="45.6792923" lon="12.0854735"><ele>36.0</ele><time>2026-04-26T07:01:23.059Z</time></trkpt><trkpt lat="45.6793214" lon="12.0851304"><ele>36.0</ele><time>2026-04-26T07:01:24.078Z</time></trkpt><trkpt lat="45.6793581" lon="12.0847627"><ele>36.0</ele><time>2026-04-26T07:01:25.049Z</time></trkpt><trkpt lat="45.6793952" lon="12.0843882"><ele>36.0</ele><time>2026-04-26T07:01:26.054Z</time></trkpt><trkpt lat="45.6794265" lon="12.0840351"><ele>35.666666666666664</ele><time>2026-04-26T07:01:27.053Z</time></trkpt><trkpt lat="45.6794582" lon="12.0837142"><ele>35.33333333333333</ele><time>2026-04-26T07:01:28.039Z</time></trkpt><trkpt lat="45.6794889" lon="12.0834111"><ele>35.0</ele><time>2026-04-26T07:01:29.045Z</time></trkpt><trkpt lat="45.6795192" lon="12.0831289"><ele>35.0</ele><time>2026-04-26T07:01:30.064Z</time></trkpt><trkpt lat="45.6795493" lon="12.0828708"><ele>35.0</ele><time>2026-04-26T07:01:31.04Z</time></trkpt><trkpt lat="45.6795801" lon="12.0826196"><ele>35.0</ele><time>2026-04-26T07:01:32.056Z</time></trkpt><trkpt lat="45.6796148" lon="12.0823723"><ele>36.0</ele><time>2026-04-26T07:01:33.048Z</time></trkpt><trkpt lat="45.6796501" lon="12.0821243"><ele>37.0</ele><time>2026-04-26T07:01:34.06Z</time></trkpt><trkpt lat="45.679684" lon="12.0818822"><ele>38.0</ele><time>2026-04-26T07:01:35.044Z</time></trkpt><trkpt lat="45.6797218" lon="12.0816349"><ele>38.0</ele><time>2026-04-26T07:01:36.036Z</time></trkpt><trkpt lat="45.6797607" lon="12.0813851"><ele>38.0</ele><time>2026-04-26T07:01:37.047Z</time></trkpt><trkpt lat="45.6798013" lon="12.0811348"><ele>38.0</ele><time>2026-04-26T07:01:38.037Z</time></trkpt><trkpt lat="45.6798444" lon="12.0808708"><ele>37.666666666666664</ele><time>2026-04-26T07:01:39.054Z</time></trkpt><trkpt lat="45.679888" lon="12.0806026"><ele>37.333333333333336</ele><time>2026-04-26T07:01:40.061Z</time></trkpt><trkpt lat="45.6799356" lon="12.0803245"><ele>37.0</ele><time>2026-04-26T07:01:41.057Z</time></trkpt><trkpt lat="45.6799872" lon="12.0800378"><ele>37.333333333333336</ele><time>2026-04-26T07:01:42.048Z</time></trkpt><trkpt lat="45.6800398" lon="12.0797483"><ele>37.666666666666664</ele><time>2026-04-26T07:01:43.049Z</time></trkpt><trkpt lat="45.680089" lon="12.0794673"><ele>38.0</ele><time>2026-04-26T07:01:44.054Z</time></trkpt><trkpt lat="45.6801378" lon="12.0791908"><ele>37.666666666666664</ele><time>2026-04-26T07:01:45.056Z</time></trkpt><trkpt lat="45.6801873" lon="12.0789217"><ele>37.333333333333336</ele><time>2026-04-26T07:01:46.038Z</time></trkpt><trkpt lat="45.6802366" lon="12.0786514"><ele>37.0</ele><time>2026-04-26T07:01:47.036Z</time></trkpt><trkpt lat="45.6802848" lon="12.0783839"><ele>37.66666666666667</ele><time>2026-04-26T07:01:48.057Z</time></trkpt><trkpt lat="45.680331" lon="12.0781224"><ele>38.333333333333336</ele><time>2026-04-26T07:01:49.06Z</time></trkpt><trkpt lat="45.6803761" lon="12.0778649"><ele>39.0</ele><time>2026-04-26T07:01:50.066Z</time></trkpt><trkpt lat="45.6804201" lon="12.077608"><ele>38.333333333333336</ele><time>2026-04-26T07:01:51.063Z</time></trkpt><trkpt lat="45.6804635" lon="12.0773502"><ele>37.66666666666667</ele><time>2026-04-26T07:01:52.063Z</time></trkpt><trkpt lat="45.6805069" lon="12.0770968"><ele>37.0</ele><time>2026-04-26T07:01:53.046Z</time></trkpt><trkpt lat="45.6805497" lon="12.0768353"><ele>36.333333333333336</ele><time>2026-04-26T07:01:54.059Z</time></trkpt><trkpt lat="45.680591" lon="12.0765695"><ele>35.666666666666664</ele><time>2026-04-26T07:01:55.071Z</time></trkpt><trkpt lat="45.6806327" lon="12.0763131"><ele>35.0</ele><time>2026-04-26T07:01:56.046Z</time></trkpt><trkpt lat="45.6806729" lon="12.0760461"><ele>35.0</ele><time>2026-04-26T07:01:57.057Z</time></trkpt><trkpt lat="45.680711" lon="12.0757849"><ele>35.0</ele><time>2026-04-26T07:01:58.051Z</time></trkpt><trkpt lat="45.6807455" lon="12.0755297"><ele>35.0</ele><time>2026-04-26T07:01:59.045Z</time></trkpt><trkpt lat="45.6807777" lon="12.0752721"><ele>35.0</ele><time>2026-04-26T07:02:00.047Z</time></trkpt><trkpt lat="45.6808094" lon="12.0750147"><ele>35.0</ele><time>2026-04-26T07:02:01.044Z</time></trkpt><trkpt lat="45.6808382" lon="12.0747539"><ele>35.0</ele><time>2026-04-26T07:02:02.049Z</time></trkpt><trkpt lat="45.6808676" lon="12.0744912"><ele>35.33333333333333</ele><time>2026-04-26T07:02:03.056Z</time></trkpt><trkpt lat="45.680897" lon="12.0742304"><ele>35.666666666666664</ele><time>2026-04-26T07:02:04.045Z</time></trkpt><trkpt lat="45.6809256" lon="12.0739663"><ele>36.0</ele><time>2026-04-26T07:02:05.066Z</time></trkpt><trkpt lat="45.680952" lon="12.073713"><ele>36.0</ele><time>2026-04-26T07:02:06.057Z</time></trkpt><trkpt lat="45.680974" lon="12.0734585"><ele>36.0</ele><time>2026-04-26T07:02:07.048Z</time></trkpt><trkpt lat="45.6809992" lon="12.0732091"><ele>36.0</ele><time>2026-04-26T07:02:08.048Z</time></trkpt><trkpt lat="45.6810275" lon="12.0729653"><ele>36.333333333333336</ele><time>2026-04-26T07:02:09.052Z</time></trkpt><trkpt lat="45.6810561" lon="12.072722"><ele>36.66666666666667</ele><time>2026-04-26T07:02:10.074Z</time></trkpt><trkpt lat="45.6810827" lon="12.072485"><ele>37.0</ele><time>2026-04-26T07:02:11.063Z</time></trkpt><trkpt lat="45.6811083" lon="12.0722467"><ele>36.333333333333336</ele><time>2026-04-26T07:02:12.067Z</time></trkpt><trkpt lat="45.6811343" lon="12.07202"><ele>35.666666666666664</ele><time>2026-04-26T07:02:13.058Z</time></trkpt><trkpt lat="45.6811627" lon="12.071789"><ele>35.0</ele><time>2026-04-26T07:02:14.055Z</time></trkpt><trkpt lat="45.6811913" lon="12.0715607"><ele>35.0</ele><time>2026-04-26T07:02:15.038Z</time></trkpt><trkpt lat="45.6812208" lon="12.0713312"><ele>35.0</ele><time>2026-04-26T07:02:16.059Z</time></trkpt><trkpt lat="45.6812531" lon="12.0711053"><ele>35.0</ele><time>2026-04-26T07:02:17.044Z</time></trkpt><trkpt lat="45.6812909" lon="12.070885"><ele>35.666666666666664</ele><time>2026-04-26T07:02:18.047Z</time></trkpt><trkpt lat="45.6813324" lon="12.0706656"><ele>36.333333333333336</ele><time>2026-04-26T07:02:19.041Z</time></trkpt><trkpt lat="45.6813754" lon="12.0704474"><ele>37.0</ele><time>2026-04-26T07:02:20.039Z</time></trkpt><trkpt lat="45.68142" lon="12.0702266"><ele>37.0</ele><time>2026-04-26T07:02:21.047Z</time></trkpt><trkpt lat="45.6814646" lon="12.070004"><ele>37.0</ele><time>2026-04-26T07:02:22.062Z</time></trkpt><trkpt lat="45.6815088" lon="12.0697855"><ele>37.0</ele><time>2026-04-26T07:02:23.04Z</time></trkpt><trkpt lat="45.6815549" lon="12.0695593"><ele>37.0</ele><time>2026-04-26T07:02:24.051Z</time></trkpt><trkpt lat="45.6815993" lon="12.0693334"><ele>37.0</ele><time>2026-04-26T07:02:25.044Z</time></trkpt><trkpt lat="45.6816443" lon="12.0691005"><ele>37.0</ele><time>2026-04-26T07:02:26.048Z</time></trkpt><trkpt lat="45.6816909" lon="12.0688611"><ele>37.0</ele><time>2026-04-26T07:02:27.041Z</time></trkpt><trkpt lat="45.681737" lon="12.0686163"><ele>37.0</ele><time>2026-04-26T07:02:28.045Z</time></trkpt><trkpt lat="45.6817832" lon="12.0683695"><ele>37.0</ele><time>2026-04-26T07:02:29.043Z</time></trkpt><trkpt lat="45.6818319" lon="12.0681211"><ele>37.0</ele><time>2026-04-26T07:02:30.039Z</time></trkpt><trkpt lat="45.6818897" lon="12.067877"><ele>37.0</ele><time>2026-04-26T07:02:31.041Z</time></trkpt><trkpt lat="45.6819627" lon="12.0676398"><ele>37.0</ele><time>2026-04-26T07:02:32.049Z</time></trkpt><trkpt lat="45.6820534" lon="12.0674127"><ele>36.66666666666667</ele><time>2026-04-26T07:02:33.048Z</time></trkpt><trkpt lat="45.6821567" lon="12.0671935"><ele>36.333333333333336</ele><time>2026-04-26T07:02:34.043Z</time></trkpt><trkpt lat="45.6822718" lon="12.0669866"><ele>36.0</ele><time>2026-04-26T07:02:35.035Z</time></trkpt><trkpt lat="45.6823966" lon="12.0667828"><ele>35.666666666666664</ele><time>2026-04-26T07:02:36.035Z</time></trkpt><trkpt lat="45.6825222" lon="12.0665806"><ele>35.33333333333333</ele><time>2026-04-26T07:02:37.025Z</time></trkpt><trkpt lat="45.6826552" lon="12.0663782"><ele>35.0</ele><time>2026-04-26T07:02:38.058Z</time></trkpt><trkpt lat="45.6827842" lon="12.0661807"><ele>35.0</ele><time>2026-04-26T07:02:39.034Z</time></trkpt><trkpt lat="45.6829132" lon="12.0659772"><ele>35.0</ele><time>2026-04-26T07:02:40.03Z</time></trkpt><trkpt lat="45.6830416" lon="12.0657757"><ele>35.0</ele><time>2026-04-26T07:02:41.035Z</time></trkpt><trkpt lat="45.6831735" lon="12.065573"><ele>35.666666666666664</ele><time>2026-04-26T07:02:42.053Z</time></trkpt><trkpt lat="45.6833029" lon="12.0653745"><ele>36.333333333333336</ele><time>2026-04-26T07:02:43.037Z</time></trkpt><trkpt lat="45.6834337" lon="12.0651751"><ele>37.0</ele><time>2026-04-26T07:02:44.056Z</time></trkpt><trkpt lat="45.6835604" lon="12.0649782"><ele>37.333333333333336</ele><time>2026-04-26T07:02:45.035Z</time></trkpt><trkpt lat="45.6836842" lon="12.0647726"><ele>37.666666666666664</ele><time>2026-04-26T07:02:46.041Z</time></trkpt><trkpt lat="45.6837995" lon="12.0645625"><ele>38.0</ele><time>2026-04-26T07:02:47.044Z</time></trkpt><trkpt lat="45.6839041" lon="12.0643481"><ele>38.0</ele><time>2026-04-26T07:02:48.037Z</time></trkpt><trkpt lat="45.6839991" lon="12.0641237"><ele>38.0</ele><time>2026-04-26T07:02:49.044Z</time></trkpt><trkpt lat="45.6840833" lon="12.0638918"><ele>38.0</ele><time>2026-04-26T07:02:50.049Z</time></trkpt><trkpt lat="45.6841586" lon="12.0636609"><ele>38.0</ele><time>2026-04-26T07:02:51.044Z</time></trkpt><trkpt lat="45.6842241" lon="12.0634249"><ele>38.0</ele><time>2026-04-26T07:02:52.041Z</time></trkpt><trkpt lat="45.6842799" lon="12.0631865"><ele>38.0</ele><time>2026-04-26T07:02:53.045Z</time></trkpt><trkpt lat="45.6843279" lon="12.0629477"><ele>38.666666666666664</ele><time>2026-04-26T07:02:54.057Z</time></trkpt><trkpt lat="45.6843718" lon="12.0627069"><ele>39.333333333333336</ele><time>2026-04-26T07:02:55.068Z</time></trkpt><trkpt lat="45.6844125" lon="12.0624712"><ele>40.0</ele><time>2026-04-26T07:02:56.045Z</time></trkpt><trkpt lat="45.6844548" lon="12.0622324"><ele>40.333333333333336</ele><time>2026-04-26T07:02:57.043Z</time></trkpt><trkpt lat="45.6844945" lon="12.0619937"><ele>40.666666666666664</ele><time>2026-04-26T07:02:58.041Z</time></trkpt><trkpt lat="45.6845308" lon="12.061753"><ele>41.0</ele><time>2026-04-26T07:02:59.041Z</time></trkpt><trkpt lat="45.6845655" lon="12.0615163"><ele>41.0</ele><time>2026-04-26T07:03:00.032Z</time></trkpt><trkpt lat="45.6845856" lon="12.0612706"><ele>41.0</ele><time>2026-04-26T07:03:01.062Z</time></trkpt><trkpt lat="45.6846071" lon="12.0610308"><ele>41.0</ele><time>2026-04-26T07:03:02.046Z</time></trkpt><trkpt lat="45.6846296" lon="12.0607917"><ele>41.666666666666664</ele><time>2026-04-26T07:03:03.039Z</time></trkpt><trkpt lat="45.6846502" lon="12.0605505"><ele>42.333333333333336</ele><time>2026-04-26T07:03:04.05Z</time></trkpt><trkpt lat="45.6846718" lon="12.0603192"><ele>43.0</ele><time>2026-04-26T07:03:05.045Z</time></trkpt><trkpt lat="45.6846918" lon="12.060087"><ele>42.333333333333336</ele><time>2026-04-26T07:03:06.057Z</time></trkpt><trkpt lat="45.6847119" lon="12.0598589"><ele>41.666666666666664</ele><time>2026-04-26T07:03:07.063Z</time></trkpt><trkpt lat="45.6847329" lon="12.0596371"><ele>41.0</ele><time>2026-04-26T07:03:08.038Z</time></trkpt><trkpt lat="45.6847525" lon="12.0594091"><ele>41.0</ele><time>2026-04-26T07:03:09.054Z</time></trkpt><trkpt lat="45.6847734" lon="12.0591903"><ele>41.0</ele><time>2026-04-26T07:03:10.047Z</time></trkpt><trkpt lat="45.6847965" lon="12.0589711"><ele>41.0</ele><time>2026-04-26T07:03:11.046Z</time></trkpt><trkpt lat="45.6848195" lon="12.058746"><ele>41.33333333333333</ele><time>2026-04-26T07:03:12.071Z</time></trkpt><trkpt lat="45.684845" lon="12.0585213"><ele>41.666666666666664</ele><time>2026-04-26T07:03:13.047Z</time></trkpt><trkpt lat="45.6848686" lon="12.0582878"><ele>42.0</ele><time>2026-04-26T07:03:14.045Z</time></trkpt><trkpt lat="45.6848907" lon="12.0580492"><ele>42.0</ele><time>2026-04-26T07:03:15.037Z</time></trkpt><trkpt lat="45.6849112" lon="12.0578032"><ele>42.0</ele><time>2026-04-26T07:03:16.04Z</time></trkpt><trkpt lat="45.684924" lon="12.0575524"><ele>42.0</ele><time>2026-04-26T07:03:17.05Z</time></trkpt><trkpt lat="45.6849266" lon="12.0572979"><ele>42.0</ele><time>2026-04-26T07:03:18.037Z</time></trkpt><trkpt lat="45.6849227" lon="12.0570241"><ele>42.0</ele><time>2026-04-26T07:03:19.056Z</time></trkpt><trkpt lat="45.6849148" lon="12.0567546"><ele>42.0</ele><time>2026-04-26T07:03:20.043Z</time></trkpt><trkpt lat="45.6848942" lon="12.0564805"><ele>41.0</ele><time>2026-04-26T07:03:21.059Z</time></trkpt><trkpt lat="45.6848789" lon="12.0562091"><ele>40.0</ele><time>2026-04-26T07:03:22.053Z</time></trkpt><trkpt lat="45.6848677" lon="12.0559338"><ele>39.0</ele><time>2026-04-26T07:03:23.041Z</time></trkpt><trkpt lat="45.6848577" lon="12.0556579"><ele>39.0</ele><time>2026-04-26T07:03:24.046Z</time></trkpt><trkpt lat="45.684848" lon="12.0553807"><ele>39.0</ele><time>2026-04-26T07:03:25.064Z</time></trkpt><trkpt lat="45.6848389" lon="12.0551095"><ele>39.0</ele><time>2026-04-26T07:03:26.049Z</time></trkpt><trkpt lat="45.684831" lon="12.0548316"><ele>39.333333333333336</ele><time>2026-04-26T07:03:27.044Z</time></trkpt><trkpt lat="45.6848248" lon="12.0545547"><ele>39.66666666666667</ele><time>2026-04-26T07:03:28.039Z</time></trkpt><trkpt lat="45.6848197" lon="12.0542732"><ele>40.0</ele><time>2026-04-26T07:03:29.053Z</time></trkpt><trkpt lat="45.6848151" lon="12.0539939"><ele>40.66666666666667</ele><time>2026-04-26T07:03:30.051Z</time></trkpt><trkpt lat="45.6848077" lon="12.0537164"><ele>41.333333333333336</ele><time>2026-04-26T07:03:31.055Z</time></trkpt><trkpt lat="45.6848" lon="12.05344"><ele>42.0</ele><time>2026-04-26T07:03:32.042Z</time></trkpt><trkpt lat="45.6847931" lon="12.0531631"><ele>42.0</ele><time>2026-04-26T07:03:33.052Z</time></trkpt><trkpt lat="45.6847882" lon="12.0528894"><ele>42.0</ele><time>2026-04-26T07:03:34.042Z</time></trkpt><trkpt lat="45.6847823" lon="12.0526123"><ele>42.0</ele><time>2026-04-26T07:03:35.044Z</time></trkpt><trkpt lat="45.6847771" lon="12.0523323"><ele>42.333333333333336</ele><time>2026-04-26T07:03:36.048Z</time></trkpt><trkpt lat="45.6847709" lon="12.0520547"><ele>42.66666666666667</ele><time>2026-04-26T07:03:37.043Z</time></trkpt><trkpt lat="45.684765" lon="12.0517658"><ele>43.0</ele><time>2026-04-26T07:03:38.052Z</time></trkpt><trkpt lat="45.6847595" lon="12.0514822"><ele>42.333333333333336</ele><time>2026-04-26T07:03:39.05Z</time></trkpt><trkpt lat="45.6847546" lon="12.0511933"><ele>41.666666666666664</ele><time>2026-04-26T07:03:40.037Z</time></trkpt><trkpt lat="45.6847509" lon="12.0509027"><ele>41.0</ele><time>2026-04-26T07:03:41.04Z</time></trkpt><trkpt lat="45.6847556" lon="12.0506106"><ele>41.0</ele><time>2026-04-26T07:03:42.039Z</time></trkpt><trkpt lat="45.6847733" lon="12.0503118"><ele>41.0</ele><time>2026-04-26T07:03:43.053Z</time></trkpt><trkpt lat="45.6848029" lon="12.0500239"><ele>41.0</ele><time>2026-04-26T07:03:44.055Z</time></trkpt><trkpt lat="45.6848447" lon="12.0497332"><ele>41.0</ele><time>2026-04-26T07:03:45.043Z</time></trkpt><trkpt lat="45.684899" lon="12.0494494"><ele>41.0</ele><time>2026-04-26T07:03:46.048Z</time></trkpt><trkpt lat="45.6849636" lon="12.0491682"><ele>41.0</ele><time>2026-04-26T07:03:47.046Z</time></trkpt><trkpt lat="45.6850361" lon="12.0488973"><ele>40.666666666666664</ele><time>2026-04-26T07:03:48.042Z</time></trkpt><trkpt lat="45.6851055" lon="12.0486316"><ele>40.333333333333336</ele><time>2026-04-26T07:03:49.052Z</time></trkpt><trkpt lat="45.6851707" lon="12.0483706"><ele>40.0</ele><time>2026-04-26T07:03:50.054Z</time></trkpt><trkpt lat="45.6852402" lon="12.0481088"><ele>40.333333333333336</ele><time>2026-04-26T07:03:51.064Z</time></trkpt><trkpt lat="45.6853087" lon="12.0478519"><ele>40.666666666666664</ele><time>2026-04-26T07:03:52.066Z</time></trkpt><trkpt lat="45.685377" lon="12.0475997"><ele>41.0</ele><time>2026-04-26T07:03:53.057Z</time></trkpt><trkpt lat="45.6854476" lon="12.0473423"><ele>41.33333333333333</ele><time>2026-04-26T07:03:54.076Z</time></trkpt><trkpt lat="45.6855167" lon="12.0470916"><ele>41.666666666666664</ele><time>2026-04-26T07:03:55.047Z</time></trkpt><trkpt lat="45.6855867" lon="12.0468353"><ele>42.0</ele><time>2026-04-26T07:03:56.04Z</time></trkpt><trkpt lat="45.6856553" lon="12.0465795"><ele>42.0</ele><time>2026-04-26T07:03:57.053Z</time></trkpt><trkpt lat="45.6857218" lon="12.0463261"><ele>42.0</ele><time>2026-04-26T07:03:58.046Z</time></trkpt><trkpt lat="45.6857887" lon="12.0460708"><ele>42.0</ele><time>2026-04-26T07:03:59.046Z</time></trkpt><trkpt lat="45.6858554" lon="12.0458146"><ele>41.333333333333336</ele><time>2026-04-26T07:04:00.068Z</time></trkpt><trkpt lat="45.685919" lon="12.0455678"><ele>40.66666666666667</ele><time>2026-04-26T07:04:01.038Z</time></trkpt><trkpt lat="45.6859841" lon="12.0453164"><ele>40.0</ele><time>2026-04-26T07:04:02.047Z</time></trkpt><trkpt lat="45.6860476" lon="12.0450694"><ele>40.333333333333336</ele><time>2026-04-26T07:04:03.041Z</time></trkpt><trkpt lat="45.686112" lon="12.044827"><ele>40.666666666666664</ele><time>2026-04-26T07:04:04.047Z</time></trkpt><trkpt lat="45.6861768" lon="12.0445877"><ele>41.0</ele><time>2026-04-26T07:04:05.044Z</time></trkpt><trkpt lat="45.6862406" lon="12.04435"><ele>41.33333333333333</ele><time>2026-04-26T07:04:06.05Z</time></trkpt><trkpt lat="45.6863032" lon="12.0441146"><ele>41.666666666666664</ele><time>2026-04-26T07:04:07.044Z</time></trkpt><trkpt lat="45.6863641" lon="12.0438821"><ele>42.0</ele><time>2026-04-26T07:04:08.041Z</time></trkpt><trkpt lat="45.6864232" lon="12.0436504"><ele>42.0</ele><time>2026-04-26T07:04:09.04Z</time></trkpt><trkpt lat="45.68648" lon="12.0434168"><ele>42.0</ele><time>2026-04-26T07:04:10.061Z</time></trkpt><trkpt lat="45.6865331" lon="12.0431843"><ele>42.0</ele><time>2026-04-26T07:04:11.041Z</time></trkpt><trkpt lat="45.6865837" lon="12.0429473"><ele>42.0</ele><time>2026-04-26T07:04:12.039Z</time></trkpt><trkpt lat="45.6866317" lon="12.042707"><ele>42.0</ele><time>2026-04-26T07:04:13.048Z</time></trkpt><trkpt lat="45.6866763" lon="12.0424624"><ele>42.0</ele><time>2026-04-26T07:04:14.049Z</time></trkpt><trkpt lat="45.6867176" lon="12.0422148"><ele>42.0</ele><time>2026-04-26T07:04:15.035Z</time></trkpt><trkpt lat="45.6867574" lon="12.0419571"><ele>42.0</ele><time>2026-04-26T07:04:16.046Z</time></trkpt><trkpt lat="45.6867962" lon="12.0417"><ele>42.0</ele><time>2026-04-26T07:04:17.04Z</time></trkpt><trkpt lat="45.6868346" lon="12.041444"><ele>42.333333333333336</ele><time>2026-04-26T07:04:18.038Z</time></trkpt><trkpt lat="45.6868748" lon="12.0411877"><ele>42.66666666666667</ele><time>2026-04-26T07:04:19.033Z</time></trkpt><trkpt lat="45.6869139" lon="12.0409344"><ele>43.0</ele><time>2026-04-26T07:04:20.037Z</time></trkpt><trkpt lat="45.6869517" lon="12.0406793"><ele>42.66666666666667</ele><time>2026-04-26T07:04:21.04Z</time></trkpt><trkpt lat="45.6869883" lon="12.0404273"><ele>42.333333333333336</ele><time>2026-04-26T07:04:22.031Z</time></trkpt><trkpt lat="45.6870228" lon="12.0401732"><ele>42.0</ele><time>2026-04-26T07:04:23.04Z</time></trkpt><trkpt lat="45.6870501" lon="12.0399177"><ele>42.0</ele><time>2026-04-26T07:04:24.046Z</time></trkpt><trkpt lat="45.6870618" lon="12.0396601"><ele>42.0</ele><time>2026-04-26T07:04:25.04Z</time></trkpt><trkpt lat="45.6870639" lon="12.0393963"><ele>42.0</ele><time>2026-04-26T07:04:26.055Z</time></trkpt><trkpt lat="45.6870653" lon="12.0391292"><ele>42.0</ele><time>2026-04-26T07:04:27.062Z</time></trkpt><trkpt lat="45.6870615" lon="12.0388628"><ele>42.0</ele><time>2026-04-26T07:04:28.053Z</time></trkpt><trkpt lat="45.6870568" lon="12.0385951"><ele>42.0</ele><time>2026-04-26T07:04:29.045Z</time></trkpt><trkpt lat="45.6870554" lon="12.0383294"><ele>41.666666666666664</ele><time>2026-04-26T07:04:30.04Z</time></trkpt><trkpt lat="45.6870537" lon="12.0380676"><ele>41.33333333333333</ele><time>2026-04-26T07:04:31.039Z</time></trkpt><trkpt lat="45.6870526" lon="12.0378136"><ele>41.0</ele><time>2026-04-26T07:04:32.039Z</time></trkpt><trkpt lat="45.6870503" lon="12.037567"><ele>41.33333333333333</ele><time>2026-04-26T07:04:33.039Z</time></trkpt><trkpt lat="45.6870472" lon="12.0373182"><ele>41.666666666666664</ele><time>2026-04-26T07:04:34.059Z</time></trkpt><trkpt lat="45.6870445" lon="12.0370756"><ele>42.0</ele><time>2026-04-26T07:04:35.047Z</time></trkpt><trkpt lat="45.6870417" lon="12.0368324"><ele>42.333333333333336</ele><time>2026-04-26T07:04:36.042Z</time></trkpt><trkpt lat="45.6870381" lon="12.0365893"><ele>42.66666666666667</ele><time>2026-04-26T07:04:37.044Z</time></trkpt><trkpt lat="45.6870342" lon="12.0363468"><ele>43.0</ele><time>2026-04-26T07:04:38.048Z</time></trkpt><trkpt lat="45.6870311" lon="12.036103"><ele>43.0</ele><time>2026-04-26T07:04:39.043Z</time></trkpt><trkpt lat="45.6870277" lon="12.0358581"><ele>43.0</ele><time>2026-04-26T07:04:40.034Z</time></trkpt><trkpt lat="45.6870252" lon="12.0356064"><ele>43.0</ele><time>2026-04-26T07:04:41.037Z</time></trkpt><trkpt lat="45.6870228" lon="12.0353508"><ele>43.0</ele><time>2026-04-26T07:04:42.049Z</time></trkpt><trkpt lat="45.6870205" lon="12.035098"><ele>43.0</ele><time>2026-04-26T07:04:43.04Z</time></trkpt><trkpt lat="45.6870164" lon="12.0348371"><ele>43.0</ele><time>2026-04-26T07:04:44.049Z</time></trkpt><trkpt lat="45.6870119" lon="12.0345817"><ele>42.66666666666667</ele><time>2026-04-26T07:04:45.039Z</time></trkpt><trkpt lat="45.6870069" lon="12.034321"><ele>42.333333333333336</ele><time>2026-04-26T07:04:46.051Z</time></trkpt><trkpt lat="45.6870037" lon="12.0340629"><ele>42.0</ele><time>2026-04-26T07:04:47.036Z</time></trkpt><trkpt lat="45.687001" lon="12.0338"><ele>41.666666666666664</ele><time>2026-04-26T07:04:48.056Z</time></trkpt><trkpt lat="45.6869989" lon="12.0335402"><ele>41.33333333333333</ele><time>2026-04-26T07:04:49.044Z</time></trkpt><trkpt lat="45.686996" lon="12.0332776"><ele>41.0</ele><time>2026-04-26T07:04:50.047Z</time></trkpt><trkpt lat="45.6869936" lon="12.0330145"><ele>41.0</ele><time>2026-04-26T07:04:51.05Z</time></trkpt><trkpt lat="45.6869892" lon="12.0327527"><ele>41.0</ele><time>2026-04-26T07:04:52.051Z</time></trkpt><trkpt lat="45.6869838" lon="12.0324918"><ele>41.0</ele><time>2026-04-26T07:04:53.041Z</time></trkpt><trkpt lat="45.6869788" lon="12.0322282"><ele>41.0</ele><time>2026-04-26T07:04:54.054Z</time></trkpt><trkpt lat="45.6869763" lon="12.0319656"><ele>41.0</ele><time>2026-04-26T07:04:55.064Z</time></trkpt><trkpt lat="45.6869766" lon="12.0317071"><ele>41.0</ele><time>2026-04-26T07:04:56.05Z</time></trkpt><trkpt lat="45.68698" lon="12.0314445"><ele>41.33333333333333</ele><time>2026-04-26T07:04:57.049Z</time></trkpt><trkpt lat="45.6869842" lon="12.0311804"><ele>41.666666666666664</ele><time>2026-04-26T07:04:58.057Z</time></trkpt><trkpt lat="45.6869846" lon="12.0309221"><ele>42.0</ele><time>2026-04-26T07:04:59.054Z</time></trkpt><trkpt lat="45.6869817" lon="12.0306568"><ele>42.0</ele><time>2026-04-26T07:05:00.049Z</time></trkpt><trkpt lat="45.6869743" lon="12.0303944"><ele>42.0</ele><time>2026-04-26T07:05:01.049Z</time></trkpt><trkpt lat="45.6869696" lon="12.030129"><ele>42.0</ele><time>2026-04-26T07:05:02.059Z</time></trkpt><trkpt lat="45.6869705" lon="12.0298651"><ele>42.0</ele><time>2026-04-26T07:05:03.058Z</time></trkpt><trkpt lat="45.686973" lon="12.0296014"><ele>42.0</ele><time>2026-04-26T07:05:04.05Z</time></trkpt><trkpt lat="45.6869734" lon="12.0293354"><ele>42.0</ele><time>2026-04-26T07:05:05.069Z</time></trkpt><trkpt lat="45.6869721" lon="12.0290699"><ele>42.0</ele><time>2026-04-26T07:05:06.064Z</time></trkpt><trkpt lat="45.6869695" lon="12.0287998"><ele>42.0</ele><time>2026-04-26T07:05:07.053Z</time></trkpt><trkpt lat="45.6869645" lon="12.0285287"><ele>42.0</ele><time>2026-04-26T07:05:08.047Z</time></trkpt><trkpt lat="45.6869599" lon="12.0282582"><ele>42.0</ele><time>2026-04-26T07:05:09.056Z</time></trkpt><trkpt lat="45.6869539" lon="12.0279942"><ele>42.0</ele><time>2026-04-26T07:05:10.052Z</time></trkpt><trkpt lat="45.686946" lon="12.0277299"><ele>42.0</ele><time>2026-04-26T07:05:11.043Z</time></trkpt><trkpt lat="45.6869361" lon="12.0274675"><ele>42.333333333333336</ele><time>2026-04-26T07:05:12.035Z</time></trkpt><trkpt lat="45.6869241" lon="12.0271984"><ele>42.66666666666667</ele><time>2026-04-26T07:05:13.053Z</time></trkpt><trkpt lat="45.6869155" lon="12.0269294"><ele>43.0</ele><time>2026-04-26T07:05:14.045Z</time></trkpt><trkpt lat="45.6869087" lon="12.026659"><ele>42.66666666666667</ele><time>2026-04-26T07:05:15.048Z</time></trkpt><trkpt lat="45.6868995" lon="12.02639"><ele>42.333333333333336</ele><time>2026-04-26T07:05:16.061Z</time></trkpt><trkpt lat="45.6868892" lon="12.026128"><ele>42.0</ele><time>2026-04-26T07:05:17.058Z</time></trkpt><trkpt lat="45.6868756" lon="12.0258672"><ele>42.666666666666664</ele><time>2026-04-26T07:05:18.043Z</time></trkpt><trkpt lat="45.6868595" lon="12.0256079"><ele>43.33333333333333</ele><time>2026-04-26T07:05:19.051Z</time></trkpt><trkpt lat="45.6868438" lon="12.0253508"><ele>44.0</ele><time>2026-04-26T07:05:20.048Z</time></trkpt><trkpt lat="45.686828" lon="12.0250974"><ele>43.666666666666664</ele><time>2026-04-26T07:05:21.045Z</time></trkpt><trkpt lat="45.6868122" lon="12.0248492"><ele>43.333333333333336</ele><time>2026-04-26T07:05:22.047Z</time></trkpt><trkpt lat="45.6867968" lon="12.0246058"><ele>43.0</ele><time>2026-04-26T07:05:23.054Z</time></trkpt><trkpt lat="45.686781" lon="12.0243716"><ele>42.66666666666667</ele><time>2026-04-26T07:05:24.042Z</time></trkpt><trkpt lat="45.6867637" lon="12.0241379"><ele>42.333333333333336</ele><time>2026-04-26T07:05:25.049Z</time></trkpt><trkpt lat="45.6867456" lon="12.0239029"><ele>42.0</ele><time>2026-04-26T07:05:26.057Z</time></trkpt><trkpt lat="45.6867268" lon="12.0236714"><ele>42.0</ele><time>2026-04-26T07:05:27.049Z</time></trkpt><trkpt lat="45.6867073" lon="12.0234379"><ele>42.0</ele><time>2026-04-26T07:05:28.053Z</time></trkpt><trkpt lat="45.6866881" lon="12.0232007"><ele>42.0</ele><time>2026-04-26T07:05:29.052Z</time></trkpt><trkpt lat="45.6866693" lon="12.022959"><ele>42.0</ele><time>2026-04-26T07:05:30.044Z</time></trkpt><trkpt lat="45.6866553" lon="12.0227101"><ele>42.0</ele><time>2026-04-26T07:05:31.058Z</time></trkpt><trkpt lat="45.6866423" lon="12.0224663"><ele>42.0</ele><time>2026-04-26T07:05:32.042Z</time></trkpt><trkpt lat="45.6866284" lon="12.022219"><ele>42.0</ele><time>2026-04-26T07:05:33.047Z</time></trkpt><trkpt lat="45.6866146" lon="12.0219727"><ele>42.0</ele><time>2026-04-26T07:05:34.051Z</time></trkpt><trkpt lat="45.686603" lon="12.0217364"><ele>42.0</ele><time>2026-04-26T07:05:35.065Z</time></trkpt><trkpt lat="45.6865934" lon="12.0215091"><ele>42.0</ele><time>2026-04-26T07:05:36.048Z</time></trkpt><trkpt lat="45.6865789" lon="12.0212905"><ele>42.0</ele><time>2026-04-26T07:05:37.04Z</time></trkpt><trkpt lat="45.6865652" lon="12.0210733"><ele>42.0</ele><time>2026-04-26T07:05:38.047Z</time></trkpt><trkpt lat="45.686552" lon="12.0208673"><ele>42.5</ele><time>2026-04-26T07:05:39.048Z</time></trkpt><trkpt lat="45.686538" lon="12.0206651"><ele>43.0</ele><time>2026-04-26T07:05:40.046Z</time></trkpt><trkpt lat="45.6865233" lon="12.0204671"><ele>43.5</ele><time>2026-04-26T07:05:41.04Z</time></trkpt><trkpt lat="45.686508" lon="12.0202718"><ele>44.0</ele><time>2026-04-26T07:05:42.054Z</time></trkpt><trkpt lat="45.6864929" lon="12.0200813"><ele>44.5</ele><time>2026-04-26T07:05:43.052Z</time></trkpt><trkpt lat="45.6864795" lon="12.019902"><ele>45.0</ele><time>2026-04-26T07:05:44.044Z</time></trkpt><trkpt lat="45.6864685" lon="12.0197292"><ele>45.5</ele><time>2026-04-26T07:05:45.052Z</time></trkpt><trkpt lat="45.6864595" lon="12.0195711"><ele>46.0</ele><time>2026-04-26T07:05:46.053Z</time></trkpt><trkpt lat="45.6864523" lon="12.0194265"><ele>46.0</ele><time>2026-04-26T07:05:47.049Z</time></trkpt><trkpt lat="45.6864525" lon="12.0193184"><ele>46.0</ele><time>2026-04-26T07:05:48.057Z</time></trkpt><trkpt lat="45.6864487" lon="12.019228"><ele>46.0</ele><time>2026-04-26T07:05:49.055Z</time></trkpt><trkpt lat="45.686451" lon="12.0190839"><ele>46.0</ele><time>2026-04-26T07:05:51.052Z</time></trkpt><trkpt lat="45.6864549" lon="12.0189663"><ele>46.0</ele><time>2026-04-26T07:05:53.058Z</time></trkpt><trkpt lat="45.6864665" lon="12.0188436"><ele>46.0</ele><time>2026-04-26T07:05:55.059Z</time></trkpt><trkpt lat="45.6864872" lon="12.0187155"><ele>45.66666666666667</ele><time>2026-04-26T07:05:57.04Z</time></trkpt><trkpt lat="45.6865039" lon="12.0185953"><ele>45.333333333333336</ele><time>2026-04-26T07:05:59.038Z</time></trkpt><trkpt lat="45.6865237" lon="12.0184907"><ele>45.0</ele><time>2026-04-26T07:06:01.047Z</time></trkpt><trkpt lat="45.6865428" lon="12.0183904"><ele>44.666666666666664</ele><time>2026-04-26T07:06:04.04Z</time></trkpt><trkpt lat="45.6865671" lon="12.0182606"><ele>44.33333333333333</ele><time>2026-04-26T07:06:07.036Z</time></trkpt><trkpt lat="45.6865927" lon="12.0181247"><ele>44.0</ele><time>2026-04-26T07:06:09.037Z</time></trkpt><trkpt lat="45.6866092" lon="12.018023"><ele>43.666666666666664</ele><time>2026-04-26T07:06:10.048Z</time></trkpt><trkpt lat="45.6866256" lon="12.0179143"><ele>43.33333333333333</ele><time>2026-04-26T07:06:11.034Z</time></trkpt><trkpt lat="45.6866417" lon="12.0178063"><ele>43.0</ele><time>2026-04-26T07:06:12.042Z</time></trkpt><trkpt lat="45.6866588" lon="12.017696"><ele>42.666666666666664</ele><time>2026-04-26T07:06:13.046Z</time></trkpt><trkpt lat="45.6866779" lon="12.0175855"><ele>42.333333333333336</ele><time>2026-04-26T07:06:14.046Z</time></trkpt><trkpt lat="45.6866964" lon="12.0174658"><ele>42.0</ele><time>2026-04-26T07:06:15.037Z</time></trkpt><trkpt lat="45.6867173" lon="12.0173321"><ele>42.0</ele><time>2026-04-26T07:06:16.064Z</time></trkpt><trkpt lat="45.6867376" lon="12.0171955"><ele>42.0</ele><time>2026-04-26T07:06:17.041Z</time></trkpt><trkpt lat="45.6867598" lon="12.0170566"><ele>42.0</ele><time>2026-04-26T07:06:18.04Z</time></trkpt><trkpt lat="45.6867834" lon="12.0169214"><ele>42.0</ele><time>2026-04-26T07:06:19.043Z</time></trkpt><trkpt lat="45.6868039" lon="12.0167894"><ele>42.0</ele><time>2026-04-26T07:06:20.037Z</time></trkpt><trkpt lat="45.686824" lon="12.0166574"><ele>42.2</ele><time>2026-04-26T07:06:21.036Z</time></trkpt><trkpt lat="45.6868446" lon="12.0165261"><ele>42.400000000000006</ele><time>2026-04-26T07:06:22.039Z</time></trkpt><trkpt lat="45.6868619" lon="12.0163941"><ele>42.599999999999994</ele><time>2026-04-26T07:06:23.037Z</time></trkpt><trkpt lat="45.6868762" lon="12.0162577"><ele>42.8</ele><time>2026-04-26T07:06:24.037Z</time></trkpt><trkpt lat="45.6868888" lon="12.016119"><ele>43.0</ele><time>2026-04-26T07:06:25.031Z</time></trkpt><trkpt lat="45.6869009" lon="12.0159735"><ele>43.2</ele><time>2026-04-26T07:06:26.036Z</time></trkpt><trkpt lat="45.6868964" lon="12.0158183"><ele>43.4</ele><time>2026-04-26T07:06:27.032Z</time></trkpt><trkpt lat="45.6868954" lon="12.0156604"><ele>43.6</ele><time>2026-04-26T07:06:28.039Z</time></trkpt><trkpt lat="45.686897" lon="12.0154978"><ele>43.800000000000004</ele><time>2026-04-26T07:06:29.032Z</time></trkpt><trkpt lat="45.6869012" lon="12.0153309"><ele>44.0</ele><time>2026-04-26T07:06:30.034Z</time></trkpt><trkpt lat="45.6869043" lon="12.0151601"><ele>44.0</ele><time>2026-04-26T07:06:31.039Z</time></trkpt><trkpt lat="45.6869028" lon="12.0149869"><ele>44.0</ele><time>2026-04-26T07:06:32.033Z</time></trkpt><trkpt lat="45.686897" lon="12.0148082"><ele>44.0</ele><time>2026-04-26T07:06:33.032Z</time></trkpt><trkpt lat="45.6868845" lon="12.0146244"><ele>44.0</ele><time>2026-04-26T07:06:34.058Z</time></trkpt><trkpt lat="45.6868668" lon="12.0144435"><ele>44.0</ele><time>2026-04-26T07:06:35.048Z</time></trkpt><trkpt lat="45.6868409" lon="12.0142667"><ele>44.0</ele><time>2026-04-26T07:06:36.036Z</time></trkpt><trkpt lat="45.6868074" lon="12.01409"><ele>44.0</ele><time>2026-04-26T07:06:37.044Z</time></trkpt><trkpt lat="45.6867709" lon="12.0139117"><ele>44.0</ele><time>2026-04-26T07:06:38.031Z</time></trkpt><trkpt lat="45.6867354" lon="12.0137337"><ele>43.75</ele><time>2026-04-26T07:06:39.032Z</time></trkpt><trkpt lat="45.6867018" lon="12.0135584"><ele>43.5</ele><time>2026-04-26T07:06:40.033Z</time></trkpt><trkpt lat="45.6866684" lon="12.0133886"><ele>43.25</ele><time>2026-04-26T07:06:41.042Z</time></trkpt><trkpt lat="45.6866349" lon="12.0132264"><ele>43.0</ele><time>2026-04-26T07:06:42.034Z</time></trkpt><trkpt lat="45.6866013" lon="12.0130627"><ele>43.0</ele><time>2026-04-26T07:06:43.049Z</time></trkpt><trkpt lat="45.6865699" lon="12.0129006"><ele>43.0</ele><time>2026-04-26T07:06:44.045Z</time></trkpt><trkpt lat="45.6865387" lon="12.0127408"><ele>43.0</ele><time>2026-04-26T07:06:45.052Z</time></trkpt><trkpt lat="45.6865051" lon="12.0125781"><ele>43.0</ele><time>2026-04-26T07:06:46.031Z</time></trkpt><trkpt lat="45.6864703" lon="12.0124115"><ele>43.0</ele><time>2026-04-26T07:06:47.043Z</time></trkpt><trkpt lat="45.6864332" lon="12.0122455"><ele>43.0</ele><time>2026-04-26T07:06:48.036Z</time></trkpt><trkpt lat="45.686393" lon="12.0120761"><ele>43.0</ele><time>2026-04-26T07:06:49.052Z</time></trkpt><trkpt lat="45.6863505" lon="12.0119149"><ele>43.0</ele><time>2026-04-26T07:06:50.046Z</time></trkpt><trkpt lat="45.6863044" lon="12.0117528"><ele>42.75</ele><time>2026-04-26T07:06:51.046Z</time></trkpt><trkpt lat="45.686254" lon="12.0115878"><ele>42.5</ele><time>2026-04-26T07:06:52.043Z</time></trkpt><trkpt lat="45.6862022" lon="12.0114211"><ele>42.25</ele><time>2026-04-26T07:06:53.044Z</time></trkpt><trkpt lat="45.6861477" lon="12.0112522"><ele>42.0</ele><time>2026-04-26T07:06:54.049Z</time></trkpt><trkpt lat="45.686094" lon="12.0110833"><ele>42.0</ele><time>2026-04-26T07:06:55.051Z</time></trkpt><trkpt lat="45.6860379" lon="12.0109208"><ele>42.0</ele><time>2026-04-26T07:06:56.038Z</time></trkpt><trkpt lat="45.6859786" lon="12.0107565"><ele>42.0</ele><time>2026-04-26T07:06:57.038Z</time></trkpt><trkpt lat="45.6859238" lon="12.0105953"><ele>42.0</ele><time>2026-04-26T07:06:58.036Z</time></trkpt><trkpt lat="45.6858722" lon="12.0104364"><ele>42.0</ele><time>2026-04-26T07:06:59.039Z</time></trkpt><trkpt lat="45.6858199" lon="12.0102722"><ele>42.0</ele><time>2026-04-26T07:07:00.047Z</time></trkpt><trkpt lat="45.6857646" lon="12.0101047"><ele>42.0</ele><time>2026-04-26T07:07:01.048Z</time></trkpt><trkpt lat="45.6857159" lon="12.0099245"><ele>42.0</ele><time>2026-04-26T07:07:02.057Z</time></trkpt><trkpt lat="45.6856598" lon="12.009744"><ele>42.0</ele><time>2026-04-26T07:07:03.057Z</time></trkpt><trkpt lat="45.6855993" lon="12.0095598"><ele>42.0</ele><time>2026-04-26T07:07:04.044Z</time></trkpt><trkpt lat="45.685536" lon="12.0093695"><ele>42.0</ele><time>2026-04-26T07:07:05.052Z</time></trkpt><trkpt lat="45.6854708" lon="12.0091708"><ele>42.0</ele><time>2026-04-26T07:07:06.067Z</time></trkpt><trkpt lat="45.6854045" lon="12.0089662"><ele>42.0</ele><time>2026-04-26T07:07:07.067Z</time></trkpt><trkpt lat="45.685339" lon="12.0087615"><ele>42.0</ele><time>2026-04-26T07:07:08.068Z</time></trkpt><trkpt lat="45.6852729" lon="12.0085624"><ele>42.0</ele><time>2026-04-26T07:07:09.047Z</time></trkpt><trkpt lat="45.6852017" lon="12.0083655"><ele>41.75</ele><time>2026-04-26T07:07:10.065Z</time></trkpt><trkpt lat="45.685137" lon="12.008175"><ele>41.5</ele><time>2026-04-26T07:07:11.063Z</time></trkpt><trkpt lat="45.6850816" lon="12.0079848"><ele>41.25</ele><time>2026-04-26T07:07:12.058Z</time></trkpt><trkpt lat="45.6850364" lon="12.0077933"><ele>41.0</ele><time>2026-04-26T07:07:13.068Z</time></trkpt><trkpt lat="45.6850063" lon="12.0076057"><ele>41.0</ele><time>2026-04-26T07:07:14.052Z</time></trkpt><trkpt lat="45.684985" lon="12.0074074"><ele>41.0</ele><time>2026-04-26T07:07:15.058Z</time></trkpt><trkpt lat="45.6849726" lon="12.0071963"><ele>41.0</ele><time>2026-04-26T07:07:16.047Z</time></trkpt><trkpt lat="45.6849678" lon="12.0069664"><ele>41.0</ele><time>2026-04-26T07:07:17.048Z</time></trkpt><trkpt lat="45.6849612" lon="12.0067245"><ele>40.666666666666664</ele><time>2026-04-26T07:07:18.069Z</time></trkpt><trkpt lat="45.6849543" lon="12.0064781"><ele>40.333333333333336</ele><time>2026-04-26T07:07:19.038Z</time></trkpt><trkpt lat="45.6849482" lon="12.0062125"><ele>40.0</ele><time>2026-04-26T07:07:20.058Z</time></trkpt><trkpt lat="45.6849445" lon="12.005947"><ele>40.0</ele><time>2026-04-26T07:07:21.063Z</time></trkpt><trkpt lat="45.6849432" lon="12.0056795"><ele>40.0</ele><time>2026-04-26T07:07:22.041Z</time></trkpt><trkpt lat="45.6849457" lon="12.0054041"><ele>40.0</ele><time>2026-04-26T07:07:23.039Z</time></trkpt><trkpt lat="45.6849503" lon="12.0051237"><ele>40.0</ele><time>2026-04-26T07:07:24.045Z</time></trkpt><trkpt lat="45.6849547" lon="12.004838"><ele>40.0</ele><time>2026-04-26T07:07:25.074Z</time></trkpt><trkpt lat="45.6849558" lon="12.0045675"><ele>40.0</ele><time>2026-04-26T07:07:26.038Z</time></trkpt><trkpt lat="45.684957" lon="12.0042911"><ele>40.333333333333336</ele><time>2026-04-26T07:07:27.052Z</time></trkpt><trkpt lat="45.6849594" lon="12.0040229"><ele>40.666666666666664</ele><time>2026-04-26T07:07:28.063Z</time></trkpt><trkpt lat="45.6849621" lon="12.003768"><ele>41.0</ele><time>2026-04-26T07:07:29.045Z</time></trkpt><trkpt lat="45.6849629" lon="12.0035156"><ele>40.666666666666664</ele><time>2026-04-26T07:07:30.053Z</time></trkpt><trkpt lat="45.6849633" lon="12.0032728"><ele>40.333333333333336</ele><time>2026-04-26T07:07:31.046Z</time></trkpt><trkpt lat="45.6849624" lon="12.0030336"><ele>40.0</ele><time>2026-04-26T07:07:32.045Z</time></trkpt><trkpt lat="45.6849589" lon="12.0027963"><ele>40.0</ele><time>2026-04-26T07:07:33.041Z</time></trkpt><trkpt lat="45.6849547" lon="12.0025482"><ele>40.0</ele><time>2026-04-26T07:07:34.047Z</time></trkpt><trkpt lat="45.6849537" lon="12.0022887"><ele>40.0</ele><time>2026-04-26T07:07:35.052Z</time></trkpt><trkpt lat="45.6849568" lon="12.0020234"><ele>40.333333333333336</ele><time>2026-04-26T07:07:36.058Z</time></trkpt><trkpt lat="45.6849633" lon="12.0017503"><ele>40.666666666666664</ele><time>2026-04-26T07:07:37.043Z</time></trkpt><trkpt lat="45.6849692" lon="12.0014655"><ele>41.0</ele><time>2026-04-26T07:07:38.047Z</time></trkpt><trkpt lat="45.6849754" lon="12.0011736"><ele>41.0</ele><time>2026-04-26T07:07:39.054Z</time></trkpt><trkpt lat="45.6849845" lon="12.0008685"><ele>41.0</ele><time>2026-04-26T07:07:40.056Z</time></trkpt><trkpt lat="45.6849913" lon="12.0005612"><ele>41.0</ele><time>2026-04-26T07:07:41.044Z</time></trkpt><trkpt lat="45.6849928" lon="12.0002417"><ele>40.5</ele><time>2026-04-26T07:07:42.048Z</time></trkpt><trkpt lat="45.6849945" lon="11.9999163"><ele>40.0</ele><time>2026-04-26T07:07:43.056Z</time></trkpt><trkpt lat="45.6849989" lon="11.9995889"><ele>40.0</ele><time>2026-04-26T07:07:44.046Z</time></trkpt><trkpt lat="45.6850038" lon="11.9992485"><ele>40.0</ele><time>2026-04-26T07:07:45.047Z</time></trkpt><trkpt lat="45.6850052" lon="11.9989067"><ele>40.5</ele><time>2026-04-26T07:07:46.047Z</time></trkpt><trkpt lat="45.6850059" lon="11.9985638"><ele>41.0</ele><time>2026-04-26T07:07:47.041Z</time></trkpt><trkpt lat="45.6850035" lon="11.9982265"><ele>41.5</ele><time>2026-04-26T07:07:48.038Z</time></trkpt><trkpt lat="45.685001" lon="11.997892"><ele>42.0</ele><time>2026-04-26T07:07:49.045Z</time></trkpt><trkpt lat="45.6849999" lon="11.9975628"><ele>42.0</ele><time>2026-04-26T07:07:50.046Z</time></trkpt><trkpt lat="45.6849969" lon="11.9972393"><ele>42.0</ele><time>2026-04-26T07:07:51.047Z</time></trkpt><trkpt lat="45.6849934" lon="11.9969241"><ele>42.0</ele><time>2026-04-26T07:07:52.051Z</time></trkpt><trkpt lat="45.6849924" lon="11.9966186"><ele>42.0</ele><time>2026-04-26T07:07:53.04Z</time></trkpt><trkpt lat="45.6849965" lon="11.9963134"><ele>42.0</ele><time>2026-04-26T07:07:54.072Z</time></trkpt><trkpt lat="45.6849985" lon="11.9960235"><ele>42.0</ele><time>2026-04-26T07:07:55.036Z</time></trkpt><trkpt lat="45.6850001" lon="11.9957343"><ele>41.666666666666664</ele><time>2026-04-26T07:07:56.045Z</time></trkpt><trkpt lat="45.6850023" lon="11.9954461"><ele>41.33333333333333</ele><time>2026-04-26T07:07:57.051Z</time></trkpt><trkpt lat="45.6850037" lon="11.995163"><ele>41.0</ele><time>2026-04-26T07:07:58.048Z</time></trkpt><trkpt lat="45.6850037" lon="11.994878"><ele>41.0</ele><time>2026-04-26T07:07:59.044Z</time></trkpt><trkpt lat="45.6850015" lon="11.9945926"><ele>41.0</ele><time>2026-04-26T07:08:00.075Z</time></trkpt><trkpt lat="45.6849991" lon="11.9943208"><ele>41.0</ele><time>2026-04-26T07:08:01.051Z</time></trkpt><trkpt lat="45.6849977" lon="11.9940428"><ele>41.0</ele><time>2026-04-26T07:08:02.058Z</time></trkpt><trkpt lat="45.6849966" lon="11.993765"><ele>41.0</ele><time>2026-04-26T07:08:03.057Z</time></trkpt><trkpt lat="45.6849954" lon="11.993484"><ele>41.0</ele><time>2026-04-26T07:08:04.058Z</time></trkpt><trkpt lat="45.6849914" lon="11.9932023"><ele>41.0</ele><time>2026-04-26T07:08:05.051Z</time></trkpt><trkpt lat="45.6849842" lon="11.9929173"><ele>41.0</ele><time>2026-04-26T07:08:06.042Z</time></trkpt><trkpt lat="45.6849778" lon="11.9926311"><ele>41.0</ele><time>2026-04-26T07:08:07.046Z</time></trkpt><trkpt lat="45.684974" lon="11.9923451"><ele>40.666666666666664</ele><time>2026-04-26T07:08:08.048Z</time></trkpt><trkpt lat="45.6849706" lon="11.9920543"><ele>40.333333333333336</ele><time>2026-04-26T07:08:09.064Z</time></trkpt><trkpt lat="45.6849674" lon="11.9917672"><ele>40.0</ele><time>2026-04-26T07:08:10.042Z</time></trkpt><trkpt lat="45.6849626" lon="11.9914701"><ele>40.0</ele><time>2026-04-26T07:08:11.065Z</time></trkpt><trkpt lat="45.6849582" lon="11.9911754"><ele>40.0</ele><time>2026-04-26T07:08:12.064Z</time></trkpt><trkpt lat="45.6849554" lon="11.9908739"><ele>40.0</ele><time>2026-04-26T07:08:13.039Z</time></trkpt><trkpt lat="45.6849502" lon="11.990574"><ele>40.333333333333336</ele><time>2026-04-26T07:08:14.042Z</time></trkpt><trkpt lat="45.6849447" lon="11.9902771"><ele>40.666666666666664</ele><time>2026-04-26T07:08:15.039Z</time></trkpt><trkpt lat="45.6849397" lon="11.9899828"><ele>41.0</ele><time>2026-04-26T07:08:16.049Z</time></trkpt><trkpt lat="45.684934" lon="11.9896916"><ele>41.33333333333333</ele><time>2026-04-26T07:08:17.039Z</time></trkpt><trkpt lat="45.6849272" lon="11.9894054"><ele>41.666666666666664</ele><time>2026-04-26T07:08:18.042Z</time></trkpt><trkpt lat="45.6849195" lon="11.9891226"><ele>42.0</ele><time>2026-04-26T07:08:19.042Z</time></trkpt><trkpt lat="45.6849097" lon="11.9888426"><ele>41.333333333333336</ele><time>2026-04-26T07:08:20.038Z</time></trkpt><trkpt lat="45.6849019" lon="11.9885665"><ele>40.66666666666667</ele><time>2026-04-26T07:08:21.059Z</time></trkpt><trkpt lat="45.6848962" lon="11.9882941"><ele>40.0</ele><time>2026-04-26T07:08:22.037Z</time></trkpt><trkpt lat="45.6848877" lon="11.9880196"><ele>39.66666666666667</ele><time>2026-04-26T07:08:23.067Z</time></trkpt><trkpt lat="45.6848783" lon="11.9877514"><ele>39.333333333333336</ele><time>2026-04-26T07:08:24.044Z</time></trkpt><trkpt lat="45.6848693" lon="11.9874805"><ele>39.0</ele><time>2026-04-26T07:08:25.049Z</time></trkpt><trkpt lat="45.6848598" lon="11.987212"><ele>39.666666666666664</ele><time>2026-04-26T07:08:26.063Z</time></trkpt><trkpt lat="45.6848507" lon="11.9869426"><ele>40.33333333333333</ele><time>2026-04-26T07:08:27.061Z</time></trkpt><trkpt lat="45.6848405" lon="11.9866709"><ele>41.0</ele><time>2026-04-26T07:08:28.071Z</time></trkpt><trkpt lat="45.6848308" lon="11.9863987"><ele>41.33333333333333</ele><time>2026-04-26T07:08:29.042Z</time></trkpt><trkpt lat="45.684822" lon="11.9861206"><ele>41.666666666666664</ele><time>2026-04-26T07:08:30.05Z</time></trkpt><trkpt lat="45.6848143" lon="11.985841"><ele>42.0</ele><time>2026-04-26T07:08:31.057Z</time></trkpt><trkpt lat="45.6848072" lon="11.9855605"><ele>42.0</ele><time>2026-04-26T07:08:32.054Z</time></trkpt><trkpt lat="45.6848003" lon="11.9852732"><ele>42.0</ele><time>2026-04-26T07:08:33.069Z</time></trkpt><trkpt lat="45.6847945" lon="11.98499"><ele>42.0</ele><time>2026-04-26T07:08:34.049Z</time></trkpt><trkpt lat="45.6847879" lon="11.9846978"><ele>41.333333333333336</ele><time>2026-04-26T07:08:35.045Z</time></trkpt><trkpt lat="45.6847814" lon="11.9844059"><ele>40.66666666666667</ele><time>2026-04-26T07:08:36.042Z</time></trkpt><trkpt lat="45.6847754" lon="11.9841135"><ele>40.0</ele><time>2026-04-26T07:08:37.054Z</time></trkpt><trkpt lat="45.6847685" lon="11.9838248"><ele>39.66666666666667</ele><time>2026-04-26T07:08:38.067Z</time></trkpt><trkpt lat="45.6847624" lon="11.9835433"><ele>39.333333333333336</ele><time>2026-04-26T07:08:39.046Z</time></trkpt><trkpt lat="45.6847549" lon="11.9832616"><ele>39.0</ele><time>2026-04-26T07:08:40.04Z</time></trkpt><trkpt lat="45.6847469" lon="11.9829849"><ele>39.0</ele><time>2026-04-26T07:08:41.051Z</time></trkpt><trkpt lat="45.6847444" lon="11.9827093"><ele>39.0</ele><time>2026-04-26T07:08:42.048Z</time></trkpt><trkpt lat="45.6847397" lon="11.9824405"><ele>39.0</ele><time>2026-04-26T07:08:43.053Z</time></trkpt><trkpt lat="45.6847345" lon="11.9821705"><ele>39.0</ele><time>2026-04-26T07:08:44.049Z</time></trkpt><trkpt lat="45.6847323" lon="11.9818985"><ele>39.0</ele><time>2026-04-26T07:08:45.063Z</time></trkpt><trkpt lat="45.6847251" lon="11.9816312"><ele>39.0</ele><time>2026-04-26T07:08:46.043Z</time></trkpt><trkpt lat="45.6847142" lon="11.981355"><ele>39.0</ele><time>2026-04-26T07:08:47.058Z</time></trkpt><trkpt lat="45.6847036" lon="11.981081"><ele>39.0</ele><time>2026-04-26T07:08:48.041Z</time></trkpt><trkpt lat="45.6846942" lon="11.9808054"><ele>39.0</ele><time>2026-04-26T07:08:49.039Z</time></trkpt><trkpt lat="45.684686" lon="11.9805338"><ele>39.0</ele><time>2026-04-26T07:08:50.031Z</time></trkpt><trkpt lat="45.6846783" lon="11.9802565"><ele>39.0</ele><time>2026-04-26T07:08:51.048Z</time></trkpt><trkpt lat="45.6846707" lon="11.979981"><ele>39.0</ele><time>2026-04-26T07:08:52.069Z</time></trkpt><trkpt lat="45.6846634" lon="11.9797137"><ele>39.333333333333336</ele><time>2026-04-26T07:08:53.044Z</time></trkpt><trkpt lat="45.6846559" lon="11.9794373"><ele>39.66666666666667</ele><time>2026-04-26T07:08:54.068Z</time></trkpt><trkpt lat="45.684648" lon="11.9791727"><ele>40.0</ele><time>2026-04-26T07:08:55.041Z</time></trkpt><trkpt lat="45.6846398" lon="11.9788935"><ele>40.0</ele><time>2026-04-26T07:08:56.066Z</time></trkpt><trkpt lat="45.6846345" lon="11.9786233"><ele>40.0</ele><time>2026-04-26T07:08:57.06Z</time></trkpt><trkpt lat="45.6846302" lon="11.9783452"><ele>40.0</ele><time>2026-04-26T07:08:58.051Z</time></trkpt><trkpt lat="45.6846246" lon="11.9780683"><ele>40.333333333333336</ele><time>2026-04-26T07:08:59.051Z</time></trkpt><trkpt lat="45.6846166" lon="11.9777848"><ele>40.666666666666664</ele><time>2026-04-26T07:09:00.043Z</time></trkpt><trkpt lat="45.6846078" lon="11.9775017"><ele>41.0</ele><time>2026-04-26T07:09:01.041Z</time></trkpt><trkpt lat="45.6845987" lon="11.9772101"><ele>41.33333333333333</ele><time>2026-04-26T07:09:02.055Z</time></trkpt><trkpt lat="45.6845882" lon="11.9769191"><ele>41.666666666666664</ele><time>2026-04-26T07:09:03.062Z</time></trkpt><trkpt lat="45.6845771" lon="11.9766275"><ele>42.0</ele><time>2026-04-26T07:09:04.032Z</time></trkpt><trkpt lat="45.6845641" lon="11.9763266"><ele>42.0</ele><time>2026-04-26T07:09:05.046Z</time></trkpt><trkpt lat="45.6845633" lon="11.9760312"><ele>42.0</ele><time>2026-04-26T07:09:06.05Z</time></trkpt><trkpt lat="45.6845639" lon="11.9757308"><ele>42.0</ele><time>2026-04-26T07:09:07.044Z</time></trkpt><trkpt lat="45.6845675" lon="11.9754268"><ele>41.666666666666664</ele><time>2026-04-26T07:09:08.06Z</time></trkpt><trkpt lat="45.6845598" lon="11.9751186"><ele>41.33333333333333</ele><time>2026-04-26T07:09:09.035Z</time></trkpt><trkpt lat="45.684551" lon="11.9748127"><ele>41.0</ele><time>2026-04-26T07:09:10.037Z</time></trkpt><trkpt lat="45.6845398" lon="11.9745056"><ele>41.0</ele><time>2026-04-26T07:09:11.044Z</time></trkpt><trkpt lat="45.6845282" lon="11.9742036"><ele>41.0</ele><time>2026-04-26T07:09:12.039Z</time></trkpt><trkpt lat="45.6845167" lon="11.9739072"><ele>41.0</ele><time>2026-04-26T07:09:13.05Z</time></trkpt><trkpt lat="45.6845051" lon="11.9736223"><ele>41.0</ele><time>2026-04-26T07:09:14.042Z</time></trkpt><trkpt lat="45.6844948" lon="11.9733376"><ele>41.0</ele><time>2026-04-26T07:09:15.04Z</time></trkpt><trkpt lat="45.6844861" lon="11.9730584"><ele>41.0</ele><time>2026-04-26T07:09:16.054Z</time></trkpt><trkpt lat="45.6844777" lon="11.9727875"><ele>41.33333333333333</ele><time>2026-04-26T07:09:17.04Z</time></trkpt><trkpt lat="45.6844716" lon="11.9725162"><ele>41.666666666666664</ele><time>2026-04-26T07:09:18.045Z</time></trkpt><trkpt lat="45.6844687" lon="11.9722465"><ele>42.0</ele><time>2026-04-26T07:09:19.036Z</time></trkpt><trkpt lat="45.6844689" lon="11.9719678"><ele>42.333333333333336</ele><time>2026-04-26T07:09:20.057Z</time></trkpt><trkpt lat="45.6844732" lon="11.9716809"><ele>42.66666666666667</ele><time>2026-04-26T07:09:21.041Z</time></trkpt><trkpt lat="45.6844839" lon="11.97139"><ele>43.0</ele><time>2026-04-26T07:09:22.045Z</time></trkpt><trkpt lat="45.684502" lon="11.9710994"><ele>42.66666666666667</ele><time>2026-04-26T07:09:23.07Z</time></trkpt><trkpt lat="45.6845231" lon="11.9708151"><ele>42.333333333333336</ele><time>2026-04-26T07:09:24.051Z</time></trkpt><trkpt lat="45.6845481" lon="11.9705223"><ele>42.0</ele><time>2026-04-26T07:09:25.046Z</time></trkpt><trkpt lat="45.6845956" lon="11.9702375"><ele>41.333333333333336</ele><time>2026-04-26T07:09:26.043Z</time></trkpt><trkpt lat="45.6846271" lon="11.9699543"><ele>40.66666666666667</ele><time>2026-04-26T07:09:27.04Z</time></trkpt><trkpt lat="45.6846558" lon="11.9696767"><ele>40.0</ele><time>2026-04-26T07:09:28.043Z</time></trkpt><trkpt lat="45.6846819" lon="11.9693978"><ele>40.0</ele><time>2026-04-26T07:09:29.04Z</time></trkpt><trkpt lat="45.6847079" lon="11.969123"><ele>40.0</ele><time>2026-04-26T07:09:30.051Z</time></trkpt><trkpt lat="45.6847345" lon="11.9688477"><ele>40.0</ele><time>2026-04-26T07:09:31.05Z</time></trkpt><trkpt lat="45.6847597" lon="11.9685755"><ele>41.0</ele><time>2026-04-26T07:09:32.063Z</time></trkpt><trkpt lat="45.6847831" lon="11.9683081"><ele>42.0</ele><time>2026-04-26T07:09:33.046Z</time></trkpt><trkpt lat="45.6848055" lon="11.9680441"><ele>43.0</ele><time>2026-04-26T07:09:34.041Z</time></trkpt><trkpt lat="45.6848266" lon="11.9677823"><ele>43.333333333333336</ele><time>2026-04-26T07:09:35.047Z</time></trkpt><trkpt lat="45.6848469" lon="11.967523"><ele>43.666666666666664</ele><time>2026-04-26T07:09:36.05Z</time></trkpt><trkpt lat="45.6848679" lon="11.9672617"><ele>44.0</ele><time>2026-04-26T07:09:37.04Z</time></trkpt><trkpt lat="45.6848928" lon="11.966995"><ele>44.0</ele><time>2026-04-26T07:09:38.057Z</time></trkpt><trkpt lat="45.6849173" lon="11.9667273"><ele>44.0</ele><time>2026-04-26T07:09:39.053Z</time></trkpt><trkpt lat="45.6849417" lon="11.9664544"><ele>44.0</ele><time>2026-04-26T07:09:40.051Z</time></trkpt><trkpt lat="45.6849673" lon="11.9661788"><ele>43.33333333333333</ele><time>2026-04-26T07:09:41.043Z</time></trkpt><trkpt lat="45.6849922" lon="11.965898"><ele>42.666666666666664</ele><time>2026-04-26T07:09:42.037Z</time></trkpt><trkpt lat="45.6850195" lon="11.9656121"><ele>42.0</ele><time>2026-04-26T07:09:43.038Z</time></trkpt><trkpt lat="45.6850459" lon="11.9653246"><ele>42.0</ele><time>2026-04-26T07:09:44.042Z</time></trkpt><trkpt lat="45.6850701" lon="11.9650306"><ele>42.0</ele><time>2026-04-26T07:09:45.063Z</time></trkpt><trkpt lat="45.6850943" lon="11.96474"><ele>42.0</ele><time>2026-04-26T07:09:46.047Z</time></trkpt><trkpt lat="45.6851177" lon="11.9644417"><ele>42.0</ele><time>2026-04-26T07:09:47.049Z</time></trkpt><trkpt lat="45.6851399" lon="11.9641452"><ele>42.0</ele><time>2026-04-26T07:09:48.04Z</time></trkpt><trkpt lat="45.685163" lon="11.9638476"><ele>42.0</ele><time>2026-04-26T07:09:49.039Z</time></trkpt><trkpt lat="45.6851857" lon="11.9635506"><ele>41.666666666666664</ele><time>2026-04-26T07:09:50.043Z</time></trkpt><trkpt lat="45.6852089" lon="11.9632546"><ele>41.33333333333333</ele><time>2026-04-26T07:09:51.047Z</time></trkpt><trkpt lat="45.6852339" lon="11.9629583"><ele>41.0</ele><time>2026-04-26T07:09:52.04Z</time></trkpt><trkpt lat="45.6852586" lon="11.9626638"><ele>41.33333333333333</ele><time>2026-04-26T07:09:53.056Z</time></trkpt><trkpt lat="45.6852817" lon="11.9623798"><ele>41.666666666666664</ele><time>2026-04-26T07:09:54.033Z</time></trkpt><trkpt lat="45.6853049" lon="11.962103"><ele>42.0</ele><time>2026-04-26T07:09:55.045Z</time></trkpt><trkpt lat="45.6853267" lon="11.9618339"><ele>42.0</ele><time>2026-04-26T07:09:56.043Z</time></trkpt><trkpt lat="45.6853466" lon="11.9615672"><ele>42.0</ele><time>2026-04-26T07:09:57.035Z</time></trkpt><trkpt lat="45.685366" lon="11.9613037"><ele>42.0</ele><time>2026-04-26T07:09:58.044Z</time></trkpt><trkpt lat="45.6853905" lon="11.9610474"><ele>42.0</ele><time>2026-04-26T07:09:59.053Z</time></trkpt><trkpt lat="45.6854166" lon="11.9607929"><ele>42.0</ele><time>2026-04-26T07:10:00.054Z</time></trkpt><trkpt lat="45.6854413" lon="11.9605443"><ele>42.0</ele><time>2026-04-26T07:10:01.033Z</time></trkpt><trkpt lat="45.6854675" lon="11.9602926"><ele>42.0</ele><time>2026-04-26T07:10:02.047Z</time></trkpt><trkpt lat="45.6854922" lon="11.9600448"><ele>42.0</ele><time>2026-04-26T07:10:03.042Z</time></trkpt><trkpt lat="45.6855145" lon="11.9597996"><ele>42.0</ele><time>2026-04-26T07:10:04.036Z</time></trkpt><trkpt lat="45.6855365" lon="11.9595507"><ele>42.0</ele><time>2026-04-26T07:10:05.071Z</time></trkpt><trkpt lat="45.6855558" lon="11.9593068"><ele>42.0</ele><time>2026-04-26T07:10:06.046Z</time></trkpt><trkpt lat="45.6855757" lon="11.9590558"><ele>42.0</ele><time>2026-04-26T07:10:07.044Z</time></trkpt><trkpt lat="45.6855956" lon="11.9588041"><ele>42.0</ele><time>2026-04-26T07:10:08.05Z</time></trkpt><trkpt lat="45.6856143" lon="11.958561"><ele>42.0</ele><time>2026-04-26T07:10:09.033Z</time></trkpt><trkpt lat="45.6856302" lon="11.9583202"><ele>42.0</ele><time>2026-04-26T07:10:10.032Z</time></trkpt><trkpt lat="45.6856426" lon="11.9580874"><ele>42.0</ele><time>2026-04-26T07:10:11.041Z</time></trkpt><trkpt lat="45.6856524" lon="11.9578666"><ele>42.0</ele><time>2026-04-26T07:10:12.043Z</time></trkpt><trkpt lat="45.6856608" lon="11.9576605"><ele>42.0</ele><time>2026-04-26T07:10:13.042Z</time></trkpt><trkpt lat="45.6856713" lon="11.9574709"><ele>42.0</ele><time>2026-04-26T07:10:14.05Z</time></trkpt><trkpt lat="45.6856804" lon="11.9572951"><ele>42.0</ele><time>2026-04-26T07:10:15.046Z</time></trkpt><trkpt lat="45.6856892" lon="11.9571288"><ele>42.0</ele><time>2026-04-26T07:10:16.043Z</time></trkpt><trkpt lat="45.6856957" lon="11.9569699"><ele>42.0</ele><time>2026-04-26T07:10:17.035Z</time></trkpt><trkpt lat="45.6857037" lon="11.9568147"><ele>42.0</ele><time>2026-04-26T07:10:18.043Z</time></trkpt><trkpt lat="45.6857118" lon="11.9566643"><ele>42.0</ele><time>2026-04-26T07:10:19.044Z</time></trkpt><trkpt lat="45.6857209" lon="11.9565137"><ele>42.0</ele><time>2026-04-26T07:10:20.046Z</time></trkpt><trkpt lat="45.6857288" lon="11.9563642"><ele>42.0</ele><time>2026-04-26T07:10:21.036Z</time></trkpt><trkpt lat="45.6857386" lon="11.9562108"><ele>42.0</ele><time>2026-04-26T07:10:22.041Z</time></trkpt><trkpt lat="45.6857485" lon="11.9560605"><ele>42.0</ele><time>2026-04-26T07:10:23.054Z</time></trkpt><trkpt lat="45.6857571" lon="11.9559101"><ele>42.0</ele><time>2026-04-26T07:10:24.046Z</time></trkpt><trkpt lat="45.6857648" lon="11.9557493"><ele>42.0</ele><time>2026-04-26T07:10:25.054Z</time></trkpt><trkpt lat="45.6857703" lon="11.9555776"><ele>42.0</ele><time>2026-04-26T07:10:26.042Z</time></trkpt><trkpt lat="45.6857739" lon="11.9553878"><ele>42.0</ele><time>2026-04-26T07:10:27.051Z</time></trkpt><trkpt lat="45.6857777" lon="11.9551842"><ele>42.0</ele><time>2026-04-26T07:10:28.061Z</time></trkpt><trkpt lat="45.6857829" lon="11.9549677"><ele>42.333333333333336</ele><time>2026-04-26T07:10:29.045Z</time></trkpt><trkpt lat="45.6857874" lon="11.9547363"><ele>42.66666666666667</ele><time>2026-04-26T07:10:30.063Z</time></trkpt><trkpt lat="45.6857899" lon="11.9545047"><ele>43.0</ele><time>2026-04-26T07:10:31.048Z</time></trkpt><trkpt lat="45.6857891" lon="11.9542652"><ele>42.333333333333336</ele><time>2026-04-26T07:10:32.052Z</time></trkpt><trkpt lat="45.6857868" lon="11.9540292"><ele>41.666666666666664</ele><time>2026-04-26T07:10:33.051Z</time></trkpt><trkpt lat="45.6857836" lon="11.9537909"><ele>41.0</ele><time>2026-04-26T07:10:34.057Z</time></trkpt><trkpt lat="45.6857799" lon="11.9535585"><ele>41.0</ele><time>2026-04-26T07:10:35.053Z</time></trkpt><trkpt lat="45.6857764" lon="11.9533311"><ele>41.0</ele><time>2026-04-26T07:10:36.058Z</time></trkpt><trkpt lat="45.6857703" lon="11.9531116"><ele>41.0</ele><time>2026-04-26T07:10:37.048Z</time></trkpt><trkpt lat="45.6857609" lon="11.9528953"><ele>41.0</ele><time>2026-04-26T07:10:38.056Z</time></trkpt><trkpt lat="45.6857479" lon="11.9526775"><ele>41.0</ele><time>2026-04-26T07:10:39.061Z</time></trkpt><trkpt lat="45.6857354" lon="11.9524598"><ele>41.0</ele><time>2026-04-26T07:10:40.066Z</time></trkpt><trkpt lat="45.6857219" lon="11.9522382"><ele>41.33333333333333</ele><time>2026-04-26T07:10:41.042Z</time></trkpt><trkpt lat="45.6857056" lon="11.9520095"><ele>41.666666666666664</ele><time>2026-04-26T07:10:42.052Z</time></trkpt><trkpt lat="45.6856861" lon="11.9517814"><ele>42.0</ele><time>2026-04-26T07:10:43.047Z</time></trkpt><trkpt lat="45.6856666" lon="11.9515537"><ele>42.333333333333336</ele><time>2026-04-26T07:10:44.047Z</time></trkpt><trkpt lat="45.6856468" lon="11.9513277"><ele>42.66666666666667</ele><time>2026-04-26T07:10:45.061Z</time></trkpt><trkpt lat="45.6856274" lon="11.9511101"><ele>43.0</ele><time>2026-04-26T07:10:46.045Z</time></trkpt><trkpt lat="45.6856071" lon="11.9508881"><ele>42.66666666666667</ele><time>2026-04-26T07:10:47.064Z</time></trkpt><trkpt lat="45.6855891" lon="11.950669"><ele>42.333333333333336</ele><time>2026-04-26T07:10:48.052Z</time></trkpt><trkpt lat="45.685572" lon="11.9504474"><ele>42.0</ele><time>2026-04-26T07:10:49.055Z</time></trkpt><trkpt lat="45.6855524" lon="11.9502239"><ele>42.0</ele><time>2026-04-26T07:10:50.057Z</time></trkpt><trkpt lat="45.6855306" lon="11.9499948"><ele>42.0</ele><time>2026-04-26T07:10:51.053Z</time></trkpt><trkpt lat="45.6855063" lon="11.9497592"><ele>42.0</ele><time>2026-04-26T07:10:52.055Z</time></trkpt><trkpt lat="45.6854801" lon="11.9495158"><ele>42.0</ele><time>2026-04-26T07:10:53.062Z</time></trkpt><trkpt lat="45.6854549" lon="11.9492691"><ele>42.0</ele><time>2026-04-26T07:10:54.047Z</time></trkpt><trkpt lat="45.6854324" lon="11.9490176"><ele>42.0</ele><time>2026-04-26T07:10:55.053Z</time></trkpt><trkpt lat="45.6854129" lon="11.9487767"><ele>42.0</ele><time>2026-04-26T07:10:56.041Z</time></trkpt><trkpt lat="45.6853928" lon="11.9485356"><ele>42.0</ele><time>2026-04-26T07:10:57.041Z</time></trkpt><trkpt lat="45.6853679" lon="11.9483019"><ele>42.0</ele><time>2026-04-26T07:10:58.039Z</time></trkpt><trkpt lat="45.6853445" lon="11.9480575"><ele>41.666666666666664</ele><time>2026-04-26T07:10:59.054Z</time></trkpt><trkpt lat="45.6853192" lon="11.9478023"><ele>41.33333333333333</ele><time>2026-04-26T07:11:00.057Z</time></trkpt><trkpt lat="45.6852932" lon="11.9475446"><ele>41.0</ele><time>2026-04-26T07:11:01.041Z</time></trkpt><trkpt lat="45.685269" lon="11.9472754"><ele>41.0</ele><time>2026-04-26T07:11:02.056Z</time></trkpt><trkpt lat="45.6852459" lon="11.9469986"><ele>41.0</ele><time>2026-04-26T07:11:03.044Z</time></trkpt><trkpt lat="45.685222" lon="11.9467153"><ele>41.0</ele><time>2026-04-26T07:11:04.04Z</time></trkpt><trkpt lat="45.6851978" lon="11.9464265"><ele>41.0</ele><time>2026-04-26T07:11:05.059Z</time></trkpt><trkpt lat="45.6851744" lon="11.9461352"><ele>41.0</ele><time>2026-04-26T07:11:06.06Z</time></trkpt><trkpt lat="45.6851534" lon="11.9458445"><ele>41.0</ele><time>2026-04-26T07:11:07.052Z</time></trkpt><trkpt lat="45.6851327" lon="11.9455475"><ele>41.0</ele><time>2026-04-26T07:11:08.059Z</time></trkpt><trkpt lat="45.6851054" lon="11.9452492"><ele>41.0</ele><time>2026-04-26T07:11:09.052Z</time></trkpt><trkpt lat="45.6850735" lon="11.9449494"><ele>41.0</ele><time>2026-04-26T07:11:10.052Z</time></trkpt><trkpt lat="45.6850372" lon="11.9446539"><ele>40.666666666666664</ele><time>2026-04-26T07:11:11.048Z</time></trkpt><trkpt lat="45.6849972" lon="11.9443618"><ele>40.333333333333336</ele><time>2026-04-26T07:11:12.05Z</time></trkpt><trkpt lat="45.6849607" lon="11.9440672"><ele>40.0</ele><time>2026-04-26T07:11:13.049Z</time></trkpt><trkpt lat="45.6849192" lon="11.9437777"><ele>40.0</ele><time>2026-04-26T07:11:14.05Z</time></trkpt><trkpt lat="45.6848796" lon="11.9434905"><ele>40.0</ele><time>2026-04-26T07:11:15.059Z</time></trkpt><trkpt lat="45.6848566" lon="11.9432015"><ele>40.0</ele><time>2026-04-26T07:11:16.053Z</time></trkpt><trkpt lat="45.6848354" lon="11.9429255"><ele>40.66666666666667</ele><time>2026-04-26T07:11:17.046Z</time></trkpt><trkpt lat="45.6848134" lon="11.9426491"><ele>41.333333333333336</ele><time>2026-04-26T07:11:18.044Z</time></trkpt><trkpt lat="45.6847937" lon="11.9423787"><ele>42.0</ele><time>2026-04-26T07:11:19.051Z</time></trkpt><trkpt lat="45.6847752" lon="11.9421148"><ele>42.0</ele><time>2026-04-26T07:11:20.068Z</time></trkpt><trkpt lat="45.6847582" lon="11.9418573"><ele>42.0</ele><time>2026-04-26T07:11:21.054Z</time></trkpt><trkpt lat="45.6847466" lon="11.9416015"><ele>42.0</ele><time>2026-04-26T07:11:22.053Z</time></trkpt><trkpt lat="45.6847363" lon="11.941351"><ele>41.666666666666664</ele><time>2026-04-26T07:11:23.048Z</time></trkpt><trkpt lat="45.6847249" lon="11.9410984"><ele>41.33333333333333</ele><time>2026-04-26T07:11:24.048Z</time></trkpt><trkpt lat="45.6847098" lon="11.9408479"><ele>41.0</ele><time>2026-04-26T07:11:25.051Z</time></trkpt><trkpt lat="45.6846934" lon="11.9405979"><ele>41.666666666666664</ele><time>2026-04-26T07:11:26.056Z</time></trkpt><trkpt lat="45.6846718" lon="11.9403473"><ele>42.333333333333336</ele><time>2026-04-26T07:11:27.066Z</time></trkpt><trkpt lat="45.6846484" lon="11.9400935"><ele>43.0</ele><time>2026-04-26T07:11:28.054Z</time></trkpt><trkpt lat="45.6846225" lon="11.9398313"><ele>43.333333333333336</ele><time>2026-04-26T07:11:29.054Z</time></trkpt><trkpt lat="45.6845977" lon="11.9395679"><ele>43.666666666666664</ele><time>2026-04-26T07:11:30.036Z</time></trkpt><trkpt lat="45.6845765" lon="11.9392952"><ele>44.0</ele><time>2026-04-26T07:11:31.041Z</time></trkpt><trkpt lat="45.6845558" lon="11.939024"><ele>44.33333333333333</ele><time>2026-04-26T07:11:32.043Z</time></trkpt><trkpt lat="45.6845352" lon="11.9387536"><ele>44.666666666666664</ele><time>2026-04-26T07:11:33.056Z</time></trkpt><trkpt lat="45.6845145" lon="11.9384827"><ele>45.0</ele><time>2026-04-26T07:11:34.056Z</time></trkpt><trkpt lat="45.6844936" lon="11.9382145"><ele>44.666666666666664</ele><time>2026-04-26T07:11:35.066Z</time></trkpt><trkpt lat="45.6844716" lon="11.9379472"><ele>44.33333333333333</ele><time>2026-04-26T07:11:36.04Z</time></trkpt><trkpt lat="45.6844478" lon="11.9376748"><ele>44.0</ele><time>2026-04-26T07:11:37.058Z</time></trkpt><trkpt lat="45.6844255" lon="11.9374033"><ele>44.0</ele><time>2026-04-26T07:11:38.039Z</time></trkpt><trkpt lat="45.6844046" lon="11.937126"><ele>44.0</ele><time>2026-04-26T07:11:39.054Z</time></trkpt><trkpt lat="45.6843862" lon="11.9368503"><ele>44.0</ele><time>2026-04-26T07:11:40.048Z</time></trkpt><trkpt lat="45.6843638" lon="11.9365687"><ele>43.666666666666664</ele><time>2026-04-26T07:11:41.049Z</time></trkpt><trkpt lat="45.6843396" lon="11.9362837"><ele>43.333333333333336</ele><time>2026-04-26T07:11:42.054Z</time></trkpt><trkpt lat="45.6843142" lon="11.936001"><ele>43.0</ele><time>2026-04-26T07:11:43.054Z</time></trkpt><trkpt lat="45.6842902" lon="11.9357217"><ele>43.0</ele><time>2026-04-26T07:11:44.041Z</time></trkpt><trkpt lat="45.6842664" lon="11.9354432"><ele>43.0</ele><time>2026-04-26T07:11:45.039Z</time></trkpt><trkpt lat="45.6842415" lon="11.9351663"><ele>43.0</ele><time>2026-04-26T07:11:46.042Z</time></trkpt><trkpt lat="45.6842164" lon="11.9348876"><ele>42.66666666666667</ele><time>2026-04-26T07:11:47.059Z</time></trkpt><trkpt lat="45.684191" lon="11.934609"><ele>42.333333333333336</ele><time>2026-04-26T07:11:48.043Z</time></trkpt><trkpt lat="45.6841644" lon="11.9343246"><ele>42.0</ele><time>2026-04-26T07:11:49.041Z</time></trkpt><trkpt lat="45.6841389" lon="11.9340362"><ele>42.0</ele><time>2026-04-26T07:11:50.05Z</time></trkpt><trkpt lat="45.6841135" lon="11.9337488"><ele>42.0</ele><time>2026-04-26T07:11:51.055Z</time></trkpt><trkpt lat="45.6840883" lon="11.9334636"><ele>42.0</ele><time>2026-04-26T07:11:52.057Z</time></trkpt><trkpt lat="45.6840633" lon="11.9331821"><ele>42.0</ele><time>2026-04-26T07:11:53.049Z</time></trkpt><trkpt lat="45.6840386" lon="11.9329007"><ele>42.0</ele><time>2026-04-26T07:11:54.042Z</time></trkpt><trkpt lat="45.6840184" lon="11.9326207"><ele>42.0</ele><time>2026-04-26T07:11:55.048Z</time></trkpt><trkpt lat="45.6839966" lon="11.9323418"><ele>42.0</ele><time>2026-04-26T07:11:56.041Z</time></trkpt><trkpt lat="45.6839746" lon="11.9320632"><ele>42.0</ele><time>2026-04-26T07:11:57.053Z</time></trkpt><trkpt lat="45.6839535" lon="11.931793"><ele>42.0</ele><time>2026-04-26T07:11:58.059Z</time></trkpt><trkpt lat="45.683932" lon="11.9315315"><ele>42.333333333333336</ele><time>2026-04-26T07:11:59.058Z</time></trkpt><trkpt lat="45.6839062" lon="11.9312766"><ele>42.66666666666667</ele><time>2026-04-26T07:12:00.058Z</time></trkpt><trkpt lat="45.6838812" lon="11.931021"><ele>43.0</ele><time>2026-04-26T07:12:01.044Z</time></trkpt><trkpt lat="45.6838571" lon="11.9307586"><ele>43.0</ele><time>2026-04-26T07:12:02.061Z</time></trkpt><trkpt lat="45.6838335" lon="11.9304947"><ele>43.0</ele><time>2026-04-26T07:12:03.06Z</time></trkpt><trkpt lat="45.6838101" lon="11.9302335"><ele>43.0</ele><time>2026-04-26T07:12:04.068Z</time></trkpt><trkpt lat="45.6837858" lon="11.929974"><ele>43.333333333333336</ele><time>2026-04-26T07:12:05.05Z</time></trkpt><trkpt lat="45.6837615" lon="11.9297097"><ele>43.666666666666664</ele><time>2026-04-26T07:12:06.058Z</time></trkpt><trkpt lat="45.6837373" lon="11.929447"><ele>44.0</ele><time>2026-04-26T07:12:07.065Z</time></trkpt><trkpt lat="45.6837147" lon="11.9291995"><ele>44.0</ele><time>2026-04-26T07:12:08.059Z</time></trkpt><trkpt lat="45.6836915" lon="11.928958"><ele>44.0</ele><time>2026-04-26T07:12:09.048Z</time></trkpt><trkpt lat="45.6836676" lon="11.9287213"><ele>44.0</ele><time>2026-04-26T07:12:10.046Z</time></trkpt><trkpt lat="45.6836455" lon="11.9284943"><ele>43.75</ele><time>2026-04-26T07:12:11.057Z</time></trkpt><trkpt lat="45.6836259" lon="11.9282747"><ele>43.5</ele><time>2026-04-26T07:12:12.048Z</time></trkpt><trkpt lat="45.6836085" lon="11.9280654"><ele>43.25</ele><time>2026-04-26T07:12:13.053Z</time></trkpt><trkpt lat="45.683591" lon="11.927869"><ele>43.0</ele><time>2026-04-26T07:12:14.039Z</time></trkpt><trkpt lat="45.6835709" lon="11.9276872"><ele>42.8</ele><time>2026-04-26T07:12:15.045Z</time></trkpt><trkpt lat="45.6835565" lon="11.927519"><ele>42.599999999999994</ele><time>2026-04-26T07:12:16.07Z</time></trkpt><trkpt lat="45.6835557" lon="11.9273764"><ele>42.400000000000006</ele><time>2026-04-26T07:12:17.032Z</time></trkpt><trkpt lat="45.6835754" lon="11.9272603"><ele>42.2</ele><time>2026-04-26T07:12:18.051Z</time></trkpt><trkpt lat="45.6836132" lon="11.9271485"><ele>42.0</ele><time>2026-04-26T07:12:19.047Z</time></trkpt><trkpt lat="45.6836413" lon="11.9270275"><ele>42.2</ele><time>2026-04-26T07:12:20.054Z</time></trkpt><trkpt lat="45.6836429" lon="11.9268964"><ele>42.400000000000006</ele><time>2026-04-26T07:12:21.039Z</time></trkpt><trkpt lat="45.6836059" lon="11.9267593"><ele>42.599999999999994</ele><time>2026-04-26T07:12:22.032Z</time></trkpt><trkpt lat="45.6835486" lon="11.926619"><ele>42.8</ele><time>2026-04-26T07:12:23.034Z</time></trkpt><trkpt lat="45.6835051" lon="11.9264489"><ele>43.0</ele><time>2026-04-26T07:12:24.041Z</time></trkpt><trkpt lat="45.6834827" lon="11.9262361"><ele>43.0</ele><time>2026-04-26T07:12:25.041Z</time></trkpt><trkpt lat="45.6834576" lon="11.9260018"><ele>43.0</ele><time>2026-04-26T07:12:26.037Z</time></trkpt><trkpt lat="45.6834433" lon="11.9257501"><ele>43.0</ele><time>2026-04-26T07:12:27.053Z</time></trkpt><trkpt lat="45.6834207" lon="11.9254907"><ele>43.333333333333336</ele><time>2026-04-26T07:12:28.036Z</time></trkpt><trkpt lat="45.6833813" lon="11.9252276"><ele>43.666666666666664</ele><time>2026-04-26T07:12:29.039Z</time></trkpt><trkpt lat="45.6833443" lon="11.9249619"><ele>44.0</ele><time>2026-04-26T07:12:30.045Z</time></trkpt><trkpt lat="45.6833061" lon="11.9246903"><ele>44.0</ele><time>2026-04-26T07:12:31.056Z</time></trkpt><trkpt lat="45.6832577" lon="11.9244184"><ele>44.0</ele><time>2026-04-26T07:12:32.035Z</time></trkpt><trkpt lat="45.6832014" lon="11.9241481"><ele>44.0</ele><time>2026-04-26T07:12:33.05Z</time></trkpt><trkpt lat="45.6831402" lon="11.9238757"><ele>44.0</ele><time>2026-04-26T07:12:34.047Z</time></trkpt><trkpt lat="45.6830704" lon="11.9236035"><ele>44.0</ele><time>2026-04-26T07:12:35.057Z</time></trkpt><trkpt lat="45.6830013" lon="11.9233343"><ele>44.0</ele><time>2026-04-26T07:12:36.035Z</time></trkpt><trkpt lat="45.682924" lon="11.9230719"><ele>44.0</ele><time>2026-04-26T07:12:37.037Z</time></trkpt><trkpt lat="45.68284" lon="11.9228157"><ele>44.0</ele><time>2026-04-26T07:12:38.038Z</time></trkpt><trkpt lat="45.6827404" lon="11.92257"><ele>44.0</ele><time>2026-04-26T07:12:39.047Z</time></trkpt><trkpt lat="45.682643" lon="11.922324"><ele>43.33333333333333</ele><time>2026-04-26T07:12:40.032Z</time></trkpt><trkpt lat="45.6825377" lon="11.9220841"><ele>42.666666666666664</ele><time>2026-04-26T07:12:41.041Z</time></trkpt><trkpt lat="45.682431" lon="11.9218487"><ele>42.0</ele><time>2026-04-26T07:12:42.073Z</time></trkpt><trkpt lat="45.6823126" lon="11.9216238"><ele>41.666666666666664</ele><time>2026-04-26T07:12:43.055Z</time></trkpt><trkpt lat="45.682201" lon="11.9213991"><ele>41.33333333333333</ele><time>2026-04-26T07:12:44.074Z</time></trkpt><trkpt lat="45.6820859" lon="11.9211918"><ele>41.0</ele><time>2026-04-26T07:12:45.059Z</time></trkpt><trkpt lat="45.6819649" lon="11.9210065"><ele>41.33333333333333</ele><time>2026-04-26T07:12:46.046Z</time></trkpt><trkpt lat="45.6818557" lon="11.9208148"><ele>41.666666666666664</ele><time>2026-04-26T07:12:47.049Z</time></trkpt><trkpt lat="45.6817461" lon="11.9206427"><ele>42.0</ele><time>2026-04-26T07:12:48.05Z</time></trkpt><trkpt lat="45.6816321" lon="11.9204866"><ele>42.0</ele><time>2026-04-26T07:12:49.048Z</time></trkpt><trkpt lat="45.6815338" lon="11.9203246"><ele>42.0</ele><time>2026-04-26T07:12:50.06Z</time></trkpt><trkpt lat="45.6814503" lon="11.9201584"><ele>42.0</ele><time>2026-04-26T07:12:51.069Z</time></trkpt><trkpt lat="45.6813735" lon="11.9200009"><ele>42.0</ele><time>2026-04-26T07:12:52.048Z</time></trkpt><trkpt lat="45.6813071" lon="11.9198429"><ele>42.2</ele><time>2026-04-26T07:12:53.058Z</time></trkpt><trkpt lat="45.6812401" lon="11.9197022"><ele>42.400000000000006</ele><time>2026-04-26T07:12:54.057Z</time></trkpt><trkpt lat="45.681163" lon="11.9195859"><ele>42.599999999999994</ele><time>2026-04-26T07:12:55.069Z</time></trkpt><trkpt lat="45.6810787" lon="11.9194965"><ele>42.8</ele><time>2026-04-26T07:12:56.068Z</time></trkpt><trkpt lat="45.6809958" lon="11.9194411"><ele>43.0</ele><time>2026-04-26T07:12:57.054Z</time></trkpt><trkpt lat="45.6809213" lon="11.9193807"><ele>43.0</ele><time>2026-04-26T07:12:58.032Z</time></trkpt><trkpt lat="45.6808427" lon="11.9193018"><ele>43.0</ele><time>2026-04-26T07:12:59.056Z</time></trkpt><trkpt lat="45.6807627" lon="11.9191814"><ele>43.0</ele><time>2026-04-26T07:13:00.066Z</time></trkpt><trkpt lat="45.6806749" lon="11.9190424"><ele>43.0</ele><time>2026-04-26T07:13:01.039Z</time></trkpt><trkpt lat="45.6805764" lon="11.9188946"><ele>43.0</ele><time>2026-04-26T07:13:02.045Z</time></trkpt><trkpt lat="45.68047" lon="11.9187316"><ele>43.0</ele><time>2026-04-26T07:13:03.044Z</time></trkpt><trkpt lat="45.6803584" lon="11.9185656"><ele>43.0</ele><time>2026-04-26T07:13:04.038Z</time></trkpt><trkpt lat="45.6802451" lon="11.9183983"><ele>43.333333333333336</ele><time>2026-04-26T07:13:05.052Z</time></trkpt><trkpt lat="45.6801321" lon="11.9182232"><ele>43.666666666666664</ele><time>2026-04-26T07:13:06.056Z</time></trkpt><trkpt lat="45.680017" lon="11.9180477"><ele>44.0</ele><time>2026-04-26T07:13:07.054Z</time></trkpt><trkpt lat="45.6799028" lon="11.9178724"><ele>44.0</ele><time>2026-04-26T07:13:08.059Z</time></trkpt><trkpt lat="45.6797914" lon="11.9176947"><ele>44.0</ele><time>2026-04-26T07:13:09.04Z</time></trkpt><trkpt lat="45.6796792" lon="11.9175232"><ele>44.0</ele><time>2026-04-26T07:13:10.058Z</time></trkpt><trkpt lat="45.6795691" lon="11.917349"><ele>44.0</ele><time>2026-04-26T07:13:11.041Z</time></trkpt><trkpt lat="45.6794557" lon="11.917178"><ele>44.0</ele><time>2026-04-26T07:13:12.05Z</time></trkpt><trkpt lat="45.679342" lon="11.9170009"><ele>44.0</ele><time>2026-04-26T07:13:13.074Z</time></trkpt><trkpt lat="45.6792256" lon="11.9168221"><ele>43.666666666666664</ele><time>2026-04-26T07:13:14.05Z</time></trkpt><trkpt lat="45.6791048" lon="11.9166417"><ele>43.333333333333336</ele><time>2026-04-26T07:13:15.042Z</time></trkpt><trkpt lat="45.6789778" lon="11.9164538"><ele>43.0</ele><time>2026-04-26T07:13:16.042Z</time></trkpt><trkpt lat="45.6788481" lon="11.9162576"><ele>43.0</ele><time>2026-04-26T07:13:17.041Z</time></trkpt><trkpt lat="45.678716" lon="11.9160581"><ele>43.0</ele><time>2026-04-26T07:13:18.054Z</time></trkpt><trkpt lat="45.6785843" lon="11.9158539"><ele>43.0</ele><time>2026-04-26T07:13:19.04Z</time></trkpt><trkpt lat="45.678456" lon="11.9156451"><ele>42.66666666666667</ele><time>2026-04-26T07:13:20.042Z</time></trkpt><trkpt lat="45.6783264" lon="11.9154442"><ele>42.333333333333336</ele><time>2026-04-26T07:13:21.053Z</time></trkpt><trkpt lat="45.6781984" lon="11.9152557"><ele>42.0</ele><time>2026-04-26T07:13:22.041Z</time></trkpt><trkpt lat="45.678074" lon="11.9150737"><ele>42.0</ele><time>2026-04-26T07:13:23.048Z</time></trkpt><trkpt lat="45.6779532" lon="11.9148935"><ele>42.0</ele><time>2026-04-26T07:13:24.05Z</time></trkpt><trkpt lat="45.6778339" lon="11.9147157"><ele>42.0</ele><time>2026-04-26T07:13:25.049Z</time></trkpt><trkpt lat="45.6777193" lon="11.9145358"><ele>42.333333333333336</ele><time>2026-04-26T07:13:26.045Z</time></trkpt><trkpt lat="45.677612" lon="11.9143462"><ele>42.66666666666667</ele><time>2026-04-26T07:13:27.051Z</time></trkpt><trkpt lat="45.6775097" lon="11.9141503"><ele>43.0</ele><time>2026-04-26T07:13:28.051Z</time></trkpt><trkpt lat="45.6774112" lon="11.9139553"><ele>43.0</ele><time>2026-04-26T07:13:29.061Z</time></trkpt><trkpt lat="45.6773105" lon="11.9137733"><ele>43.0</ele><time>2026-04-26T07:13:30.06Z</time></trkpt><trkpt lat="45.6772053" lon="11.9136075"><ele>43.0</ele><time>2026-04-26T07:13:31.066Z</time></trkpt><trkpt lat="45.6771048" lon="11.9134503"><ele>43.0</ele><time>2026-04-26T07:13:32.062Z</time></trkpt><trkpt lat="45.6770155" lon="11.9133041"><ele>43.0</ele><time>2026-04-26T07:13:33.057Z</time></trkpt><trkpt lat="45.6769472" lon="11.9131597"><ele>43.0</ele><time>2026-04-26T07:13:34.05Z</time></trkpt><trkpt lat="45.6769027" lon="11.9130098"><ele>43.0</ele><time>2026-04-26T07:13:35.048Z</time></trkpt><trkpt lat="45.6768772" lon="11.9128524"><ele>43.0</ele><time>2026-04-26T07:13:36.043Z</time></trkpt><trkpt lat="45.6768626" lon="11.9126822"><ele>43.0</ele><time>2026-04-26T07:13:37.041Z</time></trkpt><trkpt lat="45.6768601" lon="11.9125064"><ele>43.0</ele><time>2026-04-26T07:13:38.047Z</time></trkpt><trkpt lat="45.6768809" lon="11.9123329"><ele>43.0</ele><time>2026-04-26T07:13:39.041Z</time></trkpt><trkpt lat="45.6769219" lon="11.9121547"><ele>43.0</ele><time>2026-04-26T07:13:40.064Z</time></trkpt><trkpt lat="45.6769843" lon="11.911977"><ele>43.0</ele><time>2026-04-26T07:13:41.047Z</time></trkpt><trkpt lat="45.6770536" lon="11.9117941"><ele>43.0</ele><time>2026-04-26T07:13:42.041Z</time></trkpt><trkpt lat="45.6771257" lon="11.9116084"><ele>43.0</ele><time>2026-04-26T07:13:43.044Z</time></trkpt><trkpt lat="45.6771926" lon="11.9114194"><ele>43.0</ele><time>2026-04-26T07:13:44.049Z</time></trkpt><trkpt lat="45.6772589" lon="11.9112321"><ele>43.0</ele><time>2026-04-26T07:13:45.054Z</time></trkpt><trkpt lat="45.6773321" lon="11.9110545"><ele>43.0</ele><time>2026-04-26T07:13:46.05Z</time></trkpt><trkpt lat="45.6774045" lon="11.9108779"><ele>43.0</ele><time>2026-04-26T07:13:47.045Z</time></trkpt><trkpt lat="45.6774768" lon="11.9106982"><ele>43.25</ele><time>2026-04-26T07:13:48.044Z</time></trkpt><trkpt lat="45.6775487" lon="11.9105175"><ele>43.5</ele><time>2026-04-26T07:13:49.042Z</time></trkpt><trkpt lat="45.6776246" lon="11.9103407"><ele>43.75</ele><time>2026-04-26T07:13:50.053Z</time></trkpt><trkpt lat="45.6777006" lon="11.9101668"><ele>44.0</ele><time>2026-04-26T07:13:51.053Z</time></trkpt><trkpt lat="45.6777739" lon="11.9099937"><ele>44.0</ele><time>2026-04-26T07:13:52.056Z</time></trkpt><trkpt lat="45.6778461" lon="11.909819"><ele>44.0</ele><time>2026-04-26T07:13:53.042Z</time></trkpt><trkpt lat="45.6779194" lon="11.9096463"><ele>44.0</ele><time>2026-04-26T07:13:54.039Z</time></trkpt><trkpt lat="45.6780045" lon="11.9094836"><ele>44.0</ele><time>2026-04-26T07:13:55.053Z</time></trkpt><trkpt lat="45.6780909" lon="11.9093136"><ele>44.0</ele><time>2026-04-26T07:13:56.034Z</time></trkpt><trkpt lat="45.6781663" lon="11.9091321"><ele>44.0</ele><time>2026-04-26T07:13:57.051Z</time></trkpt><trkpt lat="45.6782488" lon="11.9089485"><ele>44.0</ele><time>2026-04-26T07:13:58.042Z</time></trkpt><trkpt lat="45.6783283" lon="11.9087555"><ele>44.0</ele><time>2026-04-26T07:13:59.039Z</time></trkpt><trkpt lat="45.6784087" lon="11.9085607"><ele>44.0</ele><time>2026-04-26T07:14:00.056Z</time></trkpt><trkpt lat="45.6785028" lon="11.9083759"><ele>44.0</ele><time>2026-04-26T07:14:01.049Z</time></trkpt><trkpt lat="45.6785873" lon="11.9081785"><ele>44.33333333333333</ele><time>2026-04-26T07:14:02.038Z</time></trkpt><trkpt lat="45.6786635" lon="11.9079694"><ele>44.666666666666664</ele><time>2026-04-26T07:14:03.054Z</time></trkpt><trkpt lat="45.6787445" lon="11.9077621"><ele>45.0</ele><time>2026-04-26T07:14:04.046Z</time></trkpt><trkpt lat="45.6788332" lon="11.9075576"><ele>45.0</ele><time>2026-04-26T07:14:05.054Z</time></trkpt><trkpt lat="45.6789122" lon="11.9073399"><ele>45.0</ele><time>2026-04-26T07:14:06.038Z</time></trkpt><trkpt lat="45.6789957" lon="11.9071262"><ele>45.0</ele><time>2026-04-26T07:14:07.038Z</time></trkpt><trkpt lat="45.6790888" lon="11.9069221"><ele>45.0</ele><time>2026-04-26T07:14:08.037Z</time></trkpt><trkpt lat="45.6791743" lon="11.9067117"><ele>45.0</ele><time>2026-04-26T07:14:09.046Z</time></trkpt><trkpt lat="45.6792616" lon="11.9065011"><ele>45.0</ele><time>2026-04-26T07:14:10.056Z</time></trkpt><trkpt lat="45.6793488" lon="11.9062916"><ele>44.666666666666664</ele><time>2026-04-26T07:14:11.045Z</time></trkpt><trkpt lat="45.6794457" lon="11.9060935"><ele>44.33333333333333</ele><time>2026-04-26T07:14:12.044Z</time></trkpt><trkpt lat="45.6795283" lon="11.9058846"><ele>44.0</ele><time>2026-04-26T07:14:13.034Z</time></trkpt><trkpt lat="45.6796119" lon="11.9056773"><ele>44.0</ele><time>2026-04-26T07:14:14.043Z</time></trkpt><trkpt lat="45.6796953" lon="11.9054749"><ele>44.0</ele><time>2026-04-26T07:14:15.04Z</time></trkpt><trkpt lat="45.6797711" lon="11.9052745"><ele>44.0</ele><time>2026-04-26T07:14:16.033Z</time></trkpt><trkpt lat="45.6798492" lon="11.905083"><ele>44.33333333333333</ele><time>2026-04-26T07:14:17.036Z</time></trkpt><trkpt lat="45.6799502" lon="11.9049085"><ele>44.666666666666664</ele><time>2026-04-26T07:14:18.059Z</time></trkpt><trkpt lat="45.6800272" lon="11.9047079"><ele>45.0</ele><time>2026-04-26T07:14:19.06Z</time></trkpt><trkpt lat="45.6801085" lon="11.9045032"><ele>45.0</ele><time>2026-04-26T07:14:20.038Z</time></trkpt><trkpt lat="45.6801926" lon="11.9042943"><ele>45.0</ele><time>2026-04-26T07:14:21.048Z</time></trkpt><trkpt lat="45.6802817" lon="11.9040848"><ele>45.0</ele><time>2026-04-26T07:14:22.044Z</time></trkpt><trkpt lat="45.6803738" lon="11.9038741"><ele>45.333333333333336</ele><time>2026-04-26T07:14:23.041Z</time></trkpt><trkpt lat="45.6804629" lon="11.9036606"><ele>45.66666666666667</ele><time>2026-04-26T07:14:24.047Z</time></trkpt><trkpt lat="45.6805501" lon="11.9034504"><ele>46.0</ele><time>2026-04-26T07:14:25.043Z</time></trkpt><trkpt lat="45.6806321" lon="11.903241"><ele>46.0</ele><time>2026-04-26T07:14:26.056Z</time></trkpt><trkpt lat="45.680718" lon="11.9030365"><ele>46.0</ele><time>2026-04-26T07:14:27.038Z</time></trkpt><trkpt lat="45.6808058" lon="11.902834"><ele>46.0</ele><time>2026-04-26T07:14:28.056Z</time></trkpt><trkpt lat="45.6808893" lon="11.9026241"><ele>46.333333333333336</ele><time>2026-04-26T07:14:29.049Z</time></trkpt><trkpt lat="45.6809829" lon="11.9024169"><ele>46.666666666666664</ele><time>2026-04-26T07:14:30.057Z</time></trkpt><trkpt lat="45.6810714" lon="11.9021983"><ele>47.0</ele><time>2026-04-26T07:14:31.036Z</time></trkpt><trkpt lat="45.6811617" lon="11.9019781"><ele>47.0</ele><time>2026-04-26T07:14:32.04Z</time></trkpt><trkpt lat="45.6812457" lon="11.9017581"><ele>47.0</ele><time>2026-04-26T07:14:33.047Z</time></trkpt><trkpt lat="45.6813303" lon="11.901546"><ele>47.0</ele><time>2026-04-26T07:14:34.053Z</time></trkpt><trkpt lat="45.6814173" lon="11.9013392"><ele>47.33333333333333</ele><time>2026-04-26T07:14:35.062Z</time></trkpt><trkpt lat="45.6815022" lon="11.9011319"><ele>47.666666666666664</ele><time>2026-04-26T07:14:36.049Z</time></trkpt><trkpt lat="45.6815898" lon="11.9009266"><ele>48.0</ele><time>2026-04-26T07:14:37.056Z</time></trkpt><trkpt lat="45.6816792" lon="11.9007187"><ele>48.0</ele><time>2026-04-26T07:14:38.035Z</time></trkpt><trkpt lat="45.6817631" lon="11.9004993"><ele>48.0</ele><time>2026-04-26T07:14:39.04Z</time></trkpt><trkpt lat="45.6818524" lon="11.900277"><ele>48.0</ele><time>2026-04-26T07:14:40.048Z</time></trkpt><trkpt lat="45.6819563" lon="11.9000629"><ele>47.666666666666664</ele><time>2026-04-26T07:14:41.041Z</time></trkpt><trkpt lat="45.6820616" lon="11.8998471"><ele>47.33333333333333</ele><time>2026-04-26T07:14:42.067Z</time></trkpt><trkpt lat="45.6821535" lon="11.8996175"><ele>47.0</ele><time>2026-04-26T07:14:43.04Z</time></trkpt><trkpt lat="45.6822334" lon="11.8993811"><ele>47.33333333333333</ele><time>2026-04-26T07:14:44.043Z</time></trkpt><trkpt lat="45.6823186" lon="11.8991508"><ele>47.666666666666664</ele><time>2026-04-26T07:14:45.052Z</time></trkpt><trkpt lat="45.6824108" lon="11.8989296"><ele>48.0</ele><time>2026-04-26T07:14:46.033Z</time></trkpt><trkpt lat="45.6824933" lon="11.8987007"><ele>48.0</ele><time>2026-04-26T07:14:47.05Z</time></trkpt><trkpt lat="45.6825799" lon="11.8984708"><ele>48.0</ele><time>2026-04-26T07:14:48.044Z</time></trkpt><trkpt lat="45.6826928" lon="11.8982655"><ele>48.0</ele><time>2026-04-26T07:14:49.039Z</time></trkpt><trkpt lat="45.6828036" lon="11.8980616"><ele>48.0</ele><time>2026-04-26T07:14:50.049Z</time></trkpt><trkpt lat="45.6829052" lon="11.8978517"><ele>48.0</ele><time>2026-04-26T07:14:51.053Z</time></trkpt><trkpt lat="45.6829937" lon="11.8976325"><ele>48.0</ele><time>2026-04-26T07:14:52.038Z</time></trkpt><trkpt lat="45.6830811" lon="11.8974127"><ele>48.0</ele><time>2026-04-26T07:14:53.029Z</time></trkpt><trkpt lat="45.6831665" lon="11.8971937"><ele>48.0</ele><time>2026-04-26T07:14:54.037Z</time></trkpt><trkpt lat="45.6832655" lon="11.89698"><ele>48.0</ele><time>2026-04-26T07:14:55.035Z</time></trkpt><trkpt lat="45.6833571" lon="11.8967623"><ele>48.0</ele><time>2026-04-26T07:14:56.03Z</time></trkpt><trkpt lat="45.6834479" lon="11.8965486"><ele>48.0</ele><time>2026-04-26T07:14:57.05Z</time></trkpt><trkpt lat="45.6835403" lon="11.8963432"><ele>48.0</ele><time>2026-04-26T07:14:58.04Z</time></trkpt><trkpt lat="45.6836287" lon="11.8961429"><ele>48.0</ele><time>2026-04-26T07:14:59.037Z</time></trkpt><trkpt lat="45.6837052" lon="11.8959386"><ele>48.0</ele><time>2026-04-26T07:15:00.046Z</time></trkpt><trkpt lat="45.6837808" lon="11.8957396"><ele>48.0</ele><time>2026-04-26T07:15:01.045Z</time></trkpt><trkpt lat="45.6838515" lon="11.8955389"><ele>48.0</ele><time>2026-04-26T07:15:02.038Z</time></trkpt><trkpt lat="45.6839226" lon="11.8953372"><ele>48.0</ele><time>2026-04-26T07:15:03.04Z</time></trkpt><trkpt lat="45.6839983" lon="11.895133"><ele>48.0</ele><time>2026-04-26T07:15:04.05Z</time></trkpt><trkpt lat="45.6840919" lon="11.8949389"><ele>48.0</ele><time>2026-04-26T07:15:05.046Z</time></trkpt><trkpt lat="45.684186" lon="11.8947447"><ele>48.0</ele><time>2026-04-26T07:15:06.049Z</time></trkpt><trkpt lat="45.6842675" lon="11.8945528"><ele>48.0</ele><time>2026-04-26T07:15:07.04Z</time></trkpt><trkpt lat="45.6843511" lon="11.8943652"><ele>48.25</ele><time>2026-04-26T07:15:08.044Z</time></trkpt><trkpt lat="45.684433" lon="11.8941842"><ele>48.5</ele><time>2026-04-26T07:15:09.051Z</time></trkpt><trkpt lat="45.6845148" lon="11.8940093"><ele>48.75</ele><time>2026-04-26T07:15:10.048Z</time></trkpt><trkpt lat="45.6845911" lon="11.8938315"><ele>49.0</ele><time>2026-04-26T07:15:11.057Z</time></trkpt><trkpt lat="45.6846598" lon="11.8936536"><ele>49.0</ele><time>2026-04-26T07:15:12.051Z</time></trkpt><trkpt lat="45.6847304" lon="11.8934794"><ele>49.0</ele><time>2026-04-26T07:15:13.053Z</time></trkpt><trkpt lat="45.684799" lon="11.8933085"><ele>49.0</ele><time>2026-04-26T07:15:14.041Z</time></trkpt><trkpt lat="45.6848652" lon="11.8931394"><ele>49.0</ele><time>2026-04-26T07:15:15.047Z</time></trkpt><trkpt lat="45.6849402" lon="11.8929766"><ele>48.5</ele><time>2026-04-26T07:15:16.058Z</time></trkpt><trkpt lat="45.6850106" lon="11.8928055"><ele>48.0</ele><time>2026-04-26T07:15:17.04Z</time></trkpt><trkpt lat="45.6850869" lon="11.8926277"><ele>47.5</ele><time>2026-04-26T07:15:18.059Z</time></trkpt><trkpt lat="45.6851641" lon="11.8924436"><ele>47.0</ele><time>2026-04-26T07:15:19.048Z</time></trkpt><trkpt lat="45.6852399" lon="11.8922506"><ele>48.0</ele><time>2026-04-26T07:15:20.065Z</time></trkpt><trkpt lat="45.6853173" lon="11.8920447"><ele>49.0</ele><time>2026-04-26T07:15:21.05Z</time></trkpt><trkpt lat="45.6854024" lon="11.8918426"><ele>50.0</ele><time>2026-04-26T07:15:22.033Z</time></trkpt><trkpt lat="45.6854846" lon="11.8916453"><ele>50.25</ele><time>2026-04-26T07:15:23.041Z</time></trkpt><trkpt lat="45.6855557" lon="11.8914516"><ele>50.5</ele><time>2026-04-26T07:15:24.05Z</time></trkpt><trkpt lat="45.6856255" lon="11.8912715"><ele>50.75</ele><time>2026-04-26T07:15:25.038Z</time></trkpt><trkpt lat="45.6856942" lon="11.8910992"><ele>51.0</ele><time>2026-04-26T07:15:26.05Z</time></trkpt><trkpt lat="45.6857865" lon="11.890954"><ele>51.0</ele><time>2026-04-26T07:15:27.053Z</time></trkpt><trkpt lat="45.6858408" lon="11.8907793"><ele>51.0</ele><time>2026-04-26T07:15:28.046Z</time></trkpt><trkpt lat="45.685897" lon="11.8906158"><ele>51.0</ele><time>2026-04-26T07:15:29.06Z</time></trkpt><trkpt lat="45.685952" lon="11.8904603"><ele>51.0</ele><time>2026-04-26T07:15:30.061Z</time></trkpt><trkpt lat="45.6860112" lon="11.8903116"><ele>51.0</ele><time>2026-04-26T07:15:31.041Z</time></trkpt><trkpt lat="45.6860705" lon="11.8901647"><ele>51.0</ele><time>2026-04-26T07:15:32.039Z</time></trkpt><trkpt lat="45.6861293" lon="11.8900198"><ele>51.0</ele><time>2026-04-26T07:15:33.058Z</time></trkpt><trkpt lat="45.6861851" lon="11.889876"><ele>51.0</ele><time>2026-04-26T07:15:34.065Z</time></trkpt><trkpt lat="45.6862372" lon="11.8897292"><ele>50.8</ele><time>2026-04-26T07:15:35.055Z</time></trkpt><trkpt lat="45.686291" lon="11.8895834"><ele>50.599999999999994</ele><time>2026-04-26T07:15:36.049Z</time></trkpt><trkpt lat="45.686348" lon="11.8894444"><ele>50.4</ele><time>2026-04-26T07:15:37.045Z</time></trkpt><trkpt lat="45.6864033" lon="11.8893095"><ele>50.2</ele><time>2026-04-26T07:15:38.049Z</time></trkpt><trkpt lat="45.6864538" lon="11.8891892"><ele>50.0</ele><time>2026-04-26T07:15:39.039Z</time></trkpt><trkpt lat="45.6864653" lon="11.88909"><ele>49.833333333333336</ele><time>2026-04-26T07:15:40.065Z</time></trkpt><trkpt lat="45.6864934" lon="11.8889905"><ele>49.66666666666667</ele><time>2026-04-26T07:15:42.06Z</time></trkpt><trkpt lat="45.6865419" lon="11.8888635"><ele>49.5</ele><time>2026-04-26T07:15:45.039Z</time></trkpt><trkpt lat="45.686583" lon="11.8887355"><ele>49.33333333333333</ele><time>2026-04-26T07:15:47.051Z</time></trkpt><trkpt lat="45.6866094" lon="11.8886438"><ele>49.166666666666664</ele><time>2026-04-26T07:15:48.061Z</time></trkpt><trkpt lat="45.6866573" lon="11.8885444"><ele>49.0</ele><time>2026-04-26T07:15:49.044Z</time></trkpt><trkpt lat="45.6867161" lon="11.888423"><ele>49.0</ele><time>2026-04-26T07:15:50.041Z</time></trkpt><trkpt lat="45.6867691" lon="11.8882823"><ele>49.0</ele><time>2026-04-26T07:15:51.041Z</time></trkpt><trkpt lat="45.6868281" lon="11.8881402"><ele>49.0</ele><time>2026-04-26T07:15:52.05Z</time></trkpt><trkpt lat="45.6868888" lon="11.8879964"><ele>49.0</ele><time>2026-04-26T07:15:53.06Z</time></trkpt><trkpt lat="45.6869563" lon="11.8878552"><ele>49.0</ele><time>2026-04-26T07:15:54.064Z</time></trkpt><trkpt lat="45.6870352" lon="11.8877213"><ele>49.0</ele><time>2026-04-26T07:15:55.056Z</time></trkpt><trkpt lat="45.6870894" lon="11.8875651"><ele>49.0</ele><time>2026-04-26T07:15:56.047Z</time></trkpt><trkpt lat="45.6871488" lon="11.8874064"><ele>49.0</ele><time>2026-04-26T07:15:57.056Z</time></trkpt><trkpt lat="45.6872066" lon="11.8872404"><ele>49.0</ele><time>2026-04-26T07:15:58.045Z</time></trkpt><trkpt lat="45.6872707" lon="11.8870715"><ele>49.0</ele><time>2026-04-26T07:15:59.064Z</time></trkpt><trkpt lat="45.6873353" lon="11.8868955"><ele>49.0</ele><time>2026-04-26T07:16:00.063Z</time></trkpt><trkpt lat="45.6874051" lon="11.8867164"><ele>49.0</ele><time>2026-04-26T07:16:01.035Z</time></trkpt><trkpt lat="45.6874749" lon="11.8865342"><ele>49.25</ele><time>2026-04-26T07:16:02.035Z</time></trkpt><trkpt lat="45.6875433" lon="11.8863572"><ele>49.5</ele><time>2026-04-26T07:16:03.04Z</time></trkpt><trkpt lat="45.6876031" lon="11.8861802"><ele>49.75</ele><time>2026-04-26T07:16:04.05Z</time></trkpt><trkpt lat="45.6876677" lon="11.8860146"><ele>50.0</ele><time>2026-04-26T07:16:05.057Z</time></trkpt><trkpt lat="45.6877281" lon="11.885846"><ele>50.5</ele><time>2026-04-26T07:16:06.043Z</time></trkpt><trkpt lat="45.6877976" lon="11.885685"><ele>51.0</ele><time>2026-04-26T07:16:07.041Z</time></trkpt><trkpt lat="45.687863" lon="11.8855225"><ele>51.5</ele><time>2026-04-26T07:16:08.035Z</time></trkpt><trkpt lat="45.6879327" lon="11.8853691"><ele>52.0</ele><time>2026-04-26T07:16:09.026Z</time></trkpt><trkpt lat="45.6879966" lon="11.8852171"><ele>51.6</ele><time>2026-04-26T07:16:10.032Z</time></trkpt><trkpt lat="45.6880686" lon="11.8850769"><ele>51.2</ele><time>2026-04-26T07:16:11.044Z</time></trkpt><trkpt lat="45.6881291" lon="11.8849418"><ele>50.8</ele><time>2026-04-26T07:16:12.051Z</time></trkpt><trkpt lat="45.6881813" lon="11.8848245"><ele>50.4</ele><time>2026-04-26T07:16:13.042Z</time></trkpt><trkpt lat="45.6882319" lon="11.8847227"><ele>50.0</ele><time>2026-04-26T07:16:14.041Z</time></trkpt><trkpt lat="45.688266" lon="11.8846133"><ele>50.00000000000001</ele><time>2026-04-26T07:16:15.038Z</time></trkpt><trkpt lat="45.6882995" lon="11.8845121"><ele>50.0</ele><time>2026-04-26T07:16:16.046Z</time></trkpt><trkpt lat="45.6883348" lon="11.8844306"><ele>50.0</ele><time>2026-04-26T07:16:17.049Z</time></trkpt><trkpt lat="45.6883751" lon="11.8843314"><ele>50.0</ele><time>2026-04-26T07:16:19.049Z</time></trkpt><trkpt lat="45.6884412" lon="11.8842329"><ele>50.00000000000001</ele><time>2026-04-26T07:16:22.061Z</time></trkpt><trkpt lat="45.688492" lon="11.8841002"><ele>50.0</ele><time>2026-04-26T07:16:24.044Z</time></trkpt><trkpt lat="45.6885274" lon="11.8840058"><ele>50.0</ele><time>2026-04-26T07:16:25.058Z</time></trkpt><trkpt lat="45.6885722" lon="11.8838865"><ele>50.0</ele><time>2026-04-26T07:16:26.024Z</time></trkpt><trkpt lat="45.6886284" lon="11.8837523"><ele>50.0</ele><time>2026-04-26T07:16:27.035Z</time></trkpt><trkpt lat="45.6886828" lon="11.8836224"><ele>50.0</ele><time>2026-04-26T07:16:28.044Z</time></trkpt><trkpt lat="45.6887393" lon="11.8834919"><ele>50.0</ele><time>2026-04-26T07:16:29.042Z</time></trkpt><trkpt lat="45.688792" lon="11.8833537"><ele>50.25</ele><time>2026-04-26T07:16:30.055Z</time></trkpt><trkpt lat="45.6888525" lon="11.883215"><ele>50.5</ele><time>2026-04-26T07:16:31.049Z</time></trkpt><trkpt lat="45.6888972" lon="11.8830591"><ele>50.75</ele><time>2026-04-26T07:16:32.037Z</time></trkpt><trkpt lat="45.6889611" lon="11.8829243"><ele>51.0</ele><time>2026-04-26T07:16:33.035Z</time></trkpt><trkpt lat="45.6890214" lon="11.8827918"><ele>51.0</ele><time>2026-04-26T07:16:34.036Z</time></trkpt><trkpt lat="45.6890823" lon="11.8826657"><ele>51.0</ele><time>2026-04-26T07:16:35.041Z</time></trkpt><trkpt lat="45.6891387" lon="11.8825399"><ele>51.0</ele><time>2026-04-26T07:16:36.034Z</time></trkpt><trkpt lat="45.6891915" lon="11.8824142"><ele>51.0</ele><time>2026-04-26T07:16:37.042Z</time></trkpt><trkpt lat="45.6892377" lon="11.8822964"><ele>51.0</ele><time>2026-04-26T07:16:38.043Z</time></trkpt><trkpt lat="45.6892794" lon="11.8821903"><ele>51.166666666666664</ele><time>2026-04-26T07:16:39.039Z</time></trkpt><trkpt lat="45.6893265" lon="11.8820907"><ele>51.33333333333333</ele><time>2026-04-26T07:16:40.039Z</time></trkpt><trkpt lat="45.6893742" lon="11.8819935"><ele>51.5</ele><time>2026-04-26T07:16:41.041Z</time></trkpt><trkpt lat="45.6894103" lon="11.8818869"><ele>51.666666666666664</ele><time>2026-04-26T07:16:42.041Z</time></trkpt><trkpt lat="45.6894518" lon="11.8817872"><ele>51.83333333333333</ele><time>2026-04-26T07:16:43.043Z</time></trkpt><trkpt lat="45.6894983" lon="11.8817032"><ele>52.0</ele><time>2026-04-26T07:16:44.043Z</time></trkpt><trkpt lat="45.68955" lon="11.8816346"><ele>52.0</ele><time>2026-04-26T07:16:45.049Z</time></trkpt><trkpt lat="45.6896042" lon="11.8815593"><ele>52.0</ele><time>2026-04-26T07:16:46.051Z</time></trkpt><trkpt lat="45.6896516" lon="11.8814549"><ele>52.0</ele><time>2026-04-26T07:16:47.039Z</time></trkpt><trkpt lat="45.689713" lon="11.881345"><ele>52.0</ele><time>2026-04-26T07:16:48.041Z</time></trkpt><trkpt lat="45.6897798" lon="11.8812165"><ele>52.0</ele><time>2026-04-26T07:16:49.043Z</time></trkpt><trkpt lat="45.6898372" lon="11.8810649"><ele>51.75</ele><time>2026-04-26T07:16:50.038Z</time></trkpt><trkpt lat="45.6899117" lon="11.8809202"><ele>51.5</ele><time>2026-04-26T07:16:51.047Z</time></trkpt><trkpt lat="45.6899953" lon="11.8807768"><ele>51.25</ele><time>2026-04-26T07:16:52.039Z</time></trkpt><trkpt lat="45.6900887" lon="11.8806352"><ele>51.0</ele><time>2026-04-26T07:16:53.043Z</time></trkpt><trkpt lat="45.6901871" lon="11.8804887"><ele>51.0</ele><time>2026-04-26T07:16:54.049Z</time></trkpt><trkpt lat="45.690275" lon="11.8803232"><ele>51.0</ele><time>2026-04-26T07:16:55.036Z</time></trkpt><trkpt lat="45.6903607" lon="11.8801494"><ele>51.0</ele><time>2026-04-26T07:16:56.047Z</time></trkpt><trkpt lat="45.6904488" lon="11.8799695"><ele>51.0</ele><time>2026-04-26T07:16:57.051Z</time></trkpt><trkpt lat="45.6905416" lon="11.8797886"><ele>51.0</ele><time>2026-04-26T07:16:58.037Z</time></trkpt><trkpt lat="45.6906449" lon="11.8796145"><ele>51.0</ele><time>2026-04-26T07:16:59.053Z</time></trkpt><trkpt lat="45.6907343" lon="11.8794242"><ele>51.0</ele><time>2026-04-26T07:17:00.04Z</time></trkpt><trkpt lat="45.6908289" lon="11.879235"><ele>51.0</ele><time>2026-04-26T07:17:01.044Z</time></trkpt><trkpt lat="45.690936" lon="11.8790533"><ele>51.0</ele><time>2026-04-26T07:17:02.053Z</time></trkpt><trkpt lat="45.6910285" lon="11.8788555"><ele>51.0</ele><time>2026-04-26T07:17:03.041Z</time></trkpt><trkpt lat="45.6911333" lon="11.8786706"><ele>51.0</ele><time>2026-04-26T07:17:04.08Z</time></trkpt><trkpt lat="45.6912275" lon="11.8784806"><ele>51.0</ele><time>2026-04-26T07:17:05.045Z</time></trkpt><trkpt lat="45.6913224" lon="11.8782958"><ele>51.0</ele><time>2026-04-26T07:17:06.042Z</time></trkpt><trkpt lat="45.6914202" lon="11.8781145"><ele>51.0</ele><time>2026-04-26T07:17:07.047Z</time></trkpt><trkpt lat="45.6915246" lon="11.8779408"><ele>51.0</ele><time>2026-04-26T07:17:08.031Z</time></trkpt><trkpt lat="45.6916216" lon="11.8777629"><ele>51.0</ele><time>2026-04-26T07:17:09.064Z</time></trkpt><trkpt lat="45.6917086" lon="11.8775788"><ele>50.66666666666667</ele><time>2026-04-26T07:17:10.038Z</time></trkpt><trkpt lat="45.6917984" lon="11.8774013"><ele>50.333333333333336</ele><time>2026-04-26T07:17:11.05Z</time></trkpt><trkpt lat="45.6918925" lon="11.8772262"><ele>50.0</ele><time>2026-04-26T07:17:12.063Z</time></trkpt><trkpt lat="45.6919829" lon="11.8770494"><ele>50.0</ele><time>2026-04-26T07:17:13.046Z</time></trkpt><trkpt lat="45.6920799" lon="11.8768825"><ele>50.0</ele><time>2026-04-26T07:17:14.053Z</time></trkpt><trkpt lat="45.6921678" lon="11.8767098"><ele>50.0</ele><time>2026-04-26T07:17:15.048Z</time></trkpt><trkpt lat="45.6922582" lon="11.8765445"><ele>50.0</ele><time>2026-04-26T07:17:16.045Z</time></trkpt><trkpt lat="45.6923685" lon="11.8764072"><ele>50.5</ele><time>2026-04-26T07:17:17.04Z</time></trkpt><trkpt lat="45.692463" lon="11.876258"><ele>51.0</ele><time>2026-04-26T07:17:18.067Z</time></trkpt><trkpt lat="45.6925512" lon="11.8761072"><ele>51.5</ele><time>2026-04-26T07:17:19.06Z</time></trkpt><trkpt lat="45.6926355" lon="11.8759597"><ele>52.0</ele><time>2026-04-26T07:17:20.047Z</time></trkpt><trkpt lat="45.6927135" lon="11.8758149"><ele>53.0</ele><time>2026-04-26T07:17:21.056Z</time></trkpt><trkpt lat="45.6927855" lon="11.8756676"><ele>54.0</ele><time>2026-04-26T07:17:22.048Z</time></trkpt><trkpt lat="45.6928672" lon="11.8755356"><ele>55.0</ele><time>2026-04-26T07:17:23.049Z</time></trkpt><trkpt lat="45.6929434" lon="11.8754002"><ele>56.0</ele><time>2026-04-26T07:17:24.039Z</time></trkpt><trkpt lat="45.6930193" lon="11.8752601"><ele>56.0</ele><time>2026-04-26T07:17:25.043Z</time></trkpt><trkpt lat="45.6930955" lon="11.8751131"><ele>56.0</ele><time>2026-04-26T07:17:26.055Z</time></trkpt><trkpt lat="45.6931778" lon="11.8749655"><ele>56.0</ele><time>2026-04-26T07:17:27.05Z</time></trkpt><trkpt lat="45.6932595" lon="11.874803"><ele>56.0</ele><time>2026-04-26T07:17:28.057Z</time></trkpt><trkpt lat="45.693346" lon="11.8746365"><ele>55.333333333333336</ele><time>2026-04-26T07:17:29.061Z</time></trkpt><trkpt lat="45.6934322" lon="11.8744612"><ele>54.66666666666667</ele><time>2026-04-26T07:17:30.056Z</time></trkpt><trkpt lat="45.6935221" lon="11.8742828"><ele>54.0</ele><time>2026-04-26T07:17:31.058Z</time></trkpt><trkpt lat="45.6936113" lon="11.8741026"><ele>53.66666666666667</ele><time>2026-04-26T07:17:32.048Z</time></trkpt><trkpt lat="45.6937038" lon="11.8739284"><ele>53.333333333333336</ele><time>2026-04-26T07:17:33.053Z</time></trkpt><trkpt lat="45.6937884" lon="11.8737454"><ele>53.0</ele><time>2026-04-26T07:17:34.044Z</time></trkpt><trkpt lat="45.6938758" lon="11.8735644"><ele>53.0</ele><time>2026-04-26T07:17:35.055Z</time></trkpt><trkpt lat="45.6939543" lon="11.8733742"><ele>53.0</ele><time>2026-04-26T07:17:36.059Z</time></trkpt><trkpt lat="45.6940301" lon="11.8731814"><ele>53.0</ele><time>2026-04-26T07:17:37.061Z</time></trkpt><trkpt lat="45.6940977" lon="11.8729755"><ele>53.0</ele><time>2026-04-26T07:17:38.055Z</time></trkpt><trkpt lat="45.6941646" lon="11.8727566"><ele>53.0</ele><time>2026-04-26T07:17:39.047Z</time></trkpt><trkpt lat="45.6942349" lon="11.8725344"><ele>53.0</ele><time>2026-04-26T07:17:40.05Z</time></trkpt><trkpt lat="45.6943057" lon="11.8723105"><ele>53.0</ele><time>2026-04-26T07:17:41.066Z</time></trkpt><trkpt lat="45.6943783" lon="11.8720883"><ele>53.0</ele><time>2026-04-26T07:17:42.075Z</time></trkpt><trkpt lat="45.694445" lon="11.8718636"><ele>53.0</ele><time>2026-04-26T07:17:43.063Z</time></trkpt><trkpt lat="45.6945161" lon="11.8716469"><ele>53.66666666666667</ele><time>2026-04-26T07:17:44.053Z</time></trkpt><trkpt lat="45.6945862" lon="11.8714299"><ele>54.33333333333333</ele><time>2026-04-26T07:17:45.051Z</time></trkpt><trkpt lat="45.6946575" lon="11.8712152"><ele>55.0</ele><time>2026-04-26T07:17:46.042Z</time></trkpt><trkpt lat="45.6947303" lon="11.871"><ele>55.0</ele><time>2026-04-26T07:17:47.041Z</time></trkpt><trkpt lat="45.694799" lon="11.8707842"><ele>55.0</ele><time>2026-04-26T07:17:48.069Z</time></trkpt><trkpt lat="45.6948674" lon="11.8705716"><ele>55.0</ele><time>2026-04-26T07:17:49.042Z</time></trkpt><trkpt lat="45.6949339" lon="11.8703642"><ele>55.0</ele><time>2026-04-26T07:17:50.039Z</time></trkpt><trkpt lat="45.6950008" lon="11.8701638"><ele>55.0</ele><time>2026-04-26T07:17:51.065Z</time></trkpt><trkpt lat="45.6950663" lon="11.8699677"><ele>55.0</ele><time>2026-04-26T07:17:52.061Z</time></trkpt><trkpt lat="45.6951314" lon="11.8697734"><ele>54.666666666666664</ele><time>2026-04-26T07:17:53.062Z</time></trkpt><trkpt lat="45.6951958" lon="11.8695753"><ele>54.33333333333333</ele><time>2026-04-26T07:17:54.053Z</time></trkpt><trkpt lat="45.69526" lon="11.8693714"><ele>54.0</ele><time>2026-04-26T07:17:55.055Z</time></trkpt><trkpt lat="45.6953272" lon="11.8691645"><ele>53.66666666666667</ele><time>2026-04-26T07:17:56.059Z</time></trkpt><trkpt lat="45.6953952" lon="11.8689553"><ele>53.333333333333336</ele><time>2026-04-26T07:17:57.05Z</time></trkpt><trkpt lat="45.6954616" lon="11.8687494"><ele>53.0</ele><time>2026-04-26T07:17:58.046Z</time></trkpt><trkpt lat="45.6955246" lon="11.868547"><ele>53.333333333333336</ele><time>2026-04-26T07:17:59.06Z</time></trkpt><trkpt lat="45.695581" lon="11.8683399"><ele>53.66666666666667</ele><time>2026-04-26T07:18:00.045Z</time></trkpt><trkpt lat="45.6956206" lon="11.8681184"><ele>54.0</ele><time>2026-04-26T07:18:01.046Z</time></trkpt><trkpt lat="45.6956453" lon="11.8678862"><ele>54.0</ele><time>2026-04-26T07:18:02.081Z</time></trkpt><trkpt lat="45.6956578" lon="11.8676465"><ele>54.0</ele><time>2026-04-26T07:18:03.042Z</time></trkpt><trkpt lat="45.6956658" lon="11.8674026"><ele>54.0</ele><time>2026-04-26T07:18:04.055Z</time></trkpt><trkpt lat="45.6956632" lon="11.8671606"><ele>54.33333333333333</ele><time>2026-04-26T07:18:05.046Z</time></trkpt><trkpt lat="45.6956446" lon="11.8669187"><ele>54.666666666666664</ele><time>2026-04-26T07:18:06.051Z</time></trkpt><trkpt lat="45.6956118" lon="11.8666836"><ele>55.0</ele><time>2026-04-26T07:18:07.054Z</time></trkpt><trkpt lat="45.6955693" lon="11.8664574"><ele>55.33333333333333</ele><time>2026-04-26T07:18:08.051Z</time></trkpt><trkpt lat="45.6955287" lon="11.8662399"><ele>55.66666666666667</ele><time>2026-04-26T07:18:09.064Z</time></trkpt><trkpt lat="45.695487" lon="11.8660338"><ele>56.0</ele><time>2026-04-26T07:18:10.069Z</time></trkpt><trkpt lat="45.6954501" lon="11.8658322"><ele>55.5</ele><time>2026-04-26T07:18:11.042Z</time></trkpt><trkpt lat="45.6954095" lon="11.8656362"><ele>55.0</ele><time>2026-04-26T07:18:12.087Z</time></trkpt><trkpt lat="45.695374" lon="11.8654436"><ele>54.5</ele><time>2026-04-26T07:18:13.049Z</time></trkpt><trkpt lat="45.6953395" lon="11.8652582"><ele>54.0</ele><time>2026-04-26T07:18:14.053Z</time></trkpt><trkpt lat="45.6953059" lon="11.8650766"><ele>54.0</ele><time>2026-04-26T07:18:15.05Z</time></trkpt><trkpt lat="45.6952694" lon="11.8648963"><ele>54.0</ele><time>2026-04-26T07:18:16.039Z</time></trkpt><trkpt lat="45.6952355" lon="11.8647117"><ele>54.0</ele><time>2026-04-26T07:18:17.046Z</time></trkpt><trkpt lat="45.6952132" lon="11.8645184"><ele>54.0</ele><time>2026-04-26T07:18:18.047Z</time></trkpt><trkpt lat="45.6951839" lon="11.8643216"><ele>54.25</ele><time>2026-04-26T07:18:19.071Z</time></trkpt><trkpt lat="45.6951501" lon="11.8641214"><ele>54.5</ele><time>2026-04-26T07:18:20.06Z</time></trkpt><trkpt lat="45.6951113" lon="11.8639154"><ele>54.75</ele><time>2026-04-26T07:18:21.078Z</time></trkpt><trkpt lat="45.6950783" lon="11.8636998"><ele>55.0</ele><time>2026-04-26T07:18:22.051Z</time></trkpt><trkpt lat="45.6950413" lon="11.8634797"><ele>55.33333333333333</ele><time>2026-04-26T07:18:23.065Z</time></trkpt><trkpt lat="45.6950041" lon="11.8632563"><ele>55.66666666666667</ele><time>2026-04-26T07:18:24.075Z</time></trkpt><trkpt lat="45.69497" lon="11.8630268"><ele>56.0</ele><time>2026-04-26T07:18:25.046Z</time></trkpt><trkpt lat="45.6949333" lon="11.8627964"><ele>56.0</ele><time>2026-04-26T07:18:26.052Z</time></trkpt><trkpt lat="45.6948983" lon="11.8625628"><ele>56.0</ele><time>2026-04-26T07:18:27.053Z</time></trkpt><trkpt lat="45.6948597" lon="11.8623285"><ele>56.0</ele><time>2026-04-26T07:18:28.064Z</time></trkpt><trkpt lat="45.6948223" lon="11.8620931"><ele>56.0</ele><time>2026-04-26T07:18:29.056Z</time></trkpt><trkpt lat="45.6947806" lon="11.8618574"><ele>56.0</ele><time>2026-04-26T07:18:30.041Z</time></trkpt><trkpt lat="45.6947406" lon="11.8616199"><ele>56.0</ele><time>2026-04-26T07:18:31.044Z</time></trkpt><trkpt lat="45.6947019" lon="11.8613802"><ele>55.66666666666667</ele><time>2026-04-26T07:18:32.055Z</time></trkpt><trkpt lat="45.6946606" lon="11.8611397"><ele>55.33333333333333</ele><time>2026-04-26T07:18:33.054Z</time></trkpt><trkpt lat="45.6946198" lon="11.8608981"><ele>55.0</ele><time>2026-04-26T07:18:34.041Z</time></trkpt><trkpt lat="45.6945791" lon="11.8606565"><ele>54.666666666666664</ele><time>2026-04-26T07:18:35.044Z</time></trkpt><trkpt lat="45.6945371" lon="11.8604153"><ele>54.33333333333333</ele><time>2026-04-26T07:18:36.036Z</time></trkpt><trkpt lat="45.6944924" lon="11.8601764"><ele>54.0</ele><time>2026-04-26T07:18:37.047Z</time></trkpt><trkpt lat="45.6944456" lon="11.8599443"><ele>54.33333333333333</ele><time>2026-04-26T07:18:38.062Z</time></trkpt><trkpt lat="45.6943939" lon="11.8597145"><ele>54.666666666666664</ele><time>2026-04-26T07:18:39.037Z</time></trkpt><trkpt lat="45.6943481" lon="11.8594845"><ele>55.0</ele><time>2026-04-26T07:18:40.066Z</time></trkpt><trkpt lat="45.6942966" lon="11.8592579"><ele>55.33333333333333</ele><time>2026-04-26T07:18:41.04Z</time></trkpt><trkpt lat="45.6942515" lon="11.8590296"><ele>55.66666666666667</ele><time>2026-04-26T07:18:42.048Z</time></trkpt><trkpt lat="45.6942074" lon="11.8588024"><ele>56.0</ele><time>2026-04-26T07:18:43.067Z</time></trkpt><trkpt lat="45.6941636" lon="11.8585771"><ele>56.333333333333336</ele><time>2026-04-26T07:18:44.058Z</time></trkpt><trkpt lat="45.694125" lon="11.858351"><ele>56.66666666666667</ele><time>2026-04-26T07:18:45.049Z</time></trkpt><trkpt lat="45.6940904" lon="11.8581248"><ele>57.0</ele><time>2026-04-26T07:18:46.041Z</time></trkpt><trkpt lat="45.6940535" lon="11.8578994"><ele>57.0</ele><time>2026-04-26T07:18:47.049Z</time></trkpt><trkpt lat="45.6940143" lon="11.8576733"><ele>57.0</ele><time>2026-04-26T07:18:48.065Z</time></trkpt><trkpt lat="45.6939755" lon="11.8574439"><ele>57.0</ele><time>2026-04-26T07:18:49.052Z</time></trkpt><trkpt lat="45.6939333" lon="11.857214"><ele>56.66666666666667</ele><time>2026-04-26T07:18:50.059Z</time></trkpt><trkpt lat="45.6938944" lon="11.8569802"><ele>56.333333333333336</ele><time>2026-04-26T07:18:51.047Z</time></trkpt><trkpt lat="45.6938532" lon="11.856746"><ele>56.0</ele><time>2026-04-26T07:18:52.04Z</time></trkpt><trkpt lat="45.6938174" lon="11.8565087"><ele>56.0</ele><time>2026-04-26T07:18:53.045Z</time></trkpt><trkpt lat="45.6937871" lon="11.8562662"><ele>56.0</ele><time>2026-04-26T07:18:54.057Z</time></trkpt><trkpt lat="45.693759" lon="11.8560206"><ele>56.0</ele><time>2026-04-26T07:18:55.04Z</time></trkpt><trkpt lat="45.6937305" lon="11.8557757"><ele>56.0</ele><time>2026-04-26T07:18:56.058Z</time></trkpt><trkpt lat="45.6937037" lon="11.855526"><ele>56.0</ele><time>2026-04-26T07:18:57.059Z</time></trkpt><trkpt lat="45.6936718" lon="11.8552739"><ele>56.0</ele><time>2026-04-26T07:18:58.053Z</time></trkpt><trkpt lat="45.6936513" lon="11.855015"><ele>56.0</ele><time>2026-04-26T07:18:59.057Z</time></trkpt><trkpt lat="45.69362" lon="11.8547567"><ele>56.0</ele><time>2026-04-26T07:19:00.067Z</time></trkpt><trkpt lat="45.693576" lon="11.8545009"><ele>56.0</ele><time>2026-04-26T07:19:01.049Z</time></trkpt><trkpt lat="45.6935417" lon="11.8542399"><ele>56.0</ele><time>2026-04-26T07:19:02.056Z</time></trkpt><trkpt lat="45.6935231" lon="11.8539699"><ele>56.0</ele><time>2026-04-26T07:19:03.045Z</time></trkpt><trkpt lat="45.6934912" lon="11.8537016"><ele>56.0</ele><time>2026-04-26T07:19:04.042Z</time></trkpt><trkpt lat="45.6934583" lon="11.8534322"><ele>56.0</ele><time>2026-04-26T07:19:05.061Z</time></trkpt><trkpt lat="45.6934197" lon="11.8531634"><ele>56.0</ele><time>2026-04-26T07:19:06.039Z</time></trkpt><trkpt lat="45.6933823" lon="11.8528957"><ele>56.0</ele><time>2026-04-26T07:19:07.041Z</time></trkpt><trkpt lat="45.6933305" lon="11.8526325"><ele>56.0</ele><time>2026-04-26T07:19:08.046Z</time></trkpt><trkpt lat="45.6932865" lon="11.8523675"><ele>56.0</ele><time>2026-04-26T07:19:09.05Z</time></trkpt><trkpt lat="45.6932457" lon="11.8521023"><ele>56.0</ele><time>2026-04-26T07:19:10.066Z</time></trkpt><trkpt lat="45.6932024" lon="11.8518397"><ele>56.0</ele><time>2026-04-26T07:19:11.061Z</time></trkpt><trkpt lat="45.6931646" lon="11.8515756"><ele>56.0</ele><time>2026-04-26T07:19:12.061Z</time></trkpt><trkpt lat="45.6931186" lon="11.8513127"><ele>56.0</ele><time>2026-04-26T07:19:13.045Z</time></trkpt><trkpt lat="45.6930763" lon="11.8510492"><ele>55.66666666666667</ele><time>2026-04-26T07:19:14.064Z</time></trkpt><trkpt lat="45.6930411" lon="11.8507843"><ele>55.33333333333333</ele><time>2026-04-26T07:19:15.05Z</time></trkpt><trkpt lat="45.6930179" lon="11.850518"><ele>55.0</ele><time>2026-04-26T07:19:16.044Z</time></trkpt><trkpt lat="45.6929876" lon="11.8502551"><ele>55.33333333333333</ele><time>2026-04-26T07:19:17.049Z</time></trkpt><trkpt lat="45.692943" lon="11.8500008"><ele>55.66666666666667</ele><time>2026-04-26T07:19:18.051Z</time></trkpt><trkpt lat="45.6929136" lon="11.8497511"><ele>56.0</ele><time>2026-04-26T07:19:19.061Z</time></trkpt><trkpt lat="45.6928858" lon="11.8495083"><ele>56.0</ele><time>2026-04-26T07:19:20.054Z</time></trkpt><trkpt lat="45.6928492" lon="11.8492765"><ele>56.0</ele><time>2026-04-26T07:19:21.047Z</time></trkpt><trkpt lat="45.6927999" lon="11.8490626"><ele>56.0</ele><time>2026-04-26T07:19:22.044Z</time></trkpt><trkpt lat="45.6927644" lon="11.8488631"><ele>55.8</ele><time>2026-04-26T07:19:23.046Z</time></trkpt><trkpt lat="45.692741" lon="11.8486867"><ele>55.599999999999994</ele><time>2026-04-26T07:19:24.046Z</time></trkpt><trkpt lat="45.6927359" lon="11.8485285"><ele>55.4</ele><time>2026-04-26T07:19:25.045Z</time></trkpt><trkpt lat="45.6927699" lon="11.8483828"><ele>55.2</ele><time>2026-04-26T07:19:26.053Z</time></trkpt><trkpt lat="45.692807" lon="11.8482459"><ele>55.0</ele><time>2026-04-26T07:19:27.051Z</time></trkpt><trkpt lat="45.6928231" lon="11.8481092"><ele>55.0</ele><time>2026-04-26T07:19:28.04Z</time></trkpt><trkpt lat="45.6928307" lon="11.8479685"><ele>55.0</ele><time>2026-04-26T07:19:29.054Z</time></trkpt><trkpt lat="45.6927786" lon="11.8478353"><ele>55.0</ele><time>2026-04-26T07:19:30.051Z</time></trkpt><trkpt lat="45.6927048" lon="11.8477053"><ele>55.0</ele><time>2026-04-26T07:19:31.046Z</time></trkpt><trkpt lat="45.6926364" lon="11.8475289"><ele>55.666666666666664</ele><time>2026-04-26T07:19:32.054Z</time></trkpt><trkpt lat="45.6925702" lon="11.8473316"><ele>56.33333333333333</ele><time>2026-04-26T07:19:33.038Z</time></trkpt><trkpt lat="45.6925193" lon="11.8471116"><ele>57.0</ele><time>2026-04-26T07:19:34.073Z</time></trkpt><trkpt lat="45.6924959" lon="11.8468792"><ele>57.0</ele><time>2026-04-26T07:19:35.058Z</time></trkpt><trkpt lat="45.6924726" lon="11.8466368"><ele>57.0</ele><time>2026-04-26T07:19:36.065Z</time></trkpt><trkpt lat="45.6924344" lon="11.8463905"><ele>57.0</ele><time>2026-04-26T07:19:37.045Z</time></trkpt><trkpt lat="45.6923922" lon="11.8461464"><ele>56.66666666666667</ele><time>2026-04-26T07:19:38.043Z</time></trkpt><trkpt lat="45.6923464" lon="11.8458981"><ele>56.333333333333336</ele><time>2026-04-26T07:19:39.058Z</time></trkpt><trkpt lat="45.6923077" lon="11.8456484"><ele>56.0</ele><time>2026-04-26T07:19:40.048Z</time></trkpt><trkpt lat="45.6922797" lon="11.8453921"><ele>56.0</ele><time>2026-04-26T07:19:41.039Z</time></trkpt><trkpt lat="45.6922654" lon="11.8451333"><ele>56.0</ele><time>2026-04-26T07:19:42.049Z</time></trkpt><trkpt lat="45.6922611" lon="11.8448697"><ele>56.0</ele><time>2026-04-26T07:19:43.047Z</time></trkpt><trkpt lat="45.6922944" lon="11.8446096"><ele>56.333333333333336</ele><time>2026-04-26T07:19:44.038Z</time></trkpt><trkpt lat="45.6923379" lon="11.8443514"><ele>56.66666666666667</ele><time>2026-04-26T07:19:45.051Z</time></trkpt><trkpt lat="45.6924003" lon="11.8441003"><ele>57.0</ele><time>2026-04-26T07:19:46.051Z</time></trkpt><trkpt lat="45.6925077" lon="11.8438728"><ele>57.0</ele><time>2026-04-26T07:19:47.051Z</time></trkpt><trkpt lat="45.692593" lon="11.8436267"><ele>57.0</ele><time>2026-04-26T07:19:48.039Z</time></trkpt><trkpt lat="45.6927015" lon="11.8433973"><ele>57.0</ele><time>2026-04-26T07:19:49.061Z</time></trkpt><trkpt lat="45.6928128" lon="11.8431761"><ele>57.0</ele><time>2026-04-26T07:19:50.056Z</time></trkpt><trkpt lat="45.6929219" lon="11.8429597"><ele>57.0</ele><time>2026-04-26T07:19:51.048Z</time></trkpt><trkpt lat="45.6930298" lon="11.8427467"><ele>57.0</ele><time>2026-04-26T07:19:52.049Z</time></trkpt><trkpt lat="45.6931325" lon="11.8425342"><ele>57.66666666666667</ele><time>2026-04-26T07:19:53.051Z</time></trkpt><trkpt lat="45.6932392" lon="11.8423276"><ele>58.333333333333336</ele><time>2026-04-26T07:19:54.053Z</time></trkpt><trkpt lat="45.6933421" lon="11.842117"><ele>59.0</ele><time>2026-04-26T07:19:55.046Z</time></trkpt><trkpt lat="45.6934529" lon="11.8419077"><ele>59.333333333333336</ele><time>2026-04-26T07:19:56.046Z</time></trkpt><trkpt lat="45.693564" lon="11.8416919"><ele>59.66666666666667</ele><time>2026-04-26T07:19:57.059Z</time></trkpt><trkpt lat="45.6936728" lon="11.8414671"><ele>60.0</ele><time>2026-04-26T07:19:58.025Z</time></trkpt><trkpt lat="45.6937879" lon="11.8412441"><ele>60.33333333333333</ele><time>2026-04-26T07:19:59.045Z</time></trkpt><trkpt lat="45.693901" lon="11.8410183"><ele>60.666666666666664</ele><time>2026-04-26T07:20:00.046Z</time></trkpt><trkpt lat="45.6940163" lon="11.8407953"><ele>61.0</ele><time>2026-04-26T07:20:01.046Z</time></trkpt><trkpt lat="45.6941357" lon="11.8405766"><ele>61.0</ele><time>2026-04-26T07:20:02.062Z</time></trkpt><trkpt lat="45.6942515" lon="11.8403566"><ele>61.0</ele><time>2026-04-26T07:20:03.047Z</time></trkpt><trkpt lat="45.6943671" lon="11.8401393"><ele>61.0</ele><time>2026-04-26T07:20:04.06Z</time></trkpt><trkpt lat="45.6944815" lon="11.8399219"><ele>61.0</ele><time>2026-04-26T07:20:05.057Z</time></trkpt><trkpt lat="45.6945913" lon="11.8396994"><ele>61.0</ele><time>2026-04-26T07:20:06.06Z</time></trkpt><trkpt lat="45.6947069" lon="11.8394782"><ele>61.0</ele><time>2026-04-26T07:20:07.034Z</time></trkpt><trkpt lat="45.6948218" lon="11.8392527"><ele>61.0</ele><time>2026-04-26T07:20:08.058Z</time></trkpt><trkpt lat="45.6949334" lon="11.839028"><ele>61.0</ele><time>2026-04-26T07:20:09.042Z</time></trkpt><trkpt lat="45.6950427" lon="11.8388135"><ele>61.0</ele><time>2026-04-26T07:20:10.067Z</time></trkpt><trkpt lat="45.695149" lon="11.8386095"><ele>61.33333333333333</ele><time>2026-04-26T07:20:11.061Z</time></trkpt><trkpt lat="45.6952552" lon="11.8384162"><ele>61.66666666666667</ele><time>2026-04-26T07:20:12.042Z</time></trkpt><trkpt lat="45.6953557" lon="11.8382245"><ele>62.0</ele><time>2026-04-26T07:20:13.047Z</time></trkpt><trkpt lat="45.695455" lon="11.8380355"><ele>62.0</ele><time>2026-04-26T07:20:14.056Z</time></trkpt><trkpt lat="45.6955484" lon="11.8378459"><ele>62.0</ele><time>2026-04-26T07:20:15.051Z</time></trkpt><trkpt lat="45.6956386" lon="11.8376598"><ele>62.0</ele><time>2026-04-26T07:20:16.05Z</time></trkpt><trkpt lat="45.6957276" lon="11.8374817"><ele>62.0</ele><time>2026-04-26T07:20:17.038Z</time></trkpt><trkpt lat="45.6958139" lon="11.8373109"><ele>62.0</ele><time>2026-04-26T07:20:18.06Z</time></trkpt><trkpt lat="45.6959036" lon="11.8371445"><ele>62.0</ele><time>2026-04-26T07:20:19.037Z</time></trkpt><trkpt lat="45.6959962" lon="11.8369757"><ele>62.0</ele><time>2026-04-26T07:20:20.051Z</time></trkpt><trkpt lat="45.6960793" lon="11.8367874"><ele>61.66666666666667</ele><time>2026-04-26T07:20:21.048Z</time></trkpt><trkpt lat="45.6961838" lon="11.8366207"><ele>61.33333333333333</ele><time>2026-04-26T07:20:22.065Z</time></trkpt><trkpt lat="45.6962802" lon="11.8364487"><ele>61.0</ele><time>2026-04-26T07:20:23.069Z</time></trkpt><trkpt lat="45.6963791" lon="11.8362874"><ele>61.0</ele><time>2026-04-26T07:20:24.061Z</time></trkpt><trkpt lat="45.6964703" lon="11.8361301"><ele>61.0</ele><time>2026-04-26T07:20:25.045Z</time></trkpt><trkpt lat="45.69655" lon="11.8359725"><ele>61.0</ele><time>2026-04-26T07:20:26.039Z</time></trkpt><trkpt lat="45.6966285" lon="11.8358161"><ele>61.0</ele><time>2026-04-26T07:20:27.038Z</time></trkpt><trkpt lat="45.6966805" lon="11.8356312"><ele>61.666666666666664</ele><time>2026-04-26T07:20:28.036Z</time></trkpt><trkpt lat="45.6967481" lon="11.8354366"><ele>62.33333333333333</ele><time>2026-04-26T07:20:29.044Z</time></trkpt><trkpt lat="45.6967503" lon="11.8352206"><ele>63.0</ele><time>2026-04-26T07:20:30.043Z</time></trkpt><trkpt lat="45.6967343" lon="11.83499"><ele>63.0</ele><time>2026-04-26T07:20:31.04Z</time></trkpt><trkpt lat="45.6967335" lon="11.8347526"><ele>63.0</ele><time>2026-04-26T07:20:32.037Z</time></trkpt><trkpt lat="45.6967187" lon="11.8345222"><ele>63.0</ele><time>2026-04-26T07:20:33.045Z</time></trkpt><trkpt lat="45.6966936" lon="11.8342977"><ele>63.0</ele><time>2026-04-26T07:20:34.037Z</time></trkpt><trkpt lat="45.6966598" lon="11.8340706"><ele>63.0</ele><time>2026-04-26T07:20:35.047Z</time></trkpt><trkpt lat="45.6966286" lon="11.8338371"><ele>63.0</ele><time>2026-04-26T07:20:36.044Z</time></trkpt><trkpt lat="45.69659" lon="11.8335963"><ele>63.0</ele><time>2026-04-26T07:20:37.047Z</time></trkpt><trkpt lat="45.6965478" lon="11.8333486"><ele>63.0</ele><time>2026-04-26T07:20:38.04Z</time></trkpt><trkpt lat="45.6965111" lon="11.8331001"><ele>63.0</ele><time>2026-04-26T07:20:39.054Z</time></trkpt><trkpt lat="45.696468" lon="11.8328599"><ele>63.66666666666667</ele><time>2026-04-26T07:20:40.04Z</time></trkpt><trkpt lat="45.6964218" lon="11.8326318"><ele>64.33333333333334</ele><time>2026-04-26T07:20:41.052Z</time></trkpt><trkpt lat="45.6963666" lon="11.8324151"><ele>65.0</ele><time>2026-04-26T07:20:42.05Z</time></trkpt><trkpt lat="45.6962999" lon="11.8322298"><ele>65.0</ele><time>2026-04-26T07:20:43.044Z</time></trkpt><trkpt lat="45.696271" lon="11.8320861"><ele>65.0</ele><time>2026-04-26T07:20:44.049Z</time></trkpt><trkpt lat="45.6962786" lon="11.8319787"><ele>65.0</ele><time>2026-04-26T07:20:45.046Z</time></trkpt><trkpt lat="45.6962792" lon="11.8318464"><ele>65.0</ele><time>2026-04-26T07:20:47.054Z</time></trkpt><trkpt lat="45.6962589" lon="11.8317276"><ele>65.0</ele><time>2026-04-26T07:20:50.064Z</time></trkpt><trkpt lat="45.6962215" lon="11.8316186"><ele>65.0</ele><time>2026-04-26T07:20:56.041Z</time></trkpt><trkpt lat="45.6962354" lon="11.8314024"><ele>65.25</ele><time>2026-04-26T07:20:58.039Z</time></trkpt><trkpt lat="45.6962748" lon="11.8312334"><ele>65.5</ele><time>2026-04-26T07:20:59.058Z</time></trkpt><trkpt lat="45.6963213" lon="11.8310687"><ele>65.75</ele><time>2026-04-26T07:21:00.058Z</time></trkpt><trkpt lat="45.6963636" lon="11.8308919"><ele>66.0</ele><time>2026-04-26T07:21:01.05Z</time></trkpt><trkpt lat="45.6964033" lon="11.8307079"><ele>65.5</ele><time>2026-04-26T07:21:02.054Z</time></trkpt><trkpt lat="45.6964444" lon="11.8305145"><ele>65.0</ele><time>2026-04-26T07:21:03.046Z</time></trkpt><trkpt lat="45.6964895" lon="11.8303105"><ele>64.5</ele><time>2026-04-26T07:21:04.051Z</time></trkpt><trkpt lat="45.6965362" lon="11.8300998"><ele>64.0</ele><time>2026-04-26T07:21:05.051Z</time></trkpt><trkpt lat="45.6965783" lon="11.8298864"><ele>63.666666666666664</ele><time>2026-04-26T07:21:06.061Z</time></trkpt><trkpt lat="45.6966277" lon="11.8296818"><ele>63.33333333333333</ele><time>2026-04-26T07:21:07.06Z</time></trkpt><trkpt lat="45.6966682" lon="11.8294743"><ele>63.0</ele><time>2026-04-26T07:21:08.052Z</time></trkpt><trkpt lat="45.6967064" lon="11.8292684"><ele>63.0</ele><time>2026-04-26T07:21:09.054Z</time></trkpt><trkpt lat="45.696756" lon="11.8290644"><ele>63.0</ele><time>2026-04-26T07:21:10.043Z</time></trkpt><trkpt lat="45.6968184" lon="11.828863"><ele>63.0</ele><time>2026-04-26T07:21:11.036Z</time></trkpt><trkpt lat="45.6969029" lon="11.8286733"><ele>63.0</ele><time>2026-04-26T07:21:12.053Z</time></trkpt><trkpt lat="45.6970086" lon="11.8284984"><ele>63.0</ele><time>2026-04-26T07:21:13.063Z</time></trkpt><trkpt lat="45.6971242" lon="11.8283186"><ele>63.0</ele><time>2026-04-26T07:21:14.054Z</time></trkpt><trkpt lat="45.6972567" lon="11.8281557"><ele>63.0</ele><time>2026-04-26T07:21:15.058Z</time></trkpt><trkpt lat="45.6973951" lon="11.828003"><ele>63.0</ele><time>2026-04-26T07:21:16.043Z</time></trkpt><trkpt lat="45.6975472" lon="11.8278823"><ele>63.0</ele><time>2026-04-26T07:21:17.036Z</time></trkpt><trkpt lat="45.6977051" lon="11.8277878"><ele>63.0</ele><time>2026-04-26T07:21:18.046Z</time></trkpt><trkpt lat="45.6978667" lon="11.8277257"><ele>63.0</ele><time>2026-04-26T07:21:19.058Z</time></trkpt><trkpt lat="45.69803" lon="11.827673"><ele>63.0</ele><time>2026-04-26T07:21:20.053Z</time></trkpt><trkpt lat="45.6981946" lon="11.8276184"><ele>63.0</ele><time>2026-04-26T07:21:21.041Z</time></trkpt><trkpt lat="45.6983587" lon="11.8275724"><ele>63.0</ele><time>2026-04-26T07:21:22.047Z</time></trkpt><trkpt lat="45.6985202" lon="11.8275172"><ele>63.0</ele><time>2026-04-26T07:21:23.042Z</time></trkpt><trkpt lat="45.6986767" lon="11.8274411"><ele>63.33333333333333</ele><time>2026-04-26T07:21:24.047Z</time></trkpt><trkpt lat="45.6988294" lon="11.8273471"><ele>63.666666666666664</ele><time>2026-04-26T07:21:25.039Z</time></trkpt><trkpt lat="45.6989775" lon="11.8272348"><ele>64.0</ele><time>2026-04-26T07:21:26.062Z</time></trkpt><trkpt lat="45.6991185" lon="11.8270921"><ele>64.0</ele><time>2026-04-26T07:21:27.063Z</time></trkpt><trkpt lat="45.6992621" lon="11.826937"><ele>64.0</ele><time>2026-04-26T07:21:28.054Z</time></trkpt><trkpt lat="45.6993908" lon="11.8267573"><ele>64.0</ele><time>2026-04-26T07:21:29.042Z</time></trkpt><trkpt lat="45.6995077" lon="11.8265689"><ele>64.33333333333333</ele><time>2026-04-26T07:21:30.053Z</time></trkpt><trkpt lat="45.6996169" lon="11.8263693"><ele>64.66666666666667</ele><time>2026-04-26T07:21:31.048Z</time></trkpt><trkpt lat="45.6997053" lon="11.8261492"><ele>65.0</ele><time>2026-04-26T07:21:32.057Z</time></trkpt><trkpt lat="45.699786" lon="11.8259288"><ele>65.0</ele><time>2026-04-26T07:21:33.038Z</time></trkpt><trkpt lat="45.6998698" lon="11.8257215"><ele>65.0</ele><time>2026-04-26T07:21:34.048Z</time></trkpt><trkpt lat="45.6999384" lon="11.8255078"><ele>65.0</ele><time>2026-04-26T07:21:35.06Z</time></trkpt><trkpt lat="45.7000122" lon="11.825306"><ele>65.0</ele><time>2026-04-26T07:21:36.058Z</time></trkpt><trkpt lat="45.7000847" lon="11.8251141"><ele>65.0</ele><time>2026-04-26T07:21:37.043Z</time></trkpt><trkpt lat="45.7001541" lon="11.8249279"><ele>65.0</ele><time>2026-04-26T07:21:38.081Z</time></trkpt><trkpt lat="45.7002339" lon="11.8247618"><ele>65.0</ele><time>2026-04-26T07:21:39.047Z</time></trkpt><trkpt lat="45.7003149" lon="11.8246075"><ele>65.0</ele><time>2026-04-26T07:21:40.049Z</time></trkpt><trkpt lat="45.7003898" lon="11.8244554"><ele>65.0</ele><time>2026-04-26T07:21:41.038Z</time></trkpt><trkpt lat="45.7004811" lon="11.824339"><ele>65.0</ele><time>2026-04-26T07:21:42.047Z</time></trkpt><trkpt lat="45.7005645" lon="11.8242313"><ele>65.0</ele><time>2026-04-26T07:21:43.069Z</time></trkpt><trkpt lat="45.7006215" lon="11.8241039"><ele>65.0</ele><time>2026-04-26T07:21:44.046Z</time></trkpt><trkpt lat="45.7006465" lon="11.8239537"><ele>65.0</ele><time>2026-04-26T07:21:45.05Z</time></trkpt><trkpt lat="45.700642" lon="11.8237876"><ele>65.0</ele><time>2026-04-26T07:21:46.054Z</time></trkpt><trkpt lat="45.7006443" lon="11.8236106"><ele>65.0</ele><time>2026-04-26T07:21:47.062Z</time></trkpt><trkpt lat="45.7006451" lon="11.8234182"><ele>65.0</ele><time>2026-04-26T07:21:48.039Z</time></trkpt><trkpt lat="45.7006887" lon="11.8232212"><ele>65.0</ele><time>2026-04-26T07:21:49.059Z</time></trkpt><trkpt lat="45.7007204" lon="11.8230116"><ele>65.0</ele><time>2026-04-26T07:21:50.056Z</time></trkpt><trkpt lat="45.7007622" lon="11.8227986"><ele>65.0</ele><time>2026-04-26T07:21:51.049Z</time></trkpt><trkpt lat="45.7008079" lon="11.8225843"><ele>64.33333333333334</ele><time>2026-04-26T07:21:52.047Z</time></trkpt><trkpt lat="45.7008547" lon="11.8223657"><ele>63.66666666666667</ele><time>2026-04-26T07:21:53.043Z</time></trkpt><trkpt lat="45.7009039" lon="11.8221378"><ele>63.0</ele><time>2026-04-26T07:21:54.048Z</time></trkpt><trkpt lat="45.7009569" lon="11.8219037"><ele>63.33333333333333</ele><time>2026-04-26T07:21:55.058Z</time></trkpt><trkpt lat="45.7010105" lon="11.8216725"><ele>63.666666666666664</ele><time>2026-04-26T07:21:56.069Z</time></trkpt><trkpt lat="45.7010629" lon="11.8214478"><ele>64.0</ele><time>2026-04-26T07:21:57.039Z</time></trkpt><trkpt lat="45.7011133" lon="11.8212236"><ele>64.0</ele><time>2026-04-26T07:21:58.073Z</time></trkpt><trkpt lat="45.7011634" lon="11.821001"><ele>64.0</ele><time>2026-04-26T07:21:59.042Z</time></trkpt><trkpt lat="45.7012157" lon="11.8207841"><ele>64.0</ele><time>2026-04-26T07:22:00.073Z</time></trkpt><trkpt lat="45.7012619" lon="11.8205691"><ele>64.66666666666666</ele><time>2026-04-26T07:22:01.045Z</time></trkpt><trkpt lat="45.7013148" lon="11.8203583"><ele>65.33333333333333</ele><time>2026-04-26T07:22:02.042Z</time></trkpt><trkpt lat="45.7013693" lon="11.8201479"><ele>66.0</ele><time>2026-04-26T07:22:03.042Z</time></trkpt><trkpt lat="45.7014229" lon="11.8199367"><ele>66.66666666666667</ele><time>2026-04-26T07:22:04.05Z</time></trkpt><trkpt lat="45.7014871" lon="11.819732"><ele>67.33333333333334</ele><time>2026-04-26T07:22:05.048Z</time></trkpt><trkpt lat="45.7015584" lon="11.8195306"><ele>68.0</ele><time>2026-04-26T07:22:06.05Z</time></trkpt><trkpt lat="45.7016448" lon="11.8193332"><ele>68.0</ele><time>2026-04-26T07:22:07.048Z</time></trkpt><trkpt lat="45.7017392" lon="11.8191357"><ele>68.0</ele><time>2026-04-26T07:22:08.043Z</time></trkpt><trkpt lat="45.7018342" lon="11.818938"><ele>68.0</ele><time>2026-04-26T07:22:09.039Z</time></trkpt><trkpt lat="45.7019411" lon="11.8187454"><ele>68.0</ele><time>2026-04-26T07:22:10.037Z</time></trkpt><trkpt lat="45.7020623" lon="11.818548"><ele>68.0</ele><time>2026-04-26T07:22:11.042Z</time></trkpt><trkpt lat="45.7021701" lon="11.818342"><ele>68.0</ele><time>2026-04-26T07:22:12.062Z</time></trkpt><trkpt lat="45.702266" lon="11.8181292"><ele>68.0</ele><time>2026-04-26T07:22:13.044Z</time></trkpt><trkpt lat="45.7023612" lon="11.8179238"><ele>68.0</ele><time>2026-04-26T07:22:14.048Z</time></trkpt><trkpt lat="45.7024592" lon="11.8177267"><ele>68.0</ele><time>2026-04-26T07:22:15.06Z</time></trkpt><trkpt lat="45.7025488" lon="11.8175316"><ele>68.0</ele><time>2026-04-26T07:22:16.071Z</time></trkpt><trkpt lat="45.7026357" lon="11.817343"><ele>68.0</ele><time>2026-04-26T07:22:17.045Z</time></trkpt><trkpt lat="45.7027153" lon="11.817153"><ele>68.0</ele><time>2026-04-26T07:22:18.047Z</time></trkpt><trkpt lat="45.7027955" lon="11.8169667"><ele>68.33333333333334</ele><time>2026-04-26T07:22:19.045Z</time></trkpt><trkpt lat="45.7028694" lon="11.8167772"><ele>68.66666666666667</ele><time>2026-04-26T07:22:20.044Z</time></trkpt><trkpt lat="45.7029431" lon="11.8165902"><ele>69.0</ele><time>2026-04-26T07:22:21.037Z</time></trkpt><trkpt lat="45.7030223" lon="11.8164079"><ele>69.0</ele><time>2026-04-26T07:22:22.049Z</time></trkpt><trkpt lat="45.7031038" lon="11.8162275"><ele>69.0</ele><time>2026-04-26T07:22:23.055Z</time></trkpt><trkpt lat="45.7031727" lon="11.8160386"><ele>69.0</ele><time>2026-04-26T07:22:24.062Z</time></trkpt><trkpt lat="45.7032628" lon="11.8158609"><ele>69.0</ele><time>2026-04-26T07:22:25.04Z</time></trkpt><trkpt lat="45.7033417" lon="11.8156677"><ele>69.0</ele><time>2026-04-26T07:22:26.054Z</time></trkpt><trkpt lat="45.7034156" lon="11.8154675"><ele>69.0</ele><time>2026-04-26T07:22:27.041Z</time></trkpt><trkpt lat="45.703478" lon="11.8152513"><ele>69.33333333333333</ele><time>2026-04-26T07:22:28.069Z</time></trkpt><trkpt lat="45.7035354" lon="11.8150226"><ele>69.66666666666666</ele><time>2026-04-26T07:22:29.054Z</time></trkpt><trkpt lat="45.7035959" lon="11.8147917"><ele>70.0</ele><time>2026-04-26T07:22:30.064Z</time></trkpt><trkpt lat="45.7036598" lon="11.8145591"><ele>70.0</ele><time>2026-04-26T07:22:31.047Z</time></trkpt><trkpt lat="45.7037168" lon="11.8143185"><ele>70.0</ele><time>2026-04-26T07:22:32.047Z</time></trkpt><trkpt lat="45.7037585" lon="11.8140677"><ele>70.0</ele><time>2026-04-26T07:22:33.06Z</time></trkpt><trkpt lat="45.7037892" lon="11.8138135"><ele>70.0</ele><time>2026-04-26T07:22:34.073Z</time></trkpt><trkpt lat="45.7037994" lon="11.8135543"><ele>70.0</ele><time>2026-04-26T07:22:35.042Z</time></trkpt><trkpt lat="45.7037973" lon="11.8132977"><ele>70.0</ele><time>2026-04-26T07:22:36.044Z</time></trkpt><trkpt lat="45.7037606" lon="11.8130431"><ele>70.0</ele><time>2026-04-26T07:22:37.038Z</time></trkpt><trkpt lat="45.7037222" lon="11.812791"><ele>70.0</ele><time>2026-04-26T07:22:38.069Z</time></trkpt><trkpt lat="45.7036809" lon="11.8125387"><ele>70.0</ele><time>2026-04-26T07:22:39.051Z</time></trkpt><trkpt lat="45.7036431" lon="11.8122869"><ele>70.0</ele><time>2026-04-26T07:22:40.068Z</time></trkpt><trkpt lat="45.7036087" lon="11.8120425"><ele>70.0</ele><time>2026-04-26T07:22:41.054Z</time></trkpt><trkpt lat="45.7035827" lon="11.8118068"><ele>70.0</ele><time>2026-04-26T07:22:42.053Z</time></trkpt><trkpt lat="45.703561" lon="11.8115757"><ele>70.0</ele><time>2026-04-26T07:22:43.047Z</time></trkpt><trkpt lat="45.7035715" lon="11.8113485"><ele>70.0</ele><time>2026-04-26T07:22:44.049Z</time></trkpt><trkpt lat="45.7035982" lon="11.8111271"><ele>70.0</ele><time>2026-04-26T07:22:45.045Z</time></trkpt><trkpt lat="45.7036616" lon="11.810921"><ele>70.33333333333333</ele><time>2026-04-26T07:22:46.047Z</time></trkpt><trkpt lat="45.7037259" lon="11.8107123"><ele>70.66666666666667</ele><time>2026-04-26T07:22:47.041Z</time></trkpt><trkpt lat="45.7037753" lon="11.8104927"><ele>71.0</ele><time>2026-04-26T07:22:48.051Z</time></trkpt><trkpt lat="45.7038239" lon="11.8102711"><ele>71.0</ele><time>2026-04-26T07:22:49.056Z</time></trkpt><trkpt lat="45.7038768" lon="11.8100538"><ele>71.0</ele><time>2026-04-26T07:22:50.07Z</time></trkpt><trkpt lat="45.7039315" lon="11.8098378"><ele>71.0</ele><time>2026-04-26T07:22:51.048Z</time></trkpt><trkpt lat="45.7039972" lon="11.8096228"><ele>71.0</ele><time>2026-04-26T07:22:52.057Z</time></trkpt><trkpt lat="45.7040642" lon="11.8094063"><ele>71.0</ele><time>2026-04-26T07:22:53.046Z</time></trkpt><trkpt lat="45.7041357" lon="11.8091986"><ele>71.0</ele><time>2026-04-26T07:22:54.035Z</time></trkpt><trkpt lat="45.7042206" lon="11.8090074"><ele>71.0</ele><time>2026-04-26T07:22:55.03Z</time></trkpt><trkpt lat="45.7043039" lon="11.8088278"><ele>71.0</ele><time>2026-04-26T07:22:56.035Z</time></trkpt><trkpt lat="45.7043956" lon="11.8086696"><ele>71.0</ele><time>2026-04-26T07:22:57.037Z</time></trkpt><trkpt lat="45.7044699" lon="11.8085136"><ele>71.0</ele><time>2026-04-26T07:22:58.058Z</time></trkpt><trkpt lat="45.7045446" lon="11.8083748"><ele>71.25</ele><time>2026-04-26T07:22:59.05Z</time></trkpt><trkpt lat="45.7046376" lon="11.808269"><ele>71.5</ele><time>2026-04-26T07:23:00.053Z</time></trkpt><trkpt lat="45.7047096" lon="11.8081458"><ele>71.75</ele><time>2026-04-26T07:23:01.038Z</time></trkpt><trkpt lat="45.7048231" lon="11.8080869"><ele>72.0</ele><time>2026-04-26T07:23:02.065Z</time></trkpt><trkpt lat="45.7049334" lon="11.8080407"><ele>72.0</ele><time>2026-04-26T07:23:03.044Z</time></trkpt><trkpt lat="45.7050479" lon="11.8080257"><ele>72.0</ele><time>2026-04-26T07:23:04.044Z</time></trkpt><trkpt lat="45.7051557" lon="11.8080045"><ele>72.0</ele><time>2026-04-26T07:23:05.043Z</time></trkpt><trkpt lat="45.7052525" lon="11.807978"><ele>72.0</ele><time>2026-04-26T07:23:06.037Z</time></trkpt><trkpt lat="45.7053387" lon="11.8079502"><ele>72.0</ele><time>2026-04-26T07:23:07.04Z</time></trkpt><trkpt lat="45.7054189" lon="11.8079254"><ele>72.33333333333333</ele><time>2026-04-26T07:23:08.047Z</time></trkpt><trkpt lat="45.7054916" lon="11.8078971"><ele>72.66666666666667</ele><time>2026-04-26T07:23:09.057Z</time></trkpt><trkpt lat="45.705558" lon="11.8078747"><ele>73.0</ele><time>2026-04-26T07:23:10.055Z</time></trkpt><trkpt lat="45.7056623" lon="11.8078431"><ele>73.33333333333334</ele><time>2026-04-26T07:23:12.052Z</time></trkpt><trkpt lat="45.7057412" lon="11.8078283"><ele>73.66666666666667</ele><time>2026-04-26T07:23:14.056Z</time></trkpt><trkpt lat="45.7058041" lon="11.8078161"><ele>74.0</ele><time>2026-04-26T07:23:16.075Z</time></trkpt><trkpt lat="45.7058861" lon="11.8077839"><ele>74.0</ele><time>2026-04-26T07:23:19.054Z</time></trkpt><trkpt lat="45.7059618" lon="11.8077602"><ele>74.0</ele><time>2026-04-26T07:23:22.04Z</time></trkpt><trkpt lat="45.7060379" lon="11.8077425"><ele>74.0</ele><time>2026-04-26T07:23:51.044Z</time></trkpt><trkpt lat="45.7061143" lon="11.807714"><ele>74.0</ele><time>2026-04-26T07:23:53.047Z</time></trkpt><trkpt lat="45.7062292" lon="11.8076684"><ele>74.0</ele><time>2026-04-26T07:23:55.039Z</time></trkpt><trkpt lat="45.7062944" lon="11.8076388"><ele>74.0</ele><time>2026-04-26T07:23:56.032Z</time></trkpt><trkpt lat="45.7063624" lon="11.807586"><ele>73.8</ele><time>2026-04-26T07:23:57.045Z</time></trkpt><trkpt lat="45.7064458" lon="11.8075441"><ele>73.60000000000001</ele><time>2026-04-26T07:23:58.037Z</time></trkpt><trkpt lat="45.7065316" lon="11.807483"><ele>73.4</ele><time>2026-04-26T07:23:59.055Z</time></trkpt><trkpt lat="45.7066158" lon="11.8074059"><ele>73.2</ele><time>2026-04-26T07:24:00.047Z</time></trkpt><trkpt lat="45.7066988" lon="11.8073303"><ele>73.0</ele><time>2026-04-26T07:24:01.046Z</time></trkpt><trkpt lat="45.7067779" lon="11.80725"><ele>73.0</ele><time>2026-04-26T07:24:02.05Z</time></trkpt><trkpt lat="45.7068588" lon="11.8071613"><ele>73.0</ele><time>2026-04-26T07:24:03.046Z</time></trkpt><trkpt lat="45.7069445" lon="11.8070598"><ele>73.0</ele><time>2026-04-26T07:24:04.065Z</time></trkpt><trkpt lat="45.7070366" lon="11.8069432"><ele>73.0</ele><time>2026-04-26T07:24:05.054Z</time></trkpt><trkpt lat="45.7071203" lon="11.8068111"><ele>73.25</ele><time>2026-04-26T07:24:06.061Z</time></trkpt><trkpt lat="45.7071974" lon="11.8066772"><ele>73.5</ele><time>2026-04-26T07:24:07.048Z</time></trkpt><trkpt lat="45.7072439" lon="11.8065093"><ele>73.75</ele><time>2026-04-26T07:24:08.04Z</time></trkpt><trkpt lat="45.7073181" lon="11.806371"><ele>74.0</ele><time>2026-04-26T07:24:09.047Z</time></trkpt><trkpt lat="45.7073774" lon="11.8062017"><ele>74.0</ele><time>2026-04-26T07:24:10.04Z</time></trkpt><trkpt lat="45.7074367" lon="11.806012"><ele>74.0</ele><time>2026-04-26T07:24:11.046Z</time></trkpt><trkpt lat="45.7074855" lon="11.8058077"><ele>74.0</ele><time>2026-04-26T07:24:12.043Z</time></trkpt><trkpt lat="45.7075312" lon="11.8055937"><ele>74.0</ele><time>2026-04-26T07:24:13.053Z</time></trkpt><trkpt lat="45.7075705" lon="11.8053665"><ele>74.0</ele><time>2026-04-26T07:24:14.042Z</time></trkpt><trkpt lat="45.7076078" lon="11.8051297"><ele>74.0</ele><time>2026-04-26T07:24:15.056Z</time></trkpt><trkpt lat="45.7076545" lon="11.8048832"><ele>73.66666666666667</ele><time>2026-04-26T07:24:16.064Z</time></trkpt><trkpt lat="45.7076833" lon="11.804631"><ele>73.33333333333333</ele><time>2026-04-26T07:24:17.049Z</time></trkpt><trkpt lat="45.7077321" lon="11.8043935"><ele>73.0</ele><time>2026-04-26T07:24:18.053Z</time></trkpt><trkpt lat="45.7077781" lon="11.8041572"><ele>74.0</ele><time>2026-04-26T07:24:19.043Z</time></trkpt><trkpt lat="45.7078052" lon="11.8039198"><ele>75.0</ele><time>2026-04-26T07:24:20.049Z</time></trkpt><trkpt lat="45.7078412" lon="11.8036867"><ele>76.0</ele><time>2026-04-26T07:24:21.044Z</time></trkpt><trkpt lat="45.7078967" lon="11.8034574"><ele>76.0</ele><time>2026-04-26T07:24:22.051Z</time></trkpt><trkpt lat="45.7079435" lon="11.8032271"><ele>76.0</ele><time>2026-04-26T07:24:23.046Z</time></trkpt><trkpt lat="45.7079734" lon="11.8029969"><ele>76.0</ele><time>2026-04-26T07:24:24.041Z</time></trkpt><trkpt lat="45.7080223" lon="11.8027702"><ele>75.66666666666666</ele><time>2026-04-26T07:24:25.055Z</time></trkpt><trkpt lat="45.7080674" lon="11.8025445"><ele>75.33333333333333</ele><time>2026-04-26T07:24:26.045Z</time></trkpt><trkpt lat="45.7081128" lon="11.802322"><ele>75.0</ele><time>2026-04-26T07:24:27.061Z</time></trkpt><trkpt lat="45.7081531" lon="11.8021014"><ele>75.0</ele><time>2026-04-26T07:24:28.056Z</time></trkpt><trkpt lat="45.7082024" lon="11.8018915"><ele>75.0</ele><time>2026-04-26T07:24:29.047Z</time></trkpt><trkpt lat="45.7082567" lon="11.8016916"><ele>75.0</ele><time>2026-04-26T07:24:30.071Z</time></trkpt><trkpt lat="45.7083138" lon="11.8014959"><ele>75.0</ele><time>2026-04-26T07:24:31.039Z</time></trkpt><trkpt lat="45.7083674" lon="11.8012991"><ele>75.0</ele><time>2026-04-26T07:24:32.06Z</time></trkpt><trkpt lat="45.7084368" lon="11.8011072"><ele>75.0</ele><time>2026-04-26T07:24:33.05Z</time></trkpt><trkpt lat="45.7085006" lon="11.8009182"><ele>75.0</ele><time>2026-04-26T07:24:34.046Z</time></trkpt><trkpt lat="45.7085788" lon="11.8007424"><ele>75.25</ele><time>2026-04-26T07:24:35.043Z</time></trkpt><trkpt lat="45.7086632" lon="11.8005779"><ele>75.5</ele><time>2026-04-26T07:24:36.056Z</time></trkpt><trkpt lat="45.7087398" lon="11.8004354"><ele>75.75</ele><time>2026-04-26T07:24:37.043Z</time></trkpt><trkpt lat="45.7087974" lon="11.8003176"><ele>76.0</ele><time>2026-04-26T07:24:38.052Z</time></trkpt><trkpt lat="45.7088439" lon="11.8002211"><ele>76.0</ele><time>2026-04-26T07:24:39.038Z</time></trkpt><trkpt lat="45.7088834" lon="11.8001341"><ele>76.0</ele><time>2026-04-26T07:24:40.037Z</time></trkpt><trkpt lat="45.7089284" lon="11.8000569"><ele>76.0</ele><time>2026-04-26T07:24:41.033Z</time></trkpt><trkpt lat="45.7089884" lon="11.7999705"><ele>76.0</ele><time>2026-04-26T07:24:42.038Z</time></trkpt><trkpt lat="45.7090714" lon="11.7998954"><ele>76.0</ele><time>2026-04-26T07:24:43.041Z</time></trkpt><trkpt lat="45.709141" lon="11.7997691"><ele>76.0</ele><time>2026-04-26T07:24:44.049Z</time></trkpt><trkpt lat="45.7091803" lon="11.7996106"><ele>76.0</ele><time>2026-04-26T07:24:45.049Z</time></trkpt><trkpt lat="45.7092505" lon="11.799476"><ele>76.0</ele><time>2026-04-26T07:24:46.036Z</time></trkpt><trkpt lat="45.7093405" lon="11.7993626"><ele>76.0</ele><time>2026-04-26T07:24:47.033Z</time></trkpt><trkpt lat="45.7094796" lon="11.7993303"><ele>76.0</ele><time>2026-04-26T07:24:48.048Z</time></trkpt><trkpt lat="45.7096212" lon="11.7992981"><ele>76.0</ele><time>2026-04-26T07:24:49.04Z</time></trkpt><trkpt lat="45.7097584" lon="11.7992499"><ele>76.0</ele><time>2026-04-26T07:24:50.047Z</time></trkpt><trkpt lat="45.7098973" lon="11.7991914"><ele>76.0</ele><time>2026-04-26T07:24:51.041Z</time></trkpt><trkpt lat="45.7100322" lon="11.7991321"><ele>76.0</ele><time>2026-04-26T07:24:52.052Z</time></trkpt><trkpt lat="45.710169" lon="11.7990797"><ele>76.5</ele><time>2026-04-26T07:24:53.04Z</time></trkpt><trkpt lat="45.7103037" lon="11.7990251"><ele>77.0</ele><time>2026-04-26T07:24:54.048Z</time></trkpt><trkpt lat="45.7104364" lon="11.7989679"><ele>77.5</ele><time>2026-04-26T07:24:55.043Z</time></trkpt><trkpt lat="45.7105685" lon="11.7989196"><ele>78.0</ele><time>2026-04-26T07:24:56.036Z</time></trkpt><trkpt lat="45.7107009" lon="11.798875"><ele>78.0</ele><time>2026-04-26T07:24:57.034Z</time></trkpt><trkpt lat="45.7108336" lon="11.7988238"><ele>78.0</ele><time>2026-04-26T07:24:58.054Z</time></trkpt><trkpt lat="45.7109694" lon="11.7987824"><ele>78.0</ele><time>2026-04-26T07:24:59.043Z</time></trkpt><trkpt lat="45.7111041" lon="11.7987435"><ele>78.0</ele><time>2026-04-26T07:25:00.054Z</time></trkpt><trkpt lat="45.7112395" lon="11.7986985"><ele>78.5</ele><time>2026-04-26T07:25:01.049Z</time></trkpt><trkpt lat="45.7113813" lon="11.7986596"><ele>79.0</ele><time>2026-04-26T07:25:02.038Z</time></trkpt><trkpt lat="45.7115251" lon="11.7986101"><ele>79.5</ele><time>2026-04-26T07:25:03.043Z</time></trkpt><trkpt lat="45.7116711" lon="11.7985688"><ele>80.0</ele><time>2026-04-26T07:25:04.062Z</time></trkpt><trkpt lat="45.7118198" lon="11.7985229"><ele>80.33333333333334</ele><time>2026-04-26T07:25:05.057Z</time></trkpt><trkpt lat="45.7119666" lon="11.7984465"><ele>80.66666666666667</ele><time>2026-04-26T07:25:06.042Z</time></trkpt><trkpt lat="45.7121175" lon="11.7983735"><ele>81.0</ele><time>2026-04-26T07:25:07.062Z</time></trkpt><trkpt lat="45.7122729" lon="11.798319"><ele>81.0</ele><time>2026-04-26T07:25:08.043Z</time></trkpt><trkpt lat="45.71243" lon="11.7982619"><ele>81.0</ele><time>2026-04-26T07:25:09.04Z</time></trkpt><trkpt lat="45.7125901" lon="11.7982034"><ele>81.0</ele><time>2026-04-26T07:25:10.048Z</time></trkpt><trkpt lat="45.712755" lon="11.7981509"><ele>80.66666666666667</ele><time>2026-04-26T07:25:11.04Z</time></trkpt><trkpt lat="45.712921" lon="11.7980932"><ele>80.33333333333334</ele><time>2026-04-26T07:25:12.05Z</time></trkpt><trkpt lat="45.7130855" lon="11.7980312"><ele>80.0</ele><time>2026-04-26T07:25:13.05Z</time></trkpt><trkpt lat="45.7132481" lon="11.7979758"><ele>80.0</ele><time>2026-04-26T07:25:14.046Z</time></trkpt><trkpt lat="45.7134026" lon="11.7979014"><ele>80.0</ele><time>2026-04-26T07:25:15.039Z</time></trkpt><trkpt lat="45.7135491" lon="11.7978283"><ele>80.0</ele><time>2026-04-26T07:25:16.062Z</time></trkpt><trkpt lat="45.71369" lon="11.7977479"><ele>80.2</ele><time>2026-04-26T07:25:17.033Z</time></trkpt><trkpt lat="45.7138145" lon="11.7976727"><ele>80.4</ele><time>2026-04-26T07:25:18.033Z</time></trkpt><trkpt lat="45.7139128" lon="11.7975913"><ele>80.6</ele><time>2026-04-26T07:25:19.038Z</time></trkpt><trkpt lat="45.7139887" lon="11.7975189"><ele>80.8</ele><time>2026-04-26T07:25:20.038Z</time></trkpt><trkpt lat="45.7140519" lon="11.7974666"><ele>81.0</ele><time>2026-04-26T07:25:21.045Z</time></trkpt><trkpt lat="45.7141154" lon="11.7974212"><ele>80.66666666666667</ele><time>2026-04-26T07:25:22.047Z</time></trkpt><trkpt lat="45.7141815" lon="11.797373"><ele>80.33333333333333</ele><time>2026-04-26T07:25:23.038Z</time></trkpt><trkpt lat="45.714248" lon="11.7973197"><ele>80.0</ele><time>2026-04-26T07:25:24.038Z</time></trkpt><trkpt lat="45.7142994" lon="11.7972217"><ele>79.66666666666666</ele><time>2026-04-26T07:25:25.042Z</time></trkpt><trkpt lat="45.7143438" lon="11.7971103"><ele>79.33333333333333</ele><time>2026-04-26T07:25:26.046Z</time></trkpt><trkpt lat="45.7143614" lon="11.7969783"><ele>79.0</ele><time>2026-04-26T07:25:27.04Z</time></trkpt><trkpt lat="45.7143851" lon="11.7968219"><ele>79.5</ele><time>2026-04-26T07:25:28.064Z</time></trkpt><trkpt lat="45.7144336" lon="11.7966433"><ele>80.0</ele><time>2026-04-26T07:25:29.039Z</time></trkpt><trkpt lat="45.7145134" lon="11.7964596"><ele>80.5</ele><time>2026-04-26T07:25:30.044Z</time></trkpt><trkpt lat="45.7145699" lon="11.7962485"><ele>81.0</ele><time>2026-04-26T07:25:31.032Z</time></trkpt><trkpt lat="45.7146119" lon="11.7960171"><ele>81.0</ele><time>2026-04-26T07:25:32.039Z</time></trkpt><trkpt lat="45.7146535" lon="11.7957838"><ele>81.0</ele><time>2026-04-26T07:25:33.036Z</time></trkpt><trkpt lat="45.7146921" lon="11.7955592"><ele>81.0</ele><time>2026-04-26T07:25:34.037Z</time></trkpt><trkpt lat="45.7147308" lon="11.7953497"><ele>81.0</ele><time>2026-04-26T07:25:35.038Z</time></trkpt><trkpt lat="45.7147696" lon="11.7951525"><ele>81.0</ele><time>2026-04-26T07:25:36.036Z</time></trkpt><trkpt lat="45.7148085" lon="11.7949594"><ele>81.0</ele><time>2026-04-26T07:25:37.045Z</time></trkpt><trkpt lat="45.7148427" lon="11.7947668"><ele>81.0</ele><time>2026-04-26T07:25:38.033Z</time></trkpt><trkpt lat="45.7148724" lon="11.7945752"><ele>81.0</ele><time>2026-04-26T07:25:39.04Z</time></trkpt><trkpt lat="45.7149143" lon="11.7943872"><ele>81.0</ele><time>2026-04-26T07:25:40.065Z</time></trkpt><trkpt lat="45.7149474" lon="11.7941896"><ele>81.0</ele><time>2026-04-26T07:25:41.042Z</time></trkpt><trkpt lat="45.7149832" lon="11.7939813"><ele>81.0</ele><time>2026-04-26T07:25:42.048Z</time></trkpt><trkpt lat="45.715036" lon="11.7937722"><ele>81.0</ele><time>2026-04-26T07:25:43.049Z</time></trkpt><trkpt lat="45.7150722" lon="11.7935506"><ele>81.0</ele><time>2026-04-26T07:25:44.048Z</time></trkpt><trkpt lat="45.7151062" lon="11.7933223"><ele>81.0</ele><time>2026-04-26T07:25:45.034Z</time></trkpt><trkpt lat="45.7151502" lon="11.7930865"><ele>81.0</ele><time>2026-04-26T07:25:46.048Z</time></trkpt><trkpt lat="45.7152003" lon="11.7928416"><ele>81.0</ele><time>2026-04-26T07:25:47.033Z</time></trkpt><trkpt lat="45.7152566" lon="11.7925933"><ele>81.0</ele><time>2026-04-26T07:25:48.036Z</time></trkpt><trkpt lat="45.7153179" lon="11.7923427"><ele>81.0</ele><time>2026-04-26T07:25:49.028Z</time></trkpt><trkpt lat="45.7153712" lon="11.7920866"><ele>81.0</ele><time>2026-04-26T07:25:50.039Z</time></trkpt><trkpt lat="45.7154223" lon="11.7918314"><ele>81.0</ele><time>2026-04-26T07:25:51.039Z</time></trkpt><trkpt lat="45.7154692" lon="11.7915762"><ele>81.0</ele><time>2026-04-26T07:25:52.059Z</time></trkpt><trkpt lat="45.7155153" lon="11.7913213"><ele>81.0</ele><time>2026-04-26T07:25:53.03Z</time></trkpt><trkpt lat="45.7155631" lon="11.7910668"><ele>81.0</ele><time>2026-04-26T07:25:54.034Z</time></trkpt><trkpt lat="45.7155881" lon="11.7908"><ele>81.0</ele><time>2026-04-26T07:25:55.03Z</time></trkpt><trkpt lat="45.7156245" lon="11.7905374"><ele>81.0</ele><time>2026-04-26T07:25:56.038Z</time></trkpt><trkpt lat="45.7156608" lon="11.7902685"><ele>81.0</ele><time>2026-04-26T07:25:57.044Z</time></trkpt><trkpt lat="45.7157214" lon="11.7900162"><ele>81.33333333333333</ele><time>2026-04-26T07:25:58.04Z</time></trkpt><trkpt lat="45.7157885" lon="11.7897671"><ele>81.66666666666666</ele><time>2026-04-26T07:25:59.04Z</time></trkpt><trkpt lat="45.7158812" lon="11.7895347"><ele>82.0</ele><time>2026-04-26T07:26:00.045Z</time></trkpt><trkpt lat="45.7159669" lon="11.7893067"><ele>82.0</ele><time>2026-04-26T07:26:01.036Z</time></trkpt><trkpt lat="45.7160449" lon="11.7890822"><ele>82.0</ele><time>2026-04-26T07:26:02.036Z</time></trkpt><trkpt lat="45.7161218" lon="11.7888606"><ele>82.0</ele><time>2026-04-26T07:26:03.037Z</time></trkpt><trkpt lat="45.7162045" lon="11.7886464"><ele>83.0</ele><time>2026-04-26T07:26:04.027Z</time></trkpt><trkpt lat="45.7162705" lon="11.7884174"><ele>84.0</ele><time>2026-04-26T07:26:05.047Z</time></trkpt><trkpt lat="45.7163384" lon="11.7881916"><ele>85.0</ele><time>2026-04-26T07:26:06.042Z</time></trkpt><trkpt lat="45.7164142" lon="11.7879713"><ele>85.0</ele><time>2026-04-26T07:26:07.058Z</time></trkpt><trkpt lat="45.7164868" lon="11.7877482"><ele>85.0</ele><time>2026-04-26T07:26:08.038Z</time></trkpt><trkpt lat="45.7165669" lon="11.7875306"><ele>85.0</ele><time>2026-04-26T07:26:09.038Z</time></trkpt><trkpt lat="45.7166563" lon="11.7873171"><ele>85.66666666666666</ele><time>2026-04-26T07:26:10.038Z</time></trkpt><trkpt lat="45.7167439" lon="11.7870989"><ele>86.33333333333333</ele><time>2026-04-26T07:26:11.037Z</time></trkpt><trkpt lat="45.7168229" lon="11.7868705"><ele>87.0</ele><time>2026-04-26T07:26:12.038Z</time></trkpt><trkpt lat="45.7169075" lon="11.7866438"><ele>87.66666666666667</ele><time>2026-04-26T07:26:13.044Z</time></trkpt><trkpt lat="45.7169868" lon="11.7864141"><ele>88.33333333333334</ele><time>2026-04-26T07:26:14.047Z</time></trkpt><trkpt lat="45.7170662" lon="11.7861841"><ele>89.0</ele><time>2026-04-26T07:26:15.035Z</time></trkpt><trkpt lat="45.7171359" lon="11.7859495"><ele>90.0</ele><time>2026-04-26T07:26:16.038Z</time></trkpt><trkpt lat="45.7171967" lon="11.7857161"><ele>91.0</ele><time>2026-04-26T07:26:17.034Z</time></trkpt><trkpt lat="45.7172898" lon="11.7855094"><ele>92.0</ele><time>2026-04-26T07:26:18.04Z</time></trkpt><trkpt lat="45.7173598" lon="11.7852896"><ele>90.66666666666667</ele><time>2026-04-26T07:26:19.038Z</time></trkpt><trkpt lat="45.71743" lon="11.7850753"><ele>89.33333333333333</ele><time>2026-04-26T07:26:20.029Z</time></trkpt><trkpt lat="45.7175216" lon="11.7848793"><ele>88.0</ele><time>2026-04-26T07:26:21.045Z</time></trkpt><trkpt lat="45.7176047" lon="11.7846765"><ele>88.0</ele><time>2026-04-26T07:26:22.04Z</time></trkpt><trkpt lat="45.7176835" lon="11.7844731"><ele>88.0</ele><time>2026-04-26T07:26:23.04Z</time></trkpt><trkpt lat="45.7177541" lon="11.7842673"><ele>88.0</ele><time>2026-04-26T07:26:24.038Z</time></trkpt><trkpt lat="45.7178264" lon="11.7840647"><ele>87.33333333333333</ele><time>2026-04-26T07:26:25.038Z</time></trkpt><trkpt lat="45.7179136" lon="11.7838748"><ele>86.66666666666667</ele><time>2026-04-26T07:26:26.047Z</time></trkpt><trkpt lat="45.718001" lon="11.7836838"><ele>86.0</ele><time>2026-04-26T07:26:27.035Z</time></trkpt><trkpt lat="45.7180811" lon="11.7834855"><ele>86.0</ele><time>2026-04-26T07:26:28.042Z</time></trkpt><trkpt lat="45.7181518" lon="11.7832771"><ele>86.0</ele><time>2026-04-26T07:26:29.038Z</time></trkpt><trkpt lat="45.7182076" lon="11.7830561"><ele>86.0</ele><time>2026-04-26T07:26:30.035Z</time></trkpt><trkpt lat="45.7182863" lon="11.7828485"><ele>86.0</ele><time>2026-04-26T07:26:31.032Z</time></trkpt><trkpt lat="45.7183685" lon="11.78264"><ele>86.0</ele><time>2026-04-26T07:26:32.039Z</time></trkpt><trkpt lat="45.7184426" lon="11.782423"><ele>86.0</ele><time>2026-04-26T07:26:33.05Z</time></trkpt><trkpt lat="45.7185189" lon="11.7822058"><ele>86.0</ele><time>2026-04-26T07:26:34.053Z</time></trkpt><trkpt lat="45.718608" lon="11.7819896"><ele>86.0</ele><time>2026-04-26T07:26:35.041Z</time></trkpt><trkpt lat="45.7186909" lon="11.781768"><ele>86.0</ele><time>2026-04-26T07:26:36.043Z</time></trkpt><trkpt lat="45.7187733" lon="11.7815426"><ele>86.0</ele><time>2026-04-26T07:26:37.048Z</time></trkpt><trkpt lat="45.7188501" lon="11.7813113"><ele>86.0</ele><time>2026-04-26T07:26:38.046Z</time></trkpt><trkpt lat="45.7189288" lon="11.7810801"><ele>86.0</ele><time>2026-04-26T07:26:39.044Z</time></trkpt><trkpt lat="45.7190055" lon="11.7808442"><ele>86.0</ele><time>2026-04-26T07:26:40.046Z</time></trkpt><trkpt lat="45.7190863" lon="11.7806109"><ele>86.0</ele><time>2026-04-26T07:26:41.035Z</time></trkpt><trkpt lat="45.7191741" lon="11.7803849"><ele>86.0</ele><time>2026-04-26T07:26:42.052Z</time></trkpt><trkpt lat="45.7192609" lon="11.7801654"><ele>86.66666666666667</ele><time>2026-04-26T07:26:43.047Z</time></trkpt><trkpt lat="45.7193439" lon="11.7799538"><ele>87.33333333333333</ele><time>2026-04-26T07:26:44.065Z</time></trkpt><trkpt lat="45.7194296" lon="11.7797506"><ele>88.0</ele><time>2026-04-26T07:26:45.055Z</time></trkpt><trkpt lat="45.7195194" lon="11.7795502"><ele>87.66666666666666</ele><time>2026-04-26T07:26:46.044Z</time></trkpt><trkpt lat="45.7196119" lon="11.7793471"><ele>87.33333333333333</ele><time>2026-04-26T07:26:47.042Z</time></trkpt><trkpt lat="45.7197017" lon="11.7791348"><ele>87.0</ele><time>2026-04-26T07:26:48.044Z</time></trkpt><trkpt lat="45.7197968" lon="11.7789235"><ele>87.0</ele><time>2026-04-26T07:26:49.052Z</time></trkpt><trkpt lat="45.7198914" lon="11.7787139"><ele>87.0</ele><time>2026-04-26T07:26:50.074Z</time></trkpt><trkpt lat="45.7199814" lon="11.7785101"><ele>87.0</ele><time>2026-04-26T07:26:51.041Z</time></trkpt><trkpt lat="45.7200732" lon="11.778315"><ele>87.33333333333333</ele><time>2026-04-26T07:26:52.045Z</time></trkpt><trkpt lat="45.7201636" lon="11.778124"><ele>87.66666666666666</ele><time>2026-04-26T07:26:53.04Z</time></trkpt><trkpt lat="45.7202537" lon="11.777938"><ele>88.0</ele><time>2026-04-26T07:26:54.047Z</time></trkpt><trkpt lat="45.7203422" lon="11.7777561"><ele>88.0</ele><time>2026-04-26T07:26:55.06Z</time></trkpt><trkpt lat="45.720429" lon="11.7775738"><ele>88.0</ele><time>2026-04-26T07:26:56.051Z</time></trkpt><trkpt lat="45.7205122" lon="11.7773914"><ele>88.0</ele><time>2026-04-26T07:26:57.046Z</time></trkpt><trkpt lat="45.7205967" lon="11.7772128"><ele>88.0</ele><time>2026-04-26T07:26:58.065Z</time></trkpt><trkpt lat="45.7206816" lon="11.7770341"><ele>88.0</ele><time>2026-04-26T07:26:59.051Z</time></trkpt><trkpt lat="45.7207656" lon="11.7768523"><ele>88.0</ele><time>2026-04-26T07:27:00.051Z</time></trkpt><trkpt lat="45.7208501" lon="11.7766687"><ele>88.0</ele><time>2026-04-26T07:27:01.033Z</time></trkpt><trkpt lat="45.7209384" lon="11.7764881"><ele>88.0</ele><time>2026-04-26T07:27:02.042Z</time></trkpt><trkpt lat="45.7210243" lon="11.7763117"><ele>88.0</ele><time>2026-04-26T07:27:03.039Z</time></trkpt><trkpt lat="45.7211037" lon="11.7761401"><ele>88.0</ele><time>2026-04-26T07:27:04.059Z</time></trkpt><trkpt lat="45.7211838" lon="11.7759777"><ele>88.75</ele><time>2026-04-26T07:27:05.046Z</time></trkpt><trkpt lat="45.7212578" lon="11.7758276"><ele>89.5</ele><time>2026-04-26T07:27:06.062Z</time></trkpt><trkpt lat="45.7213237" lon="11.7756863"><ele>90.25</ele><time>2026-04-26T07:27:07.057Z</time></trkpt><trkpt lat="45.7213845" lon="11.7755529"><ele>91.0</ele><time>2026-04-26T07:27:08.053Z</time></trkpt><trkpt lat="45.7214468" lon="11.7754291"><ele>91.0</ele><time>2026-04-26T07:27:09.053Z</time></trkpt><trkpt lat="45.721503" lon="11.7753064"><ele>91.0</ele><time>2026-04-26T07:27:10.044Z</time></trkpt><trkpt lat="45.7215552" lon="11.7751857"><ele>91.0</ele><time>2026-04-26T07:27:11.041Z</time></trkpt><trkpt lat="45.721603" lon="11.7750617"><ele>91.0</ele><time>2026-04-26T07:27:12.048Z</time></trkpt><trkpt lat="45.7216584" lon="11.7749426"><ele>91.0</ele><time>2026-04-26T07:27:13.041Z</time></trkpt><trkpt lat="45.721691" lon="11.7748031"><ele>91.0</ele><time>2026-04-26T07:27:14.047Z</time></trkpt><trkpt lat="45.7217491" lon="11.7746779"><ele>91.0</ele><time>2026-04-26T07:27:15.06Z</time></trkpt><trkpt lat="45.7218169" lon="11.7745543"><ele>91.0</ele><time>2026-04-26T07:27:16.051Z</time></trkpt><trkpt lat="45.7219099" lon="11.7744493"><ele>91.0</ele><time>2026-04-26T07:27:17.054Z</time></trkpt><trkpt lat="45.7219869" lon="11.7743295"><ele>91.0</ele><time>2026-04-26T07:27:18.047Z</time></trkpt><trkpt lat="45.7220553" lon="11.7742038"><ele>91.0</ele><time>2026-04-26T07:27:19.058Z</time></trkpt><trkpt lat="45.7221167" lon="11.7740664"><ele>91.0</ele><time>2026-04-26T07:27:20.043Z</time></trkpt><trkpt lat="45.7221698" lon="11.7739171"><ele>91.0</ele><time>2026-04-26T07:27:21.059Z</time></trkpt><trkpt lat="45.7222282" lon="11.7737696"><ele>91.0</ele><time>2026-04-26T07:27:22.04Z</time></trkpt><trkpt lat="45.7222798" lon="11.773611"><ele>91.0</ele><time>2026-04-26T07:27:23.046Z</time></trkpt><trkpt lat="45.7223283" lon="11.7734416"><ele>91.0</ele><time>2026-04-26T07:27:24.053Z</time></trkpt><trkpt lat="45.722379" lon="11.7732682"><ele>91.0</ele><time>2026-04-26T07:27:25.044Z</time></trkpt><trkpt lat="45.7224253" lon="11.7730904"><ele>91.0</ele><time>2026-04-26T07:27:26.042Z</time></trkpt><trkpt lat="45.7224768" lon="11.7729135"><ele>91.0</ele><time>2026-04-26T07:27:27.048Z</time></trkpt><trkpt lat="45.7225206" lon="11.7727379"><ele>91.0</ele><time>2026-04-26T07:27:28.04Z</time></trkpt><trkpt lat="45.7225583" lon="11.7725646"><ele>91.0</ele><time>2026-04-26T07:27:29.046Z</time></trkpt><trkpt lat="45.7225992" lon="11.7723984"><ele>91.0</ele><time>2026-04-26T07:27:30.053Z</time></trkpt><trkpt lat="45.7226309" lon="11.7722323"><ele>91.0</ele><time>2026-04-26T07:27:31.05Z</time></trkpt><trkpt lat="45.722665" lon="11.7720631"><ele>91.0</ele><time>2026-04-26T07:27:32.056Z</time></trkpt><trkpt lat="45.7227082" lon="11.7718945"><ele>91.0</ele><time>2026-04-26T07:27:33.049Z</time></trkpt><trkpt lat="45.7227505" lon="11.771725"><ele>91.0</ele><time>2026-04-26T07:27:34.05Z</time></trkpt><trkpt lat="45.722791" lon="11.7715582"><ele>91.25</ele><time>2026-04-26T07:27:35.039Z</time></trkpt><trkpt lat="45.7228336" lon="11.7713942"><ele>91.5</ele><time>2026-04-26T07:27:36.04Z</time></trkpt><trkpt lat="45.7228725" lon="11.7712282"><ele>91.75</ele><time>2026-04-26T07:27:37.054Z</time></trkpt><trkpt lat="45.7229162" lon="11.7710634"><ele>92.0</ele><time>2026-04-26T07:27:38.042Z</time></trkpt><trkpt lat="45.7229554" lon="11.7708938"><ele>92.5</ele><time>2026-04-26T07:27:39.051Z</time></trkpt><trkpt lat="45.7229936" lon="11.7707214"><ele>93.0</ele><time>2026-04-26T07:27:40.059Z</time></trkpt><trkpt lat="45.723034" lon="11.7705476"><ele>93.5</ele><time>2026-04-26T07:27:41.042Z</time></trkpt><trkpt lat="45.7230752" lon="11.7703736"><ele>94.0</ele><time>2026-04-26T07:27:42.046Z</time></trkpt><trkpt lat="45.7231207" lon="11.7702042"><ele>93.75</ele><time>2026-04-26T07:27:43.056Z</time></trkpt><trkpt lat="45.7231678" lon="11.7700389"><ele>93.5</ele><time>2026-04-26T07:27:44.057Z</time></trkpt><trkpt lat="45.7232078" lon="11.7698668"><ele>93.25</ele><time>2026-04-26T07:27:45.046Z</time></trkpt><trkpt lat="45.7232483" lon="11.7696892"><ele>93.0</ele><time>2026-04-26T07:27:46.053Z</time></trkpt><trkpt lat="45.7232962" lon="11.7695093"><ele>93.0</ele><time>2026-04-26T07:27:47.053Z</time></trkpt><trkpt lat="45.7233452" lon="11.7693267"><ele>93.0</ele><time>2026-04-26T07:27:48.057Z</time></trkpt><trkpt lat="45.7233921" lon="11.7691423"><ele>93.0</ele><time>2026-04-26T07:27:49.06Z</time></trkpt><trkpt lat="45.723434" lon="11.7689519"><ele>93.0</ele><time>2026-04-26T07:27:50.052Z</time></trkpt><trkpt lat="45.7234777" lon="11.7687608"><ele>93.0</ele><time>2026-04-26T07:27:51.055Z</time></trkpt><trkpt lat="45.7235071" lon="11.7685622"><ele>93.0</ele><time>2026-04-26T07:27:52.036Z</time></trkpt><trkpt lat="45.7235437" lon="11.7683649"><ele>93.0</ele><time>2026-04-26T07:27:53.048Z</time></trkpt><trkpt lat="45.7235828" lon="11.7681656"><ele>93.0</ele><time>2026-04-26T07:27:54.041Z</time></trkpt><trkpt lat="45.7236232" lon="11.7679644"><ele>93.0</ele><time>2026-04-26T07:27:55.039Z</time></trkpt><trkpt lat="45.723668" lon="11.7677619"><ele>93.0</ele><time>2026-04-26T07:27:56.048Z</time></trkpt><trkpt lat="45.7237114" lon="11.7675574"><ele>93.0</ele><time>2026-04-26T07:27:57.051Z</time></trkpt><trkpt lat="45.7237462" lon="11.7673522"><ele>93.0</ele><time>2026-04-26T07:27:58.045Z</time></trkpt><trkpt lat="45.7237926" lon="11.7671574"><ele>93.0</ele><time>2026-04-26T07:27:59.054Z</time></trkpt><trkpt lat="45.7238289" lon="11.7669654"><ele>93.0</ele><time>2026-04-26T07:28:00.06Z</time></trkpt><trkpt lat="45.7238549" lon="11.766771"><ele>93.0</ele><time>2026-04-26T07:28:01.066Z</time></trkpt><trkpt lat="45.7238883" lon="11.7665845"><ele>93.0</ele><time>2026-04-26T07:28:02.08Z</time></trkpt><trkpt lat="45.7239218" lon="11.7664042"><ele>93.0</ele><time>2026-04-26T07:28:03.061Z</time></trkpt><trkpt lat="45.7239604" lon="11.7662358"><ele>93.0</ele><time>2026-04-26T07:28:04.062Z</time></trkpt><trkpt lat="45.7239958" lon="11.7660746"><ele>93.0</ele><time>2026-04-26T07:28:05.064Z</time></trkpt><trkpt lat="45.7240239" lon="11.7659189"><ele>93.0</ele><time>2026-04-26T07:28:06.057Z</time></trkpt><trkpt lat="45.7240508" lon="11.7657715"><ele>92.83333333333333</ele><time>2026-04-26T07:28:07.05Z</time></trkpt><trkpt lat="45.724056" lon="11.7656353"><ele>92.66666666666667</ele><time>2026-04-26T07:28:08.042Z</time></trkpt><trkpt lat="45.7240657" lon="11.7655276"><ele>92.5</ele><time>2026-04-26T07:28:09.04Z</time></trkpt><trkpt lat="45.7240838" lon="11.7654408"><ele>92.33333333333334</ele><time>2026-04-26T07:28:10.053Z</time></trkpt><trkpt lat="45.7241103" lon="11.7652718"><ele>92.16666666666667</ele><time>2026-04-26T07:28:12.073Z</time></trkpt><trkpt lat="45.7241237" lon="11.7651831"><ele>92.0</ele><time>2026-04-26T07:28:13.043Z</time></trkpt><trkpt lat="45.7241481" lon="11.7650994"><ele>92.5</ele><time>2026-04-26T07:28:14.039Z</time></trkpt><trkpt lat="45.7241724" lon="11.7649267"><ele>93.0</ele><time>2026-04-26T07:28:16.04Z</time></trkpt><trkpt lat="45.7241862" lon="11.764837"><ele>93.5</ele><time>2026-04-26T07:28:17.045Z</time></trkpt><trkpt lat="45.7242089" lon="11.764742"><ele>94.0</ele><time>2026-04-26T07:28:18.048Z</time></trkpt><trkpt lat="45.7242257" lon="11.7646423"><ele>94.5</ele><time>2026-04-26T07:28:19.047Z</time></trkpt><trkpt lat="45.7242383" lon="11.7645448"><ele>95.0</ele><time>2026-04-26T07:28:20.047Z</time></trkpt><trkpt lat="45.7242679" lon="11.7643956"><ele>95.0</ele><time>2026-04-26T07:28:22.042Z</time></trkpt><trkpt lat="45.7242901" lon="11.7642838"><ele>95.0</ele><time>2026-04-26T07:28:24.04Z</time></trkpt><trkpt lat="45.7243064" lon="11.7641773"><ele>95.0</ele><time>2026-04-26T07:28:26.052Z</time></trkpt><trkpt lat="45.7243203" lon="11.7640882"><ele>95.0</ele><time>2026-04-26T07:28:28.061Z</time></trkpt><trkpt lat="45.7243337" lon="11.7639989"><ele>95.0</ele><time>2026-04-26T07:28:30.058Z</time></trkpt><trkpt lat="45.7243578" lon="11.763881"><ele>95.0</ele><time>2026-04-26T07:28:33.061Z</time></trkpt><trkpt lat="45.7243745" lon="11.7637858"><ele>95.0</ele><time>2026-04-26T07:28:35.045Z</time></trkpt><trkpt lat="45.7243986" lon="11.76365"><ele>95.0</ele><time>2026-04-26T07:28:37.05Z</time></trkpt><trkpt lat="45.7244205" lon="11.7634797"><ele>95.0</ele><time>2026-04-26T07:28:39.042Z</time></trkpt><trkpt lat="45.7244283" lon="11.7633884"><ele>95.0</ele><time>2026-04-26T07:28:40.045Z</time></trkpt><trkpt lat="45.7244327" lon="11.7632983"><ele>95.0</ele><time>2026-04-26T07:28:41.049Z</time></trkpt><trkpt lat="45.724433" lon="11.7632001"><ele>95.0</ele><time>2026-04-26T07:28:42.065Z</time></trkpt><trkpt lat="45.7244285" lon="11.7631036"><ele>95.0</ele><time>2026-04-26T07:28:43.063Z</time></trkpt><trkpt lat="45.7244253" lon="11.7630063"><ele>95.0</ele><time>2026-04-26T07:28:44.039Z</time></trkpt><trkpt lat="45.724461" lon="11.7628943"><ele>95.0</ele><time>2026-04-26T07:28:47.047Z</time></trkpt><trkpt lat="45.7245972" lon="11.7627959"><ele>95.0</ele><time>2026-04-26T07:28:49.069Z</time></trkpt><trkpt lat="45.7247037" lon="11.7627343"><ele>95.0</ele><time>2026-04-26T07:28:50.035Z</time></trkpt><trkpt lat="45.7248209" lon="11.7626792"><ele>95.5</ele><time>2026-04-26T07:28:51.053Z</time></trkpt><trkpt lat="45.7249258" lon="11.7626381"><ele>96.0</ele><time>2026-04-26T07:28:52.047Z</time></trkpt><trkpt lat="45.7250356" lon="11.7625942"><ele>96.5</ele><time>2026-04-26T07:28:53.034Z</time></trkpt><trkpt lat="45.7251505" lon="11.7625533"><ele>97.0</ele><time>2026-04-26T07:28:54.037Z</time></trkpt><trkpt lat="45.7252697" lon="11.7625168"><ele>97.0</ele><time>2026-04-26T07:28:55.039Z</time></trkpt><trkpt lat="45.7253908" lon="11.7624805"><ele>97.0</ele><time>2026-04-26T07:28:56.048Z</time></trkpt><trkpt lat="45.7255117" lon="11.7624491"><ele>97.0</ele><time>2026-04-26T07:28:57.039Z</time></trkpt><trkpt lat="45.7256324" lon="11.7624198"><ele>97.0</ele><time>2026-04-26T07:28:58.048Z</time></trkpt><trkpt lat="45.7257485" lon="11.7623943"><ele>97.0</ele><time>2026-04-26T07:28:59.04Z</time></trkpt><trkpt lat="45.7258627" lon="11.7623699"><ele>97.0</ele><time>2026-04-26T07:29:00.053Z</time></trkpt><trkpt lat="45.7259733" lon="11.7623455"><ele>97.0</ele><time>2026-04-26T07:29:01.034Z</time></trkpt><trkpt lat="45.7260845" lon="11.7623242"><ele>97.0</ele><time>2026-04-26T07:29:02.056Z</time></trkpt><trkpt lat="45.7261914" lon="11.7623032"><ele>97.0</ele><time>2026-04-26T07:29:03.038Z</time></trkpt><trkpt lat="45.7262966" lon="11.7622789"><ele>97.0</ele><time>2026-04-26T07:29:04.046Z</time></trkpt><trkpt lat="45.7264029" lon="11.7622524"><ele>97.0</ele><time>2026-04-26T07:29:05.065Z</time></trkpt><trkpt lat="45.7265078" lon="11.7622272"><ele>97.0</ele><time>2026-04-26T07:29:06.043Z</time></trkpt><trkpt lat="45.7266154" lon="11.762203"><ele>97.0</ele><time>2026-04-26T07:29:07.042Z</time></trkpt><trkpt lat="45.7267197" lon="11.762179"><ele>97.0</ele><time>2026-04-26T07:29:08.057Z</time></trkpt><trkpt lat="45.7268248" lon="11.7621522"><ele>97.5</ele><time>2026-04-26T07:29:09.042Z</time></trkpt><trkpt lat="45.7269309" lon="11.7621232"><ele>98.0</ele><time>2026-04-26T07:29:10.052Z</time></trkpt><trkpt lat="45.7270405" lon="11.7620947"><ele>98.5</ele><time>2026-04-26T07:29:11.039Z</time></trkpt><trkpt lat="45.727154" lon="11.7620629"><ele>99.0</ele><time>2026-04-26T07:29:12.055Z</time></trkpt><trkpt lat="45.7272692" lon="11.7620321"><ele>99.0</ele><time>2026-04-26T07:29:13.053Z</time></trkpt><trkpt lat="45.727384" lon="11.7620035"><ele>99.0</ele><time>2026-04-26T07:29:14.042Z</time></trkpt><trkpt lat="45.7275008" lon="11.7619726"><ele>99.0</ele><time>2026-04-26T07:29:15.044Z</time></trkpt><trkpt lat="45.7276181" lon="11.7619418"><ele>99.0</ele><time>2026-04-26T07:29:16.043Z</time></trkpt><trkpt lat="45.727738" lon="11.7619127"><ele>99.0</ele><time>2026-04-26T07:29:17.047Z</time></trkpt><trkpt lat="45.7278594" lon="11.7618858"><ele>99.0</ele><time>2026-04-26T07:29:18.064Z</time></trkpt><trkpt lat="45.7279814" lon="11.7618572"><ele>99.0</ele><time>2026-04-26T07:29:19.054Z</time></trkpt><trkpt lat="45.7281056" lon="11.7618316"><ele>99.0</ele><time>2026-04-26T07:29:20.04Z</time></trkpt><trkpt lat="45.7282313" lon="11.7618067"><ele>99.0</ele><time>2026-04-26T07:29:21.04Z</time></trkpt><trkpt lat="45.7283592" lon="11.7617801"><ele>99.0</ele><time>2026-04-26T07:29:22.039Z</time></trkpt><trkpt lat="45.7284896" lon="11.7617499"><ele>99.0</ele><time>2026-04-26T07:29:23.053Z</time></trkpt><trkpt lat="45.7286183" lon="11.761719"><ele>99.0</ele><time>2026-04-26T07:29:24.042Z</time></trkpt><trkpt lat="45.7287506" lon="11.7616895"><ele>99.25</ele><time>2026-04-26T07:29:25.047Z</time></trkpt><trkpt lat="45.7288852" lon="11.7616586"><ele>99.5</ele><time>2026-04-26T07:29:26.05Z</time></trkpt><trkpt lat="45.729021" lon="11.7616284"><ele>99.75</ele><time>2026-04-26T07:29:27.04Z</time></trkpt><trkpt lat="45.7291596" lon="11.7615972"><ele>100.0</ele><time>2026-04-26T07:29:28.055Z</time></trkpt><trkpt lat="45.7292974" lon="11.7615642"><ele>100.0</ele><time>2026-04-26T07:29:29.041Z</time></trkpt><trkpt lat="45.7294378" lon="11.7615319"><ele>100.0</ele><time>2026-04-26T07:29:30.042Z</time></trkpt><trkpt lat="45.7295801" lon="11.7614997"><ele>100.0</ele><time>2026-04-26T07:29:31.048Z</time></trkpt><trkpt lat="45.7297202" lon="11.7614687"><ele>100.0</ele><time>2026-04-26T07:29:32.04Z</time></trkpt><trkpt lat="45.7298615" lon="11.761435"><ele>100.0</ele><time>2026-04-26T07:29:33.04Z</time></trkpt><trkpt lat="45.7300044" lon="11.7614"><ele>100.0</ele><time>2026-04-26T07:29:34.047Z</time></trkpt><trkpt lat="45.7301497" lon="11.7613647"><ele>100.0</ele><time>2026-04-26T07:29:35.053Z</time></trkpt><trkpt lat="45.7302962" lon="11.7613294"><ele>100.0</ele><time>2026-04-26T07:29:36.042Z</time></trkpt><trkpt lat="45.7304457" lon="11.7612915"><ele>99.66666666666667</ele><time>2026-04-26T07:29:37.046Z</time></trkpt><trkpt lat="45.7305965" lon="11.7612521"><ele>99.33333333333334</ele><time>2026-04-26T07:29:38.044Z</time></trkpt><trkpt lat="45.7307479" lon="11.7612105"><ele>99.0</ele><time>2026-04-26T07:29:39.044Z</time></trkpt><trkpt lat="45.7308993" lon="11.7611698"><ele>99.0</ele><time>2026-04-26T07:29:40.043Z</time></trkpt><trkpt lat="45.7310506" lon="11.7611277"><ele>99.0</ele><time>2026-04-26T07:29:41.042Z</time></trkpt><trkpt lat="45.7312009" lon="11.7610859"><ele>99.0</ele><time>2026-04-26T07:29:42.042Z</time></trkpt><trkpt lat="45.7313506" lon="11.7610391"><ele>99.33333333333334</ele><time>2026-04-26T07:29:43.038Z</time></trkpt><trkpt lat="45.7315012" lon="11.7609888"><ele>99.66666666666667</ele><time>2026-04-26T07:29:44.049Z</time></trkpt><trkpt lat="45.7316496" lon="11.7609394"><ele>100.0</ele><time>2026-04-26T07:29:45.057Z</time></trkpt><trkpt lat="45.7317974" lon="11.7608929"><ele>100.0</ele><time>2026-04-26T07:29:46.051Z</time></trkpt><trkpt lat="45.7319453" lon="11.7608456"><ele>100.0</ele><time>2026-04-26T07:29:47.064Z</time></trkpt><trkpt lat="45.7320917" lon="11.7607997"><ele>100.0</ele><time>2026-04-26T07:29:48.04Z</time></trkpt><trkpt lat="45.7322393" lon="11.7607581"><ele>100.0</ele><time>2026-04-26T07:29:49.058Z</time></trkpt><trkpt lat="45.7323838" lon="11.7607162"><ele>100.0</ele><time>2026-04-26T07:29:50.042Z</time></trkpt><trkpt lat="45.7325266" lon="11.760676"><ele>100.0</ele><time>2026-04-26T07:29:51.051Z</time></trkpt><trkpt lat="45.7326675" lon="11.7606374"><ele>100.0</ele><time>2026-04-26T07:29:52.076Z</time></trkpt><trkpt lat="45.7328067" lon="11.7605996"><ele>100.0</ele><time>2026-04-26T07:29:53.041Z</time></trkpt><trkpt lat="45.7329528" lon="11.7605614"><ele>100.0</ele><time>2026-04-26T07:29:54.062Z</time></trkpt><trkpt lat="45.7330962" lon="11.7605234"><ele>100.0</ele><time>2026-04-26T07:29:55.052Z</time></trkpt><trkpt lat="45.7332411" lon="11.760485"><ele>100.0</ele><time>2026-04-26T07:29:56.046Z</time></trkpt><trkpt lat="45.7333835" lon="11.7604472"><ele>100.0</ele><time>2026-04-26T07:29:57.035Z</time></trkpt><trkpt lat="45.7335267" lon="11.760407"><ele>100.0</ele><time>2026-04-26T07:29:58.046Z</time></trkpt><trkpt lat="45.7336689" lon="11.7603661"><ele>100.0</ele><time>2026-04-26T07:29:59.054Z</time></trkpt><trkpt lat="45.733811" lon="11.7603236"><ele>100.0</ele><time>2026-04-26T07:30:00.052Z</time></trkpt><trkpt lat="45.7339522" lon="11.7602798"><ele>100.25</ele><time>2026-04-26T07:30:01.039Z</time></trkpt><trkpt lat="45.7340938" lon="11.760238"><ele>100.5</ele><time>2026-04-26T07:30:02.047Z</time></trkpt><trkpt lat="45.7342352" lon="11.7601968"><ele>100.75</ele><time>2026-04-26T07:30:03.055Z</time></trkpt><trkpt lat="45.7343752" lon="11.7601594"><ele>101.0</ele><time>2026-04-26T07:30:04.055Z</time></trkpt><trkpt lat="45.734515" lon="11.760124"><ele>101.0</ele><time>2026-04-26T07:30:05.04Z</time></trkpt><trkpt lat="45.7346568" lon="11.7600913"><ele>101.0</ele><time>2026-04-26T07:30:06.046Z</time></trkpt><trkpt lat="45.7348008" lon="11.7600612"><ele>101.0</ele><time>2026-04-26T07:30:07.047Z</time></trkpt><trkpt lat="45.7349471" lon="11.7600315"><ele>101.0</ele><time>2026-04-26T07:30:08.051Z</time></trkpt><trkpt lat="45.7350936" lon="11.7599987"><ele>102.0</ele><time>2026-04-26T07:30:09.049Z</time></trkpt><trkpt lat="45.7352423" lon="11.7599607"><ele>103.0</ele><time>2026-04-26T07:30:10.048Z</time></trkpt><trkpt lat="45.7353931" lon="11.7599257"><ele>104.0</ele><time>2026-04-26T07:30:11.059Z</time></trkpt><trkpt lat="45.7355419" lon="11.7598909"><ele>104.0</ele><time>2026-04-26T07:30:12.044Z</time></trkpt><trkpt lat="45.7356922" lon="11.7598571"><ele>104.0</ele><time>2026-04-26T07:30:13.047Z</time></trkpt><trkpt lat="45.7358416" lon="11.7598195"><ele>104.0</ele><time>2026-04-26T07:30:14.045Z</time></trkpt><trkpt lat="45.7359876" lon="11.7597842"><ele>103.5</ele><time>2026-04-26T07:30:15.038Z</time></trkpt><trkpt lat="45.7361313" lon="11.7597456"><ele>103.0</ele><time>2026-04-26T07:30:16.049Z</time></trkpt><trkpt lat="45.7362658" lon="11.7597129"><ele>102.5</ele><time>2026-04-26T07:30:17.045Z</time></trkpt><trkpt lat="45.7363755" lon="11.7596857"><ele>102.0</ele><time>2026-04-26T07:30:18.036Z</time></trkpt><trkpt lat="45.7364555" lon="11.7596632"><ele>102.0</ele><time>2026-04-26T07:30:19.051Z</time></trkpt><trkpt lat="45.7365405" lon="11.7596286"><ele>102.0</ele><time>2026-04-26T07:30:21.05Z</time></trkpt><trkpt lat="45.7366066" lon="11.759599"><ele>102.0</ele><time>2026-04-26T07:30:24.06Z</time></trkpt><trkpt lat="45.7366732" lon="11.7595459"><ele>102.0</ele><time>2026-04-26T07:30:28.038Z</time></trkpt><trkpt lat="45.73673" lon="11.7594964"><ele>102.0</ele><time>2026-04-26T07:30:33.038Z</time></trkpt><trkpt lat="45.7367843" lon="11.759427"><ele>102.0</ele><time>2026-04-26T07:30:37.05Z</time></trkpt><trkpt lat="45.7368368" lon="11.7593656"><ele>102.0</ele><time>2026-04-26T07:30:41.048Z</time></trkpt><trkpt lat="45.7368921" lon="11.7593011"><ele>102.19999999999999</ele><time>2026-04-26T07:30:47.038Z</time></trkpt><trkpt lat="45.7369574" lon="11.7592402"><ele>102.4</ele><time>2026-04-26T07:30:52.048Z</time></trkpt><trkpt lat="45.7370401" lon="11.7592331"><ele>102.6</ele><time>2026-04-26T07:31:00.045Z</time></trkpt><trkpt lat="45.7371292" lon="11.7592781"><ele>102.80000000000001</ele><time>2026-04-26T07:31:02.068Z</time></trkpt><trkpt lat="45.7372463" lon="11.759286"><ele>103.0</ele><time>2026-04-26T07:31:04.062Z</time></trkpt><trkpt lat="45.7373588" lon="11.7592489"><ele>103.0</ele><time>2026-04-26T07:31:05.036Z</time></trkpt><trkpt lat="45.7374804" lon="11.7592148"><ele>103.0</ele><time>2026-04-26T07:31:06.053Z</time></trkpt><trkpt lat="45.737597" lon="11.7592049"><ele>103.0</ele><time>2026-04-26T07:31:07.05Z</time></trkpt><trkpt lat="45.7377469" lon="11.7591801"><ele>103.0</ele><time>2026-04-26T07:31:08.048Z</time></trkpt><trkpt lat="45.7379147" lon="11.759131"><ele>104.0</ele><time>2026-04-26T07:31:09.045Z</time></trkpt><trkpt lat="45.7380521" lon="11.7590645"><ele>105.0</ele><time>2026-04-26T07:31:10.063Z</time></trkpt><trkpt lat="45.7381945" lon="11.7589799"><ele>106.0</ele><time>2026-04-26T07:31:11.046Z</time></trkpt><trkpt lat="45.7383314" lon="11.7588899"><ele>106.0</ele><time>2026-04-26T07:31:12.04Z</time></trkpt><trkpt lat="45.7384695" lon="11.7587944"><ele>106.0</ele><time>2026-04-26T07:31:13.052Z</time></trkpt><trkpt lat="45.738606" lon="11.7586913"><ele>106.0</ele><time>2026-04-26T07:31:14.05Z</time></trkpt><trkpt lat="45.7387393" lon="11.758587"><ele>106.0</ele><time>2026-04-26T07:31:15.047Z</time></trkpt><trkpt lat="45.7388671" lon="11.7584906"><ele>106.0</ele><time>2026-04-26T07:31:16.037Z</time></trkpt><trkpt lat="45.7389944" lon="11.7583902"><ele>106.0</ele><time>2026-04-26T07:31:17.038Z</time></trkpt><trkpt lat="45.7391172" lon="11.7582939"><ele>106.0</ele><time>2026-04-26T07:31:18.041Z</time></trkpt><trkpt lat="45.7392388" lon="11.7581977"><ele>106.0</ele><time>2026-04-26T07:31:19.048Z</time></trkpt><trkpt lat="45.7393556" lon="11.7581062"><ele>106.0</ele><time>2026-04-26T07:31:20.039Z</time></trkpt><trkpt lat="45.7394736" lon="11.758013"><ele>106.0</ele><time>2026-04-26T07:31:21.037Z</time></trkpt><trkpt lat="45.7395959" lon="11.757918"><ele>106.0</ele><time>2026-04-26T07:31:22.04Z</time></trkpt><trkpt lat="45.7397215" lon="11.7578189"><ele>106.33333333333334</ele><time>2026-04-26T07:31:23.039Z</time></trkpt><trkpt lat="45.7398522" lon="11.757716"><ele>106.66666666666666</ele><time>2026-04-26T07:31:24.04Z</time></trkpt><trkpt lat="45.7399853" lon="11.7576093"><ele>107.0</ele><time>2026-04-26T07:31:25.049Z</time></trkpt><trkpt lat="45.7401203" lon="11.7575025"><ele>106.33333333333333</ele><time>2026-04-26T07:31:26.035Z</time></trkpt><trkpt lat="45.740253" lon="11.7573978"><ele>105.66666666666666</ele><time>2026-04-26T07:31:27.038Z</time></trkpt><trkpt lat="45.7403833" lon="11.7572925"><ele>105.0</ele><time>2026-04-26T07:31:28.051Z</time></trkpt><trkpt lat="45.740513" lon="11.7571885"><ele>105.0</ele><time>2026-04-26T07:31:29.044Z</time></trkpt><trkpt lat="45.7406458" lon="11.7570817"><ele>105.0</ele><time>2026-04-26T07:31:30.05Z</time></trkpt><trkpt lat="45.740777" lon="11.7569735"><ele>105.0</ele><time>2026-04-26T07:31:31.069Z</time></trkpt><trkpt lat="45.7409046" lon="11.7568659"><ele>105.33333333333334</ele><time>2026-04-26T07:31:32.054Z</time></trkpt><trkpt lat="45.7410338" lon="11.7567562"><ele>105.66666666666667</ele><time>2026-04-26T07:31:33.047Z</time></trkpt><trkpt lat="45.7411638" lon="11.7566439"><ele>106.0</ele><time>2026-04-26T07:31:34.06Z</time></trkpt><trkpt lat="45.7412951" lon="11.756533"><ele>105.33333333333334</ele><time>2026-04-26T07:31:35.061Z</time></trkpt><trkpt lat="45.7414287" lon="11.7564209"><ele>104.66666666666666</ele><time>2026-04-26T07:31:36.044Z</time></trkpt><trkpt lat="45.7415644" lon="11.7563034"><ele>104.0</ele><time>2026-04-26T07:31:37.047Z</time></trkpt><trkpt lat="45.7417039" lon="11.756182"><ele>104.0</ele><time>2026-04-26T07:31:38.054Z</time></trkpt><trkpt lat="45.7418438" lon="11.7560614"><ele>104.0</ele><time>2026-04-26T07:31:39.056Z</time></trkpt><trkpt lat="45.7419828" lon="11.7559402"><ele>104.0</ele><time>2026-04-26T07:31:40.067Z</time></trkpt><trkpt lat="45.742116" lon="11.7558227"><ele>105.0</ele><time>2026-04-26T07:31:41.056Z</time></trkpt><trkpt lat="45.7422464" lon="11.7557066"><ele>106.0</ele><time>2026-04-26T07:31:42.049Z</time></trkpt><trkpt lat="45.7423748" lon="11.7555928"><ele>107.0</ele><time>2026-04-26T07:31:43.067Z</time></trkpt><trkpt lat="45.7424969" lon="11.7554812"><ele>108.0</ele><time>2026-04-26T07:31:44.04Z</time></trkpt><trkpt lat="45.7426187" lon="11.7553674"><ele>107.75</ele><time>2026-04-26T07:31:45.045Z</time></trkpt><trkpt lat="45.7427389" lon="11.7552572"><ele>107.5</ele><time>2026-04-26T07:31:46.047Z</time></trkpt><trkpt lat="45.742857" lon="11.7551496"><ele>107.25</ele><time>2026-04-26T07:31:47.051Z</time></trkpt><trkpt lat="45.7429736" lon="11.7550447"><ele>107.0</ele><time>2026-04-26T07:31:48.042Z</time></trkpt><trkpt lat="45.7430934" lon="11.7549355"><ele>107.5</ele><time>2026-04-26T07:31:49.048Z</time></trkpt><trkpt lat="45.7432111" lon="11.75483"><ele>108.0</ele><time>2026-04-26T07:31:50.049Z</time></trkpt><trkpt lat="45.7433271" lon="11.7547245"><ele>108.5</ele><time>2026-04-26T07:31:51.042Z</time></trkpt><trkpt lat="45.7434411" lon="11.7546203"><ele>109.0</ele><time>2026-04-26T07:31:52.046Z</time></trkpt><trkpt lat="45.7435456" lon="11.7545229"><ele>109.80000000000001</ele><time>2026-04-26T07:31:53.036Z</time></trkpt><trkpt lat="45.74364" lon="11.7544351"><ele>110.60000000000001</ele><time>2026-04-26T07:31:54.043Z</time></trkpt><trkpt lat="45.7437222" lon="11.7543641"><ele>111.4</ele><time>2026-04-26T07:31:55.047Z</time></trkpt><trkpt lat="45.7437994" lon="11.7543207"><ele>112.2</ele><time>2026-04-26T07:31:56.044Z</time></trkpt><trkpt lat="45.7438814" lon="11.7543043"><ele>113.0</ele><time>2026-04-26T07:31:57.051Z</time></trkpt><trkpt lat="45.7439638" lon="11.7542889"><ele>112.99999999999999</ele><time>2026-04-26T07:31:58.05Z</time></trkpt><trkpt lat="45.7440414" lon="11.7542704"><ele>113.0</ele><time>2026-04-26T07:31:59.046Z</time></trkpt><trkpt lat="45.7441113" lon="11.7542014"><ele>113.0</ele><time>2026-04-26T07:32:00.067Z</time></trkpt><trkpt lat="45.7441661" lon="11.7541049"><ele>113.0</ele><time>2026-04-26T07:32:01.038Z</time></trkpt><trkpt lat="45.7442204" lon="11.7539992"><ele>112.99999999999999</ele><time>2026-04-26T07:32:02.041Z</time></trkpt><trkpt lat="45.7442979" lon="11.7539026"><ele>113.0</ele><time>2026-04-26T07:32:03.034Z</time></trkpt><trkpt lat="45.7443563" lon="11.7537795"><ele>112.25</ele><time>2026-04-26T07:32:04.036Z</time></trkpt><trkpt lat="45.7444439" lon="11.7536904"><ele>111.5</ele><time>2026-04-26T07:32:05.046Z</time></trkpt><trkpt lat="45.7445457" lon="11.7536125"><ele>110.75</ele><time>2026-04-26T07:32:06.038Z</time></trkpt><trkpt lat="45.7446588" lon="11.7535549"><ele>110.0</ele><time>2026-04-26T07:32:07.068Z</time></trkpt><trkpt lat="45.7447575" lon="11.7534642"><ele>110.0</ele><time>2026-04-26T07:32:08.04Z</time></trkpt><trkpt lat="45.7448639" lon="11.7533884"><ele>110.0</ele><time>2026-04-26T07:32:09.048Z</time></trkpt><trkpt lat="45.7449677" lon="11.7533054"><ele>110.0</ele><time>2026-04-26T07:32:10.043Z</time></trkpt><trkpt lat="45.7450635" lon="11.75321"><ele>110.0</ele><time>2026-04-26T07:32:11.037Z</time></trkpt><trkpt lat="45.7451664" lon="11.7531232"><ele>110.25</ele><time>2026-04-26T07:32:12.044Z</time></trkpt><trkpt lat="45.7452654" lon="11.7530241"><ele>110.5</ele><time>2026-04-26T07:32:13.038Z</time></trkpt><trkpt lat="45.7453666" lon="11.752933"><ele>110.75</ele><time>2026-04-26T07:32:14.038Z</time></trkpt><trkpt lat="45.7454697" lon="11.7528496"><ele>111.0</ele><time>2026-04-26T07:32:15.054Z</time></trkpt><trkpt lat="45.7455717" lon="11.7527592"><ele>111.0</ele><time>2026-04-26T07:32:16.048Z</time></trkpt><trkpt lat="45.7456739" lon="11.7526698"><ele>111.0</ele><time>2026-04-26T07:32:17.04Z</time></trkpt><trkpt lat="45.7457732" lon="11.7525808"><ele>111.0</ele><time>2026-04-26T07:32:18.057Z</time></trkpt><trkpt lat="45.745874" lon="11.7525061"><ele>111.0</ele><time>2026-04-26T07:32:19.039Z</time></trkpt><trkpt lat="45.7459701" lon="11.7524295"><ele>111.0</ele><time>2026-04-26T07:32:20.037Z</time></trkpt><trkpt lat="45.746063" lon="11.7523537"><ele>111.0</ele><time>2026-04-26T07:32:21.031Z</time></trkpt><trkpt lat="45.7461521" lon="11.7522782"><ele>111.0</ele><time>2026-04-26T07:32:22.04Z</time></trkpt><trkpt lat="45.7462397" lon="11.7522056"><ele>111.0</ele><time>2026-04-26T07:32:23.041Z</time></trkpt><trkpt lat="45.7463263" lon="11.7521395"><ele>111.0</ele><time>2026-04-26T07:32:24.047Z</time></trkpt><trkpt lat="45.746408" lon="11.75207"><ele>111.0</ele><time>2026-04-26T07:32:25.04Z</time></trkpt><trkpt lat="45.7464919" lon="11.7520063"><ele>111.0</ele><time>2026-04-26T07:32:26.044Z</time></trkpt><trkpt lat="45.7465718" lon="11.7519405"><ele>111.0</ele><time>2026-04-26T07:32:27.039Z</time></trkpt><trkpt lat="45.7466481" lon="11.7518714"><ele>111.0</ele><time>2026-04-26T07:32:28.051Z</time></trkpt><trkpt lat="45.7467269" lon="11.7518089"><ele>111.0</ele><time>2026-04-26T07:32:29.042Z</time></trkpt><trkpt lat="45.7468039" lon="11.7517431"><ele>111.4</ele><time>2026-04-26T07:32:30.051Z</time></trkpt><trkpt lat="45.7468817" lon="11.7516724"><ele>111.8</ele><time>2026-04-26T07:32:31.048Z</time></trkpt><trkpt lat="45.7469646" lon="11.7515936"><ele>112.20000000000002</ele><time>2026-04-26T07:32:32.045Z</time></trkpt><trkpt lat="45.7470496" lon="11.7514911"><ele>112.60000000000001</ele><time>2026-04-26T07:32:33.047Z</time></trkpt><trkpt lat="45.7471503" lon="11.7513936"><ele>113.0</ele><time>2026-04-26T07:32:34.042Z</time></trkpt><trkpt lat="45.7472643" lon="11.7513102"><ele>113.0</ele><time>2026-04-26T07:32:35.046Z</time></trkpt><trkpt lat="45.7473764" lon="11.7512263"><ele>113.0</ele><time>2026-04-26T07:32:36.035Z</time></trkpt><trkpt lat="45.7474858" lon="11.7511477"><ele>113.0</ele><time>2026-04-26T07:32:37.041Z</time></trkpt><trkpt lat="45.7475781" lon="11.7510519"><ele>113.0</ele><time>2026-04-26T07:32:38.05Z</time></trkpt><trkpt lat="45.7476726" lon="11.7509872"><ele>113.0</ele><time>2026-04-26T07:32:39.047Z</time></trkpt><trkpt lat="45.7477492" lon="11.7509049"><ele>113.00000000000001</ele><time>2026-04-26T07:32:40.06Z</time></trkpt><trkpt lat="45.7478258" lon="11.7508318"><ele>113.00000000000001</ele><time>2026-04-26T07:32:41.059Z</time></trkpt><trkpt lat="45.7479012" lon="11.7507636"><ele>113.0</ele><time>2026-04-26T07:32:42.056Z</time></trkpt><trkpt lat="45.7479788" lon="11.7506919"><ele>113.0</ele><time>2026-04-26T07:32:43.035Z</time></trkpt><trkpt lat="45.7480624" lon="11.7506155"><ele>113.0</ele><time>2026-04-26T07:32:44.061Z</time></trkpt><trkpt lat="45.7481502" lon="11.7505389"><ele>113.00000000000001</ele><time>2026-04-26T07:32:45.041Z</time></trkpt><trkpt lat="45.748246" lon="11.7504763"><ele>113.00000000000001</ele><time>2026-04-26T07:32:46.047Z</time></trkpt><trkpt lat="45.7483342" lon="11.750394"><ele>113.0</ele><time>2026-04-26T07:32:47.08Z</time></trkpt><trkpt lat="45.748429" lon="11.7503205"><ele>113.0</ele><time>2026-04-26T07:32:48.045Z</time></trkpt><trkpt lat="45.7485264" lon="11.7502499"><ele>113.4</ele><time>2026-04-26T07:32:49.049Z</time></trkpt><trkpt lat="45.7486165" lon="11.7501694"><ele>113.80000000000001</ele><time>2026-04-26T07:32:50.049Z</time></trkpt><trkpt lat="45.7487058" lon="11.7500948"><ele>114.2</ele><time>2026-04-26T07:32:51.04Z</time></trkpt><trkpt lat="45.7487835" lon="11.7500132"><ele>114.6</ele><time>2026-04-26T07:32:52.042Z</time></trkpt><trkpt lat="45.7488543" lon="11.7499598"><ele>115.0</ele><time>2026-04-26T07:32:53.048Z</time></trkpt><trkpt lat="45.7489116" lon="11.7499172"><ele>114.99999999999999</ele><time>2026-04-26T07:32:54.048Z</time></trkpt><trkpt lat="45.7489947" lon="11.7498605"><ele>115.0</ele><time>2026-04-26T07:32:56.039Z</time></trkpt><trkpt lat="45.7490541" lon="11.7498121"><ele>114.99999999999999</ele><time>2026-04-26T07:32:58.054Z</time></trkpt><trkpt lat="45.7491056" lon="11.7497594"><ele>114.99999999999999</ele><time>2026-04-26T07:33:00.072Z</time></trkpt><trkpt lat="45.7491668" lon="11.7497031"><ele>115.0</ele><time>2026-04-26T07:33:02.049Z</time></trkpt><trkpt lat="45.7492167" lon="11.7496467"><ele>114.99999999999999</ele><time>2026-04-26T07:33:04.043Z</time></trkpt><trkpt lat="45.7492847" lon="11.7496048"><ele>114.99999999999999</ele><time>2026-04-26T07:33:08.053Z</time></trkpt><trkpt lat="45.7493905" lon="11.749455"><ele>114.5</ele><time>2026-04-26T07:33:18.057Z</time></trkpt><trkpt lat="45.7494985" lon="11.7493587"><ele>114.0</ele><time>2026-04-26T07:33:19.038Z</time></trkpt><trkpt lat="45.7496303" lon="11.7492521"><ele>113.5</ele><time>2026-04-26T07:33:20.031Z</time></trkpt><trkpt lat="45.7497751" lon="11.7491267"><ele>113.0</ele><time>2026-04-26T07:33:21.032Z</time></trkpt><trkpt lat="45.7499196" lon="11.749002"><ele>113.0</ele><time>2026-04-26T07:33:22.019Z</time></trkpt><trkpt lat="45.7500631" lon="11.7488823"><ele>113.0</ele><time>2026-04-26T07:33:23.032Z</time></trkpt><trkpt lat="45.7502016" lon="11.7487639"><ele>113.0</ele><time>2026-04-26T07:33:24.03Z</time></trkpt><trkpt lat="45.7503372" lon="11.7486442"><ele>113.66666666666666</ele><time>2026-04-26T07:33:25.021Z</time></trkpt><trkpt lat="45.7504713" lon="11.7485214"><ele>114.33333333333334</ele><time>2026-04-26T07:33:26.046Z</time></trkpt><trkpt lat="45.7506013" lon="11.7483907"><ele>115.0</ele><time>2026-04-26T07:33:27.031Z</time></trkpt><trkpt lat="45.750735" lon="11.7482661"><ele>115.0</ele><time>2026-04-26T07:33:28.02Z</time></trkpt><trkpt lat="45.7508686" lon="11.7481445"><ele>115.0</ele><time>2026-04-26T07:33:29.021Z</time></trkpt><trkpt lat="45.7510072" lon="11.7480321"><ele>115.0</ele><time>2026-04-26T07:33:30.034Z</time></trkpt><trkpt lat="45.7511442" lon="11.7479222"><ele>115.0</ele><time>2026-04-26T07:33:31.033Z</time></trkpt><trkpt lat="45.7512747" lon="11.7478122"><ele>115.0</ele><time>2026-04-26T07:33:32.033Z</time></trkpt><trkpt lat="45.7514104" lon="11.7477205"><ele>115.0</ele><time>2026-04-26T07:33:33.039Z</time></trkpt><trkpt lat="45.7515296" lon="11.7476158"><ele>115.0</ele><time>2026-04-26T07:33:34.041Z</time></trkpt><trkpt lat="45.7516482" lon="11.7475335"><ele>115.16666666666667</ele><time>2026-04-26T07:33:35.054Z</time></trkpt><trkpt lat="45.7517485" lon="11.7474555"><ele>115.33333333333334</ele><time>2026-04-26T07:33:36.042Z</time></trkpt><trkpt lat="45.7518287" lon="11.7473936"><ele>115.5</ele><time>2026-04-26T07:33:37.044Z</time></trkpt><trkpt lat="45.7518973" lon="11.747347"><ele>115.66666666666666</ele><time>2026-04-26T07:33:38.048Z</time></trkpt><trkpt lat="45.7519668" lon="11.7473211"><ele>115.83333333333333</ele><time>2026-04-26T07:33:39.024Z</time></trkpt><trkpt lat="45.7520378" lon="11.7473294"><ele>116.0</ele><time>2026-04-26T07:33:40.034Z</time></trkpt><trkpt lat="45.7521048" lon="11.7473509"><ele>116.16666666666666</ele><time>2026-04-26T07:33:41.027Z</time></trkpt><trkpt lat="45.752171" lon="11.7473539"><ele>116.33333333333333</ele><time>2026-04-26T07:33:42.039Z</time></trkpt><trkpt lat="45.7522486" lon="11.747321"><ele>116.5</ele><time>2026-04-26T07:33:43.033Z</time></trkpt><trkpt lat="45.7523168" lon="11.7472413"><ele>116.66666666666666</ele><time>2026-04-26T07:33:44.03Z</time></trkpt><trkpt lat="45.7523632" lon="11.7471211"><ele>116.83333333333333</ele><time>2026-04-26T07:33:45.021Z</time></trkpt><trkpt lat="45.7524068" lon="11.7469875"><ele>117.0</ele><time>2026-04-26T07:33:46.034Z</time></trkpt><trkpt lat="45.7524803" lon="11.7468529"><ele>117.0</ele><time>2026-04-26T07:33:47.02Z</time></trkpt><trkpt lat="45.7525895" lon="11.7467347"><ele>117.0</ele><time>2026-04-26T07:33:48.03Z</time></trkpt><trkpt lat="45.752712" lon="11.746622"><ele>117.0</ele><time>2026-04-26T07:33:49.023Z</time></trkpt><trkpt lat="45.7528381" lon="11.7465172"><ele>117.0</ele><time>2026-04-26T07:33:50.046Z</time></trkpt><trkpt lat="45.7529585" lon="11.7464074"><ele>117.0</ele><time>2026-04-26T07:33:51.043Z</time></trkpt><trkpt lat="45.7530619" lon="11.7462636"><ele>117.0</ele><time>2026-04-26T07:33:52.03Z</time></trkpt><trkpt lat="45.7531778" lon="11.746138"><ele>117.0</ele><time>2026-04-26T07:33:53.025Z</time></trkpt><trkpt lat="45.7533024" lon="11.7460234"><ele>117.0</ele><time>2026-04-26T07:33:54.034Z</time></trkpt><trkpt lat="45.7534296" lon="11.7459126"><ele>117.33333333333334</ele><time>2026-04-26T07:33:55.031Z</time></trkpt><trkpt lat="45.7535704" lon="11.7458308"><ele>117.66666666666667</ele><time>2026-04-26T07:33:56.024Z</time></trkpt><trkpt lat="45.7537045" lon="11.7457301"><ele>118.0</ele><time>2026-04-26T07:33:57.028Z</time></trkpt><trkpt lat="45.7538365" lon="11.7456241"><ele>118.0</ele><time>2026-04-26T07:33:58.023Z</time></trkpt><trkpt lat="45.7539682" lon="11.7455136"><ele>118.0</ele><time>2026-04-26T07:33:59.019Z</time></trkpt><trkpt lat="45.7541002" lon="11.7453972"><ele>118.0</ele><time>2026-04-26T07:34:00.034Z</time></trkpt><trkpt lat="45.754233" lon="11.7452769"><ele>118.0</ele><time>2026-04-26T07:34:01.027Z</time></trkpt><trkpt lat="45.7543716" lon="11.7451634"><ele>118.0</ele><time>2026-04-26T07:34:02.037Z</time></trkpt><trkpt lat="45.7545152" lon="11.7450576"><ele>118.0</ele><time>2026-04-26T07:34:03.031Z</time></trkpt><trkpt lat="45.7546506" lon="11.7449332"><ele>118.0</ele><time>2026-04-26T07:34:04.039Z</time></trkpt><trkpt lat="45.7547878" lon="11.7448109"><ele>118.0</ele><time>2026-04-26T07:34:05.026Z</time></trkpt><trkpt lat="45.7549252" lon="11.7446895"><ele>118.0</ele><time>2026-04-26T07:34:06.027Z</time></trkpt><trkpt lat="45.755068" lon="11.7445796"><ele>118.0</ele><time>2026-04-26T07:34:07.023Z</time></trkpt><trkpt lat="45.7552065" lon="11.7444589"><ele>118.0</ele><time>2026-04-26T07:34:08.041Z</time></trkpt><trkpt lat="45.755351" lon="11.7443516"><ele>118.0</ele><time>2026-04-26T07:34:09.027Z</time></trkpt><trkpt lat="45.7554938" lon="11.7442424"><ele>118.66666666666667</ele><time>2026-04-26T07:34:10.03Z</time></trkpt><trkpt lat="45.7556408" lon="11.7441453"><ele>119.33333333333334</ele><time>2026-04-26T07:34:11.025Z</time></trkpt><trkpt lat="45.7557812" lon="11.7440353"><ele>120.0</ele><time>2026-04-26T07:34:12.048Z</time></trkpt><trkpt lat="45.7559184" lon="11.7439167"><ele>120.0</ele><time>2026-04-26T07:34:13.039Z</time></trkpt><trkpt lat="45.7560555" lon="11.7437926"><ele>120.0</ele><time>2026-04-26T07:34:14.036Z</time></trkpt><trkpt lat="45.7561944" lon="11.7436651"><ele>120.0</ele><time>2026-04-26T07:34:15.045Z</time></trkpt><trkpt lat="45.7563335" lon="11.7435384"><ele>120.0</ele><time>2026-04-26T07:34:16.04Z</time></trkpt><trkpt lat="45.7564729" lon="11.7434186"><ele>120.0</ele><time>2026-04-26T07:34:17.021Z</time></trkpt><trkpt lat="45.7566083" lon="11.7433003"><ele>120.0</ele><time>2026-04-26T07:34:18.041Z</time></trkpt><trkpt lat="45.7567408" lon="11.7431837"><ele>120.0</ele><time>2026-04-26T07:34:19.046Z</time></trkpt><trkpt lat="45.7568665" lon="11.7430651"><ele>120.0</ele><time>2026-04-26T07:34:20.031Z</time></trkpt><trkpt lat="45.7569869" lon="11.7429475"><ele>120.0</ele><time>2026-04-26T07:34:21.036Z</time></trkpt><trkpt lat="45.7571097" lon="11.7428437"><ele>120.0</ele><time>2026-04-26T07:34:22.035Z</time></trkpt><trkpt lat="45.7572298" lon="11.7427455"><ele>120.0</ele><time>2026-04-26T07:34:23.045Z</time></trkpt><trkpt lat="45.7573449" lon="11.742645"><ele>120.0</ele><time>2026-04-26T07:34:24.035Z</time></trkpt><trkpt lat="45.7574557" lon="11.7425439"><ele>120.0</ele><time>2026-04-26T07:34:25.046Z</time></trkpt><trkpt lat="45.7575604" lon="11.7424521"><ele>120.0</ele><time>2026-04-26T07:34:26.031Z</time></trkpt><trkpt lat="45.7576534" lon="11.7423768"><ele>120.6</ele><time>2026-04-26T07:34:27.033Z</time></trkpt><trkpt lat="45.7577225" lon="11.7423264"><ele>121.2</ele><time>2026-04-26T07:34:28.04Z</time></trkpt><trkpt lat="45.7578248" lon="11.7422745"><ele>121.80000000000001</ele><time>2026-04-26T07:34:30.019Z</time></trkpt><trkpt lat="45.7579231" lon="11.7422863"><ele>122.4</ele><time>2026-04-26T07:34:32.022Z</time></trkpt><trkpt lat="45.7580373" lon="11.7422594"><ele>123.0</ele><time>2026-04-26T07:34:34.03Z</time></trkpt><trkpt lat="45.7580925" lon="11.7421872"><ele>123.0</ele><time>2026-04-26T07:34:35.042Z</time></trkpt><trkpt lat="45.7581459" lon="11.7420929"><ele>123.0</ele><time>2026-04-26T07:34:36.046Z</time></trkpt><trkpt lat="45.7582062" lon="11.7420075"><ele>123.0</ele><time>2026-04-26T07:34:37.015Z</time></trkpt><trkpt lat="45.7582755" lon="11.7419456"><ele>123.0</ele><time>2026-04-26T07:34:38.022Z</time></trkpt><trkpt lat="45.7583509" lon="11.7419276"><ele>123.0</ele><time>2026-04-26T07:34:39.034Z</time></trkpt><trkpt lat="45.7584188" lon="11.7419132"><ele>123.0</ele><time>2026-04-26T07:34:40.036Z</time></trkpt><trkpt lat="45.758484" lon="11.741893"><ele>122.66666666666667</ele><time>2026-04-26T07:34:41.022Z</time></trkpt><trkpt lat="45.7585528" lon="11.7418774"><ele>122.33333333333334</ele><time>2026-04-26T07:34:42.039Z</time></trkpt><trkpt lat="45.7586371" lon="11.7418501"><ele>122.0</ele><time>2026-04-26T07:34:43.023Z</time></trkpt><trkpt lat="45.7587264" lon="11.7418169"><ele>121.66666666666667</ele><time>2026-04-26T07:34:44.034Z</time></trkpt><trkpt lat="45.758818" lon="11.7417866"><ele>121.33333333333334</ele><time>2026-04-26T07:34:45.03Z</time></trkpt><trkpt lat="45.7589181" lon="11.7417486"><ele>121.0</ele><time>2026-04-26T07:34:46.029Z</time></trkpt><trkpt lat="45.7590261" lon="11.741721"><ele>121.0</ele><time>2026-04-26T07:34:47.021Z</time></trkpt><trkpt lat="45.7591303" lon="11.7416937"><ele>121.0</ele><time>2026-04-26T07:34:48.026Z</time></trkpt><trkpt lat="45.759235" lon="11.7416739"><ele>121.0</ele><time>2026-04-26T07:34:49.04Z</time></trkpt><trkpt lat="45.759339" lon="11.7416594"><ele>121.0</ele><time>2026-04-26T07:34:50.028Z</time></trkpt><trkpt lat="45.7594439" lon="11.7416538"><ele>121.0</ele><time>2026-04-26T07:34:51.021Z</time></trkpt><trkpt lat="45.7595535" lon="11.7416447"><ele>121.4</ele><time>2026-04-26T07:34:52.028Z</time></trkpt><trkpt lat="45.7596657" lon="11.7416359"><ele>121.8</ele><time>2026-04-26T07:34:53.036Z</time></trkpt><trkpt lat="45.7597773" lon="11.7416094"><ele>122.20000000000002</ele><time>2026-04-26T07:34:54.016Z</time></trkpt><trkpt lat="45.7598854" lon="11.7415889"><ele>122.60000000000001</ele><time>2026-04-26T07:34:55.043Z</time></trkpt><trkpt lat="45.7599967" lon="11.7415534"><ele>123.0</ele><time>2026-04-26T07:34:56.03Z</time></trkpt><trkpt lat="45.7601093" lon="11.7415144"><ele>123.80000000000001</ele><time>2026-04-26T07:34:57.035Z</time></trkpt><trkpt lat="45.7602193" lon="11.741475"><ele>124.60000000000001</ele><time>2026-04-26T07:34:58.044Z</time></trkpt><trkpt lat="45.7603223" lon="11.7414331"><ele>125.39999999999999</ele><time>2026-04-26T07:34:59.03Z</time></trkpt><trkpt lat="45.7604139" lon="11.7413975"><ele>126.19999999999999</ele><time>2026-04-26T07:35:00.035Z</time></trkpt><trkpt lat="45.7604988" lon="11.7413716"><ele>127.0</ele><time>2026-04-26T07:35:01.02Z</time></trkpt><trkpt lat="45.7605803" lon="11.7413497"><ele>127.00000000000001</ele><time>2026-04-26T07:35:02.039Z</time></trkpt><trkpt lat="45.7606592" lon="11.7413292"><ele>127.0</ele><time>2026-04-26T07:35:03.027Z</time></trkpt><trkpt lat="45.7607346" lon="11.7413063"><ele>127.0</ele><time>2026-04-26T07:35:04.037Z</time></trkpt><trkpt lat="45.7608145" lon="11.7412831"><ele>127.0</ele><time>2026-04-26T07:35:05.031Z</time></trkpt><trkpt lat="45.7609023" lon="11.7412485"><ele>127.00000000000001</ele><time>2026-04-26T07:35:06.029Z</time></trkpt><trkpt lat="45.7610016" lon="11.741209"><ele>127.0</ele><time>2026-04-26T07:35:07.031Z</time></trkpt><trkpt lat="45.7611042" lon="11.7411487"><ele>127.0</ele><time>2026-04-26T07:35:08.038Z</time></trkpt><trkpt lat="45.7612094" lon="11.741068"><ele>127.0</ele><time>2026-04-26T07:35:09.026Z</time></trkpt><trkpt lat="45.7613166" lon="11.740982"><ele>127.0</ele><time>2026-04-26T07:35:10.043Z</time></trkpt><trkpt lat="45.7614238" lon="11.7409003"><ele>127.0</ele><time>2026-04-26T07:35:11.037Z</time></trkpt><trkpt lat="45.7615345" lon="11.7408357"><ele>127.0</ele><time>2026-04-26T07:35:12.021Z</time></trkpt><trkpt lat="45.761645" lon="11.7407679"><ele>127.0</ele><time>2026-04-26T07:35:13.036Z</time></trkpt><trkpt lat="45.7617567" lon="11.7406992"><ele>127.0</ele><time>2026-04-26T07:35:14.03Z</time></trkpt><trkpt lat="45.7618698" lon="11.7406334"><ele>127.0</ele><time>2026-04-26T07:35:15.023Z</time></trkpt><trkpt lat="45.7619809" lon="11.740568"><ele>127.0</ele><time>2026-04-26T07:35:16.044Z</time></trkpt><trkpt lat="45.7620878" lon="11.7405022"><ele>127.0</ele><time>2026-04-26T07:35:17.034Z</time></trkpt><trkpt lat="45.7621943" lon="11.740436"><ele>127.0</ele><time>2026-04-26T07:35:18.041Z</time></trkpt><trkpt lat="45.7623065" lon="11.7403668"><ele>127.0</ele><time>2026-04-26T07:35:19.027Z</time></trkpt><trkpt lat="45.7624241" lon="11.7402941"><ele>127.0</ele><time>2026-04-26T07:35:20.022Z</time></trkpt><trkpt lat="45.7625433" lon="11.7402184"><ele>127.0</ele><time>2026-04-26T07:35:21.021Z</time></trkpt><trkpt lat="45.7626649" lon="11.7401364"><ele>127.0</ele><time>2026-04-26T07:35:22.036Z</time></trkpt><trkpt lat="45.7627928" lon="11.7400527"><ele>127.0</ele><time>2026-04-26T07:35:23.038Z</time></trkpt><trkpt lat="45.7629262" lon="11.7399736"><ele>128.33333333333334</ele><time>2026-04-26T07:35:24.037Z</time></trkpt><trkpt lat="45.7630639" lon="11.7398961"><ele>129.66666666666666</ele><time>2026-04-26T07:35:25.017Z</time></trkpt><trkpt lat="45.7632053" lon="11.7398197"><ele>131.0</ele><time>2026-04-26T07:35:26.035Z</time></trkpt><trkpt lat="45.7633496" lon="11.7397395"><ele>131.0</ele><time>2026-04-26T07:35:27.036Z</time></trkpt><trkpt lat="45.7634935" lon="11.7396558"><ele>131.0</ele><time>2026-04-26T07:35:28.034Z</time></trkpt><trkpt lat="45.7636341" lon="11.7395736"><ele>131.0</ele><time>2026-04-26T07:35:29.023Z</time></trkpt><trkpt lat="45.7637713" lon="11.7394961"><ele>131.75</ele><time>2026-04-26T07:35:30.037Z</time></trkpt><trkpt lat="45.7639048" lon="11.7394218"><ele>132.5</ele><time>2026-04-26T07:35:31.02Z</time></trkpt><trkpt lat="45.7640298" lon="11.7393383"><ele>133.25</ele><time>2026-04-26T07:35:32.043Z</time></trkpt><trkpt lat="45.764154" lon="11.7392646"><ele>134.0</ele><time>2026-04-26T07:35:33.019Z</time></trkpt><trkpt lat="45.7642746" lon="11.7391978"><ele>133.5</ele><time>2026-04-26T07:35:34.041Z</time></trkpt><trkpt lat="45.7643827" lon="11.7391228"><ele>133.0</ele><time>2026-04-26T07:35:35.04Z</time></trkpt><trkpt lat="45.7644863" lon="11.739054"><ele>132.5</ele><time>2026-04-26T07:35:36.033Z</time></trkpt><trkpt lat="45.7645934" lon="11.7390023"><ele>132.0</ele><time>2026-04-26T07:35:37.034Z</time></trkpt><trkpt lat="45.7646969" lon="11.7389455"><ele>132.0</ele><time>2026-04-26T07:35:38.025Z</time></trkpt><trkpt lat="45.7647991" lon="11.7388886"><ele>132.0</ele><time>2026-04-26T07:35:39.031Z</time></trkpt><trkpt lat="45.7649032" lon="11.7388328"><ele>132.0</ele><time>2026-04-26T07:35:40.018Z</time></trkpt><trkpt lat="45.7650068" lon="11.7387769"><ele>132.0</ele><time>2026-04-26T07:35:41.031Z</time></trkpt><trkpt lat="45.7651127" lon="11.7387299"><ele>132.0</ele><time>2026-04-26T07:35:42.019Z</time></trkpt><trkpt lat="45.7652025" lon="11.7386606"><ele>132.2</ele><time>2026-04-26T07:35:43.022Z</time></trkpt><trkpt lat="45.7653021" lon="11.7386266"><ele>132.39999999999998</ele><time>2026-04-26T07:35:44.025Z</time></trkpt><trkpt lat="45.7653887" lon="11.7385806"><ele>132.60000000000002</ele><time>2026-04-26T07:35:45.032Z</time></trkpt><trkpt lat="45.7654647" lon="11.7385452"><ele>132.8</ele><time>2026-04-26T07:35:46.029Z</time></trkpt><trkpt lat="45.7655234" lon="11.7384943"><ele>133.0</ele><time>2026-04-26T07:35:47.032Z</time></trkpt><trkpt lat="45.7655824" lon="11.7383373"><ele>132.66666666666669</ele><time>2026-04-26T07:35:49.058Z</time></trkpt><trkpt lat="45.7655805" lon="11.7382347"><ele>132.33333333333334</ele><time>2026-04-26T07:35:50.02Z</time></trkpt><trkpt lat="45.7655612" lon="11.7381403"><ele>132.0</ele><time>2026-04-26T07:35:51.032Z</time></trkpt><trkpt lat="45.7655186" lon="11.7380217"><ele>131.66666666666666</ele><time>2026-04-26T07:35:52.032Z</time></trkpt><trkpt lat="45.7654749" lon="11.7379188"><ele>131.33333333333331</ele><time>2026-04-26T07:35:53.031Z</time></trkpt><trkpt lat="45.7654301" lon="11.7378311"><ele>131.0</ele><time>2026-04-26T07:35:54.025Z</time></trkpt><trkpt lat="45.7653618" lon="11.7377406"><ele>130.6</ele><time>2026-04-26T07:35:55.023Z</time></trkpt><trkpt lat="45.7652952" lon="11.7376377"><ele>130.2</ele><time>2026-04-26T07:35:56.023Z</time></trkpt><trkpt lat="45.7652324" lon="11.7375323"><ele>129.8</ele><time>2026-04-26T07:35:57.012Z</time></trkpt><trkpt lat="45.7651687" lon="11.7374296"><ele>129.4</ele><time>2026-04-26T07:35:58.028Z</time></trkpt><trkpt lat="45.7650994" lon="11.737341"><ele>129.0</ele><time>2026-04-26T07:35:59.015Z</time></trkpt><trkpt lat="45.7650599" lon="11.7372106"><ele>128.8</ele><time>2026-04-26T07:36:00.031Z</time></trkpt><trkpt lat="45.7649849" lon="11.7371295"><ele>128.60000000000002</ele><time>2026-04-26T07:36:01.023Z</time></trkpt><trkpt lat="45.7649129" lon="11.737045"><ele>128.4</ele><time>2026-04-26T07:36:02.021Z</time></trkpt><trkpt lat="45.7648362" lon="11.7369645"><ele>128.20000000000002</ele><time>2026-04-26T07:36:03.031Z</time></trkpt><trkpt lat="45.7647957" lon="11.7368589"><ele>128.0</ele><time>2026-04-26T07:36:04.033Z</time></trkpt><trkpt lat="45.7647421" lon="11.7367561"><ele>128.0</ele><time>2026-04-26T07:36:05.026Z</time></trkpt><trkpt lat="45.7646903" lon="11.7366589"><ele>128.0</ele><time>2026-04-26T07:36:06.028Z</time></trkpt><trkpt lat="45.7646353" lon="11.7365061"><ele>128.0</ele><time>2026-04-26T07:36:08.018Z</time></trkpt><trkpt lat="45.7645371" lon="11.7364333"><ele>128.0</ele><time>2026-04-26T07:36:10.025Z</time></trkpt><trkpt lat="45.7644872" lon="11.7362922"><ele>128.0</ele><time>2026-04-26T07:36:12.017Z</time></trkpt><trkpt lat="45.7644691" lon="11.7362038"><ele>128.0</ele><time>2026-04-26T07:36:13.031Z</time></trkpt><trkpt lat="45.7644709" lon="11.736088"><ele>128.0</ele><time>2026-04-26T07:36:14.033Z</time></trkpt><trkpt lat="45.764464" lon="11.7359673"><ele>128.0</ele><time>2026-04-26T07:36:15.017Z</time></trkpt><trkpt lat="45.7644478" lon="11.7358317"><ele>128.0</ele><time>2026-04-26T07:36:16.02Z</time></trkpt><trkpt lat="45.7644636" lon="11.735693"><ele>128.0</ele><time>2026-04-26T07:36:17.034Z</time></trkpt><trkpt lat="45.7644189" lon="11.7355623"><ele>128.4</ele><time>2026-04-26T07:36:18.014Z</time></trkpt><trkpt lat="45.7643875" lon="11.7354401"><ele>128.8</ele><time>2026-04-26T07:36:19.058Z</time></trkpt><trkpt lat="45.7643705" lon="11.7353116"><ele>129.2</ele><time>2026-04-26T07:36:20.04Z</time></trkpt><trkpt lat="45.7643375" lon="11.7351953"><ele>129.6</ele><time>2026-04-26T07:36:21.018Z</time></trkpt><trkpt lat="45.76431" lon="11.7350687"><ele>130.0</ele><time>2026-04-26T07:36:22.027Z</time></trkpt><trkpt lat="45.764283" lon="11.7349489"><ele>129.33333333333334</ele><time>2026-04-26T07:36:23.021Z</time></trkpt><trkpt lat="45.7642581" lon="11.7348299"><ele>128.66666666666669</ele><time>2026-04-26T07:36:24.036Z</time></trkpt><trkpt lat="45.764243" lon="11.7347083"><ele>128.0</ele><time>2026-04-26T07:36:25.028Z</time></trkpt><trkpt lat="45.7642027" lon="11.7346148"><ele>127.33333333333334</ele><time>2026-04-26T07:36:26.023Z</time></trkpt><trkpt lat="45.7641682" lon="11.7345087"><ele>126.66666666666667</ele><time>2026-04-26T07:36:27.029Z</time></trkpt><trkpt lat="45.7640841" lon="11.734448"><ele>126.0</ele><time>2026-04-26T07:36:28.013Z</time></trkpt><trkpt lat="45.7640181" lon="11.7343684"><ele>125.33333333333333</ele><time>2026-04-26T07:36:29.019Z</time></trkpt><trkpt lat="45.763974" lon="11.7342689"><ele>124.66666666666666</ele><time>2026-04-26T07:36:30.013Z</time></trkpt><trkpt lat="45.7639536" lon="11.7341499"><ele>124.0</ele><time>2026-04-26T07:36:31.02Z</time></trkpt><trkpt lat="45.7639264" lon="11.7340313"><ele>123.33333333333333</ele><time>2026-04-26T07:36:32.018Z</time></trkpt><trkpt lat="45.7639158" lon="11.7339079"><ele>122.66666666666666</ele><time>2026-04-26T07:36:33.046Z</time></trkpt><trkpt lat="45.7639089" lon="11.7337919"><ele>122.0</ele><time>2026-04-26T07:36:34.04Z</time></trkpt><trkpt lat="45.7638983" lon="11.7336632"><ele>121.39999999999999</ele><time>2026-04-26T07:36:35.038Z</time></trkpt><trkpt lat="45.7638884" lon="11.7335325"><ele>120.79999999999998</ele><time>2026-04-26T07:36:36.03Z</time></trkpt><trkpt lat="45.7638871" lon="11.7334023"><ele>120.2</ele><time>2026-04-26T07:36:37.026Z</time></trkpt><trkpt lat="45.7638775" lon="11.7332675"><ele>119.6</ele><time>2026-04-26T07:36:38.033Z</time></trkpt><trkpt lat="45.7638524" lon="11.7331363"><ele>119.0</ele><time>2026-04-26T07:36:39.021Z</time></trkpt><trkpt lat="45.7638266" lon="11.7330039"><ele>118.99999999999999</ele><time>2026-04-26T07:36:40.029Z</time></trkpt><trkpt lat="45.7638075" lon="11.7328754"><ele>119.0</ele><time>2026-04-26T07:36:41.016Z</time></trkpt><trkpt lat="45.7637926" lon="11.7327492"><ele>119.0</ele><time>2026-04-26T07:36:42.026Z</time></trkpt><trkpt lat="45.7637779" lon="11.7326242"><ele>119.0</ele><time>2026-04-26T07:36:43.021Z</time></trkpt><trkpt lat="45.7637763" lon="11.7325023"><ele>118.99999999999999</ele><time>2026-04-26T07:36:44.014Z</time></trkpt><trkpt lat="45.7637767" lon="11.7323987"><ele>119.0</ele><time>2026-04-26T07:36:45.019Z</time></trkpt><trkpt lat="45.7638081" lon="11.7323172"><ele>119.2</ele><time>2026-04-26T07:36:46.02Z</time></trkpt><trkpt lat="45.7638445" lon="11.7321545"><ele>119.4</ele><time>2026-04-26T07:36:48.021Z</time></trkpt><trkpt lat="45.7638585" lon="11.7320583"><ele>119.6</ele><time>2026-04-26T07:36:49.027Z</time></trkpt><trkpt lat="45.7638751" lon="11.73194"><ele>119.8</ele><time>2026-04-26T07:36:50.016Z</time></trkpt><trkpt lat="45.7639013" lon="11.7318083"><ele>120.0</ele><time>2026-04-26T07:36:51.018Z</time></trkpt><trkpt lat="45.7639377" lon="11.7316652"><ele>119.0</ele><time>2026-04-26T07:36:52.013Z</time></trkpt><trkpt lat="45.7639857" lon="11.7315207"><ele>118.0</ele><time>2026-04-26T07:36:53.035Z</time></trkpt><trkpt lat="45.7640391" lon="11.7313721"><ele>117.0</ele><time>2026-04-26T07:36:54.035Z</time></trkpt><trkpt lat="45.7640993" lon="11.731219"><ele>116.0</ele><time>2026-04-26T07:36:55.026Z</time></trkpt><trkpt lat="45.7641638" lon="11.7310636"><ele>115.0</ele><time>2026-04-26T07:36:56.034Z</time></trkpt><trkpt lat="45.7642313" lon="11.7309139"><ele>114.0</ele><time>2026-04-26T07:36:57.019Z</time></trkpt><trkpt lat="45.7643007" lon="11.7307719"><ele>113.0</ele><time>2026-04-26T07:36:58.035Z</time></trkpt><trkpt lat="45.7643608" lon="11.7306289"><ele>112.0</ele><time>2026-04-26T07:36:59.022Z</time></trkpt><trkpt lat="45.7644162" lon="11.7304897"><ele>111.39999999999999</ele><time>2026-04-26T07:37:00.024Z</time></trkpt><trkpt lat="45.7644618" lon="11.7303534"><ele>110.79999999999998</ele><time>2026-04-26T07:37:01.018Z</time></trkpt><trkpt lat="45.7645111" lon="11.7302273"><ele>110.2</ele><time>2026-04-26T07:37:02.017Z</time></trkpt><trkpt lat="45.7645628" lon="11.730105"><ele>109.6</ele><time>2026-04-26T07:37:03.035Z</time></trkpt><trkpt lat="45.7646203" lon="11.7299838"><ele>109.0</ele><time>2026-04-26T07:37:04.025Z</time></trkpt><trkpt lat="45.7646754" lon="11.7298606"><ele>109.2</ele><time>2026-04-26T07:37:05.045Z</time></trkpt><trkpt lat="45.7647272" lon="11.7297337"><ele>109.4</ele><time>2026-04-26T07:37:06.031Z</time></trkpt><trkpt lat="45.7647699" lon="11.7296019"><ele>109.6</ele><time>2026-04-26T07:37:07.047Z</time></trkpt><trkpt lat="45.7648273" lon="11.7294837"><ele>109.8</ele><time>2026-04-26T07:37:08.025Z</time></trkpt><trkpt lat="45.7648824" lon="11.7293662"><ele>110.0</ele><time>2026-04-26T07:37:09.02Z</time></trkpt><trkpt lat="45.7649392" lon="11.7292529"><ele>110.0</ele><time>2026-04-26T07:37:10.057Z</time></trkpt><trkpt lat="45.7649832" lon="11.7291325"><ele>110.0</ele><time>2026-04-26T07:37:11.038Z</time></trkpt><trkpt lat="45.7650403" lon="11.7290261"><ele>110.0</ele><time>2026-04-26T07:37:12.044Z</time></trkpt><trkpt lat="45.7650926" lon="11.728919"><ele>110.0</ele><time>2026-04-26T07:37:13.042Z</time></trkpt><trkpt lat="45.7651364" lon="11.7288082"><ele>110.0</ele><time>2026-04-26T07:37:14.018Z</time></trkpt><trkpt lat="45.7651802" lon="11.7287006"><ele>110.33333333333333</ele><time>2026-04-26T07:37:15.023Z</time></trkpt><trkpt lat="45.7652224" lon="11.728595"><ele>110.66666666666666</ele><time>2026-04-26T07:37:16.016Z</time></trkpt><trkpt lat="45.7652609" lon="11.7284898"><ele>111.0</ele><time>2026-04-26T07:37:17.04Z</time></trkpt><trkpt lat="45.7653046" lon="11.7283903"><ele>111.33333333333334</ele><time>2026-04-26T07:37:18.039Z</time></trkpt><trkpt lat="45.7653487" lon="11.728292"><ele>111.66666666666667</ele><time>2026-04-26T07:37:19.034Z</time></trkpt><trkpt lat="45.7653997" lon="11.7282084"><ele>112.0</ele><time>2026-04-26T07:37:20.03Z</time></trkpt><trkpt lat="45.7654382" lon="11.7281333"><ele>112.16666666666667</ele><time>2026-04-26T07:37:21.022Z</time></trkpt><trkpt lat="45.7654923" lon="11.7280281"><ele>112.33333333333334</ele><time>2026-04-26T07:37:23.029Z</time></trkpt><trkpt lat="45.7655318" lon="11.7279411"><ele>112.5</ele><time>2026-04-26T07:37:26.038Z</time></trkpt><trkpt lat="45.7655546" lon="11.7278299"><ele>112.66666666666666</ele><time>2026-04-26T07:37:35.021Z</time></trkpt><trkpt lat="45.7655814" lon="11.7277003"><ele>112.83333333333333</ele><time>2026-04-26T07:37:38.02Z</time></trkpt><trkpt lat="45.7656134" lon="11.727589"><ele>113.0</ele><time>2026-04-26T07:37:40.025Z</time></trkpt><trkpt lat="45.7656613" lon="11.72746"><ele>113.0</ele><time>2026-04-26T07:37:42.021Z</time></trkpt><trkpt lat="45.7657394" lon="11.7273422"><ele>113.0</ele><time>2026-04-26T07:37:44.021Z</time></trkpt><trkpt lat="45.7658307" lon="11.7272403"><ele>113.0</ele><time>2026-04-26T07:37:46.032Z</time></trkpt><trkpt lat="45.765915" lon="11.7271026"><ele>113.0</ele><time>2026-04-26T07:37:48.028Z</time></trkpt><trkpt lat="45.7659153" lon="11.7269285"><ele>113.16666666666666</ele><time>2026-04-26T07:37:50.015Z</time></trkpt><trkpt lat="45.7658648" lon="11.7268465"><ele>113.33333333333333</ele><time>2026-04-26T07:37:51.035Z</time></trkpt><trkpt lat="45.7657923" lon="11.7267907"><ele>113.5</ele><time>2026-04-26T07:37:52.021Z</time></trkpt><trkpt lat="45.7657186" lon="11.7267312"><ele>113.66666666666666</ele><time>2026-04-26T07:37:53.028Z</time></trkpt><trkpt lat="45.7656683" lon="11.7266438"><ele>113.83333333333333</ele><time>2026-04-26T07:37:54.016Z</time></trkpt><trkpt lat="45.765641" lon="11.7265374"><ele>114.0</ele><time>2026-04-26T07:37:55.024Z</time></trkpt><trkpt lat="45.7656253" lon="11.7264151"><ele>114.0</ele><time>2026-04-26T07:37:56.027Z</time></trkpt><trkpt lat="45.7656102" lon="11.7262944"><ele>114.0</ele><time>2026-04-26T07:37:57.017Z</time></trkpt><trkpt lat="45.7655936" lon="11.7261764"><ele>114.0</ele><time>2026-04-26T07:37:58.02Z</time></trkpt><trkpt lat="45.7655892" lon="11.7260564"><ele>114.0</ele><time>2026-04-26T07:37:59.03Z</time></trkpt><trkpt lat="45.7655809" lon="11.7259439"><ele>114.0</ele><time>2026-04-26T07:38:00.026Z</time></trkpt><trkpt lat="45.7655731" lon="11.7258308"><ele>114.0</ele><time>2026-04-26T07:38:01.034Z</time></trkpt><trkpt lat="45.7655597" lon="11.725713"><ele>113.66666666666667</ele><time>2026-04-26T07:38:02.026Z</time></trkpt><trkpt lat="45.7655495" lon="11.7255912"><ele>113.33333333333334</ele><time>2026-04-26T07:38:03.027Z</time></trkpt><trkpt lat="45.7655396" lon="11.7254718"><ele>113.0</ele><time>2026-04-26T07:38:04.027Z</time></trkpt><trkpt lat="45.7655256" lon="11.7253587"><ele>112.66666666666667</ele><time>2026-04-26T07:38:05.022Z</time></trkpt><trkpt lat="45.7655088" lon="11.7252514"><ele>112.33333333333334</ele><time>2026-04-26T07:38:06.027Z</time></trkpt><trkpt lat="45.7655027" lon="11.7251464"><ele>112.0</ele><time>2026-04-26T07:38:07.021Z</time></trkpt><trkpt lat="45.7654914" lon="11.7250462"><ele>112.00000000000001</ele><time>2026-04-26T07:38:08.033Z</time></trkpt><trkpt lat="45.765479" lon="11.7249485"><ele>112.0</ele><time>2026-04-26T07:38:09.033Z</time></trkpt><trkpt lat="45.7654684" lon="11.7248469"><ele>112.0</ele><time>2026-04-26T07:38:10.02Z</time></trkpt><trkpt lat="45.7654526" lon="11.7247368"><ele>112.0</ele><time>2026-04-26T07:38:11.026Z</time></trkpt><trkpt lat="45.7654374" lon="11.724619"><ele>112.00000000000001</ele><time>2026-04-26T07:38:12.017Z</time></trkpt><trkpt lat="45.7654206" lon="11.7244922"><ele>112.0</ele><time>2026-04-26T07:38:13.025Z</time></trkpt><trkpt lat="45.7654024" lon="11.7243568"><ele>112.25</ele><time>2026-04-26T07:38:14.024Z</time></trkpt><trkpt lat="45.7653835" lon="11.7242121"><ele>112.5</ele><time>2026-04-26T07:38:15.037Z</time></trkpt><trkpt lat="45.7653636" lon="11.724055"><ele>112.75</ele><time>2026-04-26T07:38:16.029Z</time></trkpt><trkpt lat="45.7653435" lon="11.7238897"><ele>113.0</ele><time>2026-04-26T07:38:17.041Z</time></trkpt><trkpt lat="45.7653207" lon="11.7237197"><ele>113.25</ele><time>2026-04-26T07:38:18.035Z</time></trkpt><trkpt lat="45.7652959" lon="11.7235488"><ele>113.5</ele><time>2026-04-26T07:38:19.022Z</time></trkpt><trkpt lat="45.7652697" lon="11.7233789"><ele>113.75</ele><time>2026-04-26T07:38:20.032Z</time></trkpt><trkpt lat="45.7652434" lon="11.7232087"><ele>114.0</ele><time>2026-04-26T07:38:21.018Z</time></trkpt><trkpt lat="45.7652232" lon="11.7230402"><ele>114.0</ele><time>2026-04-26T07:38:22.021Z</time></trkpt><trkpt lat="45.7652028" lon="11.7228762"><ele>114.0</ele><time>2026-04-26T07:38:23.023Z</time></trkpt><trkpt lat="45.7651855" lon="11.7227159"><ele>114.0</ele><time>2026-04-26T07:38:24.022Z</time></trkpt><trkpt lat="45.7651652" lon="11.722558"><ele>114.0</ele><time>2026-04-26T07:38:25.027Z</time></trkpt><trkpt lat="45.7651482" lon="11.7223986"><ele>113.80000000000001</ele><time>2026-04-26T07:38:26.035Z</time></trkpt><trkpt lat="45.7651291" lon="11.722241"><ele>113.60000000000001</ele><time>2026-04-26T07:38:27.041Z</time></trkpt><trkpt lat="45.7651047" lon="11.7220867"><ele>113.4</ele><time>2026-04-26T07:38:28.04Z</time></trkpt><trkpt lat="45.7650813" lon="11.7219325"><ele>113.2</ele><time>2026-04-26T07:38:29.039Z</time></trkpt><trkpt lat="45.7650585" lon="11.7217744"><ele>113.0</ele><time>2026-04-26T07:38:30.029Z</time></trkpt><trkpt lat="45.7650272" lon="11.7216067"><ele>113.0</ele><time>2026-04-26T07:38:31.018Z</time></trkpt><trkpt lat="45.7650105" lon="11.7214297"><ele>113.0</ele><time>2026-04-26T07:38:32.015Z</time></trkpt><trkpt lat="45.7649957" lon="11.721242"><ele>113.0</ele><time>2026-04-26T07:38:33.02Z</time></trkpt><trkpt lat="45.7649835" lon="11.7210406"><ele>113.0</ele><time>2026-04-26T07:38:34.021Z</time></trkpt><trkpt lat="45.764967" lon="11.7208367"><ele>112.75</ele><time>2026-04-26T07:38:35.033Z</time></trkpt><trkpt lat="45.7649484" lon="11.7206358"><ele>112.5</ele><time>2026-04-26T07:38:36.027Z</time></trkpt><trkpt lat="45.764926" lon="11.7204355"><ele>112.25</ele><time>2026-04-26T07:38:37.025Z</time></trkpt><trkpt lat="45.7648998" lon="11.7202325"><ele>112.0</ele><time>2026-04-26T07:38:38.022Z</time></trkpt><trkpt lat="45.7648781" lon="11.7200268"><ele>112.0</ele><time>2026-04-26T07:38:39.03Z</time></trkpt><trkpt lat="45.7648537" lon="11.7198194"><ele>112.0</ele><time>2026-04-26T07:38:40.034Z</time></trkpt><trkpt lat="45.7648259" lon="11.7196114"><ele>112.0</ele><time>2026-04-26T07:38:41.024Z</time></trkpt><trkpt lat="45.7648059" lon="11.7194011"><ele>112.0</ele><time>2026-04-26T07:38:42.029Z</time></trkpt><trkpt lat="45.7647834" lon="11.7191891"><ele>111.75</ele><time>2026-04-26T07:38:43.026Z</time></trkpt><trkpt lat="45.7647631" lon="11.7189769"><ele>111.5</ele><time>2026-04-26T07:38:44.031Z</time></trkpt><trkpt lat="45.7647427" lon="11.7187647"><ele>111.25</ele><time>2026-04-26T07:38:45.047Z</time></trkpt><trkpt lat="45.7647232" lon="11.718556"><ele>111.0</ele><time>2026-04-26T07:38:46.024Z</time></trkpt><trkpt lat="45.7647037" lon="11.7183532"><ele>111.0</ele><time>2026-04-26T07:38:47.055Z</time></trkpt><trkpt lat="45.7646791" lon="11.7181564"><ele>111.0</ele><time>2026-04-26T07:38:48.033Z</time></trkpt><trkpt lat="45.7646485" lon="11.7179636"><ele>111.0</ele><time>2026-04-26T07:38:49.038Z</time></trkpt><trkpt lat="45.7646051" lon="11.7177713"><ele>111.0</ele><time>2026-04-26T07:38:50.03Z</time></trkpt><trkpt lat="45.7645511" lon="11.7175859"><ele>110.75</ele><time>2026-04-26T07:38:51.04Z</time></trkpt><trkpt lat="45.7644915" lon="11.7174029"><ele>110.5</ele><time>2026-04-26T07:38:52.04Z</time></trkpt><trkpt lat="45.7644162" lon="11.717229"><ele>110.25</ele><time>2026-04-26T07:38:53.039Z</time></trkpt><trkpt lat="45.7643424" lon="11.7170545"><ele>110.0</ele><time>2026-04-26T07:38:54.04Z</time></trkpt><trkpt lat="45.7642646" lon="11.7168821"><ele>110.0</ele><time>2026-04-26T07:38:55.016Z</time></trkpt><trkpt lat="45.7641884" lon="11.716708"><ele>110.0</ele><time>2026-04-26T07:38:56.037Z</time></trkpt><trkpt lat="45.7641123" lon="11.7165348"><ele>110.0</ele><time>2026-04-26T07:38:57.039Z</time></trkpt><trkpt lat="45.7640356" lon="11.7163607"><ele>110.0</ele><time>2026-04-26T07:38:58.031Z</time></trkpt><trkpt lat="45.7639575" lon="11.716185"><ele>110.25</ele><time>2026-04-26T07:38:59.044Z</time></trkpt><trkpt lat="45.7638759" lon="11.7160099"><ele>110.5</ele><time>2026-04-26T07:39:00.058Z</time></trkpt><trkpt lat="45.763792" lon="11.7158367"><ele>110.75</ele><time>2026-04-26T07:39:01.028Z</time></trkpt><trkpt lat="45.7637103" lon="11.7156644"><ele>111.0</ele><time>2026-04-26T07:39:02.049Z</time></trkpt><trkpt lat="45.7636336" lon="11.715491"><ele>111.0</ele><time>2026-04-26T07:39:03.029Z</time></trkpt><trkpt lat="45.7635662" lon="11.7153016"><ele>111.0</ele><time>2026-04-26T07:39:04.026Z</time></trkpt><trkpt lat="45.763494" lon="11.7151249"><ele>111.0</ele><time>2026-04-26T07:39:05.037Z</time></trkpt><trkpt lat="45.763421" lon="11.7149568"><ele>111.0</ele><time>2026-04-26T07:39:06.036Z</time></trkpt><trkpt lat="45.7633628" lon="11.7147821"><ele>111.19999999999999</ele><time>2026-04-26T07:39:07.041Z</time></trkpt><trkpt lat="45.7632928" lon="11.7146326"><ele>111.39999999999999</ele><time>2026-04-26T07:39:08.021Z</time></trkpt><trkpt lat="45.7632311" lon="11.7144951"><ele>111.6</ele><time>2026-04-26T07:39:09.023Z</time></trkpt><trkpt lat="45.7631895" lon="11.7143864"><ele>111.8</ele><time>2026-04-26T07:39:10.037Z</time></trkpt><trkpt lat="45.7631463" lon="11.7142354"><ele>112.0</ele><time>2026-04-26T07:39:12.02Z</time></trkpt><trkpt lat="45.7631308" lon="11.7140851"><ele>112.0</ele><time>2026-04-26T07:39:14.042Z</time></trkpt><trkpt lat="45.7631626" lon="11.7138913"><ele>111.99999999999999</ele><time>2026-04-26T07:39:16.022Z</time></trkpt><trkpt lat="45.7632092" lon="11.7137965"><ele>111.99999999999999</ele><time>2026-04-26T07:39:17.041Z</time></trkpt><trkpt lat="45.7632863" lon="11.7137131"><ele>112.0</ele><time>2026-04-26T07:39:18.035Z</time></trkpt><trkpt lat="45.7633783" lon="11.7136481"><ele>112.0</ele><time>2026-04-26T07:39:19.038Z</time></trkpt><trkpt lat="45.7634829" lon="11.7135874"><ele>112.5</ele><time>2026-04-26T07:39:20.035Z</time></trkpt><trkpt lat="45.7635996" lon="11.7135235"><ele>113.0</ele><time>2026-04-26T07:39:21.025Z</time></trkpt><trkpt lat="45.7637166" lon="11.7134349"><ele>113.5</ele><time>2026-04-26T07:39:22.037Z</time></trkpt><trkpt lat="45.763837" lon="11.7133447"><ele>114.0</ele><time>2026-04-26T07:39:23.036Z</time></trkpt><trkpt lat="45.7639594" lon="11.7132548"><ele>114.0</ele><time>2026-04-26T07:39:24.022Z</time></trkpt><trkpt lat="45.7640812" lon="11.7131617"><ele>114.0</ele><time>2026-04-26T07:39:25.032Z</time></trkpt><trkpt lat="45.7642017" lon="11.7130684"><ele>114.0</ele><time>2026-04-26T07:39:26.019Z</time></trkpt><trkpt lat="45.7643187" lon="11.7129781"><ele>114.0</ele><time>2026-04-26T07:39:27.043Z</time></trkpt><trkpt lat="45.7644339" lon="11.7128911"><ele>114.5</ele><time>2026-04-26T07:39:28.049Z</time></trkpt><trkpt lat="45.7645501" lon="11.7128075"><ele>115.0</ele><time>2026-04-26T07:39:29.035Z</time></trkpt><trkpt lat="45.7646672" lon="11.7127397"><ele>115.5</ele><time>2026-04-26T07:39:30.029Z</time></trkpt><trkpt lat="45.7647858" lon="11.7126918"><ele>116.0</ele><time>2026-04-26T07:39:31.023Z</time></trkpt><trkpt lat="45.7649074" lon="11.712658"><ele>116.0</ele><time>2026-04-26T07:39:32.032Z</time></trkpt><trkpt lat="45.7650353" lon="11.7126518"><ele>116.0</ele><time>2026-04-26T07:39:33.039Z</time></trkpt><trkpt lat="45.7651689" lon="11.7126628"><ele>116.0</ele><time>2026-04-26T07:39:34.032Z</time></trkpt><trkpt lat="45.7653082" lon="11.712696"><ele>116.0</ele><time>2026-04-26T07:39:35.036Z</time></trkpt><trkpt lat="45.7654502" lon="11.7127606"><ele>117.0</ele><time>2026-04-26T07:39:36.041Z</time></trkpt><trkpt lat="45.765589" lon="11.712856"><ele>118.0</ele><time>2026-04-26T07:39:37.027Z</time></trkpt><trkpt lat="45.7657243" lon="11.7129543"><ele>119.0</ele><time>2026-04-26T07:39:38.028Z</time></trkpt><trkpt lat="45.7658508" lon="11.7130628"><ele>119.0</ele><time>2026-04-26T07:39:39.036Z</time></trkpt><trkpt lat="45.765981" lon="11.7131695"><ele>119.0</ele><time>2026-04-26T07:39:40.042Z</time></trkpt><trkpt lat="45.7661102" lon="11.7132676"><ele>119.0</ele><time>2026-04-26T07:39:41.044Z</time></trkpt><trkpt lat="45.7662345" lon="11.7133629"><ele>119.0</ele><time>2026-04-26T07:39:42.019Z</time></trkpt><trkpt lat="45.7663628" lon="11.7134589"><ele>119.75</ele><time>2026-04-26T07:39:43.02Z</time></trkpt><trkpt lat="45.7664914" lon="11.7135592"><ele>120.5</ele><time>2026-04-26T07:39:44.028Z</time></trkpt><trkpt lat="45.766624" lon="11.7136596"><ele>121.25</ele><time>2026-04-26T07:39:45.02Z</time></trkpt><trkpt lat="45.766758" lon="11.7137562"><ele>122.0</ele><time>2026-04-26T07:39:46.023Z</time></trkpt><trkpt lat="45.7668966" lon="11.7138515"><ele>123.0</ele><time>2026-04-26T07:39:47.021Z</time></trkpt><trkpt lat="45.7670396" lon="11.7139509"><ele>124.0</ele><time>2026-04-26T07:39:48.051Z</time></trkpt><trkpt lat="45.7671932" lon="11.7140491"><ele>125.0</ele><time>2026-04-26T07:39:49.023Z</time></trkpt><trkpt lat="45.7673483" lon="11.7141518"><ele>125.0</ele><time>2026-04-26T07:39:50.04Z</time></trkpt><trkpt lat="45.7675018" lon="11.7142565"><ele>125.0</ele><time>2026-04-26T07:39:51.05Z</time></trkpt><trkpt lat="45.7676548" lon="11.7143688"><ele>125.0</ele><time>2026-04-26T07:39:52.024Z</time></trkpt><trkpt lat="45.7678086" lon="11.7144825"><ele>126.0</ele><time>2026-04-26T07:39:53.029Z</time></trkpt><trkpt lat="45.7679601" lon="11.7145919"><ele>127.0</ele><time>2026-04-26T07:39:54.029Z</time></trkpt><trkpt lat="45.7681066" lon="11.7146901"><ele>128.0</ele><time>2026-04-26T07:39:55.016Z</time></trkpt><trkpt lat="45.768245" lon="11.7147831"><ele>128.0</ele><time>2026-04-26T07:39:56.028Z</time></trkpt><trkpt lat="45.7683777" lon="11.7148658"><ele>128.0</ele><time>2026-04-26T07:39:57.026Z</time></trkpt><trkpt lat="45.7684985" lon="11.7149586"><ele>128.0</ele><time>2026-04-26T07:39:58.023Z</time></trkpt><trkpt lat="45.7686119" lon="11.7150301"><ele>128.0</ele><time>2026-04-26T07:39:59.033Z</time></trkpt><trkpt lat="45.7687095" lon="11.7150956"><ele>128.0</ele><time>2026-04-26T07:40:00.022Z</time></trkpt><trkpt lat="45.7687908" lon="11.7151468"><ele>128.0</ele><time>2026-04-26T07:40:01.033Z</time></trkpt><trkpt lat="45.7688584" lon="11.7151895"><ele>128.0</ele><time>2026-04-26T07:40:02.041Z</time></trkpt><trkpt lat="45.7689185" lon="11.7152241"><ele>128.0</ele><time>2026-04-26T07:40:03.03Z</time></trkpt><trkpt lat="45.7690382" lon="11.7152652"><ele>128.0</ele><time>2026-04-26T07:40:05.036Z</time></trkpt><trkpt lat="45.7691513" lon="11.7151677"><ele>128.0</ele><time>2026-04-26T07:40:07.035Z</time></trkpt><trkpt lat="45.769178" lon="11.715068"><ele>128.0</ele><time>2026-04-26T07:40:08.032Z</time></trkpt><trkpt lat="45.7691945" lon="11.7149278"><ele>128.0</ele><time>2026-04-26T07:40:09.019Z</time></trkpt><trkpt lat="45.769206" lon="11.714773"><ele>128.0</ele><time>2026-04-26T07:40:10.026Z</time></trkpt><trkpt lat="45.7692197" lon="11.7145994"><ele>128.0</ele><time>2026-04-26T07:40:11.028Z</time></trkpt><trkpt lat="45.7692546" lon="11.7144305"><ele>128.0</ele><time>2026-04-26T07:40:12.038Z</time></trkpt><trkpt lat="45.7692816" lon="11.7142421"><ele>128.0</ele><time>2026-04-26T07:40:13.033Z</time></trkpt><trkpt lat="45.7693108" lon="11.7140472"><ele>128.0</ele><time>2026-04-26T07:40:14.047Z</time></trkpt><trkpt lat="45.7693445" lon="11.7138516"><ele>128.0</ele><time>2026-04-26T07:40:15.03Z</time></trkpt><trkpt lat="45.7693804" lon="11.7136556"><ele>128.0</ele><time>2026-04-26T07:40:16.041Z</time></trkpt><trkpt lat="45.7694125" lon="11.7134576"><ele>128.0</ele><time>2026-04-26T07:40:17.013Z</time></trkpt><trkpt lat="45.7694476" lon="11.7132546"><ele>128.0</ele><time>2026-04-26T07:40:18.031Z</time></trkpt><trkpt lat="45.7694854" lon="11.713045"><ele>128.0</ele><time>2026-04-26T07:40:19.05Z</time></trkpt><trkpt lat="45.7695198" lon="11.7128309"><ele>127.66666666666666</ele><time>2026-04-26T07:40:20.035Z</time></trkpt><trkpt lat="45.7695649" lon="11.7126157"><ele>127.33333333333334</ele><time>2026-04-26T07:40:21.036Z</time></trkpt><trkpt lat="45.7696025" lon="11.7123903"><ele>127.0</ele><time>2026-04-26T07:40:22.028Z</time></trkpt><trkpt lat="45.7696317" lon="11.7121585"><ele>127.0</ele><time>2026-04-26T07:40:23.036Z</time></trkpt><trkpt lat="45.7696714" lon="11.711927"><ele>127.0</ele><time>2026-04-26T07:40:24.023Z</time></trkpt><trkpt lat="45.7697042" lon="11.711687"><ele>127.0</ele><time>2026-04-26T07:40:25.037Z</time></trkpt><trkpt lat="45.7697487" lon="11.7114477"><ele>127.33333333333334</ele><time>2026-04-26T07:40:26.05Z</time></trkpt><trkpt lat="45.769784" lon="11.7112002"><ele>127.66666666666666</ele><time>2026-04-26T07:40:27.083Z</time></trkpt><trkpt lat="45.769837" lon="11.7109559"><ele>128.0</ele><time>2026-04-26T07:40:28.057Z</time></trkpt><trkpt lat="45.7698794" lon="11.7107062"><ele>127.33333333333333</ele><time>2026-04-26T07:40:29.059Z</time></trkpt><trkpt lat="45.7699351" lon="11.7104618"><ele>126.66666666666666</ele><time>2026-04-26T07:40:30.035Z</time></trkpt><trkpt lat="45.7699833" lon="11.7102156"><ele>126.0</ele><time>2026-04-26T07:40:31.036Z</time></trkpt><trkpt lat="45.7700325" lon="11.7099739"><ele>126.0</ele><time>2026-04-26T07:40:32.035Z</time></trkpt><trkpt lat="45.7701009" lon="11.7097434"><ele>126.0</ele><time>2026-04-26T07:40:33.028Z</time></trkpt><trkpt lat="45.7701438" lon="11.7095155"><ele>126.0</ele><time>2026-04-26T07:40:34.022Z</time></trkpt><trkpt lat="45.7701886" lon="11.7092952"><ele>125.66666666666666</ele><time>2026-04-26T07:40:35.038Z</time></trkpt><trkpt lat="45.7702347" lon="11.7090828"><ele>125.33333333333333</ele><time>2026-04-26T07:40:36.035Z</time></trkpt><trkpt lat="45.7702944" lon="11.7088681"><ele>125.0</ele><time>2026-04-26T07:40:37.025Z</time></trkpt><trkpt lat="45.7703418" lon="11.7086467"><ele>124.66666666666666</ele><time>2026-04-26T07:40:38.03Z</time></trkpt><trkpt lat="45.7703949" lon="11.7084216"><ele>124.33333333333334</ele><time>2026-04-26T07:40:39.038Z</time></trkpt><trkpt lat="45.7704729" lon="11.7081925"><ele>124.0</ele><time>2026-04-26T07:40:40.036Z</time></trkpt><trkpt lat="45.7705247" lon="11.7079488"><ele>123.66666666666667</ele><time>2026-04-26T07:40:41.038Z</time></trkpt><trkpt lat="45.7705801" lon="11.7077036"><ele>123.33333333333334</ele><time>2026-04-26T07:40:42.052Z</time></trkpt><trkpt lat="45.7706609" lon="11.7074652"><ele>123.0</ele><time>2026-04-26T07:40:43.026Z</time></trkpt><trkpt lat="45.7707306" lon="11.7072199"><ele>123.0</ele><time>2026-04-26T07:40:44.025Z</time></trkpt><trkpt lat="45.770785" lon="11.7069683"><ele>123.0</ele><time>2026-04-26T07:40:45.021Z</time></trkpt><trkpt lat="45.7708457" lon="11.7067197"><ele>123.0</ele><time>2026-04-26T07:40:46.032Z</time></trkpt><trkpt lat="45.7709136" lon="11.7064816"><ele>123.66666666666666</ele><time>2026-04-26T07:40:47.034Z</time></trkpt><trkpt lat="45.7709723" lon="11.7062484"><ele>124.33333333333333</ele><time>2026-04-26T07:40:48.038Z</time></trkpt><trkpt lat="45.7710166" lon="11.706012"><ele>125.0</ele><time>2026-04-26T07:40:49.032Z</time></trkpt><trkpt lat="45.7710705" lon="11.7057842"><ele>125.0</ele><time>2026-04-26T07:40:50.034Z</time></trkpt><trkpt lat="45.7711025" lon="11.7055536"><ele>125.0</ele><time>2026-04-26T07:40:51.035Z</time></trkpt><trkpt lat="45.7711228" lon="11.7053297"><ele>125.0</ele><time>2026-04-26T07:40:52.025Z</time></trkpt><trkpt lat="45.771131" lon="11.7051044"><ele>126.0</ele><time>2026-04-26T07:40:53.033Z</time></trkpt><trkpt lat="45.7711378" lon="11.7048755"><ele>127.0</ele><time>2026-04-26T07:40:54.031Z</time></trkpt><trkpt lat="45.7711274" lon="11.7046459"><ele>128.0</ele><time>2026-04-26T07:40:55.03Z</time></trkpt><trkpt lat="45.7711025" lon="11.7044142"><ele>128.33333333333331</ele><time>2026-04-26T07:40:56.042Z</time></trkpt><trkpt lat="45.7710699" lon="11.7041818"><ele>128.66666666666666</ele><time>2026-04-26T07:40:57.025Z</time></trkpt><trkpt lat="45.7710277" lon="11.7039502"><ele>129.0</ele><time>2026-04-26T07:40:58.04Z</time></trkpt><trkpt lat="45.7709831" lon="11.7037173"><ele>128.66666666666666</ele><time>2026-04-26T07:40:59.025Z</time></trkpt><trkpt lat="45.7709359" lon="11.7034814"><ele>128.33333333333331</ele><time>2026-04-26T07:41:00.046Z</time></trkpt><trkpt lat="45.7708906" lon="11.7032434"><ele>128.0</ele><time>2026-04-26T07:41:01.023Z</time></trkpt><trkpt lat="45.7708451" lon="11.7030038"><ele>128.0</ele><time>2026-04-26T07:41:02.027Z</time></trkpt><trkpt lat="45.7707961" lon="11.702763"><ele>128.0</ele><time>2026-04-26T07:41:03.046Z</time></trkpt><trkpt lat="45.7707457" lon="11.7025253"><ele>128.0</ele><time>2026-04-26T07:41:04.037Z</time></trkpt><trkpt lat="45.770697" lon="11.7022878"><ele>128.33333333333331</ele><time>2026-04-26T07:41:05.052Z</time></trkpt><trkpt lat="45.7706514" lon="11.70205"><ele>128.66666666666666</ele><time>2026-04-26T07:41:06.024Z</time></trkpt><trkpt lat="45.7706026" lon="11.7018122"><ele>129.0</ele><time>2026-04-26T07:41:07.023Z</time></trkpt><trkpt lat="45.7705574" lon="11.7015742"><ele>131.0</ele><time>2026-04-26T07:41:08.031Z</time></trkpt><trkpt lat="45.770508" lon="11.7013372"><ele>133.0</ele><time>2026-04-26T07:41:09.038Z</time></trkpt><trkpt lat="45.7704555" lon="11.7010994"><ele>135.0</ele><time>2026-04-26T07:41:10.051Z</time></trkpt><trkpt lat="45.7703876" lon="11.7008663"><ele>139.0</ele><time>2026-04-26T07:41:11.036Z</time></trkpt><trkpt lat="45.7703326" lon="11.7006242"><ele>143.0</ele><time>2026-04-26T07:41:12.038Z</time></trkpt><trkpt lat="45.7702805" lon="11.7003764"><ele>147.0</ele><time>2026-04-26T07:41:13.04Z</time></trkpt><trkpt lat="45.7702319" lon="11.7001284"><ele>141.66666666666666</ele><time>2026-04-26T07:41:14.039Z</time></trkpt><trkpt lat="45.7701861" lon="11.6998852"><ele>136.33333333333331</ele><time>2026-04-26T07:41:15.022Z</time></trkpt><trkpt lat="45.7701605" lon="11.6996382"><ele>131.0</ele><time>2026-04-26T07:41:16.019Z</time></trkpt><trkpt lat="45.7701225" lon="11.6993973"><ele>131.0</ele><time>2026-04-26T07:41:17.024Z</time></trkpt><trkpt lat="45.770081" lon="11.6991585"><ele>131.0</ele><time>2026-04-26T07:41:18.035Z</time></trkpt><trkpt lat="45.7700387" lon="11.6989196"><ele>131.0</ele><time>2026-04-26T07:41:19.044Z</time></trkpt><trkpt lat="45.76999" lon="11.6986809"><ele>130.33333333333331</ele><time>2026-04-26T07:41:20.028Z</time></trkpt><trkpt lat="45.7699575" lon="11.698437"><ele>129.66666666666666</ele><time>2026-04-26T07:41:21.042Z</time></trkpt><trkpt lat="45.7699393" lon="11.6981915"><ele>129.0</ele><time>2026-04-26T07:41:22.054Z</time></trkpt><trkpt lat="45.7699404" lon="11.697944"><ele>127.66666666666666</ele><time>2026-04-26T07:41:23.041Z</time></trkpt><trkpt lat="45.7699582" lon="11.697697"><ele>126.33333333333333</ele><time>2026-04-26T07:41:24.039Z</time></trkpt><trkpt lat="45.7699866" lon="11.6974515"><ele>125.0</ele><time>2026-04-26T07:41:25.038Z</time></trkpt><trkpt lat="45.7700298" lon="11.6972068"><ele>125.0</ele><time>2026-04-26T07:41:26.037Z</time></trkpt><trkpt lat="45.770101" lon="11.6969721"><ele>125.0</ele><time>2026-04-26T07:41:27.034Z</time></trkpt><trkpt lat="45.7701801" lon="11.6967472"><ele>125.0</ele><time>2026-04-26T07:41:28.039Z</time></trkpt><trkpt lat="45.7702702" lon="11.6965334"><ele>125.0</ele><time>2026-04-26T07:41:29.031Z</time></trkpt><trkpt lat="45.770371" lon="11.69633"><ele>125.0</ele><time>2026-04-26T07:41:30.03Z</time></trkpt><trkpt lat="45.7704896" lon="11.6961456"><ele>125.0</ele><time>2026-04-26T07:41:31.024Z</time></trkpt><trkpt lat="45.7706342" lon="11.6959766"><ele>125.0</ele><time>2026-04-26T07:41:32.023Z</time></trkpt><trkpt lat="45.7707661" lon="11.6958065"><ele>125.0</ele><time>2026-04-26T07:41:33.036Z</time></trkpt><trkpt lat="45.7709045" lon="11.695649"><ele>125.0</ele><time>2026-04-26T07:41:34.026Z</time></trkpt><trkpt lat="45.7710412" lon="11.6954923"><ele>124.33333333333333</ele><time>2026-04-26T07:41:35.027Z</time></trkpt><trkpt lat="45.7711627" lon="11.695314"><ele>123.66666666666666</ele><time>2026-04-26T07:41:36.052Z</time></trkpt><trkpt lat="45.7712929" lon="11.6951495"><ele>123.0</ele><time>2026-04-26T07:41:37.022Z</time></trkpt><trkpt lat="45.7714241" lon="11.694988"><ele>123.0</ele><time>2026-04-26T07:41:38.014Z</time></trkpt><trkpt lat="45.771552" lon="11.6948276"><ele>123.0</ele><time>2026-04-26T07:41:39.019Z</time></trkpt><trkpt lat="45.7716794" lon="11.6946689"><ele>123.0</ele><time>2026-04-26T07:41:40.021Z</time></trkpt><trkpt lat="45.7717927" lon="11.694505"><ele>124.66666666666666</ele><time>2026-04-26T07:41:41.028Z</time></trkpt><trkpt lat="45.7719095" lon="11.6943573"><ele>126.33333333333333</ele><time>2026-04-26T07:41:42.02Z</time></trkpt><trkpt lat="45.7720248" lon="11.6942159"><ele>128.0</ele><time>2026-04-26T07:41:43.031Z</time></trkpt><trkpt lat="45.7721366" lon="11.6940768"><ele>128.0</ele><time>2026-04-26T07:41:44.015Z</time></trkpt><trkpt lat="45.7722425" lon="11.6939448"><ele>128.0</ele><time>2026-04-26T07:41:45.029Z</time></trkpt><trkpt lat="45.7723445" lon="11.6938201"><ele>128.0</ele><time>2026-04-26T07:41:46.024Z</time></trkpt><trkpt lat="45.772446" lon="11.6936993"><ele>128.0</ele><time>2026-04-26T07:41:47.014Z</time></trkpt><trkpt lat="45.7725441" lon="11.693582"><ele>128.5</ele><time>2026-04-26T07:41:48.052Z</time></trkpt><trkpt lat="45.7726386" lon="11.6934596"><ele>129.0</ele><time>2026-04-26T07:41:49.032Z</time></trkpt><trkpt lat="45.7727371" lon="11.6933367"><ele>129.5</ele><time>2026-04-26T07:41:50.029Z</time></trkpt><trkpt lat="45.7728417" lon="11.6932151"><ele>130.0</ele><time>2026-04-26T07:41:51.033Z</time></trkpt><trkpt lat="45.7729496" lon="11.693091"><ele>130.25</ele><time>2026-04-26T07:41:52.035Z</time></trkpt><trkpt lat="45.7730628" lon="11.692964"><ele>130.5</ele><time>2026-04-26T07:41:53.039Z</time></trkpt><trkpt lat="45.773185" lon="11.6928427"><ele>130.75</ele><time>2026-04-26T07:41:54.043Z</time></trkpt><trkpt lat="45.773314" lon="11.6927348"><ele>131.0</ele><time>2026-04-26T07:41:55.036Z</time></trkpt><trkpt lat="45.7734465" lon="11.692636"><ele>132.0</ele><time>2026-04-26T07:41:56.032Z</time></trkpt><trkpt lat="45.7735854" lon="11.69255"><ele>133.0</ele><time>2026-04-26T07:41:57.049Z</time></trkpt><trkpt lat="45.7737339" lon="11.6924844"><ele>134.0</ele><time>2026-04-26T07:41:58.038Z</time></trkpt><trkpt lat="45.7738822" lon="11.6924132"><ele>134.0</ele><time>2026-04-26T07:41:59.032Z</time></trkpt><trkpt lat="45.7740326" lon="11.6923421"><ele>134.0</ele><time>2026-04-26T07:42:00.037Z</time></trkpt><trkpt lat="45.7741838" lon="11.6922674"><ele>134.0</ele><time>2026-04-26T07:42:01.046Z</time></trkpt><trkpt lat="45.7743357" lon="11.6921869"><ele>137.33333333333331</ele><time>2026-04-26T07:42:02.047Z</time></trkpt><trkpt lat="45.7744892" lon="11.6921057"><ele>140.66666666666666</ele><time>2026-04-26T07:42:03.035Z</time></trkpt><trkpt lat="45.7746401" lon="11.6920287"><ele>144.0</ele><time>2026-04-26T07:42:04.049Z</time></trkpt><trkpt lat="45.7747879" lon="11.6919512"><ele>142.0</ele><time>2026-04-26T07:42:05.036Z</time></trkpt><trkpt lat="45.7749433" lon="11.6918931"><ele>140.0</ele><time>2026-04-26T07:42:06.046Z</time></trkpt><trkpt lat="45.7751015" lon="11.6918363"><ele>138.0</ele><time>2026-04-26T07:42:07.046Z</time></trkpt><trkpt lat="45.7752659" lon="11.6917932"><ele>138.0</ele><time>2026-04-26T07:42:08.035Z</time></trkpt><trkpt lat="45.7754357" lon="11.6917677"><ele>138.0</ele><time>2026-04-26T07:42:09.027Z</time></trkpt><trkpt lat="45.7756051" lon="11.691762"><ele>138.0</ele><time>2026-04-26T07:42:10.039Z</time></trkpt><trkpt lat="45.775768" lon="11.6917661"><ele>138.0</ele><time>2026-04-26T07:42:11.035Z</time></trkpt><trkpt lat="45.775926" lon="11.6917731"><ele>138.0</ele><time>2026-04-26T07:42:12.028Z</time></trkpt><trkpt lat="45.7760802" lon="11.6917811"><ele>138.0</ele><time>2026-04-26T07:42:13.036Z</time></trkpt><trkpt lat="45.7762283" lon="11.6917837"><ele>138.5</ele><time>2026-04-26T07:42:14.032Z</time></trkpt><trkpt lat="45.7763703" lon="11.691786"><ele>139.0</ele><time>2026-04-26T07:42:15.027Z</time></trkpt><trkpt lat="45.7765045" lon="11.6917881"><ele>139.5</ele><time>2026-04-26T07:42:16.035Z</time></trkpt><trkpt lat="45.7766334" lon="11.6917851"><ele>140.0</ele><time>2026-04-26T07:42:17.037Z</time></trkpt><trkpt lat="45.7767557" lon="11.6917828"><ele>140.75</ele><time>2026-04-26T07:42:18.028Z</time></trkpt><trkpt lat="45.7768732" lon="11.6917848"><ele>141.5</ele><time>2026-04-26T07:42:19.029Z</time></trkpt><trkpt lat="45.7769891" lon="11.6917867"><ele>142.25</ele><time>2026-04-26T07:42:20.02Z</time></trkpt><trkpt lat="45.7771046" lon="11.6917906"><ele>143.0</ele><time>2026-04-26T07:42:21.033Z</time></trkpt><trkpt lat="45.777221" lon="11.6917922"><ele>143.0</ele><time>2026-04-26T07:42:22.022Z</time></trkpt><trkpt lat="45.7773388" lon="11.6918076"><ele>143.0</ele><time>2026-04-26T07:42:23.031Z</time></trkpt><trkpt lat="45.7774577" lon="11.6918135"><ele>143.0</ele><time>2026-04-26T07:42:24.037Z</time></trkpt><trkpt lat="45.7775793" lon="11.691821"><ele>143.0</ele><time>2026-04-26T07:42:25.053Z</time></trkpt><trkpt lat="45.7777022" lon="11.6918238"><ele>143.75</ele><time>2026-04-26T07:42:26.029Z</time></trkpt><trkpt lat="45.7778269" lon="11.6918265"><ele>144.5</ele><time>2026-04-26T07:42:27.032Z</time></trkpt><trkpt lat="45.7779547" lon="11.6918432"><ele>145.25</ele><time>2026-04-26T07:42:28.026Z</time></trkpt><trkpt lat="45.7780854" lon="11.6918581"><ele>146.0</ele><time>2026-04-26T07:42:29.036Z</time></trkpt><trkpt lat="45.7782164" lon="11.6918694"><ele>146.0</ele><time>2026-04-26T07:42:30.026Z</time></trkpt><trkpt lat="45.7783394" lon="11.6918771"><ele>146.0</ele><time>2026-04-26T07:42:31.025Z</time></trkpt><trkpt lat="45.77845" lon="11.691874"><ele>146.0</ele><time>2026-04-26T07:42:32.018Z</time></trkpt><trkpt lat="45.7785479" lon="11.6918551"><ele>146.0</ele><time>2026-04-26T07:42:33.015Z</time></trkpt><trkpt lat="45.7786347" lon="11.6918144"><ele>146.0</ele><time>2026-04-26T07:42:34.03Z</time></trkpt><trkpt lat="45.7787138" lon="11.6917381"><ele>147.0</ele><time>2026-04-26T07:42:35.04Z</time></trkpt><trkpt lat="45.7787645" lon="11.6915992"><ele>148.0</ele><time>2026-04-26T07:42:36.03Z</time></trkpt><trkpt lat="45.7788222" lon="11.6914496"><ele>149.0</ele><time>2026-04-26T07:42:37.032Z</time></trkpt><trkpt lat="45.7788899" lon="11.6912931"><ele>150.0</ele><time>2026-04-26T07:42:38.021Z</time></trkpt><trkpt lat="45.7789477" lon="11.6911131"><ele>150.0</ele><time>2026-04-26T07:42:39.036Z</time></trkpt><trkpt lat="45.7790468" lon="11.6909593"><ele>150.0</ele><time>2026-04-26T07:42:40.027Z</time></trkpt><trkpt lat="45.7791357" lon="11.6908099"><ele>150.0</ele><time>2026-04-26T07:42:41.037Z</time></trkpt><trkpt lat="45.7792106" lon="11.69064"><ele>150.0</ele><time>2026-04-26T07:42:42.024Z</time></trkpt><trkpt lat="45.7792631" lon="11.6904762"><ele>150.0</ele><time>2026-04-26T07:42:43.029Z</time></trkpt><trkpt lat="45.7792916" lon="11.6903106"><ele>150.0</ele><time>2026-04-26T07:42:44.026Z</time></trkpt><trkpt lat="45.7793031" lon="11.6901522"><ele>150.0</ele><time>2026-04-26T07:42:45.028Z</time></trkpt><trkpt lat="45.7793042" lon="11.6900031"><ele>150.0</ele><time>2026-04-26T07:42:46.03Z</time></trkpt><trkpt lat="45.779293" lon="11.6898555"><ele>150.0</ele><time>2026-04-26T07:42:47.023Z</time></trkpt><trkpt lat="45.7792698" lon="11.6897104"><ele>150.8</ele><time>2026-04-26T07:42:48.025Z</time></trkpt><trkpt lat="45.7792474" lon="11.6895686"><ele>151.6</ele><time>2026-04-26T07:42:49.052Z</time></trkpt><trkpt lat="45.7792248" lon="11.6894305"><ele>152.4</ele><time>2026-04-26T07:42:50.029Z</time></trkpt><trkpt lat="45.7791947" lon="11.6893073"><ele>153.2</ele><time>2026-04-26T07:42:51.028Z</time></trkpt><trkpt lat="45.7791349" lon="11.6891195"><ele>154.0</ele><time>2026-04-26T07:42:53.04Z</time></trkpt><trkpt lat="45.7791239" lon="11.6889708"><ele>154.0</ele><time>2026-04-26T07:42:54.059Z</time></trkpt><trkpt lat="45.7791226" lon="11.688824"><ele>154.0</ele><time>2026-04-26T07:42:55.025Z</time></trkpt><trkpt lat="45.7791328" lon="11.6886647"><ele>154.0</ele><time>2026-04-26T07:42:56.031Z</time></trkpt><trkpt lat="45.7791481" lon="11.6884941"><ele>154.0</ele><time>2026-04-26T07:42:57.027Z</time></trkpt><trkpt lat="45.7791643" lon="11.6883177"><ele>155.5</ele><time>2026-04-26T07:42:58.018Z</time></trkpt><trkpt lat="45.7791864" lon="11.6881347"><ele>157.0</ele><time>2026-04-26T07:42:59.038Z</time></trkpt><trkpt lat="45.7792115" lon="11.6879493"><ele>158.5</ele><time>2026-04-26T07:43:00.059Z</time></trkpt><trkpt lat="45.7792393" lon="11.6877699"><ele>160.0</ele><time>2026-04-26T07:43:01.04Z</time></trkpt><trkpt lat="45.7792632" lon="11.6875937"><ele>160.75</ele><time>2026-04-26T07:43:02.038Z</time></trkpt><trkpt lat="45.7792814" lon="11.6874203"><ele>161.5</ele><time>2026-04-26T07:43:03.036Z</time></trkpt><trkpt lat="45.779289" lon="11.6872465"><ele>162.25</ele><time>2026-04-26T07:43:04.015Z</time></trkpt><trkpt lat="45.7792871" lon="11.687069"><ele>163.0</ele><time>2026-04-26T07:43:05.034Z</time></trkpt><trkpt lat="45.7792742" lon="11.686894"><ele>166.0</ele><time>2026-04-26T07:43:06.038Z</time></trkpt><trkpt lat="45.7792515" lon="11.6867232"><ele>169.0</ele><time>2026-04-26T07:43:07.031Z</time></trkpt><trkpt lat="45.7792156" lon="11.6865488"><ele>172.0</ele><time>2026-04-26T07:43:08.047Z</time></trkpt><trkpt lat="45.7791664" lon="11.6863687"><ele>175.0</ele><time>2026-04-26T07:43:09.029Z</time></trkpt><trkpt lat="45.7791055" lon="11.6861909"><ele>178.25</ele><time>2026-04-26T07:43:10.023Z</time></trkpt><trkpt lat="45.7790415" lon="11.6860213"><ele>181.5</ele><time>2026-04-26T07:43:11.017Z</time></trkpt><trkpt lat="45.7789827" lon="11.685865"><ele>184.75</ele><time>2026-04-26T07:43:12.027Z</time></trkpt><trkpt lat="45.7789248" lon="11.6857193"><ele>188.0</ele><time>2026-04-26T07:43:13.039Z</time></trkpt><trkpt lat="45.7788681" lon="11.6855664"><ele>188.0</ele><time>2026-04-26T07:43:14.037Z</time></trkpt><trkpt lat="45.7788085" lon="11.6854063"><ele>188.0</ele><time>2026-04-26T07:43:15.03Z</time></trkpt><trkpt lat="45.7787451" lon="11.6852551"><ele>188.0</ele><time>2026-04-26T07:43:16.017Z</time></trkpt><trkpt lat="45.7786758" lon="11.6851119"><ele>188.0</ele><time>2026-04-26T07:43:17.027Z</time></trkpt><trkpt lat="45.7786066" lon="11.6849859"><ele>186.8</ele><time>2026-04-26T07:43:18.026Z</time></trkpt><trkpt lat="45.7785423" lon="11.6848631"><ele>185.60000000000002</ele><time>2026-04-26T07:43:19.047Z</time></trkpt><trkpt lat="45.7784917" lon="11.6847493"><ele>184.39999999999998</ele><time>2026-04-26T07:43:20.028Z</time></trkpt><trkpt lat="45.7784579" lon="11.684631"><ele>183.2</ele><time>2026-04-26T07:43:21.029Z</time></trkpt><trkpt lat="45.7784299" lon="11.6845138"><ele>182.0</ele><time>2026-04-26T07:43:22.021Z</time></trkpt><trkpt lat="45.7784078" lon="11.684401"><ele>182.0</ele><time>2026-04-26T07:43:23.023Z</time></trkpt><trkpt lat="45.7783856" lon="11.6842886"><ele>182.0</ele><time>2026-04-26T07:43:24.054Z</time></trkpt><trkpt lat="45.7783637" lon="11.6841753"><ele>182.0</ele><time>2026-04-26T07:43:25.034Z</time></trkpt><trkpt lat="45.7783458" lon="11.684055"><ele>182.0</ele><time>2026-04-26T07:43:26.045Z</time></trkpt><trkpt lat="45.77833" lon="11.6839282"><ele>182.0</ele><time>2026-04-26T07:43:27.046Z</time></trkpt><trkpt lat="45.7783244" lon="11.6837998"><ele>182.0</ele><time>2026-04-26T07:43:28.05Z</time></trkpt><trkpt lat="45.7783255" lon="11.6836705"><ele>182.5</ele><time>2026-04-26T07:43:29.056Z</time></trkpt><trkpt lat="45.778325" lon="11.6835409"><ele>183.0</ele><time>2026-04-26T07:43:30.035Z</time></trkpt><trkpt lat="45.7783188" lon="11.6834198"><ele>183.5</ele><time>2026-04-26T07:43:31.024Z</time></trkpt><trkpt lat="45.7783143" lon="11.6833021"><ele>184.0</ele><time>2026-04-26T07:43:32.043Z</time></trkpt><trkpt lat="45.778319" lon="11.6831995"><ele>184.5</ele><time>2026-04-26T07:43:33.031Z</time></trkpt><trkpt lat="45.7783392" lon="11.6831087"><ele>185.0</ele><time>2026-04-26T07:43:34.041Z</time></trkpt><trkpt lat="45.7784332" lon="11.6829555"><ele>185.0</ele><time>2026-04-26T07:43:36.027Z</time></trkpt><trkpt lat="45.7784984" lon="11.6828503"><ele>185.0</ele><time>2026-04-26T07:43:37.038Z</time></trkpt><trkpt lat="45.7785412" lon="11.682758"><ele>185.0</ele><time>2026-04-26T07:43:38.033Z</time></trkpt><trkpt lat="45.7785634" lon="11.6826538"><ele>185.0</ele><time>2026-04-26T07:43:39.045Z</time></trkpt><trkpt lat="45.7785835" lon="11.6824788"><ele>185.0</ele><time>2026-04-26T07:43:40.04Z</time></trkpt><trkpt lat="45.7785812" lon="11.6823142"><ele>187.0</ele><time>2026-04-26T07:43:41.05Z</time></trkpt><trkpt lat="45.7785582" lon="11.6821546"><ele>189.0</ele><time>2026-04-26T07:43:42.049Z</time></trkpt><trkpt lat="45.778519" lon="11.6820113"><ele>191.0</ele><time>2026-04-26T07:43:43.029Z</time></trkpt><trkpt lat="45.7784662" lon="11.6818796"><ele>193.0</ele><time>2026-04-26T07:43:44.038Z</time></trkpt><trkpt lat="45.7784125" lon="11.681758"><ele>195.0</ele><time>2026-04-26T07:43:45.022Z</time></trkpt><trkpt lat="45.7783691" lon="11.6816483"><ele>195.0</ele><time>2026-04-26T07:43:46.04Z</time></trkpt><trkpt lat="45.7783448" lon="11.6815321"><ele>195.0</ele><time>2026-04-26T07:43:47.037Z</time></trkpt><trkpt lat="45.77833" lon="11.6814005"><ele>195.0</ele><time>2026-04-26T07:43:48.019Z</time></trkpt><trkpt lat="45.7783079" lon="11.6812329"><ele>195.0</ele><time>2026-04-26T07:43:49.04Z</time></trkpt><trkpt lat="45.7783094" lon="11.6811094"><ele>195.0</ele><time>2026-04-26T07:43:50.039Z</time></trkpt><trkpt lat="45.7783263" lon="11.680988"><ele>195.8</ele><time>2026-04-26T07:43:51.027Z</time></trkpt><trkpt lat="45.7783545" lon="11.6808602"><ele>196.6</ele><time>2026-04-26T07:43:52.041Z</time></trkpt><trkpt lat="45.7783822" lon="11.6807308"><ele>197.39999999999998</ele><time>2026-04-26T07:43:53.037Z</time></trkpt><trkpt lat="45.7784106" lon="11.6805938"><ele>198.2</ele><time>2026-04-26T07:43:54.029Z</time></trkpt><trkpt lat="45.7784365" lon="11.6804579"><ele>199.0</ele><time>2026-04-26T07:43:55.042Z</time></trkpt><trkpt lat="45.7784623" lon="11.6803154"><ele>199.66666666666666</ele><time>2026-04-26T07:43:56.039Z</time></trkpt><trkpt lat="45.7784882" lon="11.6801796"><ele>200.33333333333331</ele><time>2026-04-26T07:43:57.053Z</time></trkpt><trkpt lat="45.778511" lon="11.6800458"><ele>201.0</ele><time>2026-04-26T07:43:58.027Z</time></trkpt><trkpt lat="45.7785205" lon="11.679911"><ele>201.66666666666669</ele><time>2026-04-26T07:43:59.043Z</time></trkpt><trkpt lat="45.7785175" lon="11.6797969"><ele>202.33333333333334</ele><time>2026-04-26T07:44:00.055Z</time></trkpt><trkpt lat="45.7785036" lon="11.6796865"><ele>203.0</ele><time>2026-04-26T07:44:01.025Z</time></trkpt><trkpt lat="45.7784747" lon="11.6795762"><ele>203.0</ele><time>2026-04-26T07:44:02.036Z</time></trkpt><trkpt lat="45.778431" lon="11.6794592"><ele>203.0</ele><time>2026-04-26T07:44:03.026Z</time></trkpt><trkpt lat="45.7783765" lon="11.6793494"><ele>203.0</ele><time>2026-04-26T07:44:04.049Z</time></trkpt><trkpt lat="45.7783169" lon="11.6792384"><ele>203.0</ele><time>2026-04-26T07:44:05.03Z</time></trkpt><trkpt lat="45.778261" lon="11.6791205"><ele>203.0</ele><time>2026-04-26T07:44:06.048Z</time></trkpt><trkpt lat="45.7782064" lon="11.678996"><ele>204.8</ele><time>2026-04-26T07:44:07.042Z</time></trkpt><trkpt lat="45.778161" lon="11.6788719"><ele>206.60000000000002</ele><time>2026-04-26T07:44:08.032Z</time></trkpt><trkpt lat="45.7781152" lon="11.678737"><ele>208.39999999999998</ele><time>2026-04-26T07:44:09.054Z</time></trkpt><trkpt lat="45.7780755" lon="11.6786129"><ele>210.2</ele><time>2026-04-26T07:44:10.026Z</time></trkpt><trkpt lat="45.7780363" lon="11.6784856"><ele>212.0</ele><time>2026-04-26T07:44:11.034Z</time></trkpt><trkpt lat="45.7779995" lon="11.6783585"><ele>214.16666666666669</ele><time>2026-04-26T07:44:12.029Z</time></trkpt><trkpt lat="45.7779683" lon="11.6782307"><ele>216.33333333333334</ele><time>2026-04-26T07:44:13.027Z</time></trkpt><trkpt lat="45.7779509" lon="11.6781079"><ele>218.5</ele><time>2026-04-26T07:44:14.02Z</time></trkpt><trkpt lat="45.7779434" lon="11.6779878"><ele>220.66666666666669</ele><time>2026-04-26T07:44:15.031Z</time></trkpt><trkpt lat="45.7779551" lon="11.67789"><ele>222.83333333333334</ele><time>2026-04-26T07:44:16.032Z</time></trkpt><trkpt lat="45.7779865" lon="11.6777813"><ele>225.0</ele><time>2026-04-26T07:44:17.042Z</time></trkpt><trkpt lat="45.7780246" lon="11.6776563"><ele>226.6</ele><time>2026-04-26T07:44:18.029Z</time></trkpt><trkpt lat="45.7780569" lon="11.6775179"><ele>228.2</ele><time>2026-04-26T07:44:19.035Z</time></trkpt><trkpt lat="45.7780776" lon="11.6773752"><ele>229.8</ele><time>2026-04-26T07:44:20.04Z</time></trkpt><trkpt lat="45.7780895" lon="11.6772395"><ele>231.4</ele><time>2026-04-26T07:44:21.048Z</time></trkpt><trkpt lat="45.7780975" lon="11.6771104"><ele>233.0</ele><time>2026-04-26T07:44:22.037Z</time></trkpt><trkpt lat="45.778109" lon="11.6769887"><ele>232.83333333333334</ele><time>2026-04-26T07:44:23.031Z</time></trkpt><trkpt lat="45.7781275" lon="11.6768704"><ele>232.66666666666669</ele><time>2026-04-26T07:44:24.021Z</time></trkpt><trkpt lat="45.778148" lon="11.6767464"><ele>232.5</ele><time>2026-04-26T07:44:25.026Z</time></trkpt><trkpt lat="45.7781717" lon="11.676623"><ele>232.33333333333331</ele><time>2026-04-26T07:44:26.045Z</time></trkpt><trkpt lat="45.7782012" lon="11.676504"><ele>232.16666666666666</ele><time>2026-04-26T07:44:27.046Z</time></trkpt><trkpt lat="45.778238" lon="11.6763939"><ele>232.0</ele><time>2026-04-26T07:44:28.039Z</time></trkpt><trkpt lat="45.7782844" lon="11.6763127"><ele>231.99999999999997</ele><time>2026-04-26T07:44:29.031Z</time></trkpt><trkpt lat="45.7783423" lon="11.6762428"><ele>232.0</ele><time>2026-04-26T07:44:30.054Z</time></trkpt><trkpt lat="45.7784121" lon="11.6761837"><ele>232.0</ele><time>2026-04-26T07:44:31.016Z</time></trkpt><trkpt lat="45.7784923" lon="11.6761441"><ele>232.0</ele><time>2026-04-26T07:44:32.047Z</time></trkpt><trkpt lat="45.7785762" lon="11.676114"><ele>231.99999999999997</ele><time>2026-04-26T07:44:33.031Z</time></trkpt><trkpt lat="45.7786577" lon="11.6760447"><ele>232.0</ele><time>2026-04-26T07:44:35.033Z</time></trkpt><trkpt lat="45.7787147" lon="11.675921"><ele>235.8</ele><time>2026-04-26T07:44:37.041Z</time></trkpt><trkpt lat="45.7787308" lon="11.6757254"><ele>239.6</ele><time>2026-04-26T07:44:38.042Z</time></trkpt><trkpt lat="45.7787298" lon="11.6755784"><ele>243.40000000000003</ele><time>2026-04-26T07:44:39.04Z</time></trkpt><trkpt lat="45.7787291" lon="11.6754099"><ele>247.20000000000002</ele><time>2026-04-26T07:44:40.031Z</time></trkpt><trkpt lat="45.7787279" lon="11.6752785"><ele>251.0</ele><time>2026-04-26T07:44:41.023Z</time></trkpt><trkpt lat="45.7787817" lon="11.6751524"><ele>251.5</ele><time>2026-04-26T07:44:44.05Z</time></trkpt><trkpt lat="45.7789034" lon="11.6750059"><ele>252.0</ele><time>2026-04-26T07:44:45.022Z</time></trkpt><trkpt lat="45.7789763" lon="11.6749354"><ele>252.5</ele><time>2026-04-26T07:44:46.026Z</time></trkpt><trkpt lat="45.7790251" lon="11.6748646"><ele>253.0</ele><time>2026-04-26T07:44:47.027Z</time></trkpt><trkpt lat="45.7791132" lon="11.674682"><ele>253.0</ele><time>2026-04-26T07:44:48.021Z</time></trkpt><trkpt lat="45.7790871" lon="11.6743478"><ele>253.0</ele><time>2026-04-26T07:44:51.028Z</time></trkpt><trkpt lat="45.7791322" lon="11.6741695"><ele>253.0</ele><time>2026-04-26T07:44:52.03Z</time></trkpt><trkpt lat="45.7791726" lon="11.6740628"><ele>253.0</ele><time>2026-04-26T07:44:53.026Z</time></trkpt><trkpt lat="45.779264" lon="11.6738258"><ele>253.0</ele><time>2026-04-26T07:44:54.07Z</time></trkpt><trkpt lat="45.7793226" lon="11.6736411"><ele>253.0</ele><time>2026-04-26T07:44:55.043Z</time></trkpt><trkpt lat="45.7793567" lon="11.6734685"><ele>259.6</ele><time>2026-04-26T07:44:56.054Z</time></trkpt><trkpt lat="45.7793746" lon="11.6733267"><ele>266.20000000000005</ele><time>2026-04-26T07:44:57.04Z</time></trkpt><trkpt lat="45.7793979" lon="11.6731932"><ele>272.8</ele><time>2026-04-26T07:44:58.052Z</time></trkpt><trkpt lat="45.779411" lon="11.6730909"><ele>279.40000000000003</ele><time>2026-04-26T07:44:59.038Z</time></trkpt><trkpt lat="45.7794234" lon="11.6729794"><ele>286.0</ele><time>2026-04-26T07:45:00.043Z</time></trkpt><trkpt lat="45.7794262" lon="11.6727974"><ele>286.0</ele><time>2026-04-26T07:45:02.036Z</time></trkpt><trkpt lat="45.7793893" lon="11.6726891"><ele>286.0</ele><time>2026-04-26T07:45:03.04Z</time></trkpt><trkpt lat="45.7793565" lon="11.6725442"><ele>286.0</ele><time>2026-04-26T07:45:04.041Z</time></trkpt><trkpt lat="45.7793307" lon="11.6724058"><ele>286.0</ele><time>2026-04-26T07:45:05.035Z</time></trkpt><trkpt lat="45.7793147" lon="11.6722705"><ele>286.0</ele><time>2026-04-26T07:45:06.039Z</time></trkpt><trkpt lat="45.7793073" lon="11.6721386"><ele>286.8333333333333</ele><time>2026-04-26T07:45:07.036Z</time></trkpt><trkpt lat="45.7793122" lon="11.6720128"><ele>287.66666666666663</ele><time>2026-04-26T07:45:08.038Z</time></trkpt><trkpt lat="45.7793241" lon="11.671905"><ele>288.5</ele><time>2026-04-26T07:45:09.038Z</time></trkpt><trkpt lat="45.7793482" lon="11.6718067"><ele>289.3333333333333</ele><time>2026-04-26T07:45:10.043Z</time></trkpt><trkpt lat="45.7793839" lon="11.6717204"><ele>290.1666666666667</ele><time>2026-04-26T07:45:11.056Z</time></trkpt><trkpt lat="45.7794713" lon="11.6716345"><ele>291.0</ele><time>2026-04-26T07:45:13.032Z</time></trkpt><trkpt lat="45.7795515" lon="11.6715402"><ele>291.0</ele><time>2026-04-26T07:45:14.037Z</time></trkpt><trkpt lat="45.7796069" lon="11.6714569"><ele>291.0</ele><time>2026-04-26T07:45:15.041Z</time></trkpt><trkpt lat="45.7796667" lon="11.6712026"><ele>291.0</ele><time>2026-04-26T07:45:17.043Z</time></trkpt><trkpt lat="45.7797006" lon="11.6710372"><ele>291.0</ele><time>2026-04-26T07:45:18.039Z</time></trkpt><trkpt lat="45.779731" lon="11.6708837"><ele>290.3333333333333</ele><time>2026-04-26T07:45:19.031Z</time></trkpt><trkpt lat="45.7797584" lon="11.6707301"><ele>289.6666666666667</ele><time>2026-04-26T07:45:20.032Z</time></trkpt><trkpt lat="45.7797836" lon="11.670605"><ele>289.0</ele><time>2026-04-26T07:45:21.025Z</time></trkpt><trkpt lat="45.779803" lon="11.6704859"><ele>288.33333333333337</ele><time>2026-04-26T07:45:22.034Z</time></trkpt><trkpt lat="45.7798167" lon="11.6703834"><ele>287.6666666666667</ele><time>2026-04-26T07:45:23.021Z</time></trkpt><trkpt lat="45.7798272" lon="11.670291"><ele>287.0</ele><time>2026-04-26T07:45:24.03Z</time></trkpt><trkpt lat="45.7798476" lon="11.6701459"><ele>286.5</ele><time>2026-04-26T07:45:26.011Z</time></trkpt><trkpt lat="45.7798653" lon="11.6700454"><ele>286.0</ele><time>2026-04-26T07:45:28.034Z</time></trkpt><trkpt lat="45.7798788" lon="11.6699537"><ele>285.5</ele><time>2026-04-26T07:45:30.043Z</time></trkpt><trkpt lat="45.7798978" lon="11.6698599"><ele>285.0</ele><time>2026-04-26T07:45:32.044Z</time></trkpt><trkpt lat="45.7799344" lon="11.6697788"><ele>284.5</ele><time>2026-04-26T07:45:34.045Z</time></trkpt><trkpt lat="45.7799973" lon="11.66985"><ele>284.0</ele><time>2026-04-26T07:45:37.045Z</time></trkpt><trkpt lat="45.7799458" lon="11.6700122"><ele>284.0</ele><time>2026-04-26T07:45:39.028Z</time></trkpt><trkpt lat="45.7799366" lon="11.6701456"><ele>284.0</ele><time>2026-04-26T07:45:40.043Z</time></trkpt><trkpt lat="45.7799335" lon="11.670305"><ele>284.0</ele><time>2026-04-26T07:45:41.029Z</time></trkpt><trkpt lat="45.7799497" lon="11.6704704"><ele>284.0</ele><time>2026-04-26T07:45:42.033Z</time></trkpt><trkpt lat="45.7799803" lon="11.6706433"><ele>284.0</ele><time>2026-04-26T07:45:43.043Z</time></trkpt><trkpt lat="45.7799795" lon="11.6708121"><ele>284.59999999999997</ele><time>2026-04-26T07:45:44.034Z</time></trkpt><trkpt lat="45.7799972" lon="11.6709637"><ele>285.2</ele><time>2026-04-26T07:45:45.033Z</time></trkpt><trkpt lat="45.7800151" lon="11.6711064"><ele>285.79999999999995</ele><time>2026-04-26T07:45:46.043Z</time></trkpt><trkpt lat="45.78001" lon="11.671254"><ele>286.4</ele><time>2026-04-26T07:45:47.034Z</time></trkpt><trkpt lat="45.7799991" lon="11.6713879"><ele>287.0</ele><time>2026-04-26T07:45:48.035Z</time></trkpt><trkpt lat="45.7799797" lon="11.6715158"><ele>286.8</ele><time>2026-04-26T07:45:49.031Z</time></trkpt><trkpt lat="45.7799567" lon="11.6716375"><ele>286.6</ele><time>2026-04-26T07:45:50.026Z</time></trkpt><trkpt lat="45.7799236" lon="11.6717502"><ele>286.40000000000003</ele><time>2026-04-26T07:45:51.028Z</time></trkpt><trkpt lat="45.7799069" lon="11.67187"><ele>286.2</ele><time>2026-04-26T07:45:52.015Z</time></trkpt><trkpt lat="45.7799174" lon="11.6720041"><ele>286.0</ele><time>2026-04-26T07:45:53.014Z</time></trkpt><trkpt lat="45.7799592" lon="11.6721404"><ele>286.0</ele><time>2026-04-26T07:45:54.015Z</time></trkpt><trkpt lat="45.7800112" lon="11.6722761"><ele>286.0</ele><time>2026-04-26T07:45:55.015Z</time></trkpt><trkpt lat="45.7800642" lon="11.6724177"><ele>286.0</ele><time>2026-04-26T07:45:56.033Z</time></trkpt><trkpt lat="45.7801048" lon="11.6725708"><ele>286.0</ele><time>2026-04-26T07:45:57.016Z</time></trkpt><trkpt lat="45.7801355" lon="11.6727293"><ele>286.0</ele><time>2026-04-26T07:45:58.023Z</time></trkpt><trkpt lat="45.780168" lon="11.6728845"><ele>294.4</ele><time>2026-04-26T07:45:59.017Z</time></trkpt><trkpt lat="45.7802003" lon="11.6730339"><ele>302.8</ele><time>2026-04-26T07:46:00.032Z</time></trkpt><trkpt lat="45.780241" lon="11.6731777"><ele>311.2</ele><time>2026-04-26T07:46:01.032Z</time></trkpt><trkpt lat="45.7802837" lon="11.6733216"><ele>319.59999999999997</ele><time>2026-04-26T07:46:02.022Z</time></trkpt><trkpt lat="45.7803222" lon="11.6734655"><ele>328.0</ele><time>2026-04-26T07:46:03.034Z</time></trkpt><trkpt lat="45.7803596" lon="11.6736098"><ele>328.0</ele><time>2026-04-26T07:46:04.02Z</time></trkpt><trkpt lat="45.7803925" lon="11.673759"><ele>328.0</ele><time>2026-04-26T07:46:05.02Z</time></trkpt><trkpt lat="45.7804153" lon="11.6739147"><ele>328.0</ele><time>2026-04-26T07:46:06.038Z</time></trkpt><trkpt lat="45.7804285" lon="11.6740721"><ele>328.0</ele><time>2026-04-26T07:46:07.038Z</time></trkpt><trkpt lat="45.7804455" lon="11.6742263"><ele>328.0</ele><time>2026-04-26T07:46:08.037Z</time></trkpt><trkpt lat="45.7804634" lon="11.6743814"><ele>328.0</ele><time>2026-04-26T07:46:09.038Z</time></trkpt><trkpt lat="45.7804695" lon="11.674539"><ele>328.0</ele><time>2026-04-26T07:46:10.02Z</time></trkpt><trkpt lat="45.7804791" lon="11.6746907"><ele>328.0</ele><time>2026-04-26T07:46:11.031Z</time></trkpt><trkpt lat="45.7804861" lon="11.6748396"><ele>328.0</ele><time>2026-04-26T07:46:12.022Z</time></trkpt><trkpt lat="45.7804992" lon="11.674988"><ele>328.0</ele><time>2026-04-26T07:46:13.033Z</time></trkpt><trkpt lat="45.7805232" lon="11.6751339"><ele>327.4</ele><time>2026-04-26T07:46:14.012Z</time></trkpt><trkpt lat="45.7805488" lon="11.6752792"><ele>326.79999999999995</ele><time>2026-04-26T07:46:15.024Z</time></trkpt><trkpt lat="45.7805708" lon="11.6754161"><ele>326.2</ele><time>2026-04-26T07:46:16.027Z</time></trkpt><trkpt lat="45.7805904" lon="11.6755524"><ele>325.6</ele><time>2026-04-26T07:46:17.017Z</time></trkpt><trkpt lat="45.7805997" lon="11.6756911"><ele>325.0</ele><time>2026-04-26T07:46:18.022Z</time></trkpt><trkpt lat="45.7805893" lon="11.6758223"><ele>325.0</ele><time>2026-04-26T07:46:19.025Z</time></trkpt><trkpt lat="45.7805738" lon="11.6759319"><ele>325.0</ele><time>2026-04-26T07:46:20.017Z</time></trkpt><trkpt lat="45.7805754" lon="11.6760316"><ele>325.0</ele><time>2026-04-26T07:46:21.015Z</time></trkpt><trkpt lat="45.7806079" lon="11.6762011"><ele>325.0</ele><time>2026-04-26T07:46:23.017Z</time></trkpt><trkpt lat="45.7806528" lon="11.6762835"><ele>325.0</ele><time>2026-04-26T07:46:24.023Z</time></trkpt><trkpt lat="45.7807245" lon="11.6763407"><ele>325.0</ele><time>2026-04-26T07:46:25.042Z</time></trkpt><trkpt lat="45.7807942" lon="11.6763651"><ele>321.6</ele><time>2026-04-26T07:46:26.026Z</time></trkpt><trkpt lat="45.780903" lon="11.6763442"><ele>318.2</ele><time>2026-04-26T07:46:28.029Z</time></trkpt><trkpt lat="45.7809935" lon="11.6762566"><ele>314.8</ele><time>2026-04-26T07:46:30.03Z</time></trkpt><trkpt lat="45.7810819" lon="11.6761956"><ele>311.4</ele><time>2026-04-26T07:46:32.031Z</time></trkpt><trkpt lat="45.7811946" lon="11.6761858"><ele>308.0</ele><time>2026-04-26T07:46:34.027Z</time></trkpt><trkpt lat="45.781306" lon="11.6762528"><ele>315.0</ele><time>2026-04-26T07:46:36.022Z</time></trkpt><trkpt lat="45.7813532" lon="11.6763377"><ele>322.0</ele><time>2026-04-26T07:46:37.049Z</time></trkpt><trkpt lat="45.7814001" lon="11.676445"><ele>329.0</ele><time>2026-04-26T07:46:38.022Z</time></trkpt><trkpt lat="45.7814532" lon="11.6765691"><ele>336.0</ele><time>2026-04-26T07:46:39.045Z</time></trkpt><trkpt lat="45.7814995" lon="11.6767179"><ele>343.0</ele><time>2026-04-26T07:46:40.037Z</time></trkpt><trkpt lat="45.7815464" lon="11.6768737"><ele>341.79999999999995</ele><time>2026-04-26T07:46:41.033Z</time></trkpt><trkpt lat="45.7815958" lon="11.6770214"><ele>340.6</ele><time>2026-04-26T07:46:42.027Z</time></trkpt><trkpt lat="45.7816339" lon="11.6771694"><ele>339.4</ele><time>2026-04-26T07:46:43.039Z</time></trkpt><trkpt lat="45.7816662" lon="11.6773048"><ele>338.20000000000005</ele><time>2026-04-26T07:46:44.04Z</time></trkpt><trkpt lat="45.7816855" lon="11.6774297"><ele>337.0</ele><time>2026-04-26T07:46:45.035Z</time></trkpt><trkpt lat="45.7817088" lon="11.6775497"><ele>337.0</ele><time>2026-04-26T07:46:46.038Z</time></trkpt><trkpt lat="45.7817201" lon="11.6776704"><ele>337.0</ele><time>2026-04-26T07:46:47.018Z</time></trkpt><trkpt lat="45.7817158" lon="11.6777862"><ele>337.0</ele><time>2026-04-26T07:46:48.018Z</time></trkpt><trkpt lat="45.7817077" lon="11.6778953"><ele>337.0</ele><time>2026-04-26T07:46:49.017Z</time></trkpt><trkpt lat="45.7816891" lon="11.6779958"><ele>337.0</ele><time>2026-04-26T07:46:50.017Z</time></trkpt><trkpt lat="45.781659" lon="11.6781408"><ele>337.0</ele><time>2026-04-26T07:46:52.018Z</time></trkpt><trkpt lat="45.7816763" lon="11.6782518"><ele>337.0</ele><time>2026-04-26T07:46:54.04Z</time></trkpt><trkpt lat="45.7817615" lon="11.6782926"><ele>337.0</ele><time>2026-04-26T07:46:56.034Z</time></trkpt><trkpt lat="45.7818217" lon="11.6781189"><ele>337.0</ele><time>2026-04-26T07:46:58.016Z</time></trkpt><trkpt lat="45.7818247" lon="11.6779987"><ele>337.0</ele><time>2026-04-26T07:46:59.023Z</time></trkpt><trkpt lat="45.7818252" lon="11.6778618"><ele>337.0</ele><time>2026-04-26T07:47:00.02Z</time></trkpt><trkpt lat="45.7818367" lon="11.677711"><ele>352.75</ele><time>2026-04-26T07:47:01.042Z</time></trkpt><trkpt lat="45.7818523" lon="11.6775521"><ele>368.5</ele><time>2026-04-26T07:47:02.031Z</time></trkpt><trkpt lat="45.7818631" lon="11.6773793"><ele>384.25</ele><time>2026-04-26T07:47:03.031Z</time></trkpt><trkpt lat="45.7818714" lon="11.6771971"><ele>400.0</ele><time>2026-04-26T07:47:04.029Z</time></trkpt><trkpt lat="45.7818731" lon="11.6770139"><ele>401.25</ele><time>2026-04-26T07:47:05.016Z</time></trkpt><trkpt lat="45.7818586" lon="11.676828"><ele>402.5</ele><time>2026-04-26T07:47:06.024Z</time></trkpt><trkpt lat="45.7818441" lon="11.676647"><ele>403.75</ele><time>2026-04-26T07:47:07.023Z</time></trkpt><trkpt lat="45.7818191" lon="11.6764699"><ele>405.0</ele><time>2026-04-26T07:47:08.033Z</time></trkpt><trkpt lat="45.7817917" lon="11.6762979"><ele>393.75</ele><time>2026-04-26T07:47:09.028Z</time></trkpt><trkpt lat="45.7817707" lon="11.6761298"><ele>382.5</ele><time>2026-04-26T07:47:10.03Z</time></trkpt><trkpt lat="45.7817383" lon="11.6759763"><ele>371.25</ele><time>2026-04-26T07:47:11.046Z</time></trkpt><trkpt lat="45.7816809" lon="11.6758356"><ele>360.0</ele><time>2026-04-26T07:47:12.015Z</time></trkpt><trkpt lat="45.7816137" lon="11.6757151"><ele>360.0</ele><time>2026-04-26T07:47:13.032Z</time></trkpt><trkpt lat="45.7815486" lon="11.6755972"><ele>360.0</ele><time>2026-04-26T07:47:14.012Z</time></trkpt><trkpt lat="45.7814635" lon="11.6755244"><ele>360.0</ele><time>2026-04-26T07:47:15.029Z</time></trkpt><trkpt lat="45.7813864" lon="11.6754559"><ele>360.0</ele><time>2026-04-26T07:47:16.037Z</time></trkpt><trkpt lat="45.7813214" lon="11.6753789"><ele>360.0</ele><time>2026-04-26T07:47:17.028Z</time></trkpt><trkpt lat="45.7812884" lon="11.6752674"><ele>363.0</ele><time>2026-04-26T07:47:18.037Z</time></trkpt><trkpt lat="45.7812762" lon="11.6751417"><ele>366.0</ele><time>2026-04-26T07:47:19.021Z</time></trkpt><trkpt lat="45.7812754" lon="11.6750019"><ele>369.0</ele><time>2026-04-26T07:47:20.024Z</time></trkpt><trkpt lat="45.7812866" lon="11.6748513"><ele>372.0</ele><time>2026-04-26T07:47:21.028Z</time></trkpt><trkpt lat="45.7813258" lon="11.6746895"><ele>375.0</ele><time>2026-04-26T07:47:22.021Z</time></trkpt><trkpt lat="45.781363" lon="11.674525"><ele>378.0</ele><time>2026-04-26T07:47:23.049Z</time></trkpt><trkpt lat="45.7813837" lon="11.674355"><ele>381.0</ele><time>2026-04-26T07:47:24.04Z</time></trkpt><trkpt lat="45.7813765" lon="11.6741767"><ele>384.0</ele><time>2026-04-26T07:47:25.033Z</time></trkpt><trkpt lat="45.7813703" lon="11.6739979"><ele>387.0</ele><time>2026-04-26T07:47:26.019Z</time></trkpt><trkpt lat="45.7813811" lon="11.6738129"><ele>387.0</ele><time>2026-04-26T07:47:27.043Z</time></trkpt><trkpt lat="45.7813825" lon="11.6736172"><ele>387.0</ele><time>2026-04-26T07:47:28.022Z</time></trkpt><trkpt lat="45.7814009" lon="11.6734074"><ele>387.0</ele><time>2026-04-26T07:47:29.027Z</time></trkpt><trkpt lat="45.7814333" lon="11.6732048"><ele>387.0</ele><time>2026-04-26T07:47:30.028Z</time></trkpt><trkpt lat="45.7814571" lon="11.6730112"><ele>387.5</ele><time>2026-04-26T07:47:31.034Z</time></trkpt><trkpt lat="45.7814792" lon="11.6728251"><ele>388.0</ele><time>2026-04-26T07:47:32.026Z</time></trkpt><trkpt lat="45.781503" lon="11.672652"><ele>388.5</ele><time>2026-04-26T07:47:33.032Z</time></trkpt><trkpt lat="45.7815186" lon="11.6724926"><ele>389.0</ele><time>2026-04-26T07:47:34.016Z</time></trkpt><trkpt lat="45.7815265" lon="11.6723476"><ele>389.66666666666663</ele><time>2026-04-26T07:47:35.023Z</time></trkpt><trkpt lat="45.7815235" lon="11.6722256"><ele>390.3333333333333</ele><time>2026-04-26T07:47:36.025Z</time></trkpt><trkpt lat="45.7815218" lon="11.672109"><ele>391.0</ele><time>2026-04-26T07:47:37.031Z</time></trkpt><trkpt lat="45.7815255" lon="11.6719917"><ele>391.66666666666663</ele><time>2026-04-26T07:47:38.039Z</time></trkpt><trkpt lat="45.7815246" lon="11.6718664"><ele>392.3333333333333</ele><time>2026-04-26T07:47:39.028Z</time></trkpt><trkpt lat="45.7815177" lon="11.6717288"><ele>393.0</ele><time>2026-04-26T07:47:40.017Z</time></trkpt><trkpt lat="45.7815" lon="11.6715792"><ele>393.2</ele><time>2026-04-26T07:47:41.021Z</time></trkpt><trkpt lat="45.7814868" lon="11.6714272"><ele>393.4</ele><time>2026-04-26T07:47:42.016Z</time></trkpt><trkpt lat="45.7814857" lon="11.6712732"><ele>393.59999999999997</ele><time>2026-04-26T07:47:43.018Z</time></trkpt><trkpt lat="45.7815181" lon="11.6711198"><ele>393.79999999999995</ele><time>2026-04-26T07:47:44.031Z</time></trkpt><trkpt lat="45.7815735" lon="11.6709623"><ele>394.0</ele><time>2026-04-26T07:47:45.024Z</time></trkpt><trkpt lat="45.7816391" lon="11.6708055"><ele>394.0</ele><time>2026-04-26T07:47:46.02Z</time></trkpt><trkpt lat="45.781695" lon="11.6706359"><ele>394.0</ele><time>2026-04-26T07:47:47.04Z</time></trkpt><trkpt lat="45.7817333" lon="11.6704595"><ele>394.0</ele><time>2026-04-26T07:47:48.029Z</time></trkpt><trkpt lat="45.7817516" lon="11.6702977"><ele>394.0</ele><time>2026-04-26T07:47:49.033Z</time></trkpt><trkpt lat="45.7817648" lon="11.6701427"><ele>393.2</ele><time>2026-04-26T07:47:50.03Z</time></trkpt><trkpt lat="45.7817659" lon="11.6699848"><ele>392.4</ele><time>2026-04-26T07:47:51.026Z</time></trkpt><trkpt lat="45.7817741" lon="11.6698438"><ele>391.6</ele><time>2026-04-26T07:47:52.029Z</time></trkpt><trkpt lat="45.781774" lon="11.6697179"><ele>390.8</ele><time>2026-04-26T07:47:53.045Z</time></trkpt><trkpt lat="45.7817653" lon="11.6696039"><ele>390.0</ele><time>2026-04-26T07:47:54.025Z</time></trkpt><trkpt lat="45.7817539" lon="11.6694974"><ele>389.3333333333333</ele><time>2026-04-26T07:47:55.04Z</time></trkpt><trkpt lat="45.7817498" lon="11.6693972"><ele>388.66666666666663</ele><time>2026-04-26T07:47:56.036Z</time></trkpt><trkpt lat="45.7817393" lon="11.6692466"><ele>388.0</ele><time>2026-04-26T07:47:58.039Z</time></trkpt><trkpt lat="45.7817459" lon="11.669152"><ele>387.3333333333333</ele><time>2026-04-26T07:48:00.043Z</time></trkpt><trkpt lat="45.7817679" lon="11.6690648"><ele>386.66666666666663</ele><time>2026-04-26T07:48:02.048Z</time></trkpt><trkpt lat="45.7818041" lon="11.6689545"><ele>386.0</ele><time>2026-04-26T07:48:05.047Z</time></trkpt><trkpt lat="45.781864" lon="11.6688672"><ele>390.8333333333333</ele><time>2026-04-26T07:48:07.041Z</time></trkpt><trkpt lat="45.7819142" lon="11.6687604"><ele>395.66666666666663</ele><time>2026-04-26T07:48:09.04Z</time></trkpt><trkpt lat="45.7819648" lon="11.6686954"><ele>400.5</ele><time>2026-04-26T07:48:10.032Z</time></trkpt><trkpt lat="45.7820306" lon="11.6686358"><ele>405.33333333333337</ele><time>2026-04-26T07:48:11.027Z</time></trkpt><trkpt lat="45.7821056" lon="11.668578"><ele>410.1666666666667</ele><time>2026-04-26T07:48:12.038Z</time></trkpt><trkpt lat="45.7821807" lon="11.6685165"><ele>415.0</ele><time>2026-04-26T07:48:13.041Z</time></trkpt><trkpt lat="45.7822522" lon="11.6684714"><ele>415.0</ele><time>2026-04-26T07:48:14.028Z</time></trkpt><trkpt lat="45.7823154" lon="11.6684298"><ele>415.0</ele><time>2026-04-26T07:48:15.027Z</time></trkpt><trkpt lat="45.7824008" lon="11.6683164"><ele>415.0</ele><time>2026-04-26T07:48:17.033Z</time></trkpt><trkpt lat="45.7824102" lon="11.6682141"><ele>415.0</ele><time>2026-04-26T07:48:18.034Z</time></trkpt><trkpt lat="45.7823765" lon="11.6680939"><ele>415.0</ele><time>2026-04-26T07:48:19.034Z</time></trkpt><trkpt lat="45.7823186" lon="11.6679698"><ele>415.0</ele><time>2026-04-26T07:48:20.022Z</time></trkpt><trkpt lat="45.7822248" lon="11.6678773"><ele>415.0</ele><time>2026-04-26T07:48:21.024Z</time></trkpt><trkpt lat="45.7821128" lon="11.6677868"><ele>415.0</ele><time>2026-04-26T07:48:22.022Z</time></trkpt><trkpt lat="45.7820044" lon="11.6676698"><ele>415.0</ele><time>2026-04-26T07:48:23.016Z</time></trkpt><trkpt lat="45.7819087" lon="11.6675546"><ele>413.5</ele><time>2026-04-26T07:48:24.03Z</time></trkpt><trkpt lat="45.7817977" lon="11.6674926"><ele>412.0</ele><time>2026-04-26T07:48:25.03Z</time></trkpt><trkpt lat="45.7816917" lon="11.6674467"><ele>410.5</ele><time>2026-04-26T07:48:26.016Z</time></trkpt><trkpt lat="45.7815845" lon="11.667359"><ele>409.0</ele><time>2026-04-26T07:48:27.021Z</time></trkpt><trkpt lat="45.7814819" lon="11.6672398"><ele>409.0</ele><time>2026-04-26T07:48:28.038Z</time></trkpt><trkpt lat="45.7813797" lon="11.6671086"><ele>409.0</ele><time>2026-04-26T07:48:29.03Z</time></trkpt><trkpt lat="45.7813" lon="11.666923"><ele>409.0</ele><time>2026-04-26T07:48:30.039Z</time></trkpt><trkpt lat="45.7811907" lon="11.6667609"><ele>409.0</ele><time>2026-04-26T07:48:31.014Z</time></trkpt><trkpt lat="45.7810839" lon="11.6666054"><ele>408.6666666666667</ele><time>2026-04-26T07:48:32.014Z</time></trkpt><trkpt lat="45.7809596" lon="11.6664585"><ele>408.33333333333337</ele><time>2026-04-26T07:48:33.016Z</time></trkpt><trkpt lat="45.7808537" lon="11.6663105"><ele>408.0</ele><time>2026-04-26T07:48:34.012Z</time></trkpt><trkpt lat="45.780747" lon="11.6661653"><ele>418.66666666666663</ele><time>2026-04-26T07:48:35.022Z</time></trkpt><trkpt lat="45.7806472" lon="11.6659998"><ele>429.3333333333333</ele><time>2026-04-26T07:48:36.031Z</time></trkpt><trkpt lat="45.7805561" lon="11.6658227"><ele>440.0</ele><time>2026-04-26T07:48:37.026Z</time></trkpt><trkpt lat="45.7804728" lon="11.665641"><ele>440.0</ele><time>2026-04-26T07:48:38.022Z</time></trkpt><trkpt lat="45.7804042" lon="11.6654595"><ele>440.0</ele><time>2026-04-26T07:48:39.027Z</time></trkpt><trkpt lat="45.7803394" lon="11.6652802"><ele>440.0</ele><time>2026-04-26T07:48:40.023Z</time></trkpt><trkpt lat="45.7802903" lon="11.6651025"><ele>440.0</ele><time>2026-04-26T07:48:41.026Z</time></trkpt><trkpt lat="45.7802357" lon="11.6649214"><ele>445.25</ele><time>2026-04-26T07:48:42.082Z</time></trkpt><trkpt lat="45.7801847" lon="11.6647305"><ele>450.5</ele><time>2026-04-26T07:48:43.056Z</time></trkpt><trkpt lat="45.7801472" lon="11.664527"><ele>455.75</ele><time>2026-04-26T07:48:44.017Z</time></trkpt><trkpt lat="45.7801091" lon="11.6643167"><ele>461.0</ele><time>2026-04-26T07:48:45.017Z</time></trkpt><trkpt lat="45.7800817" lon="11.6641091"><ele>449.75</ele><time>2026-04-26T07:48:46.037Z</time></trkpt><trkpt lat="45.7800663" lon="11.6639143"><ele>438.5</ele><time>2026-04-26T07:48:47.025Z</time></trkpt><trkpt lat="45.7800581" lon="11.6637264"><ele>427.25</ele><time>2026-04-26T07:48:48.02Z</time></trkpt><trkpt lat="45.7800566" lon="11.6635406"><ele>416.0</ele><time>2026-04-26T07:48:49.025Z</time></trkpt><trkpt lat="45.7800593" lon="11.6633531"><ele>416.0</ele><time>2026-04-26T07:48:50.02Z</time></trkpt><trkpt lat="45.7800881" lon="11.6631602"><ele>416.0</ele><time>2026-04-26T07:48:51.019Z</time></trkpt><trkpt lat="45.780136" lon="11.6629687"><ele>416.0</ele><time>2026-04-26T07:48:52.025Z</time></trkpt><trkpt lat="45.7801825" lon="11.6627753"><ele>416.0</ele><time>2026-04-26T07:48:53.019Z</time></trkpt><trkpt lat="45.780216" lon="11.6625924"><ele>429.25</ele><time>2026-04-26T07:48:54.028Z</time></trkpt><trkpt lat="45.7802518" lon="11.6624224"><ele>442.5</ele><time>2026-04-26T07:48:55.021Z</time></trkpt><trkpt lat="45.7802767" lon="11.6622531"><ele>455.75</ele><time>2026-04-26T07:48:56.028Z</time></trkpt><trkpt lat="45.7802778" lon="11.6620935"><ele>469.0</ele><time>2026-04-26T07:48:57.016Z</time></trkpt><trkpt lat="45.7802718" lon="11.6619435"><ele>469.00000000000006</ele><time>2026-04-26T07:48:58.014Z</time></trkpt><trkpt lat="45.7802515" lon="11.6618131"><ele>469.0</ele><time>2026-04-26T07:48:59.019Z</time></trkpt><trkpt lat="45.7802414" lon="11.6617004"><ele>469.0</ele><time>2026-04-26T07:49:00.031Z</time></trkpt><trkpt lat="45.7802407" lon="11.6616003"><ele>469.0</ele><time>2026-04-26T07:49:01.02Z</time></trkpt><trkpt lat="45.7802473" lon="11.6614464"><ele>469.00000000000006</ele><time>2026-04-26T07:49:03.014Z</time></trkpt><trkpt lat="45.7803109" lon="11.6613782"><ele>469.0</ele><time>2026-04-26T07:49:05.018Z</time></trkpt><trkpt lat="45.7803542" lon="11.6615235"><ele>469.0</ele><time>2026-04-26T07:49:07.039Z</time></trkpt><trkpt lat="45.7803681" lon="11.6616433"><ele>469.0</ele><time>2026-04-26T07:49:08.041Z</time></trkpt><trkpt lat="45.7803709" lon="11.6618114"><ele>469.0</ele><time>2026-04-26T07:49:09.03Z</time></trkpt><trkpt lat="45.7803756" lon="11.6620137"><ele>469.0</ele><time>2026-04-26T07:49:10.025Z</time></trkpt><trkpt lat="45.7803831" lon="11.662232"><ele>469.75</ele><time>2026-04-26T07:49:11.022Z</time></trkpt><trkpt lat="45.7803812" lon="11.6624477"><ele>470.5</ele><time>2026-04-26T07:49:12.039Z</time></trkpt><trkpt lat="45.7803747" lon="11.6626468"><ele>471.25</ele><time>2026-04-26T07:49:13.032Z</time></trkpt><trkpt lat="45.780363" lon="11.6628373"><ele>472.0</ele><time>2026-04-26T07:49:14.015Z</time></trkpt><trkpt lat="45.7803403" lon="11.6630264"><ele>473.25</ele><time>2026-04-26T07:49:15.02Z</time></trkpt><trkpt lat="45.7803198" lon="11.6632107"><ele>474.5</ele><time>2026-04-26T07:49:16.023Z</time></trkpt><trkpt lat="45.7803147" lon="11.6633956"><ele>475.75</ele><time>2026-04-26T07:49:17.022Z</time></trkpt><trkpt lat="45.7803341" lon="11.6635837"><ele>477.0</ele><time>2026-04-26T07:49:18.02Z</time></trkpt><trkpt lat="45.7803661" lon="11.6637678"><ele>477.0</ele><time>2026-04-26T07:49:19.023Z</time></trkpt><trkpt lat="45.7803998" lon="11.6639531"><ele>477.0</ele><time>2026-04-26T07:49:20.033Z</time></trkpt><trkpt lat="45.7804425" lon="11.6641404"><ele>477.0</ele><time>2026-04-26T07:49:21.044Z</time></trkpt><trkpt lat="45.7804942" lon="11.664327"><ele>477.0</ele><time>2026-04-26T07:49:22.027Z</time></trkpt><trkpt lat="45.7805301" lon="11.6645144"><ele>473.0</ele><time>2026-04-26T07:49:23.016Z</time></trkpt><trkpt lat="45.7805794" lon="11.6646894"><ele>469.0</ele><time>2026-04-26T07:49:24.011Z</time></trkpt><trkpt lat="45.7806257" lon="11.6648691"><ele>465.0</ele><time>2026-04-26T07:49:25.03Z</time></trkpt><trkpt lat="45.7806869" lon="11.6650435"><ele>461.0</ele><time>2026-04-26T07:49:26.033Z</time></trkpt><trkpt lat="45.7807438" lon="11.6652114"><ele>465.25</ele><time>2026-04-26T07:49:27.037Z</time></trkpt><trkpt lat="45.7808169" lon="11.665377"><ele>469.5</ele><time>2026-04-26T07:49:28.037Z</time></trkpt><trkpt lat="45.7809173" lon="11.6655101"><ele>473.75</ele><time>2026-04-26T07:49:29.036Z</time></trkpt><trkpt lat="45.7810023" lon="11.6656478"><ele>478.0</ele><time>2026-04-26T07:49:30.034Z</time></trkpt><trkpt lat="45.7810866" lon="11.6657817"><ele>478.0</ele><time>2026-04-26T07:49:31.028Z</time></trkpt><trkpt lat="45.7811983" lon="11.6658886"><ele>478.0</ele><time>2026-04-26T07:49:32.03Z</time></trkpt><trkpt lat="45.7813081" lon="11.666001"><ele>478.0</ele><time>2026-04-26T07:49:33.033Z</time></trkpt><trkpt lat="45.7814112" lon="11.6661131"><ele>478.0</ele><time>2026-04-26T07:49:34.047Z</time></trkpt><trkpt lat="45.7814996" lon="11.666225"><ele>472.79999999999995</ele><time>2026-04-26T07:49:35.028Z</time></trkpt><trkpt lat="45.7815792" lon="11.6663324"><ele>467.59999999999997</ele><time>2026-04-26T07:49:36.032Z</time></trkpt><trkpt lat="45.7816424" lon="11.6664416"><ele>462.40000000000003</ele><time>2026-04-26T07:49:37.035Z</time></trkpt><trkpt lat="45.7816984" lon="11.6665226"><ele>457.20000000000005</ele><time>2026-04-26T07:49:38.04Z</time></trkpt><trkpt lat="45.7817746" lon="11.6666246"><ele>452.0</ele><time>2026-04-26T07:49:40.03Z</time></trkpt><trkpt lat="45.7818358" lon="11.6666922"><ele>452.0</ele><time>2026-04-26T07:49:42.017Z</time></trkpt><trkpt lat="45.7818967" lon="11.6666454"><ele>452.00000000000006</ele><time>2026-04-26T07:49:44.024Z</time></trkpt><trkpt lat="45.7818918" lon="11.6664658"><ele>452.00000000000006</ele><time>2026-04-26T07:49:46.031Z</time></trkpt><trkpt lat="45.7818257" lon="11.6663535"><ele>452.0</ele><time>2026-04-26T07:49:47.022Z</time></trkpt><trkpt lat="45.7817357" lon="11.6662543"><ele>452.0</ele><time>2026-04-26T07:49:48.033Z</time></trkpt><trkpt lat="45.7816483" lon="11.6661389"><ele>458.5</ele><time>2026-04-26T07:49:49.017Z</time></trkpt><trkpt lat="45.7815617" lon="11.6660009"><ele>465.0</ele><time>2026-04-26T07:49:50.028Z</time></trkpt><trkpt lat="45.7814684" lon="11.6658695"><ele>471.5</ele><time>2026-04-26T07:49:51.039Z</time></trkpt><trkpt lat="45.781386" lon="11.6657236"><ele>478.0</ele><time>2026-04-26T07:49:52.036Z</time></trkpt><trkpt lat="45.7812906" lon="11.6655874"><ele>478.0</ele><time>2026-04-26T07:49:53.019Z</time></trkpt><trkpt lat="45.7811919" lon="11.6654593"><ele>478.0</ele><time>2026-04-26T07:49:54.02Z</time></trkpt><trkpt lat="45.7811125" lon="11.6653144"><ele>478.0</ele><time>2026-04-26T07:49:55.04Z</time></trkpt><trkpt lat="45.7810366" lon="11.6651729"><ele>478.0</ele><time>2026-04-26T07:49:56.021Z</time></trkpt><trkpt lat="45.7809848" lon="11.6650128"><ele>473.75</ele><time>2026-04-26T07:49:57.028Z</time></trkpt><trkpt lat="45.7809155" lon="11.6648867"><ele>469.5</ele><time>2026-04-26T07:49:58.034Z</time></trkpt><trkpt lat="45.7808672" lon="11.664744"><ele>465.25</ele><time>2026-04-26T07:49:59.019Z</time></trkpt><trkpt lat="45.7808035" lon="11.6646086"><ele>461.0</ele><time>2026-04-26T07:50:00.03Z</time></trkpt><trkpt lat="45.7807659" lon="11.6644548"><ele>465.0</ele><time>2026-04-26T07:50:01.04Z</time></trkpt><trkpt lat="45.7807571" lon="11.6642882"><ele>469.0</ele><time>2026-04-26T07:50:02.04Z</time></trkpt><trkpt lat="45.7807389" lon="11.6641254"><ele>473.0</ele><time>2026-04-26T07:50:03.028Z</time></trkpt><trkpt lat="45.7807198" lon="11.6639639"><ele>477.0</ele><time>2026-04-26T07:50:04.027Z</time></trkpt><trkpt lat="45.7807081" lon="11.6638026"><ele>477.0</ele><time>2026-04-26T07:50:05.016Z</time></trkpt><trkpt lat="45.7807007" lon="11.6636464"><ele>477.00000000000006</ele><time>2026-04-26T07:50:06.023Z</time></trkpt><trkpt lat="45.7806748" lon="11.6634986"><ele>477.00000000000006</ele><time>2026-04-26T07:50:07.03Z</time></trkpt><trkpt lat="45.7806834" lon="11.6633496"><ele>477.0</ele><time>2026-04-26T07:50:08.024Z</time></trkpt><trkpt lat="45.7807012" lon="11.6632004"><ele>477.0</ele><time>2026-04-26T07:50:09.039Z</time></trkpt><trkpt lat="45.7806987" lon="11.6630505"><ele>478.25</ele><time>2026-04-26T07:50:10.021Z</time></trkpt><trkpt lat="45.7807181" lon="11.6628948"><ele>479.5</ele><time>2026-04-26T07:50:11.034Z</time></trkpt><trkpt lat="45.7807506" lon="11.6627263"><ele>480.75</ele><time>2026-04-26T07:50:12.016Z</time></trkpt><trkpt lat="45.7808017" lon="11.6625454"><ele>482.0</ele><time>2026-04-26T07:50:13.027Z</time></trkpt><trkpt lat="45.7808528" lon="11.6623407"><ele>479.5</ele><time>2026-04-26T07:50:14.023Z</time></trkpt><trkpt lat="45.7808751" lon="11.6621255"><ele>477.0</ele><time>2026-04-26T07:50:15.021Z</time></trkpt><trkpt lat="45.7808772" lon="11.6619147"><ele>474.5</ele><time>2026-04-26T07:50:16.032Z</time></trkpt><trkpt lat="45.7808764" lon="11.6617123"><ele>472.0</ele><time>2026-04-26T07:50:17.015Z</time></trkpt><trkpt lat="45.7808951" lon="11.6615211"><ele>472.40000000000003</ele><time>2026-04-26T07:50:18.015Z</time></trkpt><trkpt lat="45.780909" lon="11.6613438"><ele>472.80000000000007</ele><time>2026-04-26T07:50:19.023Z</time></trkpt><trkpt lat="45.7809157" lon="11.6611808"><ele>473.2</ele><time>2026-04-26T07:50:20.021Z</time></trkpt><trkpt lat="45.780903" lon="11.6610314"><ele>473.6</ele><time>2026-04-26T07:50:21.029Z</time></trkpt><trkpt lat="45.7809045" lon="11.6608915"><ele>474.0</ele><time>2026-04-26T07:50:22.035Z</time></trkpt><trkpt lat="45.7809065" lon="11.6607569"><ele>474.0</ele><time>2026-04-26T07:50:23.022Z</time></trkpt><trkpt lat="45.7809241" lon="11.6606268"><ele>474.0</ele><time>2026-04-26T07:50:24.026Z</time></trkpt><trkpt lat="45.7809248" lon="11.6605041"><ele>474.0</ele><time>2026-04-26T07:50:25.024Z</time></trkpt><trkpt lat="45.7809165" lon="11.6603912"><ele>474.0</ele><time>2026-04-26T07:50:26.062Z</time></trkpt><trkpt lat="45.7809031" lon="11.6602886"><ele>474.0</ele><time>2026-04-26T07:50:27.013Z</time></trkpt><trkpt lat="45.7808927" lon="11.6601978"><ele>474.0</ele><time>2026-04-26T07:50:28.016Z</time></trkpt><trkpt lat="45.7808736" lon="11.660052"><ele>475.0</ele><time>2026-04-26T07:50:30.022Z</time></trkpt><trkpt lat="45.7808848" lon="11.6599379"><ele>476.0</ele><time>2026-04-26T07:50:32.025Z</time></trkpt><trkpt lat="45.7808711" lon="11.6598361"><ele>477.0</ele><time>2026-04-26T07:50:34.023Z</time></trkpt><trkpt lat="45.7809028" lon="11.6597479"><ele>478.0</ele><time>2026-04-26T07:50:36.022Z</time></trkpt><trkpt lat="45.7809732" lon="11.6597627"><ele>479.0</ele><time>2026-04-26T07:50:38.032Z</time></trkpt><trkpt lat="45.7809812" lon="11.6598854"><ele>480.0</ele><time>2026-04-26T07:50:39.021Z</time></trkpt><trkpt lat="45.7810002" lon="11.6600407"><ele>481.0</ele><time>2026-04-26T07:50:40.017Z</time></trkpt><trkpt lat="45.7810183" lon="11.6602163"><ele>482.0</ele><time>2026-04-26T07:50:41.021Z</time></trkpt><trkpt lat="45.7810448" lon="11.660377"><ele>483.0</ele><time>2026-04-26T07:50:42.012Z</time></trkpt><trkpt lat="45.7810498" lon="11.6605643"><ele>484.0</ele><time>2026-04-26T07:50:43.023Z</time></trkpt><trkpt lat="45.7810557" lon="11.6607127"><ele>486.00000000000006</ele><time>2026-04-26T07:50:44.039Z</time></trkpt><trkpt lat="45.7810678" lon="11.6608508"><ele>488.0</ele><time>2026-04-26T07:50:45.032Z</time></trkpt><trkpt lat="45.7810774" lon="11.6609764"><ele>490.0</ele><time>2026-04-26T07:50:46.036Z</time></trkpt><trkpt lat="45.7810926" lon="11.6610902"><ele>492.0</ele><time>2026-04-26T07:50:47.028Z</time></trkpt><trkpt lat="45.7811196" lon="11.6611927"><ele>494.00000000000006</ele><time>2026-04-26T07:50:48.031Z</time></trkpt><trkpt lat="45.7811531" lon="11.6612896"><ele>496.0</ele><time>2026-04-26T07:50:49.032Z</time></trkpt><trkpt lat="45.7811954" lon="11.6613734"><ele>498.25</ele><time>2026-04-26T07:50:50.018Z</time></trkpt><trkpt lat="45.7812322" lon="11.6614519"><ele>500.5</ele><time>2026-04-26T07:50:51.026Z</time></trkpt><trkpt lat="45.7812843" lon="11.6616165"><ele>502.75</ele><time>2026-04-26T07:50:53.01Z</time></trkpt><trkpt lat="45.7812948" lon="11.6617988"><ele>505.0</ele><time>2026-04-26T07:50:55.04Z</time></trkpt><trkpt lat="45.781276" lon="11.6619897"><ele>507.1666666666667</ele><time>2026-04-26T07:50:57.043Z</time></trkpt><trkpt lat="45.7812607" lon="11.6620905"><ele>509.33333333333337</ele><time>2026-04-26T07:50:58.037Z</time></trkpt><trkpt lat="45.781247" lon="11.6621933"><ele>511.5</ele><time>2026-04-26T07:50:59.052Z</time></trkpt><trkpt lat="45.7812236" lon="11.6622935"><ele>513.6666666666666</ele><time>2026-04-26T07:51:00.054Z</time></trkpt><trkpt lat="45.7812028" lon="11.6623851"><ele>515.8333333333333</ele><time>2026-04-26T07:51:01.033Z</time></trkpt><trkpt lat="45.7811684" lon="11.6625372"><ele>518.0</ele><time>2026-04-26T07:51:03.032Z</time></trkpt><trkpt lat="45.7811228" lon="11.662635"><ele>518.0</ele><time>2026-04-26T07:51:05.033Z</time></trkpt><trkpt lat="45.7811016" lon="11.6627282"><ele>518.0</ele><time>2026-04-26T07:51:07.031Z</time></trkpt><trkpt lat="45.7811159" lon="11.66284"><ele>518.0</ele><time>2026-04-26T07:51:09.028Z</time></trkpt><trkpt lat="45.7811647" lon="11.6629378"><ele>518.0</ele><time>2026-04-26T07:51:11.025Z</time></trkpt><trkpt lat="45.7812506" lon="11.6629429"><ele>518.0</ele><time>2026-04-26T07:51:13.065Z</time></trkpt><trkpt lat="45.7813268" lon="11.6627917"><ele>518.0</ele><time>2026-04-26T07:51:15.033Z</time></trkpt><trkpt lat="45.7813341" lon="11.6626354"><ele>518.0</ele><time>2026-04-26T07:51:16.033Z</time></trkpt><trkpt lat="45.7813624" lon="11.6624435"><ele>518.0</ele><time>2026-04-26T07:51:17.021Z</time></trkpt><trkpt lat="45.7813937" lon="11.6622722"><ele>518.0</ele><time>2026-04-26T07:51:18.029Z</time></trkpt><trkpt lat="45.7814391" lon="11.6621183"><ele>518.0</ele><time>2026-04-26T07:51:19.03Z</time></trkpt><trkpt lat="45.7815003" lon="11.6619786"><ele>515.4</ele><time>2026-04-26T07:51:20.031Z</time></trkpt><trkpt lat="45.7815737" lon="11.6618608"><ele>512.8</ele><time>2026-04-26T07:51:21.033Z</time></trkpt><trkpt lat="45.7816484" lon="11.6617434"><ele>510.2</ele><time>2026-04-26T07:51:22.031Z</time></trkpt><trkpt lat="45.7817373" lon="11.6616437"><ele>507.6</ele><time>2026-04-26T07:51:23.029Z</time></trkpt><trkpt lat="45.781819" lon="11.6615644"><ele>505.0</ele><time>2026-04-26T07:51:24.023Z</time></trkpt><trkpt lat="45.7818906" lon="11.6615008"><ele>506.85714285714283</ele><time>2026-04-26T07:51:25.021Z</time></trkpt><trkpt lat="45.7819409" lon="11.6614053"><ele>508.71428571428567</ele><time>2026-04-26T07:51:26.037Z</time></trkpt><trkpt lat="45.781984" lon="11.6613041"><ele>510.57142857142856</ele><time>2026-04-26T07:51:27.015Z</time></trkpt><trkpt lat="45.7820341" lon="11.6612129"><ele>512.4285714285714</ele><time>2026-04-26T07:51:28.031Z</time></trkpt><trkpt lat="45.7820764" lon="11.6611321"><ele>514.2857142857142</ele><time>2026-04-26T07:51:29.021Z</time></trkpt><trkpt lat="45.7821179" lon="11.661063"><ele>516.1428571428571</ele><time>2026-04-26T07:51:30.045Z</time></trkpt><trkpt lat="45.7821725" lon="11.6610052"><ele>518.0</ele><time>2026-04-26T07:51:31.036Z</time></trkpt><trkpt lat="45.7822355" lon="11.660958"><ele>518.0</ele><time>2026-04-26T07:51:32.043Z</time></trkpt><trkpt lat="45.7822966" lon="11.6609115"><ele>518.0</ele><time>2026-04-26T07:51:33.03Z</time></trkpt><trkpt lat="45.7823658" lon="11.6608466"><ele>518.0</ele><time>2026-04-26T07:51:34.037Z</time></trkpt><trkpt lat="45.782438" lon="11.6607764"><ele>518.0</ele><time>2026-04-26T07:51:35.022Z</time></trkpt><trkpt lat="45.7825139" lon="11.6607019"><ele>518.0</ele><time>2026-04-26T07:51:36.014Z</time></trkpt><trkpt lat="45.7825977" lon="11.6606152"><ele>518.0</ele><time>2026-04-26T07:51:37.018Z</time></trkpt><trkpt lat="45.782675" lon="11.6605139"><ele>518.6</ele><time>2026-04-26T07:51:38.024Z</time></trkpt><trkpt lat="45.7827505" lon="11.6604052"><ele>519.1999999999999</ele><time>2026-04-26T07:51:39.027Z</time></trkpt><trkpt lat="45.7828348" lon="11.6603199"><ele>519.8</ele><time>2026-04-26T07:51:40.036Z</time></trkpt><trkpt lat="45.7829217" lon="11.6602392"><ele>520.4</ele><time>2026-04-26T07:51:41.019Z</time></trkpt><trkpt lat="45.7830154" lon="11.6601675"><ele>521.0</ele><time>2026-04-26T07:51:42.027Z</time></trkpt><trkpt lat="45.7831068" lon="11.6601037"><ele>521.0</ele><time>2026-04-26T07:51:43.017Z</time></trkpt><trkpt lat="45.7831865" lon="11.6600345"><ele>521.0</ele><time>2026-04-26T07:51:44.039Z</time></trkpt><trkpt lat="45.7832526" lon="11.6599569"><ele>521.0</ele><time>2026-04-26T07:51:45.027Z</time></trkpt><trkpt lat="45.783313" lon="11.6598735"><ele>521.0</ele><time>2026-04-26T07:51:46.034Z</time></trkpt><trkpt lat="45.783378" lon="11.6597938"><ele>521.0</ele><time>2026-04-26T07:51:47.023Z</time></trkpt><trkpt lat="45.7834354" lon="11.659722"><ele>521.0</ele><time>2026-04-26T07:51:48.029Z</time></trkpt><trkpt lat="45.7834822" lon="11.6596504"><ele>520.7142857142857</ele><time>2026-04-26T07:51:49.031Z</time></trkpt><trkpt lat="45.7835487" lon="11.6595899"><ele>520.4285714285714</ele><time>2026-04-26T07:51:50.017Z</time></trkpt><trkpt lat="45.7836191" lon="11.6595289"><ele>520.1428571428571</ele><time>2026-04-26T07:51:51.037Z</time></trkpt><trkpt lat="45.7836908" lon="11.6594849"><ele>519.8571428571429</ele><time>2026-04-26T07:51:52.022Z</time></trkpt><trkpt lat="45.7837548" lon="11.6594494"><ele>519.5714285714286</ele><time>2026-04-26T07:51:53.033Z</time></trkpt><trkpt lat="45.7838194" lon="11.6594298"><ele>519.2857142857142</ele><time>2026-04-26T07:51:54.018Z</time></trkpt><trkpt lat="45.7838858" lon="11.6594293"><ele>519.0</ele><time>2026-04-26T07:51:55.021Z</time></trkpt><trkpt lat="45.7839517" lon="11.6594483"><ele>522.2</ele><time>2026-04-26T07:51:56.029Z</time></trkpt><trkpt lat="45.7840194" lon="11.6594981"><ele>525.4</ele><time>2026-04-26T07:51:57.029Z</time></trkpt><trkpt lat="45.7840838" lon="11.6595826"><ele>528.6</ele><time>2026-04-26T07:51:58.035Z</time></trkpt><trkpt lat="45.7841582" lon="11.659669"><ele>531.8</ele><time>2026-04-26T07:51:59.036Z</time></trkpt><trkpt lat="45.7842465" lon="11.6597192"><ele>535.0</ele><time>2026-04-26T07:52:00.02Z</time></trkpt><trkpt lat="45.7843359" lon="11.6597822"><ele>532.0</ele><time>2026-04-26T07:52:01.039Z</time></trkpt><trkpt lat="45.7844217" lon="11.6598626"><ele>529.0</ele><time>2026-04-26T07:52:02.019Z</time></trkpt><trkpt lat="45.7845052" lon="11.6599555"><ele>526.0</ele><time>2026-04-26T07:52:03.026Z</time></trkpt><trkpt lat="45.7845873" lon="11.6600418"><ele>523.0</ele><time>2026-04-26T07:52:04.038Z</time></trkpt><trkpt lat="45.7846687" lon="11.6601393"><ele>520.0</ele><time>2026-04-26T07:52:05.032Z</time></trkpt><trkpt lat="45.7847417" lon="11.6602669"><ele>524.25</ele><time>2026-04-26T07:52:06.027Z</time></trkpt><trkpt lat="45.7848041" lon="11.6604118"><ele>528.5</ele><time>2026-04-26T07:52:07.03Z</time></trkpt><trkpt lat="45.7848685" lon="11.6605692"><ele>532.75</ele><time>2026-04-26T07:52:08.014Z</time></trkpt><trkpt lat="45.7849233" lon="11.6607303"><ele>537.0</ele><time>2026-04-26T07:52:09.027Z</time></trkpt><trkpt lat="45.7849684" lon="11.6608747"><ele>537.0</ele><time>2026-04-26T07:52:10.024Z</time></trkpt><trkpt lat="45.7850267" lon="11.6609931"><ele>537.0</ele><time>2026-04-26T07:52:11.021Z</time></trkpt><trkpt lat="45.7850816" lon="11.661106"><ele>537.0</ele><time>2026-04-26T07:52:12.033Z</time></trkpt><trkpt lat="45.7851437" lon="11.6612196"><ele>537.0</ele><time>2026-04-26T07:52:13.029Z</time></trkpt><trkpt lat="45.7852267" lon="11.6613059"><ele>537.0</ele><time>2026-04-26T07:52:14.012Z</time></trkpt><trkpt lat="45.7853235" lon="11.6613644"><ele>543.5</ele><time>2026-04-26T07:52:15.04Z</time></trkpt><trkpt lat="45.7854315" lon="11.6613946"><ele>550.0</ele><time>2026-04-26T07:52:16.022Z</time></trkpt><trkpt lat="45.7855487" lon="11.6613719"><ele>556.5</ele><time>2026-04-26T07:52:17.027Z</time></trkpt><trkpt lat="45.7856734" lon="11.6613228"><ele>563.0</ele><time>2026-04-26T07:52:18.022Z</time></trkpt><trkpt lat="45.7857958" lon="11.6612824"><ele>563.0</ele><time>2026-04-26T07:52:19.027Z</time></trkpt><trkpt lat="45.7859042" lon="11.6612403"><ele>563.0</ele><time>2026-04-26T07:52:20.038Z</time></trkpt><trkpt lat="45.7860009" lon="11.6611985"><ele>563.0</ele><time>2026-04-26T07:52:21.037Z</time></trkpt><trkpt lat="45.7860954" lon="11.6611163"><ele>563.0</ele><time>2026-04-26T07:52:22.027Z</time></trkpt><trkpt lat="45.7861922" lon="11.6610138"><ele>563.0</ele><time>2026-04-26T07:52:23.03Z</time></trkpt><trkpt lat="45.786296" lon="11.6608903"><ele>565.5</ele><time>2026-04-26T07:52:24.036Z</time></trkpt><trkpt lat="45.7864068" lon="11.6607803"><ele>568.0</ele><time>2026-04-26T07:52:25.028Z</time></trkpt><trkpt lat="45.7865182" lon="11.6606661"><ele>570.5</ele><time>2026-04-26T07:52:26.036Z</time></trkpt><trkpt lat="45.786628" lon="11.6605629"><ele>573.0</ele><time>2026-04-26T07:52:27.037Z</time></trkpt><trkpt lat="45.7867367" lon="11.6604633"><ele>573.0</ele><time>2026-04-26T07:52:28.026Z</time></trkpt><trkpt lat="45.7868272" lon="11.6603717"><ele>573.0</ele><time>2026-04-26T07:52:29.024Z</time></trkpt><trkpt lat="45.7869039" lon="11.6602569"><ele>573.0</ele><time>2026-04-26T07:52:30.03Z</time></trkpt><trkpt lat="45.7869799" lon="11.6601531"><ele>573.0</ele><time>2026-04-26T07:52:31.021Z</time></trkpt><trkpt lat="45.7870417" lon="11.6600549"><ele>573.0</ele><time>2026-04-26T07:52:32.027Z</time></trkpt><trkpt lat="45.787105" lon="11.6599778"><ele>574.1666666666666</ele><time>2026-04-26T07:52:33.023Z</time></trkpt><trkpt lat="45.787168" lon="11.6599215"><ele>575.3333333333334</ele><time>2026-04-26T07:52:34.023Z</time></trkpt><trkpt lat="45.787229" lon="11.6598904"><ele>576.5</ele><time>2026-04-26T07:52:35.026Z</time></trkpt><trkpt lat="45.7873138" lon="11.6598321"><ele>577.6666666666667</ele><time>2026-04-26T07:52:37.03Z</time></trkpt><trkpt lat="45.7873752" lon="11.659721"><ele>578.8333333333334</ele><time>2026-04-26T07:52:39.025Z</time></trkpt><trkpt lat="45.7874203" lon="11.6595682"><ele>580.0</ele><time>2026-04-26T07:52:41.019Z</time></trkpt><trkpt lat="45.7874487" lon="11.6594662"><ele>583.0</ele><time>2026-04-26T07:52:42.04Z</time></trkpt><trkpt lat="45.7874852" lon="11.6593584"><ele>586.0</ele><time>2026-04-26T07:52:43.012Z</time></trkpt><trkpt lat="45.7875261" lon="11.6592524"><ele>589.0</ele><time>2026-04-26T07:52:44.013Z</time></trkpt><trkpt lat="45.7875895" lon="11.6591507"><ele>592.0</ele><time>2026-04-26T07:52:45.017Z</time></trkpt><trkpt lat="45.7876712" lon="11.6590707"><ele>595.0</ele><time>2026-04-26T07:52:46.013Z</time></trkpt><trkpt lat="45.7877614" lon="11.6590077"><ele>595.0</ele><time>2026-04-26T07:52:47.037Z</time></trkpt><trkpt lat="45.7878517" lon="11.6589581"><ele>595.0</ele><time>2026-04-26T07:52:48.011Z</time></trkpt><trkpt lat="45.7879367" lon="11.658921"><ele>595.0</ele><time>2026-04-26T07:52:49.025Z</time></trkpt><trkpt lat="45.788006" lon="11.6588854"><ele>595.0</ele><time>2026-04-26T07:52:50.013Z</time></trkpt><trkpt lat="45.7880605" lon="11.6587922"><ele>595.0</ele><time>2026-04-26T07:52:51.02Z</time></trkpt><trkpt lat="45.7880846" lon="11.6586376"><ele>590.4</ele><time>2026-04-26T07:52:52.025Z</time></trkpt><trkpt lat="45.7880834" lon="11.6584937"><ele>585.8</ele><time>2026-04-26T07:52:53.016Z</time></trkpt><trkpt lat="45.7881045" lon="11.6583638"><ele>581.2</ele><time>2026-04-26T07:52:54.027Z</time></trkpt><trkpt lat="45.7881331" lon="11.65823"><ele>576.6</ele><time>2026-04-26T07:52:55.019Z</time></trkpt><trkpt lat="45.7881805" lon="11.6581075"><ele>572.0</ele><time>2026-04-26T07:52:56.015Z</time></trkpt><trkpt lat="45.7882542" lon="11.6580151"><ele>572.0</ele><time>2026-04-26T07:52:57.018Z</time></trkpt><trkpt lat="45.788348" lon="11.6579638"><ele>572.0</ele><time>2026-04-26T07:52:58.018Z</time></trkpt><trkpt lat="45.7884388" lon="11.6579404"><ele>572.0</ele><time>2026-04-26T07:52:59.022Z</time></trkpt><trkpt lat="45.7885226" lon="11.6579127"><ele>572.0</ele><time>2026-04-26T07:53:00.038Z</time></trkpt><trkpt lat="45.7885983" lon="11.6578915"><ele>572.0</ele><time>2026-04-26T07:53:01.017Z</time></trkpt><trkpt lat="45.788703" lon="11.6577928"><ele>577.4</ele><time>2026-04-26T07:53:03.014Z</time></trkpt><trkpt lat="45.7887421" lon="11.6576794"><ele>582.8000000000001</ele><time>2026-04-26T07:53:04.023Z</time></trkpt><trkpt lat="45.7887715" lon="11.6575464"><ele>588.2</ele><time>2026-04-26T07:53:05.018Z</time></trkpt><trkpt lat="45.7887753" lon="11.6574028"><ele>593.6</ele><time>2026-04-26T07:53:06.023Z</time></trkpt><trkpt lat="45.7887849" lon="11.6572649"><ele>599.0</ele><time>2026-04-26T07:53:07.018Z</time></trkpt><trkpt lat="45.7888007" lon="11.6571246"><ele>599.0</ele><time>2026-04-26T07:53:08.027Z</time></trkpt><trkpt lat="45.7888377" lon="11.6569871"><ele>599.0</ele><time>2026-04-26T07:53:09.023Z</time></trkpt><trkpt lat="45.7888987" lon="11.6568652"><ele>599.0</ele><time>2026-04-26T07:53:10.034Z</time></trkpt><trkpt lat="45.7889641" lon="11.6567623"><ele>599.0</ele><time>2026-04-26T07:53:11.036Z</time></trkpt><trkpt lat="45.7890094" lon="11.6566346"><ele>599.0</ele><time>2026-04-26T07:53:12.054Z</time></trkpt><trkpt lat="45.78902" lon="11.6564845"><ele>598.0</ele><time>2026-04-26T07:53:13.033Z</time></trkpt><trkpt lat="45.7890086" lon="11.6563307"><ele>597.0</ele><time>2026-04-26T07:53:14.028Z</time></trkpt><trkpt lat="45.7890127" lon="11.6561743"><ele>596.0</ele><time>2026-04-26T07:53:15.026Z</time></trkpt><trkpt lat="45.7890198" lon="11.6560203"><ele>595.0</ele><time>2026-04-26T07:53:16.012Z</time></trkpt><trkpt lat="45.7890122" lon="11.6558672"><ele>594.0</ele><time>2026-04-26T07:53:17.034Z</time></trkpt><trkpt lat="45.7890236" lon="11.6557134"><ele>592.0</ele><time>2026-04-26T07:53:18.03Z</time></trkpt><trkpt lat="45.7890447" lon="11.6555637"><ele>590.0</ele><time>2026-04-26T07:53:19.021Z</time></trkpt><trkpt lat="45.7890648" lon="11.6554176"><ele>588.0</ele><time>2026-04-26T07:53:20.033Z</time></trkpt><trkpt lat="45.7890987" lon="11.6552775"><ele>586.0</ele><time>2026-04-26T07:53:21.014Z</time></trkpt><trkpt lat="45.7891499" lon="11.6551506"><ele>584.0</ele><time>2026-04-26T07:53:22.026Z</time></trkpt><trkpt lat="45.789212" lon="11.6550328"><ele>583.4</ele><time>2026-04-26T07:53:23.046Z</time></trkpt><trkpt lat="45.789278" lon="11.6549196"><ele>582.8</ele><time>2026-04-26T07:53:24.019Z</time></trkpt><trkpt lat="45.7893472" lon="11.6548058"><ele>582.2</ele><time>2026-04-26T07:53:25.045Z</time></trkpt><trkpt lat="45.7894187" lon="11.6546923"><ele>581.6</ele><time>2026-04-26T07:53:26.031Z</time></trkpt><trkpt lat="45.7894812" lon="11.6545794"><ele>581.0</ele><time>2026-04-26T07:53:27.029Z</time></trkpt><trkpt lat="45.7895445" lon="11.654479"><ele>582.6666666666666</ele><time>2026-04-26T07:53:28.032Z</time></trkpt><trkpt lat="45.7896023" lon="11.6543919"><ele>584.3333333333333</ele><time>2026-04-26T07:53:29.013Z</time></trkpt><trkpt lat="45.7896634" lon="11.6543222"><ele>586.0</ele><time>2026-04-26T07:53:30.03Z</time></trkpt><trkpt lat="45.7897337" lon="11.6542666"><ele>587.6666666666666</ele><time>2026-04-26T07:53:31.033Z</time></trkpt><trkpt lat="45.7898159" lon="11.6542291"><ele>589.3333333333334</ele><time>2026-04-26T07:53:32.025Z</time></trkpt><trkpt lat="45.7899046" lon="11.6542154"><ele>591.0</ele><time>2026-04-26T07:53:33.043Z</time></trkpt><trkpt lat="45.7899902" lon="11.6542193"><ele>591.0</ele><time>2026-04-26T07:53:34.03Z</time></trkpt><trkpt lat="45.7900734" lon="11.6542694"><ele>591.0</ele><time>2026-04-26T07:53:35.043Z</time></trkpt><trkpt lat="45.7901585" lon="11.6543332"><ele>591.0</ele><time>2026-04-26T07:53:36.031Z</time></trkpt><trkpt lat="45.7902411" lon="11.6544019"><ele>591.0</ele><time>2026-04-26T07:53:37.023Z</time></trkpt><trkpt lat="45.7903142" lon="11.6544722"><ele>591.0</ele><time>2026-04-26T07:53:38.016Z</time></trkpt><trkpt lat="45.790389" lon="11.6545253"><ele>594.1666666666666</ele><time>2026-04-26T07:53:39.023Z</time></trkpt><trkpt lat="45.790464" lon="11.6545583"><ele>597.3333333333334</ele><time>2026-04-26T07:53:40.04Z</time></trkpt><trkpt lat="45.7905368" lon="11.654568"><ele>600.5</ele><time>2026-04-26T07:53:41.026Z</time></trkpt><trkpt lat="45.7906064" lon="11.6545445"><ele>603.6666666666667</ele><time>2026-04-26T07:53:42.02Z</time></trkpt><trkpt lat="45.7906674" lon="11.6544813"><ele>606.8333333333334</ele><time>2026-04-26T07:53:43.012Z</time></trkpt><trkpt lat="45.7907162" lon="11.6543813"><ele>610.0</ele><time>2026-04-26T07:53:44.02Z</time></trkpt><trkpt lat="45.790742" lon="11.6542517"><ele>610.0</ele><time>2026-04-26T07:53:45.018Z</time></trkpt><trkpt lat="45.7907204" lon="11.6540903"><ele>610.0</ele><time>2026-04-26T07:53:46.036Z</time></trkpt><trkpt lat="45.7906539" lon="11.6538981"><ele>610.0</ele><time>2026-04-26T07:53:47.032Z</time></trkpt><trkpt lat="45.7905718" lon="11.6536391"><ele>613.5</ele><time>2026-04-26T07:53:48.02Z</time></trkpt><trkpt lat="45.7904994" lon="11.6533152"><ele>617.0</ele><time>2026-04-26T07:53:49.023Z</time></trkpt><trkpt lat="45.7904329" lon="11.6529268"><ele>623.5</ele><time>2026-04-26T07:53:50.016Z</time></trkpt><trkpt lat="45.7903707" lon="11.6525391"><ele>630.0</ele><time>2026-04-26T07:53:51.027Z</time></trkpt><trkpt lat="45.790325" lon="11.6521786"><ele>637.0</ele><time>2026-04-26T07:53:52.015Z</time></trkpt><trkpt lat="45.7902579" lon="11.6518593"><ele>644.0</ele><time>2026-04-26T07:53:53.029Z</time></trkpt><trkpt lat="45.7901947" lon="11.6515589"><ele>634.6666666666666</ele><time>2026-04-26T07:53:54.012Z</time></trkpt><trkpt lat="45.790126" lon="11.6512695"><ele>625.3333333333334</ele><time>2026-04-26T07:53:55.021Z</time></trkpt><trkpt lat="45.7900797" lon="11.6509743"><ele>616.0</ele><time>2026-04-26T07:53:56.016Z</time></trkpt><trkpt lat="45.7900521" lon="11.6507003"><ele>616.0</ele><time>2026-04-26T07:53:57.02Z</time></trkpt><trkpt lat="45.7900051" lon="11.6504617"><ele>616.0</ele><time>2026-04-26T07:53:58.019Z</time></trkpt><trkpt lat="45.7899812" lon="11.6502682"><ele>616.0</ele><time>2026-04-26T07:53:59.026Z</time></trkpt><trkpt lat="45.7899618" lon="11.6501301"><ele>616.0</ele><time>2026-04-26T07:54:00.031Z</time></trkpt><trkpt lat="45.7899593" lon="11.6500358"><ele>617.2</ele><time>2026-04-26T07:54:01.027Z</time></trkpt><trkpt lat="45.7900419" lon="11.6499555"><ele>618.4000000000001</ele><time>2026-04-26T07:54:03.02Z</time></trkpt><trkpt lat="45.7901016" lon="11.6499897"><ele>619.6</ele><time>2026-04-26T07:54:04.014Z</time></trkpt><trkpt lat="45.7901559" lon="11.6500712"><ele>620.8000000000001</ele><time>2026-04-26T07:54:05.026Z</time></trkpt><trkpt lat="45.7901828" lon="11.6502586"><ele>622.0</ele><time>2026-04-26T07:54:06.034Z</time></trkpt><trkpt lat="45.7901863" lon="11.6504912"><ele>629.3333333333334</ele><time>2026-04-26T07:54:07.037Z</time></trkpt><trkpt lat="45.7902185" lon="11.6507703"><ele>636.6666666666666</ele><time>2026-04-26T07:54:08.04Z</time></trkpt><trkpt lat="45.7902871" lon="11.6510335"><ele>644.0</ele><time>2026-04-26T07:54:09.037Z</time></trkpt><trkpt lat="45.7903854" lon="11.6512708"><ele>644.0</ele><time>2026-04-26T07:54:10.022Z</time></trkpt><trkpt lat="45.7904596" lon="11.651499"><ele>644.0</ele><time>2026-04-26T07:54:11.04Z</time></trkpt><trkpt lat="45.7905012" lon="11.6517121"><ele>644.0</ele><time>2026-04-26T07:54:12.027Z</time></trkpt><trkpt lat="45.7905525" lon="11.6518933"><ele>644.0</ele><time>2026-04-26T07:54:13.023Z</time></trkpt><trkpt lat="45.7905994" lon="11.652024"><ele>644.0</ele><time>2026-04-26T07:54:14.04Z</time></trkpt><trkpt lat="45.7906624" lon="11.6520982"><ele>644.0</ele><time>2026-04-26T07:54:15.036Z</time></trkpt><trkpt lat="45.7907709" lon="11.6521196"><ele>644.0</ele><time>2026-04-26T07:54:17.021Z</time></trkpt><trkpt lat="45.7907827" lon="11.6520146"><ele>644.0</ele><time>2026-04-26T07:54:18.028Z</time></trkpt><trkpt lat="45.7907541" lon="11.6518635"><ele>644.0</ele><time>2026-04-26T07:54:19.018Z</time></trkpt><trkpt lat="45.7906706" lon="11.6516861"><ele>644.0</ele><time>2026-04-26T07:54:20.011Z</time></trkpt><trkpt lat="45.7905868" lon="11.6514541"><ele>644.0</ele><time>2026-04-26T07:54:21.024Z</time></trkpt><trkpt lat="45.7905098" lon="11.6511538"><ele>651.0</ele><time>2026-04-26T07:54:22.031Z</time></trkpt><trkpt lat="45.7904418" lon="11.6508309"><ele>658.0</ele><time>2026-04-26T07:54:23.032Z</time></trkpt><trkpt lat="45.7903889" lon="11.6505308"><ele>662.0</ele><time>2026-04-26T07:54:24.017Z</time></trkpt><trkpt lat="45.7903362" lon="11.6502545"><ele>666.0</ele><time>2026-04-26T07:54:25.036Z</time></trkpt><trkpt lat="45.7902943" lon="11.6499801"><ele>670.0</ele><time>2026-04-26T07:54:26.028Z</time></trkpt><trkpt lat="45.7902752" lon="11.6497018"><ele>673.6666666666667</ele><time>2026-04-26T07:54:27.034Z</time></trkpt><trkpt lat="45.790257" lon="11.6494171"><ele>677.3333333333334</ele><time>2026-04-26T07:54:28.028Z</time></trkpt><trkpt lat="45.7901814" lon="11.6491328"><ele>681.0</ele><time>2026-04-26T07:54:29.035Z</time></trkpt><trkpt lat="45.790102" lon="11.648853"><ele>674.3333333333334</ele><time>2026-04-26T07:54:30.03Z</time></trkpt><trkpt lat="45.7899899" lon="11.6485887"><ele>667.6666666666667</ele><time>2026-04-26T07:54:31.029Z</time></trkpt><trkpt lat="45.7898743" lon="11.6483407"><ele>661.0</ele><time>2026-04-26T07:54:32.045Z</time></trkpt><trkpt lat="45.7897582" lon="11.6481255"><ele>661.0</ele><time>2026-04-26T07:54:33.024Z</time></trkpt><trkpt lat="45.7896517" lon="11.6479572"><ele>661.0</ele><time>2026-04-26T07:54:34.034Z</time></trkpt><trkpt lat="45.7895557" lon="11.6478508"><ele>661.0</ele><time>2026-04-26T07:54:35.032Z</time></trkpt><trkpt lat="45.7894949" lon="11.6477674"><ele>661.0</ele><time>2026-04-26T07:54:36.032Z</time></trkpt><trkpt lat="45.78948" lon="11.6476049"><ele>661.0</ele><time>2026-04-26T07:54:39.035Z</time></trkpt><trkpt lat="45.7896241" lon="11.6476052"><ele>661.0</ele><time>2026-04-26T07:54:41.04Z</time></trkpt><trkpt lat="45.7897175" lon="11.6477418"><ele>661.0</ele><time>2026-04-26T07:54:42.028Z</time></trkpt><trkpt lat="45.7898253" lon="11.6479772"><ele>661.0</ele><time>2026-04-26T07:54:43.033Z</time></trkpt><trkpt lat="45.7899342" lon="11.6481572"><ele>661.0</ele><time>2026-04-26T07:54:44.041Z</time></trkpt><trkpt lat="45.7900471" lon="11.6483431"><ele>661.0</ele><time>2026-04-26T07:54:45.033Z</time></trkpt><trkpt lat="45.7901451" lon="11.6485158"><ele>665.0</ele><time>2026-04-26T07:54:46.046Z</time></trkpt><trkpt lat="45.7902186" lon="11.6486677"><ele>669.0</ele><time>2026-04-26T07:54:47.039Z</time></trkpt><trkpt lat="45.7902749" lon="11.6487931"><ele>673.0</ele><time>2026-04-26T07:54:48.029Z</time></trkpt><trkpt lat="45.7903341" lon="11.6488699"><ele>677.0</ele><time>2026-04-26T07:54:49.033Z</time></trkpt><trkpt lat="45.7904405" lon="11.6488029"><ele>681.0</ele><time>2026-04-26T07:54:51.015Z</time></trkpt><trkpt lat="45.7904435" lon="11.6486806"><ele>687.6666666666666</ele><time>2026-04-26T07:54:52.014Z</time></trkpt><trkpt lat="45.7903894" lon="11.648547"><ele>694.3333333333333</ele><time>2026-04-26T07:54:53.012Z</time></trkpt><trkpt lat="45.7902832" lon="11.6483847"><ele>701.0</ele><time>2026-04-26T07:54:54.016Z</time></trkpt><trkpt lat="45.7901685" lon="11.6481735"><ele>695.6666666666666</ele><time>2026-04-26T07:54:55.013Z</time></trkpt><trkpt lat="45.7900376" lon="11.6479344"><ele>690.3333333333334</ele><time>2026-04-26T07:54:56.025Z</time></trkpt><trkpt lat="45.7899021" lon="11.6476998"><ele>685.0</ele><time>2026-04-26T07:54:57.013Z</time></trkpt><trkpt lat="45.7897742" lon="11.6474636"><ele>685.0</ele><time>2026-04-26T07:54:58.013Z</time></trkpt><trkpt lat="45.7896509" lon="11.6472393"><ele>685.0</ele><time>2026-04-26T07:54:59.029Z</time></trkpt><trkpt lat="45.7895385" lon="11.6469936"><ele>685.0</ele><time>2026-04-26T07:55:00.039Z</time></trkpt><trkpt lat="45.7893983" lon="11.6467808"><ele>682.6666666666667</ele><time>2026-04-26T07:55:01.028Z</time></trkpt><trkpt lat="45.7892416" lon="11.6465986"><ele>680.3333333333334</ele><time>2026-04-26T07:55:02.033Z</time></trkpt><trkpt lat="45.7890747" lon="11.6464189"><ele>678.0</ele><time>2026-04-26T07:55:03.015Z</time></trkpt><trkpt lat="45.788896" lon="11.6462407"><ele>680.5</ele><time>2026-04-26T07:55:04.011Z</time></trkpt><trkpt lat="45.7887051" lon="11.6460477"><ele>683.0</ele><time>2026-04-26T07:55:05.021Z</time></trkpt><trkpt lat="45.7885055" lon="11.6458712"><ele>683.0</ele><time>2026-04-26T07:55:06.031Z</time></trkpt><trkpt lat="45.7883166" lon="11.6457021"><ele>683.0</ele><time>2026-04-26T07:55:07.014Z</time></trkpt><trkpt lat="45.7881488" lon="11.645533"><ele>683.0</ele><time>2026-04-26T07:55:08.019Z</time></trkpt><trkpt lat="45.7880017" lon="11.6453587"><ele>683.0</ele><time>2026-04-26T07:55:09.036Z</time></trkpt><trkpt lat="45.7878568" lon="11.6452068"><ele>683.0</ele><time>2026-04-26T07:55:10.013Z</time></trkpt><trkpt lat="45.7877176" lon="11.6450639"><ele>683.0</ele><time>2026-04-26T07:55:11.031Z</time></trkpt><trkpt lat="45.7876036" lon="11.6448984"><ele>683.0</ele><time>2026-04-26T07:55:12.021Z</time></trkpt><trkpt lat="45.7875156" lon="11.6447331"><ele>683.0</ele><time>2026-04-26T07:55:13.02Z</time></trkpt><trkpt lat="45.7874234" lon="11.6446051"><ele>683.0</ele><time>2026-04-26T07:55:14.018Z</time></trkpt><trkpt lat="45.7873545" lon="11.644461"><ele>683.0</ele><time>2026-04-26T07:55:15.016Z</time></trkpt><trkpt lat="45.7873002" lon="11.6443005"><ele>689.3333333333333</ele><time>2026-04-26T07:55:16.027Z</time></trkpt><trkpt lat="45.7872813" lon="11.6440987"><ele>695.6666666666666</ele><time>2026-04-26T07:55:17.029Z</time></trkpt><trkpt lat="45.7873004" lon="11.6438223"><ele>702.0</ele><time>2026-04-26T07:55:18.017Z</time></trkpt><trkpt lat="45.7872701" lon="11.6435407"><ele>705.3333333333334</ele><time>2026-04-26T07:55:19.035Z</time></trkpt><trkpt lat="45.7872465" lon="11.6432315"><ele>708.6666666666667</ele><time>2026-04-26T07:55:20.025Z</time></trkpt><trkpt lat="45.7872726" lon="11.6429285"><ele>712.0</ele><time>2026-04-26T07:55:21.03Z</time></trkpt><trkpt lat="45.7872326" lon="11.6426542"><ele>715.0</ele><time>2026-04-26T07:55:22.029Z</time></trkpt><trkpt lat="45.7871888" lon="11.6423699"><ele>718.0</ele><time>2026-04-26T07:55:23.018Z</time></trkpt><trkpt lat="45.7871283" lon="11.6420854"><ele>721.0</ele><time>2026-04-26T07:55:24.018Z</time></trkpt><trkpt lat="45.7870796" lon="11.6417803"><ele>725.3333333333334</ele><time>2026-04-26T07:55:25.017Z</time></trkpt><trkpt lat="45.7870175" lon="11.6414862"><ele>729.6666666666666</ele><time>2026-04-26T07:55:26.015Z</time></trkpt><trkpt lat="45.7869382" lon="11.6412231"><ele>734.0</ele><time>2026-04-26T07:55:27.032Z</time></trkpt><trkpt lat="45.7868488" lon="11.6409859"><ele>734.0</ele><time>2026-04-26T07:55:28.026Z</time></trkpt><trkpt lat="45.7867486" lon="11.6407478"><ele>734.0</ele><time>2026-04-26T07:55:29.02Z</time></trkpt><trkpt lat="45.7866266" lon="11.6405183"><ele>734.0</ele><time>2026-04-26T07:55:30.016Z</time></trkpt><trkpt lat="45.7865322" lon="11.6402749"><ele>734.0</ele><time>2026-04-26T07:55:31.02Z</time></trkpt><trkpt lat="45.7864335" lon="11.6400535"><ele>734.0</ele><time>2026-04-26T07:55:32.01Z</time></trkpt><trkpt lat="45.7863026" lon="11.6398751"><ele>734.0</ele><time>2026-04-26T07:55:33.032Z</time></trkpt><trkpt lat="45.7861966" lon="11.6397012"><ele>734.0</ele><time>2026-04-26T07:55:34.027Z</time></trkpt><trkpt lat="45.7861124" lon="11.6395488"><ele>734.0</ele><time>2026-04-26T07:55:35.029Z</time></trkpt><trkpt lat="45.786068" lon="11.6393935"><ele>734.0</ele><time>2026-04-26T07:55:36.03Z</time></trkpt><trkpt lat="45.7860771" lon="11.6392137"><ele>734.0</ele><time>2026-04-26T07:55:37.015Z</time></trkpt><trkpt lat="45.7860836" lon="11.6390546"><ele>732.25</ele><time>2026-04-26T07:55:38.017Z</time></trkpt><trkpt lat="45.7860934" lon="11.6389191"><ele>730.5</ele><time>2026-04-26T07:55:39.024Z</time></trkpt><trkpt lat="45.7860439" lon="11.6388184"><ele>728.75</ele><time>2026-04-26T07:55:40.027Z</time></trkpt><trkpt lat="45.7859503" lon="11.638736"><ele>727.0</ele><time>2026-04-26T07:55:41.039Z</time></trkpt><trkpt lat="45.78582" lon="11.6385988"><ele>727.0</ele><time>2026-04-26T07:55:42.061Z</time></trkpt><trkpt lat="45.7856566" lon="11.6384456"><ele>727.0</ele><time>2026-04-26T07:55:43.031Z</time></trkpt><trkpt lat="45.7855113" lon="11.6382532"><ele>727.0</ele><time>2026-04-26T07:55:44.034Z</time></trkpt><trkpt lat="45.7853702" lon="11.6380324"><ele>725.5</ele><time>2026-04-26T07:55:45.037Z</time></trkpt><trkpt lat="45.7852177" lon="11.6377895"><ele>724.0</ele><time>2026-04-26T07:55:46.033Z</time></trkpt><trkpt lat="45.7850475" lon="11.6375651"><ele>724.0</ele><time>2026-04-26T07:55:47.035Z</time></trkpt><trkpt lat="45.7848774" lon="11.6373101"><ele>724.0</ele><time>2026-04-26T07:55:48.034Z</time></trkpt><trkpt lat="45.7846896" lon="11.6370927"><ele>723.0</ele><time>2026-04-26T07:55:49.031Z</time></trkpt><trkpt lat="45.7845037" lon="11.6369151"><ele>722.0</ele><time>2026-04-26T07:55:50.058Z</time></trkpt><trkpt lat="45.7843382" lon="11.6367336"><ele>721.0</ele><time>2026-04-26T07:55:51.035Z</time></trkpt><trkpt lat="45.7841858" lon="11.6365533"><ele>721.0</ele><time>2026-04-26T07:55:52.035Z</time></trkpt><trkpt lat="45.7840493" lon="11.6363827"><ele>721.0</ele><time>2026-04-26T07:55:53.032Z</time></trkpt><trkpt lat="45.7839483" lon="11.6361912"><ele>721.0</ele><time>2026-04-26T07:55:54.033Z</time></trkpt><trkpt lat="45.7838797" lon="11.635994"><ele>727.6666666666667</ele><time>2026-04-26T07:55:55.041Z</time></trkpt><trkpt lat="45.7838248" lon="11.6357776"><ele>734.3333333333334</ele><time>2026-04-26T07:55:56.032Z</time></trkpt><trkpt lat="45.7837962" lon="11.635541"><ele>741.0</ele><time>2026-04-26T07:55:57.033Z</time></trkpt><trkpt lat="45.7837851" lon="11.6353113"><ele>743.0</ele><time>2026-04-26T07:55:58.034Z</time></trkpt><trkpt lat="45.783783" lon="11.6350995"><ele>745.0</ele><time>2026-04-26T07:55:59.036Z</time></trkpt><trkpt lat="45.7837551" lon="11.634906"><ele>747.0</ele><time>2026-04-26T07:56:00.054Z</time></trkpt><trkpt lat="45.7837189" lon="11.6347149"><ele>749.0</ele><time>2026-04-26T07:56:01.039Z</time></trkpt><trkpt lat="45.7836725" lon="11.634527"><ele>750.5</ele><time>2026-04-26T07:56:02.043Z</time></trkpt><trkpt lat="45.7836429" lon="11.6343356"><ele>752.0</ele><time>2026-04-26T07:56:03.035Z</time></trkpt><trkpt lat="45.7836263" lon="11.6341399"><ele>753.5</ele><time>2026-04-26T07:56:04.038Z</time></trkpt><trkpt lat="45.7836209" lon="11.6339404"><ele>755.0</ele><time>2026-04-26T07:56:05.045Z</time></trkpt><trkpt lat="45.7836254" lon="11.6337387"><ele>756.25</ele><time>2026-04-26T07:56:06.061Z</time></trkpt><trkpt lat="45.7836273" lon="11.6335338"><ele>757.5</ele><time>2026-04-26T07:56:07.038Z</time></trkpt><trkpt lat="45.7836458" lon="11.6333282"><ele>758.75</ele><time>2026-04-26T07:56:08.046Z</time></trkpt><trkpt lat="45.7836351" lon="11.6331289"><ele>760.0</ele><time>2026-04-26T07:56:09.036Z</time></trkpt><trkpt lat="45.7836352" lon="11.6329347"><ele>759.25</ele><time>2026-04-26T07:56:10.043Z</time></trkpt><trkpt lat="45.7836416" lon="11.6327448"><ele>758.5</ele><time>2026-04-26T07:56:11.04Z</time></trkpt><trkpt lat="45.7836268" lon="11.6325652"><ele>757.75</ele><time>2026-04-26T07:56:12.044Z</time></trkpt><trkpt lat="45.7835999" lon="11.6323968"><ele>757.0</ele><time>2026-04-26T07:56:13.035Z</time></trkpt><trkpt lat="45.7835633" lon="11.632239"><ele>757.0</ele><time>2026-04-26T07:56:14.047Z</time></trkpt><trkpt lat="45.7835263" lon="11.6320901"><ele>757.0</ele><time>2026-04-26T07:56:15.031Z</time></trkpt><trkpt lat="45.7834947" lon="11.6319497"><ele>757.0</ele><time>2026-04-26T07:56:16.078Z</time></trkpt><trkpt lat="45.7834717" lon="11.6318133"><ele>757.0</ele><time>2026-04-26T07:56:17.04Z</time></trkpt><trkpt lat="45.7834544" lon="11.6316793"><ele>757.0</ele><time>2026-04-26T07:56:18.035Z</time></trkpt><trkpt lat="45.7834409" lon="11.631547"><ele>756.4000000000001</ele><time>2026-04-26T07:56:19.049Z</time></trkpt><trkpt lat="45.7834322" lon="11.6314165"><ele>755.8000000000001</ele><time>2026-04-26T07:56:20.048Z</time></trkpt><trkpt lat="45.7834219" lon="11.6312827"><ele>755.2</ele><time>2026-04-26T07:56:21.044Z</time></trkpt><trkpt lat="45.783441" lon="11.6311474"><ele>754.6</ele><time>2026-04-26T07:56:22.059Z</time></trkpt><trkpt lat="45.7834748" lon="11.6310136"><ele>754.0</ele><time>2026-04-26T07:56:23.061Z</time></trkpt><trkpt lat="45.7835167" lon="11.6308762"><ele>754.0</ele><time>2026-04-26T07:56:24.039Z</time></trkpt><trkpt lat="45.783573" lon="11.6307374"><ele>754.0</ele><time>2026-04-26T07:56:25.036Z</time></trkpt><trkpt lat="45.7836603" lon="11.6306119"><ele>754.0</ele><time>2026-04-26T07:56:26.031Z</time></trkpt><trkpt lat="45.7837565" lon="11.630487"><ele>754.0</ele><time>2026-04-26T07:56:27.036Z</time></trkpt><trkpt lat="45.7838687" lon="11.6303784"><ele>754.0</ele><time>2026-04-26T07:56:28.059Z</time></trkpt><trkpt lat="45.7839695" lon="11.6302626"><ele>754.0</ele><time>2026-04-26T07:56:29.052Z</time></trkpt><trkpt lat="45.7840615" lon="11.6301354"><ele>754.0</ele><time>2026-04-26T07:56:30.038Z</time></trkpt><trkpt lat="45.7841626" lon="11.6300393"><ele>754.0</ele><time>2026-04-26T07:56:31.044Z</time></trkpt><trkpt lat="45.7842588" lon="11.6299402"><ele>754.0</ele><time>2026-04-26T07:56:32.038Z</time></trkpt><trkpt lat="45.7843437" lon="11.6298512"><ele>754.0</ele><time>2026-04-26T07:56:33.029Z</time></trkpt><trkpt lat="45.7844336" lon="11.6297789"><ele>754.0</ele><time>2026-04-26T07:56:34.039Z</time></trkpt><trkpt lat="45.7845399" lon="11.6297284"><ele>754.0</ele><time>2026-04-26T07:56:35.043Z</time></trkpt><trkpt lat="45.7846621" lon="11.6296995"><ele>754.0</ele><time>2026-04-26T07:56:36.046Z</time></trkpt><trkpt lat="45.7847914" lon="11.629665"><ele>754.3333333333334</ele><time>2026-04-26T07:56:37.038Z</time></trkpt><trkpt lat="45.7849281" lon="11.6296213"><ele>754.6666666666666</ele><time>2026-04-26T07:56:38.067Z</time></trkpt><trkpt lat="45.7850769" lon="11.6295787"><ele>755.0</ele><time>2026-04-26T07:56:39.068Z</time></trkpt><trkpt lat="45.7852381" lon="11.629532"><ele>755.6666666666666</ele><time>2026-04-26T07:56:40.05Z</time></trkpt><trkpt lat="45.7854064" lon="11.6294808"><ele>756.3333333333334</ele><time>2026-04-26T07:56:41.02Z</time></trkpt><trkpt lat="45.7855753" lon="11.6294389"><ele>757.0</ele><time>2026-04-26T07:56:42.015Z</time></trkpt><trkpt lat="45.7857377" lon="11.6293974"><ele>754.6666666666667</ele><time>2026-04-26T07:56:43.023Z</time></trkpt><trkpt lat="45.7858938" lon="11.6293515"><ele>752.3333333333334</ele><time>2026-04-26T07:56:44.017Z</time></trkpt><trkpt lat="45.786045" lon="11.6293065"><ele>750.0</ele><time>2026-04-26T07:56:45.034Z</time></trkpt><trkpt lat="45.7861972" lon="11.6292728"><ele>749.3333333333334</ele><time>2026-04-26T07:56:46.02Z</time></trkpt><trkpt lat="45.7863502" lon="11.6292309"><ele>748.6666666666667</ele><time>2026-04-26T07:56:47.02Z</time></trkpt><trkpt lat="45.7865101" lon="11.6292227"><ele>748.0</ele><time>2026-04-26T07:56:48.01Z</time></trkpt><trkpt lat="45.7866857" lon="11.629177"><ele>748.3333333333334</ele><time>2026-04-26T07:56:49.045Z</time></trkpt><trkpt lat="45.7868734" lon="11.6291472"><ele>748.6666666666666</ele><time>2026-04-26T07:56:50.012Z</time></trkpt><trkpt lat="45.7870571" lon="11.6291146"><ele>749.0</ele><time>2026-04-26T07:56:51.011Z</time></trkpt><trkpt lat="45.7872411" lon="11.6290809"><ele>749.0</ele><time>2026-04-26T07:56:52.012Z</time></trkpt><trkpt lat="45.7874364" lon="11.6290452"><ele>749.0</ele><time>2026-04-26T07:56:53.023Z</time></trkpt><trkpt lat="45.7876384" lon="11.6289715"><ele>749.0</ele><time>2026-04-26T07:56:54.012Z</time></trkpt><trkpt lat="45.7878504" lon="11.6288666"><ele>746.0</ele><time>2026-04-26T07:56:55.014Z</time></trkpt><trkpt lat="45.7880728" lon="11.6287203"><ele>743.0</ele><time>2026-04-26T07:56:56.005Z</time></trkpt><trkpt lat="45.7882563" lon="11.6286078"><ele>740.0</ele><time>2026-04-26T07:56:57.03Z</time></trkpt><trkpt lat="45.7884377" lon="11.6285028"><ele>740.3333333333333</ele><time>2026-04-26T07:56:58.029Z</time></trkpt><trkpt lat="45.7885908" lon="11.6284047"><ele>740.6666666666666</ele><time>2026-04-26T07:56:59.013Z</time></trkpt><trkpt lat="45.7887389" lon="11.6283103"><ele>741.0</ele><time>2026-04-26T07:57:00.024Z</time></trkpt><trkpt lat="45.7888934" lon="11.6282662"><ele>741.0</ele><time>2026-04-26T07:57:01.008Z</time></trkpt><trkpt lat="45.7890535" lon="11.6282869"><ele>741.0</ele><time>2026-04-26T07:57:02.032Z</time></trkpt><trkpt lat="45.7892" lon="11.6283626"><ele>741.0</ele><time>2026-04-26T07:57:03.019Z</time></trkpt><trkpt lat="45.7893252" lon="11.6284606"><ele>741.3333333333334</ele><time>2026-04-26T07:57:04.023Z</time></trkpt><trkpt lat="45.7894347" lon="11.6286019"><ele>741.6666666666667</ele><time>2026-04-26T07:57:05.022Z</time></trkpt><trkpt lat="45.7895539" lon="11.6287475"><ele>742.0</ele><time>2026-04-26T07:57:06.016Z</time></trkpt><trkpt lat="45.78968" lon="11.6289225"><ele>742.0</ele><time>2026-04-26T07:57:07.026Z</time></trkpt><trkpt lat="45.7898201" lon="11.6291348"><ele>742.0</ele><time>2026-04-26T07:57:08.023Z</time></trkpt><trkpt lat="45.7899326" lon="11.6293936"><ele>742.0</ele><time>2026-04-26T07:57:09.01Z</time></trkpt><trkpt lat="45.7900471" lon="11.6296276"><ele>740.6666666666667</ele><time>2026-04-26T07:57:10.016Z</time></trkpt><trkpt lat="45.7901553" lon="11.6298259"><ele>739.3333333333334</ele><time>2026-04-26T07:57:11.016Z</time></trkpt><trkpt lat="45.7902799" lon="11.6299901"><ele>738.0</ele><time>2026-04-26T07:57:12.01Z</time></trkpt><trkpt lat="45.7903707" lon="11.6301762"><ele>743.3333333333334</ele><time>2026-04-26T07:57:13.013Z</time></trkpt><trkpt lat="45.790481" lon="11.6303171"><ele>748.6666666666667</ele><time>2026-04-26T07:57:14.037Z</time></trkpt><trkpt lat="45.7906288" lon="11.6304161"><ele>754.0</ele><time>2026-04-26T07:57:15.025Z</time></trkpt><trkpt lat="45.7907972" lon="11.6305055"><ele>754.0</ele><time>2026-04-26T07:57:16.041Z</time></trkpt><trkpt lat="45.7909605" lon="11.6305997"><ele>754.0</ele><time>2026-04-26T07:57:17.033Z</time></trkpt><trkpt lat="45.7910961" lon="11.6307215"><ele>754.0</ele><time>2026-04-26T07:57:18.021Z</time></trkpt><trkpt lat="45.7912198" lon="11.6308499"><ele>753.75</ele><time>2026-04-26T07:57:19.037Z</time></trkpt><trkpt lat="45.7913348" lon="11.6309768"><ele>753.5</ele><time>2026-04-26T07:57:20.049Z</time></trkpt><trkpt lat="45.7914408" lon="11.6310945"><ele>753.25</ele><time>2026-04-26T07:57:21.025Z</time></trkpt><trkpt lat="45.7915292" lon="11.6312207"><ele>753.0</ele><time>2026-04-26T07:57:22.049Z</time></trkpt><trkpt lat="45.7916284" lon="11.6313301"><ele>753.0</ele><time>2026-04-26T07:57:23.032Z</time></trkpt><trkpt lat="45.7917444" lon="11.6313943"><ele>753.0</ele><time>2026-04-26T07:57:24.041Z</time></trkpt><trkpt lat="45.7918645" lon="11.6313863"><ele>753.0</ele><time>2026-04-26T07:57:25.026Z</time></trkpt><trkpt lat="45.7919758" lon="11.6313395"><ele>753.0</ele><time>2026-04-26T07:57:26.017Z</time></trkpt><trkpt lat="45.7920672" lon="11.6312285"><ele>750.25</ele><time>2026-04-26T07:57:27.006Z</time></trkpt><trkpt lat="45.7921667" lon="11.6311233"><ele>747.5</ele><time>2026-04-26T07:57:28.028Z</time></trkpt><trkpt lat="45.7923105" lon="11.6310692"><ele>744.75</ele><time>2026-04-26T07:57:29.04Z</time></trkpt><trkpt lat="45.7924624" lon="11.6310492"><ele>742.0</ele><time>2026-04-26T07:57:30.032Z</time></trkpt><trkpt lat="45.7926076" lon="11.6310293"><ele>742.25</ele><time>2026-04-26T07:57:31.057Z</time></trkpt><trkpt lat="45.7927506" lon="11.6310256"><ele>742.5</ele><time>2026-04-26T07:57:32.011Z</time></trkpt><trkpt lat="45.7928971" lon="11.6310041"><ele>742.75</ele><time>2026-04-26T07:57:33.022Z</time></trkpt><trkpt lat="45.7930444" lon="11.6310159"><ele>743.0</ele><time>2026-04-26T07:57:34.028Z</time></trkpt><trkpt lat="45.7931833" lon="11.6310238"><ele>743.0</ele><time>2026-04-26T07:57:35.037Z</time></trkpt><trkpt lat="45.7933223" lon="11.6310535"><ele>743.0</ele><time>2026-04-26T07:57:36.026Z</time></trkpt><trkpt lat="45.7934619" lon="11.6311407"><ele>743.0</ele><time>2026-04-26T07:57:37.043Z</time></trkpt><trkpt lat="45.7935945" lon="11.6312608"><ele>746.3333333333333</ele><time>2026-04-26T07:57:38.012Z</time></trkpt><trkpt lat="45.7937338" lon="11.6313629"><ele>749.6666666666666</ele><time>2026-04-26T07:57:39.037Z</time></trkpt><trkpt lat="45.7938691" lon="11.6314629"><ele>753.0</ele><time>2026-04-26T07:57:40.037Z</time></trkpt><trkpt lat="45.7940212" lon="11.6314891"><ele>753.0</ele><time>2026-04-26T07:57:41.025Z</time></trkpt><trkpt lat="45.7941774" lon="11.6314719"><ele>753.0</ele><time>2026-04-26T07:57:42.039Z</time></trkpt><trkpt lat="45.7943282" lon="11.6314606"><ele>753.0</ele><time>2026-04-26T07:57:43.035Z</time></trkpt><trkpt lat="45.7944726" lon="11.631463"><ele>752.25</ele><time>2026-04-26T07:57:44.039Z</time></trkpt><trkpt lat="45.7946182" lon="11.6314623"><ele>751.5</ele><time>2026-04-26T07:57:45.023Z</time></trkpt><trkpt lat="45.7947571" lon="11.6314719"><ele>750.75</ele><time>2026-04-26T07:57:46.049Z</time></trkpt><trkpt lat="45.7948872" lon="11.6314975"><ele>750.0</ele><time>2026-04-26T07:57:47.025Z</time></trkpt><trkpt lat="45.7950153" lon="11.6315141"><ele>750.0</ele><time>2026-04-26T07:57:48.041Z</time></trkpt><trkpt lat="45.7951385" lon="11.6315286"><ele>750.0</ele><time>2026-04-26T07:57:49.019Z</time></trkpt><trkpt lat="45.7952576" lon="11.6315331"><ele>750.0</ele><time>2026-04-26T07:57:50.036Z</time></trkpt><trkpt lat="45.7953692" lon="11.6314995"><ele>750.0</ele><time>2026-04-26T07:57:51.011Z</time></trkpt><trkpt lat="45.795464" lon="11.6314287"><ele>750.3333333333334</ele><time>2026-04-26T07:57:52.028Z</time></trkpt><trkpt lat="45.7955406" lon="11.6313238"><ele>750.6666666666666</ele><time>2026-04-26T07:57:53.022Z</time></trkpt><trkpt lat="45.7955845" lon="11.6312128"><ele>751.0</ele><time>2026-04-26T07:57:54.013Z</time></trkpt><trkpt lat="45.7956257" lon="11.631112"><ele>751.3333333333333</ele><time>2026-04-26T07:57:55.037Z</time></trkpt><trkpt lat="45.7956532" lon="11.6310042"><ele>751.6666666666666</ele><time>2026-04-26T07:57:56.027Z</time></trkpt><trkpt lat="45.7956811" lon="11.6308995"><ele>752.0</ele><time>2026-04-26T07:57:57.045Z</time></trkpt><trkpt lat="45.7957171" lon="11.6308059"><ele>752.0</ele><time>2026-04-26T07:57:58.047Z</time></trkpt><trkpt lat="45.7957607" lon="11.6307252"><ele>752.0</ele><time>2026-04-26T07:57:59.034Z</time></trkpt><trkpt lat="45.7958403" lon="11.630709"><ele>752.0</ele><time>2026-04-26T07:58:00.052Z</time></trkpt><trkpt lat="45.7959063" lon="11.6306981"><ele>752.0</ele><time>2026-04-26T07:58:01.017Z</time></trkpt><trkpt lat="45.7959798" lon="11.6307397"><ele>752.0</ele><time>2026-04-26T07:58:02.011Z</time></trkpt><trkpt lat="45.7960621" lon="11.6308189"><ele>752.0</ele><time>2026-04-26T07:58:03.024Z</time></trkpt><trkpt lat="45.7961373" lon="11.6309061"><ele>753.3333333333333</ele><time>2026-04-26T07:58:04.019Z</time></trkpt><trkpt lat="45.7961859" lon="11.6310055"><ele>754.6666666666666</ele><time>2026-04-26T07:58:05.02Z</time></trkpt><trkpt lat="45.7962318" lon="11.6310779"><ele>756.0</ele><time>2026-04-26T07:58:06.024Z</time></trkpt><trkpt lat="45.796298" lon="11.6311257"><ele>757.3333333333334</ele><time>2026-04-26T07:58:07.019Z</time></trkpt><trkpt lat="45.7963917" lon="11.6311708"><ele>758.6666666666667</ele><time>2026-04-26T07:58:08.018Z</time></trkpt><trkpt lat="45.7964948" lon="11.6312148"><ele>760.0</ele><time>2026-04-26T07:58:09.014Z</time></trkpt><trkpt lat="45.7965974" lon="11.6312309"><ele>760.0</ele><time>2026-04-26T07:58:10.012Z</time></trkpt><trkpt lat="45.7967088" lon="11.6312502"><ele>760.0</ele><time>2026-04-26T07:58:11.016Z</time></trkpt><trkpt lat="45.7968155" lon="11.6312892"><ele>760.0</ele><time>2026-04-26T07:58:12.035Z</time></trkpt><trkpt lat="45.7969203" lon="11.6313443"><ele>760.0</ele><time>2026-04-26T07:58:13.024Z</time></trkpt><trkpt lat="45.7970254" lon="11.6314019"><ele>760.0</ele><time>2026-04-26T07:58:14.008Z</time></trkpt><trkpt lat="45.7971266" lon="11.631467"><ele>761.8</ele><time>2026-04-26T07:58:15.013Z</time></trkpt><trkpt lat="45.7972263" lon="11.6315226"><ele>763.6</ele><time>2026-04-26T07:58:16.013Z</time></trkpt><trkpt lat="45.797321" lon="11.6315666"><ele>765.4000000000001</ele><time>2026-04-26T07:58:17.017Z</time></trkpt><trkpt lat="45.7974157" lon="11.6316049"><ele>767.2</ele><time>2026-04-26T07:58:18.017Z</time></trkpt><trkpt lat="45.7975103" lon="11.6316502"><ele>769.0</ele><time>2026-04-26T07:58:19.02Z</time></trkpt><trkpt lat="45.7976055" lon="11.6316959"><ele>770.2</ele><time>2026-04-26T07:58:20.017Z</time></trkpt><trkpt lat="45.7977011" lon="11.6317474"><ele>771.4000000000001</ele><time>2026-04-26T07:58:21.015Z</time></trkpt><trkpt lat="45.7978001" lon="11.631794"><ele>772.6</ele><time>2026-04-26T07:58:22.016Z</time></trkpt><trkpt lat="45.7979014" lon="11.6318366"><ele>773.8</ele><time>2026-04-26T07:58:23.021Z</time></trkpt><trkpt lat="45.7980028" lon="11.6318736"><ele>775.0</ele><time>2026-04-26T07:58:24.036Z</time></trkpt><trkpt lat="45.7981032" lon="11.6319106"><ele>775.0</ele><time>2026-04-26T07:58:25.024Z</time></trkpt><trkpt lat="45.7982023" lon="11.6319492"><ele>775.0</ele><time>2026-04-26T07:58:26.009Z</time></trkpt><trkpt lat="45.7983016" lon="11.6319891"><ele>775.0</ele><time>2026-04-26T07:58:27.029Z</time></trkpt><trkpt lat="45.7984004" lon="11.632033"><ele>775.0</ele><time>2026-04-26T07:58:28.017Z</time></trkpt><trkpt lat="45.7984966" lon="11.6320798"><ele>775.0</ele><time>2026-04-26T07:58:29.031Z</time></trkpt><trkpt lat="45.7985893" lon="11.6321356"><ele>776.8</ele><time>2026-04-26T07:58:30.029Z</time></trkpt><trkpt lat="45.79868" lon="11.6321926"><ele>778.6</ele><time>2026-04-26T07:58:31.005Z</time></trkpt><trkpt lat="45.7987744" lon="11.6322384"><ele>780.4000000000001</ele><time>2026-04-26T07:58:32.013Z</time></trkpt><trkpt lat="45.7988711" lon="11.6322727"><ele>782.2</ele><time>2026-04-26T07:58:33.02Z</time></trkpt><trkpt lat="45.7989749" lon="11.6322883"><ele>784.0</ele><time>2026-04-26T07:58:34.02Z</time></trkpt><trkpt lat="45.7990786" lon="11.6322862"><ele>784.0</ele><time>2026-04-26T07:58:35.016Z</time></trkpt><trkpt lat="45.799177" lon="11.6322645"><ele>784.0</ele><time>2026-04-26T07:58:36.024Z</time></trkpt><trkpt lat="45.7992681" lon="11.6322352"><ele>784.0</ele><time>2026-04-26T07:58:37.029Z</time></trkpt><trkpt lat="45.7993465" lon="11.6321718"><ele>784.0</ele><time>2026-04-26T07:58:38.018Z</time></trkpt><trkpt lat="45.7994142" lon="11.6320899"><ele>784.0</ele><time>2026-04-26T07:58:39.013Z</time></trkpt><trkpt lat="45.7994655" lon="11.6319856"><ele>785.4999999999999</ele><time>2026-04-26T07:58:40.015Z</time></trkpt><trkpt lat="45.7994946" lon="11.631867"><ele>787.0</ele><time>2026-04-26T07:58:41.015Z</time></trkpt><trkpt lat="45.7995153" lon="11.6317593"><ele>788.5</ele><time>2026-04-26T07:58:42.006Z</time></trkpt><trkpt lat="45.7995495" lon="11.6316142"><ele>790.0</ele><time>2026-04-26T07:58:44.016Z</time></trkpt><trkpt lat="45.7995936" lon="11.6315041"><ele>791.4999999999999</ele><time>2026-04-26T07:58:46.008Z</time></trkpt><trkpt lat="45.7996582" lon="11.6314525"><ele>793.0</ele><time>2026-04-26T07:58:48.028Z</time></trkpt><trkpt lat="45.7997335" lon="11.6315421"><ele>793.0</ele><time>2026-04-26T07:58:50.014Z</time></trkpt><trkpt lat="45.7997673" lon="11.6316682"><ele>793.0</ele><time>2026-04-26T07:58:51.012Z</time></trkpt><trkpt lat="45.7997947" lon="11.6318121"><ele>793.0</ele><time>2026-04-26T07:58:52.017Z</time></trkpt><trkpt lat="45.7998292" lon="11.6319588"><ele>793.0</ele><time>2026-04-26T07:58:53.033Z</time></trkpt><trkpt lat="45.7998674" lon="11.6321027"><ele>793.0</ele><time>2026-04-26T07:58:54.011Z</time></trkpt><trkpt lat="45.7998896" lon="11.6322541"><ele>793.4</ele><time>2026-04-26T07:58:55.035Z</time></trkpt><trkpt lat="45.7999353" lon="11.6323889"><ele>793.8</ele><time>2026-04-26T07:58:56.037Z</time></trkpt><trkpt lat="45.7999658" lon="11.6325281"><ele>794.2</ele><time>2026-04-26T07:58:57.019Z</time></trkpt><trkpt lat="45.7999998" lon="11.6326608"><ele>794.6</ele><time>2026-04-26T07:58:58.013Z</time></trkpt><trkpt lat="45.8000268" lon="11.6327937"><ele>795.0</ele><time>2026-04-26T07:58:59.031Z</time></trkpt><trkpt lat="45.8000552" lon="11.6329248"><ele>796.2</ele><time>2026-04-26T07:59:00.038Z</time></trkpt><trkpt lat="45.8000695" lon="11.6330682"><ele>797.4</ele><time>2026-04-26T07:59:01.016Z</time></trkpt><trkpt lat="45.8000885" lon="11.6332197"><ele>798.5999999999999</ele><time>2026-04-26T07:59:02.022Z</time></trkpt><trkpt lat="45.8001003" lon="11.6333758"><ele>799.8</ele><time>2026-04-26T07:59:03.031Z</time></trkpt><trkpt lat="45.800099" lon="11.6335332"><ele>801.0</ele><time>2026-04-26T07:59:04.022Z</time></trkpt><trkpt lat="45.8000998" lon="11.6336893"><ele>802.1999999999999</ele><time>2026-04-26T07:59:05.02Z</time></trkpt><trkpt lat="45.8001115" lon="11.6338439"><ele>803.4</ele><time>2026-04-26T07:59:06.031Z</time></trkpt><trkpt lat="45.8001081" lon="11.6339993"><ele>804.6</ele><time>2026-04-26T07:59:07.025Z</time></trkpt><trkpt lat="45.8000934" lon="11.6341521"><ele>805.8</ele><time>2026-04-26T07:59:08.03Z</time></trkpt><trkpt lat="45.8000618" lon="11.63431"><ele>807.0</ele><time>2026-04-26T07:59:09.035Z</time></trkpt><trkpt lat="45.8000179" lon="11.6344678"><ele>808.6</ele><time>2026-04-26T07:59:10.027Z</time></trkpt><trkpt lat="45.7999741" lon="11.6346203"><ele>810.2</ele><time>2026-04-26T07:59:11.031Z</time></trkpt><trkpt lat="45.7999321" lon="11.6347638"><ele>811.8</ele><time>2026-04-26T07:59:12.012Z</time></trkpt><trkpt lat="45.799885" lon="11.634893"><ele>813.4</ele><time>2026-04-26T07:59:13.034Z</time></trkpt><trkpt lat="45.7998483" lon="11.6350154"><ele>815.0</ele><time>2026-04-26T07:59:14.024Z</time></trkpt><trkpt lat="45.7998095" lon="11.6351314"><ele>815.0000000000001</ele><time>2026-04-26T07:59:15.02Z</time></trkpt><trkpt lat="45.7997793" lon="11.6352424"><ele>815.0</ele><time>2026-04-26T07:59:16.021Z</time></trkpt><trkpt lat="45.7997581" lon="11.6353472"><ele>815.0</ele><time>2026-04-26T07:59:17.033Z</time></trkpt><trkpt lat="45.7997421" lon="11.6354386"><ele>815.0</ele><time>2026-04-26T07:59:18.025Z</time></trkpt><trkpt lat="45.799826" lon="11.6355622"><ele>815.0000000000001</ele><time>2026-04-26T07:59:20.03Z</time></trkpt><trkpt lat="45.7998938" lon="11.6355934"><ele>815.0</ele><time>2026-04-26T07:59:21.03Z</time></trkpt><trkpt lat="45.7999782" lon="11.6355991"><ele>817.8</ele><time>2026-04-26T07:59:22.033Z</time></trkpt><trkpt lat="45.800068" lon="11.6355412"><ele>820.6</ele><time>2026-04-26T07:59:23.016Z</time></trkpt><trkpt lat="45.8001469" lon="11.635461"><ele>823.4000000000001</ele><time>2026-04-26T07:59:24.013Z</time></trkpt><trkpt lat="45.800238" lon="11.6354079"><ele>826.2</ele><time>2026-04-26T07:59:25.016Z</time></trkpt><trkpt lat="45.8003249" lon="11.6353789"><ele>829.0</ele><time>2026-04-26T07:59:26.009Z</time></trkpt><trkpt lat="45.8004108" lon="11.6353793"><ele>829.4000000000001</ele><time>2026-04-26T07:59:27.02Z</time></trkpt><trkpt lat="45.8005028" lon="11.6354152"><ele>829.8</ele><time>2026-04-26T07:59:28.03Z</time></trkpt><trkpt lat="45.8005982" lon="11.6354678"><ele>830.2</ele><time>2026-04-26T07:59:29.017Z</time></trkpt><trkpt lat="45.8006921" lon="11.6355426"><ele>830.5999999999999</ele><time>2026-04-26T07:59:30.015Z</time></trkpt><trkpt lat="45.80078" lon="11.6356365"><ele>831.0</ele><time>2026-04-26T07:59:31.029Z</time></trkpt><trkpt lat="45.8008583" lon="11.6357359"><ele>831.0</ele><time>2026-04-26T07:59:32.032Z</time></trkpt><trkpt lat="45.8009277" lon="11.6358232"><ele>831.0</ele><time>2026-04-26T07:59:33.021Z</time></trkpt><trkpt lat="45.8009906" lon="11.6358954"><ele>831.0</ele><time>2026-04-26T07:59:34.03Z</time></trkpt><trkpt lat="45.8010561" lon="11.6359469"><ele>831.0</ele><time>2026-04-26T07:59:35.015Z</time></trkpt><trkpt lat="45.80113" lon="11.6359644"><ele>831.0</ele><time>2026-04-26T07:59:36.014Z</time></trkpt><trkpt lat="45.8012114" lon="11.6359606"><ele>831.0</ele><time>2026-04-26T07:59:37.024Z</time></trkpt><trkpt lat="45.8012918" lon="11.6359151"><ele>832.0</ele><time>2026-04-26T07:59:38.02Z</time></trkpt><trkpt lat="45.8013713" lon="11.6358644"><ele>833.0</ele><time>2026-04-26T07:59:39.03Z</time></trkpt><trkpt lat="45.8014441" lon="11.6358142"><ele>834.0</ele><time>2026-04-26T07:59:40.022Z</time></trkpt><trkpt lat="45.8015025" lon="11.6357339"><ele>835.0</ele><time>2026-04-26T07:59:41.046Z</time></trkpt><trkpt lat="45.801563" lon="11.6356464"><ele>836.0</ele><time>2026-04-26T07:59:42.026Z</time></trkpt><trkpt lat="45.8016005" lon="11.6355198"><ele>837.0</ele><time>2026-04-26T07:59:43.015Z</time></trkpt><trkpt lat="45.8016304" lon="11.6353839"><ele>836.1666666666666</ele><time>2026-04-26T07:59:44.025Z</time></trkpt><trkpt lat="45.8016571" lon="11.6352515"><ele>835.3333333333333</ele><time>2026-04-26T07:59:45.013Z</time></trkpt><trkpt lat="45.8016759" lon="11.6351222"><ele>834.5</ele><time>2026-04-26T07:59:46.028Z</time></trkpt><trkpt lat="45.8017171" lon="11.6350063"><ele>833.6666666666666</ele><time>2026-04-26T07:59:47.021Z</time></trkpt><trkpt lat="45.8017465" lon="11.6348953"><ele>832.8333333333333</ele><time>2026-04-26T07:59:48.023Z</time></trkpt><trkpt lat="45.8017907" lon="11.6347993"><ele>832.0</ele><time>2026-04-26T07:59:49.014Z</time></trkpt><trkpt lat="45.8018547" lon="11.6347198"><ele>833.7142857142857</ele><time>2026-04-26T07:59:50.026Z</time></trkpt><trkpt lat="45.8018925" lon="11.6346381"><ele>835.4285714285714</ele><time>2026-04-26T07:59:51.03Z</time></trkpt><trkpt lat="45.8019115" lon="11.634542"><ele>837.1428571428571</ele><time>2026-04-26T07:59:52.023Z</time></trkpt><trkpt lat="45.8019149" lon="11.6344293"><ele>838.8571428571429</ele><time>2026-04-26T07:59:53.028Z</time></trkpt><trkpt lat="45.8019105" lon="11.6343153"><ele>840.5714285714287</ele><time>2026-04-26T07:59:54.016Z</time></trkpt><trkpt lat="45.8019076" lon="11.6342053"><ele>842.2857142857143</ele><time>2026-04-26T07:59:55.022Z</time></trkpt><trkpt lat="45.8019063" lon="11.6341024"><ele>844.0</ele><time>2026-04-26T07:59:56.014Z</time></trkpt><trkpt lat="45.8019059" lon="11.6340044"><ele>844.3333333333333</ele><time>2026-04-26T07:59:57.015Z</time></trkpt><trkpt lat="45.8019104" lon="11.6339033"><ele>844.6666666666666</ele><time>2026-04-26T07:59:58.011Z</time></trkpt><trkpt lat="45.8019117" lon="11.6337968"><ele>845.0</ele><time>2026-04-26T07:59:59.016Z</time></trkpt><trkpt lat="45.8019186" lon="11.6336815"><ele>845.3333333333333</ele><time>2026-04-26T08:00:00.014Z</time></trkpt><trkpt lat="45.8019443" lon="11.633568"><ele>845.6666666666666</ele><time>2026-04-26T08:00:01.018Z</time></trkpt><trkpt lat="45.8019839" lon="11.6334609"><ele>846.0</ele><time>2026-04-26T08:00:02.018Z</time></trkpt><trkpt lat="45.8020279" lon="11.6333603"><ele>846.5</ele><time>2026-04-26T08:00:03.014Z</time></trkpt><trkpt lat="45.8020546" lon="11.6332626"><ele>847.0</ele><time>2026-04-26T08:00:04.012Z</time></trkpt><trkpt lat="45.8020571" lon="11.6331553"><ele>847.5</ele><time>2026-04-26T08:00:05.022Z</time></trkpt><trkpt lat="45.8020313" lon="11.6330491"><ele>848.0</ele><time>2026-04-26T08:00:06.005Z</time></trkpt><trkpt lat="45.8020056" lon="11.6329449"><ele>848.5</ele><time>2026-04-26T08:00:07.018Z</time></trkpt><trkpt lat="45.8019604" lon="11.6328562"><ele>849.0</ele><time>2026-04-26T08:00:08.027Z</time></trkpt><trkpt lat="45.8018998" lon="11.6327659"><ele>846.5</ele><time>2026-04-26T08:00:09.03Z</time></trkpt><trkpt lat="45.8018282" lon="11.6326982"><ele>844.0</ele><time>2026-04-26T08:00:10.006Z</time></trkpt><trkpt lat="45.8017688" lon="11.632629"><ele>841.5</ele><time>2026-04-26T08:00:11.025Z</time></trkpt><trkpt lat="45.8017306" lon="11.6325438"><ele>839.0</ele><time>2026-04-26T08:00:12.028Z</time></trkpt><trkpt lat="45.8017292" lon="11.6324335"><ele>836.5</ele><time>2026-04-26T08:00:13.03Z</time></trkpt><trkpt lat="45.8017406" lon="11.6323091"><ele>834.0</ele><time>2026-04-26T08:00:14.018Z</time></trkpt><trkpt lat="45.8017847" lon="11.6321887"><ele>836.6</ele><time>2026-04-26T08:00:15.025Z</time></trkpt><trkpt lat="45.8018468" lon="11.6320688"><ele>839.2</ele><time>2026-04-26T08:00:16.02Z</time></trkpt><trkpt lat="45.8019249" lon="11.6319566"><ele>841.8000000000001</ele><time>2026-04-26T08:00:17.027Z</time></trkpt><trkpt lat="45.8020082" lon="11.63186"><ele>844.4000000000001</ele><time>2026-04-26T08:00:18.03Z</time></trkpt><trkpt lat="45.8020913" lon="11.6317893"><ele>847.0</ele><time>2026-04-26T08:00:19.014Z</time></trkpt><trkpt lat="45.8021727" lon="11.6317486"><ele>847.0</ele><time>2026-04-26T08:00:20.018Z</time></trkpt><trkpt lat="45.8022582" lon="11.6317274"><ele>847.0</ele><time>2026-04-26T08:00:21.021Z</time></trkpt><trkpt lat="45.8023513" lon="11.6317248"><ele>847.0</ele><time>2026-04-26T08:00:22.018Z</time></trkpt><trkpt lat="45.8024554" lon="11.6317407"><ele>847.0</ele><time>2026-04-26T08:00:23.038Z</time></trkpt><trkpt lat="45.8025696" lon="11.6317748"><ele>847.0</ele><time>2026-04-26T08:00:24.031Z</time></trkpt><trkpt lat="45.8026845" lon="11.6318089"><ele>847.6</ele><time>2026-04-26T08:00:25.029Z</time></trkpt><trkpt lat="45.8027965" lon="11.6318381"><ele>848.2</ele><time>2026-04-26T08:00:26.028Z</time></trkpt><trkpt lat="45.8029004" lon="11.6318784"><ele>848.8</ele><time>2026-04-26T08:00:27.05Z</time></trkpt><trkpt lat="45.8030035" lon="11.6318913"><ele>849.4</ele><time>2026-04-26T08:00:28.041Z</time></trkpt><trkpt lat="45.8031017" lon="11.6318861"><ele>850.0</ele><time>2026-04-26T08:00:29.042Z</time></trkpt><trkpt lat="45.8031957" lon="11.631845"><ele>850.0</ele><time>2026-04-26T08:00:30.032Z</time></trkpt><trkpt lat="45.8032827" lon="11.6317616"><ele>850.0</ele><time>2026-04-26T08:00:31.021Z</time></trkpt><trkpt lat="45.803375" lon="11.6316666"><ele>850.0</ele><time>2026-04-26T08:00:32.062Z</time></trkpt><trkpt lat="45.8034731" lon="11.6315618"><ele>850.0</ele><time>2026-04-26T08:00:33.036Z</time></trkpt><trkpt lat="45.8035749" lon="11.6314588"><ele>852.25</ele><time>2026-04-26T08:00:34.025Z</time></trkpt><trkpt lat="45.8036798" lon="11.6313633"><ele>854.5</ele><time>2026-04-26T08:00:35.021Z</time></trkpt><trkpt lat="45.8037793" lon="11.6312741"><ele>856.75</ele><time>2026-04-26T08:00:36.018Z</time></trkpt><trkpt lat="45.8038705" lon="11.6311706"><ele>859.0</ele><time>2026-04-26T08:00:37.027Z</time></trkpt><trkpt lat="45.803968" lon="11.6310898"><ele>859.0</ele><time>2026-04-26T08:00:38.038Z</time></trkpt><trkpt lat="45.8040647" lon="11.6310183"><ele>859.0000000000001</ele><time>2026-04-26T08:00:39.031Z</time></trkpt><trkpt lat="45.8041538" lon="11.6309464"><ele>859.0000000000001</ele><time>2026-04-26T08:00:40.036Z</time></trkpt><trkpt lat="45.8042347" lon="11.6308815"><ele>859.0</ele><time>2026-04-26T08:00:41.024Z</time></trkpt><trkpt lat="45.8042904" lon="11.6307848"><ele>859.0</ele><time>2026-04-26T08:00:42.042Z</time></trkpt><trkpt lat="45.804332" lon="11.6306715"><ele>859.0</ele><time>2026-04-26T08:00:43.032Z</time></trkpt><trkpt lat="45.8043393" lon="11.6305304"><ele>859.0000000000001</ele><time>2026-04-26T08:00:44.04Z</time></trkpt><trkpt lat="45.8043145" lon="11.6303774"><ele>859.0000000000001</ele><time>2026-04-26T08:00:45.019Z</time></trkpt><trkpt lat="45.8042841" lon="11.6302089"><ele>859.0</ele><time>2026-04-26T08:00:46.031Z</time></trkpt><trkpt lat="45.804264" lon="11.6300419"><ele>859.0</ele><time>2026-04-26T08:00:47.035Z</time></trkpt><trkpt lat="45.8042448" lon="11.6298845"><ele>859.8000000000001</ele><time>2026-04-26T08:00:48.023Z</time></trkpt><trkpt lat="45.8042161" lon="11.6297384"><ele>860.6000000000001</ele><time>2026-04-26T08:00:49.025Z</time></trkpt><trkpt lat="45.8041738" lon="11.6296018"><ele>861.4</ele><time>2026-04-26T08:00:50.023Z</time></trkpt><trkpt lat="45.8041133" lon="11.6294691"><ele>862.2</ele><time>2026-04-26T08:00:51.02Z</time></trkpt><trkpt lat="45.8040511" lon="11.629356"><ele>863.0</ele><time>2026-04-26T08:00:52.017Z</time></trkpt><trkpt lat="45.8039975" lon="11.6292348"><ele>864.4</ele><time>2026-04-26T08:00:53.027Z</time></trkpt><trkpt lat="45.8039747" lon="11.629089"><ele>865.8</ele><time>2026-04-26T08:00:54.042Z</time></trkpt><trkpt lat="45.8039688" lon="11.6289307"><ele>867.2</ele><time>2026-04-26T08:00:55.025Z</time></trkpt><trkpt lat="45.8039704" lon="11.6287686"><ele>868.6</ele><time>2026-04-26T08:00:56.033Z</time></trkpt><trkpt lat="45.8039872" lon="11.6286144"><ele>870.0</ele><time>2026-04-26T08:00:57.028Z</time></trkpt><trkpt lat="45.8040073" lon="11.6284737"><ele>871.1666666666666</ele><time>2026-04-26T08:00:58.026Z</time></trkpt><trkpt lat="45.8040455" lon="11.628348"><ele>872.3333333333333</ele><time>2026-04-26T08:00:59.019Z</time></trkpt><trkpt lat="45.8040927" lon="11.6282379"><ele>873.5</ele><time>2026-04-26T08:01:00.034Z</time></trkpt><trkpt lat="45.8041508" lon="11.6281421"><ele>874.6666666666666</ele><time>2026-04-26T08:01:01.024Z</time></trkpt><trkpt lat="45.8041993" lon="11.6280457"><ele>875.8333333333333</ele><time>2026-04-26T08:01:02.028Z</time></trkpt><trkpt lat="45.8042392" lon="11.6279438"><ele>877.0</ele><time>2026-04-26T08:01:03.024Z</time></trkpt><trkpt lat="45.8042618" lon="11.6278287"><ele>877.4999999999999</ele><time>2026-04-26T08:01:04.032Z</time></trkpt><trkpt lat="45.8042734" lon="11.6277248"><ele>878.0</ele><time>2026-04-26T08:01:05.019Z</time></trkpt><trkpt lat="45.8042619" lon="11.6276239"><ele>878.5</ele><time>2026-04-26T08:01:06.025Z</time></trkpt><trkpt lat="45.8042092" lon="11.6275184"><ele>879.0</ele><time>2026-04-26T08:01:07.015Z</time></trkpt><trkpt lat="45.8041465" lon="11.6274058"><ele>879.4999999999999</ele><time>2026-04-26T08:01:08.019Z</time></trkpt><trkpt lat="45.8040824" lon="11.6272978"><ele>880.0</ele><time>2026-04-26T08:01:09.024Z</time></trkpt><trkpt lat="45.8040465" lon="11.6271776"><ele>879.9999999999999</ele><time>2026-04-26T08:01:10.019Z</time></trkpt><trkpt lat="45.8040309" lon="11.627043"><ele>880.0</ele><time>2026-04-26T08:01:11.008Z</time></trkpt><trkpt lat="45.8040455" lon="11.6269163"><ele>880.0</ele><time>2026-04-26T08:01:12.022Z</time></trkpt><trkpt lat="45.804049" lon="11.6267964"><ele>880.0</ele><time>2026-04-26T08:01:13.014Z</time></trkpt><trkpt lat="45.8040372" lon="11.6266845"><ele>879.9999999999999</ele><time>2026-04-26T08:01:14.025Z</time></trkpt><trkpt lat="45.8040061" lon="11.6265816"><ele>880.0</ele><time>2026-04-26T08:01:15.032Z</time></trkpt><trkpt lat="45.8039674" lon="11.6264864"><ele>881.7142857142857</ele><time>2026-04-26T08:01:16.022Z</time></trkpt><trkpt lat="45.8039316" lon="11.6263946"><ele>883.4285714285714</ele><time>2026-04-26T08:01:17.018Z</time></trkpt><trkpt lat="45.8038945" lon="11.626306"><ele>885.1428571428571</ele><time>2026-04-26T08:01:18.022Z</time></trkpt><trkpt lat="45.8038597" lon="11.6262161"><ele>886.8571428571429</ele><time>2026-04-26T08:01:19.045Z</time></trkpt><trkpt lat="45.8038185" lon="11.6261308"><ele>888.5714285714286</ele><time>2026-04-26T08:01:20.038Z</time></trkpt><trkpt lat="45.8037698" lon="11.6260535"><ele>890.2857142857142</ele><time>2026-04-26T08:01:21.039Z</time></trkpt><trkpt lat="45.8037125" lon="11.6259746"><ele>892.0</ele><time>2026-04-26T08:01:22.015Z</time></trkpt><trkpt lat="45.8036414" lon="11.6258961"><ele>890.5</ele><time>2026-04-26T08:01:23.03Z</time></trkpt><trkpt lat="45.803562" lon="11.6258125"><ele>889.0</ele><time>2026-04-26T08:01:24.025Z</time></trkpt><trkpt lat="45.8034655" lon="11.6257149"><ele>887.5</ele><time>2026-04-26T08:01:25.015Z</time></trkpt><trkpt lat="45.8033469" lon="11.6256613"><ele>886.0</ele><time>2026-04-26T08:01:26.026Z</time></trkpt><trkpt lat="45.8032283" lon="11.6255938"><ele>886.0</ele><time>2026-04-26T08:01:27.019Z</time></trkpt><trkpt lat="45.8031117" lon="11.6255009"><ele>886.0</ele><time>2026-04-26T08:01:28.043Z</time></trkpt><trkpt lat="45.8030104" lon="11.6253858"><ele>886.0</ele><time>2026-04-26T08:01:29.036Z</time></trkpt><trkpt lat="45.8029071" lon="11.6252796"><ele>886.0</ele><time>2026-04-26T08:01:30.025Z</time></trkpt><trkpt lat="45.8028034" lon="11.6251881"><ele>888.0</ele><time>2026-04-26T08:01:31.034Z</time></trkpt><trkpt lat="45.8027011" lon="11.6251079"><ele>890.0</ele><time>2026-04-26T08:01:32.037Z</time></trkpt><trkpt lat="45.8025988" lon="11.6250273"><ele>892.0</ele><time>2026-04-26T08:01:33.042Z</time></trkpt><trkpt lat="45.8025083" lon="11.6249389"><ele>894.0</ele><time>2026-04-26T08:01:34.038Z</time></trkpt><trkpt lat="45.8024189" lon="11.6248538"><ele>894.0</ele><time>2026-04-26T08:01:35.03Z</time></trkpt><trkpt lat="45.8023302" lon="11.624786"><ele>894.0000000000001</ele><time>2026-04-26T08:01:36.03Z</time></trkpt><trkpt lat="45.8022236" lon="11.6248005"><ele>894.0000000000001</ele><time>2026-04-26T08:01:37.025Z</time></trkpt><trkpt lat="45.802126" lon="11.6248774"><ele>894.0</ele><time>2026-04-26T08:01:38.034Z</time></trkpt><trkpt lat="45.8020414" lon="11.6249875"><ele>894.0</ele><time>2026-04-26T08:01:39.048Z</time></trkpt><trkpt lat="45.8019516" lon="11.6250875"><ele>894.0</ele><time>2026-04-26T08:01:40.034Z</time></trkpt><trkpt lat="45.8018525" lon="11.6251588"><ele>894.0</ele><time>2026-04-26T08:01:41.034Z</time></trkpt><trkpt lat="45.8017402" lon="11.6252153"><ele>894.0</ele><time>2026-04-26T08:01:42.04Z</time></trkpt><trkpt lat="45.8016186" lon="11.6252723"><ele>894.0</ele><time>2026-04-26T08:01:43.023Z</time></trkpt><trkpt lat="45.8014956" lon="11.6253393"><ele>890.75</ele><time>2026-04-26T08:01:44.041Z</time></trkpt><trkpt lat="45.8013742" lon="11.6253971"><ele>887.5</ele><time>2026-04-26T08:01:45.028Z</time></trkpt><trkpt lat="45.8012504" lon="11.6254362"><ele>884.25</ele><time>2026-04-26T08:01:46.032Z</time></trkpt><trkpt lat="45.8011332" lon="11.6254941"><ele>881.0</ele><time>2026-04-26T08:01:47.02Z</time></trkpt><trkpt lat="45.8010141" lon="11.6255068"><ele>884.5</ele><time>2026-04-26T08:01:48.036Z</time></trkpt><trkpt lat="45.8009029" lon="11.625555"><ele>888.0</ele><time>2026-04-26T08:01:49.022Z</time></trkpt><trkpt lat="45.8007855" lon="11.6255857"><ele>891.5</ele><time>2026-04-26T08:01:50.043Z</time></trkpt><trkpt lat="45.8006717" lon="11.6256009"><ele>895.0</ele><time>2026-04-26T08:01:51.051Z</time></trkpt><trkpt lat="45.8005635" lon="11.6256102"><ele>894.9999999999999</ele><time>2026-04-26T08:01:52.021Z</time></trkpt><trkpt lat="45.8004642" lon="11.6256123"><ele>895.0</ele><time>2026-04-26T08:01:53.039Z</time></trkpt><trkpt lat="45.8003732" lon="11.6256115"><ele>895.0</ele><time>2026-04-26T08:01:54.026Z</time></trkpt><trkpt lat="45.8002904" lon="11.6255982"><ele>895.0</ele><time>2026-04-26T08:01:55.027Z</time></trkpt><trkpt lat="45.8002155" lon="11.6255767"><ele>894.9999999999999</ele><time>2026-04-26T08:01:56.04Z</time></trkpt><trkpt lat="45.8001476" lon="11.6255494"><ele>895.0</ele><time>2026-04-26T08:01:57.029Z</time></trkpt><trkpt lat="45.8000824" lon="11.625514"><ele>895.9999999999999</ele><time>2026-04-26T08:01:58.021Z</time></trkpt><trkpt lat="45.8000177" lon="11.6254661"><ele>897.0</ele><time>2026-04-26T08:01:59.042Z</time></trkpt><trkpt lat="45.7999509" lon="11.6254114"><ele>898.0</ele><time>2026-04-26T08:02:00.033Z</time></trkpt><trkpt lat="45.7998821" lon="11.6253526"><ele>899.0</ele><time>2026-04-26T08:02:01.021Z</time></trkpt><trkpt lat="45.7998207" lon="11.6252616"><ele>899.9999999999999</ele><time>2026-04-26T08:02:02.037Z</time></trkpt><trkpt lat="45.7997736" lon="11.6251728"><ele>901.0</ele><time>2026-04-26T08:02:03.02Z</time></trkpt><trkpt lat="45.7997556" lon="11.6250843"><ele>901.9999999999999</ele><time>2026-04-26T08:02:04.026Z</time></trkpt><trkpt lat="45.7997689" lon="11.6249875"><ele>903.0</ele><time>2026-04-26T08:02:05.035Z</time></trkpt><trkpt lat="45.7998194" lon="11.6249089"><ele>904.0</ele><time>2026-04-26T08:02:06.047Z</time></trkpt><trkpt lat="45.7998969" lon="11.6248583"><ele>905.0</ele><time>2026-04-26T08:02:07.051Z</time></trkpt><trkpt lat="45.7999691" lon="11.6248085"><ele>905.9999999999999</ele><time>2026-04-26T08:02:08.031Z</time></trkpt><trkpt lat="45.8000418" lon="11.6247529"><ele>907.0</ele><time>2026-04-26T08:02:09.046Z</time></trkpt><trkpt lat="45.8001179" lon="11.6247009"><ele>907.6666666666666</ele><time>2026-04-26T08:02:10.047Z</time></trkpt><trkpt lat="45.800196" lon="11.6246534"><ele>908.3333333333333</ele><time>2026-04-26T08:02:11.039Z</time></trkpt><trkpt lat="45.8002774" lon="11.6246218"><ele>909.0</ele><time>2026-04-26T08:02:12.034Z</time></trkpt><trkpt lat="45.8003598" lon="11.6245973"><ele>909.6666666666667</ele><time>2026-04-26T08:02:13.036Z</time></trkpt><trkpt lat="45.8004443" lon="11.6245724"><ele>910.3333333333334</ele><time>2026-04-26T08:02:14.035Z</time></trkpt><trkpt lat="45.8005337" lon="11.6245509"><ele>911.0</ele><time>2026-04-26T08:02:15.025Z</time></trkpt><trkpt lat="45.8006253" lon="11.6245255"><ele>911.0</ele><time>2026-04-26T08:02:16.027Z</time></trkpt><trkpt lat="45.8007174" lon="11.6244989"><ele>910.9999999999999</ele><time>2026-04-26T08:02:17.032Z</time></trkpt><trkpt lat="45.8008102" lon="11.6244617"><ele>910.9999999999999</ele><time>2026-04-26T08:02:18.023Z</time></trkpt><trkpt lat="45.8009043" lon="11.6244082"><ele>911.0</ele><time>2026-04-26T08:02:19.04Z</time></trkpt><trkpt lat="45.8009938" lon="11.624348"><ele>911.0</ele><time>2026-04-26T08:02:20.035Z</time></trkpt><trkpt lat="45.8010909" lon="11.6242619"><ele>912.25</ele><time>2026-04-26T08:02:21.032Z</time></trkpt><trkpt lat="45.8011976" lon="11.62419"><ele>913.5</ele><time>2026-04-26T08:02:22.036Z</time></trkpt><trkpt lat="45.8013036" lon="11.6241113"><ele>914.75</ele><time>2026-04-26T08:02:23.037Z</time></trkpt><trkpt lat="45.8014117" lon="11.6240329"><ele>916.0</ele><time>2026-04-26T08:02:24.03Z</time></trkpt><trkpt lat="45.8015131" lon="11.6239483"><ele>916.0</ele><time>2026-04-26T08:02:25.03Z</time></trkpt><trkpt lat="45.8016009" lon="11.6238415"><ele>915.9999999999999</ele><time>2026-04-26T08:02:26.037Z</time></trkpt><trkpt lat="45.801681" lon="11.6237294"><ele>915.9999999999999</ele><time>2026-04-26T08:02:27.026Z</time></trkpt><trkpt lat="45.8017678" lon="11.6236287"><ele>916.0</ele><time>2026-04-26T08:02:28.048Z</time></trkpt><trkpt lat="45.8018557" lon="11.623534"><ele>916.0</ele><time>2026-04-26T08:02:29.038Z</time></trkpt><trkpt lat="45.801944" lon="11.6234404"><ele>917.1666666666666</ele><time>2026-04-26T08:02:30.028Z</time></trkpt><trkpt lat="45.8020443" lon="11.6233873"><ele>918.3333333333333</ele><time>2026-04-26T08:02:31.025Z</time></trkpt><trkpt lat="45.8021368" lon="11.6233475"><ele>919.5</ele><time>2026-04-26T08:02:32.018Z</time></trkpt><trkpt lat="45.8022201" lon="11.623316"><ele>920.6666666666667</ele><time>2026-04-26T08:02:33.029Z</time></trkpt><trkpt lat="45.8022955" lon="11.6232896"><ele>921.8333333333334</ele><time>2026-04-26T08:02:34.043Z</time></trkpt><trkpt lat="45.8023644" lon="11.6232661"><ele>923.0</ele><time>2026-04-26T08:02:35.045Z</time></trkpt><trkpt lat="45.8024275" lon="11.6232455"><ele>923.0000000000001</ele><time>2026-04-26T08:02:36.044Z</time></trkpt><trkpt lat="45.8025338" lon="11.6232211"><ele>923.0</ele><time>2026-04-26T08:02:38.031Z</time></trkpt><trkpt lat="45.8026082" lon="11.6231999"><ele>923.0</ele><time>2026-04-26T08:02:40.027Z</time></trkpt><trkpt lat="45.8026759" lon="11.623192"><ele>923.0</ele><time>2026-04-26T08:02:42.061Z</time></trkpt><trkpt lat="45.802751" lon="11.623233"><ele>923.0000000000001</ele><time>2026-04-26T08:02:44.027Z</time></trkpt><trkpt lat="45.8028176" lon="11.6233226"><ele>923.0</ele><time>2026-04-26T08:02:46.028Z</time></trkpt><trkpt lat="45.8029089" lon="11.6233907"><ele>924.1666666666667</ele><time>2026-04-26T08:02:48.04Z</time></trkpt><trkpt lat="45.8029744" lon="11.6233572"><ele>925.3333333333334</ele><time>2026-04-26T08:02:49.043Z</time></trkpt><trkpt lat="45.8030278" lon="11.6232763"><ele>926.5</ele><time>2026-04-26T08:02:50.033Z</time></trkpt><trkpt lat="45.8030777" lon="11.6231814"><ele>927.6666666666667</ele><time>2026-04-26T08:02:51.03Z</time></trkpt><trkpt lat="45.8031498" lon="11.6230966"><ele>928.8333333333334</ele><time>2026-04-26T08:02:52.038Z</time></trkpt><trkpt lat="45.8032312" lon="11.6230098"><ele>930.0</ele><time>2026-04-26T08:02:53.037Z</time></trkpt><trkpt lat="45.8033244" lon="11.6229337"><ele>930.0</ele><time>2026-04-26T08:02:54.02Z</time></trkpt><trkpt lat="45.8034216" lon="11.6228469"><ele>930.0</ele><time>2026-04-26T08:02:55.05Z</time></trkpt><trkpt lat="45.8035235" lon="11.6227533"><ele>930.0</ele><time>2026-04-26T08:02:56.045Z</time></trkpt><trkpt lat="45.8036283" lon="11.6226563"><ele>930.0</ele><time>2026-04-26T08:02:57.033Z</time></trkpt><trkpt lat="45.8037359" lon="11.6225594"><ele>932.5</ele><time>2026-04-26T08:02:58.029Z</time></trkpt><trkpt lat="45.8038344" lon="11.6224401"><ele>935.0</ele><time>2026-04-26T08:02:59.037Z</time></trkpt><trkpt lat="45.8039379" lon="11.6223396"><ele>937.5</ele><time>2026-04-26T08:03:00.038Z</time></trkpt><trkpt lat="45.8040373" lon="11.6222399"><ele>940.0</ele><time>2026-04-26T08:03:01.025Z</time></trkpt><trkpt lat="45.8041367" lon="11.6221383"><ele>940.0</ele><time>2026-04-26T08:03:02.032Z</time></trkpt><trkpt lat="45.8042414" lon="11.6220435"><ele>940.0</ele><time>2026-04-26T08:03:03.023Z</time></trkpt><trkpt lat="45.8043601" lon="11.6219919"><ele>940.0</ele><time>2026-04-26T08:03:04.039Z</time></trkpt><trkpt lat="45.8044874" lon="11.621967"><ele>940.0</ele><time>2026-04-26T08:03:05.023Z</time></trkpt><trkpt lat="45.8046151" lon="11.6219591"><ele>941.75</ele><time>2026-04-26T08:03:06.035Z</time></trkpt><trkpt lat="45.8047363" lon="11.621956"><ele>943.5</ele><time>2026-04-26T08:03:07.037Z</time></trkpt><trkpt lat="45.8048501" lon="11.621916"><ele>945.25</ele><time>2026-04-26T08:03:08.037Z</time></trkpt><trkpt lat="45.8049577" lon="11.621863"><ele>947.0</ele><time>2026-04-26T08:03:09.028Z</time></trkpt><trkpt lat="45.8050444" lon="11.6217484"><ele>947.0</ele><time>2026-04-26T08:03:10.032Z</time></trkpt><trkpt lat="45.8051074" lon="11.6216083"><ele>947.0</ele><time>2026-04-26T08:03:11.039Z</time></trkpt><trkpt lat="45.8051762" lon="11.62148"><ele>947.0</ele><time>2026-04-26T08:03:12.042Z</time></trkpt><trkpt lat="45.805266" lon="11.6213928"><ele>947.0</ele><time>2026-04-26T08:03:13.028Z</time></trkpt><trkpt lat="45.8053837" lon="11.6213488"><ele>951.5</ele><time>2026-04-26T08:03:14.015Z</time></trkpt><trkpt lat="45.8055134" lon="11.6213328"><ele>956.0</ele><time>2026-04-26T08:03:15.046Z</time></trkpt><trkpt lat="45.8056573" lon="11.6213543"><ele>960.5</ele><time>2026-04-26T08:03:16.017Z</time></trkpt><trkpt lat="45.8058022" lon="11.6213611"><ele>965.0</ele><time>2026-04-26T08:03:17.035Z</time></trkpt><trkpt lat="45.8059397" lon="11.6213604"><ele>967.25</ele><time>2026-04-26T08:03:18.027Z</time></trkpt><trkpt lat="45.8060691" lon="11.621359"><ele>969.5</ele><time>2026-04-26T08:03:19.018Z</time></trkpt><trkpt lat="45.8061903" lon="11.6213545"><ele>971.75</ele><time>2026-04-26T08:03:20.022Z</time></trkpt><trkpt lat="45.8063002" lon="11.621343"><ele>974.0</ele><time>2026-04-26T08:03:21.04Z</time></trkpt><trkpt lat="45.8064041" lon="11.6213169"><ele>974.0</ele><time>2026-04-26T08:03:22.022Z</time></trkpt><trkpt lat="45.8064859" lon="11.621234"><ele>974.0000000000001</ele><time>2026-04-26T08:03:23.03Z</time></trkpt><trkpt lat="45.8065292" lon="11.6211041"><ele>974.0000000000001</ele><time>2026-04-26T08:03:24.015Z</time></trkpt><trkpt lat="45.8065578" lon="11.6209696"><ele>974.0</ele><time>2026-04-26T08:03:25.029Z</time></trkpt><trkpt lat="45.806547" lon="11.6208185"><ele>974.0</ele><time>2026-04-26T08:03:26.012Z</time></trkpt><trkpt lat="45.8065124" lon="11.6206643"><ele>972.25</ele><time>2026-04-26T08:03:27.032Z</time></trkpt><trkpt lat="45.806474" lon="11.6205071"><ele>970.5</ele><time>2026-04-26T08:03:28.031Z</time></trkpt><trkpt lat="45.8064371" lon="11.6203471"><ele>968.75</ele><time>2026-04-26T08:03:29.028Z</time></trkpt><trkpt lat="45.8064069" lon="11.6201797"><ele>967.0</ele><time>2026-04-26T08:03:30.027Z</time></trkpt><trkpt lat="45.8063879" lon="11.620009"><ele>967.0</ele><time>2026-04-26T08:03:31.035Z</time></trkpt><trkpt lat="45.806386" lon="11.6198442"><ele>967.0</ele><time>2026-04-26T08:03:32.037Z</time></trkpt><trkpt lat="45.8064162" lon="11.6196834"><ele>967.0</ele><time>2026-04-26T08:03:33.035Z</time></trkpt><trkpt lat="45.8064769" lon="11.6195383"><ele>967.0</ele><time>2026-04-26T08:03:34.037Z</time></trkpt><trkpt lat="45.8065583" lon="11.6194144"><ele>965.75</ele><time>2026-04-26T08:03:35.019Z</time></trkpt><trkpt lat="45.8066627" lon="11.6193308"><ele>964.5</ele><time>2026-04-26T08:03:36.025Z</time></trkpt><trkpt lat="45.8067855" lon="11.619287"><ele>963.25</ele><time>2026-04-26T08:03:37.029Z</time></trkpt><trkpt lat="45.8069053" lon="11.6192661"><ele>962.0</ele><time>2026-04-26T08:03:38.016Z</time></trkpt><trkpt lat="45.8070197" lon="11.6192864"><ele>961.75</ele><time>2026-04-26T08:03:39.024Z</time></trkpt><trkpt lat="45.807144" lon="11.6193139"><ele>961.5</ele><time>2026-04-26T08:03:40.041Z</time></trkpt><trkpt lat="45.8072697" lon="11.6193997"><ele>961.25</ele><time>2026-04-26T08:03:41.053Z</time></trkpt><trkpt lat="45.8074108" lon="11.6194757"><ele>961.0</ele><time>2026-04-26T08:03:42.033Z</time></trkpt><trkpt lat="45.8075511" lon="11.6195596"><ele>966.6666666666666</ele><time>2026-04-26T08:03:43.033Z</time></trkpt><trkpt lat="45.8077009" lon="11.6196135"><ele>972.3333333333333</ele><time>2026-04-26T08:03:44.022Z</time></trkpt><trkpt lat="45.8078494" lon="11.6196437"><ele>978.0</ele><time>2026-04-26T08:03:45.018Z</time></trkpt><trkpt lat="45.808004" lon="11.619669"><ele>978.0</ele><time>2026-04-26T08:03:46.026Z</time></trkpt><trkpt lat="45.8081437" lon="11.6197542"><ele>978.0</ele><time>2026-04-26T08:03:47.046Z</time></trkpt><trkpt lat="45.8082891" lon="11.6198016"><ele>978.0</ele><time>2026-04-26T08:03:48.017Z</time></trkpt><trkpt lat="45.8084235" lon="11.6198664"><ele>978.0</ele><time>2026-04-26T08:03:49.029Z</time></trkpt><trkpt lat="45.8085511" lon="11.6199193"><ele>980.25</ele><time>2026-04-26T08:03:50.015Z</time></trkpt><trkpt lat="45.8086637" lon="11.6199454"><ele>982.5</ele><time>2026-04-26T08:03:51.029Z</time></trkpt><trkpt lat="45.8087738" lon="11.619893"><ele>984.75</ele><time>2026-04-26T08:03:52.026Z</time></trkpt><trkpt lat="45.8088683" lon="11.6197776"><ele>987.0</ele><time>2026-04-26T08:03:53.038Z</time></trkpt><trkpt lat="45.8089574" lon="11.6196524"><ele>987.0</ele><time>2026-04-26T08:03:54.024Z</time></trkpt><trkpt lat="45.8090541" lon="11.6195432"><ele>987.0</ele><time>2026-04-26T08:03:55.031Z</time></trkpt><trkpt lat="45.8091612" lon="11.619439"><ele>987.0</ele><time>2026-04-26T08:03:56.039Z</time></trkpt><trkpt lat="45.8092894" lon="11.6193848"><ele>987.0</ele><time>2026-04-26T08:03:57.053Z</time></trkpt><trkpt lat="45.8094288" lon="11.6193917"><ele>983.0</ele><time>2026-04-26T08:03:58.031Z</time></trkpt><trkpt lat="45.8095857" lon="11.6194166"><ele>979.0</ele><time>2026-04-26T08:03:59.047Z</time></trkpt><trkpt lat="45.8097558" lon="11.6194397"><ele>975.0</ele><time>2026-04-26T08:04:00.028Z</time></trkpt><trkpt lat="45.8099305" lon="11.619452"><ele>975.0</ele><time>2026-04-26T08:04:01.031Z</time></trkpt><trkpt lat="45.8101056" lon="11.6194698"><ele>975.0</ele><time>2026-04-26T08:04:02.047Z</time></trkpt><trkpt lat="45.8102799" lon="11.6194813"><ele>975.0</ele><time>2026-04-26T08:04:03.041Z</time></trkpt><trkpt lat="45.8104546" lon="11.6194923"><ele>976.0</ele><time>2026-04-26T08:04:04.024Z</time></trkpt><trkpt lat="45.8106268" lon="11.6194932"><ele>977.0</ele><time>2026-04-26T08:04:05.017Z</time></trkpt><trkpt lat="45.8107888" lon="11.6194886"><ele>978.0</ele><time>2026-04-26T08:04:06.018Z</time></trkpt><trkpt lat="45.8109422" lon="11.6194725"><ele>981.6666666666667</ele><time>2026-04-26T08:04:07.052Z</time></trkpt><trkpt lat="45.8110922" lon="11.6194324"><ele>985.3333333333334</ele><time>2026-04-26T08:04:08.031Z</time></trkpt><trkpt lat="45.8112409" lon="11.6193687"><ele>989.0</ele><time>2026-04-26T08:04:09.041Z</time></trkpt><trkpt lat="45.8113903" lon="11.6192944"><ele>989.0</ele><time>2026-04-26T08:04:10.023Z</time></trkpt><trkpt lat="45.811536" lon="11.619202"><ele>989.0</ele><time>2026-04-26T08:04:11.034Z</time></trkpt><trkpt lat="45.8116802" lon="11.6191168"><ele>989.0</ele><time>2026-04-26T08:04:12.041Z</time></trkpt><trkpt lat="45.8118197" lon="11.6190341"><ele>992.5</ele><time>2026-04-26T08:04:13.026Z</time></trkpt><trkpt lat="45.8119534" lon="11.6189594"><ele>996.0</ele><time>2026-04-26T08:04:14.042Z</time></trkpt><trkpt lat="45.8120863" lon="11.6189004"><ele>999.5</ele><time>2026-04-26T08:04:15.035Z</time></trkpt><trkpt lat="45.8122104" lon="11.6188376"><ele>1003.0</ele><time>2026-04-26T08:04:16.029Z</time></trkpt><trkpt lat="45.8123281" lon="11.618758"><ele>1003.0</ele><time>2026-04-26T08:04:17.027Z</time></trkpt><trkpt lat="45.8124395" lon="11.6186657"><ele>1003.0</ele><time>2026-04-26T08:04:18.025Z</time></trkpt><trkpt lat="45.8125403" lon="11.6185516"><ele>1003.0</ele><time>2026-04-26T08:04:19.036Z</time></trkpt><trkpt lat="45.8126318" lon="11.6184126"><ele>1003.0</ele><time>2026-04-26T08:04:20.023Z</time></trkpt><trkpt lat="45.8127126" lon="11.618245"><ele>1006.6666666666666</ele><time>2026-04-26T08:04:21.034Z</time></trkpt><trkpt lat="45.8127811" lon="11.6180495"><ele>1010.3333333333333</ele><time>2026-04-26T08:04:22.056Z</time></trkpt><trkpt lat="45.8128467" lon="11.6178342"><ele>1014.0</ele><time>2026-04-26T08:04:23.017Z</time></trkpt><trkpt lat="45.8129316" lon="11.6176165"><ele>1014.0</ele><time>2026-04-26T08:04:24.031Z</time></trkpt><trkpt lat="45.8130002" lon="11.6173811"><ele>1014.0</ele><time>2026-04-26T08:04:25.018Z</time></trkpt><trkpt lat="45.8130747" lon="11.6171458"><ele>1014.0</ele><time>2026-04-26T08:04:26.02Z</time></trkpt><trkpt lat="45.8131561" lon="11.6169095"><ele>1013.0</ele><time>2026-04-26T08:04:27.038Z</time></trkpt><trkpt lat="45.8132256" lon="11.6166661"><ele>1012.0</ele><time>2026-04-26T08:04:28.036Z</time></trkpt><trkpt lat="45.8132959" lon="11.6164329"><ele>1011.0</ele><time>2026-04-26T08:04:29.022Z</time></trkpt><trkpt lat="45.8133726" lon="11.6162131"><ele>1010.3333333333333</ele><time>2026-04-26T08:04:30.044Z</time></trkpt><trkpt lat="45.8134487" lon="11.6160018"><ele>1009.6666666666666</ele><time>2026-04-26T08:04:31.047Z</time></trkpt><trkpt lat="45.8135298" lon="11.6157992"><ele>1009.0</ele><time>2026-04-26T08:04:32.033Z</time></trkpt><trkpt lat="45.8136039" lon="11.61559"><ele>1014.0</ele><time>2026-04-26T08:04:33.034Z</time></trkpt><trkpt lat="45.8136812" lon="11.6153969"><ele>1019.0</ele><time>2026-04-26T08:04:34.028Z</time></trkpt><trkpt lat="45.8137602" lon="11.6151904"><ele>1024.0</ele><time>2026-04-26T08:04:35.015Z</time></trkpt><trkpt lat="45.8138441" lon="11.6149768"><ele>1024.0</ele><time>2026-04-26T08:04:36.023Z</time></trkpt><trkpt lat="45.8139085" lon="11.6147495"><ele>1024.0</ele><time>2026-04-26T08:04:37.026Z</time></trkpt><trkpt lat="45.8139999" lon="11.6145342"><ele>1024.0</ele><time>2026-04-26T08:04:38.032Z</time></trkpt><trkpt lat="45.8140846" lon="11.6143215"><ele>1022.3333333333333</ele><time>2026-04-26T08:04:39.021Z</time></trkpt><trkpt lat="45.8141671" lon="11.614112"><ele>1020.6666666666667</ele><time>2026-04-26T08:04:40.025Z</time></trkpt><trkpt lat="45.8142386" lon="11.6138988"><ele>1019.0</ele><time>2026-04-26T08:04:41.043Z</time></trkpt><trkpt lat="45.8143061" lon="11.61369"><ele>1026.0</ele><time>2026-04-26T08:04:42.037Z</time></trkpt><trkpt lat="45.8143755" lon="11.6134841"><ele>1033.0</ele><time>2026-04-26T08:04:43.035Z</time></trkpt><trkpt lat="45.8144383" lon="11.6132767"><ele>1040.0</ele><time>2026-04-26T08:04:44.033Z</time></trkpt><trkpt lat="45.8144963" lon="11.6130689"><ele>1040.0</ele><time>2026-04-26T08:04:45.03Z</time></trkpt><trkpt lat="45.8145485" lon="11.6128599"><ele>1040.0</ele><time>2026-04-26T08:04:46.025Z</time></trkpt><trkpt lat="45.8145992" lon="11.6126531"><ele>1040.0</ele><time>2026-04-26T08:04:47.036Z</time></trkpt><trkpt lat="45.8146509" lon="11.6124456"><ele>1038.0</ele><time>2026-04-26T08:04:48.023Z</time></trkpt><trkpt lat="45.8147137" lon="11.612244"><ele>1036.0</ele><time>2026-04-26T08:04:49.022Z</time></trkpt><trkpt lat="45.814783" lon="11.6120446"><ele>1034.0</ele><time>2026-04-26T08:04:50.023Z</time></trkpt><trkpt lat="45.814862" lon="11.6118483"><ele>1033.0</ele><time>2026-04-26T08:04:51.036Z</time></trkpt><trkpt lat="45.8149422" lon="11.6116524"><ele>1032.0</ele><time>2026-04-26T08:04:52.035Z</time></trkpt><trkpt lat="45.8150169" lon="11.6114514"><ele>1031.0</ele><time>2026-04-26T08:04:53.038Z</time></trkpt><trkpt lat="45.8150933" lon="11.611252"><ele>1039.0</ele><time>2026-04-26T08:04:54.038Z</time></trkpt><trkpt lat="45.8151701" lon="11.6110556"><ele>1047.0</ele><time>2026-04-26T08:04:55.028Z</time></trkpt><trkpt lat="45.8152415" lon="11.6108572"><ele>1055.0</ele><time>2026-04-26T08:04:56.029Z</time></trkpt><trkpt lat="45.815297" lon="11.6106469"><ele>1055.0</ele><time>2026-04-26T08:04:57.057Z</time></trkpt><trkpt lat="45.8153379" lon="11.6104285"><ele>1055.0</ele><time>2026-04-26T08:04:58.022Z</time></trkpt><trkpt lat="45.8153654" lon="11.6102098"><ele>1055.0</ele><time>2026-04-26T08:04:59.042Z</time></trkpt><trkpt lat="45.8153926" lon="11.6100011"><ele>1053.5</ele><time>2026-04-26T08:05:00.096Z</time></trkpt><trkpt lat="45.815427" lon="11.6098099"><ele>1052.0</ele><time>2026-04-26T08:05:01.034Z</time></trkpt><trkpt lat="45.8154828" lon="11.6096487"><ele>1050.5</ele><time>2026-04-26T08:05:02.015Z</time></trkpt><trkpt lat="45.8155577" lon="11.609518"><ele>1049.0</ele><time>2026-04-26T08:05:03.027Z</time></trkpt><trkpt lat="45.8156496" lon="11.6094289"><ele>1048.8</ele><time>2026-04-26T08:05:04.029Z</time></trkpt><trkpt lat="45.8157395" lon="11.6093544"><ele>1048.6000000000001</ele><time>2026-04-26T08:05:05.043Z</time></trkpt><trkpt lat="45.8158455" lon="11.6093181"><ele>1048.4</ele><time>2026-04-26T08:05:06.045Z</time></trkpt><trkpt lat="45.8159592" lon="11.6093265"><ele>1048.2</ele><time>2026-04-26T08:05:07.027Z</time></trkpt><trkpt lat="45.8160753" lon="11.6093444"><ele>1048.0</ele><time>2026-04-26T08:05:08.02Z</time></trkpt><trkpt lat="45.816195" lon="11.6093735"><ele>1048.0</ele><time>2026-04-26T08:05:09.026Z</time></trkpt><trkpt lat="45.8163229" lon="11.609394"><ele>1048.0</ele><time>2026-04-26T08:05:10.02Z</time></trkpt><trkpt lat="45.8164597" lon="11.6094143"><ele>1048.0</ele><time>2026-04-26T08:05:11.035Z</time></trkpt><trkpt lat="45.8166035" lon="11.6094449"><ele>1048.0</ele><time>2026-04-26T08:05:12.018Z</time></trkpt><trkpt lat="45.8167542" lon="11.6094707"><ele>1049.0</ele><time>2026-04-26T08:05:13.038Z</time></trkpt><trkpt lat="45.8169081" lon="11.609491"><ele>1050.0</ele><time>2026-04-26T08:05:14.023Z</time></trkpt><trkpt lat="45.8170636" lon="11.6095034"><ele>1051.0</ele><time>2026-04-26T08:05:15.027Z</time></trkpt><trkpt lat="45.8172198" lon="11.6095184"><ele>1051.0</ele><time>2026-04-26T08:05:16.04Z</time></trkpt><trkpt lat="45.8173748" lon="11.6095246"><ele>1051.0</ele><time>2026-04-26T08:05:17.033Z</time></trkpt><trkpt lat="45.8175296" lon="11.6095309"><ele>1051.0</ele><time>2026-04-26T08:05:18.037Z</time></trkpt><trkpt lat="45.8176853" lon="11.6095371"><ele>1051.0</ele><time>2026-04-26T08:05:19.041Z</time></trkpt><trkpt lat="45.8178414" lon="11.6095512"><ele>1051.0</ele><time>2026-04-26T08:05:20.039Z</time></trkpt><trkpt lat="45.8179995" lon="11.6095623"><ele>1051.0</ele><time>2026-04-26T08:05:21.021Z</time></trkpt><trkpt lat="45.8181602" lon="11.609569"><ele>1051.0</ele><time>2026-04-26T08:05:22.027Z</time></trkpt><trkpt lat="45.8183228" lon="11.6095778"><ele>1051.0</ele><time>2026-04-26T08:05:23.025Z</time></trkpt><trkpt lat="45.8184852" lon="11.6095798"><ele>1051.0</ele><time>2026-04-26T08:05:24.026Z</time></trkpt><trkpt lat="45.8186476" lon="11.6095781"><ele>1053.0</ele><time>2026-04-26T08:05:25.044Z</time></trkpt><trkpt lat="45.8188086" lon="11.6095702"><ele>1055.0</ele><time>2026-04-26T08:05:26.028Z</time></trkpt><trkpt lat="45.8189674" lon="11.6095573"><ele>1057.0</ele><time>2026-04-26T08:05:27.034Z</time></trkpt><trkpt lat="45.8191256" lon="11.609532"><ele>1057.0</ele><time>2026-04-26T08:05:28.031Z</time></trkpt><trkpt lat="45.8192834" lon="11.6094923"><ele>1057.0</ele><time>2026-04-26T08:05:29.03Z</time></trkpt><trkpt lat="45.8194451" lon="11.6094629"><ele>1057.0</ele><time>2026-04-26T08:05:30.046Z</time></trkpt><trkpt lat="45.8196094" lon="11.6094321"><ele>1054.3333333333333</ele><time>2026-04-26T08:05:31.02Z</time></trkpt><trkpt lat="45.819775" lon="11.6093985"><ele>1051.6666666666667</ele><time>2026-04-26T08:05:32.029Z</time></trkpt><trkpt lat="45.8199415" lon="11.6093623"><ele>1049.0</ele><time>2026-04-26T08:05:33.033Z</time></trkpt><trkpt lat="45.8201077" lon="11.6093245"><ele>1050.3333333333335</ele><time>2026-04-26T08:05:34.026Z</time></trkpt><trkpt lat="45.8202738" lon="11.6092942"><ele>1051.6666666666667</ele><time>2026-04-26T08:05:35.035Z</time></trkpt><trkpt lat="45.8204375" lon="11.6092707"><ele>1053.0</ele><time>2026-04-26T08:05:36.039Z</time></trkpt><trkpt lat="45.8205982" lon="11.6092366"><ele>1053.0</ele><time>2026-04-26T08:05:37.023Z</time></trkpt><trkpt lat="45.8207611" lon="11.6092153"><ele>1053.0</ele><time>2026-04-26T08:05:38.027Z</time></trkpt><trkpt lat="45.8209223" lon="11.6091979"><ele>1053.0</ele><time>2026-04-26T08:05:39.023Z</time></trkpt><trkpt lat="45.8210787" lon="11.6091771"><ele>1053.3333333333333</ele><time>2026-04-26T08:05:40.034Z</time></trkpt><trkpt lat="45.821229" lon="11.6091445"><ele>1053.6666666666665</ele><time>2026-04-26T08:05:41.034Z</time></trkpt><trkpt lat="45.8213748" lon="11.6091028"><ele>1054.0</ele><time>2026-04-26T08:05:42.035Z</time></trkpt><trkpt lat="45.8215129" lon="11.6090143"><ele>1054.0</ele><time>2026-04-26T08:05:43.034Z</time></trkpt><trkpt lat="45.8216394" lon="11.6089074"><ele>1054.0</ele><time>2026-04-26T08:05:44.04Z</time></trkpt><trkpt lat="45.8217769" lon="11.6088159"><ele>1054.0</ele><time>2026-04-26T08:05:45.036Z</time></trkpt><trkpt lat="45.8219109" lon="11.6086939"><ele>1054.3333333333333</ele><time>2026-04-26T08:05:46.036Z</time></trkpt><trkpt lat="45.8220433" lon="11.6085502"><ele>1054.6666666666667</ele><time>2026-04-26T08:05:47.039Z</time></trkpt><trkpt lat="45.822153" lon="11.6083693"><ele>1055.0</ele><time>2026-04-26T08:05:48.037Z</time></trkpt><trkpt lat="45.8222632" lon="11.608186"><ele>1055.0</ele><time>2026-04-26T08:05:49.027Z</time></trkpt><trkpt lat="45.8223776" lon="11.6080046"><ele>1055.0</ele><time>2026-04-26T08:05:50.03Z</time></trkpt><trkpt lat="45.8224957" lon="11.6078211"><ele>1055.0</ele><time>2026-04-26T08:05:51.031Z</time></trkpt><trkpt lat="45.8226264" lon="11.6076405"><ele>1055.0</ele><time>2026-04-26T08:05:52.027Z</time></trkpt><trkpt lat="45.8227528" lon="11.607454"><ele>1055.0</ele><time>2026-04-26T08:05:53.031Z</time></trkpt><trkpt lat="45.8228778" lon="11.6072652"><ele>1055.0</ele><time>2026-04-26T08:05:54.027Z</time></trkpt><trkpt lat="45.8230046" lon="11.6070778"><ele>1055.0</ele><time>2026-04-26T08:05:55.028Z</time></trkpt><trkpt lat="45.8231288" lon="11.6068861"><ele>1055.0</ele><time>2026-04-26T08:05:56.035Z</time></trkpt><trkpt lat="45.8232538" lon="11.6066964"><ele>1055.0</ele><time>2026-04-26T08:05:57.043Z</time></trkpt><trkpt lat="45.8233842" lon="11.6065137"><ele>1054.3333333333335</ele><time>2026-04-26T08:05:58.029Z</time></trkpt><trkpt lat="45.8235162" lon="11.6063345"><ele>1053.6666666666667</ele><time>2026-04-26T08:05:59.027Z</time></trkpt><trkpt lat="45.8236524" lon="11.6061613"><ele>1053.0</ele><time>2026-04-26T08:06:00.029Z</time></trkpt><trkpt lat="45.8237921" lon="11.6059871"><ele>1053.0</ele><time>2026-04-26T08:06:01.031Z</time></trkpt><trkpt lat="45.8239336" lon="11.6058055"><ele>1053.0</ele><time>2026-04-26T08:06:02.039Z</time></trkpt><trkpt lat="45.8240757" lon="11.6056212"><ele>1053.0</ele><time>2026-04-26T08:06:03.036Z</time></trkpt><trkpt lat="45.824218" lon="11.6054401"><ele>1054.0</ele><time>2026-04-26T08:06:04.04Z</time></trkpt><trkpt lat="45.8243542" lon="11.6052606"><ele>1055.0</ele><time>2026-04-26T08:06:05.034Z</time></trkpt><trkpt lat="45.8244791" lon="11.6050706"><ele>1056.0</ele><time>2026-04-26T08:06:06.032Z</time></trkpt><trkpt lat="45.8245872" lon="11.6048585"><ele>1056.0</ele><time>2026-04-26T08:06:07.056Z</time></trkpt><trkpt lat="45.8246816" lon="11.6046314"><ele>1056.0</ele><time>2026-04-26T08:06:08.051Z</time></trkpt><trkpt lat="45.8247645" lon="11.6043965"><ele>1056.0</ele><time>2026-04-26T08:06:09.04Z</time></trkpt><trkpt lat="45.8248422" lon="11.6041596"><ele>1055.6666666666667</ele><time>2026-04-26T08:06:10.049Z</time></trkpt><trkpt lat="45.824923" lon="11.6039224"><ele>1055.3333333333335</ele><time>2026-04-26T08:06:11.057Z</time></trkpt><trkpt lat="45.8250063" lon="11.6036864"><ele>1055.0</ele><time>2026-04-26T08:06:12.037Z</time></trkpt><trkpt lat="45.8250808" lon="11.6034447"><ele>1057.0</ele><time>2026-04-26T08:06:13.031Z</time></trkpt><trkpt lat="45.8251616" lon="11.603203"><ele>1059.0</ele><time>2026-04-26T08:06:14.03Z</time></trkpt><trkpt lat="45.8252526" lon="11.6029673"><ele>1061.0</ele><time>2026-04-26T08:06:15.038Z</time></trkpt><trkpt lat="45.8253581" lon="11.6027414"><ele>1061.0</ele><time>2026-04-26T08:06:16.023Z</time></trkpt><trkpt lat="45.8254568" lon="11.6025143"><ele>1061.0</ele><time>2026-04-26T08:06:17.024Z</time></trkpt><trkpt lat="45.8255756" lon="11.6023066"><ele>1061.0</ele><time>2026-04-26T08:06:18.038Z</time></trkpt><trkpt lat="45.8256874" lon="11.6020926"><ele>1060.6666666666667</ele><time>2026-04-26T08:06:19.053Z</time></trkpt><trkpt lat="45.8257935" lon="11.601871"><ele>1060.3333333333333</ele><time>2026-04-26T08:06:20.027Z</time></trkpt><trkpt lat="45.8258855" lon="11.6016369"><ele>1060.0</ele><time>2026-04-26T08:06:21.033Z</time></trkpt><trkpt lat="45.8259801" lon="11.6014063"><ele>1061.0</ele><time>2026-04-26T08:06:22.035Z</time></trkpt><trkpt lat="45.8260803" lon="11.6011841"><ele>1062.0</ele><time>2026-04-26T08:06:23.033Z</time></trkpt><trkpt lat="45.8261651" lon="11.6009538"><ele>1063.0</ele><time>2026-04-26T08:06:24.036Z</time></trkpt><trkpt lat="45.8262631" lon="11.6007385"><ele>1063.0</ele><time>2026-04-26T08:06:25.03Z</time></trkpt><trkpt lat="45.8263646" lon="11.6005305"><ele>1063.0</ele><time>2026-04-26T08:06:26.044Z</time></trkpt><trkpt lat="45.8264618" lon="11.600325"><ele>1063.0</ele><time>2026-04-26T08:06:27.02Z</time></trkpt><trkpt lat="45.8265492" lon="11.6001175"><ele>1062.6666666666665</ele><time>2026-04-26T08:06:28.043Z</time></trkpt><trkpt lat="45.8266295" lon="11.5999083"><ele>1062.3333333333333</ele><time>2026-04-26T08:06:29.023Z</time></trkpt><trkpt lat="45.8267013" lon="11.5996903"><ele>1062.0</ele><time>2026-04-26T08:06:30.035Z</time></trkpt><trkpt lat="45.8267635" lon="11.5994643"><ele>1064.0</ele><time>2026-04-26T08:06:31.034Z</time></trkpt><trkpt lat="45.826829" lon="11.5992421"><ele>1066.0</ele><time>2026-04-26T08:06:32.027Z</time></trkpt><trkpt lat="45.8268973" lon="11.5990308"><ele>1068.0</ele><time>2026-04-26T08:06:33.037Z</time></trkpt><trkpt lat="45.8269696" lon="11.5988385"><ele>1068.75</ele><time>2026-04-26T08:06:34.031Z</time></trkpt><trkpt lat="45.8270378" lon="11.5986614"><ele>1069.5</ele><time>2026-04-26T08:06:35.037Z</time></trkpt><trkpt lat="45.8271279" lon="11.5985178"><ele>1070.25</ele><time>2026-04-26T08:06:36.031Z</time></trkpt><trkpt lat="45.8272487" lon="11.5984186"><ele>1071.0</ele><time>2026-04-26T08:06:37.038Z</time></trkpt><trkpt lat="45.8273794" lon="11.598347"><ele>1071.0</ele><time>2026-04-26T08:06:38.02Z</time></trkpt><trkpt lat="45.8275158" lon="11.598285"><ele>1071.0</ele><time>2026-04-26T08:06:39.048Z</time></trkpt><trkpt lat="45.8276624" lon="11.5982447"><ele>1071.0</ele><time>2026-04-26T08:06:40.043Z</time></trkpt><trkpt lat="45.827811" lon="11.5982041"><ele>1071.0</ele><time>2026-04-26T08:06:41.028Z</time></trkpt><trkpt lat="45.8279614" lon="11.598156"><ele>1068.3333333333333</ele><time>2026-04-26T08:06:42.031Z</time></trkpt><trkpt lat="45.8281124" lon="11.5981059"><ele>1065.6666666666665</ele><time>2026-04-26T08:06:43.036Z</time></trkpt><trkpt lat="45.8282613" lon="11.5980488"><ele>1063.0</ele><time>2026-04-26T08:06:44.044Z</time></trkpt><trkpt lat="45.8284083" lon="11.5979971"><ele>1065.3333333333333</ele><time>2026-04-26T08:06:45.031Z</time></trkpt><trkpt lat="45.828561" lon="11.5979456"><ele>1067.6666666666667</ele><time>2026-04-26T08:06:46.042Z</time></trkpt><trkpt lat="45.8287174" lon="11.5978978"><ele>1070.0</ele><time>2026-04-26T08:06:47.031Z</time></trkpt><trkpt lat="45.8288729" lon="11.5978463"><ele>1070.3333333333335</ele><time>2026-04-26T08:06:48.032Z</time></trkpt><trkpt lat="45.8290261" lon="11.5977978"><ele>1070.6666666666667</ele><time>2026-04-26T08:06:49.025Z</time></trkpt><trkpt lat="45.8291773" lon="11.5977437"><ele>1071.0</ele><time>2026-04-26T08:06:50.014Z</time></trkpt><trkpt lat="45.8293278" lon="11.5976894"><ele>1069.0</ele><time>2026-04-26T08:06:51.028Z</time></trkpt><trkpt lat="45.8294775" lon="11.5976406"><ele>1067.0</ele><time>2026-04-26T08:06:52.036Z</time></trkpt><trkpt lat="45.8296228" lon="11.5975925"><ele>1065.0</ele><time>2026-04-26T08:06:53.029Z</time></trkpt><trkpt lat="45.8297618" lon="11.5975441"><ele>1063.0</ele><time>2026-04-26T08:06:54.027Z</time></trkpt><trkpt lat="45.8298905" lon="11.597455"><ele>1063.0</ele><time>2026-04-26T08:06:55.03Z</time></trkpt><trkpt lat="45.8300208" lon="11.597354"><ele>1063.0</ele><time>2026-04-26T08:06:56.031Z</time></trkpt><trkpt lat="45.8301496" lon="11.5972466"><ele>1063.0</ele><time>2026-04-26T08:06:57.047Z</time></trkpt><trkpt lat="45.8302624" lon="11.5971075"><ele>1063.0</ele><time>2026-04-26T08:06:58.021Z</time></trkpt><trkpt lat="45.8303904" lon="11.596969"><ele>1061.0</ele><time>2026-04-26T08:06:59.047Z</time></trkpt><trkpt lat="45.8305235" lon="11.5968264"><ele>1059.0</ele><time>2026-04-26T08:07:00.063Z</time></trkpt><trkpt lat="45.8306634" lon="11.5966813"><ele>1057.0</ele><time>2026-04-26T08:07:01.029Z</time></trkpt><trkpt lat="45.8307905" lon="11.5965379"><ele>1057.0</ele><time>2026-04-26T08:07:02.029Z</time></trkpt><trkpt lat="45.8309071" lon="11.5963665"><ele>1057.0</ele><time>2026-04-26T08:07:03.026Z</time></trkpt><trkpt lat="45.8310377" lon="11.5962187"><ele>1057.0</ele><time>2026-04-26T08:07:04.035Z</time></trkpt><trkpt lat="45.8311558" lon="11.5960382"><ele>1057.0</ele><time>2026-04-26T08:07:05.021Z</time></trkpt><trkpt lat="45.8312945" lon="11.5958883"><ele>1057.0</ele><time>2026-04-26T08:07:06.047Z</time></trkpt><trkpt lat="45.8314514" lon="11.595756"><ele>1057.0</ele><time>2026-04-26T08:07:07.045Z</time></trkpt><trkpt lat="45.8316064" lon="11.5956216"><ele>1057.0</ele><time>2026-04-26T08:07:08.041Z</time></trkpt><trkpt lat="45.8317505" lon="11.5954735"><ele>1057.0</ele><time>2026-04-26T08:07:09.03Z</time></trkpt><trkpt lat="45.8318991" lon="11.5953307"><ele>1057.0</ele><time>2026-04-26T08:07:10.028Z</time></trkpt><trkpt lat="45.8320491" lon="11.5951887"><ele>1057.0</ele><time>2026-04-26T08:07:11.024Z</time></trkpt><trkpt lat="45.8321955" lon="11.5950439"><ele>1057.0</ele><time>2026-04-26T08:07:12.029Z</time></trkpt><trkpt lat="45.8323467" lon="11.5949068"><ele>1057.0</ele><time>2026-04-26T08:07:13.022Z</time></trkpt><trkpt lat="45.8324974" lon="11.5947708"><ele>1056.6666666666665</ele><time>2026-04-26T08:07:14.036Z</time></trkpt><trkpt lat="45.8326451" lon="11.5946283"><ele>1056.3333333333333</ele><time>2026-04-26T08:07:15.018Z</time></trkpt><trkpt lat="45.8328016" lon="11.5945045"><ele>1056.0</ele><time>2026-04-26T08:07:16.022Z</time></trkpt><trkpt lat="45.8329521" lon="11.5943666"><ele>1056.0</ele><time>2026-04-26T08:07:17.041Z</time></trkpt><trkpt lat="45.8331012" lon="11.5942264"><ele>1056.0</ele><time>2026-04-26T08:07:18.038Z</time></trkpt><trkpt lat="45.8332412" lon="11.5940747"><ele>1056.0</ele><time>2026-04-26T08:07:19.021Z</time></trkpt><trkpt lat="45.8333794" lon="11.5939282"><ele>1055.3333333333333</ele><time>2026-04-26T08:07:20.034Z</time></trkpt><trkpt lat="45.8335223" lon="11.5937887"><ele>1054.6666666666665</ele><time>2026-04-26T08:07:21.023Z</time></trkpt><trkpt lat="45.8336708" lon="11.5936545"><ele>1054.0</ele><time>2026-04-26T08:07:22.027Z</time></trkpt><trkpt lat="45.8338231" lon="11.5935191"><ele>1054.0</ele><time>2026-04-26T08:07:23.051Z</time></trkpt><trkpt lat="45.8339781" lon="11.5933763"><ele>1054.0</ele><time>2026-04-26T08:07:24.029Z</time></trkpt><trkpt lat="45.8341326" lon="11.5932247"><ele>1054.0</ele><time>2026-04-26T08:07:25.047Z</time></trkpt><trkpt lat="45.8342922" lon="11.5930779"><ele>1054.6666666666665</ele><time>2026-04-26T08:07:26.034Z</time></trkpt><trkpt lat="45.834458" lon="11.5929393"><ele>1055.3333333333333</ele><time>2026-04-26T08:07:27.02Z</time></trkpt><trkpt lat="45.8346199" lon="11.59279"><ele>1056.0</ele><time>2026-04-26T08:07:28.031Z</time></trkpt><trkpt lat="45.8347969" lon="11.5926629"><ele>1056.0</ele><time>2026-04-26T08:07:29.031Z</time></trkpt><trkpt lat="45.8349635" lon="11.5925099"><ele>1056.0</ele><time>2026-04-26T08:07:30.052Z</time></trkpt><trkpt lat="45.8351276" lon="11.5923515"><ele>1056.0</ele><time>2026-04-26T08:07:31.03Z</time></trkpt><trkpt lat="45.8352804" lon="11.5921687"><ele>1053.0</ele><time>2026-04-26T08:07:32.024Z</time></trkpt><trkpt lat="45.83543" lon="11.5919824"><ele>1050.0</ele><time>2026-04-26T08:07:33.035Z</time></trkpt><trkpt lat="45.8355688" lon="11.5917861"><ele>1047.0</ele><time>2026-04-26T08:07:34.029Z</time></trkpt><trkpt lat="45.8357194" lon="11.5916283"><ele>1047.0</ele><time>2026-04-26T08:07:35.043Z</time></trkpt><trkpt lat="45.835862" lon="11.5914712"><ele>1047.0</ele><time>2026-04-26T08:07:36.035Z</time></trkpt><trkpt lat="45.8359733" lon="11.591256"><ele>1047.0</ele><time>2026-04-26T08:07:37.022Z</time></trkpt><trkpt lat="45.8360724" lon="11.5910251"><ele>1040.6666666666667</ele><time>2026-04-26T08:07:38.043Z</time></trkpt><trkpt lat="45.8361632" lon="11.5907894"><ele>1034.3333333333335</ele><time>2026-04-26T08:07:39.033Z</time></trkpt><trkpt lat="45.8362525" lon="11.5905674"><ele>1028.0</ele><time>2026-04-26T08:07:40.027Z</time></trkpt><trkpt lat="45.8363551" lon="11.5903652"><ele>1029.3333333333335</ele><time>2026-04-26T08:07:41.03Z</time></trkpt><trkpt lat="45.836432" lon="11.5901341"><ele>1030.6666666666667</ele><time>2026-04-26T08:07:42.032Z</time></trkpt><trkpt lat="45.8365093" lon="11.5899154"><ele>1032.0</ele><time>2026-04-26T08:07:43.043Z</time></trkpt><trkpt lat="45.8365767" lon="11.5897008"><ele>1033.6666666666667</ele><time>2026-04-26T08:07:44.039Z</time></trkpt><trkpt lat="45.8366279" lon="11.5894804"><ele>1035.3333333333335</ele><time>2026-04-26T08:07:45.047Z</time></trkpt><trkpt lat="45.8366616" lon="11.5892514"><ele>1037.0</ele><time>2026-04-26T08:07:46.04Z</time></trkpt><trkpt lat="45.8366652" lon="11.5890116"><ele>1037.0</ele><time>2026-04-26T08:07:47.056Z</time></trkpt><trkpt lat="45.8366594" lon="11.5887792"><ele>1037.0</ele><time>2026-04-26T08:07:48.04Z</time></trkpt><trkpt lat="45.8366" lon="11.5885391"><ele>1037.0</ele><time>2026-04-26T08:07:49.042Z</time></trkpt><trkpt lat="45.8365422" lon="11.5882922"><ele>1035.6666666666667</ele><time>2026-04-26T08:07:50.048Z</time></trkpt><trkpt lat="45.8364641" lon="11.5880489"><ele>1034.3333333333333</ele><time>2026-04-26T08:07:51.055Z</time></trkpt><trkpt lat="45.8364008" lon="11.5878148"><ele>1033.0</ele><time>2026-04-26T08:07:52.026Z</time></trkpt><trkpt lat="45.8363127" lon="11.5875795"><ele>1028.3333333333333</ele><time>2026-04-26T08:07:53.044Z</time></trkpt><trkpt lat="45.8362387" lon="11.5873354"><ele>1023.6666666666667</ele><time>2026-04-26T08:07:54.034Z</time></trkpt><trkpt lat="45.8361501" lon="11.587095"><ele>1019.0</ele><time>2026-04-26T08:07:55.045Z</time></trkpt><trkpt lat="45.8360899" lon="11.586857"><ele>1019.0</ele><time>2026-04-26T08:07:56.034Z</time></trkpt><trkpt lat="45.8359947" lon="11.5866519"><ele>1019.0</ele><time>2026-04-26T08:07:57.029Z</time></trkpt><trkpt lat="45.8358546" lon="11.5864994"><ele>1019.0</ele><time>2026-04-26T08:07:58.039Z</time></trkpt><trkpt lat="45.8357443" lon="11.5863226"><ele>1022.3333333333334</ele><time>2026-04-26T08:07:59.032Z</time></trkpt><trkpt lat="45.8356213" lon="11.5861633"><ele>1025.6666666666667</ele><time>2026-04-26T08:08:00.031Z</time></trkpt><trkpt lat="45.8354995" lon="11.5859947"><ele>1029.0</ele><time>2026-04-26T08:08:01.036Z</time></trkpt><trkpt lat="45.835372" lon="11.5858237"><ele>1029.0</ele><time>2026-04-26T08:08:02.039Z</time></trkpt><trkpt lat="45.8352473" lon="11.5856464"><ele>1029.0</ele><time>2026-04-26T08:08:03.037Z</time></trkpt><trkpt lat="45.8351509" lon="11.5854249"><ele>1029.0</ele><time>2026-04-26T08:08:04.061Z</time></trkpt><trkpt lat="45.8350605" lon="11.5851994"><ele>1030.3333333333333</ele><time>2026-04-26T08:08:05.036Z</time></trkpt><trkpt lat="45.8349851" lon="11.5849557"><ele>1031.6666666666665</ele><time>2026-04-26T08:08:06.023Z</time></trkpt><trkpt lat="45.8348962" lon="11.584734"><ele>1033.0</ele><time>2026-04-26T08:08:07.03Z</time></trkpt><trkpt lat="45.8348143" lon="11.5845033"><ele>1033.3333333333333</ele><time>2026-04-26T08:08:08.047Z</time></trkpt><trkpt lat="45.8347301" lon="11.5842753"><ele>1033.6666666666667</ele><time>2026-04-26T08:08:09.048Z</time></trkpt><trkpt lat="45.8346475" lon="11.5840489"><ele>1034.0</ele><time>2026-04-26T08:08:10.048Z</time></trkpt><trkpt lat="45.8345726" lon="11.5838194"><ele>1037.3333333333335</ele><time>2026-04-26T08:08:11.038Z</time></trkpt><trkpt lat="45.8345013" lon="11.5835885"><ele>1040.6666666666667</ele><time>2026-04-26T08:08:12.041Z</time></trkpt><trkpt lat="45.8344161" lon="11.5833678"><ele>1044.0</ele><time>2026-04-26T08:08:13.032Z</time></trkpt><trkpt lat="45.8343535" lon="11.5831363"><ele>1044.0</ele><time>2026-04-26T08:08:14.039Z</time></trkpt><trkpt lat="45.8343081" lon="11.5828941"><ele>1044.0</ele><time>2026-04-26T08:08:15.033Z</time></trkpt><trkpt lat="45.8342776" lon="11.5826441"><ele>1044.0</ele><time>2026-04-26T08:08:16.043Z</time></trkpt><trkpt lat="45.8342641" lon="11.5823901"><ele>1037.6666666666667</ele><time>2026-04-26T08:08:17.044Z</time></trkpt><trkpt lat="45.8342481" lon="11.5821349"><ele>1031.3333333333335</ele><time>2026-04-26T08:08:18.035Z</time></trkpt><trkpt lat="45.8342354" lon="11.5818731"><ele>1025.0</ele><time>2026-04-26T08:08:19.035Z</time></trkpt><trkpt lat="45.8342193" lon="11.5816058"><ele>1025.0</ele><time>2026-04-26T08:08:20.043Z</time></trkpt><trkpt lat="45.8342015" lon="11.5813331"><ele>1025.0</ele><time>2026-04-26T08:08:21.068Z</time></trkpt><trkpt lat="45.8341891" lon="11.581057"><ele>1025.0</ele><time>2026-04-26T08:08:22.091Z</time></trkpt><trkpt lat="45.8341707" lon="11.5807792"><ele>1025.0</ele><time>2026-04-26T08:08:23.051Z</time></trkpt><trkpt lat="45.8341532" lon="11.5804991"><ele>1025.0</ele><time>2026-04-26T08:08:24.045Z</time></trkpt><trkpt lat="45.8341342" lon="11.5802192"><ele>1025.0</ele><time>2026-04-26T08:08:25.037Z</time></trkpt><trkpt lat="45.8341146" lon="11.5799388"><ele>1024.0</ele><time>2026-04-26T08:08:26.041Z</time></trkpt><trkpt lat="45.8340929" lon="11.5796576"><ele>1023.0</ele><time>2026-04-26T08:08:27.044Z</time></trkpt><trkpt lat="45.8340684" lon="11.5793761"><ele>1022.0</ele><time>2026-04-26T08:08:28.031Z</time></trkpt><trkpt lat="45.8340428" lon="11.5790967"><ele>1022.0</ele><time>2026-04-26T08:08:29.029Z</time></trkpt><trkpt lat="45.8340091" lon="11.5788198"><ele>1022.0</ele><time>2026-04-26T08:08:30.05Z</time></trkpt><trkpt lat="45.8340095" lon="11.5785322"><ele>1022.0</ele><time>2026-04-26T08:08:31.031Z</time></trkpt><trkpt lat="45.8339984" lon="11.5782483"><ele>1022.6666666666667</ele><time>2026-04-26T08:08:32.049Z</time></trkpt><trkpt lat="45.8339641" lon="11.5779675"><ele>1023.3333333333333</ele><time>2026-04-26T08:08:33.036Z</time></trkpt><trkpt lat="45.8339313" lon="11.5776877"><ele>1024.0</ele><time>2026-04-26T08:08:34.029Z</time></trkpt><trkpt lat="45.8339136" lon="11.5774082"><ele>1024.3333333333333</ele><time>2026-04-26T08:08:35.035Z</time></trkpt><trkpt lat="45.8338932" lon="11.5771251"><ele>1024.6666666666667</ele><time>2026-04-26T08:08:36.026Z</time></trkpt><trkpt lat="45.8338853" lon="11.5768436"><ele>1025.0</ele><time>2026-04-26T08:08:37.051Z</time></trkpt><trkpt lat="45.8338735" lon="11.5765733"><ele>1025.0</ele><time>2026-04-26T08:08:38.048Z</time></trkpt><trkpt lat="45.8338634" lon="11.576312"><ele>1025.0</ele><time>2026-04-26T08:08:39.041Z</time></trkpt><trkpt lat="45.8338513" lon="11.576063"><ele>1025.0</ele><time>2026-04-26T08:08:40.054Z</time></trkpt><trkpt lat="45.8338329" lon="11.5758243"><ele>1025.6666666666667</ele><time>2026-04-26T08:08:41.044Z</time></trkpt><trkpt lat="45.8338165" lon="11.5755954"><ele>1026.3333333333333</ele><time>2026-04-26T08:08:42.033Z</time></trkpt><trkpt lat="45.8338033" lon="11.5753794"><ele>1027.0</ele><time>2026-04-26T08:08:43.029Z</time></trkpt><trkpt lat="45.8338065" lon="11.5751741"><ele>1028.0</ele><time>2026-04-26T08:08:44.039Z</time></trkpt><trkpt lat="45.8338306" lon="11.5749731"><ele>1029.0</ele><time>2026-04-26T08:08:45.04Z</time></trkpt><trkpt lat="45.8338838" lon="11.5747806"><ele>1030.0</ele><time>2026-04-26T08:08:46.06Z</time></trkpt><trkpt lat="45.8339554" lon="11.5745948"><ele>1031.0</ele><time>2026-04-26T08:08:47.042Z</time></trkpt><trkpt lat="45.8340289" lon="11.5744005"><ele>1032.0</ele><time>2026-04-26T08:08:48.026Z</time></trkpt><trkpt lat="45.8341099" lon="11.5742014"><ele>1033.0</ele><time>2026-04-26T08:08:49.026Z</time></trkpt><trkpt lat="45.8341754" lon="11.5739955"><ele>1034.0</ele><time>2026-04-26T08:08:50.043Z</time></trkpt><trkpt lat="45.8342481" lon="11.5737933"><ele>1039.6666666666667</ele><time>2026-04-26T08:08:51.033Z</time></trkpt><trkpt lat="45.8343185" lon="11.5735838"><ele>1045.3333333333333</ele><time>2026-04-26T08:08:52.039Z</time></trkpt><trkpt lat="45.8344188" lon="11.573379"><ele>1051.0</ele><time>2026-04-26T08:08:53.034Z</time></trkpt><trkpt lat="45.8345326" lon="11.5731692"><ele>1051.0</ele><time>2026-04-26T08:08:54.036Z</time></trkpt><trkpt lat="45.8346514" lon="11.5729418"><ele>1051.0</ele><time>2026-04-26T08:08:55.038Z</time></trkpt><trkpt lat="45.8347755" lon="11.5727125"><ele>1051.0</ele><time>2026-04-26T08:08:56.027Z</time></trkpt><trkpt lat="45.8349046" lon="11.5724672"><ele>1047.0</ele><time>2026-04-26T08:08:57.035Z</time></trkpt><trkpt lat="45.8350387" lon="11.5722206"><ele>1043.0</ele><time>2026-04-26T08:08:58.039Z</time></trkpt><trkpt lat="45.8351687" lon="11.5719671"><ele>1039.0</ele><time>2026-04-26T08:08:59.039Z</time></trkpt><trkpt lat="45.835283" lon="11.5716958"><ele>1039.0</ele><time>2026-04-26T08:09:00.046Z</time></trkpt><trkpt lat="45.8353949" lon="11.5714181"><ele>1039.0</ele><time>2026-04-26T08:09:01.035Z</time></trkpt><trkpt lat="45.8354974" lon="11.5711469"><ele>1039.0</ele><time>2026-04-26T08:09:02.034Z</time></trkpt><trkpt lat="45.8355794" lon="11.5708848"><ele>1039.0</ele><time>2026-04-26T08:09:03.046Z</time></trkpt><trkpt lat="45.8356676" lon="11.5706396"><ele>1039.0</ele><time>2026-04-26T08:09:04.039Z</time></trkpt><trkpt lat="45.8357432" lon="11.5703823"><ele>1039.0</ele><time>2026-04-26T08:09:05.045Z</time></trkpt><trkpt lat="45.8358323" lon="11.5701316"><ele>1039.6666666666665</ele><time>2026-04-26T08:09:06.029Z</time></trkpt><trkpt lat="45.8359087" lon="11.5698767"><ele>1040.3333333333333</ele><time>2026-04-26T08:09:07.035Z</time></trkpt><trkpt lat="45.8359945" lon="11.5696296"><ele>1041.0</ele><time>2026-04-26T08:09:08.036Z</time></trkpt><trkpt lat="45.8360673" lon="11.5693768"><ele>1043.0</ele><time>2026-04-26T08:09:09.03Z</time></trkpt><trkpt lat="45.8361519" lon="11.5691327"><ele>1045.0</ele><time>2026-04-26T08:09:10.039Z</time></trkpt><trkpt lat="45.8362201" lon="11.56888"><ele>1047.0</ele><time>2026-04-26T08:09:11.031Z</time></trkpt><trkpt lat="45.8362888" lon="11.5686267"><ele>1048.3333333333333</ele><time>2026-04-26T08:09:12.031Z</time></trkpt><trkpt lat="45.8363453" lon="11.5683649"><ele>1049.6666666666665</ele><time>2026-04-26T08:09:13.035Z</time></trkpt><trkpt lat="45.8363684" lon="11.5680975"><ele>1051.0</ele><time>2026-04-26T08:09:14.028Z</time></trkpt><trkpt lat="45.8363885" lon="11.5678289"><ele>1052.3333333333333</ele><time>2026-04-26T08:09:15.027Z</time></trkpt><trkpt lat="45.8363974" lon="11.5675522"><ele>1053.6666666666667</ele><time>2026-04-26T08:09:16.035Z</time></trkpt><trkpt lat="45.8363953" lon="11.5672677"><ele>1055.0</ele><time>2026-04-26T08:09:17.027Z</time></trkpt><trkpt lat="45.8363693" lon="11.5669829"><ele>1056.6666666666667</ele><time>2026-04-26T08:09:18.035Z</time></trkpt><trkpt lat="45.8363263" lon="11.5667012"><ele>1058.3333333333333</ele><time>2026-04-26T08:09:19.04Z</time></trkpt><trkpt lat="45.8362718" lon="11.5664171"><ele>1060.0</ele><time>2026-04-26T08:09:20.021Z</time></trkpt><trkpt lat="45.8362063" lon="11.5661387"><ele>1060.6666666666665</ele><time>2026-04-26T08:09:21.027Z</time></trkpt><trkpt lat="45.8361349" lon="11.5658649"><ele>1061.3333333333333</ele><time>2026-04-26T08:09:22.029Z</time></trkpt><trkpt lat="45.8360579" lon="11.5655963"><ele>1062.0</ele><time>2026-04-26T08:09:23.035Z</time></trkpt><trkpt lat="45.835977" lon="11.5653306"><ele>1061.0</ele><time>2026-04-26T08:09:24.04Z</time></trkpt><trkpt lat="45.8359" lon="11.5650632"><ele>1060.0</ele><time>2026-04-26T08:09:25.045Z</time></trkpt><trkpt lat="45.8358091" lon="11.5648059"><ele>1059.0</ele><time>2026-04-26T08:09:26.037Z</time></trkpt><trkpt lat="45.8357169" lon="11.5645487"><ele>1062.0</ele><time>2026-04-26T08:09:27.06Z</time></trkpt><trkpt lat="45.8356247" lon="11.5642992"><ele>1065.0</ele><time>2026-04-26T08:09:28.022Z</time></trkpt><trkpt lat="45.8355371" lon="11.5640516"><ele>1068.0</ele><time>2026-04-26T08:09:29.024Z</time></trkpt><trkpt lat="45.8354552" lon="11.5638127"><ele>1070.6666666666667</ele><time>2026-04-26T08:09:30.032Z</time></trkpt><trkpt lat="45.8353708" lon="11.5635868"><ele>1073.3333333333335</ele><time>2026-04-26T08:09:31.049Z</time></trkpt><trkpt lat="45.8353043" lon="11.5633967"><ele>1076.0</ele><time>2026-04-26T08:09:32.069Z</time></trkpt><trkpt lat="45.8352672" lon="11.5631943"><ele>1076.0</ele><time>2026-04-26T08:09:33.045Z</time></trkpt><trkpt lat="45.8352337" lon="11.5629602"><ele>1076.0</ele><time>2026-04-26T08:09:34.021Z</time></trkpt><trkpt lat="45.8352142" lon="11.5627232"><ele>1076.0</ele><time>2026-04-26T08:09:35.037Z</time></trkpt><trkpt lat="45.8352257" lon="11.5625089"><ele>1076.0</ele><time>2026-04-26T08:09:36.053Z</time></trkpt><trkpt lat="45.8352559" lon="11.5622852"><ele>1076.0</ele><time>2026-04-26T08:09:37.016Z</time></trkpt><trkpt lat="45.8353014" lon="11.5620424"><ele>1076.0</ele><time>2026-04-26T08:09:38.012Z</time></trkpt><trkpt lat="45.8353483" lon="11.5617643"><ele>1076.0</ele><time>2026-04-26T08:09:39.029Z</time></trkpt><trkpt lat="45.8353917" lon="11.5614552"><ele>1076.0</ele><time>2026-04-26T08:09:40.049Z</time></trkpt><trkpt lat="45.8354329" lon="11.5612241"><ele>1076.0</ele><time>2026-04-26T08:09:41.011Z</time></trkpt><trkpt lat="45.8354594" lon="11.5609677"><ele>1076.0</ele><time>2026-04-26T08:09:42.03Z</time></trkpt><trkpt lat="45.8354509" lon="11.5607441"><ele>1076.0</ele><time>2026-04-26T08:09:43.036Z</time></trkpt><trkpt lat="45.8354253" lon="11.5604612"><ele>1076.0</ele><time>2026-04-26T08:09:44.031Z</time></trkpt><trkpt lat="45.8353881" lon="11.5601978"><ele>1078.3333333333335</ele><time>2026-04-26T08:09:45.029Z</time></trkpt><trkpt lat="45.8353555" lon="11.5599505"><ele>1080.6666666666667</ele><time>2026-04-26T08:09:46.064Z</time></trkpt><trkpt lat="45.8353271" lon="11.5597264"><ele>1083.0</ele><time>2026-04-26T08:09:47.057Z</time></trkpt><trkpt lat="45.8352869" lon="11.5595022"><ele>1086.0</ele><time>2026-04-26T08:09:48.053Z</time></trkpt><trkpt lat="45.8352199" lon="11.5591548"><ele>1089.0</ele><time>2026-04-26T08:09:49.039Z</time></trkpt><trkpt lat="45.835155" lon="11.5589477"><ele>1092.0</ele><time>2026-04-26T08:09:50.045Z</time></trkpt><trkpt lat="45.8350781" lon="11.5587325"><ele>1083.0</ele><time>2026-04-26T08:09:51.033Z</time></trkpt><trkpt lat="45.8349944" lon="11.5585301"><ele>1074.0</ele><time>2026-04-26T08:09:52.041Z</time></trkpt><trkpt lat="45.8349049" lon="11.5583017"><ele>1065.0</ele><time>2026-04-26T08:09:53.049Z</time></trkpt><trkpt lat="45.8348259" lon="11.558093"><ele>1065.0</ele><time>2026-04-26T08:09:54.042Z</time></trkpt><trkpt lat="45.8347632" lon="11.5579064"><ele>1065.0</ele><time>2026-04-26T08:09:55.041Z</time></trkpt><trkpt lat="45.8347121" lon="11.557704"><ele>1065.0</ele><time>2026-04-26T08:09:56.047Z</time></trkpt><trkpt lat="45.8346905" lon="11.5575205"><ele>1065.0</ele><time>2026-04-26T08:09:57.034Z</time></trkpt><trkpt lat="45.834682" lon="11.5573148"><ele>1065.3333333333333</ele><time>2026-04-26T08:09:58.06Z</time></trkpt><trkpt lat="45.8346922" lon="11.5571004"><ele>1065.6666666666665</ele><time>2026-04-26T08:09:59.052Z</time></trkpt><trkpt lat="45.8347272" lon="11.5568982"><ele>1066.0</ele><time>2026-04-26T08:10:00.045Z</time></trkpt><trkpt lat="45.8347767" lon="11.556672"><ele>1065.3333333333333</ele><time>2026-04-26T08:10:01.032Z</time></trkpt><trkpt lat="45.8348191" lon="11.5563459"><ele>1064.6666666666667</ele><time>2026-04-26T08:10:02.033Z</time></trkpt><trkpt lat="45.834871" lon="11.5560794"><ele>1064.0</ele><time>2026-04-26T08:10:03.036Z</time></trkpt><trkpt lat="45.8349261" lon="11.5558051"><ele>1063.6666666666667</ele><time>2026-04-26T08:10:04.04Z</time></trkpt><trkpt lat="45.8349819" lon="11.5555556"><ele>1063.3333333333333</ele><time>2026-04-26T08:10:05.033Z</time></trkpt><trkpt lat="45.8350358" lon="11.5553045"><ele>1063.0</ele><time>2026-04-26T08:10:06.023Z</time></trkpt><trkpt lat="45.8350911" lon="11.5550635"><ele>1063.0</ele><time>2026-04-26T08:10:07.044Z</time></trkpt><trkpt lat="45.8351591" lon="11.5548515"><ele>1063.0</ele><time>2026-04-26T08:10:08.034Z</time></trkpt><trkpt lat="45.8352496" lon="11.5546527"><ele>1063.0</ele><time>2026-04-26T08:10:09.026Z</time></trkpt><trkpt lat="45.8353606" lon="11.5544623"><ele>1063.0</ele><time>2026-04-26T08:10:10.036Z</time></trkpt><trkpt lat="45.8354966" lon="11.5542705"><ele>1063.0</ele><time>2026-04-26T08:10:11.049Z</time></trkpt><trkpt lat="45.8356544" lon="11.554094"><ele>1063.0</ele><time>2026-04-26T08:10:12.028Z</time></trkpt><trkpt lat="45.8358457" lon="11.5539016"><ele>1062.3333333333333</ele><time>2026-04-26T08:10:13.048Z</time></trkpt><trkpt lat="45.8360299" lon="11.5537146"><ele>1061.6666666666667</ele><time>2026-04-26T08:10:14.039Z</time></trkpt><trkpt lat="45.8362142" lon="11.5535322"><ele>1061.0</ele><time>2026-04-26T08:10:15.029Z</time></trkpt><trkpt lat="45.836405" lon="11.5533692"><ele>1061.0</ele><time>2026-04-26T08:10:16.019Z</time></trkpt><trkpt lat="45.8366055" lon="11.5532279"><ele>1061.0</ele><time>2026-04-26T08:10:17.031Z</time></trkpt><trkpt lat="45.8368097" lon="11.5531078"><ele>1061.0</ele><time>2026-04-26T08:10:18.045Z</time></trkpt><trkpt lat="45.8370184" lon="11.5530075"><ele>1062.0</ele><time>2026-04-26T08:10:19.04Z</time></trkpt><trkpt lat="45.8372291" lon="11.5529147"><ele>1063.0</ele><time>2026-04-26T08:10:20.036Z</time></trkpt><trkpt lat="45.837439" lon="11.5528259"><ele>1064.0</ele><time>2026-04-26T08:10:21.042Z</time></trkpt><trkpt lat="45.8376421" lon="11.5527504"><ele>1064.3333333333335</ele><time>2026-04-26T08:10:22.039Z</time></trkpt><trkpt lat="45.8378426" lon="11.5526754"><ele>1064.6666666666667</ele><time>2026-04-26T08:10:23.026Z</time></trkpt><trkpt lat="45.8380462" lon="11.5525986"><ele>1065.0</ele><time>2026-04-26T08:10:24.053Z</time></trkpt><trkpt lat="45.8382383" lon="11.5525239"><ele>1065.0</ele><time>2026-04-26T08:10:25.045Z</time></trkpt><trkpt lat="45.8384315" lon="11.5524437"><ele>1065.0</ele><time>2026-04-26T08:10:26.037Z</time></trkpt><trkpt lat="45.8386242" lon="11.5523664"><ele>1065.0</ele><time>2026-04-26T08:10:27.025Z</time></trkpt><trkpt lat="45.8388179" lon="11.5522888"><ele>1066.0</ele><time>2026-04-26T08:10:28.037Z</time></trkpt><trkpt lat="45.8390091" lon="11.5522097"><ele>1067.0</ele><time>2026-04-26T08:10:29.049Z</time></trkpt><trkpt lat="45.8391971" lon="11.5521361"><ele>1068.0</ele><time>2026-04-26T08:10:30.029Z</time></trkpt><trkpt lat="45.8393852" lon="11.552064"><ele>1068.0</ele><time>2026-04-26T08:10:31.037Z</time></trkpt><trkpt lat="45.8395662" lon="11.5519935"><ele>1068.0</ele><time>2026-04-26T08:10:32.028Z</time></trkpt><trkpt lat="45.8397477" lon="11.5519213"><ele>1068.0</ele><time>2026-04-26T08:10:33.048Z</time></trkpt><trkpt lat="45.8399247" lon="11.5518502"><ele>1068.0</ele><time>2026-04-26T08:10:34.025Z</time></trkpt><trkpt lat="45.8401082" lon="11.5517787"><ele>1068.0</ele><time>2026-04-26T08:10:35.026Z</time></trkpt><trkpt lat="45.8402967" lon="11.5517072"><ele>1068.0</ele><time>2026-04-26T08:10:36.037Z</time></trkpt><trkpt lat="45.8404837" lon="11.5516353"><ele>1073.0</ele><time>2026-04-26T08:10:37.037Z</time></trkpt><trkpt lat="45.8406803" lon="11.5515594"><ele>1078.0</ele><time>2026-04-26T08:10:38.06Z</time></trkpt><trkpt lat="45.8408699" lon="11.5514847"><ele>1083.0</ele><time>2026-04-26T08:10:39.045Z</time></trkpt><trkpt lat="45.8410606" lon="11.5514106"><ele>1082.6666666666667</ele><time>2026-04-26T08:10:40.029Z</time></trkpt><trkpt lat="45.8412561" lon="11.5513367"><ele>1082.3333333333335</ele><time>2026-04-26T08:10:41.028Z</time></trkpt><trkpt lat="45.8414518" lon="11.5512665"><ele>1082.0</ele><time>2026-04-26T08:10:42.03Z</time></trkpt><trkpt lat="45.8416463" lon="11.5512013"><ele>1080.6666666666667</ele><time>2026-04-26T08:10:43.024Z</time></trkpt><trkpt lat="45.8418451" lon="11.5511383"><ele>1079.3333333333333</ele><time>2026-04-26T08:10:44.042Z</time></trkpt><trkpt lat="45.8420405" lon="11.5510803"><ele>1078.0</ele><time>2026-04-26T08:10:45.019Z</time></trkpt><trkpt lat="45.8422376" lon="11.5510247"><ele>1078.0</ele><time>2026-04-26T08:10:46.038Z</time></trkpt><trkpt lat="45.8424308" lon="11.5509698"><ele>1078.0</ele><time>2026-04-26T08:10:47.028Z</time></trkpt><trkpt lat="45.8426242" lon="11.5509086"><ele>1078.0</ele><time>2026-04-26T08:10:48.06Z</time></trkpt><trkpt lat="45.8428148" lon="11.5508466"><ele>1078.3333333333333</ele><time>2026-04-26T08:10:49.047Z</time></trkpt><trkpt lat="45.8430087" lon="11.5507831"><ele>1078.6666666666667</ele><time>2026-04-26T08:10:50.052Z</time></trkpt><trkpt lat="45.8431988" lon="11.5507196"><ele>1079.0</ele><time>2026-04-26T08:10:51.043Z</time></trkpt><trkpt lat="45.8433936" lon="11.5506578"><ele>1079.6666666666667</ele><time>2026-04-26T08:10:52.031Z</time></trkpt><trkpt lat="45.8435903" lon="11.5505986"><ele>1080.3333333333333</ele><time>2026-04-26T08:10:53.05Z</time></trkpt><trkpt lat="45.843786" lon="11.5505387"><ele>1081.0</ele><time>2026-04-26T08:10:54.039Z</time></trkpt><trkpt lat="45.843984" lon="11.550478"><ele>1081.0</ele><time>2026-04-26T08:10:55.045Z</time></trkpt><trkpt lat="45.8441707" lon="11.5504164"><ele>1081.0</ele><time>2026-04-26T08:10:56.027Z</time></trkpt><trkpt lat="45.844356" lon="11.5503534"><ele>1081.0</ele><time>2026-04-26T08:10:57.049Z</time></trkpt><trkpt lat="45.8445339" lon="11.550298"><ele>1082.3333333333333</ele><time>2026-04-26T08:10:58.047Z</time></trkpt><trkpt lat="45.8447079" lon="11.5502476"><ele>1083.6666666666667</ele><time>2026-04-26T08:10:59.031Z</time></trkpt><trkpt lat="45.8448787" lon="11.5502028"><ele>1085.0</ele><time>2026-04-26T08:11:00.029Z</time></trkpt><trkpt lat="45.8450465" lon="11.5501599"><ele>1086.0</ele><time>2026-04-26T08:11:01.023Z</time></trkpt><trkpt lat="45.8452164" lon="11.5501226"><ele>1087.0</ele><time>2026-04-26T08:11:02.037Z</time></trkpt><trkpt lat="45.8453732" lon="11.550083"><ele>1088.0</ele><time>2026-04-26T08:11:03.04Z</time></trkpt><trkpt lat="45.8455245" lon="11.5500436"><ele>1088.0</ele><time>2026-04-26T08:11:04.031Z</time></trkpt><trkpt lat="45.8456734" lon="11.5500071"><ele>1088.0</ele><time>2026-04-26T08:11:05.038Z</time></trkpt><trkpt lat="45.8458186" lon="11.5499749"><ele>1088.0</ele><time>2026-04-26T08:11:06.039Z</time></trkpt><trkpt lat="45.8459636" lon="11.5499392"><ele>1088.0</ele><time>2026-04-26T08:11:07.048Z</time></trkpt><trkpt lat="45.8461045" lon="11.5498989"><ele>1088.25</ele><time>2026-04-26T08:11:08.026Z</time></trkpt><trkpt lat="45.8462494" lon="11.5498609"><ele>1088.5</ele><time>2026-04-26T08:11:09.03Z</time></trkpt><trkpt lat="45.8463919" lon="11.5498187"><ele>1088.75</ele><time>2026-04-26T08:11:10.027Z</time></trkpt><trkpt lat="45.8465391" lon="11.5497644"><ele>1089.0</ele><time>2026-04-26T08:11:11.042Z</time></trkpt><trkpt lat="45.8466872" lon="11.5496953"><ele>1089.3333333333333</ele><time>2026-04-26T08:11:12.036Z</time></trkpt><trkpt lat="45.8468439" lon="11.5496092"><ele>1089.6666666666665</ele><time>2026-04-26T08:11:13.045Z</time></trkpt><trkpt lat="45.8469999" lon="11.5495131"><ele>1090.0</ele><time>2026-04-26T08:11:14.074Z</time></trkpt><trkpt lat="45.8471463" lon="11.5494103"><ele>1090.0</ele><time>2026-04-26T08:11:15.059Z</time></trkpt><trkpt lat="45.8472916" lon="11.5493043"><ele>1090.0</ele><time>2026-04-26T08:11:16.043Z</time></trkpt><trkpt lat="45.8474331" lon="11.5492001"><ele>1090.0</ele><time>2026-04-26T08:11:17.035Z</time></trkpt><trkpt lat="45.8475783" lon="11.5491003"><ele>1091.75</ele><time>2026-04-26T08:11:18.037Z</time></trkpt><trkpt lat="45.847713" lon="11.5490073"><ele>1093.5</ele><time>2026-04-26T08:11:19.041Z</time></trkpt><trkpt lat="45.8478411" lon="11.548917"><ele>1095.25</ele><time>2026-04-26T08:11:20.03Z</time></trkpt><trkpt lat="45.8479644" lon="11.5488228"><ele>1097.0</ele><time>2026-04-26T08:11:21.049Z</time></trkpt><trkpt lat="45.8480792" lon="11.5487242"><ele>1095.25</ele><time>2026-04-26T08:11:22.051Z</time></trkpt><trkpt lat="45.8481858" lon="11.5486092"><ele>1093.5</ele><time>2026-04-26T08:11:23.041Z</time></trkpt><trkpt lat="45.84828" lon="11.5484794"><ele>1091.75</ele><time>2026-04-26T08:11:24.045Z</time></trkpt><trkpt lat="45.8483611" lon="11.5483403"><ele>1090.0</ele><time>2026-04-26T08:11:25.042Z</time></trkpt><trkpt lat="45.8484276" lon="11.5482022"><ele>1089.6</ele><time>2026-04-26T08:11:26.038Z</time></trkpt><trkpt lat="45.8484865" lon="11.5480646"><ele>1089.2</ele><time>2026-04-26T08:11:27.038Z</time></trkpt><trkpt lat="45.848537" lon="11.547921"><ele>1088.8</ele><time>2026-04-26T08:11:28.046Z</time></trkpt><trkpt lat="45.8485818" lon="11.5477819"><ele>1088.4</ele><time>2026-04-26T08:11:29.032Z</time></trkpt><trkpt lat="45.8486255" lon="11.5476451"><ele>1088.0</ele><time>2026-04-26T08:11:30.037Z</time></trkpt><trkpt lat="45.8486703" lon="11.5475036"><ele>1088.0</ele><time>2026-04-26T08:11:31.044Z</time></trkpt><trkpt lat="45.8487168" lon="11.5473654"><ele>1088.0</ele><time>2026-04-26T08:11:32.069Z</time></trkpt><trkpt lat="45.8487677" lon="11.5472438"><ele>1088.0</ele><time>2026-04-26T08:11:33.037Z</time></trkpt><trkpt lat="45.8488227" lon="11.5471536"><ele>1088.0</ele><time>2026-04-26T08:11:34.028Z</time></trkpt><trkpt lat="45.8488792" lon="11.5470989"><ele>1088.0</ele><time>2026-04-26T08:11:35.04Z</time></trkpt><trkpt lat="45.8489449" lon="11.5470529"><ele>1088.0</ele><time>2026-04-26T08:11:36.035Z</time></trkpt><trkpt lat="45.8490638" lon="11.5470023"><ele>1088.6</ele><time>2026-04-26T08:11:37.05Z</time></trkpt><trkpt lat="45.8491452" lon="11.5469449"><ele>1089.1999999999998</ele><time>2026-04-26T08:11:38.045Z</time></trkpt><trkpt lat="45.8492687" lon="11.5468978"><ele>1089.8</ele><time>2026-04-26T08:11:39.022Z</time></trkpt><trkpt lat="45.8493306" lon="11.5468362"><ele>1090.3999999999999</ele><time>2026-04-26T08:11:40.039Z</time></trkpt><trkpt lat="45.8493579" lon="11.5467298"><ele>1091.0</ele><time>2026-04-26T08:11:41.026Z</time></trkpt><trkpt lat="45.8493602" lon="11.5466163"><ele>1091.0</ele><time>2026-04-26T08:11:42.024Z</time></trkpt><trkpt lat="45.8493135" lon="11.5464789"><ele>1091.0</ele><time>2026-04-26T08:11:43.034Z</time></trkpt><trkpt lat="45.8492698" lon="11.5463374"><ele>1091.0</ele><time>2026-04-26T08:11:44.03Z</time></trkpt><trkpt lat="45.8492324" lon="11.5461828"><ele>1091.0</ele><time>2026-04-26T08:11:45.045Z</time></trkpt><trkpt lat="45.8492268" lon="11.5460107"><ele>1091.0</ele><time>2026-04-26T08:11:46.043Z</time></trkpt><trkpt lat="45.8492486" lon="11.5458267"><ele>1090.75</ele><time>2026-04-26T08:11:47.058Z</time></trkpt><trkpt lat="45.849295" lon="11.5456404"><ele>1090.5</ele><time>2026-04-26T08:11:48.043Z</time></trkpt><trkpt lat="45.8493418" lon="11.545449"><ele>1090.25</ele><time>2026-04-26T08:11:49.031Z</time></trkpt><trkpt lat="45.8493991" lon="11.5452568"><ele>1090.0</ele><time>2026-04-26T08:11:50.034Z</time></trkpt><trkpt lat="45.8494431" lon="11.5450444"><ele>1090.6666666666665</ele><time>2026-04-26T08:11:51.033Z</time></trkpt><trkpt lat="45.8494944" lon="11.5448258"><ele>1091.3333333333333</ele><time>2026-04-26T08:11:52.051Z</time></trkpt><trkpt lat="45.8495916" lon="11.54463"><ele>1092.0</ele><time>2026-04-26T08:11:53.041Z</time></trkpt><trkpt lat="45.8496507" lon="11.5444093"><ele>1092.6666666666667</ele><time>2026-04-26T08:11:54.039Z</time></trkpt><trkpt lat="45.8497189" lon="11.5441923"><ele>1093.3333333333335</ele><time>2026-04-26T08:11:55.035Z</time></trkpt><trkpt lat="45.8497824" lon="11.543968"><ele>1094.0</ele><time>2026-04-26T08:11:56.032Z</time></trkpt><trkpt lat="45.8498497" lon="11.5437361"><ele>1093.6666666666667</ele><time>2026-04-26T08:11:57.03Z</time></trkpt><trkpt lat="45.8499172" lon="11.5434996"><ele>1093.3333333333333</ele><time>2026-04-26T08:11:58.026Z</time></trkpt><trkpt lat="45.8499885" lon="11.5432685"><ele>1093.0</ele><time>2026-04-26T08:11:59.025Z</time></trkpt><trkpt lat="45.8500572" lon="11.5430383"><ele>1092.0</ele><time>2026-04-26T08:12:00.037Z</time></trkpt><trkpt lat="45.8501299" lon="11.5428104"><ele>1091.0</ele><time>2026-04-26T08:12:01.045Z</time></trkpt><trkpt lat="45.8501916" lon="11.5425721"><ele>1090.0</ele><time>2026-04-26T08:12:02.038Z</time></trkpt><trkpt lat="45.8502514" lon="11.5423249"><ele>1090.0</ele><time>2026-04-26T08:12:03.026Z</time></trkpt><trkpt lat="45.8503015" lon="11.5420632"><ele>1090.0</ele><time>2026-04-26T08:12:04.025Z</time></trkpt><trkpt lat="45.8503375" lon="11.5417892"><ele>1090.0</ele><time>2026-04-26T08:12:05.034Z</time></trkpt><trkpt lat="45.8503953" lon="11.5415143"><ele>1088.6666666666665</ele><time>2026-04-26T08:12:06.024Z</time></trkpt><trkpt lat="45.8504115" lon="11.5412326"><ele>1087.3333333333333</ele><time>2026-04-26T08:12:07.034Z</time></trkpt><trkpt lat="45.850454" lon="11.5409647"><ele>1086.0</ele><time>2026-04-26T08:12:08.038Z</time></trkpt><trkpt lat="45.8505268" lon="11.5407136"><ele>1085.0</ele><time>2026-04-26T08:12:09.027Z</time></trkpt><trkpt lat="45.8506555" lon="11.5404869"><ele>1084.0</ele><time>2026-04-26T08:12:10.035Z</time></trkpt><trkpt lat="45.8507623" lon="11.5402644"><ele>1083.0</ele><time>2026-04-26T08:12:11.035Z</time></trkpt><trkpt lat="45.8508872" lon="11.5400597"><ele>1083.0</ele><time>2026-04-26T08:12:12.039Z</time></trkpt><trkpt lat="45.851023" lon="11.5398659"><ele>1083.0</ele><time>2026-04-26T08:12:13.034Z</time></trkpt><trkpt lat="45.8511706" lon="11.5396824"><ele>1083.0</ele><time>2026-04-26T08:12:14.037Z</time></trkpt><trkpt lat="45.8513252" lon="11.5395073"><ele>1083.0</ele><time>2026-04-26T08:12:15.031Z</time></trkpt><trkpt lat="45.8514872" lon="11.5393276"><ele>1083.0</ele><time>2026-04-26T08:12:16.04Z</time></trkpt><trkpt lat="45.8516388" lon="11.5391276"><ele>1083.0</ele><time>2026-04-26T08:12:17.037Z</time></trkpt><trkpt lat="45.8517868" lon="11.5389215"><ele>1083.0</ele><time>2026-04-26T08:12:18.031Z</time></trkpt><trkpt lat="45.8519286" lon="11.5387043"><ele>1083.0</ele><time>2026-04-26T08:12:19.039Z</time></trkpt><trkpt lat="45.852076" lon="11.5384974"><ele>1083.0</ele><time>2026-04-26T08:12:20.027Z</time></trkpt><trkpt lat="45.8522264" lon="11.5382951"><ele>1083.0</ele><time>2026-04-26T08:12:21.04Z</time></trkpt><trkpt lat="45.8523645" lon="11.5380807"><ele>1083.0</ele><time>2026-04-26T08:12:22.025Z</time></trkpt><trkpt lat="45.8525075" lon="11.5378829"><ele>1083.0</ele><time>2026-04-26T08:12:23.032Z</time></trkpt><trkpt lat="45.8526478" lon="11.5376971"><ele>1078.3333333333333</ele><time>2026-04-26T08:12:24.036Z</time></trkpt><trkpt lat="45.85279" lon="11.5375284"><ele>1073.6666666666665</ele><time>2026-04-26T08:12:25.048Z</time></trkpt><trkpt lat="45.8529236" lon="11.537351"><ele>1069.0</ele><time>2026-04-26T08:12:26.039Z</time></trkpt><trkpt lat="45.8530549" lon="11.5371781"><ele>1069.3333333333333</ele><time>2026-04-26T08:12:27.04Z</time></trkpt><trkpt lat="45.8531607" lon="11.5369738"><ele>1069.6666666666667</ele><time>2026-04-26T08:12:28.028Z</time></trkpt><trkpt lat="45.8532492" lon="11.5367452"><ele>1070.0</ele><time>2026-04-26T08:12:29.034Z</time></trkpt><trkpt lat="45.8533173" lon="11.5364877"><ele>1070.0</ele><time>2026-04-26T08:12:30.062Z</time></trkpt><trkpt lat="45.8533835" lon="11.5362383"><ele>1070.0</ele><time>2026-04-26T08:12:31.034Z</time></trkpt><trkpt lat="45.8534552" lon="11.5359905"><ele>1070.0</ele><time>2026-04-26T08:12:32.038Z</time></trkpt><trkpt lat="45.8535331" lon="11.5357417"><ele>1069.0</ele><time>2026-04-26T08:12:33.041Z</time></trkpt><trkpt lat="45.8536114" lon="11.5354869"><ele>1068.0</ele><time>2026-04-26T08:12:34.041Z</time></trkpt><trkpt lat="45.8537053" lon="11.5352391"><ele>1067.0</ele><time>2026-04-26T08:12:35.035Z</time></trkpt><trkpt lat="45.8537912" lon="11.5349786"><ele>1067.0</ele><time>2026-04-26T08:12:36.037Z</time></trkpt><trkpt lat="45.8538856" lon="11.5347216"><ele>1067.0</ele><time>2026-04-26T08:12:37.043Z</time></trkpt><trkpt lat="45.8539783" lon="11.5344613"><ele>1067.0</ele><time>2026-04-26T08:12:38.042Z</time></trkpt><trkpt lat="45.8540734" lon="11.5342003"><ele>1068.0</ele><time>2026-04-26T08:12:39.041Z</time></trkpt><trkpt lat="45.8541714" lon="11.53394"><ele>1069.0</ele><time>2026-04-26T08:12:40.046Z</time></trkpt><trkpt lat="45.8542683" lon="11.5336756"><ele>1070.0</ele><time>2026-04-26T08:12:41.043Z</time></trkpt><trkpt lat="45.854355" lon="11.5333986"><ele>1068.0</ele><time>2026-04-26T08:12:42.044Z</time></trkpt><trkpt lat="45.8544407" lon="11.5331164"><ele>1066.0</ele><time>2026-04-26T08:12:43.066Z</time></trkpt><trkpt lat="45.8545308" lon="11.5328385"><ele>1064.0</ele><time>2026-04-26T08:12:44.036Z</time></trkpt><trkpt lat="45.8546274" lon="11.5325664"><ele>1064.0</ele><time>2026-04-26T08:12:45.029Z</time></trkpt><trkpt lat="45.8547265" lon="11.5322972"><ele>1064.0</ele><time>2026-04-26T08:12:46.036Z</time></trkpt><trkpt lat="45.8548074" lon="11.5320173"><ele>1064.0</ele><time>2026-04-26T08:12:47.025Z</time></trkpt><trkpt lat="45.8548999" lon="11.5317459"><ele>1065.0</ele><time>2026-04-26T08:12:48.033Z</time></trkpt><trkpt lat="45.8549902" lon="11.5314753"><ele>1066.0</ele><time>2026-04-26T08:12:49.04Z</time></trkpt><trkpt lat="45.8550845" lon="11.531204"><ele>1067.0</ele><time>2026-04-26T08:12:50.043Z</time></trkpt><trkpt lat="45.8551829" lon="11.530931"><ele>1067.0</ele><time>2026-04-26T08:12:51.033Z</time></trkpt><trkpt lat="45.8552764" lon="11.5306522"><ele>1067.0</ele><time>2026-04-26T08:12:52.037Z</time></trkpt><trkpt lat="45.8553808" lon="11.5303807"><ele>1067.0</ele><time>2026-04-26T08:12:53.033Z</time></trkpt><trkpt lat="45.8554759" lon="11.5301073"><ele>1067.0</ele><time>2026-04-26T08:12:54.034Z</time></trkpt><trkpt lat="45.8555707" lon="11.5298347"><ele>1067.0</ele><time>2026-04-26T08:12:55.038Z</time></trkpt><trkpt lat="45.8557193" lon="11.5295924"><ele>1067.0</ele><time>2026-04-26T08:12:56.028Z</time></trkpt><trkpt lat="45.8558482" lon="11.5293453"><ele>1064.0</ele><time>2026-04-26T08:12:57.041Z</time></trkpt><trkpt lat="45.8559622" lon="11.5290925"><ele>1061.0</ele><time>2026-04-26T08:12:58.038Z</time></trkpt><trkpt lat="45.8560541" lon="11.5288265"><ele>1058.0</ele><time>2026-04-26T08:12:59.037Z</time></trkpt><trkpt lat="45.8561321" lon="11.5285517"><ele>1057.0</ele><time>2026-04-26T08:13:00.049Z</time></trkpt><trkpt lat="45.8562088" lon="11.5282874"><ele>1056.0</ele><time>2026-04-26T08:13:01.025Z</time></trkpt><trkpt lat="45.8563001" lon="11.5280409"><ele>1055.0</ele><time>2026-04-26T08:13:02.049Z</time></trkpt><trkpt lat="45.8564028" lon="11.527807"><ele>1058.0</ele><time>2026-04-26T08:13:03.039Z</time></trkpt><trkpt lat="45.8565079" lon="11.5275759"><ele>1061.0</ele><time>2026-04-26T08:13:04.05Z</time></trkpt><trkpt lat="45.8566451" lon="11.5273825"><ele>1064.0</ele><time>2026-04-26T08:13:05.029Z</time></trkpt><trkpt lat="45.8567831" lon="11.5271979"><ele>1061.6666666666667</ele><time>2026-04-26T08:13:06.035Z</time></trkpt><trkpt lat="45.8569387" lon="11.5270297"><ele>1059.3333333333333</ele><time>2026-04-26T08:13:07.041Z</time></trkpt><trkpt lat="45.8570964" lon="11.5268764"><ele>1057.0</ele><time>2026-04-26T08:13:08.028Z</time></trkpt><trkpt lat="45.8572416" lon="11.526716"><ele>1057.0</ele><time>2026-04-26T08:13:09.045Z</time></trkpt><trkpt lat="45.857381" lon="11.5265671"><ele>1057.0</ele><time>2026-04-26T08:13:10.038Z</time></trkpt><trkpt lat="45.8575389" lon="11.5264652"><ele>1057.0</ele><time>2026-04-26T08:13:11.036Z</time></trkpt><trkpt lat="45.8577178" lon="11.5264377"><ele>1054.6666666666665</ele><time>2026-04-26T08:13:12.046Z</time></trkpt><trkpt lat="45.8579" lon="11.5264437"><ele>1052.3333333333333</ele><time>2026-04-26T08:13:13.032Z</time></trkpt><trkpt lat="45.8580793" lon="11.526452"><ele>1050.0</ele><time>2026-04-26T08:13:14.043Z</time></trkpt><trkpt lat="45.8582631" lon="11.5264221"><ele>1050.0</ele><time>2026-04-26T08:13:15.034Z</time></trkpt><trkpt lat="45.8584497" lon="11.526391"><ele>1050.0</ele><time>2026-04-26T08:13:16.036Z</time></trkpt><trkpt lat="45.8586411" lon="11.5263701"><ele>1050.0</ele><time>2026-04-26T08:13:17.041Z</time></trkpt><trkpt lat="45.8588344" lon="11.5263505"><ele>1050.3333333333333</ele><time>2026-04-26T08:13:18.036Z</time></trkpt><trkpt lat="45.8590265" lon="11.5263224"><ele>1050.6666666666665</ele><time>2026-04-26T08:13:19.03Z</time></trkpt><trkpt lat="45.8592139" lon="11.5263142"><ele>1051.0</ele><time>2026-04-26T08:13:20.03Z</time></trkpt><trkpt lat="45.8593956" lon="11.5263091"><ele>1050.0</ele><time>2026-04-26T08:13:21.025Z</time></trkpt><trkpt lat="45.8595686" lon="11.5262998"><ele>1049.0</ele><time>2026-04-26T08:13:22.058Z</time></trkpt><trkpt lat="45.8597336" lon="11.5262882"><ele>1048.0</ele><time>2026-04-26T08:13:23.058Z</time></trkpt><trkpt lat="45.8598874" lon="11.5262569"><ele>1047.6666666666665</ele><time>2026-04-26T08:13:24.028Z</time></trkpt><trkpt lat="45.8600405" lon="11.5262164"><ele>1047.3333333333333</ele><time>2026-04-26T08:13:25.038Z</time></trkpt><trkpt lat="45.8601673" lon="11.5260859"><ele>1047.0</ele><time>2026-04-26T08:13:26.038Z</time></trkpt><trkpt lat="45.8602887" lon="11.5259427"><ele>1047.0</ele><time>2026-04-26T08:13:27.034Z</time></trkpt><trkpt lat="45.8604041" lon="11.5257759"><ele>1047.0</ele><time>2026-04-26T08:13:28.031Z</time></trkpt><trkpt lat="45.8605262" lon="11.5256009"><ele>1047.0</ele><time>2026-04-26T08:13:29.038Z</time></trkpt><trkpt lat="45.8606577" lon="11.5254289"><ele>1046.3333333333333</ele><time>2026-04-26T08:13:30.035Z</time></trkpt><trkpt lat="45.8607903" lon="11.5252606"><ele>1045.6666666666665</ele><time>2026-04-26T08:13:31.03Z</time></trkpt><trkpt lat="45.8609043" lon="11.5250714"><ele>1045.0</ele><time>2026-04-26T08:13:32.037Z</time></trkpt><trkpt lat="45.8610188" lon="11.5248872"><ele>1042.6666666666665</ele><time>2026-04-26T08:13:33.048Z</time></trkpt><trkpt lat="45.8611396" lon="11.5247169"><ele>1040.3333333333333</ele><time>2026-04-26T08:13:34.037Z</time></trkpt><trkpt lat="45.8612637" lon="11.5245592"><ele>1038.0</ele><time>2026-04-26T08:13:35.034Z</time></trkpt><trkpt lat="45.8613969" lon="11.5244156"><ele>1038.0</ele><time>2026-04-26T08:13:36.025Z</time></trkpt><trkpt lat="45.8615549" lon="11.5243171"><ele>1038.0</ele><time>2026-04-26T08:13:37.054Z</time></trkpt><trkpt lat="45.8617255" lon="11.524298"><ele>1038.0</ele><time>2026-04-26T08:13:38.03Z</time></trkpt><trkpt lat="45.8619104" lon="11.5243685"><ele>1038.6666666666667</ele><time>2026-04-26T08:13:39.039Z</time></trkpt><trkpt lat="45.8620693" lon="11.5245157"><ele>1039.3333333333335</ele><time>2026-04-26T08:13:40.028Z</time></trkpt><trkpt lat="45.8622286" lon="11.5246447"><ele>1040.0</ele><time>2026-04-26T08:13:41.036Z</time></trkpt><trkpt lat="45.8623893" lon="11.5247222"><ele>1034.3333333333335</ele><time>2026-04-26T08:13:42.039Z</time></trkpt><trkpt lat="45.8625457" lon="11.5247436"><ele>1028.6666666666667</ele><time>2026-04-26T08:13:43.02Z</time></trkpt><trkpt lat="45.8626944" lon="11.524709"><ele>1023.0</ele><time>2026-04-26T08:13:44.053Z</time></trkpt><trkpt lat="45.8628308" lon="11.524651"><ele>1021.5</ele><time>2026-04-26T08:13:45.032Z</time></trkpt><trkpt lat="45.8629654" lon="11.5246062"><ele>1020.0</ele><time>2026-04-26T08:13:46.03Z</time></trkpt><trkpt lat="45.8630981" lon="11.5245433"><ele>1018.5</ele><time>2026-04-26T08:13:47.037Z</time></trkpt><trkpt lat="45.8632304" lon="11.5244726"><ele>1017.0</ele><time>2026-04-26T08:13:48.045Z</time></trkpt><trkpt lat="45.8633722" lon="11.5243516"><ele>1014.0</ele><time>2026-04-26T08:13:49.04Z</time></trkpt><trkpt lat="45.863517" lon="11.5241968"><ele>1011.0</ele><time>2026-04-26T08:13:50.058Z</time></trkpt><trkpt lat="45.8636848" lon="11.5240276"><ele>1008.0</ele><time>2026-04-26T08:13:51.042Z</time></trkpt><trkpt lat="45.8638767" lon="11.5238783"><ele>1017.0</ele><time>2026-04-26T08:13:52.04Z</time></trkpt><trkpt lat="45.8640675" lon="11.5237196"><ele>1026.0</ele><time>2026-04-26T08:13:53.041Z</time></trkpt><trkpt lat="45.8642586" lon="11.5235282"><ele>1019.3333333333333</ele><time>2026-04-26T08:13:54.031Z</time></trkpt><trkpt lat="45.8644493" lon="11.5233494"><ele>1012.6666666666666</ele><time>2026-04-26T08:13:55.038Z</time></trkpt><trkpt lat="45.8646374" lon="11.5231871"><ele>1006.0</ele><time>2026-04-26T08:13:56.031Z</time></trkpt><trkpt lat="45.864819" lon="11.5230409"><ele>1005.3333333333333</ele><time>2026-04-26T08:13:57.028Z</time></trkpt><trkpt lat="45.8649899" lon="11.5228955"><ele>1004.6666666666667</ele><time>2026-04-26T08:13:58.024Z</time></trkpt><trkpt lat="45.8651533" lon="11.5227509"><ele>1004.0</ele><time>2026-04-26T08:13:59.041Z</time></trkpt><trkpt lat="45.8653023" lon="11.5226012"><ele>1004.0</ele><time>2026-04-26T08:14:00.038Z</time></trkpt><trkpt lat="45.8654394" lon="11.5224293"><ele>1004.0</ele><time>2026-04-26T08:14:01.044Z</time></trkpt><trkpt lat="45.8655782" lon="11.5222423"><ele>1004.0</ele><time>2026-04-26T08:14:02.03Z</time></trkpt><trkpt lat="45.8657109" lon="11.5220213"><ele>1003.3333333333334</ele><time>2026-04-26T08:14:03.042Z</time></trkpt><trkpt lat="45.8658409" lon="11.5217764"><ele>1002.6666666666667</ele><time>2026-04-26T08:14:04.033Z</time></trkpt><trkpt lat="45.8659882" lon="11.5215333"><ele>1002.0</ele><time>2026-04-26T08:14:05.027Z</time></trkpt><trkpt lat="45.8661368" lon="11.5212849"><ele>1000.5</ele><time>2026-04-26T08:14:06.037Z</time></trkpt><trkpt lat="45.8662994" lon="11.5210381"><ele>999.0</ele><time>2026-04-26T08:14:07.044Z</time></trkpt><trkpt lat="45.8664535" lon="11.5207797"><ele>999.0</ele><time>2026-04-26T08:14:08.044Z</time></trkpt><trkpt lat="45.8665819" lon="11.520504"><ele>999.0</ele><time>2026-04-26T08:14:09.034Z</time></trkpt><trkpt lat="45.8667129" lon="11.5202467"><ele>998.6666666666667</ele><time>2026-04-26T08:14:10.044Z</time></trkpt><trkpt lat="45.86684" lon="11.5199977"><ele>998.3333333333334</ele><time>2026-04-26T08:14:11.041Z</time></trkpt><trkpt lat="45.8669667" lon="11.5197625"><ele>998.0</ele><time>2026-04-26T08:14:12.034Z</time></trkpt><trkpt lat="45.8670816" lon="11.5195293"><ele>998.0</ele><time>2026-04-26T08:14:13.023Z</time></trkpt><trkpt lat="45.8671817" lon="11.5192995"><ele>998.0</ele><time>2026-04-26T08:14:14.048Z</time></trkpt><trkpt lat="45.8672844" lon="11.5190864"><ele>998.0</ele><time>2026-04-26T08:14:15.043Z</time></trkpt><trkpt lat="45.8673826" lon="11.5188833"><ele>998.0</ele><time>2026-04-26T08:14:16.031Z</time></trkpt><trkpt lat="45.8674751" lon="11.5186877"><ele>998.0</ele><time>2026-04-26T08:14:17.027Z</time></trkpt><trkpt lat="45.867557" lon="11.518493"><ele>998.0</ele><time>2026-04-26T08:14:18.035Z</time></trkpt><trkpt lat="45.8676463" lon="11.5183118"><ele>997.5</ele><time>2026-04-26T08:14:19.03Z</time></trkpt><trkpt lat="45.8677342" lon="11.5181402"><ele>997.0</ele><time>2026-04-26T08:14:20.047Z</time></trkpt><trkpt lat="45.8678144" lon="11.5179734"><ele>996.5</ele><time>2026-04-26T08:14:21.035Z</time></trkpt><trkpt lat="45.8678878" lon="11.5178022"><ele>996.0</ele><time>2026-04-26T08:14:22.035Z</time></trkpt><trkpt lat="45.8679617" lon="11.5176241"><ele>995.75</ele><time>2026-04-26T08:14:23.036Z</time></trkpt><trkpt lat="45.868041" lon="11.5174485"><ele>995.5</ele><time>2026-04-26T08:14:24.039Z</time></trkpt><trkpt lat="45.8681314" lon="11.5172857"><ele>995.25</ele><time>2026-04-26T08:14:25.038Z</time></trkpt><trkpt lat="45.8682179" lon="11.5171171"><ele>995.0</ele><time>2026-04-26T08:14:26.048Z</time></trkpt><trkpt lat="45.8682787" lon="11.516939"><ele>994.5</ele><time>2026-04-26T08:14:27.035Z</time></trkpt><trkpt lat="45.8683442" lon="11.5167775"><ele>994.0</ele><time>2026-04-26T08:14:28.026Z</time></trkpt><trkpt lat="45.8684219" lon="11.5166256"><ele>993.5</ele><time>2026-04-26T08:14:29.026Z</time></trkpt><trkpt lat="45.8685069" lon="11.5164601"><ele>993.0</ele><time>2026-04-26T08:14:30.017Z</time></trkpt><trkpt lat="45.8685932" lon="11.5162689"><ele>993.3333333333333</ele><time>2026-04-26T08:14:31.038Z</time></trkpt><trkpt lat="45.8686846" lon="11.5160527"><ele>993.6666666666666</ele><time>2026-04-26T08:14:32.03Z</time></trkpt><trkpt lat="45.8687843" lon="11.5158195"><ele>994.0</ele><time>2026-04-26T08:14:33.035Z</time></trkpt><trkpt lat="45.8688918" lon="11.5155789"><ele>993.6666666666666</ele><time>2026-04-26T08:14:34.035Z</time></trkpt><trkpt lat="45.8690212" lon="11.5153485"><ele>993.3333333333333</ele><time>2026-04-26T08:14:35.027Z</time></trkpt><trkpt lat="45.8691369" lon="11.5151134"><ele>993.0</ele><time>2026-04-26T08:14:36.028Z</time></trkpt><trkpt lat="45.8692418" lon="11.5148863"><ele>997.3333333333333</ele><time>2026-04-26T08:14:37.035Z</time></trkpt><trkpt lat="45.8693044" lon="11.5146521"><ele>1001.6666666666666</ele><time>2026-04-26T08:14:38.033Z</time></trkpt><trkpt lat="45.8693552" lon="11.5144245"><ele>1006.0</ele><time>2026-04-26T08:14:39.046Z</time></trkpt><trkpt lat="45.869392" lon="11.5142045"><ele>1006.0</ele><time>2026-04-26T08:14:40.035Z</time></trkpt><trkpt lat="45.8694513" lon="11.5140048"><ele>1006.0</ele><time>2026-04-26T08:14:41.046Z</time></trkpt><trkpt lat="45.8695032" lon="11.5138141"><ele>1006.0</ele><time>2026-04-26T08:14:42.024Z</time></trkpt><trkpt lat="45.8695707" lon="11.5136406"><ele>1006.0</ele><time>2026-04-26T08:14:43.022Z</time></trkpt><trkpt lat="45.8696644" lon="11.5134969"><ele>1005.0</ele><time>2026-04-26T08:14:44.035Z</time></trkpt><trkpt lat="45.8697688" lon="11.5133663"><ele>1004.0</ele><time>2026-04-26T08:14:45.025Z</time></trkpt><trkpt lat="45.8698835" lon="11.5132583"><ele>1003.0</ele><time>2026-04-26T08:14:46.036Z</time></trkpt><trkpt lat="45.8700182" lon="11.5131602"><ele>1002.0</ele><time>2026-04-26T08:14:47.039Z</time></trkpt><trkpt lat="45.8701546" lon="11.5130405"><ele>1002.0</ele><time>2026-04-26T08:14:48.03Z</time></trkpt><trkpt lat="45.870306" lon="11.512936"><ele>1002.0</ele><time>2026-04-26T08:14:49.018Z</time></trkpt><trkpt lat="45.8704619" lon="11.5128268"><ele>1002.0</ele><time>2026-04-26T08:14:50.035Z</time></trkpt><trkpt lat="45.8706086" lon="11.5127007"><ele>1001.25</ele><time>2026-04-26T08:14:51.03Z</time></trkpt><trkpt lat="45.8707461" lon="11.5125903"><ele>1000.5</ele><time>2026-04-26T08:14:52.029Z</time></trkpt><trkpt lat="45.8708719" lon="11.5124922"><ele>999.75</ele><time>2026-04-26T08:14:53.045Z</time></trkpt><trkpt lat="45.8709823" lon="11.5123873"><ele>999.0</ele><time>2026-04-26T08:14:54.034Z</time></trkpt><trkpt lat="45.8710866" lon="11.512277"><ele>999.0</ele><time>2026-04-26T08:14:55.028Z</time></trkpt><trkpt lat="45.8711864" lon="11.5121667"><ele>999.0</ele><time>2026-04-26T08:14:56.042Z</time></trkpt><trkpt lat="45.8712806" lon="11.5120588"><ele>999.0</ele><time>2026-04-26T08:14:57.033Z</time></trkpt><trkpt lat="45.8713662" lon="11.5119527"><ele>999.0</ele><time>2026-04-26T08:14:58.03Z</time></trkpt><trkpt lat="45.8714492" lon="11.5118662"><ele>998.6</ele><time>2026-04-26T08:14:59.036Z</time></trkpt><trkpt lat="45.8715103" lon="11.5117875"><ele>998.2</ele><time>2026-04-26T08:15:00.059Z</time></trkpt><trkpt lat="45.8716032" lon="11.5116797"><ele>997.8000000000001</ele><time>2026-04-26T08:15:02.023Z</time></trkpt><trkpt lat="45.8717204" lon="11.5116089"><ele>997.4000000000001</ele><time>2026-04-26T08:15:04.014Z</time></trkpt><trkpt lat="45.8717953" lon="11.5115914"><ele>997.0</ele><time>2026-04-26T08:15:05.032Z</time></trkpt><trkpt lat="45.8718702" lon="11.5115549"><ele>997.0</ele><time>2026-04-26T08:15:06.038Z</time></trkpt><trkpt lat="45.8719474" lon="11.5115084"><ele>997.0</ele><time>2026-04-26T08:15:07.037Z</time></trkpt><trkpt lat="45.8720355" lon="11.5114828"><ele>997.0</ele><time>2026-04-26T08:15:08.043Z</time></trkpt><trkpt lat="45.8721298" lon="11.5114667"><ele>997.0</ele><time>2026-04-26T08:15:09.018Z</time></trkpt><trkpt lat="45.8722303" lon="11.5114681"><ele>997.0</ele><time>2026-04-26T08:15:10.03Z</time></trkpt><trkpt lat="45.8723371" lon="11.5114503"><ele>997.0</ele><time>2026-04-26T08:15:11.034Z</time></trkpt><trkpt lat="45.8724479" lon="11.5114364"><ele>997.0</ele><time>2026-04-26T08:15:12.033Z</time></trkpt><trkpt lat="45.8725544" lon="11.5114115"><ele>997.0</ele><time>2026-04-26T08:15:13.054Z</time></trkpt><trkpt lat="45.8726625" lon="11.5113921"><ele>997.0</ele><time>2026-04-26T08:15:14.026Z</time></trkpt><trkpt lat="45.8727698" lon="11.5113845"><ele>997.0</ele><time>2026-04-26T08:15:15.034Z</time></trkpt><trkpt lat="45.8728696" lon="11.511345"><ele>997.3333333333333</ele><time>2026-04-26T08:15:16.024Z</time></trkpt><trkpt lat="45.8729581" lon="11.5112856"><ele>997.6666666666666</ele><time>2026-04-26T08:15:17.026Z</time></trkpt><trkpt lat="45.8730345" lon="11.5112531"><ele>998.0</ele><time>2026-04-26T08:15:18.029Z</time></trkpt><trkpt lat="45.8731329" lon="11.5111963"><ele>998.3333333333333</ele><time>2026-04-26T08:15:20.021Z</time></trkpt><trkpt lat="45.873165" lon="11.5111184"><ele>998.6666666666666</ele><time>2026-04-26T08:15:22.033Z</time></trkpt><trkpt lat="45.8731116" lon="11.5110653"><ele>999.0</ele><time>2026-04-26T08:16:04.034Z</time></trkpt><trkpt lat="45.8731207" lon="11.5109491"><ele>998.2</ele><time>2026-04-26T08:16:06.034Z</time></trkpt><trkpt lat="45.8730389" lon="11.5109133"><ele>997.4000000000001</ele><time>2026-04-26T08:16:07.033Z</time></trkpt><trkpt lat="45.872926" lon="11.5109492"><ele>996.6</ele><time>2026-04-26T08:16:08.03Z</time></trkpt><trkpt lat="45.8728407" lon="11.5109889"><ele>995.8</ele><time>2026-04-26T08:16:09.032Z</time></trkpt><trkpt lat="45.8727696" lon="11.5110144"><ele>995.0</ele><time>2026-04-26T08:16:10.036Z</time></trkpt><trkpt lat="45.8726629" lon="11.511042"><ele>995.3333333333334</ele><time>2026-04-26T08:16:12.032Z</time></trkpt><trkpt lat="45.8725758" lon="11.5110386"><ele>995.6666666666667</ele><time>2026-04-26T08:16:14.021Z</time></trkpt><trkpt lat="45.8725331" lon="11.51097"><ele>996.0</ele><time>2026-04-26T08:16:15.036Z</time></trkpt><trkpt lat="45.8724837" lon="11.5108878"><ele>996.3333333333333</ele><time>2026-04-26T08:16:16.039Z</time></trkpt><trkpt lat="45.8724347" lon="11.5107781"><ele>996.6666666666666</ele><time>2026-04-26T08:16:17.015Z</time></trkpt><trkpt lat="45.8723785" lon="11.5106786"><ele>997.0</ele><time>2026-04-26T08:16:18.026Z</time></trkpt><trkpt lat="45.8723291" lon="11.5105854"><ele>996.9999999999999</ele><time>2026-04-26T08:16:19.028Z</time></trkpt><trkpt lat="45.8722648" lon="11.5105291"><ele>997.0</ele><time>2026-04-26T08:16:20.035Z</time></trkpt><trkpt lat="45.8722256" lon="11.5103796"><ele>997.0</ele><time>2026-04-26T08:16:22.043Z</time></trkpt><trkpt lat="45.8721936" lon="11.5102721"><ele>997.0</ele><time>2026-04-26T08:16:25.038Z</time></trkpt><trkpt lat="45.8721838" lon="11.5101792"><ele>996.9999999999999</ele><time>2026-04-26T08:16:33.04Z</time></trkpt><trkpt lat="45.8721725" lon="11.5100781"><ele>997.0</ele><time>2026-04-26T08:16:35.044Z</time></trkpt><trkpt lat="45.8721914" lon="11.5099571"><ele>996.8</ele><time>2026-04-26T08:16:37.034Z</time></trkpt><trkpt lat="45.8721863" lon="11.5098143"><ele>996.6</ele><time>2026-04-26T08:16:39.028Z</time></trkpt><trkpt lat="45.8722278" lon="11.5096361"><ele>996.3999999999999</ele><time>2026-04-26T08:16:41.03Z</time></trkpt><trkpt lat="45.8722464" lon="11.5095229"><ele>996.1999999999999</ele><time>2026-04-26T08:16:42.032Z</time></trkpt><trkpt lat="45.8722482" lon="11.5093982"><ele>996.0</ele><time>2026-04-26T08:16:43.027Z</time></trkpt><trkpt lat="45.8722476" lon="11.5092807"><ele>996.0</ele><time>2026-04-26T08:16:44.021Z</time></trkpt><trkpt lat="45.872253" lon="11.5091724"><ele>996.0</ele><time>2026-04-26T08:16:45.031Z</time></trkpt><trkpt lat="45.8722591" lon="11.5090728"><ele>996.0</ele><time>2026-04-26T08:16:46.019Z</time></trkpt><trkpt lat="45.8723033" lon="11.5089172"><ele>996.0</ele><time>2026-04-26T08:16:48.017Z</time></trkpt><trkpt lat="45.8723231" lon="11.508799"><ele>996.0</ele><time>2026-04-26T08:16:50.024Z</time></trkpt><trkpt lat="45.8723369" lon="11.5086906"><ele>996.0</ele><time>2026-04-26T08:16:52.036Z</time></trkpt><trkpt lat="45.8723578" lon="11.5085795"><ele>996.6666666666666</ele><time>2026-04-26T08:16:54.028Z</time></trkpt><trkpt lat="45.8723719" lon="11.5084636"><ele>997.3333333333333</ele><time>2026-04-26T08:16:56.016Z</time></trkpt><trkpt lat="45.8723841" lon="11.5083713"><ele>998.0</ele><time>2026-04-26T08:16:58.023Z</time></trkpt><trkpt lat="45.8723973" lon="11.5082611"><ele>998.6666666666666</ele><time>2026-04-26T08:17:01.025Z</time></trkpt><trkpt lat="45.8723891" lon="11.5081588"><ele>999.3333333333333</ele><time>2026-04-26T08:17:57.036Z</time></trkpt><trkpt lat="45.8724141" lon="11.5079854"><ele>1000.0</ele><time>2026-04-26T08:17:59.039Z</time></trkpt><trkpt lat="45.8724293" lon="11.5078833"><ele>1000.3333333333333</ele><time>2026-04-26T08:18:00.049Z</time></trkpt><trkpt lat="45.8724499" lon="11.5077662"><ele>1000.6666666666666</ele><time>2026-04-26T08:18:01.038Z</time></trkpt><trkpt lat="45.8724728" lon="11.5076414"><ele>1001.0</ele><time>2026-04-26T08:18:02.043Z</time></trkpt><trkpt lat="45.8724946" lon="11.5075243"><ele>1001.3333333333333</ele><time>2026-04-26T08:18:03.039Z</time></trkpt><trkpt lat="45.8725135" lon="11.507408"><ele>1001.6666666666666</ele><time>2026-04-26T08:18:04.033Z</time></trkpt><trkpt lat="45.8725306" lon="11.5072999"><ele>1002.0</ele><time>2026-04-26T08:18:05.048Z</time></trkpt><trkpt lat="45.8725536" lon="11.5072048"><ele>1002.0</ele><time>2026-04-26T08:18:06.031Z</time></trkpt><trkpt lat="45.8725851" lon="11.5071169"><ele>1002.0</ele><time>2026-04-26T08:18:07.034Z</time></trkpt><trkpt lat="45.8726298" lon="11.5070335"><ele>1002.0</ele><time>2026-04-26T08:18:08.038Z</time></trkpt><trkpt lat="45.8726852" lon="11.5069571"><ele>1002.0</ele><time>2026-04-26T08:18:09.036Z</time></trkpt><trkpt lat="45.8727445" lon="11.5068783"><ele>1002.0</ele><time>2026-04-26T08:18:10.049Z</time></trkpt><trkpt lat="45.8728078" lon="11.5067974"><ele>1002.0</ele><time>2026-04-26T08:18:11.034Z</time></trkpt><trkpt lat="45.8728731" lon="11.5067142"><ele>1002.2</ele><time>2026-04-26T08:18:12.038Z</time></trkpt><trkpt lat="45.8729398" lon="11.5066294"><ele>1002.4000000000001</ele><time>2026-04-26T08:18:13.028Z</time></trkpt><trkpt lat="45.8730095" lon="11.506544"><ele>1002.5999999999999</ele><time>2026-04-26T08:18:14.031Z</time></trkpt><trkpt lat="45.8730813" lon="11.5064617"><ele>1002.8</ele><time>2026-04-26T08:18:15.034Z</time></trkpt><trkpt lat="45.8731509" lon="11.5063704"><ele>1003.0</ele><time>2026-04-26T08:18:16.027Z</time></trkpt><trkpt lat="45.8732101" lon="11.5062606"><ele>1003.3333333333333</ele><time>2026-04-26T08:18:17.032Z</time></trkpt><trkpt lat="45.8732612" lon="11.5061415"><ele>1003.6666666666666</ele><time>2026-04-26T08:18:18.034Z</time></trkpt><trkpt lat="45.8732893" lon="11.5060288"><ele>1004.0</ele><time>2026-04-26T08:18:19.034Z</time></trkpt><trkpt lat="45.8733024" lon="11.5059248"><ele>1004.3333333333333</ele><time>2026-04-26T08:18:20.034Z</time></trkpt><trkpt lat="45.8733482" lon="11.5058174"><ele>1004.6666666666666</ele><time>2026-04-26T08:18:22.031Z</time></trkpt><trkpt lat="45.8734075" lon="11.5057488"><ele>1005.0</ele><time>2026-04-26T08:18:28.041Z</time></trkpt><trkpt lat="45.8734597" lon="11.5056568"><ele>1005.8333333333334</ele><time>2026-04-26T08:18:30.051Z</time></trkpt><trkpt lat="45.8734998" lon="11.5055254"><ele>1006.6666666666667</ele><time>2026-04-26T08:18:32.03Z</time></trkpt><trkpt lat="45.8734967" lon="11.505426"><ele>1007.5</ele><time>2026-04-26T08:18:33.037Z</time></trkpt><trkpt lat="45.8734725" lon="11.5053089"><ele>1008.3333333333334</ele><time>2026-04-26T08:18:34.036Z</time></trkpt><trkpt lat="45.8734538" lon="11.5051806"><ele>1009.1666666666667</ele><time>2026-04-26T08:18:35.042Z</time></trkpt><trkpt lat="45.8734243" lon="11.505046"><ele>1010.0</ele><time>2026-04-26T08:18:36.033Z</time></trkpt><trkpt lat="45.8734009" lon="11.504912"><ele>1010.0</ele><time>2026-04-26T08:18:37.041Z</time></trkpt><trkpt lat="45.8733639" lon="11.5047757"><ele>1010.0</ele><time>2026-04-26T08:18:38.034Z</time></trkpt><trkpt lat="45.8733264" lon="11.5046314"><ele>1010.0</ele><time>2026-04-26T08:18:39.044Z</time></trkpt><trkpt lat="45.8732843" lon="11.5044832"><ele>1010.0</ele><time>2026-04-26T08:18:40.042Z</time></trkpt><trkpt lat="45.8732324" lon="11.5043353"><ele>1010.0</ele><time>2026-04-26T08:18:41.044Z</time></trkpt><trkpt lat="45.8731821" lon="11.5041787"><ele>1010.25</ele><time>2026-04-26T08:18:42.032Z</time></trkpt><trkpt lat="45.8731298" lon="11.5040188"><ele>1010.5</ele><time>2026-04-26T08:18:43.034Z</time></trkpt><trkpt lat="45.873081" lon="11.5038577"><ele>1010.75</ele><time>2026-04-26T08:18:44.026Z</time></trkpt><trkpt lat="45.8730336" lon="11.5036953"><ele>1011.0</ele><time>2026-04-26T08:18:45.054Z</time></trkpt><trkpt lat="45.8729859" lon="11.503528"><ele>1011.25</ele><time>2026-04-26T08:18:46.06Z</time></trkpt><trkpt lat="45.8729378" lon="11.5033663"><ele>1011.5</ele><time>2026-04-26T08:18:47.035Z</time></trkpt><trkpt lat="45.8728912" lon="11.5032108"><ele>1011.75</ele><time>2026-04-26T08:18:48.036Z</time></trkpt><trkpt lat="45.8728413" lon="11.5030617"><ele>1012.0</ele><time>2026-04-26T08:18:49.04Z</time></trkpt><trkpt lat="45.8727863" lon="11.5029178"><ele>1012.4000000000001</ele><time>2026-04-26T08:18:50.035Z</time></trkpt><trkpt lat="45.8727312" lon="11.5027767"><ele>1012.8000000000001</ele><time>2026-04-26T08:18:51.038Z</time></trkpt><trkpt lat="45.8726769" lon="11.5026351"><ele>1013.2</ele><time>2026-04-26T08:18:52.042Z</time></trkpt><trkpt lat="45.8726188" lon="11.5024975"><ele>1013.6</ele><time>2026-04-26T08:18:53.037Z</time></trkpt><trkpt lat="45.8725612" lon="11.5023591"><ele>1014.0</ele><time>2026-04-26T08:18:54.039Z</time></trkpt><trkpt lat="45.872506" lon="11.5022183"><ele>1011.75</ele><time>2026-04-26T08:18:55.044Z</time></trkpt><trkpt lat="45.8724496" lon="11.5020761"><ele>1009.5</ele><time>2026-04-26T08:18:56.04Z</time></trkpt><trkpt lat="45.8723949" lon="11.5019337"><ele>1007.25</ele><time>2026-04-26T08:18:57.042Z</time></trkpt><trkpt lat="45.8723353" lon="11.5017916"><ele>1005.0</ele><time>2026-04-26T08:18:58.05Z</time></trkpt><trkpt lat="45.8722728" lon="11.5016528"><ele>1005.0</ele><time>2026-04-26T08:18:59.046Z</time></trkpt><trkpt lat="45.8721995" lon="11.501513"><ele>1005.0</ele><time>2026-04-26T08:19:00.038Z</time></trkpt><trkpt lat="45.8721179" lon="11.5013759"><ele>1005.0</ele><time>2026-04-26T08:19:01.037Z</time></trkpt><trkpt lat="45.8720394" lon="11.5012308"><ele>1005.0</ele><time>2026-04-26T08:19:02.048Z</time></trkpt><trkpt lat="45.8719562" lon="11.501091"><ele>1005.5</ele><time>2026-04-26T08:19:03.046Z</time></trkpt><trkpt lat="45.8718667" lon="11.5009647"><ele>1006.0</ele><time>2026-04-26T08:19:04.037Z</time></trkpt><trkpt lat="45.8717827" lon="11.5008277"><ele>1006.5</ele><time>2026-04-26T08:19:05.039Z</time></trkpt><trkpt lat="45.8716951" lon="11.5006951"><ele>1007.0</ele><time>2026-04-26T08:19:06.035Z</time></trkpt><trkpt lat="45.8716008" lon="11.5005684"><ele>1004.5</ele><time>2026-04-26T08:19:07.034Z</time></trkpt><trkpt lat="45.8715051" lon="11.5004329"><ele>1002.0</ele><time>2026-04-26T08:19:08.031Z</time></trkpt><trkpt lat="45.8714092" lon="11.5002927"><ele>999.5</ele><time>2026-04-26T08:19:09.032Z</time></trkpt><trkpt lat="45.8713135" lon="11.5001497"><ele>997.0</ele><time>2026-04-26T08:19:10.03Z</time></trkpt><trkpt lat="45.8712152" lon="11.5000047"><ele>996.75</ele><time>2026-04-26T08:19:11.044Z</time></trkpt><trkpt lat="45.8711131" lon="11.4998554"><ele>996.5</ele><time>2026-04-26T08:19:12.04Z</time></trkpt><trkpt lat="45.871012" lon="11.4997028"><ele>996.25</ele><time>2026-04-26T08:19:13.047Z</time></trkpt><trkpt lat="45.8709161" lon="11.4995407"><ele>996.0</ele><time>2026-04-26T08:19:14.065Z</time></trkpt><trkpt lat="45.8708219" lon="11.4993852"><ele>994.5</ele><time>2026-04-26T08:19:15.044Z</time></trkpt><trkpt lat="45.8707323" lon="11.499229"><ele>993.0</ele><time>2026-04-26T08:19:16.033Z</time></trkpt><trkpt lat="45.8706396" lon="11.4990833"><ele>991.5</ele><time>2026-04-26T08:19:17.029Z</time></trkpt><trkpt lat="45.8705467" lon="11.4989426"><ele>990.0</ele><time>2026-04-26T08:19:18.031Z</time></trkpt><trkpt lat="45.8704518" lon="11.4988038"><ele>990.5</ele><time>2026-04-26T08:19:19.038Z</time></trkpt><trkpt lat="45.8703587" lon="11.4986531"><ele>991.0</ele><time>2026-04-26T08:19:20.028Z</time></trkpt><trkpt lat="45.8702637" lon="11.4984983"><ele>991.5</ele><time>2026-04-26T08:19:21.04Z</time></trkpt><trkpt lat="45.8701655" lon="11.4983439"><ele>992.0</ele><time>2026-04-26T08:19:22.033Z</time></trkpt><trkpt lat="45.8700665" lon="11.4981901"><ele>990.5</ele><time>2026-04-26T08:19:23.032Z</time></trkpt><trkpt lat="45.8699666" lon="11.4980363"><ele>989.0</ele><time>2026-04-26T08:19:24.027Z</time></trkpt><trkpt lat="45.8698695" lon="11.4978803"><ele>987.5</ele><time>2026-04-26T08:19:25.038Z</time></trkpt><trkpt lat="45.8697683" lon="11.4977331"><ele>986.0</ele><time>2026-04-26T08:19:26.039Z</time></trkpt><trkpt lat="45.8696655" lon="11.4975886"><ele>985.5</ele><time>2026-04-26T08:19:27.036Z</time></trkpt><trkpt lat="45.8695695" lon="11.497437"><ele>985.0</ele><time>2026-04-26T08:19:28.045Z</time></trkpt><trkpt lat="45.869472" lon="11.4972896"><ele>984.5</ele><time>2026-04-26T08:19:29.038Z</time></trkpt><trkpt lat="45.869381" lon="11.497138"><ele>984.0</ele><time>2026-04-26T08:19:30.026Z</time></trkpt><trkpt lat="45.869291" lon="11.4969914"><ele>983.5</ele><time>2026-04-26T08:19:31.036Z</time></trkpt><trkpt lat="45.8692071" lon="11.4968458"><ele>983.0</ele><time>2026-04-26T08:19:32.023Z</time></trkpt><trkpt lat="45.8691235" lon="11.4967027"><ele>982.5</ele><time>2026-04-26T08:19:33.029Z</time></trkpt><trkpt lat="45.8690386" lon="11.4965592"><ele>982.0</ele><time>2026-04-26T08:19:34.029Z</time></trkpt><trkpt lat="45.8689551" lon="11.4964075"><ele>983.0</ele><time>2026-04-26T08:19:35.068Z</time></trkpt><trkpt lat="45.8688765" lon="11.4962441"><ele>984.0</ele><time>2026-04-26T08:19:36.056Z</time></trkpt><trkpt lat="45.8688036" lon="11.4960688"><ele>985.0</ele><time>2026-04-26T08:19:37.029Z</time></trkpt><trkpt lat="45.8687319" lon="11.4958885"><ele>986.0</ele><time>2026-04-26T08:19:38.057Z</time></trkpt><trkpt lat="45.8686656" lon="11.4956988"><ele>986.0</ele><time>2026-04-26T08:19:39.037Z</time></trkpt><trkpt lat="45.868599" lon="11.495504"><ele>986.0</ele><time>2026-04-26T08:19:40.04Z</time></trkpt><trkpt lat="45.8685321" lon="11.4953041"><ele>986.0</ele><time>2026-04-26T08:19:41.034Z</time></trkpt><trkpt lat="45.8684631" lon="11.4951024"><ele>986.75</ele><time>2026-04-26T08:19:42.029Z</time></trkpt><trkpt lat="45.8683959" lon="11.4949086"><ele>987.5</ele><time>2026-04-26T08:19:43.054Z</time></trkpt><trkpt lat="45.8683348" lon="11.4947229"><ele>988.25</ele><time>2026-04-26T08:19:44.031Z</time></trkpt><trkpt lat="45.8682802" lon="11.4945432"><ele>989.0</ele><time>2026-04-26T08:19:45.021Z</time></trkpt><trkpt lat="45.8682306" lon="11.4943609"><ele>991.0</ele><time>2026-04-26T08:19:46.033Z</time></trkpt><trkpt lat="45.8681873" lon="11.4941702"><ele>993.0</ele><time>2026-04-26T08:19:47.039Z</time></trkpt><trkpt lat="45.8681517" lon="11.4939711"><ele>995.0</ele><time>2026-04-26T08:19:48.035Z</time></trkpt><trkpt lat="45.8681229" lon="11.4937684"><ele>997.0</ele><time>2026-04-26T08:19:49.045Z</time></trkpt><trkpt lat="45.8681009" lon="11.493561"><ele>998.6666666666666</ele><time>2026-04-26T08:19:50.05Z</time></trkpt><trkpt lat="45.8681063" lon="11.4933428"><ele>1000.3333333333333</ele><time>2026-04-26T08:19:51.036Z</time></trkpt><trkpt lat="45.8681299" lon="11.4931197"><ele>1002.0</ele><time>2026-04-26T08:19:52.039Z</time></trkpt><trkpt lat="45.8681725" lon="11.4929013"><ele>1004.0</ele><time>2026-04-26T08:19:53.042Z</time></trkpt><trkpt lat="45.8682228" lon="11.4926842"><ele>1006.0</ele><time>2026-04-26T08:19:54.031Z</time></trkpt><trkpt lat="45.8682851" lon="11.4924732"><ele>1008.0</ele><time>2026-04-26T08:19:55.046Z</time></trkpt><trkpt lat="45.8683633" lon="11.4922728"><ele>1007.0</ele><time>2026-04-26T08:19:56.038Z</time></trkpt><trkpt lat="45.8684562" lon="11.4920879"><ele>1006.0</ele><time>2026-04-26T08:19:57.042Z</time></trkpt><trkpt lat="45.868555" lon="11.4919088"><ele>1005.0</ele><time>2026-04-26T08:19:58.036Z</time></trkpt><trkpt lat="45.8686566" lon="11.4917315"><ele>1005.0</ele><time>2026-04-26T08:19:59.04Z</time></trkpt><trkpt lat="45.8687528" lon="11.49155"><ele>1005.0</ele><time>2026-04-26T08:20:00.038Z</time></trkpt><trkpt lat="45.8688435" lon="11.4913665"><ele>1005.0</ele><time>2026-04-26T08:20:01.036Z</time></trkpt><trkpt lat="45.8689282" lon="11.4911796"><ele>1007.0</ele><time>2026-04-26T08:20:02.038Z</time></trkpt><trkpt lat="45.8690136" lon="11.4909941"><ele>1009.0</ele><time>2026-04-26T08:20:03.035Z</time></trkpt><trkpt lat="45.8691046" lon="11.4908134"><ele>1011.0</ele><time>2026-04-26T08:20:04.034Z</time></trkpt><trkpt lat="45.8691975" lon="11.4906365"><ele>1011.5</ele><time>2026-04-26T08:20:05.036Z</time></trkpt><trkpt lat="45.8692879" lon="11.4904592"><ele>1012.0</ele><time>2026-04-26T08:20:06.047Z</time></trkpt><trkpt lat="45.8693781" lon="11.4902853"><ele>1012.5</ele><time>2026-04-26T08:20:07.033Z</time></trkpt><trkpt lat="45.8694586" lon="11.4901115"><ele>1013.0</ele><time>2026-04-26T08:20:08.04Z</time></trkpt><trkpt lat="45.8695321" lon="11.4899405"><ele>1013.0</ele><time>2026-04-26T08:20:09.046Z</time></trkpt><trkpt lat="45.8696058" lon="11.4897872"><ele>1013.0</ele><time>2026-04-26T08:20:10.046Z</time></trkpt><trkpt lat="45.8696684" lon="11.4896451"><ele>1013.0</ele><time>2026-04-26T08:20:11.054Z</time></trkpt><trkpt lat="45.8697053" lon="11.4894958"><ele>1013.0</ele><time>2026-04-26T08:20:12.029Z</time></trkpt><trkpt lat="45.8697123" lon="11.489343"><ele>1014.8</ele><time>2026-04-26T08:20:13.032Z</time></trkpt><trkpt lat="45.8696933" lon="11.4891954"><ele>1016.5999999999999</ele><time>2026-04-26T08:20:14.026Z</time></trkpt><trkpt lat="45.8696556" lon="11.4890564"><ele>1018.4000000000001</ele><time>2026-04-26T08:20:15.036Z</time></trkpt><trkpt lat="45.8695995" lon="11.4889264"><ele>1020.2</ele><time>2026-04-26T08:20:16.046Z</time></trkpt><trkpt lat="45.8695362" lon="11.4887816"><ele>1022.0</ele><time>2026-04-26T08:20:17.043Z</time></trkpt><trkpt lat="45.869458" lon="11.4886498"><ele>1022.0</ele><time>2026-04-26T08:20:18.029Z</time></trkpt><trkpt lat="45.8693883" lon="11.4885007"><ele>1022.0</ele><time>2026-04-26T08:20:19.038Z</time></trkpt><trkpt lat="45.8692933" lon="11.4883693"><ele>1022.0</ele><time>2026-04-26T08:20:20.056Z</time></trkpt><trkpt lat="45.8692303" lon="11.4882058"><ele>1022.0</ele><time>2026-04-26T08:20:21.043Z</time></trkpt><trkpt lat="45.8691582" lon="11.4880448"><ele>1022.25</ele><time>2026-04-26T08:20:22.034Z</time></trkpt><trkpt lat="45.8690865" lon="11.4878801"><ele>1022.5</ele><time>2026-04-26T08:20:23.037Z</time></trkpt><trkpt lat="45.8690138" lon="11.4877145"><ele>1022.75</ele><time>2026-04-26T08:20:24.034Z</time></trkpt><trkpt lat="45.868934" lon="11.4875526"><ele>1023.0</ele><time>2026-04-26T08:20:25.036Z</time></trkpt><trkpt lat="45.8688527" lon="11.4873847"><ele>1023.0</ele><time>2026-04-26T08:20:26.026Z</time></trkpt><trkpt lat="45.8687704" lon="11.4872132"><ele>1023.0</ele><time>2026-04-26T08:20:27.043Z</time></trkpt><trkpt lat="45.8686864" lon="11.4870397"><ele>1023.0</ele><time>2026-04-26T08:20:28.034Z</time></trkpt><trkpt lat="45.8685999" lon="11.4868697"><ele>1023.0</ele><time>2026-04-26T08:20:29.045Z</time></trkpt><trkpt lat="45.8685202" lon="11.4866984"><ele>1022.75</ele><time>2026-04-26T08:20:30.043Z</time></trkpt><trkpt lat="45.8684559" lon="11.4865246"><ele>1022.5</ele><time>2026-04-26T08:20:31.035Z</time></trkpt><trkpt lat="45.8683835" lon="11.4863635"><ele>1022.25</ele><time>2026-04-26T08:20:32.035Z</time></trkpt><trkpt lat="45.868316" lon="11.4862092"><ele>1022.0</ele><time>2026-04-26T08:20:33.042Z</time></trkpt><trkpt lat="45.8682644" lon="11.4860546"><ele>1021.25</ele><time>2026-04-26T08:20:34.04Z</time></trkpt><trkpt lat="45.8682489" lon="11.4858858"><ele>1020.5</ele><time>2026-04-26T08:20:35.037Z</time></trkpt><trkpt lat="45.8682511" lon="11.4857238"><ele>1019.75</ele><time>2026-04-26T08:20:36.033Z</time></trkpt><trkpt lat="45.8682901" lon="11.4855707"><ele>1019.0</ele><time>2026-04-26T08:20:37.043Z</time></trkpt><trkpt lat="45.8683834" lon="11.4854676"><ele>1018.25</ele><time>2026-04-26T08:20:38.042Z</time></trkpt><trkpt lat="45.86848" lon="11.4853523"><ele>1017.5</ele><time>2026-04-26T08:20:39.029Z</time></trkpt><trkpt lat="45.8685764" lon="11.4852225"><ele>1016.75</ele><time>2026-04-26T08:20:40.039Z</time></trkpt><trkpt lat="45.8686848" lon="11.4850837"><ele>1016.0</ele><time>2026-04-26T08:20:41.035Z</time></trkpt><trkpt lat="45.8687871" lon="11.484934"><ele>1016.0</ele><time>2026-04-26T08:20:42.036Z</time></trkpt><trkpt lat="45.8688782" lon="11.4847783"><ele>1016.0</ele><time>2026-04-26T08:20:43.041Z</time></trkpt><trkpt lat="45.8689673" lon="11.4846249"><ele>1016.0</ele><time>2026-04-26T08:20:44.036Z</time></trkpt><trkpt lat="45.8690517" lon="11.4844712"><ele>1016.0</ele><time>2026-04-26T08:20:45.028Z</time></trkpt><trkpt lat="45.8691274" lon="11.4843164"><ele>1015.5</ele><time>2026-04-26T08:20:46.038Z</time></trkpt><trkpt lat="45.8691755" lon="11.4841461"><ele>1015.0</ele><time>2026-04-26T08:20:47.034Z</time></trkpt><trkpt lat="45.8691972" lon="11.4839738"><ele>1014.5</ele><time>2026-04-26T08:20:48.041Z</time></trkpt><trkpt lat="45.8691935" lon="11.4837972"><ele>1014.0</ele><time>2026-04-26T08:20:49.035Z</time></trkpt><trkpt lat="45.8691888" lon="11.4836181"><ele>1014.0</ele><time>2026-04-26T08:20:50.022Z</time></trkpt><trkpt lat="45.8691833" lon="11.4834352"><ele>1014.0</ele><time>2026-04-26T08:20:51.048Z</time></trkpt><trkpt lat="45.869151" lon="11.4832479"><ele>1014.0</ele><time>2026-04-26T08:20:52.041Z</time></trkpt><trkpt lat="45.8691123" lon="11.48307"><ele>1014.0</ele><time>2026-04-26T08:20:53.037Z</time></trkpt><trkpt lat="45.8690535" lon="11.482907"><ele>1014.0</ele><time>2026-04-26T08:20:54.03Z</time></trkpt><trkpt lat="45.8690068" lon="11.4827393"><ele>1014.0</ele><time>2026-04-26T08:20:55.047Z</time></trkpt><trkpt lat="45.8689248" lon="11.4825996"><ele>1014.0</ele><time>2026-04-26T08:20:56.045Z</time></trkpt><trkpt lat="45.8688323" lon="11.4824571"><ele>1014.0</ele><time>2026-04-26T08:20:57.048Z</time></trkpt><trkpt lat="45.868754" lon="11.4823035"><ele>1014.0</ele><time>2026-04-26T08:20:58.039Z</time></trkpt><trkpt lat="45.8687151" lon="11.4821216"><ele>1014.0</ele><time>2026-04-26T08:20:59.08Z</time></trkpt><trkpt lat="45.8687119" lon="11.4819311"><ele>1014.0</ele><time>2026-04-26T08:21:00.046Z</time></trkpt><trkpt lat="45.8687038" lon="11.481769"><ele>1014.0</ele><time>2026-04-26T08:21:01.036Z</time></trkpt><trkpt lat="45.8687588" lon="11.4816181"><ele>1014.0</ele><time>2026-04-26T08:21:02.036Z</time></trkpt><trkpt lat="45.8688256" lon="11.4814776"><ele>1014.0</ele><time>2026-04-26T08:21:03.04Z</time></trkpt><trkpt lat="45.8689377" lon="11.4813383"><ele>1014.0</ele><time>2026-04-26T08:21:04.034Z</time></trkpt><trkpt lat="45.8690338" lon="11.4811787"><ele>1014.0</ele><time>2026-04-26T08:21:05.04Z</time></trkpt><trkpt lat="45.8691236" lon="11.4810146"><ele>1013.0</ele><time>2026-04-26T08:21:06.048Z</time></trkpt><trkpt lat="45.869215" lon="11.4808609"><ele>1012.0</ele><time>2026-04-26T08:21:07.049Z</time></trkpt><trkpt lat="45.8693078" lon="11.4807224"><ele>1011.0</ele><time>2026-04-26T08:21:08.04Z</time></trkpt><trkpt lat="45.8693835" lon="11.4805743"><ele>1010.0</ele><time>2026-04-26T08:21:09.039Z</time></trkpt><trkpt lat="45.8694473" lon="11.4804456"><ele>1009.3333333333334</ele><time>2026-04-26T08:21:10.047Z</time></trkpt><trkpt lat="45.8694949" lon="11.4803226"><ele>1008.6666666666667</ele><time>2026-04-26T08:21:11.034Z</time></trkpt><trkpt lat="45.8695372" lon="11.4802175"><ele>1008.0</ele><time>2026-04-26T08:21:12.047Z</time></trkpt><trkpt lat="45.869582" lon="11.4801256"><ele>1007.3333333333333</ele><time>2026-04-26T08:21:13.04Z</time></trkpt><trkpt lat="45.8696257" lon="11.4800351"><ele>1006.6666666666666</ele><time>2026-04-26T08:21:14.04Z</time></trkpt><trkpt lat="45.8696711" lon="11.4799402"><ele>1006.0</ele><time>2026-04-26T08:21:15.032Z</time></trkpt><trkpt lat="45.8697099" lon="11.4798324"><ele>1005.9999999999999</ele><time>2026-04-26T08:21:16.058Z</time></trkpt><trkpt lat="45.8697585" lon="11.4797323"><ele>1006.0</ele><time>2026-04-26T08:21:17.049Z</time></trkpt><trkpt lat="45.8698059" lon="11.4796411"><ele>1006.0</ele><time>2026-04-26T08:21:18.038Z</time></trkpt><trkpt lat="45.8698673" lon="11.4795645"><ele>1006.0</ele><time>2026-04-26T08:21:19.044Z</time></trkpt><trkpt lat="45.8699293" lon="11.4794704"><ele>1005.9999999999999</ele><time>2026-04-26T08:21:20.045Z</time></trkpt><trkpt lat="45.8699822" lon="11.4793417"><ele>1006.0</ele><time>2026-04-26T08:21:21.058Z</time></trkpt><trkpt lat="45.8700292" lon="11.4791932"><ele>1006.0</ele><time>2026-04-26T08:21:22.034Z</time></trkpt><trkpt lat="45.8700757" lon="11.479034"><ele>1006.0</ele><time>2026-04-26T08:21:23.039Z</time></trkpt><trkpt lat="45.87012" lon="11.4788685"><ele>1006.0</ele><time>2026-04-26T08:21:24.05Z</time></trkpt><trkpt lat="45.8701762" lon="11.478711"><ele>1006.0</ele><time>2026-04-26T08:21:25.055Z</time></trkpt><trkpt lat="45.8702165" lon="11.4785494"><ele>1006.25</ele><time>2026-04-26T08:21:26.043Z</time></trkpt><trkpt lat="45.870254" lon="11.4783918"><ele>1006.5</ele><time>2026-04-26T08:21:27.041Z</time></trkpt><trkpt lat="45.8702892" lon="11.478234"><ele>1006.75</ele><time>2026-04-26T08:21:28.038Z</time></trkpt><trkpt lat="45.870315" lon="11.478067"><ele>1007.0</ele><time>2026-04-26T08:21:29.049Z</time></trkpt><trkpt lat="45.8703465" lon="11.4778961"><ele>1007.75</ele><time>2026-04-26T08:21:30.05Z</time></trkpt><trkpt lat="45.8703929" lon="11.4777289"><ele>1008.5</ele><time>2026-04-26T08:21:31.035Z</time></trkpt><trkpt lat="45.8704387" lon="11.4775551"><ele>1009.25</ele><time>2026-04-26T08:21:32.046Z</time></trkpt><trkpt lat="45.870475" lon="11.477373"><ele>1010.0</ele><time>2026-04-26T08:21:33.029Z</time></trkpt><trkpt lat="45.8705375" lon="11.477201"><ele>1007.5</ele><time>2026-04-26T08:21:34.039Z</time></trkpt><trkpt lat="45.8706117" lon="11.4770383"><ele>1005.0</ele><time>2026-04-26T08:21:35.03Z</time></trkpt><trkpt lat="45.8707059" lon="11.4769021"><ele>1002.5</ele><time>2026-04-26T08:21:36.051Z</time></trkpt><trkpt lat="45.8707939" lon="11.4767669"><ele>1000.0</ele><time>2026-04-26T08:21:37.041Z</time></trkpt><trkpt lat="45.8708983" lon="11.4766607"><ele>1000.5</ele><time>2026-04-26T08:21:38.042Z</time></trkpt><trkpt lat="45.8710098" lon="11.476571"><ele>1001.0</ele><time>2026-04-26T08:21:39.028Z</time></trkpt><trkpt lat="45.8711154" lon="11.4764652"><ele>1001.5</ele><time>2026-04-26T08:21:40.037Z</time></trkpt><trkpt lat="45.871248" lon="11.4763903"><ele>1002.0</ele><time>2026-04-26T08:21:41.035Z</time></trkpt><trkpt lat="45.8713923" lon="11.476322"><ele>1000.0</ele><time>2026-04-26T08:21:42.036Z</time></trkpt><trkpt lat="45.8715404" lon="11.4762645"><ele>998.0</ele><time>2026-04-26T08:21:43.051Z</time></trkpt><trkpt lat="45.8716964" lon="11.4762196"><ele>996.0</ele><time>2026-04-26T08:21:44.042Z</time></trkpt><trkpt lat="45.8718535" lon="11.47619"><ele>994.3333333333333</ele><time>2026-04-26T08:21:45.042Z</time></trkpt><trkpt lat="45.8720094" lon="11.4761553"><ele>992.6666666666666</ele><time>2026-04-26T08:21:46.024Z</time></trkpt><trkpt lat="45.8721615" lon="11.4761111"><ele>991.0</ele><time>2026-04-26T08:21:47.048Z</time></trkpt><trkpt lat="45.8723094" lon="11.476069"><ele>991.0</ele><time>2026-04-26T08:21:48.021Z</time></trkpt><trkpt lat="45.8724501" lon="11.476056"><ele>991.0</ele><time>2026-04-26T08:21:49.038Z</time></trkpt><trkpt lat="45.8725815" lon="11.4760606"><ele>991.0</ele><time>2026-04-26T08:21:50.05Z</time></trkpt><trkpt lat="45.8727055" lon="11.4761011"><ele>991.0</ele><time>2026-04-26T08:21:51.039Z</time></trkpt><trkpt lat="45.8727987" lon="11.47623"><ele>987.75</ele><time>2026-04-26T08:21:52.04Z</time></trkpt><trkpt lat="45.8728562" lon="11.4763885"><ele>984.5</ele><time>2026-04-26T08:21:53.037Z</time></trkpt><trkpt lat="45.8728603" lon="11.4765714"><ele>981.25</ele><time>2026-04-26T08:21:54.028Z</time></trkpt><trkpt lat="45.8728277" lon="11.4767628"><ele>978.0</ele><time>2026-04-26T08:21:55.021Z</time></trkpt><trkpt lat="45.8727709" lon="11.4769461"><ele>979.0</ele><time>2026-04-26T08:21:56.03Z</time></trkpt><trkpt lat="45.8727103" lon="11.4771178"><ele>980.0</ele><time>2026-04-26T08:21:57.038Z</time></trkpt><trkpt lat="45.8726545" lon="11.4772799"><ele>981.0</ele><time>2026-04-26T08:21:58.047Z</time></trkpt><trkpt lat="45.8726001" lon="11.477436"><ele>982.0</ele><time>2026-04-26T08:21:59.046Z</time></trkpt><trkpt lat="45.8725496" lon="11.4775715"><ele>981.9999999999999</ele><time>2026-04-26T08:22:00.041Z</time></trkpt><trkpt lat="45.8725417" lon="11.4777044"><ele>982.0</ele><time>2026-04-26T08:22:01.031Z</time></trkpt><trkpt lat="45.8725645" lon="11.47782"><ele>982.0</ele><time>2026-04-26T08:22:02.047Z</time></trkpt><trkpt lat="45.8726123" lon="11.4779184"><ele>982.0</ele><time>2026-04-26T08:22:03.036Z</time></trkpt><trkpt lat="45.8726784" lon="11.4779791"><ele>981.9999999999999</ele><time>2026-04-26T08:22:04.021Z</time></trkpt><trkpt lat="45.8727661" lon="11.4780122"><ele>982.0</ele><time>2026-04-26T08:22:05.031Z</time></trkpt><trkpt lat="45.8728723" lon="11.4779996"><ele>982.0</ele><time>2026-04-26T08:22:06.024Z</time></trkpt><trkpt lat="45.8729983" lon="11.4779713"><ele>982.0</ele><time>2026-04-26T08:22:07.039Z</time></trkpt><trkpt lat="45.8731171" lon="11.4779286"><ele>982.0</ele><time>2026-04-26T08:22:08.042Z</time></trkpt><trkpt lat="45.8732513" lon="11.4778861"><ele>982.0</ele><time>2026-04-26T08:22:09.042Z</time></trkpt><trkpt lat="45.873381" lon="11.4778184"><ele>979.5</ele><time>2026-04-26T08:22:10.031Z</time></trkpt><trkpt lat="45.8734978" lon="11.4777495"><ele>977.0</ele><time>2026-04-26T08:22:11.028Z</time></trkpt><trkpt lat="45.8736116" lon="11.4776991"><ele>974.5</ele><time>2026-04-26T08:22:12.037Z</time></trkpt><trkpt lat="45.8737227" lon="11.4777408"><ele>972.0</ele><time>2026-04-26T08:22:13.052Z</time></trkpt><trkpt lat="45.8738143" lon="11.4778326"><ele>975.25</ele><time>2026-04-26T08:22:14.021Z</time></trkpt><trkpt lat="45.8738963" lon="11.4780211"><ele>978.5</ele><time>2026-04-26T08:22:15.035Z</time></trkpt><trkpt lat="45.8739578" lon="11.4782302"><ele>981.75</ele><time>2026-04-26T08:22:16.037Z</time></trkpt><trkpt lat="45.8739973" lon="11.4783747"><ele>985.0</ele><time>2026-04-26T08:22:17.023Z</time></trkpt><trkpt lat="45.8740265" lon="11.4785136"><ele>985.0</ele><time>2026-04-26T08:22:18.036Z</time></trkpt><trkpt lat="45.8740455" lon="11.4786593"><ele>985.0</ele><time>2026-04-26T08:22:19.036Z</time></trkpt><trkpt lat="45.8740639" lon="11.478806"><ele>985.0</ele><time>2026-04-26T08:22:20.038Z</time></trkpt><trkpt lat="45.874087" lon="11.4789569"><ele>985.0</ele><time>2026-04-26T08:22:21.022Z</time></trkpt><trkpt lat="45.8741126" lon="11.4791136"><ele>985.0</ele><time>2026-04-26T08:22:22.04Z</time></trkpt><trkpt lat="45.8741798" lon="11.4792393"><ele>986.0</ele><time>2026-04-26T08:22:23.045Z</time></trkpt><trkpt lat="45.8742462" lon="11.4793604"><ele>987.0</ele><time>2026-04-26T08:22:24.043Z</time></trkpt><trkpt lat="45.874331" lon="11.4794254"><ele>988.0</ele><time>2026-04-26T08:22:25.027Z</time></trkpt><trkpt lat="45.8743927" lon="11.4794986"><ele>989.0</ele><time>2026-04-26T08:22:26.035Z</time></trkpt><trkpt lat="45.8744544" lon="11.4795599"><ele>990.0</ele><time>2026-04-26T08:22:27.034Z</time></trkpt><trkpt lat="45.8745129" lon="11.4796601"><ele>990.2</ele><time>2026-04-26T08:22:28.026Z</time></trkpt><trkpt lat="45.8746072" lon="11.4796705"><ele>990.4</ele><time>2026-04-26T08:22:29.025Z</time></trkpt><trkpt lat="45.8746995" lon="11.4796177"><ele>990.5999999999999</ele><time>2026-04-26T08:22:30.024Z</time></trkpt><trkpt lat="45.8747815" lon="11.4796095"><ele>990.8</ele><time>2026-04-26T08:22:31.028Z</time></trkpt><trkpt lat="45.87487" lon="11.4794647"><ele>991.0</ele><time>2026-04-26T08:22:32.035Z</time></trkpt><trkpt lat="45.8749276" lon="11.4793355"><ele>988.0</ele><time>2026-04-26T08:22:33.022Z</time></trkpt><trkpt lat="45.8749707" lon="11.4792011"><ele>984.9999999999999</ele><time>2026-04-26T08:22:34.034Z</time></trkpt><trkpt lat="45.8750107" lon="11.479074"><ele>981.9999999999999</ele><time>2026-04-26T08:22:35.022Z</time></trkpt><trkpt lat="45.8750464" lon="11.4789593"><ele>979.0</ele><time>2026-04-26T08:22:36.028Z</time></trkpt><trkpt lat="45.8750753" lon="11.4788351"><ele>976.0</ele><time>2026-04-26T08:22:37.032Z</time></trkpt><trkpt lat="45.8751193" lon="11.4787377"><ele>975.3333333333333</ele><time>2026-04-26T08:22:38.029Z</time></trkpt><trkpt lat="45.8751682" lon="11.4786381"><ele>974.6666666666666</ele><time>2026-04-26T08:22:39.03Z</time></trkpt><trkpt lat="45.8752318" lon="11.4785719"><ele>974.0</ele><time>2026-04-26T08:22:40.023Z</time></trkpt><trkpt lat="45.8753056" lon="11.4785435"><ele>973.3333333333333</ele><time>2026-04-26T08:22:41.031Z</time></trkpt><trkpt lat="45.875388" lon="11.4785299"><ele>972.6666666666666</ele><time>2026-04-26T08:22:42.031Z</time></trkpt><trkpt lat="45.875463" lon="11.4784899"><ele>972.0</ele><time>2026-04-26T08:22:43.02Z</time></trkpt><trkpt lat="45.8755252" lon="11.478408"><ele>972.0</ele><time>2026-04-26T08:22:44.028Z</time></trkpt><trkpt lat="45.8755819" lon="11.4783265"><ele>972.0</ele><time>2026-04-26T08:22:45.007Z</time></trkpt><trkpt lat="45.8756046" lon="11.4782294"><ele>972.0</ele><time>2026-04-26T08:22:46.021Z</time></trkpt><trkpt lat="45.8755743" lon="11.4781234"><ele>972.0</ele><time>2026-04-26T08:22:47.035Z</time></trkpt><trkpt lat="45.8755272" lon="11.4780145"><ele>972.0</ele><time>2026-04-26T08:22:48.016Z</time></trkpt><trkpt lat="45.8754607" lon="11.4779347"><ele>972.0</ele><time>2026-04-26T08:22:49.024Z</time></trkpt><trkpt lat="45.875388" lon="11.4778469"><ele>973.75</ele><time>2026-04-26T08:22:50.022Z</time></trkpt><trkpt lat="45.8753071" lon="11.4777553"><ele>975.5</ele><time>2026-04-26T08:22:51.031Z</time></trkpt><trkpt lat="45.8752502" lon="11.4776164"><ele>977.25</ele><time>2026-04-26T08:22:52.033Z</time></trkpt><trkpt lat="45.8752298" lon="11.477447"><ele>979.0</ele><time>2026-04-26T08:22:53.043Z</time></trkpt><trkpt lat="45.8752248" lon="11.4772722"><ele>978.75</ele><time>2026-04-26T08:22:54.034Z</time></trkpt><trkpt lat="45.8752562" lon="11.4770895"><ele>978.5</ele><time>2026-04-26T08:22:55.02Z</time></trkpt><trkpt lat="45.8752669" lon="11.4769037"><ele>978.25</ele><time>2026-04-26T08:22:56.022Z</time></trkpt><trkpt lat="45.8752684" lon="11.4767029"><ele>978.0</ele><time>2026-04-26T08:22:57.036Z</time></trkpt><trkpt lat="45.875273" lon="11.4764991"><ele>978.0</ele><time>2026-04-26T08:22:58.046Z</time></trkpt><trkpt lat="45.8752803" lon="11.4762948"><ele>978.0</ele><time>2026-04-26T08:22:59.043Z</time></trkpt><trkpt lat="45.8752863" lon="11.4760947"><ele>978.0</ele><time>2026-04-26T08:23:00.035Z</time></trkpt><trkpt lat="45.8752901" lon="11.4759062"><ele>978.0</ele><time>2026-04-26T08:23:01.03Z</time></trkpt><trkpt lat="45.8752895" lon="11.4757367"><ele>975.0</ele><time>2026-04-26T08:23:02.023Z</time></trkpt><trkpt lat="45.8752969" lon="11.4755894"><ele>972.0</ele><time>2026-04-26T08:23:03.044Z</time></trkpt><trkpt lat="45.8753092" lon="11.4754522"><ele>969.0</ele><time>2026-04-26T08:23:04.036Z</time></trkpt><trkpt lat="45.8753414" lon="11.475324"><ele>966.0</ele><time>2026-04-26T08:23:05.038Z</time></trkpt><trkpt lat="45.8754043" lon="11.475218"><ele>963.0</ele><time>2026-04-26T08:23:06.022Z</time></trkpt><trkpt lat="45.8754706" lon="11.4751354"><ele>959.3333333333334</ele><time>2026-04-26T08:23:07.037Z</time></trkpt><trkpt lat="45.8755619" lon="11.4751018"><ele>955.6666666666667</ele><time>2026-04-26T08:23:08.025Z</time></trkpt><trkpt lat="45.8756391" lon="11.4750831"><ele>952.0</ele><time>2026-04-26T08:23:09.043Z</time></trkpt><trkpt lat="45.875719" lon="11.4751"><ele>948.3333333333334</ele><time>2026-04-26T08:23:10.045Z</time></trkpt><trkpt lat="45.8758013" lon="11.4750999"><ele>944.6666666666667</ele><time>2026-04-26T08:23:11.035Z</time></trkpt><trkpt lat="45.8758897" lon="11.4750741"><ele>941.0</ele><time>2026-04-26T08:23:12.024Z</time></trkpt><trkpt lat="45.8759888" lon="11.4750848"><ele>941.0</ele><time>2026-04-26T08:23:13.043Z</time></trkpt><trkpt lat="45.8760956" lon="11.4751118"><ele>940.9999999999999</ele><time>2026-04-26T08:23:14.051Z</time></trkpt><trkpt lat="45.8762006" lon="11.475144"><ele>940.9999999999999</ele><time>2026-04-26T08:23:15.024Z</time></trkpt><trkpt lat="45.8763103" lon="11.4751446"><ele>941.0</ele><time>2026-04-26T08:23:16.058Z</time></trkpt><trkpt lat="45.8764251" lon="11.4751501"><ele>941.0</ele><time>2026-04-26T08:23:17.049Z</time></trkpt><trkpt lat="45.8765352" lon="11.4751496"><ele>941.0000000000001</ele><time>2026-04-26T08:23:18.04Z</time></trkpt><trkpt lat="45.8766352" lon="11.4751584"><ele>941.0</ele><time>2026-04-26T08:23:19.025Z</time></trkpt><trkpt lat="45.8767255" lon="11.4751431"><ele>941.0</ele><time>2026-04-26T08:23:20.036Z</time></trkpt><trkpt lat="45.8768104" lon="11.4750993"><ele>941.0</ele><time>2026-04-26T08:23:21.037Z</time></trkpt><trkpt lat="45.8768806" lon="11.4750462"><ele>941.0000000000001</ele><time>2026-04-26T08:23:22.025Z</time></trkpt><trkpt lat="45.8769448" lon="11.4749901"><ele>941.0</ele><time>2026-04-26T08:23:23.03Z</time></trkpt><trkpt lat="45.8770107" lon="11.4749249"><ele>941.8333333333334</ele><time>2026-04-26T08:23:24.024Z</time></trkpt><trkpt lat="45.8770481" lon="11.474833"><ele>942.6666666666667</ele><time>2026-04-26T08:23:25.036Z</time></trkpt><trkpt lat="45.8770868" lon="11.4747323"><ele>943.5</ele><time>2026-04-26T08:23:26.03Z</time></trkpt><trkpt lat="45.8770889" lon="11.4746205"><ele>944.3333333333333</ele><time>2026-04-26T08:23:27.016Z</time></trkpt><trkpt lat="45.8771017" lon="11.474513"><ele>945.1666666666666</ele><time>2026-04-26T08:23:28.022Z</time></trkpt><trkpt lat="45.8771185" lon="11.4744"><ele>946.0</ele><time>2026-04-26T08:23:29.027Z</time></trkpt><trkpt lat="45.877135" lon="11.4742777"><ele>941.0</ele><time>2026-04-26T08:23:30.047Z</time></trkpt><trkpt lat="45.877155" lon="11.4741465"><ele>935.9999999999999</ele><time>2026-04-26T08:23:31.026Z</time></trkpt><trkpt lat="45.8771833" lon="11.4740124"><ele>930.9999999999999</ele><time>2026-04-26T08:23:32.029Z</time></trkpt><trkpt lat="45.8772089" lon="11.4738762"><ele>926.0</ele><time>2026-04-26T08:23:33.029Z</time></trkpt><trkpt lat="45.8772318" lon="11.4737411"><ele>921.0</ele><time>2026-04-26T08:23:34.045Z</time></trkpt><trkpt lat="45.877249" lon="11.4736054"><ele>921.0</ele><time>2026-04-26T08:23:35.041Z</time></trkpt><trkpt lat="45.8772709" lon="11.4734749"><ele>920.9999999999999</ele><time>2026-04-26T08:23:36.027Z</time></trkpt><trkpt lat="45.8772917" lon="11.4733433"><ele>920.9999999999999</ele><time>2026-04-26T08:23:37.036Z</time></trkpt><trkpt lat="45.8773165" lon="11.4732118"><ele>921.0</ele><time>2026-04-26T08:23:38.033Z</time></trkpt><trkpt lat="45.8773413" lon="11.4730799"><ele>921.0</ele><time>2026-04-26T08:23:39.048Z</time></trkpt><trkpt lat="45.8773611" lon="11.4729479"><ele>926.8</ele><time>2026-04-26T08:23:40.038Z</time></trkpt><trkpt lat="45.8773819" lon="11.4728185"><ele>932.5999999999999</ele><time>2026-04-26T08:23:41.04Z</time></trkpt><trkpt lat="45.8773858" lon="11.4726891"><ele>938.4</ele><time>2026-04-26T08:23:42.026Z</time></trkpt><trkpt lat="45.8773768" lon="11.4725669"><ele>944.2</ele><time>2026-04-26T08:23:43.028Z</time></trkpt><trkpt lat="45.8773316" lon="11.4724597"><ele>950.0</ele><time>2026-04-26T08:23:44.029Z</time></trkpt><trkpt lat="45.87725" lon="11.4723845"><ele>950.0</ele><time>2026-04-26T08:23:45.025Z</time></trkpt><trkpt lat="45.8771413" lon="11.4723405"><ele>950.0</ele><time>2026-04-26T08:23:46.033Z</time></trkpt><trkpt lat="45.8770222" lon="11.4722939"><ele>950.0</ele><time>2026-04-26T08:23:47.041Z</time></trkpt><trkpt lat="45.8768961" lon="11.4722435"><ele>950.0</ele><time>2026-04-26T08:23:48.038Z</time></trkpt><trkpt lat="45.8767714" lon="11.4721726"><ele>953.0</ele><time>2026-04-26T08:23:49.025Z</time></trkpt><trkpt lat="45.8766471" lon="11.4720883"><ele>956.0</ele><time>2026-04-26T08:23:50.057Z</time></trkpt><trkpt lat="45.8765216" lon="11.4720011"><ele>959.0</ele><time>2026-04-26T08:23:51.029Z</time></trkpt><trkpt lat="45.876407" lon="11.471889"><ele>962.0</ele><time>2026-04-26T08:23:52.032Z</time></trkpt><trkpt lat="45.8762945" lon="11.4717773"><ele>962.0</ele><time>2026-04-26T08:23:53.032Z</time></trkpt><trkpt lat="45.8761746" lon="11.471683"><ele>962.0</ele><time>2026-04-26T08:23:54.04Z</time></trkpt><trkpt lat="45.8760594" lon="11.4715801"><ele>962.0</ele><time>2026-04-26T08:23:55.02Z</time></trkpt><trkpt lat="45.8759425" lon="11.4714823"><ele>962.0</ele><time>2026-04-26T08:23:56.028Z</time></trkpt><trkpt lat="45.8758235" lon="11.4713896"><ele>962.25</ele><time>2026-04-26T08:23:57.022Z</time></trkpt><trkpt lat="45.8757081" lon="11.4712906"><ele>962.5</ele><time>2026-04-26T08:23:58.027Z</time></trkpt><trkpt lat="45.875602" lon="11.4711752"><ele>962.75</ele><time>2026-04-26T08:23:59.019Z</time></trkpt><trkpt lat="45.8755107" lon="11.4710376"><ele>963.0</ele><time>2026-04-26T08:24:00.035Z</time></trkpt><trkpt lat="45.8754369" lon="11.4708808"><ele>963.0</ele><time>2026-04-26T08:24:01.017Z</time></trkpt><trkpt lat="45.8753651" lon="11.4707234"><ele>963.0</ele><time>2026-04-26T08:24:02.021Z</time></trkpt><trkpt lat="45.8752823" lon="11.4705763"><ele>963.0</ele><time>2026-04-26T08:24:03.025Z</time></trkpt><trkpt lat="45.8751786" lon="11.4704616"><ele>963.0</ele><time>2026-04-26T08:24:04.017Z</time></trkpt><trkpt lat="45.875074" lon="11.4703575"><ele>961.8</ele><time>2026-04-26T08:24:05.025Z</time></trkpt><trkpt lat="45.8749752" lon="11.470253"><ele>960.5999999999999</ele><time>2026-04-26T08:24:06.021Z</time></trkpt><trkpt lat="45.874886" lon="11.4701499"><ele>959.4000000000001</ele><time>2026-04-26T08:24:07.017Z</time></trkpt><trkpt lat="45.874822" lon="11.470038"><ele>958.2</ele><time>2026-04-26T08:24:08.035Z</time></trkpt><trkpt lat="45.8747909" lon="11.4699056"><ele>957.0</ele><time>2026-04-26T08:24:09.033Z</time></trkpt><trkpt lat="45.8748004" lon="11.4697717"><ele>957.0</ele><time>2026-04-26T08:24:10.032Z</time></trkpt><trkpt lat="45.8748376" lon="11.469654"><ele>957.0</ele><time>2026-04-26T08:24:11.037Z</time></trkpt><trkpt lat="45.8748637" lon="11.4695376"><ele>957.0</ele><time>2026-04-26T08:24:12.056Z</time></trkpt><trkpt lat="45.8748867" lon="11.4694221"><ele>957.0</ele><time>2026-04-26T08:24:13.011Z</time></trkpt><trkpt lat="45.8748758" lon="11.4693116"><ele>957.0</ele><time>2026-04-26T08:24:14.018Z</time></trkpt><trkpt lat="45.8748222" lon="11.4692275"><ele>957.0</ele><time>2026-04-26T08:24:15.014Z</time></trkpt><trkpt lat="45.8747567" lon="11.4691769"><ele>959.4000000000001</ele><time>2026-04-26T08:24:16.017Z</time></trkpt><trkpt lat="45.8746718" lon="11.469175"><ele>961.8000000000001</ele><time>2026-04-26T08:24:17.024Z</time></trkpt><trkpt lat="45.8745787" lon="11.4691723"><ele>964.2</ele><time>2026-04-26T08:24:18.039Z</time></trkpt><trkpt lat="45.8744826" lon="11.4691879"><ele>966.6</ele><time>2026-04-26T08:24:19.02Z</time></trkpt><trkpt lat="45.8743811" lon="11.4691932"><ele>969.0</ele><time>2026-04-26T08:24:20.03Z</time></trkpt><trkpt lat="45.8742783" lon="11.469189"><ele>969.0</ele><time>2026-04-26T08:24:21.047Z</time></trkpt><trkpt lat="45.8741762" lon="11.4691513"><ele>969.0000000000001</ele><time>2026-04-26T08:24:22.041Z</time></trkpt><trkpt lat="45.8740815" lon="11.4690765"><ele>969.0000000000001</ele><time>2026-04-26T08:24:23.028Z</time></trkpt><trkpt lat="45.8740031" lon="11.4689645"><ele>969.0</ele><time>2026-04-26T08:24:24.034Z</time></trkpt><trkpt lat="45.8739442" lon="11.4688196"><ele>969.0</ele><time>2026-04-26T08:24:25.036Z</time></trkpt><trkpt lat="45.873898" lon="11.4686555"><ele>969.0</ele><time>2026-04-26T08:24:26.032Z</time></trkpt><trkpt lat="45.8738474" lon="11.4684958"><ele>969.0</ele><time>2026-04-26T08:24:27.039Z</time></trkpt><trkpt lat="45.8737871" lon="11.4683411"><ele>969.0</ele><time>2026-04-26T08:24:28.029Z</time></trkpt><trkpt lat="45.8737317" lon="11.4681792"><ele>969.0</ele><time>2026-04-26T08:24:29.053Z</time></trkpt><trkpt lat="45.8736673" lon="11.4680339"><ele>968.2</ele><time>2026-04-26T08:24:30.038Z</time></trkpt><trkpt lat="45.8736059" lon="11.4679016"><ele>967.4000000000001</ele><time>2026-04-26T08:24:31.027Z</time></trkpt><trkpt lat="45.8735464" lon="11.4677782"><ele>966.6</ele><time>2026-04-26T08:24:32.028Z</time></trkpt><trkpt lat="45.8734993" lon="11.4676394"><ele>965.8</ele><time>2026-04-26T08:24:33.019Z</time></trkpt><trkpt lat="45.8734469" lon="11.4674992"><ele>965.0</ele><time>2026-04-26T08:24:34.029Z</time></trkpt><trkpt lat="45.8734004" lon="11.467353"><ele>965.0</ele><time>2026-04-26T08:24:35.016Z</time></trkpt><trkpt lat="45.8733562" lon="11.4672117"><ele>965.0</ele><time>2026-04-26T08:24:36.028Z</time></trkpt><trkpt lat="45.8732998" lon="11.4670885"><ele>965.0</ele><time>2026-04-26T08:24:37.026Z</time></trkpt><trkpt lat="45.8732306" lon="11.466989"><ele>965.0</ele><time>2026-04-26T08:24:38.017Z</time></trkpt><trkpt lat="45.8731547" lon="11.4669103"><ele>965.0</ele><time>2026-04-26T08:24:39.038Z</time></trkpt><trkpt lat="45.873086" lon="11.4668321"><ele>967.0000000000001</ele><time>2026-04-26T08:24:40.022Z</time></trkpt><trkpt lat="45.8730196" lon="11.4667627"><ele>969.0</ele><time>2026-04-26T08:24:41.023Z</time></trkpt><trkpt lat="45.8729636" lon="11.4666863"><ele>971.0</ele><time>2026-04-26T08:24:42.039Z</time></trkpt><trkpt lat="45.8729361" lon="11.4665752"><ele>973.0</ele><time>2026-04-26T08:24:43.021Z</time></trkpt><trkpt lat="45.8729148" lon="11.4664594"><ele>975.0000000000001</ele><time>2026-04-26T08:24:44.028Z</time></trkpt><trkpt lat="45.8728824" lon="11.4663494"><ele>977.0</ele><time>2026-04-26T08:24:45.024Z</time></trkpt><trkpt lat="45.8728556" lon="11.4662366"><ele>977.8333333333334</ele><time>2026-04-26T08:24:46.023Z</time></trkpt><trkpt lat="45.8728388" lon="11.4661184"><ele>978.6666666666667</ele><time>2026-04-26T08:24:47.033Z</time></trkpt><trkpt lat="45.8728169" lon="11.4660035"><ele>979.5</ele><time>2026-04-26T08:24:48.024Z</time></trkpt><trkpt lat="45.8727955" lon="11.4658951"><ele>980.3333333333333</ele><time>2026-04-26T08:24:49.023Z</time></trkpt><trkpt lat="45.8727763" lon="11.4657989"><ele>981.1666666666666</ele><time>2026-04-26T08:24:50.044Z</time></trkpt><trkpt lat="45.8727422" lon="11.4656389"><ele>982.0</ele><time>2026-04-26T08:24:52.039Z</time></trkpt><trkpt lat="45.8727446" lon="11.4654866"><ele>978.2</ele><time>2026-04-26T08:24:54.037Z</time></trkpt><trkpt lat="45.8727973" lon="11.4654195"><ele>974.4000000000001</ele><time>2026-04-26T08:24:55.022Z</time></trkpt><trkpt lat="45.8728808" lon="11.4653838"><ele>970.5999999999999</ele><time>2026-04-26T08:24:56.03Z</time></trkpt><trkpt lat="45.8729985" lon="11.4653776"><ele>966.8</ele><time>2026-04-26T08:24:57.034Z</time></trkpt><trkpt lat="45.8731237" lon="11.4653747"><ele>963.0</ele><time>2026-04-26T08:24:58.026Z</time></trkpt><trkpt lat="45.8732405" lon="11.4653732"><ele>963.0</ele><time>2026-04-26T08:24:59.02Z</time></trkpt><trkpt lat="45.8733576" lon="11.4653437"><ele>963.0</ele><time>2026-04-26T08:25:00.031Z</time></trkpt><trkpt lat="45.8734628" lon="11.4652989"><ele>963.0</ele><time>2026-04-26T08:25:01.04Z</time></trkpt><trkpt lat="45.8735535" lon="11.4652299"><ele>963.0</ele><time>2026-04-26T08:25:02.012Z</time></trkpt><trkpt lat="45.8736299" lon="11.4651505"><ele>963.0</ele><time>2026-04-26T08:25:03.018Z</time></trkpt><trkpt lat="45.873699" lon="11.4650628"><ele>964.5999999999999</ele><time>2026-04-26T08:25:04.034Z</time></trkpt><trkpt lat="45.8737616" lon="11.4649721"><ele>966.1999999999999</ele><time>2026-04-26T08:25:05.013Z</time></trkpt><trkpt lat="45.8738187" lon="11.4648691"><ele>967.8</ele><time>2026-04-26T08:25:06.04Z</time></trkpt><trkpt lat="45.8738773" lon="11.4647684"><ele>969.4</ele><time>2026-04-26T08:25:07.033Z</time></trkpt><trkpt lat="45.8739353" lon="11.4646592"><ele>971.0</ele><time>2026-04-26T08:25:08.018Z</time></trkpt><trkpt lat="45.8740047" lon="11.464553"><ele>971.0</ele><time>2026-04-26T08:25:09.032Z</time></trkpt><trkpt lat="45.8740694" lon="11.4644319"><ele>970.9999999999999</ele><time>2026-04-26T08:25:10.058Z</time></trkpt><trkpt lat="45.8741497" lon="11.4643276"><ele>970.9999999999999</ele><time>2026-04-26T08:25:11.038Z</time></trkpt><trkpt lat="45.8742487" lon="11.4642613"><ele>971.0</ele><time>2026-04-26T08:25:12.053Z</time></trkpt><trkpt lat="45.8743481" lon="11.4641988"><ele>971.0</ele><time>2026-04-26T08:25:13.03Z</time></trkpt><trkpt lat="45.874444" lon="11.4641512"><ele>973.5000000000001</ele><time>2026-04-26T08:25:14.032Z</time></trkpt><trkpt lat="45.8745376" lon="11.46411"><ele>976.0</ele><time>2026-04-26T08:25:15.028Z</time></trkpt><trkpt lat="45.8746205" lon="11.4640668"><ele>978.5</ele><time>2026-04-26T08:25:16.029Z</time></trkpt><trkpt lat="45.8746972" lon="11.4640266"><ele>981.0</ele><time>2026-04-26T08:25:17.036Z</time></trkpt><trkpt lat="45.8747713" lon="11.4640022"><ele>983.5000000000001</ele><time>2026-04-26T08:25:18.034Z</time></trkpt><trkpt lat="45.8748379" lon="11.4639725"><ele>986.0</ele><time>2026-04-26T08:25:19.02Z</time></trkpt><trkpt lat="45.874904" lon="11.4639369"><ele>986.0</ele><time>2026-04-26T08:25:20.031Z</time></trkpt><trkpt lat="45.8749665" lon="11.4638987"><ele>986.0</ele><time>2026-04-26T08:25:21.029Z</time></trkpt><trkpt lat="45.8750253" lon="11.46385"><ele>986.0</ele><time>2026-04-26T08:25:22.032Z</time></trkpt><trkpt lat="45.8750805" lon="11.4637809"><ele>986.0</ele><time>2026-04-26T08:25:23.021Z</time></trkpt><trkpt lat="45.8751347" lon="11.4637094"><ele>986.0</ele><time>2026-04-26T08:25:24.03Z</time></trkpt><trkpt lat="45.8751888" lon="11.4636303"><ele>986.0</ele><time>2026-04-26T08:25:25.028Z</time></trkpt><trkpt lat="45.8752336" lon="11.4635391"><ele>986.0</ele><time>2026-04-26T08:25:26.043Z</time></trkpt><trkpt lat="45.8752738" lon="11.4634459"><ele>987.1666666666667</ele><time>2026-04-26T08:25:27.044Z</time></trkpt><trkpt lat="45.8753138" lon="11.4633535"><ele>988.3333333333334</ele><time>2026-04-26T08:25:28.028Z</time></trkpt><trkpt lat="45.8753438" lon="11.4632495"><ele>989.5</ele><time>2026-04-26T08:25:29.046Z</time></trkpt><trkpt lat="45.8753753" lon="11.4631513"><ele>990.6666666666667</ele><time>2026-04-26T08:25:30.04Z</time></trkpt><trkpt lat="45.8754157" lon="11.4630648"><ele>991.8333333333334</ele><time>2026-04-26T08:25:31.041Z</time></trkpt><trkpt lat="45.8754738" lon="11.4629309"><ele>993.0</ele><time>2026-04-26T08:25:33.02Z</time></trkpt><trkpt lat="45.8755237" lon="11.4628358"><ele>993.0</ele><time>2026-04-26T08:25:36.025Z</time></trkpt><trkpt lat="45.8755535" lon="11.4627229"><ele>993.0</ele><time>2026-04-26T08:25:44.03Z</time></trkpt><trkpt lat="45.875632" lon="11.4626391"><ele>993.0</ele><time>2026-04-26T08:27:00.051Z</time></trkpt><trkpt lat="45.8755663" lon="11.4625271"><ele>993.0</ele><time>2026-04-26T08:27:50.014Z</time></trkpt><trkpt lat="45.8756323" lon="11.4625185"><ele>993.0</ele><time>2026-04-26T08:28:03.013Z</time></trkpt><trkpt lat="45.8756935" lon="11.4625445"><ele>993.0</ele><time>2026-04-26T08:28:09.034Z</time></trkpt><trkpt lat="45.8757948" lon="11.462556"><ele>993.0</ele><time>2026-04-26T08:29:24.095Z</time></trkpt><trkpt lat="45.8756559" lon="11.4624772"><ele>993.0</ele><time>2026-04-26T08:33:10.004Z</time></trkpt><trkpt lat="45.8757457" lon="11.462582"><ele>993.0</ele><time>2026-04-26T08:33:23.915Z</time></trkpt><trkpt lat="45.8755262" lon="11.4624762"><ele>993.0</ele><time>2026-04-26T08:37:29.002Z</time></trkpt><trkpt lat="45.8756942" lon="11.4625098"><ele>993.0</ele><time>2026-04-26T08:37:42.102Z</time></trkpt><trkpt lat="45.8757528" lon="11.4625434"><ele>993.0</ele><time>2026-04-26T08:37:46.042Z</time></trkpt><trkpt lat="45.8757034" lon="11.4626011"><ele>993.0</ele><time>2026-04-26T08:37:54.164Z</time></trkpt><trkpt lat="45.8756955" lon="11.4622097"><ele>992.75</ele><time>2026-04-26T08:41:12.062Z</time></trkpt><trkpt lat="45.8757572" lon="11.462021"><ele>992.5</ele><time>2026-04-26T08:41:13.043Z</time></trkpt><trkpt lat="45.8758402" lon="11.4618819"><ele>992.25</ele><time>2026-04-26T08:41:14.039Z</time></trkpt><trkpt lat="45.8759113" lon="11.4616985"><ele>992.0</ele><time>2026-04-26T08:41:15.042Z</time></trkpt><trkpt lat="45.8759435" lon="11.4615602"><ele>993.6</ele><time>2026-04-26T08:41:16.023Z</time></trkpt><trkpt lat="45.8759816" lon="11.4614333"><ele>995.2</ele><time>2026-04-26T08:41:17.045Z</time></trkpt><trkpt lat="45.8760134" lon="11.4612704"><ele>996.8</ele><time>2026-04-26T08:41:18.037Z</time></trkpt><trkpt lat="45.8760368" lon="11.4611307"><ele>998.4</ele><time>2026-04-26T08:41:19.043Z</time></trkpt><trkpt lat="45.8760816" lon="11.4609988"><ele>1000.0</ele><time>2026-04-26T08:41:20.036Z</time></trkpt><trkpt lat="45.8761202" lon="11.4608696"><ele>1000.0</ele><time>2026-04-26T08:41:21.044Z</time></trkpt><trkpt lat="45.8761538" lon="11.4607359"><ele>1000.0</ele><time>2026-04-26T08:41:22.055Z</time></trkpt><trkpt lat="45.8762061" lon="11.4606112"><ele>1000.0</ele><time>2026-04-26T08:41:23.035Z</time></trkpt><trkpt lat="45.8762419" lon="11.4604892"><ele>1000.0</ele><time>2026-04-26T08:41:24.035Z</time></trkpt><trkpt lat="45.8762823" lon="11.4603885"><ele>1000.0</ele><time>2026-04-26T08:41:25.045Z</time></trkpt><trkpt lat="45.8763213" lon="11.4602915"><ele>999.5714285714286</ele><time>2026-04-26T08:41:26.052Z</time></trkpt><trkpt lat="45.8763685" lon="11.4602136"><ele>999.1428571428571</ele><time>2026-04-26T08:41:27.038Z</time></trkpt><trkpt lat="45.8764184" lon="11.4601523"><ele>998.7142857142857</ele><time>2026-04-26T08:41:28.041Z</time></trkpt><trkpt lat="45.8764838" lon="11.460108"><ele>998.2857142857142</ele><time>2026-04-26T08:41:29.046Z</time></trkpt><trkpt lat="45.8765532" lon="11.4600638"><ele>997.8571428571429</ele><time>2026-04-26T08:41:30.054Z</time></trkpt><trkpt lat="45.8766162" lon="11.460019"><ele>997.4285714285713</ele><time>2026-04-26T08:41:31.053Z</time></trkpt><trkpt lat="45.8766788" lon="11.4599734"><ele>996.9999999999999</ele><time>2026-04-26T08:41:32.04Z</time></trkpt><trkpt lat="45.8767458" lon="11.459936"><ele>997.3333333333333</ele><time>2026-04-26T08:41:33.028Z</time></trkpt><trkpt lat="45.8768037" lon="11.459883"><ele>997.6666666666666</ele><time>2026-04-26T08:41:34.025Z</time></trkpt><trkpt lat="45.8768527" lon="11.4598099"><ele>998.0</ele><time>2026-04-26T08:41:35.061Z</time></trkpt><trkpt lat="45.8768784" lon="11.4597134"><ele>998.3333333333333</ele><time>2026-04-26T08:41:36.046Z</time></trkpt><trkpt lat="45.8768665" lon="11.4596042"><ele>998.6666666666666</ele><time>2026-04-26T08:41:37.039Z</time></trkpt><trkpt lat="45.8768185" lon="11.4595012"><ele>999.0</ele><time>2026-04-26T08:41:38.024Z</time></trkpt><trkpt lat="45.8767537" lon="11.4594028"><ele>999.0</ele><time>2026-04-26T08:41:39.035Z</time></trkpt><trkpt lat="45.8766777" lon="11.4592958"><ele>999.0000000000001</ele><time>2026-04-26T08:41:40.032Z</time></trkpt><trkpt lat="45.8765983" lon="11.4591854"><ele>999.0000000000001</ele><time>2026-04-26T08:41:41.043Z</time></trkpt><trkpt lat="45.8765119" lon="11.4590748"><ele>999.0</ele><time>2026-04-26T08:41:42.037Z</time></trkpt><trkpt lat="45.8764268" lon="11.4589601"><ele>999.0</ele><time>2026-04-26T08:41:43.045Z</time></trkpt><trkpt lat="45.8763488" lon="11.4588412"><ele>1000.2</ele><time>2026-04-26T08:41:44.047Z</time></trkpt><trkpt lat="45.8762741" lon="11.4587257"><ele>1001.4000000000001</ele><time>2026-04-26T08:41:45.053Z</time></trkpt><trkpt lat="45.8762025" lon="11.4586144"><ele>1002.6</ele><time>2026-04-26T08:41:46.046Z</time></trkpt><trkpt lat="45.8761459" lon="11.4584967"><ele>1003.8</ele><time>2026-04-26T08:41:47.054Z</time></trkpt><trkpt lat="45.8761144" lon="11.4583583"><ele>1005.0</ele><time>2026-04-26T08:41:48.057Z</time></trkpt><trkpt lat="45.8760854" lon="11.4582113"><ele>1005.0</ele><time>2026-04-26T08:41:49.047Z</time></trkpt><trkpt lat="45.8761011" lon="11.4580456"><ele>1005.0</ele><time>2026-04-26T08:41:50.048Z</time></trkpt><trkpt lat="45.8761126" lon="11.4578731"><ele>1005.0</ele><time>2026-04-26T08:41:51.048Z</time></trkpt><trkpt lat="45.876118" lon="11.4576942"><ele>1005.0</ele><time>2026-04-26T08:41:52.041Z</time></trkpt><trkpt lat="45.8761065" lon="11.4575133"><ele>1005.5</ele><time>2026-04-26T08:41:53.044Z</time></trkpt><trkpt lat="45.8760986" lon="11.4573342"><ele>1006.0</ele><time>2026-04-26T08:41:54.037Z</time></trkpt><trkpt lat="45.8760849" lon="11.4571535"><ele>1006.5</ele><time>2026-04-26T08:41:55.039Z</time></trkpt><trkpt lat="45.876076" lon="11.4569748"><ele>1007.0</ele><time>2026-04-26T08:41:56.032Z</time></trkpt><trkpt lat="45.8760751" lon="11.456798"><ele>1008.75</ele><time>2026-04-26T08:41:57.037Z</time></trkpt><trkpt lat="45.8760656" lon="11.4566216"><ele>1010.5</ele><time>2026-04-26T08:41:58.046Z</time></trkpt><trkpt lat="45.8760363" lon="11.4564474"><ele>1012.25</ele><time>2026-04-26T08:41:59.044Z</time></trkpt><trkpt lat="45.8760031" lon="11.4562758"><ele>1014.0</ele><time>2026-04-26T08:42:00.062Z</time></trkpt><trkpt lat="45.8759708" lon="11.4561027"><ele>1010.0</ele><time>2026-04-26T08:42:01.037Z</time></trkpt><trkpt lat="45.8759263" lon="11.4559308"><ele>1006.0</ele><time>2026-04-26T08:42:02.044Z</time></trkpt><trkpt lat="45.8758855" lon="11.4557573"><ele>1002.0</ele><time>2026-04-26T08:42:03.043Z</time></trkpt><trkpt lat="45.8758506" lon="11.4555819"><ele>998.0</ele><time>2026-04-26T08:42:04.042Z</time></trkpt><trkpt lat="45.8758117" lon="11.455407"><ele>998.0</ele><time>2026-04-26T08:42:05.038Z</time></trkpt><trkpt lat="45.8757716" lon="11.45523"><ele>998.0</ele><time>2026-04-26T08:42:06.049Z</time></trkpt><trkpt lat="45.8757269" lon="11.4550518"><ele>998.0</ele><time>2026-04-26T08:42:07.051Z</time></trkpt><trkpt lat="45.8756837" lon="11.4548698"><ele>998.0</ele><time>2026-04-26T08:42:08.045Z</time></trkpt><trkpt lat="45.8756524" lon="11.4546786"><ele>998.75</ele><time>2026-04-26T08:42:09.049Z</time></trkpt><trkpt lat="45.8756237" lon="11.454481"><ele>999.5</ele><time>2026-04-26T08:42:10.062Z</time></trkpt><trkpt lat="45.8755891" lon="11.454288"><ele>1000.25</ele><time>2026-04-26T08:42:11.046Z</time></trkpt><trkpt lat="45.875554" lon="11.4540949"><ele>1001.0</ele><time>2026-04-26T08:42:12.037Z</time></trkpt><trkpt lat="45.8755155" lon="11.4539"><ele>1001.75</ele><time>2026-04-26T08:42:13.048Z</time></trkpt><trkpt lat="45.8754765" lon="11.4537072"><ele>1002.5</ele><time>2026-04-26T08:42:14.046Z</time></trkpt><trkpt lat="45.8754442" lon="11.4535143"><ele>1003.25</ele><time>2026-04-26T08:42:15.04Z</time></trkpt><trkpt lat="45.8754062" lon="11.4533271"><ele>1004.0</ele><time>2026-04-26T08:42:16.048Z</time></trkpt><trkpt lat="45.875369" lon="11.4531418"><ele>1004.0</ele><time>2026-04-26T08:42:17.043Z</time></trkpt><trkpt lat="45.875331" lon="11.452961"><ele>1004.0</ele><time>2026-04-26T08:42:18.045Z</time></trkpt><trkpt lat="45.8752913" lon="11.4527851"><ele>1004.0</ele><time>2026-04-26T08:42:19.044Z</time></trkpt><trkpt lat="45.8752554" lon="11.4526095"><ele>1004.0</ele><time>2026-04-26T08:42:20.051Z</time></trkpt><trkpt lat="45.8752218" lon="11.4524331"><ele>1005.0</ele><time>2026-04-26T08:42:21.044Z</time></trkpt><trkpt lat="45.8751935" lon="11.452254"><ele>1006.0</ele><time>2026-04-26T08:42:22.065Z</time></trkpt><trkpt lat="45.875165" lon="11.4520778"><ele>1007.0</ele><time>2026-04-26T08:42:23.06Z</time></trkpt><trkpt lat="45.8751351" lon="11.4519047"><ele>1008.0</ele><time>2026-04-26T08:42:24.045Z</time></trkpt><trkpt lat="45.8751002" lon="11.4517356"><ele>1005.5</ele><time>2026-04-26T08:42:25.047Z</time></trkpt><trkpt lat="45.8750673" lon="11.4515656"><ele>1003.0</ele><time>2026-04-26T08:42:26.041Z</time></trkpt><trkpt lat="45.8750426" lon="11.4513938"><ele>1000.5</ele><time>2026-04-26T08:42:27.048Z</time></trkpt><trkpt lat="45.875023" lon="11.4512209"><ele>998.0</ele><time>2026-04-26T08:42:28.039Z</time></trkpt><trkpt lat="45.8750186" lon="11.4510424"><ele>998.0</ele><time>2026-04-26T08:42:29.047Z</time></trkpt><trkpt lat="45.8750201" lon="11.4508616"><ele>998.0</ele><time>2026-04-26T08:42:30.05Z</time></trkpt><trkpt lat="45.8750262" lon="11.4506802"><ele>998.0</ele><time>2026-04-26T08:42:31.036Z</time></trkpt><trkpt lat="45.8750265" lon="11.4504993"><ele>998.0</ele><time>2026-04-26T08:42:32.041Z</time></trkpt><trkpt lat="45.8750245" lon="11.4503185"><ele>999.25</ele><time>2026-04-26T08:42:33.022Z</time></trkpt><trkpt lat="45.8750207" lon="11.450138"><ele>1000.5</ele><time>2026-04-26T08:42:34.054Z</time></trkpt><trkpt lat="45.8750175" lon="11.4499557"><ele>1001.75</ele><time>2026-04-26T08:42:35.038Z</time></trkpt><trkpt lat="45.8750201" lon="11.4497749"><ele>1003.0</ele><time>2026-04-26T08:42:36.041Z</time></trkpt><trkpt lat="45.8750184" lon="11.4495934"><ele>1003.75</ele><time>2026-04-26T08:42:37.042Z</time></trkpt><trkpt lat="45.8750293" lon="11.4494114"><ele>1004.5</ele><time>2026-04-26T08:42:38.041Z</time></trkpt><trkpt lat="45.8750388" lon="11.4492291"><ele>1005.25</ele><time>2026-04-26T08:42:39.047Z</time></trkpt><trkpt lat="45.875046" lon="11.449051"><ele>1006.0</ele><time>2026-04-26T08:42:40.033Z</time></trkpt><trkpt lat="45.8750475" lon="11.4488955"><ele>1005.6666666666666</ele><time>2026-04-26T08:42:41.05Z</time></trkpt><trkpt lat="45.8750513" lon="11.448778"><ele>1005.3333333333333</ele><time>2026-04-26T08:42:42.041Z</time></trkpt><trkpt lat="45.8750636" lon="11.4486422"><ele>1005.0</ele><time>2026-04-26T08:42:44.04Z</time></trkpt><trkpt lat="45.8751108" lon="11.4485695"><ele>1004.6666666666667</ele><time>2026-04-26T08:42:46.057Z</time></trkpt><trkpt lat="45.8751802" lon="11.4485924"><ele>1004.3333333333334</ele><time>2026-04-26T08:42:48.043Z</time></trkpt><trkpt lat="45.8752801" lon="11.4486676"><ele>1004.0</ele><time>2026-04-26T08:42:50.042Z</time></trkpt><trkpt lat="45.875346" lon="11.4487074"><ele>1005.8333333333334</ele><time>2026-04-26T08:42:51.044Z</time></trkpt><trkpt lat="45.8754156" lon="11.4487622"><ele>1007.6666666666667</ele><time>2026-04-26T08:42:52.04Z</time></trkpt><trkpt lat="45.8754835" lon="11.4488311"><ele>1009.5</ele><time>2026-04-26T08:42:53.041Z</time></trkpt><trkpt lat="45.8755548" lon="11.4489054"><ele>1011.3333333333333</ele><time>2026-04-26T08:42:54.039Z</time></trkpt><trkpt lat="45.8756287" lon="11.4489777"><ele>1013.1666666666666</ele><time>2026-04-26T08:42:55.035Z</time></trkpt><trkpt lat="45.8757103" lon="11.4490489"><ele>1015.0</ele><time>2026-04-26T08:42:56.032Z</time></trkpt><trkpt lat="45.8757995" lon="11.449129"><ele>1015.0</ele><time>2026-04-26T08:42:57.032Z</time></trkpt><trkpt lat="45.8758981" lon="11.449204"><ele>1015.0</ele><time>2026-04-26T08:42:58.035Z</time></trkpt><trkpt lat="45.8760091" lon="11.4492677"><ele>1015.0</ele><time>2026-04-26T08:42:59.032Z</time></trkpt><trkpt lat="45.8761239" lon="11.4493167"><ele>1015.0</ele><time>2026-04-26T08:43:00.039Z</time></trkpt><trkpt lat="45.8762393" lon="11.4493677"><ele>1016.8</ele><time>2026-04-26T08:43:01.046Z</time></trkpt><trkpt lat="45.8763532" lon="11.4493942"><ele>1018.6</ele><time>2026-04-26T08:43:02.035Z</time></trkpt><trkpt lat="45.8764662" lon="11.4494225"><ele>1020.4000000000001</ele><time>2026-04-26T08:43:03.039Z</time></trkpt><trkpt lat="45.8765661" lon="11.4494837"><ele>1022.2</ele><time>2026-04-26T08:43:04.044Z</time></trkpt><trkpt lat="45.8766616" lon="11.4495234"><ele>1024.0</ele><time>2026-04-26T08:43:05.04Z</time></trkpt><trkpt lat="45.876752" lon="11.4495549"><ele>1025.5</ele><time>2026-04-26T08:43:06.053Z</time></trkpt><trkpt lat="45.876835" lon="11.4495925"><ele>1027.0</ele><time>2026-04-26T08:43:07.041Z</time></trkpt><trkpt lat="45.8769055" lon="11.4496447"><ele>1028.5</ele><time>2026-04-26T08:43:08.054Z</time></trkpt><trkpt lat="45.8769571" lon="11.4497336"><ele>1030.0</ele><time>2026-04-26T08:43:09.039Z</time></trkpt><trkpt lat="45.8770032" lon="11.4498386"><ele>1031.5</ele><time>2026-04-26T08:43:10.03Z</time></trkpt><trkpt lat="45.8770426" lon="11.4499604"><ele>1033.0</ele><time>2026-04-26T08:43:11.031Z</time></trkpt><trkpt lat="45.8770618" lon="11.450094"><ele>1033.0</ele><time>2026-04-26T08:43:12.034Z</time></trkpt><trkpt lat="45.8770701" lon="11.4502371"><ele>1033.0</ele><time>2026-04-26T08:43:13.034Z</time></trkpt><trkpt lat="45.8770694" lon="11.4503793"><ele>1033.0</ele><time>2026-04-26T08:43:14.027Z</time></trkpt><trkpt lat="45.8770706" lon="11.4505211"><ele>1033.0</ele><time>2026-04-26T08:43:15.029Z</time></trkpt><trkpt lat="45.8770777" lon="11.450684"><ele>1033.0</ele><time>2026-04-26T08:43:16.038Z</time></trkpt><trkpt lat="45.8771166" lon="11.4508452"><ele>1033.25</ele><time>2026-04-26T08:43:17.036Z</time></trkpt><trkpt lat="45.8771683" lon="11.4509981"><ele>1033.5</ele><time>2026-04-26T08:43:18.03Z</time></trkpt><trkpt lat="45.8772358" lon="11.4511392"><ele>1033.75</ele><time>2026-04-26T08:43:19.034Z</time></trkpt><trkpt lat="45.8772951" lon="11.4512835"><ele>1034.0</ele><time>2026-04-26T08:43:20.039Z</time></trkpt><trkpt lat="45.8773354" lon="11.451435"><ele>1034.2</ele><time>2026-04-26T08:43:21.049Z</time></trkpt><trkpt lat="45.8773519" lon="11.4515928"><ele>1034.4</ele><time>2026-04-26T08:43:22.037Z</time></trkpt><trkpt lat="45.8773652" lon="11.451744"><ele>1034.6</ele><time>2026-04-26T08:43:23.025Z</time></trkpt><trkpt lat="45.8773906" lon="11.4518922"><ele>1034.8</ele><time>2026-04-26T08:43:24.035Z</time></trkpt><trkpt lat="45.8774373" lon="11.4520316"><ele>1035.0</ele><time>2026-04-26T08:43:25.032Z</time></trkpt><trkpt lat="45.8775066" lon="11.4521857"><ele>1033.75</ele><time>2026-04-26T08:43:26.031Z</time></trkpt><trkpt lat="45.8775627" lon="11.4523547"><ele>1032.5</ele><time>2026-04-26T08:43:27.031Z</time></trkpt><trkpt lat="45.8776194" lon="11.4525238"><ele>1031.25</ele><time>2026-04-26T08:43:28.036Z</time></trkpt><trkpt lat="45.8776787" lon="11.4526839"><ele>1030.0</ele><time>2026-04-26T08:43:29.042Z</time></trkpt><trkpt lat="45.8777566" lon="11.4528171"><ele>1032.0</ele><time>2026-04-26T08:43:30.03Z</time></trkpt><trkpt lat="45.8778439" lon="11.4529356"><ele>1034.0</ele><time>2026-04-26T08:43:31.026Z</time></trkpt><trkpt lat="45.8779348" lon="11.4530515"><ele>1036.0</ele><time>2026-04-26T08:43:32.029Z</time></trkpt><trkpt lat="45.8780252" lon="11.4531749"><ele>1038.0</ele><time>2026-04-26T08:43:33.034Z</time></trkpt><trkpt lat="45.8781119" lon="11.4533019"><ele>1038.0</ele><time>2026-04-26T08:43:34.03Z</time></trkpt><trkpt lat="45.8781894" lon="11.4534281"><ele>1038.0</ele><time>2026-04-26T08:43:35.036Z</time></trkpt><trkpt lat="45.8782436" lon="11.453562"><ele>1038.0</ele><time>2026-04-26T08:43:36.025Z</time></trkpt><trkpt lat="45.8783019" lon="11.4536618"><ele>1038.0</ele><time>2026-04-26T08:43:37.041Z</time></trkpt><trkpt lat="45.8783466" lon="11.4537689"><ele>1038.0</ele><time>2026-04-26T08:43:38.029Z</time></trkpt><trkpt lat="45.8783994" lon="11.4538632"><ele>1039.8</ele><time>2026-04-26T08:43:39.028Z</time></trkpt><trkpt lat="45.8784624" lon="11.4539405"><ele>1041.6</ele><time>2026-04-26T08:43:40.028Z</time></trkpt><trkpt lat="45.8785179" lon="11.4540263"><ele>1043.4</ele><time>2026-04-26T08:43:41.027Z</time></trkpt><trkpt lat="45.8785756" lon="11.4541177"><ele>1045.2</ele><time>2026-04-26T08:43:42.021Z</time></trkpt><trkpt lat="45.8786508" lon="11.4542055"><ele>1047.0</ele><time>2026-04-26T08:43:43.03Z</time></trkpt><trkpt lat="45.8787371" lon="11.4543122"><ele>1047.0</ele><time>2026-04-26T08:43:44.032Z</time></trkpt><trkpt lat="45.8788291" lon="11.4544257"><ele>1047.0</ele><time>2026-04-26T08:43:45.019Z</time></trkpt><trkpt lat="45.8789211" lon="11.4545327"><ele>1047.0</ele><time>2026-04-26T08:43:46.044Z</time></trkpt><trkpt lat="45.8790125" lon="11.4546311"><ele>1047.0</ele><time>2026-04-26T08:43:47.041Z</time></trkpt><trkpt lat="45.8791031" lon="11.4547274"><ele>1047.4</ele><time>2026-04-26T08:43:48.025Z</time></trkpt><trkpt lat="45.8791867" lon="11.4548285"><ele>1047.8000000000002</ele><time>2026-04-26T08:43:49.029Z</time></trkpt><trkpt lat="45.8792574" lon="11.4549464"><ele>1048.2</ele><time>2026-04-26T08:43:50.036Z</time></trkpt><trkpt lat="45.8793212" lon="11.4550669"><ele>1048.6000000000001</ele><time>2026-04-26T08:43:51.026Z</time></trkpt><trkpt lat="45.8793815" lon="11.4551832"><ele>1049.0</ele><time>2026-04-26T08:43:52.021Z</time></trkpt><trkpt lat="45.8794365" lon="11.4553012"><ele>1049.6000000000001</ele><time>2026-04-26T08:43:53.025Z</time></trkpt><trkpt lat="45.8794834" lon="11.4554256"><ele>1050.2</ele><time>2026-04-26T08:43:54.039Z</time></trkpt><trkpt lat="45.8795296" lon="11.4555439"><ele>1050.8000000000002</ele><time>2026-04-26T08:43:55.046Z</time></trkpt><trkpt lat="45.879574" lon="11.4556607"><ele>1051.4</ele><time>2026-04-26T08:43:56.039Z</time></trkpt><trkpt lat="45.8796439" lon="11.4557603"><ele>1052.0</ele><time>2026-04-26T08:43:57.046Z</time></trkpt><trkpt lat="45.8797251" lon="11.4558565"><ele>1052.0</ele><time>2026-04-26T08:43:58.031Z</time></trkpt><trkpt lat="45.8797969" lon="11.4559539"><ele>1052.0</ele><time>2026-04-26T08:43:59.031Z</time></trkpt><trkpt lat="45.8798616" lon="11.4560542"><ele>1052.0</ele><time>2026-04-26T08:44:00.039Z</time></trkpt><trkpt lat="45.8799298" lon="11.4561566"><ele>1052.0</ele><time>2026-04-26T08:44:01.035Z</time></trkpt><trkpt lat="45.8799973" lon="11.456266"><ele>1052.0</ele><time>2026-04-26T08:44:02.041Z</time></trkpt><trkpt lat="45.8800741" lon="11.4563814"><ele>1052.0</ele><time>2026-04-26T08:44:03.027Z</time></trkpt><trkpt lat="45.8801566" lon="11.4564978"><ele>1052.0</ele><time>2026-04-26T08:44:04.033Z</time></trkpt><trkpt lat="45.8802441" lon="11.4566093"><ele>1052.0</ele><time>2026-04-26T08:44:05.024Z</time></trkpt><trkpt lat="45.8803328" lon="11.4567104"><ele>1052.0</ele><time>2026-04-26T08:44:06.042Z</time></trkpt><trkpt lat="45.88041" lon="11.4568109"><ele>1052.0</ele><time>2026-04-26T08:44:07.054Z</time></trkpt><trkpt lat="45.8804856" lon="11.4569072"><ele>1052.0</ele><time>2026-04-26T08:44:08.034Z</time></trkpt><trkpt lat="45.8805648" lon="11.4570009"><ele>1052.0</ele><time>2026-04-26T08:44:09.049Z</time></trkpt><trkpt lat="45.8806515" lon="11.4570922"><ele>1052.0</ele><time>2026-04-26T08:44:10.047Z</time></trkpt><trkpt lat="45.8807447" lon="11.4571806"><ele>1052.0</ele><time>2026-04-26T08:44:11.021Z</time></trkpt><trkpt lat="45.8808355" lon="11.4572785"><ele>1050.75</ele><time>2026-04-26T08:44:12.021Z</time></trkpt><trkpt lat="45.8809223" lon="11.4573837"><ele>1049.5</ele><time>2026-04-26T08:44:13.036Z</time></trkpt><trkpt lat="45.8810111" lon="11.4574874"><ele>1048.25</ele><time>2026-04-26T08:44:14.053Z</time></trkpt><trkpt lat="45.8811084" lon="11.4575808"><ele>1047.0</ele><time>2026-04-26T08:44:15.033Z</time></trkpt><trkpt lat="45.8812117" lon="11.4576719"><ele>1049.5</ele><time>2026-04-26T08:44:16.034Z</time></trkpt><trkpt lat="45.8813203" lon="11.4577505"><ele>1052.0</ele><time>2026-04-26T08:44:17.036Z</time></trkpt><trkpt lat="45.8814319" lon="11.4578058"><ele>1054.5</ele><time>2026-04-26T08:44:18.026Z</time></trkpt><trkpt lat="45.8815386" lon="11.4578543"><ele>1057.0</ele><time>2026-04-26T08:44:19.038Z</time></trkpt><trkpt lat="45.8816284" lon="11.4579231"><ele>1056.4</ele><time>2026-04-26T08:44:20.044Z</time></trkpt><trkpt lat="45.8817043" lon="11.458002"><ele>1055.8000000000002</ele><time>2026-04-26T08:44:21.037Z</time></trkpt><trkpt lat="45.8817716" lon="11.4580918"><ele>1055.2</ele><time>2026-04-26T08:44:22.034Z</time></trkpt><trkpt lat="45.8818369" lon="11.4581852"><ele>1054.6000000000001</ele><time>2026-04-26T08:44:23.034Z</time></trkpt><trkpt lat="45.8819048" lon="11.4582756"><ele>1054.0</ele><time>2026-04-26T08:44:24.046Z</time></trkpt><trkpt lat="45.8819761" lon="11.4583617"><ele>1055.4</ele><time>2026-04-26T08:44:25.039Z</time></trkpt><trkpt lat="45.8820484" lon="11.458449"><ele>1056.8000000000002</ele><time>2026-04-26T08:44:26.043Z</time></trkpt><trkpt lat="45.8821215" lon="11.4585387"><ele>1058.1999999999998</ele><time>2026-04-26T08:44:27.027Z</time></trkpt><trkpt lat="45.8821941" lon="11.4586269"><ele>1059.6</ele><time>2026-04-26T08:44:28.046Z</time></trkpt><trkpt lat="45.8822666" lon="11.4587046"><ele>1061.0</ele><time>2026-04-26T08:44:29.037Z</time></trkpt><trkpt lat="45.8823368" lon="11.458766"><ele>1060.1666666666667</ele><time>2026-04-26T08:44:30.028Z</time></trkpt><trkpt lat="45.8823967" lon="11.4588078"><ele>1059.3333333333335</ele><time>2026-04-26T08:44:31.039Z</time></trkpt><trkpt lat="45.882486" lon="11.4588339"><ele>1058.5</ele><time>2026-04-26T08:44:33.029Z</time></trkpt><trkpt lat="45.8825487" lon="11.4589102"><ele>1057.6666666666667</ele><time>2026-04-26T08:44:36.031Z</time></trkpt><trkpt lat="45.8824997" lon="11.458996"><ele>1056.8333333333333</ele><time>2026-04-26T08:44:38.032Z</time></trkpt><trkpt lat="45.8824132" lon="11.4591058"><ele>1056.0</ele><time>2026-04-26T08:44:40.035Z</time></trkpt><trkpt lat="45.8823467" lon="11.4592346"><ele>1056.0</ele><time>2026-04-26T08:44:42.02Z</time></trkpt><trkpt lat="45.8822755" lon="11.4593681"><ele>1056.0</ele><time>2026-04-26T08:44:44.035Z</time></trkpt><trkpt lat="45.8822079" lon="11.4595012"><ele>1056.0</ele><time>2026-04-26T08:44:46.031Z</time></trkpt><trkpt lat="45.8821617" lon="11.459609"><ele>1056.0</ele><time>2026-04-26T08:44:48.041Z</time></trkpt><trkpt lat="45.8820625" lon="11.4596615"><ele>1056.0</ele><time>2026-04-26T08:44:50.037Z</time></trkpt><trkpt lat="45.8819696" lon="11.459732"><ele>1055.5</ele><time>2026-04-26T08:44:52.035Z</time></trkpt><trkpt lat="45.8818673" lon="11.4597935"><ele>1055.0</ele><time>2026-04-26T08:44:54.033Z</time></trkpt><trkpt lat="45.8817521" lon="11.4598414"><ele>1054.5</ele><time>2026-04-26T08:44:56.027Z</time></trkpt><trkpt lat="45.8816315" lon="11.4598353"><ele>1054.0</ele><time>2026-04-26T08:44:58.034Z</time></trkpt><trkpt lat="45.8815247" lon="11.4597844"><ele>1053.8</ele><time>2026-04-26T08:45:00.046Z</time></trkpt><trkpt lat="45.8814065" lon="11.4597275"><ele>1053.6000000000001</ele><time>2026-04-26T08:45:02.027Z</time></trkpt><trkpt lat="45.8813413" lon="11.4596935"><ele>1053.4</ele><time>2026-04-26T08:45:03.025Z</time></trkpt><trkpt lat="45.8812754" lon="11.4596659"><ele>1053.2</ele><time>2026-04-26T08:45:04.039Z</time></trkpt><trkpt lat="45.8811563" lon="11.4596442"><ele>1053.0</ele><time>2026-04-26T08:45:06.057Z</time></trkpt><trkpt lat="45.8810496" lon="11.4596091"><ele>1053.0</ele><time>2026-04-26T08:45:08.049Z</time></trkpt><trkpt lat="45.8809847" lon="11.4595007"><ele>1053.0</ele><time>2026-04-26T08:45:10.027Z</time></trkpt><trkpt lat="45.8809041" lon="11.4594451"><ele>1053.0</ele><time>2026-04-26T08:45:12.037Z</time></trkpt><trkpt lat="45.8807761" lon="11.4594983"><ele>1053.0</ele><time>2026-04-26T08:45:14.049Z</time></trkpt><trkpt lat="45.8806854" lon="11.459539"><ele>1053.0</ele><time>2026-04-26T08:45:15.035Z</time></trkpt><trkpt lat="45.8805876" lon="11.4595851"><ele>1051.2</ele><time>2026-04-26T08:45:16.033Z</time></trkpt><trkpt lat="45.8804865" lon="11.459628"><ele>1049.4</ele><time>2026-04-26T08:45:17.031Z</time></trkpt><trkpt lat="45.8803856" lon="11.45967"><ele>1047.6000000000001</ele><time>2026-04-26T08:45:18.034Z</time></trkpt><trkpt lat="45.8802796" lon="11.4597076"><ele>1045.8</ele><time>2026-04-26T08:45:19.034Z</time></trkpt><trkpt lat="45.8801741" lon="11.4597468"><ele>1044.0</ele><time>2026-04-26T08:45:20.041Z</time></trkpt><trkpt lat="45.8800752" lon="11.4597946"><ele>1042.6000000000001</ele><time>2026-04-26T08:45:21.032Z</time></trkpt><trkpt lat="45.8799723" lon="11.459824"><ele>1041.2</ele><time>2026-04-26T08:45:22.028Z</time></trkpt><trkpt lat="45.8798709" lon="11.4598641"><ele>1039.8000000000002</ele><time>2026-04-26T08:45:23.028Z</time></trkpt><trkpt lat="45.8797663" lon="11.459892"><ele>1038.4</ele><time>2026-04-26T08:45:24.037Z</time></trkpt><trkpt lat="45.8796582" lon="11.4598953"><ele>1037.0</ele><time>2026-04-26T08:45:25.026Z</time></trkpt><trkpt lat="45.8795533" lon="11.4598988"><ele>1037.0</ele><time>2026-04-26T08:45:26.048Z</time></trkpt><trkpt lat="45.8794513" lon="11.4599151"><ele>1037.0</ele><time>2026-04-26T08:45:27.038Z</time></trkpt><trkpt lat="45.8793514" lon="11.4599474"><ele>1037.0</ele><time>2026-04-26T08:45:28.033Z</time></trkpt><trkpt lat="45.8792489" lon="11.4599928"><ele>1037.0</ele><time>2026-04-26T08:45:29.034Z</time></trkpt><trkpt lat="45.8791437" lon="11.4600391"><ele>1037.0</ele><time>2026-04-26T08:45:30.034Z</time></trkpt><trkpt lat="45.8790352" lon="11.4600803"><ele>1033.75</ele><time>2026-04-26T08:45:31.029Z</time></trkpt><trkpt lat="45.8789266" lon="11.4601361"><ele>1030.5</ele><time>2026-04-26T08:45:32.021Z</time></trkpt><trkpt lat="45.8788111" lon="11.4601817"><ele>1027.25</ele><time>2026-04-26T08:45:33.046Z</time></trkpt><trkpt lat="45.8786961" lon="11.4602353"><ele>1024.0</ele><time>2026-04-26T08:45:34.032Z</time></trkpt><trkpt lat="45.878579" lon="11.4602832"><ele>1024.0</ele><time>2026-04-26T08:45:35.019Z</time></trkpt><trkpt lat="45.8784634" lon="11.4603316"><ele>1024.0</ele><time>2026-04-26T08:45:36.032Z</time></trkpt><trkpt lat="45.8783499" lon="11.460375"><ele>1024.0</ele><time>2026-04-26T08:45:37.023Z</time></trkpt><trkpt lat="45.8782367" lon="11.4604282"><ele>1024.0</ele><time>2026-04-26T08:45:38.057Z</time></trkpt><trkpt lat="45.8781257" lon="11.460474"><ele>1022.8000000000001</ele><time>2026-04-26T08:45:39.04Z</time></trkpt><trkpt lat="45.8780224" lon="11.4605129"><ele>1021.6000000000001</ele><time>2026-04-26T08:45:40.027Z</time></trkpt><trkpt lat="45.8779284" lon="11.4605476"><ele>1020.4</ele><time>2026-04-26T08:45:41.018Z</time></trkpt><trkpt lat="45.8778394" lon="11.4605791"><ele>1019.2</ele><time>2026-04-26T08:45:42.03Z</time></trkpt><trkpt lat="45.8777509" lon="11.4606141"><ele>1018.0</ele><time>2026-04-26T08:45:43.036Z</time></trkpt><trkpt lat="45.8776607" lon="11.4606538"><ele>1016.8333333333333</ele><time>2026-04-26T08:45:44.038Z</time></trkpt><trkpt lat="45.8775724" lon="11.4606875"><ele>1015.6666666666666</ele><time>2026-04-26T08:45:45.021Z</time></trkpt><trkpt lat="45.8774914" lon="11.4607305"><ele>1014.5</ele><time>2026-04-26T08:45:46.024Z</time></trkpt><trkpt lat="45.8774123" lon="11.4607844"><ele>1013.3333333333333</ele><time>2026-04-26T08:45:47.047Z</time></trkpt><trkpt lat="45.8773305" lon="11.4608332"><ele>1012.1666666666666</ele><time>2026-04-26T08:45:48.026Z</time></trkpt><trkpt lat="45.8772538" lon="11.4608983"><ele>1011.0</ele><time>2026-04-26T08:45:49.039Z</time></trkpt><trkpt lat="45.8771794" lon="11.4609638"><ele>1011.0</ele><time>2026-04-26T08:45:50.032Z</time></trkpt><trkpt lat="45.8771022" lon="11.4610384"><ele>1011.0</ele><time>2026-04-26T08:45:51.025Z</time></trkpt><trkpt lat="45.8770225" lon="11.4611226"><ele>1011.0</ele><time>2026-04-26T08:45:52.045Z</time></trkpt><trkpt lat="45.8769475" lon="11.4611901"><ele>1011.0</ele><time>2026-04-26T08:45:53.047Z</time></trkpt><trkpt lat="45.876883" lon="11.4612553"><ele>1011.0</ele><time>2026-04-26T08:45:54.054Z</time></trkpt><trkpt lat="45.8768248" lon="11.4613144"><ele>1011.0</ele><time>2026-04-26T08:45:55.035Z</time></trkpt><trkpt lat="45.8767674" lon="11.461358"><ele>1009.5714285714284</ele><time>2026-04-26T08:45:56.025Z</time></trkpt><trkpt lat="45.8767048" lon="11.4613795"><ele>1008.1428571428571</ele><time>2026-04-26T08:45:57.021Z</time></trkpt><trkpt lat="45.8766349" lon="11.4613636"><ele>1006.7142857142857</ele><time>2026-04-26T08:45:58.023Z</time></trkpt><trkpt lat="45.8765697" lon="11.4613238"><ele>1005.2857142857142</ele><time>2026-04-26T08:45:59.034Z</time></trkpt><trkpt lat="45.876502" lon="11.4612863"><ele>1003.8571428571429</ele><time>2026-04-26T08:46:00.029Z</time></trkpt><trkpt lat="45.8764341" lon="11.4612366"><ele>1002.4285714285714</ele><time>2026-04-26T08:46:01.023Z</time></trkpt><trkpt lat="45.876361" lon="11.4612137"><ele>1001.0</ele><time>2026-04-26T08:46:02.036Z</time></trkpt><trkpt lat="45.8763113" lon="11.4611551"><ele>1001.0</ele><time>2026-04-26T08:46:03.026Z</time></trkpt><trkpt lat="45.876236" lon="11.4610939"><ele>1000.9999999999999</ele><time>2026-04-26T08:46:05.051Z</time></trkpt><trkpt lat="45.8761643" lon="11.4610812"><ele>1000.9999999999999</ele><time>2026-04-26T08:46:08.031Z</time></trkpt><trkpt lat="45.8760743" lon="11.4611965"><ele>1001.0</ele><time>2026-04-26T08:46:34.028Z</time></trkpt><trkpt lat="45.8760287" lon="11.4613317"><ele>1001.0</ele><time>2026-04-26T08:46:35.024Z</time></trkpt><trkpt lat="45.875978" lon="11.4614688"><ele>999.1999999999999</ele><time>2026-04-26T08:46:36.029Z</time></trkpt><trkpt lat="45.8759084" lon="11.461605"><ele>997.3999999999999</ele><time>2026-04-26T08:46:37.035Z</time></trkpt><trkpt lat="45.8758573" lon="11.4617362"><ele>995.6</ele><time>2026-04-26T08:46:38.033Z</time></trkpt><trkpt lat="45.8758203" lon="11.4618593"><ele>993.8</ele><time>2026-04-26T08:46:39.035Z</time></trkpt><trkpt lat="45.8757743" lon="11.4619727"><ele>992.0</ele><time>2026-04-26T08:46:40.022Z</time></trkpt><trkpt lat="45.8757283" lon="11.4620617"><ele>992.2</ele><time>2026-04-26T08:46:41.017Z</time></trkpt><trkpt lat="45.8756718" lon="11.4621886"><ele>992.4000000000001</ele><time>2026-04-26T08:46:43.03Z</time></trkpt><trkpt lat="45.8756624" lon="11.4622916"><ele>992.5999999999999</ele><time>2026-04-26T08:46:45.03Z</time></trkpt><trkpt lat="45.8756207" lon="11.4624248"><ele>992.8</ele><time>2026-04-26T08:46:47.019Z</time></trkpt><trkpt lat="45.8755846" lon="11.4625344"><ele>993.0</ele><time>2026-04-26T08:46:48.048Z</time></trkpt><trkpt lat="45.8755427" lon="11.4626461"><ele>993.0</ele><time>2026-04-26T08:46:49.041Z</time></trkpt><trkpt lat="45.8754935" lon="11.4627472"><ele>993.0</ele><time>2026-04-26T08:46:50.022Z</time></trkpt><trkpt lat="45.8754517" lon="11.4628516"><ele>993.0</ele><time>2026-04-26T08:46:51.035Z</time></trkpt><trkpt lat="45.8754146" lon="11.462954"><ele>993.0</ele><time>2026-04-26T08:46:52.017Z</time></trkpt><trkpt lat="45.8753921" lon="11.4630616"><ele>993.0</ele><time>2026-04-26T08:46:53.027Z</time></trkpt><trkpt lat="45.8753579" lon="11.4631567"><ele>993.0</ele><time>2026-04-26T08:46:54.029Z</time></trkpt><trkpt lat="45.8753197" lon="11.4632551"><ele>993.4</ele><time>2026-04-26T08:46:55.028Z</time></trkpt><trkpt lat="45.8752755" lon="11.4633573"><ele>993.8</ele><time>2026-04-26T08:46:56.032Z</time></trkpt><trkpt lat="45.8752232" lon="11.4634632"><ele>994.2</ele><time>2026-04-26T08:46:57.03Z</time></trkpt><trkpt lat="45.875165" lon="11.4635712"><ele>994.6</ele><time>2026-04-26T08:46:58.035Z</time></trkpt><trkpt lat="45.8751039" lon="11.4636779"><ele>995.0</ele><time>2026-04-26T08:46:59.035Z</time></trkpt><trkpt lat="45.8750387" lon="11.4637801"><ele>993.2</ele><time>2026-04-26T08:47:00.023Z</time></trkpt><trkpt lat="45.8749774" lon="11.4638857"><ele>991.4</ele><time>2026-04-26T08:47:01.022Z</time></trkpt><trkpt lat="45.8748927" lon="11.4639567"><ele>989.5999999999999</ele><time>2026-04-26T08:47:02.054Z</time></trkpt><trkpt lat="45.8748165" lon="11.4640399"><ele>987.8</ele><time>2026-04-26T08:47:03.023Z</time></trkpt><trkpt lat="45.8747224" lon="11.4641079"><ele>986.0</ele><time>2026-04-26T08:47:04.03Z</time></trkpt><trkpt lat="45.8746192" lon="11.4641649"><ele>986.0</ele><time>2026-04-26T08:47:05.02Z</time></trkpt><trkpt lat="45.874512" lon="11.4642204"><ele>986.0</ele><time>2026-04-26T08:47:06.022Z</time></trkpt><trkpt lat="45.8744039" lon="11.4642774"><ele>986.0</ele><time>2026-04-26T08:47:07.032Z</time></trkpt><trkpt lat="45.8742919" lon="11.4643254"><ele>986.0</ele><time>2026-04-26T08:47:08.041Z</time></trkpt><trkpt lat="45.8741775" lon="11.4643703"><ele>986.25</ele><time>2026-04-26T08:47:09.024Z</time></trkpt><trkpt lat="45.8740728" lon="11.4644566"><ele>986.5</ele><time>2026-04-26T08:47:10.035Z</time></trkpt><trkpt lat="45.8739632" lon="11.4645379"><ele>986.75</ele><time>2026-04-26T08:47:11.022Z</time></trkpt><trkpt lat="45.8738616" lon="11.4646546"><ele>987.0</ele><time>2026-04-26T08:47:12.038Z</time></trkpt><trkpt lat="45.873774" lon="11.4647933"><ele>987.0</ele><time>2026-04-26T08:47:13.043Z</time></trkpt><trkpt lat="45.8736955" lon="11.4649516"><ele>987.0</ele><time>2026-04-26T08:47:14.02Z</time></trkpt><trkpt lat="45.873609" lon="11.4651065"><ele>987.0</ele><time>2026-04-26T08:47:15.019Z</time></trkpt><trkpt lat="45.8735144" lon="11.4652353"><ele>987.0</ele><time>2026-04-26T08:47:16.02Z</time></trkpt><trkpt lat="45.8734175" lon="11.4653565"><ele>981.0</ele><time>2026-04-26T08:47:17.025Z</time></trkpt><trkpt lat="45.8732922" lon="11.4654148"><ele>975.0</ele><time>2026-04-26T08:47:18.021Z</time></trkpt><trkpt lat="45.8731619" lon="11.4654321"><ele>969.0</ele><time>2026-04-26T08:47:19.047Z</time></trkpt><trkpt lat="45.873046" lon="11.4654376"><ele>963.0</ele><time>2026-04-26T08:47:20.029Z</time></trkpt><trkpt lat="45.8729472" lon="11.4654402"><ele>963.0</ele><time>2026-04-26T08:47:21.041Z</time></trkpt><trkpt lat="45.8728552" lon="11.4654383"><ele>963.0</ele><time>2026-04-26T08:47:22.032Z</time></trkpt><trkpt lat="45.8727766" lon="11.4654589"><ele>963.0</ele><time>2026-04-26T08:47:23.019Z</time></trkpt><trkpt lat="45.8727079" lon="11.4654889"><ele>963.0</ele><time>2026-04-26T08:47:24.034Z</time></trkpt><trkpt lat="45.8726596" lon="11.4655627"><ele>963.0</ele><time>2026-04-26T08:47:25.031Z</time></trkpt><trkpt lat="45.8726451" lon="11.4656757"><ele>963.0</ele><time>2026-04-26T08:47:26.033Z</time></trkpt><trkpt lat="45.8726608" lon="11.46581"><ele>966.5</ele><time>2026-04-26T08:47:27.034Z</time></trkpt><trkpt lat="45.8727043" lon="11.4659714"><ele>970.0</ele><time>2026-04-26T08:47:28.035Z</time></trkpt><trkpt lat="45.8727475" lon="11.4661437"><ele>973.5</ele><time>2026-04-26T08:47:29.038Z</time></trkpt><trkpt lat="45.8727877" lon="11.4663141"><ele>977.0</ele><time>2026-04-26T08:47:30.038Z</time></trkpt><trkpt lat="45.8728259" lon="11.4664827"><ele>977.0</ele><time>2026-04-26T08:47:31.056Z</time></trkpt><trkpt lat="45.8728696" lon="11.4666431"><ele>977.0</ele><time>2026-04-26T08:47:32.038Z</time></trkpt><trkpt lat="45.8729288" lon="11.4667934"><ele>977.0</ele><time>2026-04-26T08:47:33.04Z</time></trkpt><trkpt lat="45.8730129" lon="11.4669318"><ele>977.0</ele><time>2026-04-26T08:47:34.033Z</time></trkpt><trkpt lat="45.8731229" lon="11.467051"><ele>974.0</ele><time>2026-04-26T08:47:35.042Z</time></trkpt><trkpt lat="45.8732251" lon="11.4671945"><ele>971.0</ele><time>2026-04-26T08:47:36.036Z</time></trkpt><trkpt lat="45.8733284" lon="11.4673407"><ele>968.0</ele><time>2026-04-26T08:47:37.022Z</time></trkpt><trkpt lat="45.873382" lon="11.4675488"><ele>965.0</ele><time>2026-04-26T08:47:38.03Z</time></trkpt><trkpt lat="45.8734251" lon="11.4677723"><ele>966.3333333333334</ele><time>2026-04-26T08:47:39.033Z</time></trkpt><trkpt lat="45.8734983" lon="11.4679827"><ele>967.6666666666667</ele><time>2026-04-26T08:47:40.047Z</time></trkpt><trkpt lat="45.8736005" lon="11.4681627"><ele>969.0</ele><time>2026-04-26T08:47:41.034Z</time></trkpt><trkpt lat="45.8736926" lon="11.4683404"><ele>969.0</ele><time>2026-04-26T08:47:42.025Z</time></trkpt><trkpt lat="45.8737651" lon="11.4685262"><ele>969.0</ele><time>2026-04-26T08:47:43.02Z</time></trkpt><trkpt lat="45.8738364" lon="11.4687117"><ele>969.0</ele><time>2026-04-26T08:47:44.024Z</time></trkpt><trkpt lat="45.8738756" lon="11.4689115"><ele>969.0</ele><time>2026-04-26T08:47:45.035Z</time></trkpt><trkpt lat="45.873942" lon="11.469084"><ele>969.0</ele><time>2026-04-26T08:47:46.021Z</time></trkpt><trkpt lat="45.874027" lon="11.4692327"><ele>969.0</ele><time>2026-04-26T08:47:47.034Z</time></trkpt><trkpt lat="45.8741434" lon="11.4693276"><ele>969.0</ele><time>2026-04-26T08:47:48.019Z</time></trkpt><trkpt lat="45.8742658" lon="11.4693759"><ele>969.0</ele><time>2026-04-26T08:47:49.03Z</time></trkpt><trkpt lat="45.8743975" lon="11.4693686"><ele>969.0</ele><time>2026-04-26T08:47:50.017Z</time></trkpt><trkpt lat="45.8745223" lon="11.4693223"><ele>969.0000000000001</ele><time>2026-04-26T08:47:51.031Z</time></trkpt><trkpt lat="45.8746317" lon="11.469272"><ele>969.0000000000001</ele><time>2026-04-26T08:47:52.031Z</time></trkpt><trkpt lat="45.8747239" lon="11.4693047"><ele>969.0</ele><time>2026-04-26T08:47:53.028Z</time></trkpt><trkpt lat="45.8747971" lon="11.4694026"><ele>969.0</ele><time>2026-04-26T08:47:54.024Z</time></trkpt><trkpt lat="45.87483" lon="11.4695402"><ele>966.6</ele><time>2026-04-26T08:47:55.025Z</time></trkpt><trkpt lat="45.8748142" lon="11.4696825"><ele>964.2</ele><time>2026-04-26T08:47:56.022Z</time></trkpt><trkpt lat="45.8747965" lon="11.4698198"><ele>961.8000000000001</ele><time>2026-04-26T08:47:57.031Z</time></trkpt><trkpt lat="45.8748011" lon="11.4699575"><ele>959.4000000000001</ele><time>2026-04-26T08:47:58.027Z</time></trkpt><trkpt lat="45.8748226" lon="11.4700985"><ele>957.0</ele><time>2026-04-26T08:47:59.026Z</time></trkpt><trkpt lat="45.8748783" lon="11.4702404"><ele>957.0</ele><time>2026-04-26T08:48:00.031Z</time></trkpt><trkpt lat="45.8749609" lon="11.4703583"><ele>957.0</ele><time>2026-04-26T08:48:01.015Z</time></trkpt><trkpt lat="45.8750607" lon="11.4704648"><ele>957.0</ele><time>2026-04-26T08:48:02.04Z</time></trkpt><trkpt lat="45.8751662" lon="11.4705622"><ele>957.0</ele><time>2026-04-26T08:48:03.023Z</time></trkpt><trkpt lat="45.8752771" lon="11.4706642"><ele>958.5</ele><time>2026-04-26T08:48:04.038Z</time></trkpt><trkpt lat="45.8753855" lon="11.4707874"><ele>960.0</ele><time>2026-04-26T08:48:05.023Z</time></trkpt><trkpt lat="45.8754705" lon="11.4709361"><ele>961.5</ele><time>2026-04-26T08:48:06.03Z</time></trkpt><trkpt lat="45.8755583" lon="11.4710721"><ele>963.0</ele><time>2026-04-26T08:48:07.027Z</time></trkpt><trkpt lat="45.8756563" lon="11.4711986"><ele>962.75</ele><time>2026-04-26T08:48:08.023Z</time></trkpt><trkpt lat="45.875774" lon="11.4713013"><ele>962.5</ele><time>2026-04-26T08:48:09.032Z</time></trkpt><trkpt lat="45.8759065" lon="11.4713935"><ele>962.25</ele><time>2026-04-26T08:48:10.029Z</time></trkpt><trkpt lat="45.8760343" lon="11.4714998"><ele>962.0</ele><time>2026-04-26T08:48:11.045Z</time></trkpt><trkpt lat="45.8761602" lon="11.4716085"><ele>962.0</ele><time>2026-04-26T08:48:12.018Z</time></trkpt><trkpt lat="45.8763033" lon="11.471683"><ele>962.0</ele><time>2026-04-26T08:48:13.022Z</time></trkpt><trkpt lat="45.8764313" lon="11.4717891"><ele>962.0</ele><time>2026-04-26T08:48:14.01Z</time></trkpt><trkpt lat="45.8765533" lon="11.4719096"><ele>962.0</ele><time>2026-04-26T08:48:15.02Z</time></trkpt><trkpt lat="45.8766772" lon="11.4720144"><ele>959.0</ele><time>2026-04-26T08:48:16.032Z</time></trkpt><trkpt lat="45.8767981" lon="11.4721155"><ele>956.0</ele><time>2026-04-26T08:48:17.048Z</time></trkpt><trkpt lat="45.8769212" lon="11.472199"><ele>953.0</ele><time>2026-04-26T08:48:18.02Z</time></trkpt><trkpt lat="45.8770383" lon="11.4722691"><ele>950.0</ele><time>2026-04-26T08:48:19.035Z</time></trkpt><trkpt lat="45.8771479" lon="11.4723236"><ele>950.0</ele><time>2026-04-26T08:48:20.022Z</time></trkpt><trkpt lat="45.8772436" lon="11.4723749"><ele>950.0</ele><time>2026-04-26T08:48:21.033Z</time></trkpt><trkpt lat="45.8773271" lon="11.4724239"><ele>950.0</ele><time>2026-04-26T08:48:22.026Z</time></trkpt><trkpt lat="45.8774043" lon="11.4724822"><ele>950.0</ele><time>2026-04-26T08:48:23.036Z</time></trkpt><trkpt lat="45.877449" lon="11.4725879"><ele>950.0</ele><time>2026-04-26T08:48:24.033Z</time></trkpt><trkpt lat="45.8774515" lon="11.4727205"><ele>950.0000000000001</ele><time>2026-04-26T08:48:25.021Z</time></trkpt><trkpt lat="45.8774306" lon="11.4728432"><ele>950.0</ele><time>2026-04-26T08:48:26.017Z</time></trkpt><trkpt lat="45.8774053" lon="11.4729539"><ele>950.0</ele><time>2026-04-26T08:48:27.019Z</time></trkpt><trkpt lat="45.8773817" lon="11.4730642"><ele>950.0</ele><time>2026-04-26T08:48:28.03Z</time></trkpt><trkpt lat="45.8773536" lon="11.4731845"><ele>950.0000000000001</ele><time>2026-04-26T08:48:29.019Z</time></trkpt><trkpt lat="45.8773333" lon="11.4733211"><ele>950.0</ele><time>2026-04-26T08:48:30.023Z</time></trkpt><trkpt lat="45.8773107" lon="11.473471"><ele>944.2</ele><time>2026-04-26T08:48:31.022Z</time></trkpt><trkpt lat="45.8772873" lon="11.4736275"><ele>938.4</ele><time>2026-04-26T08:48:32.014Z</time></trkpt><trkpt lat="45.877264" lon="11.4737837"><ele>932.5999999999999</ele><time>2026-04-26T08:48:33.022Z</time></trkpt><trkpt lat="45.8772403" lon="11.4739377"><ele>926.8</ele><time>2026-04-26T08:48:34.021Z</time></trkpt><trkpt lat="45.877207" lon="11.4740853"><ele>921.0</ele><time>2026-04-26T08:48:35.023Z</time></trkpt><trkpt lat="45.8771704" lon="11.4742302"><ele>920.4</ele><time>2026-04-26T08:48:36.041Z</time></trkpt><trkpt lat="45.8771443" lon="11.4743774"><ele>919.8</ele><time>2026-04-26T08:48:37.025Z</time></trkpt><trkpt lat="45.8771194" lon="11.4745236"><ele>919.1999999999999</ele><time>2026-04-26T08:48:38.015Z</time></trkpt><trkpt lat="45.8770956" lon="11.4746696"><ele>918.5999999999999</ele><time>2026-04-26T08:48:39.022Z</time></trkpt><trkpt lat="45.8770681" lon="11.4748108"><ele>918.0</ele><time>2026-04-26T08:48:40.024Z</time></trkpt><trkpt lat="45.87703" lon="11.4749416"><ele>922.5999999999999</ele><time>2026-04-26T08:48:41.039Z</time></trkpt><trkpt lat="45.8769596" lon="11.4750388"><ele>927.1999999999999</ele><time>2026-04-26T08:48:42.033Z</time></trkpt><trkpt lat="45.8768786" lon="11.4751227"><ele>931.8</ele><time>2026-04-26T08:48:43.044Z</time></trkpt><trkpt lat="45.8767613" lon="11.4751512"><ele>936.4</ele><time>2026-04-26T08:48:44.018Z</time></trkpt><trkpt lat="45.8766378" lon="11.4751583"><ele>941.0</ele><time>2026-04-26T08:48:45.039Z</time></trkpt><trkpt lat="45.8765128" lon="11.4751413"><ele>941.0</ele><time>2026-04-26T08:48:46.032Z</time></trkpt><trkpt lat="45.8763803" lon="11.4751382"><ele>941.0</ele><time>2026-04-26T08:48:47.039Z</time></trkpt><trkpt lat="45.8762472" lon="11.4751353"><ele>941.0</ele><time>2026-04-26T08:48:48.029Z</time></trkpt><trkpt lat="45.8761126" lon="11.4751329"><ele>941.0</ele><time>2026-04-26T08:48:49.027Z</time></trkpt><trkpt lat="45.8759781" lon="11.4751184"><ele>940.75</ele><time>2026-04-26T08:48:50.036Z</time></trkpt><trkpt lat="45.8758433" lon="11.4751062"><ele>940.5</ele><time>2026-04-26T08:48:51.02Z</time></trkpt><trkpt lat="45.8757094" lon="11.4751036"><ele>940.25</ele><time>2026-04-26T08:48:52.043Z</time></trkpt><trkpt lat="45.8755855" lon="11.4751111"><ele>940.0</ele><time>2026-04-26T08:48:53.025Z</time></trkpt><trkpt lat="45.8754722" lon="11.4751218"><ele>940.0</ele><time>2026-04-26T08:48:54.022Z</time></trkpt><trkpt lat="45.8753728" lon="11.47516"><ele>940.0</ele><time>2026-04-26T08:48:55.02Z</time></trkpt><trkpt lat="45.8752893" lon="11.4752276"><ele>940.0</ele><time>2026-04-26T08:48:56.032Z</time></trkpt><trkpt lat="45.8752244" lon="11.4753284"><ele>940.0</ele><time>2026-04-26T08:48:57.024Z</time></trkpt><trkpt lat="45.8751977" lon="11.4754858"><ele>940.0</ele><time>2026-04-26T08:48:58.028Z</time></trkpt><trkpt lat="45.8752005" lon="11.4756875"><ele>947.6666666666666</ele><time>2026-04-26T08:48:59.029Z</time></trkpt><trkpt lat="45.8752099" lon="11.4759176"><ele>955.3333333333333</ele><time>2026-04-26T08:49:00.039Z</time></trkpt><trkpt lat="45.8752103" lon="11.4761615"><ele>963.0</ele><time>2026-04-26T08:49:01.019Z</time></trkpt><trkpt lat="45.8752168" lon="11.4764092"><ele>968.0</ele><time>2026-04-26T08:49:02.041Z</time></trkpt><trkpt lat="45.8752197" lon="11.4766513"><ele>973.0</ele><time>2026-04-26T08:49:03.043Z</time></trkpt><trkpt lat="45.875209" lon="11.4768803"><ele>978.0</ele><time>2026-04-26T08:49:04.03Z</time></trkpt><trkpt lat="45.8752012" lon="11.4770985"><ele>978.25</ele><time>2026-04-26T08:49:05.034Z</time></trkpt><trkpt lat="45.8752049" lon="11.4773075"><ele>978.5</ele><time>2026-04-26T08:49:06.047Z</time></trkpt><trkpt lat="45.8752094" lon="11.4774994"><ele>978.75</ele><time>2026-04-26T08:49:07.035Z</time></trkpt><trkpt lat="45.875233" lon="11.4776799"><ele>979.0</ele><time>2026-04-26T08:49:08.03Z</time></trkpt><trkpt lat="45.8752786" lon="11.4778517"><ele>977.6</ele><time>2026-04-26T08:49:09.018Z</time></trkpt><trkpt lat="45.87535" lon="11.4779991"><ele>976.2</ele><time>2026-04-26T08:49:10.046Z</time></trkpt><trkpt lat="45.8754306" lon="11.4781183"><ele>974.8000000000001</ele><time>2026-04-26T08:49:11.033Z</time></trkpt><trkpt lat="45.8755127" lon="11.4782176"><ele>973.4000000000001</ele><time>2026-04-26T08:49:12.022Z</time></trkpt><trkpt lat="45.8755467" lon="11.4783432"><ele>972.0</ele><time>2026-04-26T08:49:13.02Z</time></trkpt><trkpt lat="45.8755496" lon="11.4784543"><ele>972.0</ele><time>2026-04-26T08:49:14.015Z</time></trkpt><trkpt lat="45.8755215" lon="11.4785599"><ele>972.0</ele><time>2026-04-26T08:49:15.029Z</time></trkpt><trkpt lat="45.8754387" lon="11.4786192"><ele>972.0</ele><time>2026-04-26T08:49:16.035Z</time></trkpt><trkpt lat="45.8753315" lon="11.4786439"><ele>972.0</ele><time>2026-04-26T08:49:17.034Z</time></trkpt><trkpt lat="45.8752374" lon="11.4787069"><ele>972.0</ele><time>2026-04-26T08:49:18.013Z</time></trkpt><trkpt lat="45.8751408" lon="11.4787648"><ele>972.8</ele><time>2026-04-26T08:49:19.02Z</time></trkpt><trkpt lat="45.8750948" lon="11.4789237"><ele>973.6</ele><time>2026-04-26T08:49:20.021Z</time></trkpt><trkpt lat="45.8750352" lon="11.4790497"><ele>974.3999999999999</ele><time>2026-04-26T08:49:21.04Z</time></trkpt><trkpt lat="45.875001" lon="11.4791788"><ele>975.1999999999999</ele><time>2026-04-26T08:49:22.028Z</time></trkpt><trkpt lat="45.8749658" lon="11.4792931"><ele>976.0</ele><time>2026-04-26T08:49:23.031Z</time></trkpt><trkpt lat="45.874911" lon="11.4794054"><ele>975.9999999999999</ele><time>2026-04-26T08:49:24.027Z</time></trkpt><trkpt lat="45.8748668" lon="11.4795057"><ele>976.0</ele><time>2026-04-26T08:49:25.037Z</time></trkpt><trkpt lat="45.8748423" lon="11.4795946"><ele>976.0</ele><time>2026-04-26T08:49:26.019Z</time></trkpt><trkpt lat="45.8747768" lon="11.4796375"><ele>976.0</ele><time>2026-04-26T08:49:27.021Z</time></trkpt><trkpt lat="45.8747106" lon="11.4796823"><ele>975.9999999999999</ele><time>2026-04-26T08:49:28.019Z</time></trkpt><trkpt lat="45.8746249" lon="11.4796499"><ele>976.0</ele><time>2026-04-26T08:49:29.031Z</time></trkpt><trkpt lat="45.8745495" lon="11.4796126"><ele>976.0</ele><time>2026-04-26T08:49:30.015Z</time></trkpt><trkpt lat="45.8744876" lon="11.4795311"><ele>976.0</ele><time>2026-04-26T08:49:31.026Z</time></trkpt><trkpt lat="45.8744296" lon="11.4794205"><ele>976.0</ele><time>2026-04-26T08:49:32.021Z</time></trkpt><trkpt lat="45.8743373" lon="11.4792892"><ele>976.0</ele><time>2026-04-26T08:49:33.026Z</time></trkpt><trkpt lat="45.8742301" lon="11.4791612"><ele>978.25</ele><time>2026-04-26T08:49:34.034Z</time></trkpt><trkpt lat="45.8741311" lon="11.4790285"><ele>980.5</ele><time>2026-04-26T08:49:35.021Z</time></trkpt><trkpt lat="45.8740543" lon="11.4788686"><ele>982.75</ele><time>2026-04-26T08:49:36.016Z</time></trkpt><trkpt lat="45.8739478" lon="11.4787335"><ele>985.0</ele><time>2026-04-26T08:49:37.03Z</time></trkpt><trkpt lat="45.8739141" lon="11.4785365"><ele>985.0</ele><time>2026-04-26T08:49:38.043Z</time></trkpt><trkpt lat="45.8738794" lon="11.4783511"><ele>985.0</ele><time>2026-04-26T08:49:39.032Z</time></trkpt><trkpt lat="45.8738506" lon="11.4781827"><ele>985.0</ele><time>2026-04-26T08:49:40.048Z</time></trkpt><trkpt lat="45.8738163" lon="11.4780346"><ele>985.0</ele><time>2026-04-26T08:49:41.033Z</time></trkpt><trkpt lat="45.8737665" lon="11.4779132"><ele>984.4</ele><time>2026-04-26T08:49:42.035Z</time></trkpt><trkpt lat="45.8736865" lon="11.4778483"><ele>983.8</ele><time>2026-04-26T08:49:43.026Z</time></trkpt><trkpt lat="45.8735807" lon="11.4778258"><ele>983.2</ele><time>2026-04-26T08:49:44.026Z</time></trkpt><trkpt lat="45.8734902" lon="11.4778153"><ele>982.6</ele><time>2026-04-26T08:49:45.023Z</time></trkpt><trkpt lat="45.8733786" lon="11.477815"><ele>982.0</ele><time>2026-04-26T08:49:46.014Z</time></trkpt><trkpt lat="45.8732531" lon="11.4778502"><ele>982.0</ele><time>2026-04-26T08:49:47.02Z</time></trkpt><trkpt lat="45.8731148" lon="11.4778466"><ele>982.0</ele><time>2026-04-26T08:49:48.016Z</time></trkpt><trkpt lat="45.8730036" lon="11.4778974"><ele>982.0</ele><time>2026-04-26T08:49:49.025Z</time></trkpt><trkpt lat="45.872857" lon="11.4779308"><ele>982.0</ele><time>2026-04-26T08:49:50.019Z</time></trkpt><trkpt lat="45.8727208" lon="11.4779511"><ele>984.6</ele><time>2026-04-26T08:49:51.033Z</time></trkpt><trkpt lat="45.872623" lon="11.4779471"><ele>987.2</ele><time>2026-04-26T08:49:52.031Z</time></trkpt><trkpt lat="45.8725442" lon="11.4778884"><ele>989.8</ele><time>2026-04-26T08:49:53.027Z</time></trkpt><trkpt lat="45.8724784" lon="11.4777988"><ele>992.4</ele><time>2026-04-26T08:49:54.022Z</time></trkpt><trkpt lat="45.8724706" lon="11.4776411"><ele>995.0</ele><time>2026-04-26T08:49:55.046Z</time></trkpt><trkpt lat="45.8725225" lon="11.4774554"><ele>990.6666666666667</ele><time>2026-04-26T08:49:56.027Z</time></trkpt><trkpt lat="45.8726113" lon="11.4772386"><ele>986.3333333333333</ele><time>2026-04-26T08:49:57.022Z</time></trkpt><trkpt lat="45.8726979" lon="11.4770416"><ele>982.0</ele><time>2026-04-26T08:49:58.037Z</time></trkpt><trkpt lat="45.8727538" lon="11.4768434"><ele>981.0</ele><time>2026-04-26T08:49:59.032Z</time></trkpt><trkpt lat="45.8727811" lon="11.4766606"><ele>980.0</ele><time>2026-04-26T08:50:00.04Z</time></trkpt><trkpt lat="45.8728038" lon="11.4764957"><ele>979.0</ele><time>2026-04-26T08:50:01.031Z</time></trkpt><trkpt lat="45.8728013" lon="11.4763282"><ele>978.0</ele><time>2026-04-26T08:50:02.03Z</time></trkpt><trkpt lat="45.8727643" lon="11.4761862"><ele>975.75</ele><time>2026-04-26T08:50:03.021Z</time></trkpt><trkpt lat="45.8726875" lon="11.47608"><ele>973.5</ele><time>2026-04-26T08:50:04.036Z</time></trkpt><trkpt lat="45.872567" lon="11.4760011"><ele>971.25</ele><time>2026-04-26T08:50:05.034Z</time></trkpt><trkpt lat="45.8724193" lon="11.4759885"><ele>969.0</ele><time>2026-04-26T08:50:06.032Z</time></trkpt><trkpt lat="45.8722604" lon="11.4760287"><ele>976.3333333333333</ele><time>2026-04-26T08:50:07.026Z</time></trkpt><trkpt lat="45.8720979" lon="11.4760817"><ele>983.6666666666666</ele><time>2026-04-26T08:50:08.029Z</time></trkpt><trkpt lat="45.8719428" lon="11.4761221"><ele>991.0</ele><time>2026-04-26T08:50:09.025Z</time></trkpt><trkpt lat="45.8717834" lon="11.4761592"><ele>992.25</ele><time>2026-04-26T08:50:10.03Z</time></trkpt><trkpt lat="45.8716309" lon="11.4761969"><ele>993.5</ele><time>2026-04-26T08:50:11.028Z</time></trkpt><trkpt lat="45.8714871" lon="11.4762395"><ele>994.75</ele><time>2026-04-26T08:50:12.014Z</time></trkpt><trkpt lat="45.8713499" lon="11.4762914"><ele>996.0</ele><time>2026-04-26T08:50:13.026Z</time></trkpt><trkpt lat="45.8712164" lon="11.4763299"><ele>997.0</ele><time>2026-04-26T08:50:14.02Z</time></trkpt><trkpt lat="45.8710884" lon="11.4763894"><ele>998.0</ele><time>2026-04-26T08:50:15.035Z</time></trkpt><trkpt lat="45.8709804" lon="11.4765164"><ele>999.0</ele><time>2026-04-26T08:50:16.027Z</time></trkpt><trkpt lat="45.8708627" lon="11.4766388"><ele>1000.0</ele><time>2026-04-26T08:50:17.039Z</time></trkpt><trkpt lat="45.8707484" lon="11.4767921"><ele>1000.0</ele><time>2026-04-26T08:50:18.033Z</time></trkpt><trkpt lat="45.870631" lon="11.4769701"><ele>1000.0</ele><time>2026-04-26T08:50:19.024Z</time></trkpt><trkpt lat="45.8705381" lon="11.4771834"><ele>1000.0</ele><time>2026-04-26T08:50:20.034Z</time></trkpt><trkpt lat="45.8704569" lon="11.4774026"><ele>1002.3333333333333</ele><time>2026-04-26T08:50:21.012Z</time></trkpt><trkpt lat="45.8703993" lon="11.4776218"><ele>1004.6666666666667</ele><time>2026-04-26T08:50:22.019Z</time></trkpt><trkpt lat="45.870358" lon="11.4778414"><ele>1007.0</ele><time>2026-04-26T08:50:23.016Z</time></trkpt><trkpt lat="45.8703444" lon="11.4780636"><ele>1007.0</ele><time>2026-04-26T08:50:24.033Z</time></trkpt><trkpt lat="45.870304" lon="11.4782691"><ele>1007.0</ele><time>2026-04-26T08:50:25.033Z</time></trkpt><trkpt lat="45.870276" lon="11.4784602"><ele>1007.0</ele><time>2026-04-26T08:50:26.024Z</time></trkpt><trkpt lat="45.8702273" lon="11.478638"><ele>1007.0</ele><time>2026-04-26T08:50:27.033Z</time></trkpt><trkpt lat="45.8701711" lon="11.4787984"><ele>1006.8</ele><time>2026-04-26T08:50:28.022Z</time></trkpt><trkpt lat="45.8701261" lon="11.478944"><ele>1006.6</ele><time>2026-04-26T08:50:29.045Z</time></trkpt><trkpt lat="45.870067" lon="11.4790715"><ele>1006.3999999999999</ele><time>2026-04-26T08:50:30.048Z</time></trkpt><trkpt lat="45.870018" lon="11.4791955"><ele>1006.1999999999999</ele><time>2026-04-26T08:50:31.023Z</time></trkpt><trkpt lat="45.8699756" lon="11.4792934"><ele>1006.0</ele><time>2026-04-26T08:50:32.048Z</time></trkpt><trkpt lat="45.8699196" lon="11.4793658"><ele>1005.9999999999999</ele><time>2026-04-26T08:50:33.043Z</time></trkpt><trkpt lat="45.8698656" lon="11.4795121"><ele>1006.0</ele><time>2026-04-26T08:50:35.027Z</time></trkpt><trkpt lat="45.8698013" lon="11.479569"><ele>1006.0</ele><time>2026-04-26T08:50:37.022Z</time></trkpt><trkpt lat="45.8697377" lon="11.4795888"><ele>1006.0</ele><time>2026-04-26T08:50:39.044Z</time></trkpt><trkpt lat="45.8696583" lon="11.479566"><ele>1005.9999999999999</ele><time>2026-04-26T08:50:41.026Z</time></trkpt><trkpt lat="45.8695533" lon="11.4796125"><ele>1006.0</ele><time>2026-04-26T08:50:43.024Z</time></trkpt><trkpt lat="45.8695109" lon="11.4797692"><ele>1005.9999999999999</ele><time>2026-04-26T08:50:45.027Z</time></trkpt><trkpt lat="45.8695467" lon="11.4799219"><ele>1006.0</ele><time>2026-04-26T08:50:47.037Z</time></trkpt><trkpt lat="45.8696649" lon="11.479939"><ele>1006.0</ele><time>2026-04-26T08:50:49.027Z</time></trkpt><trkpt lat="45.8697119" lon="11.479875"><ele>1006.0</ele><time>2026-04-26T08:50:50.048Z</time></trkpt><trkpt lat="45.869749" lon="11.4797976"><ele>1005.9999999999999</ele><time>2026-04-26T08:50:51.025Z</time></trkpt><trkpt lat="45.8697794" lon="11.4797135"><ele>1006.0</ele><time>2026-04-26T08:50:52.028Z</time></trkpt><trkpt lat="45.8698265" lon="11.4796449"><ele>1005.9999999999999</ele><time>2026-04-26T08:50:53.024Z</time></trkpt><trkpt lat="45.869878" lon="11.4795906"><ele>1006.0</ele><time>2026-04-26T08:50:54.045Z</time></trkpt><trkpt lat="45.8699551" lon="11.4795695"><ele>1006.0</ele><time>2026-04-26T08:50:55.017Z</time></trkpt><trkpt lat="45.8700185" lon="11.479547"><ele>1006.0</ele><time>2026-04-26T08:50:56.018Z</time></trkpt><trkpt lat="45.8701054" lon="11.4795062"><ele>1005.9999999999999</ele><time>2026-04-26T08:50:57.029Z</time></trkpt><trkpt lat="45.8702114" lon="11.4795145"><ele>1006.0</ele><time>2026-04-26T08:50:58.025Z</time></trkpt><trkpt lat="45.8703201" lon="11.4794992"><ele>1006.75</ele><time>2026-04-26T08:50:59.024Z</time></trkpt><trkpt lat="45.8704282" lon="11.4794975"><ele>1007.5</ele><time>2026-04-26T08:51:00.036Z</time></trkpt><trkpt lat="45.8705478" lon="11.4794858"><ele>1008.25</ele><time>2026-04-26T08:51:01.02Z</time></trkpt><trkpt lat="45.8706872" lon="11.4795444"><ele>1009.0</ele><time>2026-04-26T08:51:02.031Z</time></trkpt><trkpt lat="45.8708281" lon="11.4796006"><ele>1012.6666666666666</ele><time>2026-04-26T08:51:03.042Z</time></trkpt><trkpt lat="45.8709772" lon="11.4796648"><ele>1016.3333333333333</ele><time>2026-04-26T08:51:04.035Z</time></trkpt><trkpt lat="45.8711247" lon="11.4797403"><ele>1020.0</ele><time>2026-04-26T08:51:05.032Z</time></trkpt><trkpt lat="45.87127" lon="11.4798015"><ele>1020.0</ele><time>2026-04-26T08:51:06.035Z</time></trkpt><trkpt lat="45.871414" lon="11.4798602"><ele>1020.0</ele><time>2026-04-26T08:51:07.026Z</time></trkpt><trkpt lat="45.8715533" lon="11.4799221"><ele>1020.0</ele><time>2026-04-26T08:51:08.041Z</time></trkpt><trkpt lat="45.8716863" lon="11.4799865"><ele>1020.0</ele><time>2026-04-26T08:51:09.026Z</time></trkpt><trkpt lat="45.8718133" lon="11.4800411"><ele>1020.5</ele><time>2026-04-26T08:51:10.034Z</time></trkpt><trkpt lat="45.8719343" lon="11.4800949"><ele>1021.0</ele><time>2026-04-26T08:51:11.033Z</time></trkpt><trkpt lat="45.8720536" lon="11.4801413"><ele>1021.5</ele><time>2026-04-26T08:51:12.022Z</time></trkpt><trkpt lat="45.8721684" lon="11.4802053"><ele>1022.0</ele><time>2026-04-26T08:51:13.044Z</time></trkpt><trkpt lat="45.8722818" lon="11.4802887"><ele>1022.0</ele><time>2026-04-26T08:51:14.035Z</time></trkpt><trkpt lat="45.8723822" lon="11.4804021"><ele>1022.0</ele><time>2026-04-26T08:51:15.042Z</time></trkpt><trkpt lat="45.8724726" lon="11.4805329"><ele>1022.0</ele><time>2026-04-26T08:51:16.024Z</time></trkpt><trkpt lat="45.8725645" lon="11.4806732"><ele>1022.0</ele><time>2026-04-26T08:51:17.034Z</time></trkpt><trkpt lat="45.8726566" lon="11.4808197"><ele>1024.0</ele><time>2026-04-26T08:51:18.03Z</time></trkpt><trkpt lat="45.872751" lon="11.4809645"><ele>1026.0</ele><time>2026-04-26T08:51:19.024Z</time></trkpt><trkpt lat="45.8728392" lon="11.4811117"><ele>1028.0</ele><time>2026-04-26T08:51:20.04Z</time></trkpt><trkpt lat="45.8729293" lon="11.4812493"><ele>1030.0</ele><time>2026-04-26T08:51:21.04Z</time></trkpt><trkpt lat="45.8730161" lon="11.4813825"><ele>1030.75</ele><time>2026-04-26T08:51:22.039Z</time></trkpt><trkpt lat="45.8731" lon="11.4815125"><ele>1031.5</ele><time>2026-04-26T08:51:23.04Z</time></trkpt><trkpt lat="45.8731839" lon="11.4816421"><ele>1032.25</ele><time>2026-04-26T08:51:24.031Z</time></trkpt><trkpt lat="45.8732663" lon="11.4817788"><ele>1033.0</ele><time>2026-04-26T08:51:25.024Z</time></trkpt><trkpt lat="45.8733459" lon="11.4819264"><ele>1033.0</ele><time>2026-04-26T08:51:26.046Z</time></trkpt><trkpt lat="45.8734236" lon="11.4820857"><ele>1033.0</ele><time>2026-04-26T08:51:27.039Z</time></trkpt><trkpt lat="45.8735013" lon="11.4822553"><ele>1033.0</ele><time>2026-04-26T08:51:28.038Z</time></trkpt><trkpt lat="45.873579" lon="11.4824336"><ele>1033.0</ele><time>2026-04-26T08:51:29.03Z</time></trkpt><trkpt lat="45.8736581" lon="11.4826169"><ele>1033.0</ele><time>2026-04-26T08:51:30.023Z</time></trkpt><trkpt lat="45.8737426" lon="11.4827952"><ele>1033.0</ele><time>2026-04-26T08:51:31.03Z</time></trkpt><trkpt lat="45.8738299" lon="11.4829644"><ele>1033.0</ele><time>2026-04-26T08:51:32.047Z</time></trkpt><trkpt lat="45.8739374" lon="11.4831129"><ele>1033.0</ele><time>2026-04-26T08:51:33.043Z</time></trkpt><trkpt lat="45.8740641" lon="11.4832386"><ele>1033.0</ele><time>2026-04-26T08:51:34.038Z</time></trkpt><trkpt lat="45.8741923" lon="11.4833653"><ele>1033.0</ele><time>2026-04-26T08:51:35.043Z</time></trkpt><trkpt lat="45.8743274" lon="11.4834814"><ele>1033.0</ele><time>2026-04-26T08:51:36.042Z</time></trkpt><trkpt lat="45.8744619" lon="11.4835949"><ele>1033.0</ele><time>2026-04-26T08:51:37.049Z</time></trkpt><trkpt lat="45.8745924" lon="11.4837141"><ele>1033.0</ele><time>2026-04-26T08:51:38.029Z</time></trkpt><trkpt lat="45.8747302" lon="11.4838098"><ele>1033.0</ele><time>2026-04-26T08:51:39.027Z</time></trkpt><trkpt lat="45.8748959" lon="11.4838384"><ele>1033.3333333333333</ele><time>2026-04-26T08:51:40.028Z</time></trkpt><trkpt lat="45.8750601" lon="11.4838643"><ele>1033.6666666666667</ele><time>2026-04-26T08:51:41.031Z</time></trkpt><trkpt lat="45.8752288" lon="11.4838888"><ele>1034.0</ele><time>2026-04-26T08:51:42.034Z</time></trkpt><trkpt lat="45.8753963" lon="11.4839275"><ele>1034.3333333333335</ele><time>2026-04-26T08:51:43.042Z</time></trkpt><trkpt lat="45.8755593" lon="11.4839762"><ele>1034.6666666666667</ele><time>2026-04-26T08:51:44.028Z</time></trkpt><trkpt lat="45.8757158" lon="11.4840601"><ele>1035.0</ele><time>2026-04-26T08:51:45.06Z</time></trkpt><trkpt lat="45.8758726" lon="11.48415"><ele>1035.0</ele><time>2026-04-26T08:51:46.037Z</time></trkpt><trkpt lat="45.876032" lon="11.4842222"><ele>1035.0</ele><time>2026-04-26T08:51:47.049Z</time></trkpt><trkpt lat="45.8761928" lon="11.4843033"><ele>1035.0</ele><time>2026-04-26T08:51:48.021Z</time></trkpt><trkpt lat="45.8763541" lon="11.4843879"><ele>1035.0</ele><time>2026-04-26T08:51:49.021Z</time></trkpt><trkpt lat="45.8765158" lon="11.4844731"><ele>1035.0</ele><time>2026-04-26T08:51:50.038Z</time></trkpt><trkpt lat="45.8766815" lon="11.4845483"><ele>1035.0</ele><time>2026-04-26T08:51:51.019Z</time></trkpt><trkpt lat="45.8768502" lon="11.4846174"><ele>1036.0</ele><time>2026-04-26T08:51:52.03Z</time></trkpt><trkpt lat="45.8770211" lon="11.4846825"><ele>1037.0</ele><time>2026-04-26T08:51:53.029Z</time></trkpt><trkpt lat="45.8771903" lon="11.4847493"><ele>1038.0</ele><time>2026-04-26T08:51:54.036Z</time></trkpt><trkpt lat="45.8773579" lon="11.4848088"><ele>1038.0</ele><time>2026-04-26T08:51:55.036Z</time></trkpt><trkpt lat="45.8775206" lon="11.4848657"><ele>1038.0</ele><time>2026-04-26T08:51:56.043Z</time></trkpt><trkpt lat="45.8776801" lon="11.4849125"><ele>1038.0</ele><time>2026-04-26T08:51:57.045Z</time></trkpt><trkpt lat="45.8778328" lon="11.4849603"><ele>1038.75</ele><time>2026-04-26T08:51:58.046Z</time></trkpt><trkpt lat="45.8779801" lon="11.4849998"><ele>1039.5</ele><time>2026-04-26T08:51:59.043Z</time></trkpt><trkpt lat="45.8781199" lon="11.4850434"><ele>1040.25</ele><time>2026-04-26T08:52:00.048Z</time></trkpt><trkpt lat="45.8782556" lon="11.485084"><ele>1041.0</ele><time>2026-04-26T08:52:01.049Z</time></trkpt><trkpt lat="45.8783893" lon="11.4851269"><ele>1041.5</ele><time>2026-04-26T08:52:02.022Z</time></trkpt><trkpt lat="45.8785213" lon="11.4851671"><ele>1042.0</ele><time>2026-04-26T08:52:03.037Z</time></trkpt><trkpt lat="45.8786485" lon="11.4852139"><ele>1042.5</ele><time>2026-04-26T08:52:04.03Z</time></trkpt><trkpt lat="45.8787716" lon="11.4852618"><ele>1043.0</ele><time>2026-04-26T08:52:05.049Z</time></trkpt><trkpt lat="45.8788936" lon="11.4853034"><ele>1043.0</ele><time>2026-04-26T08:52:06.043Z</time></trkpt><trkpt lat="45.8790141" lon="11.4853461"><ele>1043.0</ele><time>2026-04-26T08:52:07.028Z</time></trkpt><trkpt lat="45.8791359" lon="11.4853849"><ele>1043.0</ele><time>2026-04-26T08:52:08.04Z</time></trkpt><trkpt lat="45.879256" lon="11.485425"><ele>1043.0</ele><time>2026-04-26T08:52:09.045Z</time></trkpt><trkpt lat="45.8793689" lon="11.4854643"><ele>1045.6</ele><time>2026-04-26T08:52:10.048Z</time></trkpt><trkpt lat="45.8794724" lon="11.4855025"><ele>1048.1999999999998</ele><time>2026-04-26T08:52:11.069Z</time></trkpt><trkpt lat="45.8795691" lon="11.4855368"><ele>1050.8</ele><time>2026-04-26T08:52:12.053Z</time></trkpt><trkpt lat="45.8796583" lon="11.4855669"><ele>1053.3999999999999</ele><time>2026-04-26T08:52:13.05Z</time></trkpt><trkpt lat="45.8797395" lon="11.485563"><ele>1056.0</ele><time>2026-04-26T08:52:14.055Z</time></trkpt><trkpt lat="45.8798131" lon="11.4855742"><ele>1056.0</ele><time>2026-04-26T08:52:15.046Z</time></trkpt><trkpt lat="45.8798775" lon="11.4855696"><ele>1056.0</ele><time>2026-04-26T08:52:16.053Z</time></trkpt><trkpt lat="45.8799349" lon="11.4856853"><ele>1056.0</ele><time>2026-04-26T08:52:18.051Z</time></trkpt><trkpt lat="45.880013" lon="11.4857088"><ele>1056.0</ele><time>2026-04-26T08:52:21.039Z</time></trkpt><trkpt lat="45.8801024" lon="11.4856715"><ele>1056.0</ele><time>2026-04-26T08:52:47.028Z</time></trkpt><trkpt lat="45.8801216" lon="11.4855824"><ele>1056.0</ele><time>2026-04-26T08:52:48.034Z</time></trkpt><trkpt lat="45.8801378" lon="11.485464"><ele>1057.2</ele><time>2026-04-26T08:52:49.016Z</time></trkpt><trkpt lat="45.8801618" lon="11.4853249"><ele>1058.3999999999999</ele><time>2026-04-26T08:52:50.031Z</time></trkpt><trkpt lat="45.880191" lon="11.4851689"><ele>1059.6</ele><time>2026-04-26T08:52:51.038Z</time></trkpt><trkpt lat="45.8802272" lon="11.485012"><ele>1060.8</ele><time>2026-04-26T08:52:52.023Z</time></trkpt><trkpt lat="45.8802442" lon="11.4848463"><ele>1062.0</ele><time>2026-04-26T08:52:53.037Z</time></trkpt><trkpt lat="45.8802469" lon="11.4846802"><ele>1060.8333333333333</ele><time>2026-04-26T08:52:54.035Z</time></trkpt><trkpt lat="45.880261" lon="11.484541"><ele>1059.6666666666667</ele><time>2026-04-26T08:52:55.035Z</time></trkpt><trkpt lat="45.8802563" lon="11.4844083"><ele>1058.5</ele><time>2026-04-26T08:52:56.034Z</time></trkpt><trkpt lat="45.8802689" lon="11.4842839"><ele>1057.3333333333335</ele><time>2026-04-26T08:52:57.023Z</time></trkpt><trkpt lat="45.8802915" lon="11.4841725"><ele>1056.1666666666667</ele><time>2026-04-26T08:52:58.044Z</time></trkpt><trkpt lat="45.8803194" lon="11.4840619"><ele>1055.0</ele><time>2026-04-26T08:52:59.033Z</time></trkpt><trkpt lat="45.8803563" lon="11.4839557"><ele>1055.0</ele><time>2026-04-26T08:53:00.039Z</time></trkpt><trkpt lat="45.8803765" lon="11.4838493"><ele>1055.0</ele><time>2026-04-26T08:53:01.019Z</time></trkpt><trkpt lat="45.8804042" lon="11.4837496"><ele>1055.0</ele><time>2026-04-26T08:53:02.035Z</time></trkpt><trkpt lat="45.8804311" lon="11.4836569"><ele>1055.0</ele><time>2026-04-26T08:53:03.038Z</time></trkpt><trkpt lat="45.8804486" lon="11.4835671"><ele>1055.0</ele><time>2026-04-26T08:53:04.033Z</time></trkpt><trkpt lat="45.8804805" lon="11.4834018"><ele>1055.0</ele><time>2026-04-26T08:53:06.023Z</time></trkpt><trkpt lat="45.880512" lon="11.4833159"><ele>1054.4</ele><time>2026-04-26T08:53:07.045Z</time></trkpt><trkpt lat="45.8805488" lon="11.4831989"><ele>1053.8</ele><time>2026-04-26T08:53:08.038Z</time></trkpt><trkpt lat="45.8805895" lon="11.4830563"><ele>1053.2</ele><time>2026-04-26T08:53:09.033Z</time></trkpt><trkpt lat="45.8806274" lon="11.4828939"><ele>1052.6</ele><time>2026-04-26T08:53:10.026Z</time></trkpt><trkpt lat="45.8806769" lon="11.4827352"><ele>1052.0</ele><time>2026-04-26T08:53:11.036Z</time></trkpt><trkpt lat="45.8807374" lon="11.482585"><ele>1051.0</ele><time>2026-04-26T08:53:12.041Z</time></trkpt><trkpt lat="45.8807933" lon="11.4824215"><ele>1050.0</ele><time>2026-04-26T08:53:13.028Z</time></trkpt><trkpt lat="45.8808435" lon="11.4822498"><ele>1049.0</ele><time>2026-04-26T08:53:14.038Z</time></trkpt><trkpt lat="45.8809011" lon="11.4820827"><ele>1048.0</ele><time>2026-04-26T08:53:15.031Z</time></trkpt><trkpt lat="45.8809572" lon="11.4819115"><ele>1050.0</ele><time>2026-04-26T08:53:16.04Z</time></trkpt><trkpt lat="45.8810144" lon="11.4817389"><ele>1052.0</ele><time>2026-04-26T08:53:17.036Z</time></trkpt><trkpt lat="45.8810856" lon="11.4815864"><ele>1054.0</ele><time>2026-04-26T08:53:18.051Z</time></trkpt><trkpt lat="45.8811464" lon="11.4814306"><ele>1056.0</ele><time>2026-04-26T08:53:19.034Z</time></trkpt><trkpt lat="45.8812002" lon="11.4812824"><ele>1055.5</ele><time>2026-04-26T08:53:20.04Z</time></trkpt><trkpt lat="45.881261" lon="11.4811373"><ele>1055.0</ele><time>2026-04-26T08:53:21.021Z</time></trkpt><trkpt lat="45.8813408" lon="11.4810045"><ele>1054.5</ele><time>2026-04-26T08:53:22.033Z</time></trkpt><trkpt lat="45.8814306" lon="11.4808932"><ele>1054.0</ele><time>2026-04-26T08:53:23.036Z</time></trkpt><trkpt lat="45.8815251" lon="11.4807952"><ele>1054.0</ele><time>2026-04-26T08:53:24.031Z</time></trkpt><trkpt lat="45.8816121" lon="11.4806835"><ele>1054.0</ele><time>2026-04-26T08:53:25.048Z</time></trkpt><trkpt lat="45.881684" lon="11.4805557"><ele>1054.0</ele><time>2026-04-26T08:53:26.026Z</time></trkpt><trkpt lat="45.8817281" lon="11.4803964"><ele>1054.0</ele><time>2026-04-26T08:53:27.021Z</time></trkpt><trkpt lat="45.8817721" lon="11.4802462"><ele>1054.2</ele><time>2026-04-26T08:53:28.02Z</time></trkpt><trkpt lat="45.8818202" lon="11.4801075"><ele>1054.4</ele><time>2026-04-26T08:53:29.03Z</time></trkpt><trkpt lat="45.881853" lon="11.4799588"><ele>1054.6</ele><time>2026-04-26T08:53:30.035Z</time></trkpt><trkpt lat="45.8818816" lon="11.4798082"><ele>1054.8</ele><time>2026-04-26T08:53:31.039Z</time></trkpt><trkpt lat="45.8819183" lon="11.4796632"><ele>1055.0</ele><time>2026-04-26T08:53:32.034Z</time></trkpt><trkpt lat="45.8819745" lon="11.4795346"><ele>1055.0</ele><time>2026-04-26T08:53:33.034Z</time></trkpt><trkpt lat="45.8820647" lon="11.4794328"><ele>1055.0</ele><time>2026-04-26T08:53:34.029Z</time></trkpt><trkpt lat="45.882161" lon="11.4793402"><ele>1055.0</ele><time>2026-04-26T08:53:35.044Z</time></trkpt><trkpt lat="45.8822709" lon="11.4792561"><ele>1055.0</ele><time>2026-04-26T08:53:36.042Z</time></trkpt><trkpt lat="45.8824037" lon="11.4791865"><ele>1055.0</ele><time>2026-04-26T08:53:37.042Z</time></trkpt><trkpt lat="45.8825616" lon="11.4791097"><ele>1055.0</ele><time>2026-04-26T08:53:38.035Z</time></trkpt><trkpt lat="45.8827397" lon="11.4790379"><ele>1055.0</ele><time>2026-04-26T08:53:39.04Z</time></trkpt><trkpt lat="45.8829085" lon="11.4789537"><ele>1056.25</ele><time>2026-04-26T08:53:40.033Z</time></trkpt><trkpt lat="45.8830708" lon="11.4788842"><ele>1057.5</ele><time>2026-04-26T08:53:41.051Z</time></trkpt><trkpt lat="45.8831928" lon="11.4788262"><ele>1058.75</ele><time>2026-04-26T08:53:42.027Z</time></trkpt><trkpt lat="45.8832894" lon="11.4787154"><ele>1060.0</ele><time>2026-04-26T08:53:43.045Z</time></trkpt><trkpt lat="45.8833551" lon="11.4785627"><ele>1060.0</ele><time>2026-04-26T08:53:44.029Z</time></trkpt><trkpt lat="45.8833769" lon="11.4783566"><ele>1060.0</ele><time>2026-04-26T08:53:45.027Z</time></trkpt><trkpt lat="45.8833727" lon="11.4781396"><ele>1060.0</ele><time>2026-04-26T08:53:46.031Z</time></trkpt><trkpt lat="45.8833557" lon="11.4779408"><ele>1060.0</ele><time>2026-04-26T08:53:47.036Z</time></trkpt><trkpt lat="45.8833745" lon="11.4777529"><ele>1060.5</ele><time>2026-04-26T08:53:48.035Z</time></trkpt><trkpt lat="45.8834537" lon="11.4775786"><ele>1061.0</ele><time>2026-04-26T08:53:49.041Z</time></trkpt><trkpt lat="45.8835392" lon="11.4774099"><ele>1061.5</ele><time>2026-04-26T08:53:50.029Z</time></trkpt><trkpt lat="45.8836276" lon="11.4772602"><ele>1062.0</ele><time>2026-04-26T08:53:51.033Z</time></trkpt><trkpt lat="45.8837216" lon="11.4771003"><ele>1062.0</ele><time>2026-04-26T08:53:52.041Z</time></trkpt><trkpt lat="45.8838078" lon="11.4769386"><ele>1062.0</ele><time>2026-04-26T08:53:53.03Z</time></trkpt><trkpt lat="45.8838896" lon="11.4767729"><ele>1062.0</ele><time>2026-04-26T08:53:54.032Z</time></trkpt><trkpt lat="45.8839385" lon="11.4765809"><ele>1062.0</ele><time>2026-04-26T08:53:55.026Z</time></trkpt><trkpt lat="45.8839789" lon="11.4763836"><ele>1061.25</ele><time>2026-04-26T08:53:56.035Z</time></trkpt><trkpt lat="45.8840083" lon="11.4761772"><ele>1060.5</ele><time>2026-04-26T08:53:57.019Z</time></trkpt><trkpt lat="45.8840407" lon="11.4759702"><ele>1059.75</ele><time>2026-04-26T08:53:58.021Z</time></trkpt><trkpt lat="45.8840714" lon="11.4757593"><ele>1059.0</ele><time>2026-04-26T08:53:59.033Z</time></trkpt><trkpt lat="45.8840998" lon="11.4755467"><ele>1058.5</ele><time>2026-04-26T08:54:00.041Z</time></trkpt><trkpt lat="45.8841256" lon="11.4753338"><ele>1058.0</ele><time>2026-04-26T08:54:01.031Z</time></trkpt><trkpt lat="45.8841513" lon="11.4751218"><ele>1057.5</ele><time>2026-04-26T08:54:02.034Z</time></trkpt><trkpt lat="45.8841777" lon="11.4749114"><ele>1057.0</ele><time>2026-04-26T08:54:03.03Z</time></trkpt><trkpt lat="45.8842042" lon="11.4747045"><ele>1057.75</ele><time>2026-04-26T08:54:04.031Z</time></trkpt><trkpt lat="45.8842302" lon="11.4744999"><ele>1058.5</ele><time>2026-04-26T08:54:05.04Z</time></trkpt><trkpt lat="45.8842597" lon="11.474297"><ele>1059.25</ele><time>2026-04-26T08:54:06.049Z</time></trkpt><trkpt lat="45.8842946" lon="11.4740998"><ele>1060.0</ele><time>2026-04-26T08:54:07.031Z</time></trkpt><trkpt lat="45.884335" lon="11.4739132"><ele>1062.0</ele><time>2026-04-26T08:54:08.021Z</time></trkpt><trkpt lat="45.8843671" lon="11.4737265"><ele>1064.0</ele><time>2026-04-26T08:54:09.021Z</time></trkpt><trkpt lat="45.8844295" lon="11.4735532"><ele>1066.0</ele><time>2026-04-26T08:54:10.023Z</time></trkpt><trkpt lat="45.8845064" lon="11.4733921"><ele>1068.0</ele><time>2026-04-26T08:54:11.037Z</time></trkpt><trkpt lat="45.884584" lon="11.4732289"><ele>1068.0</ele><time>2026-04-26T08:54:12.034Z</time></trkpt><trkpt lat="45.8846593" lon="11.4730655"><ele>1068.0</ele><time>2026-04-26T08:54:13.038Z</time></trkpt><trkpt lat="45.8847312" lon="11.4729051"><ele>1068.0</ele><time>2026-04-26T08:54:14.027Z</time></trkpt><trkpt lat="45.8848036" lon="11.4727549"><ele>1068.0</ele><time>2026-04-26T08:54:15.034Z</time></trkpt><trkpt lat="45.8848705" lon="11.4726103"><ele>1068.25</ele><time>2026-04-26T08:54:16.031Z</time></trkpt><trkpt lat="45.8849361" lon="11.4724757"><ele>1068.5</ele><time>2026-04-26T08:54:17.048Z</time></trkpt><trkpt lat="45.885035" lon="11.472384"><ele>1068.75</ele><time>2026-04-26T08:54:18.031Z</time></trkpt><trkpt lat="45.8851235" lon="11.4722746"><ele>1069.0</ele><time>2026-04-26T08:54:19.035Z</time></trkpt><trkpt lat="45.885243" lon="11.472251"><ele>1069.0</ele><time>2026-04-26T08:54:20.025Z</time></trkpt><trkpt lat="45.8853687" lon="11.4722015"><ele>1069.0</ele><time>2026-04-26T08:54:21.036Z</time></trkpt><trkpt lat="45.885506" lon="11.4722143"><ele>1069.0</ele><time>2026-04-26T08:54:22.027Z</time></trkpt><trkpt lat="45.8856479" lon="11.4722014"><ele>1069.0</ele><time>2026-04-26T08:54:23.046Z</time></trkpt><trkpt lat="45.8857998" lon="11.4721811"><ele>1074.6666666666665</ele><time>2026-04-26T08:54:24.034Z</time></trkpt><trkpt lat="45.8859539" lon="11.4721505"><ele>1080.3333333333333</ele><time>2026-04-26T08:54:25.037Z</time></trkpt><trkpt lat="45.886113" lon="11.4721297"><ele>1086.0</ele><time>2026-04-26T08:54:26.042Z</time></trkpt><trkpt lat="45.8862812" lon="11.4721154"><ele>1082.0</ele><time>2026-04-26T08:54:27.036Z</time></trkpt><trkpt lat="45.8864492" lon="11.4720834"><ele>1078.0</ele><time>2026-04-26T08:54:28.038Z</time></trkpt><trkpt lat="45.8866193" lon="11.4720592"><ele>1074.0</ele><time>2026-04-26T08:54:29.038Z</time></trkpt><trkpt lat="45.8867778" lon="11.4719922"><ele>1074.0</ele><time>2026-04-26T08:54:30.031Z</time></trkpt><trkpt lat="45.8869247" lon="11.4718849"><ele>1074.0</ele><time>2026-04-26T08:54:31.022Z</time></trkpt><trkpt lat="45.8870711" lon="11.4717934"><ele>1074.0</ele><time>2026-04-26T08:54:32.034Z</time></trkpt><trkpt lat="45.8872188" lon="11.4717198"><ele>1074.0</ele><time>2026-04-26T08:54:33.045Z</time></trkpt><trkpt lat="45.8873621" lon="11.471645"><ele>1074.0</ele><time>2026-04-26T08:54:34.039Z</time></trkpt><trkpt lat="45.8874969" lon="11.4715696"><ele>1074.0</ele><time>2026-04-26T08:54:35.041Z</time></trkpt><trkpt lat="45.8876268" lon="11.4715324"><ele>1074.0</ele><time>2026-04-26T08:54:36.055Z</time></trkpt><trkpt lat="45.8877562" lon="11.4715174"><ele>1075.5</ele><time>2026-04-26T08:54:37.043Z</time></trkpt><trkpt lat="45.8878851" lon="11.4715199"><ele>1077.0</ele><time>2026-04-26T08:54:38.028Z</time></trkpt><trkpt lat="45.8880097" lon="11.4714826"><ele>1078.5</ele><time>2026-04-26T08:54:39.05Z</time></trkpt><trkpt lat="45.8881388" lon="11.4713954"><ele>1080.0</ele><time>2026-04-26T08:54:40.048Z</time></trkpt><trkpt lat="45.8882856" lon="11.47129"><ele>1079.25</ele><time>2026-04-26T08:54:41.036Z</time></trkpt><trkpt lat="45.888421" lon="11.4711909"><ele>1078.5</ele><time>2026-04-26T08:54:42.034Z</time></trkpt><trkpt lat="45.8885501" lon="11.4710984"><ele>1077.75</ele><time>2026-04-26T08:54:43.036Z</time></trkpt><trkpt lat="45.8886659" lon="11.4709941"><ele>1077.0</ele><time>2026-04-26T08:54:44.02Z</time></trkpt><trkpt lat="45.8887803" lon="11.4709045"><ele>1077.0</ele><time>2026-04-26T08:54:45.03Z</time></trkpt><trkpt lat="45.8888803" lon="11.4707681"><ele>1077.0</ele><time>2026-04-26T08:54:46.032Z</time></trkpt><trkpt lat="45.8889833" lon="11.4706029"><ele>1077.0</ele><time>2026-04-26T08:54:47.043Z</time></trkpt><trkpt lat="45.8890634" lon="11.470414"><ele>1077.0</ele><time>2026-04-26T08:54:48.035Z</time></trkpt><trkpt lat="45.8891209" lon="11.4701957"><ele>1080.6666666666667</ele><time>2026-04-26T08:54:49.025Z</time></trkpt><trkpt lat="45.8891937" lon="11.4699756"><ele>1084.3333333333335</ele><time>2026-04-26T08:54:50.041Z</time></trkpt><trkpt lat="45.8892948" lon="11.4697945"><ele>1088.0</ele><time>2026-04-26T08:54:51.049Z</time></trkpt><trkpt lat="45.889385" lon="11.469616"><ele>1080.75</ele><time>2026-04-26T08:54:52.049Z</time></trkpt><trkpt lat="45.8894792" lon="11.469466"><ele>1073.5</ele><time>2026-04-26T08:54:53.034Z</time></trkpt><trkpt lat="45.8895481" lon="11.469331"><ele>1066.25</ele><time>2026-04-26T08:54:54.037Z</time></trkpt><trkpt lat="45.8896252" lon="11.4692479"><ele>1059.0</ele><time>2026-04-26T08:54:55.031Z</time></trkpt><trkpt lat="45.8897209" lon="11.4692319"><ele>1059.0</ele><time>2026-04-26T08:54:56.027Z</time></trkpt><trkpt lat="45.8898477" lon="11.469339"><ele>1059.0</ele><time>2026-04-26T08:54:57.037Z</time></trkpt><trkpt lat="45.889965" lon="11.4694905"><ele>1059.0</ele><time>2026-04-26T08:54:58.032Z</time></trkpt><trkpt lat="45.8900569" lon="11.4696031"><ele>1059.0</ele><time>2026-04-26T08:54:59.032Z</time></trkpt><trkpt lat="45.8901321" lon="11.4697198"><ele>1063.0</ele><time>2026-04-26T08:55:00.041Z</time></trkpt><trkpt lat="45.8902156" lon="11.46982"><ele>1067.0</ele><time>2026-04-26T08:55:01.025Z</time></trkpt><trkpt lat="45.8903015" lon="11.4699178"><ele>1071.0</ele><time>2026-04-26T08:55:02.03Z</time></trkpt><trkpt lat="45.8904269" lon="11.4699643"><ele>1075.0</ele><time>2026-04-26T08:55:03.032Z</time></trkpt><trkpt lat="45.89058" lon="11.4699737"><ele>1075.0</ele><time>2026-04-26T08:55:04.022Z</time></trkpt><trkpt lat="45.8907684" lon="11.4699894"><ele>1075.0</ele><time>2026-04-26T08:55:05.031Z</time></trkpt><trkpt lat="45.8909131" lon="11.4700111"><ele>1075.0</ele><time>2026-04-26T08:55:06.037Z</time></trkpt><trkpt lat="45.8910632" lon="11.470034"><ele>1073.0</ele><time>2026-04-26T08:55:07.04Z</time></trkpt><trkpt lat="45.8912454" lon="11.470057"><ele>1071.0</ele><time>2026-04-26T08:55:08.03Z</time></trkpt><trkpt lat="45.8914112" lon="11.4700729"><ele>1069.0</ele><time>2026-04-26T08:55:09.042Z</time></trkpt><trkpt lat="45.8916341" lon="11.4701157"><ele>1069.0</ele><time>2026-04-26T08:55:10.022Z</time></trkpt><trkpt lat="45.8917263" lon="11.4701096"><ele>1069.0</ele><time>2026-04-26T08:55:11.04Z</time></trkpt><trkpt lat="45.8919219" lon="11.4700148"><ele>1069.0</ele><time>2026-04-26T08:55:12.034Z</time></trkpt><trkpt lat="45.8920887" lon="11.4699691"><ele>1068.6666666666665</ele><time>2026-04-26T08:55:13.034Z</time></trkpt><trkpt lat="45.8922642" lon="11.4699332"><ele>1068.3333333333333</ele><time>2026-04-26T08:55:14.049Z</time></trkpt><trkpt lat="45.8924205" lon="11.46989"><ele>1068.0</ele><time>2026-04-26T08:55:15.036Z</time></trkpt><trkpt lat="45.8925732" lon="11.4698579"><ele>1068.5</ele><time>2026-04-26T08:55:16.023Z</time></trkpt><trkpt lat="45.8927164" lon="11.4697782"><ele>1069.0</ele><time>2026-04-26T08:55:17.048Z</time></trkpt><trkpt lat="45.8928568" lon="11.46972"><ele>1069.5</ele><time>2026-04-26T08:55:18.033Z</time></trkpt><trkpt lat="45.8929919" lon="11.4697193"><ele>1070.0</ele><time>2026-04-26T08:55:19.035Z</time></trkpt><trkpt lat="45.8931185" lon="11.4697775"><ele>1070.0</ele><time>2026-04-26T08:55:20.048Z</time></trkpt><trkpt lat="45.8932333" lon="11.4698841"><ele>1070.0</ele><time>2026-04-26T08:55:21.03Z</time></trkpt><trkpt lat="45.8933285" lon="11.4699596"><ele>1070.0</ele><time>2026-04-26T08:55:22.044Z</time></trkpt><trkpt lat="45.8934372" lon="11.4699851"><ele>1070.0</ele><time>2026-04-26T08:55:23.046Z</time></trkpt><trkpt lat="45.893551" lon="11.4699912"><ele>1073.25</ele><time>2026-04-26T08:55:24.025Z</time></trkpt><trkpt lat="45.893704" lon="11.4698712"><ele>1076.5</ele><time>2026-04-26T08:55:25.029Z</time></trkpt><trkpt lat="45.8938071" lon="11.4697302"><ele>1079.75</ele><time>2026-04-26T08:55:26.031Z</time></trkpt><trkpt lat="45.8939087" lon="11.4696581"><ele>1083.0</ele><time>2026-04-26T08:55:27.031Z</time></trkpt><trkpt lat="45.8940852" lon="11.469525"><ele>1079.75</ele><time>2026-04-26T08:55:28.033Z</time></trkpt><trkpt lat="45.8941926" lon="11.4693582"><ele>1076.5</ele><time>2026-04-26T08:55:29.02Z</time></trkpt><trkpt lat="45.8942412" lon="11.4692376"><ele>1073.25</ele><time>2026-04-26T08:55:30.04Z</time></trkpt><trkpt lat="45.8942654" lon="11.4690786"><ele>1070.0</ele><time>2026-04-26T08:55:31.023Z</time></trkpt><trkpt lat="45.8943486" lon="11.4689477"><ele>1070.0</ele><time>2026-04-26T08:55:32.039Z</time></trkpt><trkpt lat="45.8944581" lon="11.468851"><ele>1070.0</ele><time>2026-04-26T08:55:33.024Z</time></trkpt><trkpt lat="45.8945736" lon="11.4687737"><ele>1070.0</ele><time>2026-04-26T08:55:34.032Z</time></trkpt><trkpt lat="45.8947003" lon="11.4687143"><ele>1070.0</ele><time>2026-04-26T08:55:35.041Z</time></trkpt><trkpt lat="45.8948134" lon="11.4686554"><ele>1065.0</ele><time>2026-04-26T08:55:36.029Z</time></trkpt><trkpt lat="45.8949131" lon="11.4685741"><ele>1060.0</ele><time>2026-04-26T08:55:37.045Z</time></trkpt><trkpt lat="45.895022" lon="11.4685243"><ele>1055.0</ele><time>2026-04-26T08:55:38.03Z</time></trkpt><trkpt lat="45.8951188" lon="11.468466"><ele>1050.0</ele><time>2026-04-26T08:55:39.025Z</time></trkpt><trkpt lat="45.8952102" lon="11.4684234"><ele>1045.0</ele><time>2026-04-26T08:55:40.031Z</time></trkpt><trkpt lat="45.8953055" lon="11.4684398"><ele>1045.0</ele><time>2026-04-26T08:55:41.038Z</time></trkpt><trkpt lat="45.895386" lon="11.4685108"><ele>1045.0</ele><time>2026-04-26T08:55:42.037Z</time></trkpt><trkpt lat="45.8954386" lon="11.4685917"><ele>1045.0</ele><time>2026-04-26T08:55:43.023Z</time></trkpt><trkpt lat="45.895509" lon="11.468625"><ele>1045.0</ele><time>2026-04-26T08:55:44.036Z</time></trkpt><trkpt lat="45.8956019" lon="11.4686284"><ele>1045.0</ele><time>2026-04-26T08:55:45.038Z</time></trkpt><trkpt lat="45.8956855" lon="11.4685662"><ele>1045.0</ele><time>2026-04-26T08:55:46.026Z</time></trkpt><trkpt lat="45.895773" lon="11.4685248"><ele>1045.0</ele><time>2026-04-26T08:55:47.031Z</time></trkpt><trkpt lat="45.8958485" lon="11.4684556"><ele>1045.0</ele><time>2026-04-26T08:55:48.023Z</time></trkpt><trkpt lat="45.8959281" lon="11.4683848"><ele>1045.0</ele><time>2026-04-26T08:55:49.03Z</time></trkpt><trkpt lat="45.8960195" lon="11.468316"><ele>1045.0</ele><time>2026-04-26T08:55:50.073Z</time></trkpt><trkpt lat="45.8961238" lon="11.4682632"><ele>1045.0</ele><time>2026-04-26T08:55:51.034Z</time></trkpt><trkpt lat="45.8962298" lon="11.4681599"><ele>1049.25</ele><time>2026-04-26T08:55:52.035Z</time></trkpt><trkpt lat="45.8963363" lon="11.4680802"><ele>1053.5</ele><time>2026-04-26T08:55:53.035Z</time></trkpt><trkpt lat="45.8964385" lon="11.4680076"><ele>1057.75</ele><time>2026-04-26T08:55:54.032Z</time></trkpt><trkpt lat="45.8965484" lon="11.4680013"><ele>1062.0</ele><time>2026-04-26T08:55:55.039Z</time></trkpt><trkpt lat="45.8966558" lon="11.4680073"><ele>1062.0</ele><time>2026-04-26T08:55:56.03Z</time></trkpt><trkpt lat="45.8967438" lon="11.4679719"><ele>1062.0</ele><time>2026-04-26T08:55:57.02Z</time></trkpt><trkpt lat="45.8968304" lon="11.4679308"><ele>1062.0</ele><time>2026-04-26T08:55:58.038Z</time></trkpt><trkpt lat="45.8969187" lon="11.4679052"><ele>1062.0</ele><time>2026-04-26T08:55:59.034Z</time></trkpt><trkpt lat="45.8970036" lon="11.4679549"><ele>1062.0</ele><time>2026-04-26T08:56:00.034Z</time></trkpt><trkpt lat="45.897066" lon="11.4680034"><ele>1062.0</ele><time>2026-04-26T08:56:01.037Z</time></trkpt><trkpt lat="45.8971086" lon="11.4680796"><ele>1064.0</ele><time>2026-04-26T08:56:02.025Z</time></trkpt><trkpt lat="45.8971712" lon="11.4680956"><ele>1066.0</ele><time>2026-04-26T08:56:03.026Z</time></trkpt><trkpt lat="45.8972337" lon="11.4680669"><ele>1068.0</ele><time>2026-04-26T08:56:04.035Z</time></trkpt><trkpt lat="45.8972932" lon="11.467978"><ele>1070.0</ele><time>2026-04-26T08:56:05.028Z</time></trkpt><trkpt lat="45.8973734" lon="11.4678459"><ele>1072.0</ele><time>2026-04-26T08:56:06.029Z</time></trkpt><trkpt lat="45.8974665" lon="11.4676749"><ele>1067.2</ele><time>2026-04-26T08:56:07.042Z</time></trkpt><trkpt lat="45.8975101" lon="11.4675483"><ele>1062.4</ele><time>2026-04-26T08:56:08.024Z</time></trkpt><trkpt lat="45.8975421" lon="11.4674307"><ele>1057.6</ele><time>2026-04-26T08:56:09.041Z</time></trkpt><trkpt lat="45.8975266" lon="11.4672819"><ele>1052.8</ele><time>2026-04-26T08:56:10.046Z</time></trkpt><trkpt lat="45.8975299" lon="11.4671188"><ele>1048.0</ele><time>2026-04-26T08:56:11.032Z</time></trkpt><trkpt lat="45.8975334" lon="11.4669684"><ele>1044.6</ele><time>2026-04-26T08:56:12.044Z</time></trkpt><trkpt lat="45.8975739" lon="11.4668293"><ele>1041.1999999999998</ele><time>2026-04-26T08:56:13.044Z</time></trkpt><trkpt lat="45.8976167" lon="11.4667083"><ele>1037.8</ele><time>2026-04-26T08:56:14.036Z</time></trkpt><trkpt lat="45.8976595" lon="11.4665767"><ele>1034.3999999999999</ele><time>2026-04-26T08:56:15.045Z</time></trkpt><trkpt lat="45.8977198" lon="11.4664558"><ele>1031.0</ele><time>2026-04-26T08:56:16.032Z</time></trkpt><trkpt lat="45.8978223" lon="11.4663607"><ele>1032.25</ele><time>2026-04-26T08:56:17.034Z</time></trkpt><trkpt lat="45.8979261" lon="11.466261"><ele>1033.5</ele><time>2026-04-26T08:56:18.013Z</time></trkpt><trkpt lat="45.8980339" lon="11.4661484"><ele>1034.75</ele><time>2026-04-26T08:56:19.028Z</time></trkpt><trkpt lat="45.898172" lon="11.4660339"><ele>1036.0</ele><time>2026-04-26T08:56:20.039Z</time></trkpt><trkpt lat="45.8982913" lon="11.4659515"><ele>1036.0</ele><time>2026-04-26T08:56:21.048Z</time></trkpt><trkpt lat="45.8984025" lon="11.4658712"><ele>1036.0</ele><time>2026-04-26T08:56:22.026Z</time></trkpt><trkpt lat="45.8985296" lon="11.4658131"><ele>1036.0</ele><time>2026-04-26T08:56:23.05Z</time></trkpt><trkpt lat="45.8986628" lon="11.465756"><ele>1036.0</ele><time>2026-04-26T08:56:24.024Z</time></trkpt><trkpt lat="45.8987945" lon="11.4656991"><ele>1039.5</ele><time>2026-04-26T08:56:25.042Z</time></trkpt><trkpt lat="45.8989231" lon="11.4656232"><ele>1043.0</ele><time>2026-04-26T08:56:26.045Z</time></trkpt><trkpt lat="45.8990493" lon="11.4655856"><ele>1046.5</ele><time>2026-04-26T08:56:27.058Z</time></trkpt><trkpt lat="45.8991726" lon="11.4655531"><ele>1050.0</ele><time>2026-04-26T08:56:28.039Z</time></trkpt><trkpt lat="45.8992894" lon="11.4655143"><ele>1053.75</ele><time>2026-04-26T08:56:29.054Z</time></trkpt><trkpt lat="45.8994144" lon="11.4654821"><ele>1057.5</ele><time>2026-04-26T08:56:30.049Z</time></trkpt><trkpt lat="45.8995359" lon="11.4654381"><ele>1061.25</ele><time>2026-04-26T08:56:31.034Z</time></trkpt><trkpt lat="45.8996558" lon="11.4653903"><ele>1065.0</ele><time>2026-04-26T08:56:32.026Z</time></trkpt><trkpt lat="45.8997736" lon="11.4653291"><ele>1058.5</ele><time>2026-04-26T08:56:33.044Z</time></trkpt><trkpt lat="45.8998914" lon="11.4652878"><ele>1052.0</ele><time>2026-04-26T08:56:34.041Z</time></trkpt><trkpt lat="45.9000141" lon="11.4652574"><ele>1045.5</ele><time>2026-04-26T08:56:35.058Z</time></trkpt><trkpt lat="45.9001292" lon="11.4652063"><ele>1039.0</ele><time>2026-04-26T08:56:36.049Z</time></trkpt><trkpt lat="45.9002451" lon="11.4651789"><ele>1039.0</ele><time>2026-04-26T08:56:37.045Z</time></trkpt><trkpt lat="45.9003565" lon="11.4651326"><ele>1039.0</ele><time>2026-04-26T08:56:38.054Z</time></trkpt><trkpt lat="45.900467" lon="11.4651009"><ele>1039.0</ele><time>2026-04-26T08:56:39.048Z</time></trkpt><trkpt lat="45.9005782" lon="11.4650732"><ele>1039.0</ele><time>2026-04-26T08:56:40.029Z</time></trkpt><trkpt lat="45.9006839" lon="11.4650584"><ele>1039.0</ele><time>2026-04-26T08:56:41.03Z</time></trkpt><trkpt lat="45.9007852" lon="11.465056"><ele>1039.0</ele><time>2026-04-26T08:56:42.027Z</time></trkpt><trkpt lat="45.9008859" lon="11.4649781"><ele>1039.0</ele><time>2026-04-26T08:56:43.044Z</time></trkpt><trkpt lat="45.9009835" lon="11.464907"><ele>1039.0</ele><time>2026-04-26T08:56:44.043Z</time></trkpt><trkpt lat="45.9010645" lon="11.4648153"><ele>1039.0</ele><time>2026-04-26T08:56:45.035Z</time></trkpt><trkpt lat="45.901145" lon="11.4647072"><ele>1039.0</ele><time>2026-04-26T08:56:46.027Z</time></trkpt><trkpt lat="45.9012338" lon="11.4645971"><ele>1040.75</ele><time>2026-04-26T08:56:47.031Z</time></trkpt><trkpt lat="45.901336" lon="11.464496"><ele>1042.5</ele><time>2026-04-26T08:56:48.052Z</time></trkpt><trkpt lat="45.9014356" lon="11.4643826"><ele>1044.25</ele><time>2026-04-26T08:56:49.032Z</time></trkpt><trkpt lat="45.9015152" lon="11.4642317"><ele>1046.0</ele><time>2026-04-26T08:56:50.03Z</time></trkpt><trkpt lat="45.9015907" lon="11.4640869"><ele>1046.0</ele><time>2026-04-26T08:56:51.038Z</time></trkpt><trkpt lat="45.9016605" lon="11.4639468"><ele>1046.0</ele><time>2026-04-26T08:56:52.036Z</time></trkpt><trkpt lat="45.9017145" lon="11.4638002"><ele>1046.0</ele><time>2026-04-26T08:56:53.024Z</time></trkpt><trkpt lat="45.9017707" lon="11.4636557"><ele>1046.0</ele><time>2026-04-26T08:56:54.041Z</time></trkpt><trkpt lat="45.9018337" lon="11.4635235"><ele>1049.75</ele><time>2026-04-26T08:56:55.038Z</time></trkpt><trkpt lat="45.9019162" lon="11.4633795"><ele>1053.5</ele><time>2026-04-26T08:56:56.036Z</time></trkpt><trkpt lat="45.902026" lon="11.4632403"><ele>1057.25</ele><time>2026-04-26T08:56:57.031Z</time></trkpt><trkpt lat="45.9021283" lon="11.4630869"><ele>1061.0</ele><time>2026-04-26T08:56:58.038Z</time></trkpt><trkpt lat="45.9022268" lon="11.4629392"><ele>1062.0</ele><time>2026-04-26T08:56:59.038Z</time></trkpt><trkpt lat="45.9023184" lon="11.4627995"><ele>1063.0</ele><time>2026-04-26T08:57:00.041Z</time></trkpt><trkpt lat="45.9024169" lon="11.4626615"><ele>1064.0</ele><time>2026-04-26T08:57:01.029Z</time></trkpt><trkpt lat="45.9025167" lon="11.4625316"><ele>1065.0</ele><time>2026-04-26T08:57:02.034Z</time></trkpt><trkpt lat="45.9026019" lon="11.4623791"><ele>1065.0</ele><time>2026-04-26T08:57:03.026Z</time></trkpt><trkpt lat="45.9026886" lon="11.4622329"><ele>1065.0</ele><time>2026-04-26T08:57:04.026Z</time></trkpt><trkpt lat="45.9027814" lon="11.4621023"><ele>1065.0</ele><time>2026-04-26T08:57:05.029Z</time></trkpt><trkpt lat="45.9028754" lon="11.4619869"><ele>1065.0</ele><time>2026-04-26T08:57:06.032Z</time></trkpt><trkpt lat="45.9029636" lon="11.4618592"><ele>1055.0</ele><time>2026-04-26T08:57:07.03Z</time></trkpt><trkpt lat="45.9030557" lon="11.4617329"><ele>1045.0</ele><time>2026-04-26T08:57:08.039Z</time></trkpt><trkpt lat="45.9031431" lon="11.4615909"><ele>1035.0</ele><time>2026-04-26T08:57:09.04Z</time></trkpt><trkpt lat="45.9032814" lon="11.4614586"><ele>1025.0</ele><time>2026-04-26T08:57:10.021Z</time></trkpt><trkpt lat="45.9034052" lon="11.4613475"><ele>1024.25</ele><time>2026-04-26T08:57:11.028Z</time></trkpt><trkpt lat="45.9035417" lon="11.4612448"><ele>1023.5</ele><time>2026-04-26T08:57:12.024Z</time></trkpt><trkpt lat="45.903685" lon="11.4611848"><ele>1022.75</ele><time>2026-04-26T08:57:13.043Z</time></trkpt><trkpt lat="45.9038213" lon="11.4611288"><ele>1022.0</ele><time>2026-04-26T08:57:14.04Z</time></trkpt><trkpt lat="45.9039476" lon="11.4610478"><ele>1022.0</ele><time>2026-04-26T08:57:15.048Z</time></trkpt><trkpt lat="45.9040646" lon="11.4609513"><ele>1022.0</ele><time>2026-04-26T08:57:16.037Z</time></trkpt><trkpt lat="45.9041563" lon="11.4608013"><ele>1022.0</ele><time>2026-04-26T08:57:17.033Z</time></trkpt><trkpt lat="45.9042407" lon="11.4606711"><ele>1022.0</ele><time>2026-04-26T08:57:18.026Z</time></trkpt><trkpt lat="45.9043141" lon="11.4605406"><ele>1019.0</ele><time>2026-04-26T08:57:19.025Z</time></trkpt><trkpt lat="45.9043755" lon="11.4604027"><ele>1016.0</ele><time>2026-04-26T08:57:20.053Z</time></trkpt><trkpt lat="45.9044493" lon="11.460274"><ele>1013.0</ele><time>2026-04-26T08:57:21.042Z</time></trkpt><trkpt lat="45.9045304" lon="11.4601625"><ele>1010.0</ele><time>2026-04-26T08:57:22.031Z</time></trkpt><trkpt lat="45.9046261" lon="11.4600782"><ele>1010.0</ele><time>2026-04-26T08:57:23.034Z</time></trkpt><trkpt lat="45.9047379" lon="11.4600235"><ele>1010.0</ele><time>2026-04-26T08:57:24.029Z</time></trkpt><trkpt lat="45.9048696" lon="11.460009"><ele>1010.0</ele><time>2026-04-26T08:57:25.022Z</time></trkpt><trkpt lat="45.9049963" lon="11.4599776"><ele>1010.0</ele><time>2026-04-26T08:57:26.032Z</time></trkpt><trkpt lat="45.9051179" lon="11.4599186"><ele>1017.0</ele><time>2026-04-26T08:57:27.058Z</time></trkpt><trkpt lat="45.9052463" lon="11.4598787"><ele>1024.0</ele><time>2026-04-26T08:57:28.02Z</time></trkpt><trkpt lat="45.9053706" lon="11.4598356"><ele>1031.0</ele><time>2026-04-26T08:57:29.036Z</time></trkpt><trkpt lat="45.9054884" lon="11.4597897"><ele>1038.0</ele><time>2026-04-26T08:57:30.045Z</time></trkpt><trkpt lat="45.9055928" lon="11.4597067"><ele>1034.5</ele><time>2026-04-26T08:57:31.019Z</time></trkpt><trkpt lat="45.9056916" lon="11.4595997"><ele>1031.0</ele><time>2026-04-26T08:57:32.054Z</time></trkpt><trkpt lat="45.9057907" lon="11.4594945"><ele>1027.5</ele><time>2026-04-26T08:57:33.031Z</time></trkpt><trkpt lat="45.9058851" lon="11.4593924"><ele>1024.0</ele><time>2026-04-26T08:57:34.022Z</time></trkpt><trkpt lat="45.9059847" lon="11.4593034"><ele>1024.0</ele><time>2026-04-26T08:57:35.034Z</time></trkpt><trkpt lat="45.9060848" lon="11.4592111"><ele>1024.0</ele><time>2026-04-26T08:57:36.027Z</time></trkpt><trkpt lat="45.9061876" lon="11.4591401"><ele>1024.0</ele><time>2026-04-26T08:57:37.015Z</time></trkpt><trkpt lat="45.9062848" lon="11.4590795"><ele>1024.0</ele><time>2026-04-26T08:57:38.033Z</time></trkpt><trkpt lat="45.9063891" lon="11.4590147"><ele>1024.0</ele><time>2026-04-26T08:57:39.038Z</time></trkpt><trkpt lat="45.9064968" lon="11.4589589"><ele>1024.0</ele><time>2026-04-26T08:57:40.037Z</time></trkpt><trkpt lat="45.90661" lon="11.4589123"><ele>1024.0</ele><time>2026-04-26T08:57:41.045Z</time></trkpt><trkpt lat="45.9067273" lon="11.4588878"><ele>1024.0</ele><time>2026-04-26T08:57:42.038Z</time></trkpt><trkpt lat="45.9068431" lon="11.4588718"><ele>1023.75</ele><time>2026-04-26T08:57:43.032Z</time></trkpt><trkpt lat="45.9069684" lon="11.4588681"><ele>1023.5</ele><time>2026-04-26T08:57:44.029Z</time></trkpt><trkpt lat="45.907099" lon="11.458855"><ele>1023.25</ele><time>2026-04-26T08:57:45.049Z</time></trkpt><trkpt lat="45.9072278" lon="11.4588389"><ele>1023.0</ele><time>2026-04-26T08:57:46.026Z</time></trkpt><trkpt lat="45.9073543" lon="11.4588263"><ele>1023.0</ele><time>2026-04-26T08:57:47.042Z</time></trkpt><trkpt lat="45.9074819" lon="11.4587951"><ele>1023.0</ele><time>2026-04-26T08:57:48.028Z</time></trkpt><trkpt lat="45.9076048" lon="11.4587898"><ele>1023.0</ele><time>2026-04-26T08:57:49.031Z</time></trkpt><trkpt lat="45.9077169" lon="11.4588141"><ele>1023.0</ele><time>2026-04-26T08:57:50.036Z</time></trkpt><trkpt lat="45.9078223" lon="11.4588651"><ele>1022.25</ele><time>2026-04-26T08:57:51.035Z</time></trkpt><trkpt lat="45.9079316" lon="11.4589033"><ele>1021.5</ele><time>2026-04-26T08:57:52.027Z</time></trkpt><trkpt lat="45.9080491" lon="11.4589026"><ele>1020.75</ele><time>2026-04-26T08:57:53.031Z</time></trkpt><trkpt lat="45.9081756" lon="11.4588536"><ele>1020.0</ele><time>2026-04-26T08:57:54.032Z</time></trkpt><trkpt lat="45.9082939" lon="11.4587654"><ele>1017.75</ele><time>2026-04-26T08:57:55.048Z</time></trkpt><trkpt lat="45.9084141" lon="11.4586586"><ele>1015.5</ele><time>2026-04-26T08:57:56.017Z</time></trkpt><trkpt lat="45.9085289" lon="11.4585455"><ele>1013.25</ele><time>2026-04-26T08:57:57.052Z</time></trkpt><trkpt lat="45.9086447" lon="11.4584483"><ele>1011.0</ele><time>2026-04-26T08:57:58.022Z</time></trkpt><trkpt lat="45.9087392" lon="11.4583486"><ele>1011.0</ele><time>2026-04-26T08:57:59.028Z</time></trkpt><trkpt lat="45.9088272" lon="11.458247"><ele>1011.0</ele><time>2026-04-26T08:58:00.066Z</time></trkpt><trkpt lat="45.9089209" lon="11.4581361"><ele>1011.0</ele><time>2026-04-26T08:58:01.031Z</time></trkpt><trkpt lat="45.909031" lon="11.4580143"><ele>1011.0</ele><time>2026-04-26T08:58:02.043Z</time></trkpt><trkpt lat="45.9091422" lon="11.4578697"><ele>1009.75</ele><time>2026-04-26T08:58:03.029Z</time></trkpt><trkpt lat="45.9092606" lon="11.4577435"><ele>1008.5</ele><time>2026-04-26T08:58:04.028Z</time></trkpt><trkpt lat="45.9093679" lon="11.4576178"><ele>1007.25</ele><time>2026-04-26T08:58:05.018Z</time></trkpt><trkpt lat="45.9094492" lon="11.4574571"><ele>1006.0</ele><time>2026-04-26T08:58:06.018Z</time></trkpt><trkpt lat="45.9095445" lon="11.4573211"><ele>1006.0</ele><time>2026-04-26T08:58:07.031Z</time></trkpt><trkpt lat="45.9096464" lon="11.4572018"><ele>1006.0</ele><time>2026-04-26T08:58:08.032Z</time></trkpt><trkpt lat="45.9097434" lon="11.4570789"><ele>1006.0</ele><time>2026-04-26T08:58:09.027Z</time></trkpt><trkpt lat="45.9098493" lon="11.4569917"><ele>1006.0</ele><time>2026-04-26T08:58:10.037Z</time></trkpt><trkpt lat="45.9099448" lon="11.4569146"><ele>1005.0</ele><time>2026-04-26T08:58:11.02Z</time></trkpt><trkpt lat="45.9100567" lon="11.4568625"><ele>1004.0</ele><time>2026-04-26T08:58:12.025Z</time></trkpt><trkpt lat="45.9101776" lon="11.4568444"><ele>1003.0</ele><time>2026-04-26T08:58:13.03Z</time></trkpt><trkpt lat="45.9102928" lon="11.4568213"><ele>1002.0</ele><time>2026-04-26T08:58:14.036Z</time></trkpt><trkpt lat="45.9104043" lon="11.4568194"><ele>1002.0</ele><time>2026-04-26T08:58:15.049Z</time></trkpt><trkpt lat="45.9105233" lon="11.4568385"><ele>1002.0</ele><time>2026-04-26T08:58:16.024Z</time></trkpt><trkpt lat="45.9106462" lon="11.456898"><ele>1002.0</ele><time>2026-04-26T08:58:17.029Z</time></trkpt><trkpt lat="45.910748" lon="11.4569784"><ele>1002.0</ele><time>2026-04-26T08:58:18.035Z</time></trkpt><trkpt lat="45.9108393" lon="11.4570827"><ele>1001.75</ele><time>2026-04-26T08:58:19.025Z</time></trkpt><trkpt lat="45.9109374" lon="11.4572123"><ele>1001.5</ele><time>2026-04-26T08:58:20.042Z</time></trkpt><trkpt lat="45.9110253" lon="11.4573199"><ele>1001.25</ele><time>2026-04-26T08:58:21.032Z</time></trkpt><trkpt lat="45.9111187" lon="11.4574216"><ele>1001.0</ele><time>2026-04-26T08:58:22.029Z</time></trkpt><trkpt lat="45.9112124" lon="11.4575158"><ele>1001.0</ele><time>2026-04-26T08:58:23.032Z</time></trkpt><trkpt lat="45.9113089" lon="11.4576046"><ele>1000.9999999999999</ele><time>2026-04-26T08:58:24.021Z</time></trkpt><trkpt lat="45.9114022" lon="11.4576949"><ele>1000.9999999999999</ele><time>2026-04-26T08:58:25.047Z</time></trkpt><trkpt lat="45.9114906" lon="11.457777"><ele>1001.0</ele><time>2026-04-26T08:58:26.032Z</time></trkpt><trkpt lat="45.9115765" lon="11.4578481"><ele>1001.0</ele><time>2026-04-26T08:58:27.048Z</time></trkpt><trkpt lat="45.9116835" lon="11.4578558"><ele>1003.0</ele><time>2026-04-26T08:58:28.042Z</time></trkpt><trkpt lat="45.9117917" lon="11.4578659"><ele>1005.0</ele><time>2026-04-26T08:58:29.023Z</time></trkpt><trkpt lat="45.9118959" lon="11.4578304"><ele>1007.0</ele><time>2026-04-26T08:58:30.041Z</time></trkpt><trkpt lat="45.9120075" lon="11.4577277"><ele>1009.0</ele><time>2026-04-26T08:58:31.038Z</time></trkpt><trkpt lat="45.9121202" lon="11.4576578"><ele>1009.0</ele><time>2026-04-26T08:58:32.04Z</time></trkpt><trkpt lat="45.9122577" lon="11.4575523"><ele>1009.0</ele><time>2026-04-26T08:58:33.039Z</time></trkpt><trkpt lat="45.9124061" lon="11.4574408"><ele>1009.0</ele><time>2026-04-26T08:58:34.019Z</time></trkpt><trkpt lat="45.9125731" lon="11.4573473"><ele>1011.6666666666666</ele><time>2026-04-26T08:58:35.042Z</time></trkpt><trkpt lat="45.9127413" lon="11.4572803"><ele>1014.3333333333333</ele><time>2026-04-26T08:58:36.054Z</time></trkpt><trkpt lat="45.9129265" lon="11.4571901"><ele>1017.0</ele><time>2026-04-26T08:58:37.04Z</time></trkpt><trkpt lat="45.9131232" lon="11.4570761"><ele>1017.0</ele><time>2026-04-26T08:58:38.041Z</time></trkpt><trkpt lat="45.913248" lon="11.4569387"><ele>1017.0</ele><time>2026-04-26T08:58:39.028Z</time></trkpt><trkpt lat="45.9133694" lon="11.4568103"><ele>1017.0</ele><time>2026-04-26T08:58:40.047Z</time></trkpt><trkpt lat="45.9134901" lon="11.4566954"><ele>1019.25</ele><time>2026-04-26T08:58:41.06Z</time></trkpt><trkpt lat="45.9136154" lon="11.4565987"><ele>1021.5</ele><time>2026-04-26T08:58:42.05Z</time></trkpt><trkpt lat="45.9137569" lon="11.4565422"><ele>1023.75</ele><time>2026-04-26T08:58:43.022Z</time></trkpt><trkpt lat="45.9138975" lon="11.4564933"><ele>1026.0</ele><time>2026-04-26T08:58:44.019Z</time></trkpt><trkpt lat="45.9140452" lon="11.4564469"><ele>1026.0</ele><time>2026-04-26T08:58:45.033Z</time></trkpt><trkpt lat="45.9141906" lon="11.4563705"><ele>1026.0</ele><time>2026-04-26T08:58:46.035Z</time></trkpt><trkpt lat="45.9143362" lon="11.4562825"><ele>1026.0</ele><time>2026-04-26T08:58:47.041Z</time></trkpt><trkpt lat="45.9144668" lon="11.4561476"><ele>1026.3333333333333</ele><time>2026-04-26T08:58:48.04Z</time></trkpt><trkpt lat="45.9145849" lon="11.4559942"><ele>1026.6666666666665</ele><time>2026-04-26T08:58:49.038Z</time></trkpt><trkpt lat="45.9147074" lon="11.4558552"><ele>1027.0</ele><time>2026-04-26T08:58:50.031Z</time></trkpt><trkpt lat="45.9148611" lon="11.4557376"><ele>1027.0</ele><time>2026-04-26T08:58:51.022Z</time></trkpt><trkpt lat="45.9150276" lon="11.4556242"><ele>1027.0</ele><time>2026-04-26T08:58:52.048Z</time></trkpt><trkpt lat="45.9152139" lon="11.4555431"><ele>1027.0</ele><time>2026-04-26T08:58:53.044Z</time></trkpt><trkpt lat="45.9154125" lon="11.4554917"><ele>1027.0</ele><time>2026-04-26T08:58:54.031Z</time></trkpt><trkpt lat="45.9156049" lon="11.4554331"><ele>1027.0</ele><time>2026-04-26T08:58:55.028Z</time></trkpt><trkpt lat="45.9157884" lon="11.4553707"><ele>1027.0</ele><time>2026-04-26T08:58:56.025Z</time></trkpt><trkpt lat="45.9159642" lon="11.4553012"><ele>1027.3333333333333</ele><time>2026-04-26T08:58:57.024Z</time></trkpt><trkpt lat="45.9161432" lon="11.4553007"><ele>1027.6666666666667</ele><time>2026-04-26T08:58:58.03Z</time></trkpt><trkpt lat="45.91631" lon="11.4553177"><ele>1028.0</ele><time>2026-04-26T08:58:59.039Z</time></trkpt><trkpt lat="45.9164658" lon="11.4553394"><ele>1028.0</ele><time>2026-04-26T08:59:00.047Z</time></trkpt><trkpt lat="45.9166125" lon="11.4553572"><ele>1028.0</ele><time>2026-04-26T08:59:01.04Z</time></trkpt><trkpt lat="45.9167449" lon="11.4552739"><ele>1028.0</ele><time>2026-04-26T08:59:02.025Z</time></trkpt><trkpt lat="45.9168607" lon="11.4551527"><ele>1028.0</ele><time>2026-04-26T08:59:03.035Z</time></trkpt><trkpt lat="45.9169668" lon="11.4550017"><ele>1031.6666666666667</ele><time>2026-04-26T08:59:04.031Z</time></trkpt><trkpt lat="45.9170651" lon="11.4548329"><ele>1035.3333333333333</ele><time>2026-04-26T08:59:05.029Z</time></trkpt><trkpt lat="45.9171676" lon="11.4546752"><ele>1039.0</ele><time>2026-04-26T08:59:06.033Z</time></trkpt><trkpt lat="45.917269" lon="11.4545214"><ele>1039.0</ele><time>2026-04-26T08:59:07.059Z</time></trkpt><trkpt lat="45.9173795" lon="11.4543696"><ele>1039.0</ele><time>2026-04-26T08:59:08.039Z</time></trkpt><trkpt lat="45.9174873" lon="11.4541975"><ele>1039.0</ele><time>2026-04-26T08:59:09.049Z</time></trkpt><trkpt lat="45.9176341" lon="11.4540991"><ele>1042.3333333333333</ele><time>2026-04-26T08:59:10.044Z</time></trkpt><trkpt lat="45.9177987" lon="11.4540144"><ele>1045.6666666666667</ele><time>2026-04-26T08:59:11.044Z</time></trkpt><trkpt lat="45.9179578" lon="11.4539157"><ele>1049.0</ele><time>2026-04-26T08:59:12.026Z</time></trkpt><trkpt lat="45.9181201" lon="11.4538145"><ele>1048.3333333333335</ele><time>2026-04-26T08:59:13.024Z</time></trkpt><trkpt lat="45.9182786" lon="11.4537104"><ele>1047.6666666666667</ele><time>2026-04-26T08:59:14.028Z</time></trkpt><trkpt lat="45.9184389" lon="11.4536115"><ele>1047.0</ele><time>2026-04-26T08:59:15.029Z</time></trkpt><trkpt lat="45.9186018" lon="11.4535164"><ele>1047.0</ele><time>2026-04-26T08:59:16.027Z</time></trkpt><trkpt lat="45.9187652" lon="11.4534277"><ele>1047.0</ele><time>2026-04-26T08:59:17.039Z</time></trkpt><trkpt lat="45.9189311" lon="11.4533474"><ele>1047.0</ele><time>2026-04-26T08:59:18.021Z</time></trkpt><trkpt lat="45.9191049" lon="11.4532836"><ele>1048.3333333333333</ele><time>2026-04-26T08:59:19.054Z</time></trkpt><trkpt lat="45.9192827" lon="11.4532835"><ele>1049.6666666666665</ele><time>2026-04-26T08:59:20.04Z</time></trkpt><trkpt lat="45.9194555" lon="11.4532926"><ele>1051.0</ele><time>2026-04-26T08:59:21.044Z</time></trkpt><trkpt lat="45.9196276" lon="11.453286"><ele>1051.0</ele><time>2026-04-26T08:59:22.043Z</time></trkpt><trkpt lat="45.9197992" lon="11.453268"><ele>1051.0</ele><time>2026-04-26T08:59:23.043Z</time></trkpt><trkpt lat="45.9199763" lon="11.4532409"><ele>1051.0</ele><time>2026-04-26T08:59:24.03Z</time></trkpt><trkpt lat="45.9201548" lon="11.453199"><ele>1054.0</ele><time>2026-04-26T08:59:25.034Z</time></trkpt><trkpt lat="45.9203262" lon="11.4531654"><ele>1057.0</ele><time>2026-04-26T08:59:26.02Z</time></trkpt><trkpt lat="45.9204914" lon="11.4531693"><ele>1060.0</ele><time>2026-04-26T08:59:27.037Z</time></trkpt><trkpt lat="45.920657" lon="11.4531443"><ele>1060.0</ele><time>2026-04-26T08:59:28.025Z</time></trkpt><trkpt lat="45.9208203" lon="11.4531384"><ele>1060.0</ele><time>2026-04-26T08:59:29.05Z</time></trkpt><trkpt lat="45.9209827" lon="11.4531702"><ele>1060.0</ele><time>2026-04-26T08:59:30.027Z</time></trkpt><trkpt lat="45.9211469" lon="11.4532014"><ele>1062.3333333333333</ele><time>2026-04-26T08:59:31.034Z</time></trkpt><trkpt lat="45.9213136" lon="11.4532092"><ele>1064.6666666666667</ele><time>2026-04-26T08:59:32.035Z</time></trkpt><trkpt lat="45.9214815" lon="11.4531947"><ele>1067.0</ele><time>2026-04-26T08:59:33.032Z</time></trkpt><trkpt lat="45.9216504" lon="11.4531626"><ele>1068.3333333333335</ele><time>2026-04-26T08:59:34.041Z</time></trkpt><trkpt lat="45.9218144" lon="11.4530794"><ele>1069.6666666666667</ele><time>2026-04-26T08:59:35.031Z</time></trkpt><trkpt lat="45.9219688" lon="11.4529888"><ele>1071.0</ele><time>2026-04-26T08:59:36.035Z</time></trkpt><trkpt lat="45.9221189" lon="11.4529133"><ele>1071.0</ele><time>2026-04-26T08:59:37.031Z</time></trkpt><trkpt lat="45.9222798" lon="11.4529008"><ele>1071.0</ele><time>2026-04-26T08:59:38.034Z</time></trkpt><trkpt lat="45.9224394" lon="11.4528962"><ele>1071.0</ele><time>2026-04-26T08:59:39.021Z</time></trkpt><trkpt lat="45.9226053" lon="11.4528809"><ele>1072.6666666666667</ele><time>2026-04-26T08:59:40.04Z</time></trkpt><trkpt lat="45.9227848" lon="11.4528589"><ele>1074.3333333333335</ele><time>2026-04-26T08:59:41.031Z</time></trkpt><trkpt lat="45.9229448" lon="11.4527373"><ele>1076.0</ele><time>2026-04-26T08:59:42.05Z</time></trkpt><trkpt lat="45.9230979" lon="11.4525976"><ele>1076.0</ele><time>2026-04-26T08:59:43.028Z</time></trkpt><trkpt lat="45.9232421" lon="11.4524382"><ele>1076.0</ele><time>2026-04-26T08:59:44.042Z</time></trkpt><trkpt lat="45.9233942" lon="11.4522966"><ele>1076.0</ele><time>2026-04-26T08:59:45.033Z</time></trkpt><trkpt lat="45.9235507" lon="11.4521708"><ele>1077.0</ele><time>2026-04-26T08:59:46.045Z</time></trkpt><trkpt lat="45.9237117" lon="11.4520548"><ele>1078.0</ele><time>2026-04-26T08:59:47.028Z</time></trkpt><trkpt lat="45.923883" lon="11.4519601"><ele>1079.0</ele><time>2026-04-26T08:59:48.031Z</time></trkpt><trkpt lat="45.9240615" lon="11.4518887"><ele>1080.3333333333335</ele><time>2026-04-26T08:59:49.036Z</time></trkpt><trkpt lat="45.9242409" lon="11.4518288"><ele>1081.6666666666667</ele><time>2026-04-26T08:59:50.025Z</time></trkpt><trkpt lat="45.9244179" lon="11.4517734"><ele>1083.0</ele><time>2026-04-26T08:59:51.048Z</time></trkpt><trkpt lat="45.9245949" lon="11.451721"><ele>1083.0</ele><time>2026-04-26T08:59:52.033Z</time></trkpt><trkpt lat="45.9247598" lon="11.4516387"><ele>1083.0</ele><time>2026-04-26T08:59:53.023Z</time></trkpt><trkpt lat="45.9249172" lon="11.4515344"><ele>1083.0</ele><time>2026-04-26T08:59:54.028Z</time></trkpt><trkpt lat="45.9250724" lon="11.4514149"><ele>1084.0</ele><time>2026-04-26T08:59:55.02Z</time></trkpt><trkpt lat="45.9252241" lon="11.4512788"><ele>1085.0</ele><time>2026-04-26T08:59:56.041Z</time></trkpt><trkpt lat="45.9253739" lon="11.4511224"><ele>1086.0</ele><time>2026-04-26T08:59:57.041Z</time></trkpt><trkpt lat="45.9255246" lon="11.4509617"><ele>1086.0</ele><time>2026-04-26T08:59:58.04Z</time></trkpt><trkpt lat="45.9256799" lon="11.4508058"><ele>1086.0</ele><time>2026-04-26T08:59:59.033Z</time></trkpt><trkpt lat="45.9258396" lon="11.4506581"><ele>1086.0</ele><time>2026-04-26T09:00:00.044Z</time></trkpt><trkpt lat="45.9260071" lon="11.4505356"><ele>1086.3333333333333</ele><time>2026-04-26T09:00:01.025Z</time></trkpt><trkpt lat="45.9261816" lon="11.4504551"><ele>1086.6666666666665</ele><time>2026-04-26T09:00:02.044Z</time></trkpt><trkpt lat="45.9263522" lon="11.4503882"><ele>1087.0</ele><time>2026-04-26T09:00:03.04Z</time></trkpt><trkpt lat="45.9265202" lon="11.4503366"><ele>1087.0</ele><time>2026-04-26T09:00:04.045Z</time></trkpt><trkpt lat="45.9266861" lon="11.4503034"><ele>1087.0</ele><time>2026-04-26T09:00:05.038Z</time></trkpt><trkpt lat="45.9268513" lon="11.4502871"><ele>1087.0</ele><time>2026-04-26T09:00:06.03Z</time></trkpt><trkpt lat="45.9270169" lon="11.4502783"><ele>1088.3333333333333</ele><time>2026-04-26T09:00:07.041Z</time></trkpt><trkpt lat="45.9271789" lon="11.4502742"><ele>1089.6666666666667</ele><time>2026-04-26T09:00:08.038Z</time></trkpt><trkpt lat="45.9273403" lon="11.4502568"><ele>1091.0</ele><time>2026-04-26T09:00:09.03Z</time></trkpt><trkpt lat="45.9274984" lon="11.4502292"><ele>1094.5</ele><time>2026-04-26T09:00:10.035Z</time></trkpt><trkpt lat="45.9276483" lon="11.4501876"><ele>1098.0</ele><time>2026-04-26T09:00:11.031Z</time></trkpt><trkpt lat="45.9277927" lon="11.4501471"><ele>1101.5</ele><time>2026-04-26T09:00:12.033Z</time></trkpt><trkpt lat="45.9279244" lon="11.4500605"><ele>1105.0</ele><time>2026-04-26T09:00:13.026Z</time></trkpt><trkpt lat="45.9280355" lon="11.4499301"><ele>1105.0</ele><time>2026-04-26T09:00:14.044Z</time></trkpt><trkpt lat="45.9281335" lon="11.4497831"><ele>1105.0</ele><time>2026-04-26T09:00:15.031Z</time></trkpt><trkpt lat="45.9282208" lon="11.4496301"><ele>1105.0</ele><time>2026-04-26T09:00:16.034Z</time></trkpt><trkpt lat="45.9283031" lon="11.4494735"><ele>1105.0</ele><time>2026-04-26T09:00:17.039Z</time></trkpt><trkpt lat="45.9283865" lon="11.4493166"><ele>1107.5</ele><time>2026-04-26T09:00:18.027Z</time></trkpt><trkpt lat="45.9284942" lon="11.4491887"><ele>1110.0</ele><time>2026-04-26T09:00:19.05Z</time></trkpt><trkpt lat="45.928602" lon="11.4490677"><ele>1112.5</ele><time>2026-04-26T09:00:20.037Z</time></trkpt><trkpt lat="45.928713" lon="11.4489619"><ele>1115.0</ele><time>2026-04-26T09:00:21.03Z</time></trkpt><trkpt lat="45.9288272" lon="11.4488664"><ele>1111.25</ele><time>2026-04-26T09:00:22.039Z</time></trkpt><trkpt lat="45.928939" lon="11.4487643"><ele>1107.5</ele><time>2026-04-26T09:00:23.042Z</time></trkpt><trkpt lat="45.9290483" lon="11.4486616"><ele>1103.75</ele><time>2026-04-26T09:00:24.033Z</time></trkpt><trkpt lat="45.9291485" lon="11.448555"><ele>1100.0</ele><time>2026-04-26T09:00:25.04Z</time></trkpt><trkpt lat="45.9292397" lon="11.4484394"><ele>1105.5</ele><time>2026-04-26T09:00:26.024Z</time></trkpt><trkpt lat="45.929315" lon="11.4483099"><ele>1111.0</ele><time>2026-04-26T09:00:27.031Z</time></trkpt><trkpt lat="45.9293785" lon="11.4481684"><ele>1116.5</ele><time>2026-04-26T09:00:28.049Z</time></trkpt><trkpt lat="45.9294353" lon="11.4480142"><ele>1122.0</ele><time>2026-04-26T09:00:29.024Z</time></trkpt><trkpt lat="45.9294868" lon="11.4478485"><ele>1122.0</ele><time>2026-04-26T09:00:30.04Z</time></trkpt><trkpt lat="45.9295332" lon="11.4476785"><ele>1122.0</ele><time>2026-04-26T09:00:31.04Z</time></trkpt><trkpt lat="45.9295702" lon="11.4475087"><ele>1122.0</ele><time>2026-04-26T09:00:32.042Z</time></trkpt><trkpt lat="45.929601" lon="11.4473396"><ele>1122.0</ele><time>2026-04-26T09:00:33.03Z</time></trkpt><trkpt lat="45.9296263" lon="11.4471804"><ele>1120.25</ele><time>2026-04-26T09:00:34.036Z</time></trkpt><trkpt lat="45.929633" lon="11.4470157"><ele>1118.5</ele><time>2026-04-26T09:00:35.055Z</time></trkpt><trkpt lat="45.92965" lon="11.4468513"><ele>1116.75</ele><time>2026-04-26T09:00:36.025Z</time></trkpt><trkpt lat="45.9296729" lon="11.4466881"><ele>1115.0</ele><time>2026-04-26T09:00:37.036Z</time></trkpt><trkpt lat="45.9296915" lon="11.4465158"><ele>1115.0</ele><time>2026-04-26T09:00:38.03Z</time></trkpt><trkpt lat="45.9297289" lon="11.4463499"><ele>1115.0</ele><time>2026-04-26T09:00:39.038Z</time></trkpt><trkpt lat="45.9297864" lon="11.4461868"><ele>1115.0</ele><time>2026-04-26T09:00:40.042Z</time></trkpt><trkpt lat="45.9298532" lon="11.4460282"><ele>1115.0</ele><time>2026-04-26T09:00:41.035Z</time></trkpt><trkpt lat="45.929938" lon="11.4458765"><ele>1115.5</ele><time>2026-04-26T09:00:42.046Z</time></trkpt><trkpt lat="45.9300216" lon="11.445722"><ele>1116.0</ele><time>2026-04-26T09:00:43.048Z</time></trkpt><trkpt lat="45.9301175" lon="11.4455764"><ele>1116.5</ele><time>2026-04-26T09:00:44.04Z</time></trkpt><trkpt lat="45.9302359" lon="11.4454502"><ele>1117.0</ele><time>2026-04-26T09:00:45.087Z</time></trkpt><trkpt lat="45.9303674" lon="11.4453437"><ele>1117.6666666666665</ele><time>2026-04-26T09:00:46.024Z</time></trkpt><trkpt lat="45.9304994" lon="11.4452378"><ele>1118.3333333333333</ele><time>2026-04-26T09:00:47.037Z</time></trkpt><trkpt lat="45.9306309" lon="11.4451165"><ele>1119.0</ele><time>2026-04-26T09:00:48.025Z</time></trkpt><trkpt lat="45.9307703" lon="11.4449833"><ele>1119.6666666666667</ele><time>2026-04-26T09:00:49.032Z</time></trkpt><trkpt lat="45.9309253" lon="11.4448438"><ele>1120.3333333333335</ele><time>2026-04-26T09:00:50.037Z</time></trkpt><trkpt lat="45.9310916" lon="11.4447009"><ele>1121.0</ele><time>2026-04-26T09:00:51.044Z</time></trkpt><trkpt lat="45.9312691" lon="11.4445518"><ele>1121.0</ele><time>2026-04-26T09:00:52.03Z</time></trkpt><trkpt lat="45.9314527" lon="11.4443726"><ele>1121.0</ele><time>2026-04-26T09:00:53.049Z</time></trkpt><trkpt lat="45.93166" lon="11.4442185"><ele>1122.5</ele><time>2026-04-26T09:00:54.044Z</time></trkpt><trkpt lat="45.9318865" lon="11.4440684"><ele>1124.0</ele><time>2026-04-26T09:00:55.047Z</time></trkpt><trkpt lat="45.9321012" lon="11.4439338"><ele>1124.6666666666667</ele><time>2026-04-26T09:00:56.039Z</time></trkpt><trkpt lat="45.9322888" lon="11.4437964"><ele>1125.3333333333333</ele><time>2026-04-26T09:00:57.034Z</time></trkpt><trkpt lat="45.932455" lon="11.4436649"><ele>1126.0</ele><time>2026-04-26T09:00:58.037Z</time></trkpt><trkpt lat="45.9326168" lon="11.4435594"><ele>1126.0</ele><time>2026-04-26T09:00:59.054Z</time></trkpt><trkpt lat="45.932765" lon="11.4434472"><ele>1126.0</ele><time>2026-04-26T09:01:00.035Z</time></trkpt><trkpt lat="45.9329098" lon="11.4433936"><ele>1126.0</ele><time>2026-04-26T09:01:01.033Z</time></trkpt><trkpt lat="45.9330349" lon="11.4433383"><ele>1126.0</ele><time>2026-04-26T09:01:02.041Z</time></trkpt><trkpt lat="45.933161" lon="11.4433157"><ele>1126.0</ele><time>2026-04-26T09:01:03.021Z</time></trkpt><trkpt lat="45.9332901" lon="11.4433148"><ele>1126.0</ele><time>2026-04-26T09:01:04.033Z</time></trkpt><trkpt lat="45.9334201" lon="11.4433085"><ele>1126.0</ele><time>2026-04-26T09:01:05.032Z</time></trkpt><trkpt lat="45.9335496" lon="11.4433149"><ele>1126.0</ele><time>2026-04-26T09:01:06.037Z</time></trkpt><trkpt lat="45.9336738" lon="11.443368"><ele>1128.25</ele><time>2026-04-26T09:01:07.051Z</time></trkpt><trkpt lat="45.9338045" lon="11.4433583"><ele>1130.5</ele><time>2026-04-26T09:01:08.039Z</time></trkpt><trkpt lat="45.9339328" lon="11.4433174"><ele>1132.75</ele><time>2026-04-26T09:01:09.051Z</time></trkpt><trkpt lat="45.934073" lon="11.4432218"><ele>1135.0</ele><time>2026-04-26T09:01:10.083Z</time></trkpt><trkpt lat="45.9342306" lon="11.4431068"><ele>1133.3333333333333</ele><time>2026-04-26T09:01:11.031Z</time></trkpt><trkpt lat="45.9343955" lon="11.4429971"><ele>1131.6666666666667</ele><time>2026-04-26T09:01:12.04Z</time></trkpt><trkpt lat="45.9345639" lon="11.4428841"><ele>1130.0</ele><time>2026-04-26T09:01:13.028Z</time></trkpt><trkpt lat="45.934749" lon="11.4427582"><ele>1130.0</ele><time>2026-04-26T09:01:14.048Z</time></trkpt><trkpt lat="45.934914" lon="11.4426343"><ele>1130.0</ele><time>2026-04-26T09:01:15.055Z</time></trkpt><trkpt lat="45.9350683" lon="11.4424947"><ele>1130.0</ele><time>2026-04-26T09:01:16.039Z</time></trkpt><trkpt lat="45.9352161" lon="11.4423401"><ele>1129.0</ele><time>2026-04-26T09:01:17.048Z</time></trkpt><trkpt lat="45.9353523" lon="11.4421613"><ele>1128.0</ele><time>2026-04-26T09:01:18.045Z</time></trkpt><trkpt lat="45.935473" lon="11.441967"><ele>1127.0</ele><time>2026-04-26T09:01:19.043Z</time></trkpt><trkpt lat="45.9356149" lon="11.44181"><ele>1127.0</ele><time>2026-04-26T09:01:20.039Z</time></trkpt><trkpt lat="45.935755" lon="11.4416514"><ele>1127.0</ele><time>2026-04-26T09:01:21.049Z</time></trkpt><trkpt lat="45.9359107" lon="11.4415129"><ele>1127.0</ele><time>2026-04-26T09:01:22.033Z</time></trkpt><trkpt lat="45.9360951" lon="11.4414193"><ele>1130.3333333333335</ele><time>2026-04-26T09:01:23.05Z</time></trkpt><trkpt lat="45.9362973" lon="11.4413326"><ele>1133.6666666666667</ele><time>2026-04-26T09:01:24.038Z</time></trkpt><trkpt lat="45.9364929" lon="11.4412144"><ele>1137.0</ele><time>2026-04-26T09:01:25.033Z</time></trkpt><trkpt lat="45.9366907" lon="11.4411068"><ele>1140.3333333333333</ele><time>2026-04-26T09:01:26.035Z</time></trkpt><trkpt lat="45.9368815" lon="11.4409809"><ele>1143.6666666666665</ele><time>2026-04-26T09:01:27.035Z</time></trkpt><trkpt lat="45.9370585" lon="11.4408085"><ele>1147.0</ele><time>2026-04-26T09:01:28.041Z</time></trkpt><trkpt lat="45.9372348" lon="11.440629"><ele>1144.0</ele><time>2026-04-26T09:01:29.028Z</time></trkpt><trkpt lat="45.9374103" lon="11.4404495"><ele>1141.0</ele><time>2026-04-26T09:01:30.043Z</time></trkpt><trkpt lat="45.9375853" lon="11.4402733"><ele>1138.0</ele><time>2026-04-26T09:01:31.052Z</time></trkpt><trkpt lat="45.9377677" lon="11.4401284"><ele>1138.0</ele><time>2026-04-26T09:01:32.045Z</time></trkpt><trkpt lat="45.9379388" lon="11.4399692"><ele>1138.0</ele><time>2026-04-26T09:01:33.036Z</time></trkpt><trkpt lat="45.938105" lon="11.4398081"><ele>1138.0</ele><time>2026-04-26T09:01:34.041Z</time></trkpt><trkpt lat="45.938256" lon="11.4396192"><ele>1139.0</ele><time>2026-04-26T09:01:35.039Z</time></trkpt><trkpt lat="45.9384264" lon="11.439475"><ele>1140.0</ele><time>2026-04-26T09:01:36.048Z</time></trkpt><trkpt lat="45.9385717" lon="11.4392845"><ele>1141.0</ele><time>2026-04-26T09:01:37.043Z</time></trkpt><trkpt lat="45.9387218" lon="11.4390953"><ele>1141.0</ele><time>2026-04-26T09:01:38.043Z</time></trkpt><trkpt lat="45.9388709" lon="11.4388991"><ele>1141.0</ele><time>2026-04-26T09:01:39.058Z</time></trkpt><trkpt lat="45.9390069" lon="11.4386837"><ele>1141.0</ele><time>2026-04-26T09:01:40.048Z</time></trkpt><trkpt lat="45.9391526" lon="11.4384852"><ele>1139.3333333333333</ele><time>2026-04-26T09:01:41.038Z</time></trkpt><trkpt lat="45.9393046" lon="11.4383109"><ele>1137.6666666666667</ele><time>2026-04-26T09:01:42.031Z</time></trkpt><trkpt lat="45.9394603" lon="11.4381709"><ele>1136.0</ele><time>2026-04-26T09:01:43.055Z</time></trkpt><trkpt lat="45.9396206" lon="11.4380677"><ele>1136.5</ele><time>2026-04-26T09:01:44.047Z</time></trkpt><trkpt lat="45.9397621" lon="11.4379621"><ele>1137.0</ele><time>2026-04-26T09:01:45.06Z</time></trkpt><trkpt lat="45.9398849" lon="11.4378662"><ele>1137.5</ele><time>2026-04-26T09:01:46.026Z</time></trkpt><trkpt lat="45.9399855" lon="11.4377842"><ele>1138.0</ele><time>2026-04-26T09:01:47.039Z</time></trkpt><trkpt lat="45.9400524" lon="11.4377164"><ele>1139.6</ele><time>2026-04-26T09:01:48.045Z</time></trkpt><trkpt lat="45.9401508" lon="11.4376489"><ele>1141.1999999999998</ele><time>2026-04-26T09:01:50.04Z</time></trkpt><trkpt lat="45.940227" lon="11.4375795"><ele>1142.8</ele><time>2026-04-26T09:01:52.032Z</time></trkpt><trkpt lat="45.9403162" lon="11.4374747"><ele>1144.3999999999999</ele><time>2026-04-26T09:01:54.029Z</time></trkpt><trkpt lat="45.9403842" lon="11.4373856"><ele>1146.0</ele><time>2026-04-26T09:01:55.031Z</time></trkpt><trkpt lat="45.9404608" lon="11.4372629"><ele>1146.0</ele><time>2026-04-26T09:01:56.049Z</time></trkpt><trkpt lat="45.9405581" lon="11.4371474"><ele>1146.0</ele><time>2026-04-26T09:01:57.014Z</time></trkpt><trkpt lat="45.9406549" lon="11.437001"><ele>1146.0</ele><time>2026-04-26T09:01:58.049Z</time></trkpt><trkpt lat="45.9407681" lon="11.436871"><ele>1146.0</ele><time>2026-04-26T09:01:59.06Z</time></trkpt><trkpt lat="45.940881" lon="11.4367391"><ele>1146.0</ele><time>2026-04-26T09:02:00.044Z</time></trkpt><trkpt lat="45.9409979" lon="11.4366104"><ele>1146.0</ele><time>2026-04-26T09:02:01.038Z</time></trkpt><trkpt lat="45.9411176" lon="11.4364802"><ele>1146.0</ele><time>2026-04-26T09:02:02.04Z</time></trkpt><trkpt lat="45.9412498" lon="11.4363743"><ele>1146.0</ele><time>2026-04-26T09:02:03.035Z</time></trkpt><trkpt lat="45.9413892" lon="11.4362585"><ele>1146.0</ele><time>2026-04-26T09:02:04.04Z</time></trkpt><trkpt lat="45.9415466" lon="11.4361654"><ele>1146.0</ele><time>2026-04-26T09:02:05.041Z</time></trkpt><trkpt lat="45.9417115" lon="11.4360798"><ele>1146.0</ele><time>2026-04-26T09:02:06.031Z</time></trkpt><trkpt lat="45.9418843" lon="11.4360045"><ele>1146.6666666666667</ele><time>2026-04-26T09:02:07.033Z</time></trkpt><trkpt lat="45.9420546" lon="11.4359267"><ele>1147.3333333333335</ele><time>2026-04-26T09:02:08.04Z</time></trkpt><trkpt lat="45.9422186" lon="11.4358627"><ele>1148.0</ele><time>2026-04-26T09:02:09.031Z</time></trkpt><trkpt lat="45.9423706" lon="11.435821"><ele>1148.0</ele><time>2026-04-26T09:02:10.034Z</time></trkpt><trkpt lat="45.9425174" lon="11.4358145"><ele>1148.0</ele><time>2026-04-26T09:02:11.036Z</time></trkpt><trkpt lat="45.9426503" lon="11.4358505"><ele>1148.0</ele><time>2026-04-26T09:02:12.047Z</time></trkpt><trkpt lat="45.9427725" lon="11.4359165"><ele>1148.0</ele><time>2026-04-26T09:02:13.04Z</time></trkpt><trkpt lat="45.9428981" lon="11.4360074"><ele>1151.0</ele><time>2026-04-26T09:02:14.036Z</time></trkpt><trkpt lat="45.9430284" lon="11.436113"><ele>1154.0</ele><time>2026-04-26T09:02:15.041Z</time></trkpt><trkpt lat="45.9432043" lon="11.4362124"><ele>1157.0</ele><time>2026-04-26T09:02:16.036Z</time></trkpt><trkpt lat="45.9433673" lon="11.4362086"><ele>1160.0</ele><time>2026-04-26T09:02:17.04Z</time></trkpt><trkpt lat="45.9435478" lon="11.4362284"><ele>1163.0</ele><time>2026-04-26T09:02:18.034Z</time></trkpt><trkpt lat="45.9437282" lon="11.4362415"><ele>1166.0</ele><time>2026-04-26T09:02:19.032Z</time></trkpt><trkpt lat="45.9439129" lon="11.4362477"><ele>1166.0</ele><time>2026-04-26T09:02:20.025Z</time></trkpt><trkpt lat="45.9440991" lon="11.4362552"><ele>1166.0</ele><time>2026-04-26T09:02:21.038Z</time></trkpt><trkpt lat="45.9442814" lon="11.4362668"><ele>1166.0</ele><time>2026-04-26T09:02:22.04Z</time></trkpt><trkpt lat="45.9444577" lon="11.4362677"><ele>1168.3333333333335</ele><time>2026-04-26T09:02:23.057Z</time></trkpt><trkpt lat="45.9446316" lon="11.4362769"><ele>1170.6666666666667</ele><time>2026-04-26T09:02:24.048Z</time></trkpt><trkpt lat="45.944798" lon="11.4363019"><ele>1173.0</ele><time>2026-04-26T09:02:25.035Z</time></trkpt><trkpt lat="45.9449565" lon="11.4363058"><ele>1171.6666666666667</ele><time>2026-04-26T09:02:26.035Z</time></trkpt><trkpt lat="45.9451434" lon="11.4362858"><ele>1170.3333333333335</ele><time>2026-04-26T09:02:27.045Z</time></trkpt><trkpt lat="45.9453064" lon="11.4362073"><ele>1169.0</ele><time>2026-04-26T09:02:28.044Z</time></trkpt><trkpt lat="45.9454651" lon="11.4360941"><ele>1169.0</ele><time>2026-04-26T09:02:29.053Z</time></trkpt><trkpt lat="45.9456211" lon="11.4359659"><ele>1169.0</ele><time>2026-04-26T09:02:30.039Z</time></trkpt><trkpt lat="45.945778" lon="11.4358494"><ele>1169.0</ele><time>2026-04-26T09:02:31.039Z</time></trkpt><trkpt lat="45.9459444" lon="11.4357251"><ele>1170.6666666666667</ele><time>2026-04-26T09:02:32.031Z</time></trkpt><trkpt lat="45.9461019" lon="11.4356126"><ele>1172.3333333333333</ele><time>2026-04-26T09:02:33.039Z</time></trkpt><trkpt lat="45.946253" lon="11.4355075"><ele>1174.0</ele><time>2026-04-26T09:02:34.04Z</time></trkpt><trkpt lat="45.9464011" lon="11.4354057"><ele>1174.0</ele><time>2026-04-26T09:02:35.031Z</time></trkpt><trkpt lat="45.9465571" lon="11.4353224"><ele>1174.0</ele><time>2026-04-26T09:02:36.044Z</time></trkpt><trkpt lat="45.946699" lon="11.4352189"><ele>1174.0</ele><time>2026-04-26T09:02:37.045Z</time></trkpt><trkpt lat="45.9468132" lon="11.4350716"><ele>1175.75</ele><time>2026-04-26T09:02:38.036Z</time></trkpt><trkpt lat="45.9469188" lon="11.4349219"><ele>1177.5</ele><time>2026-04-26T09:02:39.042Z</time></trkpt><trkpt lat="45.9470269" lon="11.4347915"><ele>1179.25</ele><time>2026-04-26T09:02:40.038Z</time></trkpt><trkpt lat="45.9471434" lon="11.4346912"><ele>1181.0</ele><time>2026-04-26T09:02:41.034Z</time></trkpt><trkpt lat="45.9472712" lon="11.434634"><ele>1181.0</ele><time>2026-04-26T09:02:42.034Z</time></trkpt><trkpt lat="45.9474052" lon="11.4346657"><ele>1181.0</ele><time>2026-04-26T09:02:43.033Z</time></trkpt><trkpt lat="45.9475291" lon="11.4347683"><ele>1181.0</ele><time>2026-04-26T09:02:44.032Z</time></trkpt><trkpt lat="45.9476553" lon="11.4348462"><ele>1181.0</ele><time>2026-04-26T09:02:45.049Z</time></trkpt><trkpt lat="45.947776" lon="11.4349184"><ele>1184.25</ele><time>2026-04-26T09:02:46.036Z</time></trkpt><trkpt lat="45.9478953" lon="11.4349671"><ele>1187.5</ele><time>2026-04-26T09:02:47.031Z</time></trkpt><trkpt lat="45.948012" lon="11.4349559"><ele>1190.75</ele><time>2026-04-26T09:02:48.041Z</time></trkpt><trkpt lat="45.9481254" lon="11.4349046"><ele>1194.0</ele><time>2026-04-26T09:02:49.042Z</time></trkpt><trkpt lat="45.9482352" lon="11.43483"><ele>1194.0</ele><time>2026-04-26T09:02:50.033Z</time></trkpt><trkpt lat="45.948337" lon="11.4347151"><ele>1194.0</ele><time>2026-04-26T09:02:51.035Z</time></trkpt><trkpt lat="45.9484265" lon="11.4345778"><ele>1194.0</ele><time>2026-04-26T09:02:52.029Z</time></trkpt><trkpt lat="45.9484857" lon="11.4344029"><ele>1194.0</ele><time>2026-04-26T09:02:53.028Z</time></trkpt><trkpt lat="45.9485198" lon="11.4342175"><ele>1197.0</ele><time>2026-04-26T09:02:54.03Z</time></trkpt><trkpt lat="45.948512" lon="11.4340292"><ele>1200.0</ele><time>2026-04-26T09:02:55.031Z</time></trkpt><trkpt lat="45.9485256" lon="11.4338551"><ele>1203.0</ele><time>2026-04-26T09:02:56.039Z</time></trkpt><trkpt lat="45.9485765" lon="11.4336916"><ele>1206.0</ele><time>2026-04-26T09:02:57.048Z</time></trkpt><trkpt lat="45.9486715" lon="11.4335448"><ele>1197.6666666666667</ele><time>2026-04-26T09:02:58.038Z</time></trkpt><trkpt lat="45.9487982" lon="11.4334128"><ele>1189.3333333333335</ele><time>2026-04-26T09:02:59.033Z</time></trkpt><trkpt lat="45.9489423" lon="11.433311"><ele>1181.0</ele><time>2026-04-26T09:03:00.069Z</time></trkpt><trkpt lat="45.9490964" lon="11.4332337"><ele>1181.6666666666667</ele><time>2026-04-26T09:03:01.034Z</time></trkpt><trkpt lat="45.9492469" lon="11.4331491"><ele>1182.3333333333333</ele><time>2026-04-26T09:03:02.034Z</time></trkpt><trkpt lat="45.9493921" lon="11.4330379"><ele>1183.0</ele><time>2026-04-26T09:03:03.05Z</time></trkpt><trkpt lat="45.9495316" lon="11.4329184"><ele>1183.0</ele><time>2026-04-26T09:03:04.028Z</time></trkpt><trkpt lat="45.949658" lon="11.4327829"><ele>1183.0</ele><time>2026-04-26T09:03:05.046Z</time></trkpt><trkpt lat="45.9497764" lon="11.4326473"><ele>1183.0</ele><time>2026-04-26T09:03:06.03Z</time></trkpt><trkpt lat="45.9498874" lon="11.4325105"><ele>1183.0</ele><time>2026-04-26T09:03:07.042Z</time></trkpt><trkpt lat="45.9499763" lon="11.4323448"><ele>1183.0</ele><time>2026-04-26T09:03:08.035Z</time></trkpt><trkpt lat="45.9500352" lon="11.4321607"><ele>1183.0</ele><time>2026-04-26T09:03:09.032Z</time></trkpt><trkpt lat="45.9501092" lon="11.4319999"><ele>1183.0</ele><time>2026-04-26T09:03:10.044Z</time></trkpt><trkpt lat="45.950126" lon="11.431815"><ele>1184.5</ele><time>2026-04-26T09:03:11.049Z</time></trkpt><trkpt lat="45.9501293" lon="11.4316449"><ele>1186.0</ele><time>2026-04-26T09:03:12.038Z</time></trkpt><trkpt lat="45.9501007" lon="11.4314812"><ele>1187.5</ele><time>2026-04-26T09:03:13.027Z</time></trkpt><trkpt lat="45.9500308" lon="11.4313444"><ele>1189.0</ele><time>2026-04-26T09:03:14.04Z</time></trkpt><trkpt lat="45.9499375" lon="11.4312188"><ele>1190.25</ele><time>2026-04-26T09:03:15.038Z</time></trkpt><trkpt lat="45.9498213" lon="11.4311249"><ele>1191.5</ele><time>2026-04-26T09:03:16.048Z</time></trkpt><trkpt lat="45.9497134" lon="11.4310296"><ele>1192.75</ele><time>2026-04-26T09:03:17.07Z</time></trkpt><trkpt lat="45.94961" lon="11.4309203"><ele>1194.0</ele><time>2026-04-26T09:03:18.03Z</time></trkpt><trkpt lat="45.9495069" lon="11.4308226"><ele>1194.0</ele><time>2026-04-26T09:03:19.045Z</time></trkpt><trkpt lat="45.9494323" lon="11.4306997"><ele>1194.0</ele><time>2026-04-26T09:03:20.054Z</time></trkpt><trkpt lat="45.949365" lon="11.430586"><ele>1194.0</ele><time>2026-04-26T09:03:21.037Z</time></trkpt><trkpt lat="45.9493147" lon="11.4304533"><ele>1194.0</ele><time>2026-04-26T09:03:22.051Z</time></trkpt><trkpt lat="45.9493195" lon="11.4302992"><ele>1194.0</ele><time>2026-04-26T09:03:23.04Z</time></trkpt><trkpt lat="45.9493625" lon="11.4301297"><ele>1193.0</ele><time>2026-04-26T09:03:24.039Z</time></trkpt><trkpt lat="45.9494452" lon="11.4299112"><ele>1192.0</ele><time>2026-04-26T09:03:25.04Z</time></trkpt><trkpt lat="45.9495057" lon="11.4297129"><ele>1191.0</ele><time>2026-04-26T09:03:26.034Z</time></trkpt><trkpt lat="45.9495528" lon="11.4295078"><ele>1194.3333333333333</ele><time>2026-04-26T09:03:27.042Z</time></trkpt><trkpt lat="45.9495906" lon="11.429299"><ele>1197.6666666666665</ele><time>2026-04-26T09:03:28.043Z</time></trkpt><trkpt lat="45.9496224" lon="11.4290888"><ele>1201.0</ele><time>2026-04-26T09:03:29.03Z</time></trkpt><trkpt lat="45.949662" lon="11.4288753"><ele>1200.5</ele><time>2026-04-26T09:03:30.036Z</time></trkpt><trkpt lat="45.9497009" lon="11.4286667"><ele>1200.0</ele><time>2026-04-26T09:03:31.05Z</time></trkpt><trkpt lat="45.949758" lon="11.4284703"><ele>1199.5</ele><time>2026-04-26T09:03:32.045Z</time></trkpt><trkpt lat="45.9498424" lon="11.4282897"><ele>1199.0</ele><time>2026-04-26T09:03:33.032Z</time></trkpt><trkpt lat="45.9499479" lon="11.4281256"><ele>1204.6666666666667</ele><time>2026-04-26T09:03:34.036Z</time></trkpt><trkpt lat="45.9500648" lon="11.4279789"><ele>1210.3333333333333</ele><time>2026-04-26T09:03:35.044Z</time></trkpt><trkpt lat="45.9501821" lon="11.4278314"><ele>1216.0</ele><time>2026-04-26T09:03:36.048Z</time></trkpt><trkpt lat="45.9502963" lon="11.4276844"><ele>1216.0</ele><time>2026-04-26T09:03:37.034Z</time></trkpt><trkpt lat="45.9503944" lon="11.427536"><ele>1216.0</ele><time>2026-04-26T09:03:38.048Z</time></trkpt><trkpt lat="45.9504884" lon="11.4273927"><ele>1216.0</ele><time>2026-04-26T09:03:39.055Z</time></trkpt><trkpt lat="45.9505778" lon="11.4272536"><ele>1216.0</ele><time>2026-04-26T09:03:40.038Z</time></trkpt><trkpt lat="45.9506315" lon="11.4270901"><ele>1214.25</ele><time>2026-04-26T09:03:41.04Z</time></trkpt><trkpt lat="45.9506311" lon="11.4268869"><ele>1212.5</ele><time>2026-04-26T09:03:42.034Z</time></trkpt><trkpt lat="45.9506224" lon="11.4266825"><ele>1210.75</ele><time>2026-04-26T09:03:43.035Z</time></trkpt><trkpt lat="45.9506079" lon="11.4264536"><ele>1209.0</ele><time>2026-04-26T09:03:44.031Z</time></trkpt><trkpt lat="45.95061" lon="11.4262314"><ele>1206.3333333333333</ele><time>2026-04-26T09:03:45.027Z</time></trkpt><trkpt lat="45.9506081" lon="11.4259914"><ele>1203.6666666666665</ele><time>2026-04-26T09:03:46.04Z</time></trkpt><trkpt lat="45.9506025" lon="11.4257525"><ele>1201.0</ele><time>2026-04-26T09:03:47.054Z</time></trkpt><trkpt lat="45.9505868" lon="11.4255103"><ele>1200.3333333333333</ele><time>2026-04-26T09:03:48.031Z</time></trkpt><trkpt lat="45.9505774" lon="11.4252621"><ele>1199.6666666666667</ele><time>2026-04-26T09:03:49.052Z</time></trkpt><trkpt lat="45.9505768" lon="11.4250184"><ele>1199.0</ele><time>2026-04-26T09:03:50.046Z</time></trkpt><trkpt lat="45.9505748" lon="11.4247862"><ele>1202.0</ele><time>2026-04-26T09:03:51.049Z</time></trkpt><trkpt lat="45.9505678" lon="11.4245792"><ele>1205.0</ele><time>2026-04-26T09:03:52.04Z</time></trkpt><trkpt lat="45.9505411" lon="11.4243844"><ele>1208.0</ele><time>2026-04-26T09:03:53.035Z</time></trkpt><trkpt lat="45.9504662" lon="11.4242193"><ele>1211.0</ele><time>2026-04-26T09:03:54.017Z</time></trkpt><trkpt lat="45.9503796" lon="11.4240805"><ele>1211.0</ele><time>2026-04-26T09:03:55.042Z</time></trkpt><trkpt lat="45.9502726" lon="11.4239814"><ele>1211.0</ele><time>2026-04-26T09:03:56.04Z</time></trkpt><trkpt lat="45.9501783" lon="11.4238797"><ele>1211.0</ele><time>2026-04-26T09:03:57.039Z</time></trkpt><trkpt lat="45.9500804" lon="11.4238103"><ele>1211.0</ele><time>2026-04-26T09:03:58.034Z</time></trkpt><trkpt lat="45.9500149" lon="11.4237228"><ele>1211.0</ele><time>2026-04-26T09:03:59.046Z</time></trkpt><trkpt lat="45.9499921" lon="11.4236052"><ele>1214.25</ele><time>2026-04-26T09:04:00.039Z</time></trkpt><trkpt lat="45.9500525" lon="11.4234394"><ele>1217.5</ele><time>2026-04-26T09:04:01.035Z</time></trkpt><trkpt lat="45.9501392" lon="11.4232659"><ele>1220.75</ele><time>2026-04-26T09:04:02.051Z</time></trkpt><trkpt lat="45.9502088" lon="11.4230859"><ele>1224.0</ele><time>2026-04-26T09:04:03.046Z</time></trkpt><trkpt lat="45.9502732" lon="11.4228868"><ele>1224.0</ele><time>2026-04-26T09:04:04.046Z</time></trkpt><trkpt lat="45.950348" lon="11.4226993"><ele>1224.0</ele><time>2026-04-26T09:04:05.046Z</time></trkpt><trkpt lat="45.950419" lon="11.4225255"><ele>1224.0</ele><time>2026-04-26T09:04:06.031Z</time></trkpt><trkpt lat="45.9504764" lon="11.4223576"><ele>1224.0</ele><time>2026-04-26T09:04:07.05Z</time></trkpt><trkpt lat="45.9505286" lon="11.4221917"><ele>1223.0</ele><time>2026-04-26T09:04:08.04Z</time></trkpt><trkpt lat="45.9505533" lon="11.4220139"><ele>1222.0</ele><time>2026-04-26T09:04:09.041Z</time></trkpt><trkpt lat="45.9505187" lon="11.4218241"><ele>1221.0</ele><time>2026-04-26T09:04:10.034Z</time></trkpt><trkpt lat="45.9504767" lon="11.4216336"><ele>1220.0</ele><time>2026-04-26T09:04:11.053Z</time></trkpt><trkpt lat="45.9504165" lon="11.4214476"><ele>1218.0</ele><time>2026-04-26T09:04:12.035Z</time></trkpt><trkpt lat="45.9503609" lon="11.4212727"><ele>1216.0</ele><time>2026-04-26T09:04:13.039Z</time></trkpt><trkpt lat="45.9503411" lon="11.4211035"><ele>1214.0</ele><time>2026-04-26T09:04:14.052Z</time></trkpt><trkpt lat="45.9503474" lon="11.420947"><ele>1212.0</ele><time>2026-04-26T09:04:15.039Z</time></trkpt><trkpt lat="45.950406" lon="11.4208322"><ele>1212.0</ele><time>2026-04-26T09:04:16.033Z</time></trkpt><trkpt lat="45.950504" lon="11.4207629"><ele>1212.0</ele><time>2026-04-26T09:04:17.044Z</time></trkpt><trkpt lat="45.9506193" lon="11.420734"><ele>1212.0</ele><time>2026-04-26T09:04:18.036Z</time></trkpt><trkpt lat="45.9507717" lon="11.4207612"><ele>1212.0</ele><time>2026-04-26T09:04:19.027Z</time></trkpt><trkpt lat="45.9509291" lon="11.4207643"><ele>1215.75</ele><time>2026-04-26T09:04:20.029Z</time></trkpt><trkpt lat="45.9510818" lon="11.4207636"><ele>1219.5</ele><time>2026-04-26T09:04:21.043Z</time></trkpt><trkpt lat="45.9512244" lon="11.4207578"><ele>1223.25</ele><time>2026-04-26T09:04:22.046Z</time></trkpt><trkpt lat="45.9513562" lon="11.4207355"><ele>1227.0</ele><time>2026-04-26T09:04:23.045Z</time></trkpt><trkpt lat="45.9514776" lon="11.420675"><ele>1227.0</ele><time>2026-04-26T09:04:24.032Z</time></trkpt><trkpt lat="45.9515818" lon="11.4205771"><ele>1227.0</ele><time>2026-04-26T09:04:25.038Z</time></trkpt><trkpt lat="45.9516789" lon="11.4204814"><ele>1227.0</ele><time>2026-04-26T09:04:26.028Z</time></trkpt><trkpt lat="45.9517763" lon="11.4203544"><ele>1227.0</ele><time>2026-04-26T09:04:27.041Z</time></trkpt><trkpt lat="45.9518645" lon="11.4202287"><ele>1236.75</ele><time>2026-04-26T09:04:28.046Z</time></trkpt><trkpt lat="45.9518952" lon="11.4200564"><ele>1246.5</ele><time>2026-04-26T09:04:29.042Z</time></trkpt><trkpt lat="45.9518891" lon="11.419881"><ele>1256.25</ele><time>2026-04-26T09:04:30.053Z</time></trkpt><trkpt lat="45.9518571" lon="11.4197142"><ele>1266.0</ele><time>2026-04-26T09:04:31.042Z</time></trkpt><trkpt lat="45.9517768" lon="11.4195658"><ele>1254.6666666666667</ele><time>2026-04-26T09:04:32.044Z</time></trkpt><trkpt lat="45.9516777" lon="11.4194054"><ele>1243.3333333333335</ele><time>2026-04-26T09:04:33.058Z</time></trkpt><trkpt lat="45.9515817" lon="11.4192334"><ele>1232.0</ele><time>2026-04-26T09:04:34.031Z</time></trkpt><trkpt lat="45.9514743" lon="11.4190527"><ele>1232.0</ele><time>2026-04-26T09:04:35.05Z</time></trkpt><trkpt lat="45.9513706" lon="11.4188713"><ele>1232.0</ele><time>2026-04-26T09:04:36.068Z</time></trkpt><trkpt lat="45.9512719" lon="11.4187"><ele>1232.0</ele><time>2026-04-26T09:04:37.028Z</time></trkpt><trkpt lat="45.9511893" lon="11.4185297"><ele>1232.25</ele><time>2026-04-26T09:04:38.046Z</time></trkpt><trkpt lat="45.9511213" lon="11.4183491"><ele>1232.5</ele><time>2026-04-26T09:04:39.044Z</time></trkpt><trkpt lat="45.9510801" lon="11.4181507"><ele>1232.75</ele><time>2026-04-26T09:04:40.031Z</time></trkpt><trkpt lat="45.9510526" lon="11.4179586"><ele>1233.0</ele><time>2026-04-26T09:04:41.038Z</time></trkpt><trkpt lat="45.9510159" lon="11.4177754"><ele>1233.0</ele><time>2026-04-26T09:04:42.038Z</time></trkpt><trkpt lat="45.9510314" lon="11.4175952"><ele>1233.0</ele><time>2026-04-26T09:04:43.045Z</time></trkpt><trkpt lat="45.9510603" lon="11.4174366"><ele>1233.0</ele><time>2026-04-26T09:04:44.057Z</time></trkpt><trkpt lat="45.9510994" lon="11.4173036"><ele>1233.0</ele><time>2026-04-26T09:04:45.033Z</time></trkpt><trkpt lat="45.951183" lon="11.4171681"><ele>1234.5</ele><time>2026-04-26T09:04:46.048Z</time></trkpt><trkpt lat="45.9512999" lon="11.4170238"><ele>1236.0</ele><time>2026-04-26T09:04:47.05Z</time></trkpt><trkpt lat="45.9514222" lon="11.4169"><ele>1237.5</ele><time>2026-04-26T09:04:48.051Z</time></trkpt><trkpt lat="45.9515263" lon="11.4167756"><ele>1239.0</ele><time>2026-04-26T09:04:49.048Z</time></trkpt><trkpt lat="45.9516008" lon="11.4166297"><ele>1239.0</ele><time>2026-04-26T09:04:50.034Z</time></trkpt><trkpt lat="45.9516483" lon="11.4164641"><ele>1239.0</ele><time>2026-04-26T09:04:51.035Z</time></trkpt><trkpt lat="45.9516589" lon="11.4162826"><ele>1239.0</ele><time>2026-04-26T09:04:52.039Z</time></trkpt><trkpt lat="45.9516366" lon="11.4160835"><ele>1239.0</ele><time>2026-04-26T09:04:53.035Z</time></trkpt><trkpt lat="45.9515626" lon="11.4158792"><ele>1241.0</ele><time>2026-04-26T09:04:54.038Z</time></trkpt><trkpt lat="45.9514467" lon="11.4156987"><ele>1243.0</ele><time>2026-04-26T09:04:55.036Z</time></trkpt><trkpt lat="45.951328" lon="11.4155048"><ele>1245.0</ele><time>2026-04-26T09:04:56.04Z</time></trkpt><trkpt lat="45.9511748" lon="11.4153125"><ele>1245.6666666666667</ele><time>2026-04-26T09:04:57.031Z</time></trkpt><trkpt lat="45.9510133" lon="11.4151046"><ele>1246.3333333333335</ele><time>2026-04-26T09:04:58.041Z</time></trkpt><trkpt lat="45.9508476" lon="11.4148848"><ele>1247.0</ele><time>2026-04-26T09:04:59.037Z</time></trkpt><trkpt lat="45.9506669" lon="11.4146721"><ele>1251.5</ele><time>2026-04-26T09:05:00.05Z</time></trkpt><trkpt lat="45.950479" lon="11.4144419"><ele>1256.0</ele><time>2026-04-26T09:05:01.04Z</time></trkpt><trkpt lat="45.9502848" lon="11.414198"><ele>1256.0</ele><time>2026-04-26T09:05:02.057Z</time></trkpt><trkpt lat="45.9501011" lon="11.4139325"><ele>1256.0</ele><time>2026-04-26T09:05:03.042Z</time></trkpt><trkpt lat="45.9499061" lon="11.4136916"><ele>1252.5</ele><time>2026-04-26T09:05:04.039Z</time></trkpt><trkpt lat="45.9497254" lon="11.4134487"><ele>1249.0</ele><time>2026-04-26T09:05:05.046Z</time></trkpt><trkpt lat="45.9495448" lon="11.4132214"><ele>1249.0</ele><time>2026-04-26T09:05:06.041Z</time></trkpt><trkpt lat="45.9493739" lon="11.4129909"><ele>1249.0</ele><time>2026-04-26T09:05:07.038Z</time></trkpt><trkpt lat="45.9492124" lon="11.4127587"><ele>1249.3333333333333</ele><time>2026-04-26T09:05:08.046Z</time></trkpt><trkpt lat="45.949066" lon="11.4125275"><ele>1249.6666666666667</ele><time>2026-04-26T09:05:09.044Z</time></trkpt><trkpt lat="45.9489339" lon="11.4123112"><ele>1250.0</ele><time>2026-04-26T09:05:10.051Z</time></trkpt><trkpt lat="45.9488344" lon="11.4120704"><ele>1254.6666666666667</ele><time>2026-04-26T09:05:11.032Z</time></trkpt><trkpt lat="45.9487308" lon="11.4118286"><ele>1259.3333333333333</ele><time>2026-04-26T09:05:12.039Z</time></trkpt><trkpt lat="45.9486349" lon="11.4115758"><ele>1264.0</ele><time>2026-04-26T09:05:13.029Z</time></trkpt><trkpt lat="45.9485375" lon="11.4113268"><ele>1260.0</ele><time>2026-04-26T09:05:14.039Z</time></trkpt><trkpt lat="45.9484378" lon="11.4110707"><ele>1256.0</ele><time>2026-04-26T09:05:15.041Z</time></trkpt><trkpt lat="45.9483145" lon="11.4108331"><ele>1252.0</ele><time>2026-04-26T09:05:16.034Z</time></trkpt><trkpt lat="45.9481794" lon="11.4105955"><ele>1260.0</ele><time>2026-04-26T09:05:17.036Z</time></trkpt><trkpt lat="45.9480298" lon="11.4103721"><ele>1268.0</ele><time>2026-04-26T09:05:18.036Z</time></trkpt><trkpt lat="45.9478699" lon="11.4101668"><ele>1276.0</ele><time>2026-04-26T09:05:19.034Z</time></trkpt><trkpt lat="45.9477133" lon="11.4099709"><ele>1276.0</ele><time>2026-04-26T09:05:20.037Z</time></trkpt><trkpt lat="45.9475608" lon="11.4097907"><ele>1276.0</ele><time>2026-04-26T09:05:21.034Z</time></trkpt><trkpt lat="45.9474239" lon="11.4096066"><ele>1276.0</ele><time>2026-04-26T09:05:22.033Z</time></trkpt><trkpt lat="45.9472917" lon="11.4094579"><ele>1273.3333333333333</ele><time>2026-04-26T09:05:23.039Z</time></trkpt><trkpt lat="45.9471697" lon="11.4093185"><ele>1270.6666666666667</ele><time>2026-04-26T09:05:24.027Z</time></trkpt><trkpt lat="45.9470307" lon="11.4092071"><ele>1268.0</ele><time>2026-04-26T09:05:25.038Z</time></trkpt><trkpt lat="45.9468689" lon="11.4091212"><ele>1264.3333333333335</ele><time>2026-04-26T09:05:26.039Z</time></trkpt><trkpt lat="45.9467056" lon="11.4090408"><ele>1260.6666666666667</ele><time>2026-04-26T09:05:27.04Z</time></trkpt><trkpt lat="45.9465397" lon="11.408973"><ele>1257.0</ele><time>2026-04-26T09:05:28.036Z</time></trkpt><trkpt lat="45.9463829" lon="11.4089054"><ele>1260.0</ele><time>2026-04-26T09:05:29.043Z</time></trkpt><trkpt lat="45.9462416" lon="11.4088063"><ele>1263.0</ele><time>2026-04-26T09:05:30.046Z</time></trkpt><trkpt lat="45.9461108" lon="11.4086943"><ele>1266.0</ele><time>2026-04-26T09:05:31.044Z</time></trkpt><trkpt lat="45.9460049" lon="11.4085389"><ele>1266.0</ele><time>2026-04-26T09:05:32.044Z</time></trkpt><trkpt lat="45.9459259" lon="11.4083311"><ele>1266.0</ele><time>2026-04-26T09:05:33.043Z</time></trkpt><trkpt lat="45.9458537" lon="11.40811"><ele>1266.0</ele><time>2026-04-26T09:05:34.038Z</time></trkpt><trkpt lat="45.9457816" lon="11.4078921"><ele>1265.6666666666667</ele><time>2026-04-26T09:05:35.039Z</time></trkpt><trkpt lat="45.9457254" lon="11.407664"><ele>1265.3333333333335</ele><time>2026-04-26T09:05:36.032Z</time></trkpt><trkpt lat="45.9456751" lon="11.4074294"><ele>1265.0</ele><time>2026-04-26T09:05:37.047Z</time></trkpt><trkpt lat="45.9456164" lon="11.4071947"><ele>1266.0</ele><time>2026-04-26T09:05:38.049Z</time></trkpt><trkpt lat="45.9455677" lon="11.4069502"><ele>1267.0</ele><time>2026-04-26T09:05:39.042Z</time></trkpt><trkpt lat="45.945529" lon="11.4067004"><ele>1268.0</ele><time>2026-04-26T09:05:40.048Z</time></trkpt><trkpt lat="45.9454881" lon="11.406445"><ele>1271.0</ele><time>2026-04-26T09:05:41.041Z</time></trkpt><trkpt lat="45.9454491" lon="11.4061868"><ele>1274.0</ele><time>2026-04-26T09:05:42.046Z</time></trkpt><trkpt lat="45.9454036" lon="11.4059344"><ele>1277.0</ele><time>2026-04-26T09:05:43.042Z</time></trkpt><trkpt lat="45.9453501" lon="11.4056862"><ele>1285.0</ele><time>2026-04-26T09:05:44.057Z</time></trkpt><trkpt lat="45.9452727" lon="11.4054463"><ele>1293.0</ele><time>2026-04-26T09:05:45.046Z</time></trkpt><trkpt lat="45.9451807" lon="11.4052144"><ele>1301.0</ele><time>2026-04-26T09:05:46.04Z</time></trkpt><trkpt lat="45.9450863" lon="11.4049816"><ele>1293.3333333333335</ele><time>2026-04-26T09:05:47.043Z</time></trkpt><trkpt lat="45.9449781" lon="11.4047483"><ele>1285.6666666666667</ele><time>2026-04-26T09:05:48.044Z</time></trkpt><trkpt lat="45.9448546" lon="11.4045281"><ele>1278.0</ele><time>2026-04-26T09:05:49.043Z</time></trkpt><trkpt lat="45.9447265" lon="11.404322"><ele>1278.0</ele><time>2026-04-26T09:05:50.059Z</time></trkpt><trkpt lat="45.9446098" lon="11.4041175"><ele>1278.0</ele><time>2026-04-26T09:05:51.036Z</time></trkpt><trkpt lat="45.9444934" lon="11.4039228"><ele>1278.0</ele><time>2026-04-26T09:05:52.05Z</time></trkpt><trkpt lat="45.9444063" lon="11.4036985"><ele>1284.3333333333333</ele><time>2026-04-26T09:05:53.04Z</time></trkpt><trkpt lat="45.944321" lon="11.4034728"><ele>1290.6666666666665</ele><time>2026-04-26T09:05:54.043Z</time></trkpt><trkpt lat="45.9442676" lon="11.4032303"><ele>1297.0</ele><time>2026-04-26T09:05:55.034Z</time></trkpt><trkpt lat="45.9442203" lon="11.4029954"><ele>1291.0</ele><time>2026-04-26T09:05:56.041Z</time></trkpt><trkpt lat="45.944193" lon="11.4027661"><ele>1285.0</ele><time>2026-04-26T09:05:57.046Z</time></trkpt><trkpt lat="45.9441758" lon="11.4025432"><ele>1279.0</ele><time>2026-04-26T09:05:58.038Z</time></trkpt><trkpt lat="45.9441801" lon="11.4023116"><ele>1289.6666666666665</ele><time>2026-04-26T09:05:59.036Z</time></trkpt><trkpt lat="45.944215" lon="11.4020724"><ele>1300.3333333333333</ele><time>2026-04-26T09:06:00.05Z</time></trkpt><trkpt lat="45.9442995" lon="11.4018388"><ele>1311.0</ele><time>2026-04-26T09:06:01.036Z</time></trkpt><trkpt lat="45.9443674" lon="11.4015877"><ele>1306.3333333333333</ele><time>2026-04-26T09:06:02.038Z</time></trkpt><trkpt lat="45.9444255" lon="11.4013312"><ele>1301.6666666666665</ele><time>2026-04-26T09:06:03.031Z</time></trkpt><trkpt lat="45.944504" lon="11.4011007"><ele>1297.0</ele><time>2026-04-26T09:06:04.034Z</time></trkpt><trkpt lat="45.9445637" lon="11.4008708"><ele>1297.0</ele><time>2026-04-26T09:06:05.043Z</time></trkpt><trkpt lat="45.9446135" lon="11.4006334"><ele>1297.0</ele><time>2026-04-26T09:06:06.041Z</time></trkpt><trkpt lat="45.9446842" lon="11.4004057"><ele>1297.0</ele><time>2026-04-26T09:06:07.04Z</time></trkpt><trkpt lat="45.9447621" lon="11.4001797"><ele>1291.6666666666665</ele><time>2026-04-26T09:06:08.045Z</time></trkpt><trkpt lat="45.944843" lon="11.3999541"><ele>1286.3333333333333</ele><time>2026-04-26T09:06:09.035Z</time></trkpt><trkpt lat="45.9449272" lon="11.3997334"><ele>1281.0</ele><time>2026-04-26T09:06:10.034Z</time></trkpt><trkpt lat="45.9450122" lon="11.3995188"><ele>1286.3333333333333</ele><time>2026-04-26T09:06:11.029Z</time></trkpt><trkpt lat="45.9450963" lon="11.3993104"><ele>1291.6666666666665</ele><time>2026-04-26T09:06:12.05Z</time></trkpt><trkpt lat="45.9451861" lon="11.3991117"><ele>1297.0</ele><time>2026-04-26T09:06:13.047Z</time></trkpt><trkpt lat="45.9452889" lon="11.3989343"><ele>1290.0</ele><time>2026-04-26T09:06:14.041Z</time></trkpt><trkpt lat="45.9454216" lon="11.3988055"><ele>1283.0</ele><time>2026-04-26T09:06:15.039Z</time></trkpt><trkpt lat="45.945582" lon="11.3987069"><ele>1276.0</ele><time>2026-04-26T09:06:16.025Z</time></trkpt><trkpt lat="45.9457154" lon="11.3985632"><ele>1276.0</ele><time>2026-04-26T09:06:17.041Z</time></trkpt><trkpt lat="45.9458486" lon="11.3984241"><ele>1276.0</ele><time>2026-04-26T09:06:18.05Z</time></trkpt><trkpt lat="45.945984" lon="11.3982872"><ele>1276.0</ele><time>2026-04-26T09:06:19.033Z</time></trkpt><trkpt lat="45.9461358" lon="11.3981738"><ele>1277.0</ele><time>2026-04-26T09:06:20.044Z</time></trkpt><trkpt lat="45.9462785" lon="11.3980369"><ele>1278.0</ele><time>2026-04-26T09:06:21.035Z</time></trkpt><trkpt lat="45.9464473" lon="11.397954"><ele>1279.0</ele><time>2026-04-26T09:06:22.05Z</time></trkpt><trkpt lat="45.9466048" lon="11.3978329"><ele>1286.0</ele><time>2026-04-26T09:06:23.039Z</time></trkpt><trkpt lat="45.9467761" lon="11.3977434"><ele>1293.0</ele><time>2026-04-26T09:06:24.032Z</time></trkpt><trkpt lat="45.9469431" lon="11.3976374"><ele>1300.0</ele><time>2026-04-26T09:06:25.034Z</time></trkpt><trkpt lat="45.9471066" lon="11.3975178"><ele>1300.0</ele><time>2026-04-26T09:06:26.034Z</time></trkpt><trkpt lat="45.9472637" lon="11.3973894"><ele>1300.0</ele><time>2026-04-26T09:06:27.041Z</time></trkpt><trkpt lat="45.9474004" lon="11.3972136"><ele>1300.0</ele><time>2026-04-26T09:06:28.032Z</time></trkpt><trkpt lat="45.9475252" lon="11.3970043"><ele>1302.3333333333333</ele><time>2026-04-26T09:06:29.041Z</time></trkpt><trkpt lat="45.9476472" lon="11.3968108"><ele>1304.6666666666667</ele><time>2026-04-26T09:06:30.038Z</time></trkpt><trkpt lat="45.9477706" lon="11.3966209"><ele>1307.0</ele><time>2026-04-26T09:06:31.038Z</time></trkpt><trkpt lat="45.9478833" lon="11.3964166"><ele>1303.0</ele><time>2026-04-26T09:06:32.053Z</time></trkpt><trkpt lat="45.94798" lon="11.3961993"><ele>1299.0</ele><time>2026-04-26T09:06:33.032Z</time></trkpt><trkpt lat="45.9480536" lon="11.3959593"><ele>1295.0</ele><time>2026-04-26T09:06:34.031Z</time></trkpt><trkpt lat="45.9481347" lon="11.3957258"><ele>1295.0</ele><time>2026-04-26T09:06:35.038Z</time></trkpt><trkpt lat="45.9482249" lon="11.3954997"><ele>1295.0</ele><time>2026-04-26T09:06:36.044Z</time></trkpt><trkpt lat="45.9483373" lon="11.3952941"><ele>1295.0</ele><time>2026-04-26T09:06:37.054Z</time></trkpt><trkpt lat="45.9484798" lon="11.3951063"><ele>1293.6666666666667</ele><time>2026-04-26T09:06:38.069Z</time></trkpt><trkpt lat="45.9486284" lon="11.394937"><ele>1292.3333333333333</ele><time>2026-04-26T09:06:39.047Z</time></trkpt><trkpt lat="45.9487707" lon="11.3947816"><ele>1291.0</ele><time>2026-04-26T09:06:40.057Z</time></trkpt><trkpt lat="45.9489313" lon="11.3946487"><ele>1291.0</ele><time>2026-04-26T09:06:41.047Z</time></trkpt><trkpt lat="45.9490896" lon="11.3945067"><ele>1291.0</ele><time>2026-04-26T09:06:42.042Z</time></trkpt><trkpt lat="45.9492624" lon="11.39442"><ele>1291.0</ele><time>2026-04-26T09:06:43.047Z</time></trkpt><trkpt lat="45.9494202" lon="11.3943373"><ele>1292.5</ele><time>2026-04-26T09:06:44.034Z</time></trkpt><trkpt lat="45.949563" lon="11.3942345"><ele>1294.0</ele><time>2026-04-26T09:06:45.049Z</time></trkpt><trkpt lat="45.9496941" lon="11.3941339"><ele>1295.5</ele><time>2026-04-26T09:06:46.047Z</time></trkpt><trkpt lat="45.9498199" lon="11.394059"><ele>1297.0</ele><time>2026-04-26T09:06:47.114Z</time></trkpt><trkpt lat="45.9499516" lon="11.3940357"><ele>1300.25</ele><time>2026-04-26T09:06:48.039Z</time></trkpt><trkpt lat="45.9500718" lon="11.3939881"><ele>1303.5</ele><time>2026-04-26T09:06:49.041Z</time></trkpt><trkpt lat="45.9501772" lon="11.3939268"><ele>1306.75</ele><time>2026-04-26T09:06:50.045Z</time></trkpt><trkpt lat="45.9502727" lon="11.3938402"><ele>1310.0</ele><time>2026-04-26T09:06:51.033Z</time></trkpt><trkpt lat="45.9503302" lon="11.3936674"><ele>1310.0</ele><time>2026-04-26T09:06:52.037Z</time></trkpt><trkpt lat="45.950339" lon="11.3934475"><ele>1310.0</ele><time>2026-04-26T09:06:53.029Z</time></trkpt><trkpt lat="45.9503289" lon="11.3932077"><ele>1310.0</ele><time>2026-04-26T09:06:54.035Z</time></trkpt><trkpt lat="45.9503205" lon="11.3929707"><ele>1310.3333333333335</ele><time>2026-04-26T09:06:55.037Z</time></trkpt><trkpt lat="45.9503359" lon="11.3927307"><ele>1310.6666666666667</ele><time>2026-04-26T09:06:56.048Z</time></trkpt><trkpt lat="45.9503409" lon="11.392509"><ele>1311.0</ele><time>2026-04-26T09:06:57.032Z</time></trkpt><trkpt lat="45.9503602" lon="11.392285"><ele>1308.3333333333333</ele><time>2026-04-26T09:06:58.039Z</time></trkpt><trkpt lat="45.9504192" lon="11.3920756"><ele>1305.6666666666665</ele><time>2026-04-26T09:06:59.039Z</time></trkpt><trkpt lat="45.9504944" lon="11.3918814"><ele>1303.0</ele><time>2026-04-26T09:07:00.039Z</time></trkpt><trkpt lat="45.9506161" lon="11.3917327"><ele>1303.0</ele><time>2026-04-26T09:07:01.032Z</time></trkpt><trkpt lat="45.9507308" lon="11.3915695"><ele>1303.0</ele><time>2026-04-26T09:07:02.027Z</time></trkpt><trkpt lat="45.9508731" lon="11.3914176"><ele>1303.0</ele><time>2026-04-26T09:07:03.044Z</time></trkpt><trkpt lat="45.9509926" lon="11.3912384"><ele>1307.6666666666665</ele><time>2026-04-26T09:07:04.029Z</time></trkpt><trkpt lat="45.9511228" lon="11.3910748"><ele>1312.3333333333333</ele><time>2026-04-26T09:07:05.038Z</time></trkpt><trkpt lat="45.9512271" lon="11.3908791"><ele>1317.0</ele><time>2026-04-26T09:07:06.04Z</time></trkpt><trkpt lat="45.9513286" lon="11.390696"><ele>1313.25</ele><time>2026-04-26T09:07:07.035Z</time></trkpt><trkpt lat="45.9514114" lon="11.390505"><ele>1309.5</ele><time>2026-04-26T09:07:08.04Z</time></trkpt><trkpt lat="45.9514976" lon="11.3903313"><ele>1305.75</ele><time>2026-04-26T09:07:09.039Z</time></trkpt><trkpt lat="45.9515608" lon="11.3901469"><ele>1302.0</ele><time>2026-04-26T09:07:10.046Z</time></trkpt><trkpt lat="45.951614" lon="11.3899542"><ele>1302.0</ele><time>2026-04-26T09:07:11.029Z</time></trkpt><trkpt lat="45.9516107" lon="11.3897237"><ele>1302.0</ele><time>2026-04-26T09:07:12.057Z</time></trkpt><trkpt lat="45.9516083" lon="11.3894851"><ele>1302.0</ele><time>2026-04-26T09:07:13.054Z</time></trkpt><trkpt lat="45.9516188" lon="11.3892469"><ele>1301.0</ele><time>2026-04-26T09:07:14.034Z</time></trkpt><trkpt lat="45.9516171" lon="11.3890028"><ele>1300.0</ele><time>2026-04-26T09:07:15.032Z</time></trkpt><trkpt lat="45.951631" lon="11.3887658"><ele>1299.0</ele><time>2026-04-26T09:07:16.032Z</time></trkpt><trkpt lat="45.9516795" lon="11.3885484"><ele>1305.5</ele><time>2026-04-26T09:07:17.037Z</time></trkpt><trkpt lat="45.9517151" lon="11.3883416"><ele>1312.0</ele><time>2026-04-26T09:07:18.027Z</time></trkpt><trkpt lat="45.9517578" lon="11.3881463"><ele>1318.5</ele><time>2026-04-26T09:07:19.032Z</time></trkpt><trkpt lat="45.9517864" lon="11.3879495"><ele>1325.0</ele><time>2026-04-26T09:07:20.035Z</time></trkpt><trkpt lat="45.9518197" lon="11.3877658"><ele>1327.6666666666667</ele><time>2026-04-26T09:07:21.035Z</time></trkpt><trkpt lat="45.9518419" lon="11.3875619"><ele>1330.3333333333333</ele><time>2026-04-26T09:07:22.044Z</time></trkpt><trkpt lat="45.951842" lon="11.3873228"><ele>1333.0</ele><time>2026-04-26T09:07:23.038Z</time></trkpt><trkpt lat="45.9518275" lon="11.3870546"><ele>1337.6666666666665</ele><time>2026-04-26T09:07:24.05Z</time></trkpt><trkpt lat="45.9518171" lon="11.3867845"><ele>1342.3333333333333</ele><time>2026-04-26T09:07:25.037Z</time></trkpt><trkpt lat="45.9517882" lon="11.3865231"><ele>1347.0</ele><time>2026-04-26T09:07:26.04Z</time></trkpt><trkpt lat="45.951755" lon="11.3862863"><ele>1350.6666666666667</ele><time>2026-04-26T09:07:27.03Z</time></trkpt><trkpt lat="45.951711" lon="11.3860626"><ele>1354.3333333333335</ele><time>2026-04-26T09:07:28.034Z</time></trkpt><trkpt lat="45.9516362" lon="11.3858452"><ele>1358.0</ele><time>2026-04-26T09:07:29.036Z</time></trkpt><trkpt lat="45.951534" lon="11.3856429"><ele>1346.6666666666667</ele><time>2026-04-26T09:07:30.078Z</time></trkpt><trkpt lat="45.9514557" lon="11.3854121"><ele>1335.3333333333333</ele><time>2026-04-26T09:07:31.05Z</time></trkpt><trkpt lat="45.9513652" lon="11.3851831"><ele>1324.0</ele><time>2026-04-26T09:07:32.037Z</time></trkpt><trkpt lat="45.9512779" lon="11.3849583"><ele>1324.0</ele><time>2026-04-26T09:07:33.03Z</time></trkpt><trkpt lat="45.9512009" lon="11.3847452"><ele>1324.0</ele><time>2026-04-26T09:07:34.037Z</time></trkpt><trkpt lat="45.9511076" lon="11.3845644"><ele>1324.0</ele><time>2026-04-26T09:07:35.028Z</time></trkpt><trkpt lat="45.9510492" lon="11.3843811"><ele>1323.5</ele><time>2026-04-26T09:07:36.046Z</time></trkpt><trkpt lat="45.9510344" lon="11.3841893"><ele>1323.0</ele><time>2026-04-26T09:07:37.042Z</time></trkpt><trkpt lat="45.9510359" lon="11.3839901"><ele>1322.5</ele><time>2026-04-26T09:07:38.032Z</time></trkpt><trkpt lat="45.9510908" lon="11.3838055"><ele>1322.0</ele><time>2026-04-26T09:07:39.041Z</time></trkpt><trkpt lat="45.9511308" lon="11.3836023"><ele>1322.0</ele><time>2026-04-26T09:07:40.038Z</time></trkpt><trkpt lat="45.9510978" lon="11.383385"><ele>1322.0</ele><time>2026-04-26T09:07:41.038Z</time></trkpt><trkpt lat="45.9510536" lon="11.383177"><ele>1322.0</ele><time>2026-04-26T09:07:42.031Z</time></trkpt><trkpt lat="45.9509998" lon="11.3829821"><ele>1322.0</ele><time>2026-04-26T09:07:43.038Z</time></trkpt><trkpt lat="45.950979" lon="11.3827832"><ele>1322.0</ele><time>2026-04-26T09:07:44.041Z</time></trkpt><trkpt lat="45.9509533" lon="11.3826004"><ele>1322.0</ele><time>2026-04-26T09:07:45.031Z</time></trkpt><trkpt lat="45.9509266" lon="11.3824381"><ele>1322.0</ele><time>2026-04-26T09:07:46.05Z</time></trkpt><trkpt lat="45.9509245" lon="11.3822822"><ele>1324.25</ele><time>2026-04-26T09:07:47.034Z</time></trkpt><trkpt lat="45.9509667" lon="11.3821287"><ele>1326.5</ele><time>2026-04-26T09:07:48.029Z</time></trkpt><trkpt lat="45.9510487" lon="11.3819818"><ele>1328.75</ele><time>2026-04-26T09:07:49.035Z</time></trkpt><trkpt lat="45.9511135" lon="11.381815"><ele>1331.0</ele><time>2026-04-26T09:07:50.028Z</time></trkpt><trkpt lat="45.9511485" lon="11.3816164"><ele>1331.0</ele><time>2026-04-26T09:07:51.048Z</time></trkpt><trkpt lat="45.951149" lon="11.3814062"><ele>1331.0</ele><time>2026-04-26T09:07:52.038Z</time></trkpt><trkpt lat="45.9511337" lon="11.3811944"><ele>1331.0</ele><time>2026-04-26T09:07:53.045Z</time></trkpt><trkpt lat="45.9511033" lon="11.3809784"><ele>1331.0</ele><time>2026-04-26T09:07:54.038Z</time></trkpt><trkpt lat="45.9510594" lon="11.3807715"><ele>1328.3333333333335</ele><time>2026-04-26T09:07:55.054Z</time></trkpt><trkpt lat="45.9509856" lon="11.3805899"><ele>1325.6666666666667</ele><time>2026-04-26T09:07:56.032Z</time></trkpt><trkpt lat="45.9508859" lon="11.3804186"><ele>1323.0</ele><time>2026-04-26T09:07:57.029Z</time></trkpt><trkpt lat="45.9507643" lon="11.3802703"><ele>1323.0</ele><time>2026-04-26T09:07:58.116Z</time></trkpt><trkpt lat="45.9506409" lon="11.3801338"><ele>1323.0</ele><time>2026-04-26T09:07:59.029Z</time></trkpt><trkpt lat="45.9505311" lon="11.3800005"><ele>1323.0</ele><time>2026-04-26T09:08:00.035Z</time></trkpt><trkpt lat="45.9504513" lon="11.3798463"><ele>1323.0</ele><time>2026-04-26T09:08:01.038Z</time></trkpt><trkpt lat="45.9503997" lon="11.3796728"><ele>1328.0</ele><time>2026-04-26T09:08:02.04Z</time></trkpt><trkpt lat="45.9503999" lon="11.3794586"><ele>1333.0</ele><time>2026-04-26T09:08:03.047Z</time></trkpt><trkpt lat="45.9504111" lon="11.3792334"><ele>1338.0</ele><time>2026-04-26T09:08:04.041Z</time></trkpt><trkpt lat="45.950406" lon="11.3790216"><ele>1340.0</ele><time>2026-04-26T09:08:05.041Z</time></trkpt><trkpt lat="45.9503791" lon="11.3788152"><ele>1342.0</ele><time>2026-04-26T09:08:06.037Z</time></trkpt><trkpt lat="45.9503626" lon="11.3786045"><ele>1344.0</ele><time>2026-04-26T09:08:07.037Z</time></trkpt><trkpt lat="45.9503502" lon="11.3783894"><ele>1346.0</ele><time>2026-04-26T09:08:08.038Z</time></trkpt><trkpt lat="45.9503401" lon="11.3781784"><ele>1345.0</ele><time>2026-04-26T09:08:09.053Z</time></trkpt><trkpt lat="45.9503501" lon="11.3779552"><ele>1344.0</ele><time>2026-04-26T09:08:10.054Z</time></trkpt><trkpt lat="45.9503481" lon="11.3777328"><ele>1343.0</ele><time>2026-04-26T09:08:11.04Z</time></trkpt><trkpt lat="45.9503385" lon="11.3775072"><ele>1343.0</ele><time>2026-04-26T09:08:12.03Z</time></trkpt><trkpt lat="45.9503169" lon="11.3772799"><ele>1343.0</ele><time>2026-04-26T09:08:13.037Z</time></trkpt><trkpt lat="45.9502977" lon="11.3770521"><ele>1343.0</ele><time>2026-04-26T09:08:14.032Z</time></trkpt><trkpt lat="45.9502946" lon="11.376822"><ele>1342.3333333333335</ele><time>2026-04-26T09:08:15.035Z</time></trkpt><trkpt lat="45.9502819" lon="11.3765849"><ele>1341.6666666666667</ele><time>2026-04-26T09:08:16.034Z</time></trkpt><trkpt lat="45.9502713" lon="11.3763437"><ele>1341.0</ele><time>2026-04-26T09:08:17.023Z</time></trkpt><trkpt lat="45.9502426" lon="11.3761028"><ele>1342.6666666666667</ele><time>2026-04-26T09:08:18.036Z</time></trkpt><trkpt lat="45.9502421" lon="11.3758654"><ele>1344.3333333333335</ele><time>2026-04-26T09:08:19.039Z</time></trkpt><trkpt lat="45.9502495" lon="11.375621"><ele>1346.0</ele><time>2026-04-26T09:08:20.04Z</time></trkpt><trkpt lat="45.9502503" lon="11.3753676"><ele>1346.0</ele><time>2026-04-26T09:08:21.018Z</time></trkpt><trkpt lat="45.9502442" lon="11.3751119"><ele>1346.0</ele><time>2026-04-26T09:08:22.048Z</time></trkpt><trkpt lat="45.9502231" lon="11.3748527"><ele>1346.0</ele><time>2026-04-26T09:08:23.023Z</time></trkpt><trkpt lat="45.9502105" lon="11.3745894"><ele>1345.3333333333335</ele><time>2026-04-26T09:08:24.028Z</time></trkpt><trkpt lat="45.950188" lon="11.3743312"><ele>1344.6666666666667</ele><time>2026-04-26T09:08:25.029Z</time></trkpt><trkpt lat="45.9501591" lon="11.3740723"><ele>1344.0</ele><time>2026-04-26T09:08:26.03Z</time></trkpt><trkpt lat="45.9501438" lon="11.3738074"><ele>1346.3333333333333</ele><time>2026-04-26T09:08:27.022Z</time></trkpt><trkpt lat="45.9501249" lon="11.3735446"><ele>1348.6666666666665</ele><time>2026-04-26T09:08:28.039Z</time></trkpt><trkpt lat="45.9500991" lon="11.3732859"><ele>1351.0</ele><time>2026-04-26T09:08:29.034Z</time></trkpt><trkpt lat="45.9500756" lon="11.373029"><ele>1351.3333333333333</ele><time>2026-04-26T09:08:30.027Z</time></trkpt><trkpt lat="45.9500652" lon="11.3727706"><ele>1351.6666666666667</ele><time>2026-04-26T09:08:31.033Z</time></trkpt><trkpt lat="45.9500482" lon="11.3725177"><ele>1352.0</ele><time>2026-04-26T09:08:32.034Z</time></trkpt><trkpt lat="45.9500229" lon="11.3722716"><ele>1344.0</ele><time>2026-04-26T09:08:33.044Z</time></trkpt><trkpt lat="45.9499976" lon="11.3720304"><ele>1336.0</ele><time>2026-04-26T09:08:34.028Z</time></trkpt><trkpt lat="45.9499763" lon="11.3717926"><ele>1328.0</ele><time>2026-04-26T09:08:35.037Z</time></trkpt><trkpt lat="45.9499555" lon="11.3715576"><ele>1331.0</ele><time>2026-04-26T09:08:36.041Z</time></trkpt><trkpt lat="45.9499352" lon="11.3713248"><ele>1334.0</ele><time>2026-04-26T09:08:37.042Z</time></trkpt><trkpt lat="45.9499211" lon="11.3710936"><ele>1337.0</ele><time>2026-04-26T09:08:38.043Z</time></trkpt><trkpt lat="45.9499067" lon="11.3708608"><ele>1337.0</ele><time>2026-04-26T09:08:39.047Z</time></trkpt><trkpt lat="45.9499037" lon="11.3706247"><ele>1337.0</ele><time>2026-04-26T09:08:40.03Z</time></trkpt><trkpt lat="45.9499186" lon="11.3703854"><ele>1337.0</ele><time>2026-04-26T09:08:41.041Z</time></trkpt><trkpt lat="45.9499431" lon="11.3701439"><ele>1338.3333333333335</ele><time>2026-04-26T09:08:42.033Z</time></trkpt><trkpt lat="45.9499795" lon="11.3699024"><ele>1339.6666666666667</ele><time>2026-04-26T09:08:43.052Z</time></trkpt><trkpt lat="45.950004" lon="11.3696559"><ele>1341.0</ele><time>2026-04-26T09:08:44.058Z</time></trkpt><trkpt lat="45.9500216" lon="11.3694065"><ele>1341.0</ele><time>2026-04-26T09:08:45.063Z</time></trkpt><trkpt lat="45.9500357" lon="11.3691559"><ele>1341.0</ele><time>2026-04-26T09:08:46.075Z</time></trkpt><trkpt lat="45.9500439" lon="11.3688974"><ele>1341.0</ele><time>2026-04-26T09:08:47.053Z</time></trkpt><trkpt lat="45.9500464" lon="11.3686248"><ele>1355.6666666666667</ele><time>2026-04-26T09:08:48.056Z</time></trkpt><trkpt lat="45.950051" lon="11.3683492"><ele>1370.3333333333335</ele><time>2026-04-26T09:08:49.054Z</time></trkpt><trkpt lat="45.950056" lon="11.3680736"><ele>1385.0</ele><time>2026-04-26T09:08:50.058Z</time></trkpt><trkpt lat="45.9500629" lon="11.3677987"><ele>1385.0</ele><time>2026-04-26T09:08:51.055Z</time></trkpt><trkpt lat="45.9500702" lon="11.367531"><ele>1385.0</ele><time>2026-04-26T09:08:52.047Z</time></trkpt><trkpt lat="45.9500768" lon="11.3672713"><ele>1385.0</ele><time>2026-04-26T09:08:53.053Z</time></trkpt><trkpt lat="45.950076" lon="11.3670185"><ele>1383.0</ele><time>2026-04-26T09:08:54.059Z</time></trkpt><trkpt lat="45.9500828" lon="11.3667717"><ele>1381.0</ele><time>2026-04-26T09:08:55.07Z</time></trkpt><trkpt lat="45.950098" lon="11.3665288"><ele>1379.0</ele><time>2026-04-26T09:08:56.05Z</time></trkpt><trkpt lat="45.9501184" lon="11.3662886"><ele>1377.6666666666667</ele><time>2026-04-26T09:08:57.055Z</time></trkpt><trkpt lat="45.9501553" lon="11.3660463"><ele>1376.3333333333333</ele><time>2026-04-26T09:08:58.05Z</time></trkpt><trkpt lat="45.9501946" lon="11.3657987"><ele>1375.0</ele><time>2026-04-26T09:08:59.05Z</time></trkpt><trkpt lat="45.9502386" lon="11.3655461"><ele>1374.3333333333333</ele><time>2026-04-26T09:09:00.065Z</time></trkpt><trkpt lat="45.9502923" lon="11.3652905"><ele>1373.6666666666667</ele><time>2026-04-26T09:09:01.04Z</time></trkpt><trkpt lat="45.9503555" lon="11.3650418"><ele>1373.0</ele><time>2026-04-26T09:09:02.055Z</time></trkpt><trkpt lat="45.9504224" lon="11.3648005"><ele>1370.3333333333335</ele><time>2026-04-26T09:09:03.053Z</time></trkpt><trkpt lat="45.9504896" lon="11.3645597"><ele>1367.6666666666667</ele><time>2026-04-26T09:09:04.075Z</time></trkpt><trkpt lat="45.950555" lon="11.364316"><ele>1365.0</ele><time>2026-04-26T09:09:05.062Z</time></trkpt><trkpt lat="45.9506261" lon="11.3640689"><ele>1362.3333333333333</ele><time>2026-04-26T09:09:06.065Z</time></trkpt><trkpt lat="45.9506971" lon="11.3638088"><ele>1359.6666666666665</ele><time>2026-04-26T09:09:07.056Z</time></trkpt><trkpt lat="45.9507672" lon="11.3635339"><ele>1357.0</ele><time>2026-04-26T09:09:08.038Z</time></trkpt><trkpt lat="45.950839" lon="11.3632451"><ele>1369.5</ele><time>2026-04-26T09:09:09.03Z</time></trkpt><trkpt lat="45.9509009" lon="11.3629394"><ele>1382.0</ele><time>2026-04-26T09:09:10.035Z</time></trkpt><trkpt lat="45.9509501" lon="11.3626176"><ele>1382.0</ele><time>2026-04-26T09:09:11.053Z</time></trkpt><trkpt lat="45.9509993" lon="11.3622953"><ele>1382.0</ele><time>2026-04-26T09:09:12.037Z</time></trkpt><trkpt lat="45.9510564" lon="11.3619718"><ele>1381.3333333333335</ele><time>2026-04-26T09:09:13.043Z</time></trkpt><trkpt lat="45.9511126" lon="11.3616575"><ele>1380.6666666666667</ele><time>2026-04-26T09:09:14.045Z</time></trkpt><trkpt lat="45.9511651" lon="11.3613488"><ele>1380.0</ele><time>2026-04-26T09:09:15.047Z</time></trkpt><trkpt lat="45.9512183" lon="11.3610449"><ele>1380.0</ele><time>2026-04-26T09:09:16.061Z</time></trkpt><trkpt lat="45.9512725" lon="11.3607469"><ele>1380.0</ele><time>2026-04-26T09:09:17.057Z</time></trkpt><trkpt lat="45.9513227" lon="11.3604541"><ele>1380.0</ele><time>2026-04-26T09:09:18.045Z</time></trkpt><trkpt lat="45.9513742" lon="11.3601755"><ele>1378.6666666666667</ele><time>2026-04-26T09:09:19.036Z</time></trkpt><trkpt lat="45.9514153" lon="11.3599129"><ele>1377.3333333333335</ele><time>2026-04-26T09:09:20.062Z</time></trkpt><trkpt lat="45.9514558" lon="11.359665"><ele>1376.0</ele><time>2026-04-26T09:09:21.06Z</time></trkpt><trkpt lat="45.9515157" lon="11.3594404"><ele>1376.0</ele><time>2026-04-26T09:09:22.048Z</time></trkpt><trkpt lat="45.9515539" lon="11.35922"><ele>1376.0</ele><time>2026-04-26T09:09:23.093Z</time></trkpt><trkpt lat="45.9515672" lon="11.3590026"><ele>1376.0</ele><time>2026-04-26T09:09:24.056Z</time></trkpt><trkpt lat="45.9515593" lon="11.358785"><ele>1375.3333333333335</ele><time>2026-04-26T09:09:25.07Z</time></trkpt><trkpt lat="45.9515112" lon="11.3585708"><ele>1374.6666666666667</ele><time>2026-04-26T09:09:26.063Z</time></trkpt><trkpt lat="45.9514477" lon="11.3583652"><ele>1374.0</ele><time>2026-04-26T09:09:27.063Z</time></trkpt><trkpt lat="45.9513778" lon="11.3581745"><ele>1374.5</ele><time>2026-04-26T09:09:28.052Z</time></trkpt><trkpt lat="45.9513155" lon="11.3579915"><ele>1375.0</ele><time>2026-04-26T09:09:29.062Z</time></trkpt><trkpt lat="45.9512733" lon="11.3578221"><ele>1375.5</ele><time>2026-04-26T09:09:30.053Z</time></trkpt><trkpt lat="45.9512368" lon="11.3576661"><ele>1376.0</ele><time>2026-04-26T09:09:31.043Z</time></trkpt><trkpt lat="45.951256" lon="11.3575081"><ele>1376.0</ele><time>2026-04-26T09:09:32.063Z</time></trkpt><trkpt lat="45.9512982" lon="11.35735"><ele>1376.0</ele><time>2026-04-26T09:09:33.054Z</time></trkpt><trkpt lat="45.9513407" lon="11.3571965"><ele>1376.0</ele><time>2026-04-26T09:09:34.052Z</time></trkpt><trkpt lat="45.9514297" lon="11.3570664"><ele>1376.0</ele><time>2026-04-26T09:09:35.051Z</time></trkpt><trkpt lat="45.9514828" lon="11.3569342"><ele>1376.4</ele><time>2026-04-26T09:09:36.05Z</time></trkpt><trkpt lat="45.9515159" lon="11.3567975"><ele>1376.8</ele><time>2026-04-26T09:09:37.053Z</time></trkpt><trkpt lat="45.9515581" lon="11.3566566"><ele>1377.2</ele><time>2026-04-26T09:09:38.047Z</time></trkpt><trkpt lat="45.9515469" lon="11.3565154"><ele>1377.6000000000001</ele><time>2026-04-26T09:09:39.064Z</time></trkpt><trkpt lat="45.9515153" lon="11.3563906"><ele>1378.0</ele><time>2026-04-26T09:09:40.06Z</time></trkpt><trkpt lat="45.9514624" lon="11.3562715"><ele>1379.0</ele><time>2026-04-26T09:09:41.066Z</time></trkpt><trkpt lat="45.951378" lon="11.3561707"><ele>1380.0</ele><time>2026-04-26T09:09:42.053Z</time></trkpt><trkpt lat="45.9512861" lon="11.3560723"><ele>1381.0</ele><time>2026-04-26T09:09:43.061Z</time></trkpt><trkpt lat="45.9511896" lon="11.3559896"><ele>1382.0</ele><time>2026-04-26T09:09:44.046Z</time></trkpt><trkpt lat="45.9510947" lon="11.3559174"><ele>1383.0</ele><time>2026-04-26T09:09:45.053Z</time></trkpt><trkpt lat="45.9510033" lon="11.3558566"><ele>1383.0</ele><time>2026-04-26T09:09:46.048Z</time></trkpt><trkpt lat="45.9509196" lon="11.3557828"><ele>1383.0</ele><time>2026-04-26T09:09:47.06Z</time></trkpt><trkpt lat="45.9508333" lon="11.3557094"><ele>1383.0</ele><time>2026-04-26T09:09:48.05Z</time></trkpt><trkpt lat="45.9507617" lon="11.3556048"><ele>1383.0</ele><time>2026-04-26T09:09:49.054Z</time></trkpt><trkpt lat="45.950694" lon="11.3555026"><ele>1383.0</ele><time>2026-04-26T09:09:50.062Z</time></trkpt><trkpt lat="45.9506433" lon="11.355371"><ele>1382.5</ele><time>2026-04-26T09:09:51.055Z</time></trkpt><trkpt lat="45.950621" lon="11.3552103"><ele>1382.0</ele><time>2026-04-26T09:09:52.055Z</time></trkpt><trkpt lat="45.9506008" lon="11.3550334"><ele>1381.5</ele><time>2026-04-26T09:09:53.041Z</time></trkpt><trkpt lat="45.9505743" lon="11.3548549"><ele>1381.0</ele><time>2026-04-26T09:09:54.047Z</time></trkpt><trkpt lat="45.9505334" lon="11.3546798"><ele>1382.0</ele><time>2026-04-26T09:09:55.047Z</time></trkpt><trkpt lat="45.9504933" lon="11.3545013"><ele>1383.0</ele><time>2026-04-26T09:09:56.044Z</time></trkpt><trkpt lat="45.9504582" lon="11.3543234"><ele>1384.0</ele><time>2026-04-26T09:09:57.051Z</time></trkpt><trkpt lat="45.9504168" lon="11.3541498"><ele>1385.0</ele><time>2026-04-26T09:09:58.043Z</time></trkpt><trkpt lat="45.9503752" lon="11.3539768"><ele>1385.6666666666667</ele><time>2026-04-26T09:09:59.037Z</time></trkpt><trkpt lat="45.9503419" lon="11.3538004"><ele>1386.3333333333333</ele><time>2026-04-26T09:10:00.068Z</time></trkpt><trkpt lat="45.9503292" lon="11.3534256"><ele>1387.0</ele><time>2026-04-26T09:10:02.082Z</time></trkpt><trkpt lat="45.950356" lon="11.3532309"><ele>1386.75</ele><time>2026-04-26T09:10:03.208Z</time></trkpt><trkpt lat="45.9503927" lon="11.3530389"><ele>1386.5</ele><time>2026-04-26T09:10:04.125Z</time></trkpt><trkpt lat="45.9504229" lon="11.3528489"><ele>1386.25</ele><time>2026-04-26T09:10:05.049Z</time></trkpt><trkpt lat="45.9504447" lon="11.3526659"><ele>1386.0</ele><time>2026-04-26T09:10:06.025Z</time></trkpt><trkpt lat="45.9504416" lon="11.3524783"><ele>1386.0</ele><time>2026-04-26T09:10:07.016Z</time></trkpt><trkpt lat="45.9503969" lon="11.3522897"><ele>1386.0</ele><time>2026-04-26T09:10:08.043Z</time></trkpt><trkpt lat="45.9503373" lon="11.3520971"><ele>1386.0</ele><time>2026-04-26T09:10:09.039Z</time></trkpt><trkpt lat="45.9502544" lon="11.3519224"><ele>1386.0</ele><time>2026-04-26T09:10:10.025Z</time></trkpt><trkpt lat="45.9501689" lon="11.3517572"><ele>1385.25</ele><time>2026-04-26T09:10:11.035Z</time></trkpt><trkpt lat="45.9500796" lon="11.351612"><ele>1384.5</ele><time>2026-04-26T09:10:12.038Z</time></trkpt><trkpt lat="45.9500002" lon="11.351478"><ele>1383.75</ele><time>2026-04-26T09:10:13.037Z</time></trkpt><trkpt lat="45.9499361" lon="11.3513553"><ele>1383.0</ele><time>2026-04-26T09:10:14.03Z</time></trkpt><trkpt lat="45.9499" lon="11.3512349"><ele>1383.0</ele><time>2026-04-26T09:10:15.04Z</time></trkpt><trkpt lat="45.9498879" lon="11.3511161"><ele>1383.0</ele><time>2026-04-26T09:10:16.044Z</time></trkpt><trkpt lat="45.9499036" lon="11.3509927"><ele>1383.0</ele><time>2026-04-26T09:10:17.035Z</time></trkpt><trkpt lat="45.9499418" lon="11.3508736"><ele>1383.0</ele><time>2026-04-26T09:10:18.051Z</time></trkpt><trkpt lat="45.949994" lon="11.3507553"><ele>1383.0</ele><time>2026-04-26T09:10:19.043Z</time></trkpt><trkpt lat="45.9500457" lon="11.3506291"><ele>1385.4</ele><time>2026-04-26T09:10:20.064Z</time></trkpt><trkpt lat="45.9501047" lon="11.3505016"><ele>1387.8000000000002</ele><time>2026-04-26T09:10:21.077Z</time></trkpt><trkpt lat="45.9501606" lon="11.3503724"><ele>1390.2</ele><time>2026-04-26T09:10:22.059Z</time></trkpt><trkpt lat="45.9502181" lon="11.3502329"><ele>1392.6</ele><time>2026-04-26T09:10:23.045Z</time></trkpt><trkpt lat="45.9502715" lon="11.3500813"><ele>1395.0</ele><time>2026-04-26T09:10:24.041Z</time></trkpt><trkpt lat="45.9503232" lon="11.3499155"><ele>1395.0</ele><time>2026-04-26T09:10:25.053Z</time></trkpt><trkpt lat="45.9503661" lon="11.3497417"><ele>1395.0</ele><time>2026-04-26T09:10:26.04Z</time></trkpt><trkpt lat="45.9504097" lon="11.3495647"><ele>1395.0</ele><time>2026-04-26T09:10:27.049Z</time></trkpt><trkpt lat="45.9504404" lon="11.3493739"><ele>1395.0</ele><time>2026-04-26T09:10:28.041Z</time></trkpt><trkpt lat="45.9504592" lon="11.3491788"><ele>1395.0</ele><time>2026-04-26T09:10:29.041Z</time></trkpt><trkpt lat="45.9504706" lon="11.3489782"><ele>1395.0</ele><time>2026-04-26T09:10:30.045Z</time></trkpt><trkpt lat="45.9504784" lon="11.3487716"><ele>1395.0</ele><time>2026-04-26T09:10:31.056Z</time></trkpt><trkpt lat="45.9504859" lon="11.3485589"><ele>1395.0</ele><time>2026-04-26T09:10:32.039Z</time></trkpt><trkpt lat="45.9504946" lon="11.3483422"><ele>1394.0</ele><time>2026-04-26T09:10:33.039Z</time></trkpt><trkpt lat="45.9504953" lon="11.3481244"><ele>1393.0</ele><time>2026-04-26T09:10:34.063Z</time></trkpt><trkpt lat="45.9505048" lon="11.3479146"><ele>1392.0</ele><time>2026-04-26T09:10:35.047Z</time></trkpt><trkpt lat="45.9505194" lon="11.3477163"><ele>1391.0</ele><time>2026-04-26T09:10:36.055Z</time></trkpt><trkpt lat="45.9505377" lon="11.3475274"><ele>1390.75</ele><time>2026-04-26T09:10:37.045Z</time></trkpt><trkpt lat="45.9505678" lon="11.3473483"><ele>1390.5</ele><time>2026-04-26T09:10:38.065Z</time></trkpt><trkpt lat="45.9506033" lon="11.3471769"><ele>1390.25</ele><time>2026-04-26T09:10:39.059Z</time></trkpt><trkpt lat="45.950663" lon="11.3470224"><ele>1390.0</ele><time>2026-04-26T09:10:40.062Z</time></trkpt><trkpt lat="45.950734" lon="11.3468735"><ele>1390.0</ele><time>2026-04-26T09:10:41.049Z</time></trkpt><trkpt lat="45.9508133" lon="11.3467292"><ele>1390.0</ele><time>2026-04-26T09:10:42.045Z</time></trkpt><trkpt lat="45.9508969" lon="11.346587"><ele>1390.0</ele><time>2026-04-26T09:10:43.071Z</time></trkpt><trkpt lat="45.9509762" lon="11.3464377"><ele>1390.0</ele><time>2026-04-26T09:10:44.048Z</time></trkpt><trkpt lat="45.9510632" lon="11.3462922"><ele>1390.75</ele><time>2026-04-26T09:10:45.06Z</time></trkpt><trkpt lat="45.9511627" lon="11.3461622"><ele>1391.5</ele><time>2026-04-26T09:10:46.053Z</time></trkpt><trkpt lat="45.9512761" lon="11.3460553"><ele>1392.25</ele><time>2026-04-26T09:10:47.05Z</time></trkpt><trkpt lat="45.9513884" lon="11.3459488"><ele>1393.0</ele><time>2026-04-26T09:10:48.056Z</time></trkpt><trkpt lat="45.9515037" lon="11.345857"><ele>1393.0</ele><time>2026-04-26T09:10:49.052Z</time></trkpt><trkpt lat="45.9516211" lon="11.3457687"><ele>1393.0</ele><time>2026-04-26T09:10:50.059Z</time></trkpt><trkpt lat="45.9517377" lon="11.3456804"><ele>1393.0</ele><time>2026-04-26T09:10:51.06Z</time></trkpt><trkpt lat="45.951842" lon="11.3455676"><ele>1393.0</ele><time>2026-04-26T09:10:52.061Z</time></trkpt><trkpt lat="45.9519465" lon="11.3454637"><ele>1394.0</ele><time>2026-04-26T09:10:53.042Z</time></trkpt><trkpt lat="45.9520441" lon="11.3453495"><ele>1395.0</ele><time>2026-04-26T09:10:54.043Z</time></trkpt><trkpt lat="45.9521369" lon="11.3452313"><ele>1396.0</ele><time>2026-04-26T09:10:55.048Z</time></trkpt><trkpt lat="45.9522362" lon="11.3451257"><ele>1397.0</ele><time>2026-04-26T09:10:56.056Z</time></trkpt><trkpt lat="45.9523315" lon="11.3450166"><ele>1397.0</ele><time>2026-04-26T09:10:57.058Z</time></trkpt><trkpt lat="45.9524287" lon="11.3449113"><ele>1397.0</ele><time>2026-04-26T09:10:58.074Z</time></trkpt><trkpt lat="45.95252" lon="11.3447928"><ele>1397.0</ele><time>2026-04-26T09:10:59.053Z</time></trkpt><trkpt lat="45.9526207" lon="11.3446937"><ele>1397.0</ele><time>2026-04-26T09:11:00.045Z</time></trkpt><trkpt lat="45.9527225" lon="11.3445971"><ele>1398.0</ele><time>2026-04-26T09:11:01.065Z</time></trkpt><trkpt lat="45.9528267" lon="11.3445029"><ele>1399.0</ele><time>2026-04-26T09:11:02.044Z</time></trkpt><trkpt lat="45.9529242" lon="11.344394"><ele>1400.0</ele><time>2026-04-26T09:11:03.059Z</time></trkpt><trkpt lat="45.9530154" lon="11.3442778"><ele>1401.0</ele><time>2026-04-26T09:11:04.061Z</time></trkpt><trkpt lat="45.953097" lon="11.344157"><ele>1401.0</ele><time>2026-04-26T09:11:05.042Z</time></trkpt><trkpt lat="45.9531449" lon="11.344006"><ele>1401.0</ele><time>2026-04-26T09:11:06.052Z</time></trkpt><trkpt lat="45.9531543" lon="11.3438429"><ele>1401.0</ele><time>2026-04-26T09:11:07.053Z</time></trkpt><trkpt lat="45.9531548" lon="11.34368"><ele>1401.0</ele><time>2026-04-26T09:11:08.039Z</time></trkpt><trkpt lat="45.953167" lon="11.3434965"><ele>1400.0</ele><time>2026-04-26T09:11:09.071Z</time></trkpt><trkpt lat="45.9531432" lon="11.3433156"><ele>1399.0</ele><time>2026-04-26T09:11:10.056Z</time></trkpt><trkpt lat="45.9531156" lon="11.3431355"><ele>1398.0</ele><time>2026-04-26T09:11:11.046Z</time></trkpt><trkpt lat="45.953097" lon="11.3429556"><ele>1397.0</ele><time>2026-04-26T09:11:12.043Z</time></trkpt><trkpt lat="45.9530864" lon="11.3427732"><ele>1397.0</ele><time>2026-04-26T09:11:13.043Z</time></trkpt><trkpt lat="45.9531002" lon="11.3425878"><ele>1397.0</ele><time>2026-04-26T09:11:14.046Z</time></trkpt><trkpt lat="45.9531202" lon="11.3423956"><ele>1397.0</ele><time>2026-04-26T09:11:15.048Z</time></trkpt><trkpt lat="45.9531695" lon="11.3422054"><ele>1397.0</ele><time>2026-04-26T09:11:16.07Z</time></trkpt><trkpt lat="45.9532267" lon="11.3420241"><ele>1397.75</ele><time>2026-04-26T09:11:17.059Z</time></trkpt><trkpt lat="45.9532853" lon="11.3418403"><ele>1398.5</ele><time>2026-04-26T09:11:18.05Z</time></trkpt><trkpt lat="45.9533508" lon="11.3416582"><ele>1399.25</ele><time>2026-04-26T09:11:19.039Z</time></trkpt><trkpt lat="45.9534141" lon="11.3414778"><ele>1400.0</ele><time>2026-04-26T09:11:20.034Z</time></trkpt><trkpt lat="45.9534731" lon="11.3413029"><ele>1401.25</ele><time>2026-04-26T09:11:21.054Z</time></trkpt><trkpt lat="45.9535341" lon="11.3411378"><ele>1402.5</ele><time>2026-04-26T09:11:22.044Z</time></trkpt><trkpt lat="45.9535979" lon="11.3409766"><ele>1403.75</ele><time>2026-04-26T09:11:23.053Z</time></trkpt><trkpt lat="45.9536583" lon="11.3408182"><ele>1405.0</ele><time>2026-04-26T09:11:24.04Z</time></trkpt><trkpt lat="45.9537296" lon="11.3406754"><ele>1405.75</ele><time>2026-04-26T09:11:25.039Z</time></trkpt><trkpt lat="45.9538066" lon="11.3405379"><ele>1406.5</ele><time>2026-04-26T09:11:26.04Z</time></trkpt><trkpt lat="45.9538848" lon="11.3403996"><ele>1407.25</ele><time>2026-04-26T09:11:27.064Z</time></trkpt><trkpt lat="45.9539811" lon="11.3402752"><ele>1408.0</ele><time>2026-04-26T09:11:28.058Z</time></trkpt><trkpt lat="45.9540685" lon="11.3401381"><ele>1408.0</ele><time>2026-04-26T09:11:29.052Z</time></trkpt><trkpt lat="45.954153" lon="11.3399966"><ele>1408.0</ele><time>2026-04-26T09:11:30.052Z</time></trkpt><trkpt lat="45.9542378" lon="11.33985"><ele>1408.0</ele><time>2026-04-26T09:11:31.041Z</time></trkpt><trkpt lat="45.9543247" lon="11.3396988"><ele>1408.0</ele><time>2026-04-26T09:11:32.054Z</time></trkpt><trkpt lat="45.9544218" lon="11.3395556"><ele>1408.75</ele><time>2026-04-26T09:11:33.062Z</time></trkpt><trkpt lat="45.9545061" lon="11.3394018"><ele>1409.5</ele><time>2026-04-26T09:11:34.048Z</time></trkpt><trkpt lat="45.9545888" lon="11.3392515"><ele>1410.25</ele><time>2026-04-26T09:11:35.045Z</time></trkpt><trkpt lat="45.9546582" lon="11.3390893"><ele>1411.0</ele><time>2026-04-26T09:11:36.049Z</time></trkpt><trkpt lat="45.9547139" lon="11.3389202"><ele>1411.25</ele><time>2026-04-26T09:11:37.057Z</time></trkpt><trkpt lat="45.9547495" lon="11.3387298"><ele>1411.5</ele><time>2026-04-26T09:11:38.055Z</time></trkpt><trkpt lat="45.9547722" lon="11.3385394"><ele>1411.75</ele><time>2026-04-26T09:11:39.06Z</time></trkpt><trkpt lat="45.9547733" lon="11.3383524"><ele>1412.0</ele><time>2026-04-26T09:11:40.048Z</time></trkpt><trkpt lat="45.9547703" lon="11.3381746"><ele>1412.25</ele><time>2026-04-26T09:11:41.051Z</time></trkpt><trkpt lat="45.9547682" lon="11.3380101"><ele>1412.5</ele><time>2026-04-26T09:11:42.046Z</time></trkpt><trkpt lat="45.9547869" lon="11.3378516"><ele>1412.75</ele><time>2026-04-26T09:11:43.039Z</time></trkpt><trkpt lat="45.954825" lon="11.3377024"><ele>1413.0</ele><time>2026-04-26T09:11:44.057Z</time></trkpt><trkpt lat="45.9548836" lon="11.3375521"><ele>1413.0</ele><time>2026-04-26T09:11:45.041Z</time></trkpt><trkpt lat="45.9549506" lon="11.3373887"><ele>1413.0</ele><time>2026-04-26T09:11:46.05Z</time></trkpt><trkpt lat="45.9550176" lon="11.3372179"><ele>1413.0</ele><time>2026-04-26T09:11:47.044Z</time></trkpt><trkpt lat="45.9550952" lon="11.3370452"><ele>1413.0</ele><time>2026-04-26T09:11:48.037Z</time></trkpt><trkpt lat="45.9551709" lon="11.3368567"><ele>1413.6666666666667</ele><time>2026-04-26T09:11:49.041Z</time></trkpt><trkpt lat="45.9552539" lon="11.3366573"><ele>1414.3333333333335</ele><time>2026-04-26T09:11:50.044Z</time></trkpt><trkpt lat="45.9553453" lon="11.3364524"><ele>1415.0</ele><time>2026-04-26T09:11:51.07Z</time></trkpt><trkpt lat="45.9554206" lon="11.3362306"><ele>1415.0</ele><time>2026-04-26T09:11:52.04Z</time></trkpt><trkpt lat="45.9555015" lon="11.3360207"><ele>1415.0</ele><time>2026-04-26T09:11:53.054Z</time></trkpt><trkpt lat="45.9555809" lon="11.3358153"><ele>1415.0</ele><time>2026-04-26T09:11:54.039Z</time></trkpt><trkpt lat="45.9556555" lon="11.335607"><ele>1414.6666666666667</ele><time>2026-04-26T09:11:55.049Z</time></trkpt><trkpt lat="45.9557201" lon="11.3353933"><ele>1414.3333333333333</ele><time>2026-04-26T09:11:56.039Z</time></trkpt><trkpt lat="45.9557775" lon="11.3351813"><ele>1414.0</ele><time>2026-04-26T09:11:57.041Z</time></trkpt><trkpt lat="45.9558276" lon="11.3349686"><ele>1415.0</ele><time>2026-04-26T09:11:58.054Z</time></trkpt><trkpt lat="45.9558737" lon="11.3347648"><ele>1416.0</ele><time>2026-04-26T09:11:59.046Z</time></trkpt><trkpt lat="45.9559125" lon="11.3345663"><ele>1417.0</ele><time>2026-04-26T09:12:00.048Z</time></trkpt><trkpt lat="45.9559432" lon="11.3343775"><ele>1418.0</ele><time>2026-04-26T09:12:01.037Z</time></trkpt><trkpt lat="45.9559833" lon="11.3342068"><ele>1418.0</ele><time>2026-04-26T09:12:02.052Z</time></trkpt><trkpt lat="45.9560215" lon="11.3340441"><ele>1418.0</ele><time>2026-04-26T09:12:03.038Z</time></trkpt><trkpt lat="45.9560672" lon="11.3338898"><ele>1418.0</ele><time>2026-04-26T09:12:04.052Z</time></trkpt><trkpt lat="45.9561212" lon="11.3337449"><ele>1418.0</ele><time>2026-04-26T09:12:05.059Z</time></trkpt><trkpt lat="45.9561826" lon="11.3336029"><ele>1417.25</ele><time>2026-04-26T09:12:06.046Z</time></trkpt><trkpt lat="45.9562495" lon="11.3334593"><ele>1416.5</ele><time>2026-04-26T09:12:07.061Z</time></trkpt><trkpt lat="45.9563193" lon="11.3333155"><ele>1415.75</ele><time>2026-04-26T09:12:08.052Z</time></trkpt><trkpt lat="45.9563892" lon="11.3331723"><ele>1415.0</ele><time>2026-04-26T09:12:09.056Z</time></trkpt><trkpt lat="45.9564552" lon="11.3330305"><ele>1414.8</ele><time>2026-04-26T09:12:10.107Z</time></trkpt><trkpt lat="45.9565077" lon="11.3328792"><ele>1414.6</ele><time>2026-04-26T09:12:11.05Z</time></trkpt><trkpt lat="45.956538" lon="11.33272"><ele>1414.4</ele><time>2026-04-26T09:12:12.037Z</time></trkpt><trkpt lat="45.9565788" lon="11.3325767"><ele>1414.2</ele><time>2026-04-26T09:12:13.05Z</time></trkpt><trkpt lat="45.9565991" lon="11.3324305"><ele>1414.0</ele><time>2026-04-26T09:12:14.049Z</time></trkpt><trkpt lat="45.9566072" lon="11.3322818"><ele>1414.6</ele><time>2026-04-26T09:12:15.05Z</time></trkpt><trkpt lat="45.9566062" lon="11.3321344"><ele>1415.2</ele><time>2026-04-26T09:12:16.054Z</time></trkpt><trkpt lat="45.9566048" lon="11.3319951"><ele>1415.8</ele><time>2026-04-26T09:12:17.048Z</time></trkpt><trkpt lat="45.9566044" lon="11.3318676"><ele>1416.3999999999999</ele><time>2026-04-26T09:12:18.057Z</time></trkpt><trkpt lat="45.9565983" lon="11.3317399"><ele>1417.0</ele><time>2026-04-26T09:12:19.045Z</time></trkpt><trkpt lat="45.9565991" lon="11.3316082"><ele>1417.0</ele><time>2026-04-26T09:12:20.061Z</time></trkpt><trkpt lat="45.9565986" lon="11.3314716"><ele>1417.0</ele><time>2026-04-26T09:12:21.044Z</time></trkpt><trkpt lat="45.9565966" lon="11.3313321"><ele>1417.0</ele><time>2026-04-26T09:12:22.049Z</time></trkpt><trkpt lat="45.9566053" lon="11.3311848"><ele>1417.0</ele><time>2026-04-26T09:12:23.049Z</time></trkpt><trkpt lat="45.9566086" lon="11.3310332"><ele>1417.0</ele><time>2026-04-26T09:12:24.063Z</time></trkpt><trkpt lat="45.9565967" lon="11.3308797"><ele>1416.8</ele><time>2026-04-26T09:12:25.043Z</time></trkpt><trkpt lat="45.9565884" lon="11.3307299"><ele>1416.6</ele><time>2026-04-26T09:12:26.043Z</time></trkpt><trkpt lat="45.9565868" lon="11.3305838"><ele>1416.3999999999999</ele><time>2026-04-26T09:12:27.038Z</time></trkpt><trkpt lat="45.9565824" lon="11.3304452"><ele>1416.1999999999998</ele><time>2026-04-26T09:12:28.04Z</time></trkpt><trkpt lat="45.9565783" lon="11.3303184"><ele>1416.0</ele><time>2026-04-26T09:12:29.053Z</time></trkpt><trkpt lat="45.9565865" lon="11.3302005"><ele>1416.4</ele><time>2026-04-26T09:12:30.058Z</time></trkpt><trkpt lat="45.9565837" lon="11.3300833"><ele>1416.8</ele><time>2026-04-26T09:12:31.058Z</time></trkpt><trkpt lat="45.9565957" lon="11.3299599"><ele>1417.2</ele><time>2026-04-26T09:12:32.065Z</time></trkpt><trkpt lat="45.9565898" lon="11.3298333"><ele>1417.6000000000001</ele><time>2026-04-26T09:12:33.05Z</time></trkpt><trkpt lat="45.9565911" lon="11.3296953"><ele>1418.0</ele><time>2026-04-26T09:12:34.038Z</time></trkpt><trkpt lat="45.956588" lon="11.3295422"><ele>1418.5</ele><time>2026-04-26T09:12:35.037Z</time></trkpt><trkpt lat="45.9565821" lon="11.3293786"><ele>1419.0</ele><time>2026-04-26T09:12:36.048Z</time></trkpt><trkpt lat="45.956576" lon="11.329211"><ele>1419.5</ele><time>2026-04-26T09:12:37.059Z</time></trkpt><trkpt lat="45.9565696" lon="11.3290479"><ele>1420.0</ele><time>2026-04-26T09:12:38.05Z</time></trkpt><trkpt lat="45.9565714" lon="11.3288847"><ele>1420.0</ele><time>2026-04-26T09:12:39.057Z</time></trkpt><trkpt lat="45.9565744" lon="11.3287253"><ele>1420.0</ele><time>2026-04-26T09:12:40.05Z</time></trkpt><trkpt lat="45.9565986" lon="11.3285626"><ele>1420.0</ele><time>2026-04-26T09:12:41.051Z</time></trkpt><trkpt lat="45.9566381" lon="11.3283972"><ele>1420.0</ele><time>2026-04-26T09:12:42.044Z</time></trkpt><trkpt lat="45.9566965" lon="11.3282283"><ele>1420.0</ele><time>2026-04-26T09:12:43.04Z</time></trkpt><trkpt lat="45.9567738" lon="11.3280594"><ele>1420.0</ele><time>2026-04-26T09:12:44.06Z</time></trkpt><trkpt lat="45.9568543" lon="11.327889"><ele>1420.0</ele><time>2026-04-26T09:12:45.055Z</time></trkpt><trkpt lat="45.9569314" lon="11.3277171"><ele>1420.0</ele><time>2026-04-26T09:12:46.055Z</time></trkpt><trkpt lat="45.9570079" lon="11.3275378"><ele>1420.0</ele><time>2026-04-26T09:12:47.051Z</time></trkpt><trkpt lat="45.9570745" lon="11.3273405"><ele>1420.0</ele><time>2026-04-26T09:12:48.046Z</time></trkpt><trkpt lat="45.957149" lon="11.3271459"><ele>1420.0</ele><time>2026-04-26T09:12:49.039Z</time></trkpt><trkpt lat="45.9571914" lon="11.3269317"><ele>1419.6666666666665</ele><time>2026-04-26T09:12:50.054Z</time></trkpt><trkpt lat="45.9572361" lon="11.3267028"><ele>1419.3333333333333</ele><time>2026-04-26T09:12:51.04Z</time></trkpt><trkpt lat="45.957287" lon="11.3264616"><ele>1419.0</ele><time>2026-04-26T09:12:52.042Z</time></trkpt><trkpt lat="45.9573232" lon="11.3262127"><ele>1419.0</ele><time>2026-04-26T09:12:53.041Z</time></trkpt><trkpt lat="45.9573575" lon="11.3259599"><ele>1419.0</ele><time>2026-04-26T09:12:54.061Z</time></trkpt><trkpt lat="45.9573959" lon="11.3257067"><ele>1419.0</ele><time>2026-04-26T09:12:55.044Z</time></trkpt><trkpt lat="45.9574431" lon="11.3254552"><ele>1419.0</ele><time>2026-04-26T09:12:56.06Z</time></trkpt><trkpt lat="45.957492" lon="11.3252057"><ele>1419.0</ele><time>2026-04-26T09:12:57.054Z</time></trkpt><trkpt lat="45.9575536" lon="11.3249635"><ele>1419.0</ele><time>2026-04-26T09:12:58.046Z</time></trkpt><trkpt lat="45.9576164" lon="11.3247223"><ele>1415.3333333333333</ele><time>2026-04-26T09:12:59.07Z</time></trkpt><trkpt lat="45.9576918" lon="11.3244895"><ele>1411.6666666666665</ele><time>2026-04-26T09:13:00.058Z</time></trkpt><trkpt lat="45.9577907" lon="11.3242775"><ele>1408.0</ele><time>2026-04-26T09:13:01.038Z</time></trkpt><trkpt lat="45.9579018" lon="11.3240909"><ele>1408.0</ele><time>2026-04-26T09:13:02.047Z</time></trkpt><trkpt lat="45.9580321" lon="11.3239212"><ele>1408.0</ele><time>2026-04-26T09:13:03.038Z</time></trkpt><trkpt lat="45.9581488" lon="11.3237309"><ele>1408.0</ele><time>2026-04-26T09:13:04.044Z</time></trkpt><trkpt lat="45.9582786" lon="11.3235479"><ele>1405.0</ele><time>2026-04-26T09:13:05.06Z</time></trkpt><trkpt lat="45.9583962" lon="11.3233519"><ele>1402.0</ele><time>2026-04-26T09:13:06.075Z</time></trkpt><trkpt lat="45.9585193" lon="11.3231646"><ele>1399.0</ele><time>2026-04-26T09:13:07.043Z</time></trkpt><trkpt lat="45.9586326" lon="11.3229755"><ele>1399.0</ele><time>2026-04-26T09:13:08.056Z</time></trkpt><trkpt lat="45.9587249" lon="11.3227807"><ele>1399.0</ele><time>2026-04-26T09:13:09.042Z</time></trkpt><trkpt lat="45.9587809" lon="11.3225545"><ele>1399.0</ele><time>2026-04-26T09:13:10.045Z</time></trkpt><trkpt lat="45.9588276" lon="11.3223328"><ele>1399.3333333333333</ele><time>2026-04-26T09:13:11.051Z</time></trkpt><trkpt lat="45.9588822" lon="11.3221156"><ele>1399.6666666666667</ele><time>2026-04-26T09:13:12.03Z</time></trkpt><trkpt lat="45.9588928" lon="11.3218865"><ele>1400.0</ele><time>2026-04-26T09:13:13.032Z</time></trkpt><trkpt lat="45.9588831" lon="11.3216739"><ele>1400.0</ele><time>2026-04-26T09:13:14.043Z</time></trkpt><trkpt lat="45.9588682" lon="11.3214689"><ele>1400.0</ele><time>2026-04-26T09:13:15.044Z</time></trkpt><trkpt lat="45.9588465" lon="11.3212548"><ele>1400.0</ele><time>2026-04-26T09:13:16.046Z</time></trkpt><trkpt lat="45.9588244" lon="11.3210433"><ele>1400.0</ele><time>2026-04-26T09:13:17.047Z</time></trkpt><trkpt lat="45.9588024" lon="11.3208325"><ele>1399.5</ele><time>2026-04-26T09:13:18.064Z</time></trkpt><trkpt lat="45.9587851" lon="11.3206179"><ele>1399.0</ele><time>2026-04-26T09:13:19.044Z</time></trkpt><trkpt lat="45.9587848" lon="11.3204015"><ele>1398.5</ele><time>2026-04-26T09:13:20.029Z</time></trkpt><trkpt lat="45.958799" lon="11.320189"><ele>1398.0</ele><time>2026-04-26T09:13:21.036Z</time></trkpt><trkpt lat="45.9588204" lon="11.3199805"><ele>1396.6666666666667</ele><time>2026-04-26T09:13:22.038Z</time></trkpt><trkpt lat="45.9588308" lon="11.3197626"><ele>1395.3333333333335</ele><time>2026-04-26T09:13:23.032Z</time></trkpt><trkpt lat="45.9588477" lon="11.3195407"><ele>1394.0</ele><time>2026-04-26T09:13:24.039Z</time></trkpt><trkpt lat="45.9588471" lon="11.3193195"><ele>1394.0</ele><time>2026-04-26T09:13:25.049Z</time></trkpt><trkpt lat="45.9588286" lon="11.3191077"><ele>1394.0</ele><time>2026-04-26T09:13:26.043Z</time></trkpt><trkpt lat="45.9587938" lon="11.3189066"><ele>1394.0</ele><time>2026-04-26T09:13:27.052Z</time></trkpt><trkpt lat="45.958762" lon="11.3187062"><ele>1394.0</ele><time>2026-04-26T09:13:28.041Z</time></trkpt><trkpt lat="45.958726" lon="11.3185028"><ele>1392.5</ele><time>2026-04-26T09:13:29.034Z</time></trkpt><trkpt lat="45.9587073" lon="11.3183055"><ele>1391.0</ele><time>2026-04-26T09:13:30.056Z</time></trkpt><trkpt lat="45.9587103" lon="11.3181109"><ele>1389.5</ele><time>2026-04-26T09:13:31.032Z</time></trkpt><trkpt lat="45.9587144" lon="11.3179205"><ele>1388.0</ele><time>2026-04-26T09:13:32.029Z</time></trkpt><trkpt lat="45.9587279" lon="11.3177327"><ele>1387.5</ele><time>2026-04-26T09:13:33.034Z</time></trkpt><trkpt lat="45.9587409" lon="11.3175394"><ele>1387.0</ele><time>2026-04-26T09:13:34.039Z</time></trkpt><trkpt lat="45.9587647" lon="11.3173514"><ele>1386.5</ele><time>2026-04-26T09:13:35.032Z</time></trkpt><trkpt lat="45.9587906" lon="11.3171669"><ele>1386.0</ele><time>2026-04-26T09:13:36.037Z</time></trkpt><trkpt lat="45.9588525" lon="11.3169946"><ele>1387.5</ele><time>2026-04-26T09:13:37.038Z</time></trkpt><trkpt lat="45.9589132" lon="11.316822"><ele>1389.0</ele><time>2026-04-26T09:13:38.04Z</time></trkpt><trkpt lat="45.958971" lon="11.3166484"><ele>1390.5</ele><time>2026-04-26T09:13:39.032Z</time></trkpt><trkpt lat="45.9590264" lon="11.3164971"><ele>1392.0</ele><time>2026-04-26T09:13:40.044Z</time></trkpt><trkpt lat="45.9591006" lon="11.316375"><ele>1392.0</ele><time>2026-04-26T09:13:41.06Z</time></trkpt><trkpt lat="45.9591958" lon="11.3162816"><ele>1392.0</ele><time>2026-04-26T09:13:42.051Z</time></trkpt><trkpt lat="45.9593039" lon="11.3162103"><ele>1392.0</ele><time>2026-04-26T09:13:43.045Z</time></trkpt><trkpt lat="45.9594158" lon="11.3161472"><ele>1392.0</ele><time>2026-04-26T09:13:44.033Z</time></trkpt><trkpt lat="45.9595349" lon="11.3160932"><ele>1389.5</ele><time>2026-04-26T09:13:45.042Z</time></trkpt><trkpt lat="45.9596603" lon="11.3160952"><ele>1387.0</ele><time>2026-04-26T09:13:46.036Z</time></trkpt><trkpt lat="45.9597772" lon="11.3160743"><ele>1384.5</ele><time>2026-04-26T09:13:47.037Z</time></trkpt><trkpt lat="45.9598917" lon="11.3160347"><ele>1382.0</ele><time>2026-04-26T09:13:48.047Z</time></trkpt><trkpt lat="45.9600051" lon="11.315995"><ele>1380.25</ele><time>2026-04-26T09:13:49.057Z</time></trkpt><trkpt lat="45.9601124" lon="11.3159376"><ele>1378.5</ele><time>2026-04-26T09:13:50.062Z</time></trkpt><trkpt lat="45.9602242" lon="11.3158728"><ele>1376.75</ele><time>2026-04-26T09:13:51.046Z</time></trkpt><trkpt lat="45.9603345" lon="11.3157995"><ele>1375.0</ele><time>2026-04-26T09:13:52.047Z</time></trkpt><trkpt lat="45.9604306" lon="11.3157129"><ele>1375.0</ele><time>2026-04-26T09:13:53.036Z</time></trkpt><trkpt lat="45.9605351" lon="11.3156057"><ele>1375.0</ele><time>2026-04-26T09:13:54.044Z</time></trkpt><trkpt lat="45.9606273" lon="11.3154902"><ele>1375.0</ele><time>2026-04-26T09:13:55.052Z</time></trkpt><trkpt lat="45.9607047" lon="11.3153638"><ele>1375.0</ele><time>2026-04-26T09:13:56.036Z</time></trkpt><trkpt lat="45.9607787" lon="11.3152559"><ele>1374.2</ele><time>2026-04-26T09:13:57.062Z</time></trkpt><trkpt lat="45.9608456" lon="11.3151655"><ele>1373.4</ele><time>2026-04-26T09:13:58.033Z</time></trkpt><trkpt lat="45.9609356" lon="11.3150732"><ele>1372.6</ele><time>2026-04-26T09:14:00.038Z</time></trkpt><trkpt lat="45.9610048" lon="11.3149697"><ele>1371.8</ele><time>2026-04-26T09:14:02.044Z</time></trkpt><trkpt lat="45.9610283" lon="11.3148566"><ele>1371.0</ele><time>2026-04-26T09:14:04.044Z</time></trkpt><trkpt lat="45.9610059" lon="11.3147518"><ele>1371.0</ele><time>2026-04-26T09:14:06.037Z</time></trkpt><trkpt lat="45.960913" lon="11.3146867"><ele>1371.0</ele><time>2026-04-26T09:14:08.046Z</time></trkpt><trkpt lat="45.9608445" lon="11.3146991"><ele>1371.0</ele><time>2026-04-26T09:14:09.034Z</time></trkpt><trkpt lat="45.9607735" lon="11.3147383"><ele>1371.0</ele><time>2026-04-26T09:14:10.049Z</time></trkpt><trkpt lat="45.9607006" lon="11.3147839"><ele>1371.0</ele><time>2026-04-26T09:14:11.046Z</time></trkpt><trkpt lat="45.9606212" lon="11.3148138"><ele>1371.0</ele><time>2026-04-26T09:14:12.039Z</time></trkpt><trkpt lat="45.9605388" lon="11.3148315"><ele>1371.0</ele><time>2026-04-26T09:14:13.062Z</time></trkpt><trkpt lat="45.9604568" lon="11.3149112"><ele>1371.0</ele><time>2026-04-26T09:14:14.065Z</time></trkpt><trkpt lat="45.9603635" lon="11.3149273"><ele>1371.0</ele><time>2026-04-26T09:14:15.04Z</time></trkpt><trkpt lat="45.9602642" lon="11.3149106"><ele>1371.0</ele><time>2026-04-26T09:14:16.055Z</time></trkpt><trkpt lat="45.9601644" lon="11.3148834"><ele>1371.0</ele><time>2026-04-26T09:14:17.03Z</time></trkpt><trkpt lat="45.9600748" lon="11.3147905"><ele>1368.4</ele><time>2026-04-26T09:14:18.047Z</time></trkpt><trkpt lat="45.959993" lon="11.3146865"><ele>1365.8</ele><time>2026-04-26T09:14:19.035Z</time></trkpt><trkpt lat="45.959919" lon="11.3145607"><ele>1363.2</ele><time>2026-04-26T09:14:20.03Z</time></trkpt><trkpt lat="45.9598622" lon="11.3144211"><ele>1360.6000000000001</ele><time>2026-04-26T09:14:21.059Z</time></trkpt><trkpt lat="45.9598211" lon="11.3142705"><ele>1358.0</ele><time>2026-04-26T09:14:22.042Z</time></trkpt><trkpt lat="45.9597961" lon="11.3141138"><ele>1358.0</ele><time>2026-04-26T09:14:23.035Z</time></trkpt><trkpt lat="45.9598016" lon="11.3139455"><ele>1358.0</ele><time>2026-04-26T09:14:24.047Z</time></trkpt><trkpt lat="45.9598075" lon="11.3137802"><ele>1358.0</ele><time>2026-04-26T09:14:25.043Z</time></trkpt><trkpt lat="45.9598159" lon="11.3136178"><ele>1358.0</ele><time>2026-04-26T09:14:26.044Z</time></trkpt><trkpt lat="45.9598079" lon="11.3134511"><ele>1357.5</ele><time>2026-04-26T09:14:27.046Z</time></trkpt><trkpt lat="45.959794" lon="11.3132822"><ele>1357.0</ele><time>2026-04-26T09:14:28.037Z</time></trkpt><trkpt lat="45.959785" lon="11.3131043"><ele>1356.5</ele><time>2026-04-26T09:14:29.037Z</time></trkpt><trkpt lat="45.9597632" lon="11.3129228"><ele>1356.0</ele><time>2026-04-26T09:14:30.032Z</time></trkpt><trkpt lat="45.9597354" lon="11.3127303"><ele>1355.5</ele><time>2026-04-26T09:14:31.034Z</time></trkpt><trkpt lat="45.9597072" lon="11.3125345"><ele>1355.0</ele><time>2026-04-26T09:14:32.04Z</time></trkpt><trkpt lat="45.9596794" lon="11.3123343"><ele>1354.5</ele><time>2026-04-26T09:14:33.032Z</time></trkpt><trkpt lat="45.9596497" lon="11.312134"><ele>1354.0</ele><time>2026-04-26T09:14:34.035Z</time></trkpt><trkpt lat="45.9596053" lon="11.3119423"><ele>1354.0</ele><time>2026-04-26T09:14:35.035Z</time></trkpt><trkpt lat="45.9595754" lon="11.3117454"><ele>1354.0</ele><time>2026-04-26T09:14:36.037Z</time></trkpt><trkpt lat="45.9595654" lon="11.3115443"><ele>1354.0</ele><time>2026-04-26T09:14:37.03Z</time></trkpt><trkpt lat="45.9595611" lon="11.311345"><ele>1354.0</ele><time>2026-04-26T09:14:38.032Z</time></trkpt><trkpt lat="45.959566" lon="11.3111487"><ele>1355.5</ele><time>2026-04-26T09:14:39.039Z</time></trkpt><trkpt lat="45.9595979" lon="11.3109567"><ele>1357.0</ele><time>2026-04-26T09:14:40.036Z</time></trkpt><trkpt lat="45.9596314" lon="11.3107563"><ele>1358.5</ele><time>2026-04-26T09:14:41.033Z</time></trkpt><trkpt lat="45.9596685" lon="11.310556"><ele>1360.0</ele><time>2026-04-26T09:14:42.032Z</time></trkpt><trkpt lat="45.9597064" lon="11.3103612"><ele>1360.0</ele><time>2026-04-26T09:14:43.037Z</time></trkpt><trkpt lat="45.9597302" lon="11.3101679"><ele>1360.0</ele><time>2026-04-26T09:14:44.032Z</time></trkpt><trkpt lat="45.9597688" lon="11.3099777"><ele>1360.0</ele><time>2026-04-26T09:14:45.037Z</time></trkpt><trkpt lat="45.9598146" lon="11.3097936"><ele>1360.0</ele><time>2026-04-26T09:14:46.043Z</time></trkpt><trkpt lat="45.9598608" lon="11.309611"><ele>1359.5</ele><time>2026-04-26T09:14:47.038Z</time></trkpt><trkpt lat="45.9599141" lon="11.3094324"><ele>1359.0</ele><time>2026-04-26T09:14:48.038Z</time></trkpt><trkpt lat="45.9599551" lon="11.3092484"><ele>1358.5</ele><time>2026-04-26T09:14:49.048Z</time></trkpt><trkpt lat="45.9600007" lon="11.3090686"><ele>1358.0</ele><time>2026-04-26T09:14:50.046Z</time></trkpt><trkpt lat="45.9600346" lon="11.3088823"><ele>1353.75</ele><time>2026-04-26T09:14:51.034Z</time></trkpt><trkpt lat="45.9600943" lon="11.3087064"><ele>1349.5</ele><time>2026-04-26T09:14:52.031Z</time></trkpt><trkpt lat="45.9601575" lon="11.3085242"><ele>1345.25</ele><time>2026-04-26T09:14:53.039Z</time></trkpt><trkpt lat="45.9602186" lon="11.3083435"><ele>1341.0</ele><time>2026-04-26T09:14:54.045Z</time></trkpt><trkpt lat="45.9602728" lon="11.3081658"><ele>1340.5</ele><time>2026-04-26T09:14:55.048Z</time></trkpt><trkpt lat="45.9603078" lon="11.3079929"><ele>1340.0</ele><time>2026-04-26T09:14:56.048Z</time></trkpt><trkpt lat="45.9603352" lon="11.307833"><ele>1339.5</ele><time>2026-04-26T09:14:57.054Z</time></trkpt><trkpt lat="45.9603314" lon="11.3076756"><ele>1339.0</ele><time>2026-04-26T09:14:58.04Z</time></trkpt><trkpt lat="45.9603021" lon="11.3075247"><ele>1339.0</ele><time>2026-04-26T09:14:59.059Z</time></trkpt><trkpt lat="45.960275" lon="11.307379"><ele>1339.0</ele><time>2026-04-26T09:15:00.052Z</time></trkpt><trkpt lat="45.9602297" lon="11.3072293"><ele>1339.0</ele><time>2026-04-26T09:15:01.048Z</time></trkpt><trkpt lat="45.9602138" lon="11.30705"><ele>1339.0</ele><time>2026-04-26T09:15:02.045Z</time></trkpt><trkpt lat="45.9601741" lon="11.3068862"><ele>1339.0</ele><time>2026-04-26T09:15:03.041Z</time></trkpt><trkpt lat="45.9601298" lon="11.3067453"><ele>1339.0</ele><time>2026-04-26T09:15:04.044Z</time></trkpt><trkpt lat="45.9600677" lon="11.3066334"><ele>1339.0</ele><time>2026-04-26T09:15:05.047Z</time></trkpt><trkpt lat="45.9600335" lon="11.3065213"><ele>1339.0</ele><time>2026-04-26T09:15:06.034Z</time></trkpt><trkpt lat="45.9599752" lon="11.3064164"><ele>1339.0</ele><time>2026-04-26T09:15:07.045Z</time></trkpt><trkpt lat="45.9599195" lon="11.3063158"><ele>1341.6</ele><time>2026-04-26T09:15:08.042Z</time></trkpt><trkpt lat="45.9598674" lon="11.30621"><ele>1344.2</ele><time>2026-04-26T09:15:09.049Z</time></trkpt><trkpt lat="45.9598105" lon="11.3061062"><ele>1346.8</ele><time>2026-04-26T09:15:10.05Z</time></trkpt><trkpt lat="45.9597213" lon="11.3060408"><ele>1349.3999999999999</ele><time>2026-04-26T09:15:11.036Z</time></trkpt><trkpt lat="45.9596196" lon="11.3059983"><ele>1352.0</ele><time>2026-04-26T09:15:12.03Z</time></trkpt><trkpt lat="45.9595096" lon="11.3059774"><ele>1352.0</ele><time>2026-04-26T09:15:13.033Z</time></trkpt><trkpt lat="45.9594115" lon="11.305938"><ele>1352.0</ele><time>2026-04-26T09:15:14.05Z</time></trkpt><trkpt lat="45.9593235" lon="11.3058686"><ele>1352.0</ele><time>2026-04-26T09:15:15.036Z</time></trkpt><trkpt lat="45.9592432" lon="11.3057719"><ele>1352.0</ele><time>2026-04-26T09:15:16.042Z</time></trkpt><trkpt lat="45.9591778" lon="11.3056585"><ele>1352.0</ele><time>2026-04-26T09:15:17.035Z</time></trkpt><trkpt lat="45.959123" lon="11.3055327"><ele>1352.1999999999998</ele><time>2026-04-26T09:15:18.033Z</time></trkpt><trkpt lat="45.9590782" lon="11.3054239"><ele>1352.4</ele><time>2026-04-26T09:15:19.039Z</time></trkpt><trkpt lat="45.9590498" lon="11.3052959"><ele>1352.6</ele><time>2026-04-26T09:15:20.056Z</time></trkpt><trkpt lat="45.9590684" lon="11.3051492"><ele>1352.8000000000002</ele><time>2026-04-26T09:15:21.031Z</time></trkpt><trkpt lat="45.9590516" lon="11.3049764"><ele>1353.0</ele><time>2026-04-26T09:15:22.043Z</time></trkpt><trkpt lat="45.9590326" lon="11.3047958"><ele>1353.0</ele><time>2026-04-26T09:15:23.02Z</time></trkpt><trkpt lat="45.9590076" lon="11.304615"><ele>1353.0</ele><time>2026-04-26T09:15:24.047Z</time></trkpt><trkpt lat="45.9589906" lon="11.3044293"><ele>1353.0</ele><time>2026-04-26T09:15:25.041Z</time></trkpt><trkpt lat="45.9589527" lon="11.3042626"><ele>1353.0</ele><time>2026-04-26T09:15:26.047Z</time></trkpt><trkpt lat="45.9588967" lon="11.3040973"><ele>1353.0</ele><time>2026-04-26T09:15:27.047Z</time></trkpt><trkpt lat="45.9588308" lon="11.3039448"><ele>1353.0</ele><time>2026-04-26T09:15:28.039Z</time></trkpt><trkpt lat="45.9587452" lon="11.3038137"><ele>1353.0</ele><time>2026-04-26T09:15:29.041Z</time></trkpt><trkpt lat="45.9586579" lon="11.3036862"><ele>1353.0</ele><time>2026-04-26T09:15:30.045Z</time></trkpt><trkpt lat="45.9585893" lon="11.3035562"><ele>1351.3333333333333</ele><time>2026-04-26T09:15:31.05Z</time></trkpt><trkpt lat="45.9585344" lon="11.3034501"><ele>1349.6666666666667</ele><time>2026-04-26T09:15:32.04Z</time></trkpt><trkpt lat="45.9584896" lon="11.3033765"><ele>1348.0</ele><time>2026-04-26T09:15:33.044Z</time></trkpt><trkpt lat="45.9584074" lon="11.3033004"><ele>1346.3333333333335</ele><time>2026-04-26T09:15:35.041Z</time></trkpt><trkpt lat="45.9583314" lon="11.3032249"><ele>1344.6666666666667</ele><time>2026-04-26T09:15:37.044Z</time></trkpt><trkpt lat="45.9583061" lon="11.3031305"><ele>1343.0</ele><time>2026-04-26T09:15:39.068Z</time></trkpt><trkpt lat="45.9583494" lon="11.3030634"><ele>1339.4</ele><time>2026-04-26T09:15:40.033Z</time></trkpt><trkpt lat="45.9584227" lon="11.3030434"><ele>1335.8000000000002</ele><time>2026-04-26T09:15:41.048Z</time></trkpt><trkpt lat="45.9585154" lon="11.3030239"><ele>1332.2</ele><time>2026-04-26T09:15:42.056Z</time></trkpt><trkpt lat="45.9586249" lon="11.3030015"><ele>1328.6</ele><time>2026-04-26T09:15:43.035Z</time></trkpt><trkpt lat="45.9587359" lon="11.3029652"><ele>1325.0</ele><time>2026-04-26T09:15:44.041Z</time></trkpt><trkpt lat="45.9588333" lon="11.3029114"><ele>1325.0</ele><time>2026-04-26T09:15:45.041Z</time></trkpt><trkpt lat="45.9589203" lon="11.302826"><ele>1325.0</ele><time>2026-04-26T09:15:46.041Z</time></trkpt><trkpt lat="45.9590079" lon="11.3027175"><ele>1325.0</ele><time>2026-04-26T09:15:47.046Z</time></trkpt><trkpt lat="45.9590913" lon="11.3025686"><ele>1325.0</ele><time>2026-04-26T09:15:48.052Z</time></trkpt><trkpt lat="45.9591766" lon="11.3024201"><ele>1325.25</ele><time>2026-04-26T09:15:49.033Z</time></trkpt><trkpt lat="45.9592656" lon="11.3022936"><ele>1325.5</ele><time>2026-04-26T09:15:50.036Z</time></trkpt><trkpt lat="45.959365" lon="11.3021752"><ele>1325.75</ele><time>2026-04-26T09:15:51.044Z</time></trkpt><trkpt lat="45.9594749" lon="11.3020915"><ele>1326.0</ele><time>2026-04-26T09:15:52.05Z</time></trkpt><trkpt lat="45.959562" lon="11.3020079"><ele>1322.1999999999998</ele><time>2026-04-26T09:15:53.05Z</time></trkpt><trkpt lat="45.9596272" lon="11.3019547"><ele>1318.3999999999999</ele><time>2026-04-26T09:15:54.041Z</time></trkpt><trkpt lat="45.959718" lon="11.30191"><ele>1314.6</ele><time>2026-04-26T09:15:56.057Z</time></trkpt><trkpt lat="45.9598426" lon="11.3018453"><ele>1310.8</ele><time>2026-04-26T09:15:58.035Z</time></trkpt><trkpt lat="45.9599077" lon="11.3018202"><ele>1307.0</ele><time>2026-04-26T09:15:59.039Z</time></trkpt><trkpt lat="45.9600135" lon="11.3017932"><ele>1301.1999999999998</ele><time>2026-04-26T09:16:01.055Z</time></trkpt><trkpt lat="45.9600987" lon="11.301707"><ele>1295.3999999999999</ele><time>2026-04-26T09:16:03.049Z</time></trkpt><trkpt lat="45.9601075" lon="11.3015503"><ele>1289.6</ele><time>2026-04-26T09:16:05.039Z</time></trkpt><trkpt lat="45.9600967" lon="11.3013749"><ele>1283.8</ele><time>2026-04-26T09:16:07.04Z</time></trkpt><trkpt lat="45.9600784" lon="11.3012835"><ele>1278.0</ele><time>2026-04-26T09:16:08.039Z</time></trkpt><trkpt lat="45.9600585" lon="11.3011913"><ele>1277.2</ele><time>2026-04-26T09:16:09.047Z</time></trkpt><trkpt lat="45.9600507" lon="11.3010731"><ele>1276.4</ele><time>2026-04-26T09:16:10.054Z</time></trkpt><trkpt lat="45.9600182" lon="11.3009495"><ele>1275.6000000000001</ele><time>2026-04-26T09:16:11.043Z</time></trkpt><trkpt lat="45.9599768" lon="11.3008301"><ele>1274.8</ele><time>2026-04-26T09:16:12.039Z</time></trkpt><trkpt lat="45.9599155" lon="11.3007218"><ele>1274.0</ele><time>2026-04-26T09:16:13.042Z</time></trkpt><trkpt lat="45.9598578" lon="11.3006083"><ele>1277.4</ele><time>2026-04-26T09:16:14.064Z</time></trkpt><trkpt lat="45.9598065" lon="11.3004925"><ele>1280.8000000000002</ele><time>2026-04-26T09:16:15.032Z</time></trkpt><trkpt lat="45.95976" lon="11.3003726"><ele>1284.1999999999998</ele><time>2026-04-26T09:16:16.034Z</time></trkpt><trkpt lat="45.9597352" lon="11.3002236"><ele>1287.6</ele><time>2026-04-26T09:16:17.036Z</time></trkpt><trkpt lat="45.9597495" lon="11.3000496"><ele>1291.0</ele><time>2026-04-26T09:16:18.05Z</time></trkpt><trkpt lat="45.9597633" lon="11.2998621"><ele>1288.5</ele><time>2026-04-26T09:16:19.03Z</time></trkpt><trkpt lat="45.9597863" lon="11.29967"><ele>1286.0</ele><time>2026-04-26T09:16:20.059Z</time></trkpt><trkpt lat="45.959798" lon="11.2994783"><ele>1283.5</ele><time>2026-04-26T09:16:21.042Z</time></trkpt><trkpt lat="45.9598014" lon="11.2992868"><ele>1281.0</ele><time>2026-04-26T09:16:22.034Z</time></trkpt><trkpt lat="45.9597938" lon="11.2991032"><ele>1281.0</ele><time>2026-04-26T09:16:23.04Z</time></trkpt><trkpt lat="45.9598147" lon="11.298942"><ele>1281.0</ele><time>2026-04-26T09:16:24.021Z</time></trkpt><trkpt lat="45.9598573" lon="11.2988074"><ele>1281.0</ele><time>2026-04-26T09:16:25.045Z</time></trkpt><trkpt lat="45.9599056" lon="11.2986919"><ele>1281.0</ele><time>2026-04-26T09:16:26.051Z</time></trkpt><trkpt lat="45.959934" lon="11.2985739"><ele>1281.0</ele><time>2026-04-26T09:16:27.032Z</time></trkpt><trkpt lat="45.959943" lon="11.2984588"><ele>1279.8333333333333</ele><time>2026-04-26T09:16:28.044Z</time></trkpt><trkpt lat="45.9599261" lon="11.2983496"><ele>1278.6666666666667</ele><time>2026-04-26T09:16:29.042Z</time></trkpt><trkpt lat="45.9598979" lon="11.298247"><ele>1277.5</ele><time>2026-04-26T09:16:30.034Z</time></trkpt><trkpt lat="45.959858" lon="11.2981539"><ele>1276.3333333333335</ele><time>2026-04-26T09:16:31.037Z</time></trkpt><trkpt lat="45.9598315" lon="11.2980579"><ele>1275.1666666666667</ele><time>2026-04-26T09:16:32.042Z</time></trkpt><trkpt lat="45.9598295" lon="11.2979531"><ele>1274.0</ele><time>2026-04-26T09:16:33.044Z</time></trkpt><trkpt lat="45.9598711" lon="11.2978559"><ele>1272.3333333333335</ele><time>2026-04-26T09:16:34.038Z</time></trkpt><trkpt lat="45.9599288" lon="11.2977864"><ele>1270.6666666666667</ele><time>2026-04-26T09:16:35.027Z</time></trkpt><trkpt lat="45.9600101" lon="11.2977222"><ele>1269.0</ele><time>2026-04-26T09:16:36.033Z</time></trkpt><trkpt lat="45.9600972" lon="11.297681"><ele>1267.3333333333333</ele><time>2026-04-26T09:16:37.029Z</time></trkpt><trkpt lat="45.9601733" lon="11.2976826"><ele>1265.6666666666665</ele><time>2026-04-26T09:16:38.041Z</time></trkpt><trkpt lat="45.9602367" lon="11.2976678"><ele>1264.0</ele><time>2026-04-26T09:16:39.039Z</time></trkpt><trkpt lat="45.9603083" lon="11.2976543"><ele>1263.2</ele><time>2026-04-26T09:16:40.037Z</time></trkpt><trkpt lat="45.9603929" lon="11.2976056"><ele>1262.4</ele><time>2026-04-26T09:16:41.035Z</time></trkpt><trkpt lat="45.9604832" lon="11.2975701"><ele>1261.6</ele><time>2026-04-26T09:16:42.039Z</time></trkpt><trkpt lat="45.9605807" lon="11.2975375"><ele>1260.8</ele><time>2026-04-26T09:16:43.037Z</time></trkpt><trkpt lat="45.9606825" lon="11.2975046"><ele>1260.0</ele><time>2026-04-26T09:16:44.044Z</time></trkpt><trkpt lat="45.9607972" lon="11.2974818"><ele>1258.5</ele><time>2026-04-26T09:16:45.045Z</time></trkpt><trkpt lat="45.96091" lon="11.2974564"><ele>1257.0</ele><time>2026-04-26T09:16:46.068Z</time></trkpt><trkpt lat="45.9610227" lon="11.2974213"><ele>1255.5</ele><time>2026-04-26T09:16:47.048Z</time></trkpt><trkpt lat="45.9611345" lon="11.2973802"><ele>1254.0</ele><time>2026-04-26T09:16:48.052Z</time></trkpt><trkpt lat="45.9612595" lon="11.2973936"><ele>1254.0</ele><time>2026-04-26T09:16:49.037Z</time></trkpt><trkpt lat="45.9613832" lon="11.2973785"><ele>1254.0</ele><time>2026-04-26T09:16:50.043Z</time></trkpt><trkpt lat="45.9615089" lon="11.2973566"><ele>1254.0</ele><time>2026-04-26T09:16:51.045Z</time></trkpt><trkpt lat="45.9616355" lon="11.2973353"><ele>1254.0</ele><time>2026-04-26T09:16:52.031Z</time></trkpt><trkpt lat="45.961767" lon="11.2973169"><ele>1254.25</ele><time>2026-04-26T09:16:53.046Z</time></trkpt><trkpt lat="45.9619014" lon="11.297311"><ele>1254.5</ele><time>2026-04-26T09:16:54.049Z</time></trkpt><trkpt lat="45.9620387" lon="11.2973151"><ele>1254.75</ele><time>2026-04-26T09:16:55.047Z</time></trkpt><trkpt lat="45.9621757" lon="11.2973212"><ele>1255.0</ele><time>2026-04-26T09:16:56.045Z</time></trkpt><trkpt lat="45.9623143" lon="11.2973412"><ele>1255.0</ele><time>2026-04-26T09:16:57.05Z</time></trkpt><trkpt lat="45.9624514" lon="11.2973697"><ele>1255.0</ele><time>2026-04-26T09:16:58.038Z</time></trkpt><trkpt lat="45.9625776" lon="11.2973915"><ele>1255.0</ele><time>2026-04-26T09:16:59.052Z</time></trkpt><trkpt lat="45.9626745" lon="11.2974142"><ele>1255.0</ele><time>2026-04-26T09:17:00.05Z</time></trkpt><trkpt lat="45.962766" lon="11.2974564"><ele>1255.7142857142858</ele><time>2026-04-26T09:17:02.053Z</time></trkpt><trkpt lat="45.9628386" lon="11.2974679"><ele>1256.4285714285713</ele><time>2026-04-26T09:17:04.046Z</time></trkpt><trkpt lat="45.9629031" lon="11.2974807"><ele>1257.142857142857</ele><time>2026-04-26T09:17:06.038Z</time></trkpt><trkpt lat="45.9629709" lon="11.2974749"><ele>1257.857142857143</ele><time>2026-04-26T09:17:08.037Z</time></trkpt><trkpt lat="45.9630354" lon="11.2974468"><ele>1258.5714285714284</ele><time>2026-04-26T09:17:10.041Z</time></trkpt><trkpt lat="45.9630932" lon="11.2974039"><ele>1259.2857142857142</ele><time>2026-04-26T09:17:12.032Z</time></trkpt><trkpt lat="45.9631594" lon="11.2973327"><ele>1260.0</ele><time>2026-04-26T09:17:15.026Z</time></trkpt><trkpt lat="45.9632354" lon="11.2972813"><ele>1259.1666666666667</ele><time>2026-04-26T09:17:20.04Z</time></trkpt><trkpt lat="45.9633039" lon="11.2972143"><ele>1258.3333333333333</ele><time>2026-04-26T09:17:23.042Z</time></trkpt><trkpt lat="45.9633841" lon="11.2971756"><ele>1257.5</ele><time>2026-04-26T09:17:25.054Z</time></trkpt><trkpt lat="45.9634596" lon="11.2971392"><ele>1256.6666666666665</ele><time>2026-04-26T09:17:27.045Z</time></trkpt><trkpt lat="45.9635349" lon="11.297132"><ele>1255.8333333333333</ele><time>2026-04-26T09:17:29.045Z</time></trkpt><trkpt lat="45.9636319" lon="11.2970689"><ele>1255.0</ele><time>2026-04-26T09:17:31.044Z</time></trkpt><trkpt lat="45.9636836" lon="11.2969977"><ele>1258.4</ele><time>2026-04-26T09:17:32.052Z</time></trkpt><trkpt lat="45.9637305" lon="11.2968997"><ele>1261.8</ele><time>2026-04-26T09:17:33.023Z</time></trkpt><trkpt lat="45.963771" lon="11.2967875"><ele>1265.2</ele><time>2026-04-26T09:17:34.051Z</time></trkpt><trkpt lat="45.9638108" lon="11.2966718"><ele>1268.6</ele><time>2026-04-26T09:17:35.057Z</time></trkpt><trkpt lat="45.9638533" lon="11.2965531"><ele>1272.0</ele><time>2026-04-26T09:17:36.05Z</time></trkpt><trkpt lat="45.9639191" lon="11.2964387"><ele>1270.0</ele><time>2026-04-26T09:17:37.033Z</time></trkpt><trkpt lat="45.9640049" lon="11.2963306"><ele>1268.0</ele><time>2026-04-26T09:17:38.039Z</time></trkpt><trkpt lat="45.9640901" lon="11.2962166"><ele>1266.0</ele><time>2026-04-26T09:17:39.042Z</time></trkpt><trkpt lat="45.9641765" lon="11.2961075"><ele>1264.0</ele><time>2026-04-26T09:17:40.041Z</time></trkpt><trkpt lat="45.9642734" lon="11.2960079"><ele>1268.6</ele><time>2026-04-26T09:17:41.045Z</time></trkpt><trkpt lat="45.9643827" lon="11.2959221"><ele>1273.2</ele><time>2026-04-26T09:17:42.057Z</time></trkpt><trkpt lat="45.9644849" lon="11.2958518"><ele>1277.8</ele><time>2026-04-26T09:17:43.034Z</time></trkpt><trkpt lat="45.9645805" lon="11.2957902"><ele>1282.3999999999999</ele><time>2026-04-26T09:17:44.035Z</time></trkpt><trkpt lat="45.9646677" lon="11.2957177"><ele>1287.0</ele><time>2026-04-26T09:17:45.035Z</time></trkpt><trkpt lat="45.9647517" lon="11.2956314"><ele>1285.6</ele><time>2026-04-26T09:17:46.033Z</time></trkpt><trkpt lat="45.9648215" lon="11.2955132"><ele>1284.1999999999998</ele><time>2026-04-26T09:17:47.042Z</time></trkpt><trkpt lat="45.964887" lon="11.2953912"><ele>1282.8</ele><time>2026-04-26T09:17:48.042Z</time></trkpt><trkpt lat="45.9649513" lon="11.2952716"><ele>1281.4</ele><time>2026-04-26T09:17:49.035Z</time></trkpt><trkpt lat="45.9650187" lon="11.2951627"><ele>1280.0</ele><time>2026-04-26T09:17:50.035Z</time></trkpt><trkpt lat="45.9650899" lon="11.2950663"><ele>1280.0</ele><time>2026-04-26T09:17:51.031Z</time></trkpt><trkpt lat="45.9651638" lon="11.29498"><ele>1280.0</ele><time>2026-04-26T09:17:52.041Z</time></trkpt><trkpt lat="45.9652482" lon="11.2948997"><ele>1280.0</ele><time>2026-04-26T09:17:53.042Z</time></trkpt><trkpt lat="45.9653267" lon="11.2948244"><ele>1280.0</ele><time>2026-04-26T09:17:54.043Z</time></trkpt><trkpt lat="45.9654158" lon="11.2947527"><ele>1280.0</ele><time>2026-04-26T09:17:55.037Z</time></trkpt><trkpt lat="45.9655065" lon="11.294691"><ele>1277.25</ele><time>2026-04-26T09:17:56.03Z</time></trkpt><trkpt lat="45.9656325" lon="11.2946836"><ele>1274.5</ele><time>2026-04-26T09:17:57.033Z</time></trkpt><trkpt lat="45.9657549" lon="11.2946766"><ele>1271.75</ele><time>2026-04-26T09:17:58.03Z</time></trkpt><trkpt lat="45.9658733" lon="11.2946697"><ele>1269.0</ele><time>2026-04-26T09:17:59.042Z</time></trkpt><trkpt lat="45.9659911" lon="11.2946451"><ele>1263.75</ele><time>2026-04-26T09:18:00.043Z</time></trkpt><trkpt lat="45.9661098" lon="11.2946344"><ele>1258.5</ele><time>2026-04-26T09:18:01.04Z</time></trkpt><trkpt lat="45.9662292" lon="11.2946415"><ele>1253.25</ele><time>2026-04-26T09:18:02.036Z</time></trkpt><trkpt lat="45.9663396" lon="11.2946699"><ele>1248.0</ele><time>2026-04-26T09:18:03.021Z</time></trkpt><trkpt lat="45.9664384" lon="11.2946876"><ele>1250.2</ele><time>2026-04-26T09:18:04.056Z</time></trkpt><trkpt lat="45.9665277" lon="11.2947579"><ele>1252.4</ele><time>2026-04-26T09:18:05.043Z</time></trkpt><trkpt lat="45.9665991" lon="11.2948649"><ele>1254.6000000000001</ele><time>2026-04-26T09:18:06.048Z</time></trkpt><trkpt lat="45.9666591" lon="11.2950008"><ele>1256.8</ele><time>2026-04-26T09:18:07.047Z</time></trkpt><trkpt lat="45.9667093" lon="11.2951338"><ele>1259.0</ele><time>2026-04-26T09:18:08.059Z</time></trkpt><trkpt lat="45.9667552" lon="11.2952533"><ele>1259.0</ele><time>2026-04-26T09:18:09.04Z</time></trkpt><trkpt lat="45.9668282" lon="11.2953383"><ele>1259.0</ele><time>2026-04-26T09:18:10.036Z</time></trkpt><trkpt lat="45.966898" lon="11.295406"><ele>1259.0</ele><time>2026-04-26T09:18:11.042Z</time></trkpt><trkpt lat="45.9669778" lon="11.2954244"><ele>1259.0</ele><time>2026-04-26T09:18:12.099Z</time></trkpt><trkpt lat="45.9670583" lon="11.295435"><ele>1259.0</ele><time>2026-04-26T09:18:13.034Z</time></trkpt><trkpt lat="45.9671555" lon="11.2953664"><ele>1259.0</ele><time>2026-04-26T09:18:14.036Z</time></trkpt><trkpt lat="45.9672497" lon="11.2952757"><ele>1259.0</ele><time>2026-04-26T09:18:15.036Z</time></trkpt><trkpt lat="45.9673385" lon="11.2951668"><ele>1259.0</ele><time>2026-04-26T09:18:16.039Z</time></trkpt><trkpt lat="45.9674179" lon="11.2950051"><ele>1259.0</ele><time>2026-04-26T09:18:17.04Z</time></trkpt><trkpt lat="45.9674735" lon="11.2948495"><ele>1259.0</ele><time>2026-04-26T09:18:18.057Z</time></trkpt><trkpt lat="45.967544" lon="11.2947101"><ele>1256.6000000000001</ele><time>2026-04-26T09:18:19.046Z</time></trkpt><trkpt lat="45.9676107" lon="11.2945869"><ele>1254.2</ele><time>2026-04-26T09:18:20.033Z</time></trkpt><trkpt lat="45.967673" lon="11.2944747"><ele>1251.8000000000002</ele><time>2026-04-26T09:18:21.037Z</time></trkpt><trkpt lat="45.9677354" lon="11.2943769"><ele>1249.4</ele><time>2026-04-26T09:18:22.04Z</time></trkpt><trkpt lat="45.9677975" lon="11.2942975"><ele>1247.0</ele><time>2026-04-26T09:18:23.042Z</time></trkpt><trkpt lat="45.9678499" lon="11.2942033"><ele>1247.0</ele><time>2026-04-26T09:18:24.039Z</time></trkpt><trkpt lat="45.9678915" lon="11.2940806"><ele>1247.0</ele><time>2026-04-26T09:18:25.035Z</time></trkpt><trkpt lat="45.9679178" lon="11.293937"><ele>1247.0</ele><time>2026-04-26T09:18:26.044Z</time></trkpt><trkpt lat="45.967946" lon="11.293794"><ele>1247.0</ele><time>2026-04-26T09:18:27.041Z</time></trkpt><trkpt lat="45.9679648" lon="11.2936755"><ele>1247.0</ele><time>2026-04-26T09:18:28.035Z</time></trkpt><trkpt lat="45.967975" lon="11.2935643"><ele>1241.0</ele><time>2026-04-26T09:18:29.032Z</time></trkpt><trkpt lat="45.9679893" lon="11.2934691"><ele>1235.0</ele><time>2026-04-26T09:18:30.038Z</time></trkpt><trkpt lat="45.9680932" lon="11.2933949"><ele>1229.0</ele><time>2026-04-26T09:18:32.049Z</time></trkpt><trkpt lat="45.9682232" lon="11.2933743"><ele>1223.0</ele><time>2026-04-26T09:18:34.035Z</time></trkpt><trkpt lat="45.9682976" lon="11.2933629"><ele>1217.0</ele><time>2026-04-26T09:18:35.031Z</time></trkpt><trkpt lat="45.96837" lon="11.2933714"><ele>1215.1666666666667</ele><time>2026-04-26T09:18:36.033Z</time></trkpt><trkpt lat="45.9684452" lon="11.2933954"><ele>1213.3333333333335</ele><time>2026-04-26T09:18:37.045Z</time></trkpt><trkpt lat="45.9685242" lon="11.293427"><ele>1211.5</ele><time>2026-04-26T09:18:38.04Z</time></trkpt><trkpt lat="45.9686082" lon="11.2934646"><ele>1209.6666666666667</ele><time>2026-04-26T09:18:39.037Z</time></trkpt><trkpt lat="45.9686745" lon="11.2935155"><ele>1207.8333333333333</ele><time>2026-04-26T09:18:40.046Z</time></trkpt><trkpt lat="45.9687718" lon="11.2935999"><ele>1206.0</ele><time>2026-04-26T09:18:42.043Z</time></trkpt><trkpt lat="45.9688885" lon="11.2936668"><ele>1206.0</ele><time>2026-04-26T09:18:44.039Z</time></trkpt><trkpt lat="45.9689998" lon="11.2937031"><ele>1206.0</ele><time>2026-04-26T09:18:46.032Z</time></trkpt><trkpt lat="45.9691055" lon="11.2937291"><ele>1206.0</ele><time>2026-04-26T09:18:48.04Z</time></trkpt><trkpt lat="45.9691697" lon="11.293723"><ele>1206.0</ele><time>2026-04-26T09:18:49.036Z</time></trkpt><trkpt lat="45.9692965" lon="11.2937175"><ele>1206.0</ele><time>2026-04-26T09:18:51.035Z</time></trkpt><trkpt lat="45.9693665" lon="11.2937046"><ele>1204.6666666666667</ele><time>2026-04-26T09:18:52.039Z</time></trkpt><trkpt lat="45.9694845" lon="11.2937219"><ele>1203.3333333333333</ele><time>2026-04-26T09:18:54.047Z</time></trkpt><trkpt lat="45.9695419" lon="11.2937982"><ele>1202.0</ele><time>2026-04-26T09:18:55.027Z</time></trkpt><trkpt lat="45.9696067" lon="11.2938332"><ele>1200.6666666666665</ele><time>2026-04-26T09:18:56.042Z</time></trkpt><trkpt lat="45.9696773" lon="11.2938411"><ele>1199.3333333333333</ele><time>2026-04-26T09:18:57.035Z</time></trkpt><trkpt lat="45.969747" lon="11.2938165"><ele>1198.0</ele><time>2026-04-26T09:18:58.036Z</time></trkpt><trkpt lat="45.9698231" lon="11.2937899"><ele>1198.0</ele><time>2026-04-26T09:18:59.038Z</time></trkpt><trkpt lat="45.9699047" lon="11.2937849"><ele>1198.0</ele><time>2026-04-26T09:19:00.044Z</time></trkpt><trkpt lat="45.9699878" lon="11.2937669"><ele>1198.0</ele><time>2026-04-26T09:19:01.032Z</time></trkpt><trkpt lat="45.9700721" lon="11.2937333"><ele>1198.0</ele><time>2026-04-26T09:19:02.027Z</time></trkpt><trkpt lat="45.9701586" lon="11.2936935"><ele>1198.0</ele><time>2026-04-26T09:19:03.024Z</time></trkpt><trkpt lat="45.9702519" lon="11.293654"><ele>1198.0</ele><time>2026-04-26T09:19:04.035Z</time></trkpt><trkpt lat="45.9703461" lon="11.2936103"><ele>1198.4</ele><time>2026-04-26T09:19:05.037Z</time></trkpt><trkpt lat="45.9704407" lon="11.2935761"><ele>1198.8</ele><time>2026-04-26T09:19:06.029Z</time></trkpt><trkpt lat="45.9705342" lon="11.2935238"><ele>1199.2</ele><time>2026-04-26T09:19:07.04Z</time></trkpt><trkpt lat="45.9706253" lon="11.2934676"><ele>1199.6</ele><time>2026-04-26T09:19:08.039Z</time></trkpt><trkpt lat="45.9707208" lon="11.2934314"><ele>1200.0</ele><time>2026-04-26T09:19:09.047Z</time></trkpt><trkpt lat="45.9708194" lon="11.2933898"><ele>1198.8</ele><time>2026-04-26T09:19:10.038Z</time></trkpt><trkpt lat="45.9709096" lon="11.2933329"><ele>1197.6</ele><time>2026-04-26T09:19:11.049Z</time></trkpt><trkpt lat="45.9709878" lon="11.2932506"><ele>1196.4</ele><time>2026-04-26T09:19:12.031Z</time></trkpt><trkpt lat="45.9710652" lon="11.2931881"><ele>1195.2</ele><time>2026-04-26T09:19:13.041Z</time></trkpt><trkpt lat="45.9711359" lon="11.2930989"><ele>1194.0</ele><time>2026-04-26T09:19:14.055Z</time></trkpt><trkpt lat="45.9712133" lon="11.2930007"><ele>1192.1666666666667</ele><time>2026-04-26T09:19:15.03Z</time></trkpt><trkpt lat="45.9712871" lon="11.2929252"><ele>1190.3333333333333</ele><time>2026-04-26T09:19:16.036Z</time></trkpt><trkpt lat="45.9713666" lon="11.2928739"><ele>1188.5</ele><time>2026-04-26T09:19:17.04Z</time></trkpt><trkpt lat="45.9714428" lon="11.2928411"><ele>1186.6666666666665</ele><time>2026-04-26T09:19:18.029Z</time></trkpt><trkpt lat="45.9715167" lon="11.2928296"><ele>1184.8333333333333</ele><time>2026-04-26T09:19:19.039Z</time></trkpt><trkpt lat="45.9715866" lon="11.2928059"><ele>1183.0</ele><time>2026-04-26T09:19:20.038Z</time></trkpt><trkpt lat="45.9716445" lon="11.292769"><ele>1183.0</ele><time>2026-04-26T09:19:21.033Z</time></trkpt><trkpt lat="45.9716951" lon="11.2926918"><ele>1183.0</ele><time>2026-04-26T09:19:23.044Z</time></trkpt><trkpt lat="45.9715957" lon="11.2926525"><ele>1183.0</ele><time>2026-04-26T09:19:25.053Z</time></trkpt><trkpt lat="45.9715177" lon="11.2926554"><ele>1183.0</ele><time>2026-04-26T09:19:26.045Z</time></trkpt><trkpt lat="45.9714352" lon="11.2926584"><ele>1183.0</ele><time>2026-04-26T09:19:27.042Z</time></trkpt><trkpt lat="45.9713508" lon="11.2926395"><ele>1183.0</ele><time>2026-04-26T09:19:28.047Z</time></trkpt><trkpt lat="45.9712644" lon="11.2926236"><ele>1183.0</ele><time>2026-04-26T09:19:29.034Z</time></trkpt><trkpt lat="45.9711846" lon="11.2926432"><ele>1183.0</ele><time>2026-04-26T09:19:30.037Z</time></trkpt><trkpt lat="45.9711141" lon="11.2927004"><ele>1183.0</ele><time>2026-04-26T09:19:31.042Z</time></trkpt><trkpt lat="45.971055" lon="11.2927693"><ele>1183.0</ele><time>2026-04-26T09:19:32.032Z</time></trkpt><trkpt lat="45.9709931" lon="11.29282"><ele>1183.0</ele><time>2026-04-26T09:19:33.036Z</time></trkpt><trkpt lat="45.9709272" lon="11.2928521"><ele>1183.0</ele><time>2026-04-26T09:19:34.036Z</time></trkpt><trkpt lat="45.9708505" lon="11.292851"><ele>1179.6</ele><time>2026-04-26T09:19:35.033Z</time></trkpt><trkpt lat="45.9707687" lon="11.2928491"><ele>1176.1999999999998</ele><time>2026-04-26T09:19:36.031Z</time></trkpt><trkpt lat="45.9706799" lon="11.2928523"><ele>1172.8</ele><time>2026-04-26T09:19:37.04Z</time></trkpt><trkpt lat="45.9705811" lon="11.2928623"><ele>1169.3999999999999</ele><time>2026-04-26T09:19:38.047Z</time></trkpt><trkpt lat="45.9704862" lon="11.292888"><ele>1166.0</ele><time>2026-04-26T09:19:39.034Z</time></trkpt><trkpt lat="45.9703909" lon="11.2928927"><ele>1166.0</ele><time>2026-04-26T09:19:40.031Z</time></trkpt><trkpt lat="45.9703018" lon="11.2928872"><ele>1166.0</ele><time>2026-04-26T09:19:41.044Z</time></trkpt><trkpt lat="45.970216" lon="11.2928798"><ele>1166.0</ele><time>2026-04-26T09:19:42.033Z</time></trkpt><trkpt lat="45.9701161" lon="11.2928527"><ele>1166.0</ele><time>2026-04-26T09:19:43.046Z</time></trkpt><trkpt lat="45.9700117" lon="11.2927859"><ele>1166.0</ele><time>2026-04-26T09:19:44.032Z</time></trkpt><trkpt lat="45.9699318" lon="11.2926605"><ele>1164.3999999999999</ele><time>2026-04-26T09:19:45.039Z</time></trkpt><trkpt lat="45.9698606" lon="11.2925431"><ele>1162.8</ele><time>2026-04-26T09:19:46.027Z</time></trkpt><trkpt lat="45.9698282" lon="11.2924242"><ele>1161.1999999999998</ele><time>2026-04-26T09:19:47.047Z</time></trkpt><trkpt lat="45.9697574" lon="11.2923374"><ele>1159.6</ele><time>2026-04-26T09:19:48.039Z</time></trkpt><trkpt lat="45.9696831" lon="11.2922539"><ele>1158.0</ele><time>2026-04-26T09:19:49.05Z</time></trkpt><trkpt lat="45.9696143" lon="11.2921858"><ele>1158.0</ele><time>2026-04-26T09:19:50.039Z</time></trkpt><trkpt lat="45.9695023" lon="11.2921767"><ele>1158.0</ele><time>2026-04-26T09:19:52.043Z</time></trkpt><trkpt lat="45.9694273" lon="11.2922656"><ele>1158.0</ele><time>2026-04-26T09:19:54.049Z</time></trkpt><trkpt lat="45.969366" lon="11.2923749"><ele>1158.0</ele><time>2026-04-26T09:19:56.041Z</time></trkpt><trkpt lat="45.9693106" lon="11.292441"><ele>1158.0</ele><time>2026-04-26T09:19:58.044Z</time></trkpt><trkpt lat="45.9692503" lon="11.2923459"><ele>1152.4</ele><time>2026-04-26T09:20:01.046Z</time></trkpt><trkpt lat="45.9693252" lon="11.2921969"><ele>1146.8</ele><time>2026-04-26T09:20:03.038Z</time></trkpt><trkpt lat="45.9693755" lon="11.292111"><ele>1141.2</ele><time>2026-04-26T09:20:04.025Z</time></trkpt><trkpt lat="45.9694404" lon="11.2920339"><ele>1135.6</ele><time>2026-04-26T09:20:05.042Z</time></trkpt><trkpt lat="45.9695266" lon="11.2919879"><ele>1130.0</ele><time>2026-04-26T09:20:06.046Z</time></trkpt><trkpt lat="45.969621" lon="11.2919406"><ele>1130.0</ele><time>2026-04-26T09:20:07.048Z</time></trkpt><trkpt lat="45.969724" lon="11.2919258"><ele>1130.0</ele><time>2026-04-26T09:20:08.033Z</time></trkpt><trkpt lat="45.969823" lon="11.2919148"><ele>1130.0</ele><time>2026-04-26T09:20:09.043Z</time></trkpt><trkpt lat="45.9699128" lon="11.2919334"><ele>1130.0</ele><time>2026-04-26T09:20:10.041Z</time></trkpt><trkpt lat="45.969997" lon="11.2919871"><ele>1130.0</ele><time>2026-04-26T09:20:11.057Z</time></trkpt><trkpt lat="45.9700835" lon="11.2920378"><ele>1130.0</ele><time>2026-04-26T09:20:12.034Z</time></trkpt><trkpt lat="45.9701826" lon="11.2920651"><ele>1130.0</ele><time>2026-04-26T09:20:13.035Z</time></trkpt><trkpt lat="45.9702766" lon="11.2920445"><ele>1130.0</ele><time>2026-04-26T09:20:14.038Z</time></trkpt><trkpt lat="45.9703765" lon="11.2920435"><ele>1130.0</ele><time>2026-04-26T09:20:15.043Z</time></trkpt><trkpt lat="45.970485" lon="11.2920192"><ele>1130.0</ele><time>2026-04-26T09:20:16.048Z</time></trkpt><trkpt lat="45.970603" lon="11.2919257"><ele>1130.0</ele><time>2026-04-26T09:20:17.038Z</time></trkpt><trkpt lat="45.9707223" lon="11.2918453"><ele>1130.0</ele><time>2026-04-26T09:20:18.038Z</time></trkpt><trkpt lat="45.9708404" lon="11.291772"><ele>1130.0</ele><time>2026-04-26T09:20:19.036Z</time></trkpt><trkpt lat="45.970959" lon="11.2916963"><ele>1130.0</ele><time>2026-04-26T09:20:20.034Z</time></trkpt><trkpt lat="45.9710751" lon="11.2916434"><ele>1131.75</ele><time>2026-04-26T09:20:21.036Z</time></trkpt><trkpt lat="45.9711929" lon="11.2916026"><ele>1133.5</ele><time>2026-04-26T09:20:22.03Z</time></trkpt><trkpt lat="45.9713118" lon="11.2915922"><ele>1135.25</ele><time>2026-04-26T09:20:23.062Z</time></trkpt><trkpt lat="45.9714278" lon="11.291567"><ele>1137.0</ele><time>2026-04-26T09:20:24.035Z</time></trkpt><trkpt lat="45.9715428" lon="11.2915468"><ele>1137.0</ele><time>2026-04-26T09:20:25.037Z</time></trkpt><trkpt lat="45.9716477" lon="11.2915142"><ele>1137.0</ele><time>2026-04-26T09:20:26.034Z</time></trkpt><trkpt lat="45.971744" lon="11.291475"><ele>1137.0</ele><time>2026-04-26T09:20:27.032Z</time></trkpt><trkpt lat="45.9718193" lon="11.2913895"><ele>1137.0</ele><time>2026-04-26T09:20:28.044Z</time></trkpt><trkpt lat="45.9718994" lon="11.2913218"><ele>1137.0</ele><time>2026-04-26T09:20:29.048Z</time></trkpt><trkpt lat="45.9719587" lon="11.2912275"><ele>1128.0</ele><time>2026-04-26T09:20:30.025Z</time></trkpt><trkpt lat="45.9720224" lon="11.2911533"><ele>1119.0</ele><time>2026-04-26T09:20:31.042Z</time></trkpt><trkpt lat="45.9721045" lon="11.2911053"><ele>1110.0</ele><time>2026-04-26T09:20:32.038Z</time></trkpt><trkpt lat="45.9721918" lon="11.2910759"><ele>1101.0</ele><time>2026-04-26T09:20:33.039Z</time></trkpt><trkpt lat="45.9722838" lon="11.2910454"><ele>1092.0</ele><time>2026-04-26T09:20:34.039Z</time></trkpt><trkpt lat="45.9723771" lon="11.2910046"><ele>1092.0</ele><time>2026-04-26T09:20:35.048Z</time></trkpt><trkpt lat="45.9724719" lon="11.2909666"><ele>1092.0</ele><time>2026-04-26T09:20:36.055Z</time></trkpt><trkpt lat="45.9725632" lon="11.2909144"><ele>1092.0</ele><time>2026-04-26T09:20:37.044Z</time></trkpt><trkpt lat="45.9726553" lon="11.2908778"><ele>1092.0</ele><time>2026-04-26T09:20:38.031Z</time></trkpt><trkpt lat="45.9727474" lon="11.2908398"><ele>1092.0</ele><time>2026-04-26T09:20:39.03Z</time></trkpt><trkpt lat="45.9728395" lon="11.2907885"><ele>1088.2</ele><time>2026-04-26T09:20:40.038Z</time></trkpt><trkpt lat="45.9729332" lon="11.2907364"><ele>1084.4</ele><time>2026-04-26T09:20:41.036Z</time></trkpt><trkpt lat="45.9730057" lon="11.2906315"><ele>1080.6</ele><time>2026-04-26T09:20:42.033Z</time></trkpt><trkpt lat="45.9730675" lon="11.2904955"><ele>1076.8</ele><time>2026-04-26T09:20:43.042Z</time></trkpt><trkpt lat="45.9731344" lon="11.2903667"><ele>1073.0</ele><time>2026-04-26T09:20:44.051Z</time></trkpt><trkpt lat="45.9731905" lon="11.2902242"><ele>1073.0</ele><time>2026-04-26T09:20:45.03Z</time></trkpt><trkpt lat="45.973248" lon="11.2900967"><ele>1073.0</ele><time>2026-04-26T09:20:46.033Z</time></trkpt><trkpt lat="45.9733082" lon="11.2900003"><ele>1073.0</ele><time>2026-04-26T09:20:47.042Z</time></trkpt><trkpt lat="45.973366" lon="11.2899398"><ele>1073.0</ele><time>2026-04-26T09:20:48.049Z</time></trkpt><trkpt lat="45.9734871" lon="11.2898955"><ele>1073.0</ele><time>2026-04-26T09:20:50.037Z</time></trkpt><trkpt lat="45.9735598" lon="11.2899127"><ele>1072.6</ele><time>2026-04-26T09:20:51.042Z</time></trkpt><trkpt lat="45.9736501" lon="11.2899541"><ele>1072.1999999999998</ele><time>2026-04-26T09:20:52.044Z</time></trkpt><trkpt lat="45.9737413" lon="11.2899855"><ele>1071.8</ele><time>2026-04-26T09:20:53.046Z</time></trkpt><trkpt lat="45.9738252" lon="11.2900637"><ele>1071.3999999999999</ele><time>2026-04-26T09:20:54.046Z</time></trkpt><trkpt lat="45.9739058" lon="11.2901518"><ele>1071.0</ele><time>2026-04-26T09:20:55.032Z</time></trkpt><trkpt lat="45.9739949" lon="11.2901992"><ele>1071.0</ele><time>2026-04-26T09:20:56.034Z</time></trkpt><trkpt lat="45.9740887" lon="11.2902021"><ele>1071.0</ele><time>2026-04-26T09:20:57.042Z</time></trkpt><trkpt lat="45.9741822" lon="11.2901964"><ele>1071.0</ele><time>2026-04-26T09:20:58.037Z</time></trkpt><trkpt lat="45.9742689" lon="11.2901785"><ele>1071.0</ele><time>2026-04-26T09:20:59.027Z</time></trkpt><trkpt lat="45.9743544" lon="11.2901032"><ele>1071.0</ele><time>2026-04-26T09:21:00.043Z</time></trkpt><trkpt lat="45.9744268" lon="11.2900056"><ele>1068.8</ele><time>2026-04-26T09:21:01.037Z</time></trkpt><trkpt lat="45.9744973" lon="11.2899234"><ele>1066.6</ele><time>2026-04-26T09:21:02.041Z</time></trkpt><trkpt lat="45.9745817" lon="11.2898881"><ele>1064.4</ele><time>2026-04-26T09:21:03.03Z</time></trkpt><trkpt lat="45.974677" lon="11.2898928"><ele>1062.2</ele><time>2026-04-26T09:21:04.038Z</time></trkpt><trkpt lat="45.9747777" lon="11.2898738"><ele>1060.0</ele><time>2026-04-26T09:21:05.041Z</time></trkpt><trkpt lat="45.9748759" lon="11.2898662"><ele>1060.0</ele><time>2026-04-26T09:21:06.031Z</time></trkpt><trkpt lat="45.9749641" lon="11.2898815"><ele>1060.0</ele><time>2026-04-26T09:21:07.043Z</time></trkpt><trkpt lat="45.9750442" lon="11.2899213"><ele>1060.0</ele><time>2026-04-26T09:21:08.055Z</time></trkpt><trkpt lat="45.9751216" lon="11.2899742"><ele>1060.0</ele><time>2026-04-26T09:21:09.04Z</time></trkpt><trkpt lat="45.9751969" lon="11.2900221"><ele>1060.0</ele><time>2026-04-26T09:21:10.043Z</time></trkpt><trkpt lat="45.9752669" lon="11.2900983"><ele>1060.0</ele><time>2026-04-26T09:21:11.033Z</time></trkpt><trkpt lat="45.9753431" lon="11.2901594"><ele>1056.0</ele><time>2026-04-26T09:21:12.049Z</time></trkpt><trkpt lat="45.975414" lon="11.2902072"><ele>1052.0</ele><time>2026-04-26T09:21:13.037Z</time></trkpt><trkpt lat="45.9755062" lon="11.2902484"><ele>1048.0</ele><time>2026-04-26T09:21:15.033Z</time></trkpt><trkpt lat="45.9755943" lon="11.2902571"><ele>1044.0</ele><time>2026-04-26T09:21:17.05Z</time></trkpt><trkpt lat="45.9756954" lon="11.2902411"><ele>1040.0</ele><time>2026-04-26T09:21:19.035Z</time></trkpt><trkpt lat="45.9758022" lon="11.2901713"><ele>1031.6666666666667</ele><time>2026-04-26T09:21:21.037Z</time></trkpt><trkpt lat="45.9759158" lon="11.2901169"><ele>1023.3333333333334</ele><time>2026-04-26T09:21:23.038Z</time></trkpt><trkpt lat="45.9759934" lon="11.290078"><ele>1015.0</ele><time>2026-04-26T09:21:25.033Z</time></trkpt><trkpt lat="45.9760597" lon="11.2900786"><ele>1006.6666666666667</ele><time>2026-04-26T09:21:27.032Z</time></trkpt><trkpt lat="45.976126" lon="11.2900202"><ele>998.3333333333334</ele><time>2026-04-26T09:21:29.041Z</time></trkpt><trkpt lat="45.9761694" lon="11.2899238"><ele>990.0</ele><time>2026-04-26T09:21:32.048Z</time></trkpt><trkpt lat="45.9761045" lon="11.2898682"><ele>990.0</ele><time>2026-04-26T09:21:34.064Z</time></trkpt><trkpt lat="45.9760352" lon="11.2898776"><ele>990.0</ele><time>2026-04-26T09:21:35.033Z</time></trkpt><trkpt lat="45.9759496" lon="11.2899274"><ele>990.0</ele><time>2026-04-26T09:21:36.033Z</time></trkpt><trkpt lat="45.9758615" lon="11.289981"><ele>990.0</ele><time>2026-04-26T09:21:37.034Z</time></trkpt><trkpt lat="45.9757779" lon="11.2900375"><ele>990.0</ele><time>2026-04-26T09:21:38.035Z</time></trkpt><trkpt lat="45.9757062" lon="11.2900811"><ele>990.0</ele><time>2026-04-26T09:21:39.047Z</time></trkpt><trkpt lat="45.9756316" lon="11.2900908"><ele>992.0</ele><time>2026-04-26T09:21:40.035Z</time></trkpt><trkpt lat="45.9755429" lon="11.2900593"><ele>994.0</ele><time>2026-04-26T09:21:41.039Z</time></trkpt><trkpt lat="45.9754637" lon="11.2899899"><ele>996.0</ele><time>2026-04-26T09:21:42.052Z</time></trkpt><trkpt lat="45.9753789" lon="11.2899211"><ele>998.0</ele><time>2026-04-26T09:21:43.053Z</time></trkpt><trkpt lat="45.975295" lon="11.2898536"><ele>1000.0</ele><time>2026-04-26T09:21:44.034Z</time></trkpt><trkpt lat="45.9752253" lon="11.2897493"><ele>999.9999999999999</ele><time>2026-04-26T09:21:45.033Z</time></trkpt><trkpt lat="45.9751587" lon="11.2896554"><ele>1000.0</ele><time>2026-04-26T09:21:46.037Z</time></trkpt><trkpt lat="45.975082" lon="11.2895705"><ele>1000.0</ele><time>2026-04-26T09:21:47.036Z</time></trkpt><trkpt lat="45.9750007" lon="11.2895037"><ele>1000.0</ele><time>2026-04-26T09:21:48.031Z</time></trkpt><trkpt lat="45.9749287" lon="11.2894586"><ele>999.9999999999999</ele><time>2026-04-26T09:21:49.04Z</time></trkpt><trkpt lat="45.9748497" lon="11.2894261"><ele>1000.0</ele><time>2026-04-26T09:21:50.029Z</time></trkpt><trkpt lat="45.9747716" lon="11.2893775"><ele>1002.6666666666666</ele><time>2026-04-26T09:21:51.03Z</time></trkpt><trkpt lat="45.9747017" lon="11.2893003"><ele>1005.3333333333333</ele><time>2026-04-26T09:21:52.036Z</time></trkpt><trkpt lat="45.9746384" lon="11.2892278"><ele>1008.0</ele><time>2026-04-26T09:21:53.035Z</time></trkpt><trkpt lat="45.9745827" lon="11.2891572"><ele>1010.6666666666667</ele><time>2026-04-26T09:21:54.042Z</time></trkpt><trkpt lat="45.97452" lon="11.2890785"><ele>1013.3333333333334</ele><time>2026-04-26T09:21:55.027Z</time></trkpt><trkpt lat="45.9744495" lon="11.2890137"><ele>1016.0</ele><time>2026-04-26T09:21:56.038Z</time></trkpt><trkpt lat="45.9743743" lon="11.2889859"><ele>1016.0</ele><time>2026-04-26T09:21:57.029Z</time></trkpt><trkpt lat="45.9743063" lon="11.2889714"><ele>1016.0</ele><time>2026-04-26T09:21:58.038Z</time></trkpt><trkpt lat="45.9742411" lon="11.2889655"><ele>1016.0</ele><time>2026-04-26T09:21:59.024Z</time></trkpt><trkpt lat="45.9741761" lon="11.2889525"><ele>1016.0</ele><time>2026-04-26T09:22:00.049Z</time></trkpt><trkpt lat="45.9741311" lon="11.2890168"><ele>1016.0</ele><time>2026-04-26T09:22:01.041Z</time></trkpt><trkpt lat="45.974104" lon="11.2891048"><ele>1016.0</ele><time>2026-04-26T09:22:02.05Z</time></trkpt><trkpt lat="45.9740745" lon="11.289187"><ele>1016.0</ele><time>2026-04-26T09:22:03.041Z</time></trkpt><trkpt lat="45.9739783" lon="11.2892597"><ele>1018.1999999999999</ele><time>2026-04-26T09:22:05.04Z</time></trkpt><trkpt lat="45.9738604" lon="11.289188"><ele>1020.3999999999999</ele><time>2026-04-26T09:22:07.022Z</time></trkpt><trkpt lat="45.9737961" lon="11.2891322"><ele>1022.6</ele><time>2026-04-26T09:22:08.024Z</time></trkpt><trkpt lat="45.9737099" lon="11.2890904"><ele>1024.8</ele><time>2026-04-26T09:22:09.044Z</time></trkpt><trkpt lat="45.9736178" lon="11.2890732"><ele>1027.0</ele><time>2026-04-26T09:22:10.055Z</time></trkpt><trkpt lat="45.9735394" lon="11.2890667"><ele>1027.0</ele><time>2026-04-26T09:22:11.034Z</time></trkpt><trkpt lat="45.973465" lon="11.2890672"><ele>1027.0</ele><time>2026-04-26T09:22:12.037Z</time></trkpt><trkpt lat="45.9733934" lon="11.2890469"><ele>1027.0</ele><time>2026-04-26T09:22:13.04Z</time></trkpt><trkpt lat="45.9733212" lon="11.2890167"><ele>1027.0</ele><time>2026-04-26T09:22:14.042Z</time></trkpt><trkpt lat="45.9732559" lon="11.2889865"><ele>1027.0</ele><time>2026-04-26T09:22:15.02Z</time></trkpt><trkpt lat="45.973186" lon="11.2889524"><ele>1027.0</ele><time>2026-04-26T09:22:16.041Z</time></trkpt><trkpt lat="45.9731102" lon="11.2889295"><ele>1027.0</ele><time>2026-04-26T09:22:17.047Z</time></trkpt><trkpt lat="45.9730294" lon="11.2889156"><ele>1026.1666666666665</ele><time>2026-04-26T09:22:18.015Z</time></trkpt><trkpt lat="45.9729448" lon="11.2889109"><ele>1025.3333333333333</ele><time>2026-04-26T09:22:19.028Z</time></trkpt><trkpt lat="45.972865" lon="11.2888986"><ele>1024.5</ele><time>2026-04-26T09:22:20.036Z</time></trkpt><trkpt lat="45.9727964" lon="11.2888683"><ele>1023.6666666666667</ele><time>2026-04-26T09:22:22.026Z</time></trkpt><trkpt lat="45.9727053" lon="11.2889401"><ele>1022.8333333333334</ele><time>2026-04-26T09:22:26.053Z</time></trkpt><trkpt lat="45.972625" lon="11.2889117"><ele>1022.0</ele><time>2026-04-26T09:22:28.057Z</time></trkpt><trkpt lat="45.9727339" lon="11.2888782"><ele>1007.0</ele><time>2026-04-26T09:22:32.024Z</time></trkpt><trkpt lat="45.9728436" lon="11.2888546"><ele>992.0</ele><time>2026-04-26T09:22:34.031Z</time></trkpt><trkpt lat="45.9729606" lon="11.288816"><ele>977.0</ele><time>2026-04-26T09:22:36.026Z</time></trkpt><trkpt lat="45.9730334" lon="11.2887973"><ele>962.0</ele><time>2026-04-26T09:22:37.039Z</time></trkpt><trkpt lat="45.9731141" lon="11.2887965"><ele>947.0</ele><time>2026-04-26T09:22:38.023Z</time></trkpt><trkpt lat="45.9731976" lon="11.2888171"><ele>947.0000000000001</ele><time>2026-04-26T09:22:39.032Z</time></trkpt><trkpt lat="45.9732833" lon="11.2888326"><ele>947.0</ele><time>2026-04-26T09:22:40.023Z</time></trkpt><trkpt lat="45.9733724" lon="11.2888126"><ele>947.0</ele><time>2026-04-26T09:22:41.036Z</time></trkpt><trkpt lat="45.9734604" lon="11.288785"><ele>947.0</ele><time>2026-04-26T09:22:42.015Z</time></trkpt><trkpt lat="45.9735401" lon="11.2887376"><ele>947.0000000000001</ele><time>2026-04-26T09:22:43.024Z</time></trkpt><trkpt lat="45.9736151" lon="11.2886685"><ele>947.0</ele><time>2026-04-26T09:22:44.027Z</time></trkpt><trkpt lat="45.9736965" lon="11.2886054"><ele>947.0000000000001</ele><time>2026-04-26T09:22:45.04Z</time></trkpt><trkpt lat="45.9737814" lon="11.2885548"><ele>947.0</ele><time>2026-04-26T09:22:46.056Z</time></trkpt><trkpt lat="45.9738653" lon="11.2885129"><ele>947.0</ele><time>2026-04-26T09:22:47.036Z</time></trkpt><trkpt lat="45.9739421" lon="11.2884818"><ele>947.0</ele><time>2026-04-26T09:22:48.035Z</time></trkpt><trkpt lat="45.9740133" lon="11.288457"><ele>947.0000000000001</ele><time>2026-04-26T09:22:49.038Z</time></trkpt><trkpt lat="45.9740824" lon="11.2884535"><ele>947.0</ele><time>2026-04-26T09:22:50.037Z</time></trkpt><trkpt lat="45.9742015" lon="11.2884819"><ele>947.0000000000001</ele><time>2026-04-26T09:22:52.03Z</time></trkpt><trkpt lat="45.9742692" lon="11.2885079"><ele>947.0</ele><time>2026-04-26T09:22:53.037Z</time></trkpt><trkpt lat="45.9743367" lon="11.2884952"><ele>947.0</ele><time>2026-04-26T09:22:54.014Z</time></trkpt><trkpt lat="45.974431" lon="11.2884585"><ele>947.0</ele><time>2026-04-26T09:22:56.038Z</time></trkpt><trkpt lat="45.9745237" lon="11.2884153"><ele>947.0000000000001</ele><time>2026-04-26T09:22:58.039Z</time></trkpt><trkpt lat="45.974624" lon="11.2884344"><ele>947.0</ele><time>2026-04-26T09:23:00.045Z</time></trkpt><trkpt lat="45.9747339" lon="11.2884554"><ele>947.0000000000001</ele><time>2026-04-26T09:23:02.03Z</time></trkpt><trkpt lat="45.9748438" lon="11.2885051"><ele>947.0</ele><time>2026-04-26T09:23:04.035Z</time></trkpt><trkpt lat="45.9749644" lon="11.2885563"><ele>947.0</ele><time>2026-04-26T09:23:06.046Z</time></trkpt><trkpt lat="45.9750271" lon="11.2885673"><ele>947.0</ele><time>2026-04-26T09:23:07.045Z</time></trkpt><trkpt lat="45.9750926" lon="11.2885567"><ele>947.0000000000001</ele><time>2026-04-26T09:23:08.037Z</time></trkpt><trkpt lat="45.9751615" lon="11.2885219"><ele>947.0</ele><time>2026-04-26T09:23:09.043Z</time></trkpt><trkpt lat="45.9752249" lon="11.2884495"><ele>949.5000000000001</ele><time>2026-04-26T09:23:10.029Z</time></trkpt><trkpt lat="45.9752784" lon="11.288363"><ele>952.0</ele><time>2026-04-26T09:23:11.035Z</time></trkpt><trkpt lat="45.9753392" lon="11.2882843"><ele>954.5</ele><time>2026-04-26T09:23:12.022Z</time></trkpt><trkpt lat="45.9754211" lon="11.2882286"><ele>957.0</ele><time>2026-04-26T09:23:13.031Z</time></trkpt><trkpt lat="45.9755032" lon="11.2881758"><ele>959.5000000000001</ele><time>2026-04-26T09:23:14.028Z</time></trkpt><trkpt lat="45.9755866" lon="11.288136"><ele>962.0</ele><time>2026-04-26T09:23:15.027Z</time></trkpt><trkpt lat="45.9756587" lon="11.2880652"><ele>956.5000000000001</ele><time>2026-04-26T09:23:16.029Z</time></trkpt><trkpt lat="45.9757251" lon="11.2879811"><ele>951.0</ele><time>2026-04-26T09:23:17.031Z</time></trkpt><trkpt lat="45.9757868" lon="11.2878976"><ele>945.5</ele><time>2026-04-26T09:23:18.031Z</time></trkpt><trkpt lat="45.9758376" lon="11.2877952"><ele>940.0</ele><time>2026-04-26T09:23:19.041Z</time></trkpt><trkpt lat="45.9758966" lon="11.2877009"><ele>934.5000000000001</ele><time>2026-04-26T09:23:20.029Z</time></trkpt><trkpt lat="45.9759576" lon="11.2876203"><ele>929.0</ele><time>2026-04-26T09:23:21.026Z</time></trkpt><trkpt lat="45.9760162" lon="11.2875663"><ele>924.8333333333334</ele><time>2026-04-26T09:23:22.021Z</time></trkpt><trkpt lat="45.9761322" lon="11.287541"><ele>920.6666666666667</ele><time>2026-04-26T09:23:24.04Z</time></trkpt><trkpt lat="45.9761723" lon="11.2874342"><ele>916.5</ele><time>2026-04-26T09:23:26.043Z</time></trkpt><trkpt lat="45.9761172" lon="11.2873867"><ele>912.3333333333333</ele><time>2026-04-26T09:23:28.03Z</time></trkpt><trkpt lat="45.9760531" lon="11.2874082"><ele>908.1666666666666</ele><time>2026-04-26T09:23:29.039Z</time></trkpt><trkpt lat="45.9759776" lon="11.2874134"><ele>904.0</ele><time>2026-04-26T09:23:30.034Z</time></trkpt><trkpt lat="45.9759001" lon="11.2874416"><ele>908.1666666666666</ele><time>2026-04-26T09:23:31.026Z</time></trkpt><trkpt lat="45.9758336" lon="11.2875109"><ele>912.3333333333333</ele><time>2026-04-26T09:23:32.045Z</time></trkpt><trkpt lat="45.97576" lon="11.2875947"><ele>916.5</ele><time>2026-04-26T09:23:33.036Z</time></trkpt><trkpt lat="45.9756954" lon="11.2877067"><ele>920.6666666666667</ele><time>2026-04-26T09:23:34.021Z</time></trkpt><trkpt lat="45.9756366" lon="11.2878043"><ele>924.8333333333334</ele><time>2026-04-26T09:23:35.041Z</time></trkpt><trkpt lat="45.9755697" lon="11.2878739"><ele>929.0</ele><time>2026-04-26T09:23:36.034Z</time></trkpt><trkpt lat="45.9754915" lon="11.2879055"><ele>929.0000000000001</ele><time>2026-04-26T09:23:37.048Z</time></trkpt><trkpt lat="45.975404" lon="11.2879069"><ele>929.0</ele><time>2026-04-26T09:23:38.037Z</time></trkpt><trkpt lat="45.9753222" lon="11.2878761"><ele>929.0</ele><time>2026-04-26T09:23:39.03Z</time></trkpt><trkpt lat="45.9752407" lon="11.2878426"><ele>929.0</ele><time>2026-04-26T09:23:40.032Z</time></trkpt><trkpt lat="45.9751515" lon="11.2878611"><ele>929.0000000000001</ele><time>2026-04-26T09:23:41.044Z</time></trkpt><trkpt lat="45.9750635" lon="11.2879179"><ele>929.0</ele><time>2026-04-26T09:23:42.038Z</time></trkpt><trkpt lat="45.9749815" lon="11.2879667"><ele>924.2</ele><time>2026-04-26T09:23:43.031Z</time></trkpt><trkpt lat="45.9749045" lon="11.2880313"><ele>919.4000000000001</ele><time>2026-04-26T09:23:44.05Z</time></trkpt><trkpt lat="45.974808" lon="11.2880338"><ele>914.6</ele><time>2026-04-26T09:23:45.04Z</time></trkpt><trkpt lat="45.9747146" lon="11.2879971"><ele>909.8</ele><time>2026-04-26T09:23:46.028Z</time></trkpt><trkpt lat="45.9746258" lon="11.2879592"><ele>905.0</ele><time>2026-04-26T09:23:47.041Z</time></trkpt><trkpt lat="45.9745358" lon="11.2879145"><ele>905.0</ele><time>2026-04-26T09:23:48.018Z</time></trkpt><trkpt lat="45.9744454" lon="11.2878689"><ele>905.0</ele><time>2026-04-26T09:23:49.047Z</time></trkpt><trkpt lat="45.9743554" lon="11.2878279"><ele>905.0</ele><time>2026-04-26T09:23:50.023Z</time></trkpt><trkpt lat="45.9742662" lon="11.2877974"><ele>905.0</ele><time>2026-04-26T09:23:51.047Z</time></trkpt><trkpt lat="45.9741781" lon="11.2877653"><ele>905.0</ele><time>2026-04-26T09:23:52.024Z</time></trkpt><trkpt lat="45.9740949" lon="11.2877304"><ele>905.0000000000001</ele><time>2026-04-26T09:23:53.037Z</time></trkpt><trkpt lat="45.9740208" lon="11.2877041"><ele>905.0</ele><time>2026-04-26T09:23:54.037Z</time></trkpt><trkpt lat="45.9739558" lon="11.2876904"><ele>905.0</ele><time>2026-04-26T09:23:55.029Z</time></trkpt><trkpt lat="45.9738936" lon="11.2876749"><ele>905.0</ele><time>2026-04-26T09:23:57.035Z</time></trkpt><trkpt lat="45.9740057" lon="11.2876211"><ele>905.0000000000001</ele><time>2026-04-26T09:24:01.03Z</time></trkpt><trkpt lat="45.9740893" lon="11.2876264"><ele>905.0</ele><time>2026-04-26T09:24:02.035Z</time></trkpt><trkpt lat="45.9741916" lon="11.2876249"><ele>905.0</ele><time>2026-04-26T09:24:03.034Z</time></trkpt><trkpt lat="45.9743034" lon="11.2876109"><ele>905.0</ele><time>2026-04-26T09:24:04.014Z</time></trkpt><trkpt lat="45.9744118" lon="11.2875967"><ele>905.0</ele><time>2026-04-26T09:24:05.036Z</time></trkpt><trkpt lat="45.9745178" lon="11.2875936"><ele>905.0</ele><time>2026-04-26T09:24:06.025Z</time></trkpt><trkpt lat="45.9746208" lon="11.2875849"><ele>905.0</ele><time>2026-04-26T09:24:07.051Z</time></trkpt><trkpt lat="45.9747203" lon="11.2875708"><ele>905.0</ele><time>2026-04-26T09:24:08.034Z</time></trkpt><trkpt lat="45.9748168" lon="11.2875405"><ele>905.0</ele><time>2026-04-26T09:24:09.036Z</time></trkpt><trkpt lat="45.9749082" lon="11.2874868"><ele>905.0</ele><time>2026-04-26T09:24:10.029Z</time></trkpt><trkpt lat="45.9749843" lon="11.2874245"><ele>905.0</ele><time>2026-04-26T09:24:11.035Z</time></trkpt><trkpt lat="45.9750393" lon="11.2873618"><ele>905.0</ele><time>2026-04-26T09:24:12.03Z</time></trkpt><trkpt lat="45.9751476" lon="11.2873002"><ele>900.8</ele><time>2026-04-26T09:24:14.028Z</time></trkpt><trkpt lat="45.975242" lon="11.2872281"><ele>896.6</ele><time>2026-04-26T09:24:16.025Z</time></trkpt><trkpt lat="45.9752715" lon="11.287146"><ele>892.4000000000001</ele><time>2026-04-26T09:24:17.028Z</time></trkpt><trkpt lat="45.9752968" lon="11.2869914"><ele>888.2</ele><time>2026-04-26T09:24:19.033Z</time></trkpt><trkpt lat="45.9753503" lon="11.2868697"><ele>884.0</ele><time>2026-04-26T09:24:21.039Z</time></trkpt><trkpt lat="45.9754362" lon="11.2868111"><ele>884.0</ele><time>2026-04-26T09:24:23.04Z</time></trkpt><trkpt lat="45.9755039" lon="11.2867632"><ele>884.0000000000001</ele><time>2026-04-26T09:25:04.036Z</time></trkpt><trkpt lat="45.9755744" lon="11.2867434"><ele>884.0000000000001</ele><time>2026-04-26T09:25:06.034Z</time></trkpt><trkpt lat="45.9756867" lon="11.2867516"><ele>884.0</ele><time>2026-04-26T09:25:08.028Z</time></trkpt><trkpt lat="45.9757595" lon="11.2867876"><ele>884.0</ele><time>2026-04-26T09:25:10.038Z</time></trkpt><trkpt lat="45.9757783" lon="11.287056"><ele>884.0000000000001</ele><time>2026-04-26T09:25:15.02Z</time></trkpt><trkpt lat="45.9758246" lon="11.2869783"><ele>884.0</ele><time>2026-04-26T09:25:16.055Z</time></trkpt><trkpt lat="45.9758684" lon="11.2868707"><ele>884.0</ele><time>2026-04-26T09:25:17.021Z</time></trkpt><trkpt lat="45.9759074" lon="11.2867837"><ele>884.0</ele><time>2026-04-26T09:25:18.03Z</time></trkpt><trkpt lat="45.9759994" lon="11.2866694"><ele>884.0000000000001</ele><time>2026-04-26T09:25:19.034Z</time></trkpt><trkpt lat="45.976071" lon="11.2866105"><ele>884.0</ele><time>2026-04-26T09:25:20.039Z</time></trkpt><trkpt lat="45.9761352" lon="11.2865671"><ele>876.2</ele><time>2026-04-26T09:25:21.022Z</time></trkpt><trkpt lat="45.9761995" lon="11.286561"><ele>868.4000000000001</ele><time>2026-04-26T09:25:22.03Z</time></trkpt><trkpt lat="45.9763073" lon="11.2866298"><ele>860.6</ele><time>2026-04-26T09:25:24.036Z</time></trkpt><trkpt lat="45.9763808" lon="11.2867738"><ele>852.8</ele><time>2026-04-26T09:25:26.026Z</time></trkpt><trkpt lat="45.9764044" lon="11.2868737"><ele>845.0</ele><time>2026-04-26T09:25:27.034Z</time></trkpt><trkpt lat="45.9764424" lon="11.2869701"><ele>845.0</ele><time>2026-04-26T09:25:28.034Z</time></trkpt><trkpt lat="45.9764955" lon="11.2870642"><ele>845.0</ele><time>2026-04-26T09:25:29.036Z</time></trkpt><trkpt lat="45.9765466" lon="11.2871649"><ele>845.0</ele><time>2026-04-26T09:25:30.031Z</time></trkpt><trkpt lat="45.9765915" lon="11.2872817"><ele>845.0</ele><time>2026-04-26T09:25:31.038Z</time></trkpt><trkpt lat="45.9766345" lon="11.2873995"><ele>845.0</ele><time>2026-04-26T09:25:32.05Z</time></trkpt><trkpt lat="45.9766807" lon="11.2875242"><ele>839.3333333333334</ele><time>2026-04-26T09:25:33.032Z</time></trkpt><trkpt lat="45.9767348" lon="11.2876397"><ele>833.6666666666667</ele><time>2026-04-26T09:25:34.041Z</time></trkpt><trkpt lat="45.9768068" lon="11.287719"><ele>828.0</ele><time>2026-04-26T09:25:35.048Z</time></trkpt><trkpt lat="45.976876" lon="11.287783"><ele>822.3333333333333</ele><time>2026-04-26T09:25:36.025Z</time></trkpt><trkpt lat="45.9769402" lon="11.2878369"><ele>816.6666666666666</ele><time>2026-04-26T09:25:37.035Z</time></trkpt><trkpt lat="45.9769968" lon="11.2878877"><ele>811.0</ele><time>2026-04-26T09:25:38.042Z</time></trkpt><trkpt lat="45.977099" lon="11.2879775"><ele>811.0</ele><time>2026-04-26T09:25:40.039Z</time></trkpt><trkpt lat="45.9771628" lon="11.2880905"><ele>811.0</ele><time>2026-04-26T09:25:42.041Z</time></trkpt><trkpt lat="45.977177" lon="11.2882465"><ele>811.0</ele><time>2026-04-26T09:25:44.017Z</time></trkpt><trkpt lat="45.9771793" lon="11.288381"><ele>811.0</ele><time>2026-04-26T09:25:46.031Z</time></trkpt><trkpt lat="45.9771705" lon="11.2885108"><ele>811.0</ele><time>2026-04-26T09:25:48.04Z</time></trkpt><trkpt lat="45.9771465" lon="11.2886718"><ele>817.1666666666666</ele><time>2026-04-26T09:25:50.027Z</time></trkpt><trkpt lat="45.9772013" lon="11.2887738"><ele>823.3333333333333</ele><time>2026-04-26T09:25:52.033Z</time></trkpt><trkpt lat="45.977279" lon="11.2888219"><ele>829.5</ele><time>2026-04-26T09:25:53.049Z</time></trkpt><trkpt lat="45.9773502" lon="11.2888534"><ele>835.6666666666667</ele><time>2026-04-26T09:25:54.031Z</time></trkpt><trkpt lat="45.9774244" lon="11.2888992"><ele>841.8333333333334</ele><time>2026-04-26T09:25:55.036Z</time></trkpt><trkpt lat="45.977493" lon="11.2889627"><ele>848.0</ele><time>2026-04-26T09:25:56.032Z</time></trkpt><trkpt lat="45.9775422" lon="11.2890214"><ele>860.0</ele><time>2026-04-26T09:25:57.054Z</time></trkpt><trkpt lat="45.9776207" lon="11.2891304"><ele>860.0</ele><time>2026-04-26T09:25:59.03Z</time></trkpt><trkpt lat="45.9776693" lon="11.2891881"><ele>860.0</ele><time>2026-04-26T09:26:01.03Z</time></trkpt><trkpt lat="45.977672" lon="11.2894529"><ele>860.0</ele><time>2026-04-26T09:34:40.078Z</time></trkpt></trkseg><trkseg><trkpt lat="45.9915293" lon="11.3000357"><ele>474.0</ele><time>2026-04-26T09:47:46.059Z</time></trkpt><trkpt lat="45.991635" lon="11.2999613"><ele>474.0</ele><time>2026-04-26T09:47:47.036Z</time></trkpt><trkpt lat="45.991741" lon="11.2998867"><ele>474.0</ele><time>2026-04-26T09:47:48.044Z</time></trkpt><trkpt lat="45.9918488" lon="11.2998186"><ele>474.0</ele><time>2026-04-26T09:47:49.04Z</time></trkpt><trkpt lat="45.9919572" lon="11.2997539"><ele>472.5</ele><time>2026-04-26T09:47:50.046Z</time></trkpt><trkpt lat="45.9920629" lon="11.2996825"><ele>471.0</ele><time>2026-04-26T09:47:51.039Z</time></trkpt><trkpt lat="45.9921677" lon="11.2996034"><ele>469.5</ele><time>2026-04-26T09:47:52.049Z</time></trkpt><trkpt lat="45.9922781" lon="11.2995399"><ele>468.0</ele><time>2026-04-26T09:47:53.043Z</time></trkpt><trkpt lat="45.9923912" lon="11.2994691"><ele>468.0</ele><time>2026-04-26T09:47:54.033Z</time></trkpt><trkpt lat="45.9925041" lon="11.2994005"><ele>468.0</ele><time>2026-04-26T09:47:55.052Z</time></trkpt><trkpt lat="45.9926159" lon="11.2993323"><ele>468.0</ele><time>2026-04-26T09:47:56.048Z</time></trkpt><trkpt lat="45.9927289" lon="11.2992663"><ele>468.0</ele><time>2026-04-26T09:47:57.049Z</time></trkpt><trkpt lat="45.9928424" lon="11.2991954"><ele>467.5</ele><time>2026-04-26T09:47:58.04Z</time></trkpt><trkpt lat="45.9929584" lon="11.2991215"><ele>467.0</ele><time>2026-04-26T09:47:59.046Z</time></trkpt><trkpt lat="45.9930796" lon="11.299047"><ele>466.5</ele><time>2026-04-26T09:48:00.057Z</time></trkpt><trkpt lat="45.9932068" lon="11.2989856"><ele>466.0</ele><time>2026-04-26T09:48:01.045Z</time></trkpt><trkpt lat="45.9933376" lon="11.2989139"><ele>462.6666666666667</ele><time>2026-04-26T09:48:02.056Z</time></trkpt><trkpt lat="45.9934766" lon="11.2988347"><ele>459.33333333333337</ele><time>2026-04-26T09:48:03.048Z</time></trkpt><trkpt lat="45.9936155" lon="11.2987374"><ele>456.0</ele><time>2026-04-26T09:48:04.047Z</time></trkpt><trkpt lat="45.993752" lon="11.2986312"><ele>456.0</ele><time>2026-04-26T09:48:05.045Z</time></trkpt><trkpt lat="45.9938942" lon="11.2985475"><ele>456.0</ele><time>2026-04-26T09:48:06.035Z</time></trkpt><trkpt lat="45.9940466" lon="11.2984956"><ele>456.0</ele><time>2026-04-26T09:48:07.051Z</time></trkpt><trkpt lat="45.9941959" lon="11.29843"><ele>453.33333333333337</ele><time>2026-04-26T09:48:08.037Z</time></trkpt><trkpt lat="45.9943452" lon="11.2983627"><ele>450.6666666666667</ele><time>2026-04-26T09:48:09.062Z</time></trkpt><trkpt lat="45.9944884" lon="11.2982762"><ele>448.0</ele><time>2026-04-26T09:48:10.046Z</time></trkpt><trkpt lat="45.9946328" lon="11.298193"><ele>448.0</ele><time>2026-04-26T09:48:11.054Z</time></trkpt><trkpt lat="45.9947768" lon="11.2981064"><ele>448.0</ele><time>2026-04-26T09:48:12.037Z</time></trkpt><trkpt lat="45.994917" lon="11.2980063"><ele>448.0</ele><time>2026-04-26T09:48:13.048Z</time></trkpt><trkpt lat="45.9950642" lon="11.2979151"><ele>447.6666666666667</ele><time>2026-04-26T09:48:14.039Z</time></trkpt><trkpt lat="45.9952092" lon="11.2978219"><ele>447.33333333333337</ele><time>2026-04-26T09:48:15.029Z</time></trkpt><trkpt lat="45.9953507" lon="11.2977257"><ele>447.0</ele><time>2026-04-26T09:48:16.044Z</time></trkpt><trkpt lat="45.9955004" lon="11.2976539"><ele>447.0</ele><time>2026-04-26T09:48:17.039Z</time></trkpt><trkpt lat="45.9956575" lon="11.2976065"><ele>447.0</ele><time>2026-04-26T09:48:18.061Z</time></trkpt><trkpt lat="45.9958169" lon="11.297574"><ele>447.0</ele><time>2026-04-26T09:48:19.046Z</time></trkpt><trkpt lat="45.9959762" lon="11.2975467"><ele>446.0</ele><time>2026-04-26T09:48:20.043Z</time></trkpt><trkpt lat="45.9961368" lon="11.2975208"><ele>445.0</ele><time>2026-04-26T09:48:21.049Z</time></trkpt><trkpt lat="45.9962976" lon="11.2975022"><ele>444.0</ele><time>2026-04-26T09:48:22.061Z</time></trkpt><trkpt lat="45.9964558" lon="11.2974924"><ele>444.0</ele><time>2026-04-26T09:48:23.039Z</time></trkpt><trkpt lat="45.9966111" lon="11.2974895"><ele>444.0</ele><time>2026-04-26T09:48:24.056Z</time></trkpt><trkpt lat="45.9967642" lon="11.2974864"><ele>444.0</ele><time>2026-04-26T09:48:25.039Z</time></trkpt><trkpt lat="45.9969158" lon="11.2974879"><ele>444.0</ele><time>2026-04-26T09:48:26.057Z</time></trkpt><trkpt lat="45.9970711" lon="11.2975028"><ele>444.0</ele><time>2026-04-26T09:48:27.046Z</time></trkpt><trkpt lat="45.997227" lon="11.2975693"><ele>444.0</ele><time>2026-04-26T09:48:28.05Z</time></trkpt><trkpt lat="45.9973839" lon="11.2976299"><ele>443.33333333333337</ele><time>2026-04-26T09:48:29.041Z</time></trkpt><trkpt lat="45.9975392" lon="11.2976804"><ele>442.6666666666667</ele><time>2026-04-26T09:48:30.04Z</time></trkpt><trkpt lat="45.9976914" lon="11.2977234"><ele>442.0</ele><time>2026-04-26T09:48:31.04Z</time></trkpt><trkpt lat="45.9978421" lon="11.2977631"><ele>442.0</ele><time>2026-04-26T09:48:32.058Z</time></trkpt><trkpt lat="45.9979928" lon="11.2977967"><ele>442.0</ele><time>2026-04-26T09:48:33.054Z</time></trkpt><trkpt lat="45.9981418" lon="11.2978235"><ele>442.0</ele><time>2026-04-26T09:48:34.05Z</time></trkpt><trkpt lat="45.9982866" lon="11.2978588"><ele>442.0</ele><time>2026-04-26T09:48:35.044Z</time></trkpt><trkpt lat="45.9984305" lon="11.2979004"><ele>443.0</ele><time>2026-04-26T09:48:36.055Z</time></trkpt><trkpt lat="45.9985783" lon="11.297942"><ele>444.0</ele><time>2026-04-26T09:48:37.044Z</time></trkpt><trkpt lat="45.9987272" lon="11.2979998"><ele>445.0</ele><time>2026-04-26T09:48:38.057Z</time></trkpt><trkpt lat="45.9988734" lon="11.2980755"><ele>444.33333333333337</ele><time>2026-04-26T09:48:39.026Z</time></trkpt><trkpt lat="45.9990183" lon="11.2981597"><ele>443.66666666666663</ele><time>2026-04-26T09:48:40.045Z</time></trkpt><trkpt lat="45.9991649" lon="11.2982483"><ele>443.0</ele><time>2026-04-26T09:48:41.052Z</time></trkpt><trkpt lat="45.9993159" lon="11.2983316"><ele>443.0</ele><time>2026-04-26T09:48:42.043Z</time></trkpt><trkpt lat="45.9994694" lon="11.2984101"><ele>443.0</ele><time>2026-04-26T09:48:43.051Z</time></trkpt><trkpt lat="45.9996181" lon="11.2985"><ele>443.0</ele><time>2026-04-26T09:48:44.038Z</time></trkpt><trkpt lat="45.9997643" lon="11.2985803"><ele>443.0</ele><time>2026-04-26T09:48:45.064Z</time></trkpt><trkpt lat="45.9999058" lon="11.2986599"><ele>443.0</ele><time>2026-04-26T09:48:46.047Z</time></trkpt><trkpt lat="46.0000443" lon="11.2987404"><ele>443.0</ele><time>2026-04-26T09:48:47.042Z</time></trkpt><trkpt lat="46.00018" lon="11.2988179"><ele>443.0</ele><time>2026-04-26T09:48:48.051Z</time></trkpt><trkpt lat="46.0003148" lon="11.2988841"><ele>442.75</ele><time>2026-04-26T09:48:49.039Z</time></trkpt><trkpt lat="46.0004495" lon="11.298945"><ele>442.5</ele><time>2026-04-26T09:48:50.047Z</time></trkpt><trkpt lat="46.0005847" lon="11.299002"><ele>442.25</ele><time>2026-04-26T09:48:51.042Z</time></trkpt><trkpt lat="46.0007195" lon="11.29905"><ele>442.0</ele><time>2026-04-26T09:48:52.06Z</time></trkpt><trkpt lat="46.0008535" lon="11.2990865"><ele>442.0</ele><time>2026-04-26T09:48:53.048Z</time></trkpt><trkpt lat="46.0009846" lon="11.2991235"><ele>442.0</ele><time>2026-04-26T09:48:54.056Z</time></trkpt><trkpt lat="46.0011139" lon="11.2991585"><ele>442.0</ele><time>2026-04-26T09:48:55.034Z</time></trkpt><trkpt lat="46.0012404" lon="11.2991934"><ele>442.0</ele><time>2026-04-26T09:48:56.034Z</time></trkpt><trkpt lat="46.001364" lon="11.2992273"><ele>442.0</ele><time>2026-04-26T09:48:57.042Z</time></trkpt><trkpt lat="46.0014854" lon="11.2992563"><ele>442.0</ele><time>2026-04-26T09:48:58.046Z</time></trkpt><trkpt lat="46.001604" lon="11.2992852"><ele>442.0</ele><time>2026-04-26T09:48:59.043Z</time></trkpt><trkpt lat="46.0017188" lon="11.2993184"><ele>442.0</ele><time>2026-04-26T09:49:00.046Z</time></trkpt><trkpt lat="46.0018311" lon="11.2993511"><ele>442.0</ele><time>2026-04-26T09:49:01.049Z</time></trkpt><trkpt lat="46.0019441" lon="11.2993852"><ele>442.0</ele><time>2026-04-26T09:49:02.043Z</time></trkpt><trkpt lat="46.0020587" lon="11.2994201"><ele>442.0</ele><time>2026-04-26T09:49:03.036Z</time></trkpt><trkpt lat="46.002176" lon="11.2994483"><ele>442.0</ele><time>2026-04-26T09:49:04.029Z</time></trkpt><trkpt lat="46.0022969" lon="11.2994883"><ele>442.0</ele><time>2026-04-26T09:49:05.038Z</time></trkpt><trkpt lat="46.0024237" lon="11.2995269"><ele>442.0</ele><time>2026-04-26T09:49:06.036Z</time></trkpt><trkpt lat="46.0025536" lon="11.2995662"><ele>442.0</ele><time>2026-04-26T09:49:07.047Z</time></trkpt><trkpt lat="46.0026859" lon="11.2996056"><ele>442.0</ele><time>2026-04-26T09:49:08.04Z</time></trkpt><trkpt lat="46.0028198" lon="11.2996467"><ele>441.5</ele><time>2026-04-26T09:49:09.036Z</time></trkpt><trkpt lat="46.0029565" lon="11.2996875"><ele>441.0</ele><time>2026-04-26T09:49:10.041Z</time></trkpt><trkpt lat="46.0030978" lon="11.2997313"><ele>440.5</ele><time>2026-04-26T09:49:11.044Z</time></trkpt><trkpt lat="46.0032423" lon="11.2997788"><ele>440.0</ele><time>2026-04-26T09:49:12.035Z</time></trkpt><trkpt lat="46.0033886" lon="11.2998294"><ele>439.0</ele><time>2026-04-26T09:49:13.032Z</time></trkpt><trkpt lat="46.0035347" lon="11.2998873"><ele>438.0</ele><time>2026-04-26T09:49:14.035Z</time></trkpt><trkpt lat="46.0036836" lon="11.2999486"><ele>437.0</ele><time>2026-04-26T09:49:15.038Z</time></trkpt><trkpt lat="46.0038341" lon="11.3000068"><ele>437.0</ele><time>2026-04-26T09:49:16.065Z</time></trkpt><trkpt lat="46.0039821" lon="11.3000602"><ele>437.0</ele><time>2026-04-26T09:49:17.057Z</time></trkpt><trkpt lat="46.0041255" lon="11.3001124"><ele>437.0</ele><time>2026-04-26T09:49:18.045Z</time></trkpt><trkpt lat="46.0042631" lon="11.3001641"><ele>437.0</ele><time>2026-04-26T09:49:19.041Z</time></trkpt><trkpt lat="46.0043976" lon="11.300214"><ele>437.0</ele><time>2026-04-26T09:49:20.047Z</time></trkpt><trkpt lat="46.004531" lon="11.300261"><ele>437.0</ele><time>2026-04-26T09:49:21.054Z</time></trkpt><trkpt lat="46.0046635" lon="11.3003028"><ele>437.0</ele><time>2026-04-26T09:49:22.051Z</time></trkpt><trkpt lat="46.004794" lon="11.3003554"><ele>437.0</ele><time>2026-04-26T09:49:23.041Z</time></trkpt><trkpt lat="46.0049232" lon="11.3004128"><ele>438.5</ele><time>2026-04-26T09:49:24.058Z</time></trkpt><trkpt lat="46.0050494" lon="11.3004673"><ele>440.0</ele><time>2026-04-26T09:49:25.037Z</time></trkpt><trkpt lat="46.0051697" lon="11.3005176"><ele>441.5</ele><time>2026-04-26T09:49:26.052Z</time></trkpt><trkpt lat="46.0052824" lon="11.3005669"><ele>443.0</ele><time>2026-04-26T09:49:27.033Z</time></trkpt><trkpt lat="46.0053861" lon="11.3006116"><ele>443.2</ele><time>2026-04-26T09:49:28.033Z</time></trkpt><trkpt lat="46.0054822" lon="11.3006552"><ele>443.4</ele><time>2026-04-26T09:49:29.027Z</time></trkpt><trkpt lat="46.0055731" lon="11.3007018"><ele>443.59999999999997</ele><time>2026-04-26T09:49:30.047Z</time></trkpt><trkpt lat="46.0056653" lon="11.3007438"><ele>443.79999999999995</ele><time>2026-04-26T09:49:31.05Z</time></trkpt><trkpt lat="46.005758" lon="11.3007847"><ele>444.0</ele><time>2026-04-26T09:49:32.049Z</time></trkpt><trkpt lat="46.0058482" lon="11.3008292"><ele>444.6666666666667</ele><time>2026-04-26T09:49:33.026Z</time></trkpt><trkpt lat="46.005934" lon="11.3008729"><ele>445.33333333333337</ele><time>2026-04-26T09:49:34.049Z</time></trkpt><trkpt lat="46.0060159" lon="11.3009121"><ele>446.0</ele><time>2026-04-26T09:49:35.051Z</time></trkpt><trkpt lat="46.0060924" lon="11.3009503"><ele>446.6666666666667</ele><time>2026-04-26T09:49:36.039Z</time></trkpt><trkpt lat="46.0061675" lon="11.300988"><ele>447.33333333333337</ele><time>2026-04-26T09:49:37.07Z</time></trkpt><trkpt lat="46.0062345" lon="11.3010309"><ele>448.0</ele><time>2026-04-26T09:49:38.057Z</time></trkpt><trkpt lat="46.0063075" lon="11.3010758"><ele>448.00000000000006</ele><time>2026-04-26T09:49:39.046Z</time></trkpt><trkpt lat="46.0063755" lon="11.3011147"><ele>448.0</ele><time>2026-04-26T09:49:40.046Z</time></trkpt><trkpt lat="46.0064419" lon="11.3011561"><ele>448.0</ele><time>2026-04-26T09:49:41.04Z</time></trkpt><trkpt lat="46.0065069" lon="11.3011954"><ele>448.0</ele><time>2026-04-26T09:49:42.05Z</time></trkpt><trkpt lat="46.0065742" lon="11.3012349"><ele>448.00000000000006</ele><time>2026-04-26T09:49:43.047Z</time></trkpt><trkpt lat="46.0066497" lon="11.3012823"><ele>448.0</ele><time>2026-04-26T09:49:44.045Z</time></trkpt><trkpt lat="46.00673" lon="11.3013292"><ele>449.00000000000006</ele><time>2026-04-26T09:49:45.047Z</time></trkpt><trkpt lat="46.0067979" lon="11.3013823"><ele>450.0</ele><time>2026-04-26T09:49:46.048Z</time></trkpt><trkpt lat="46.0068576" lon="11.3014423"><ele>451.0</ele><time>2026-04-26T09:49:47.045Z</time></trkpt><trkpt lat="46.0069191" lon="11.3015468"><ele>452.0</ele><time>2026-04-26T09:49:49.031Z</time></trkpt><trkpt lat="46.0069336" lon="11.3016488"><ele>453.00000000000006</ele><time>2026-04-26T09:49:51.031Z</time></trkpt><trkpt lat="46.0068965" lon="11.3018193"><ele>454.0</ele><time>2026-04-26T09:49:53.025Z</time></trkpt><trkpt lat="46.0068413" lon="11.3019155"><ele>453.6</ele><time>2026-04-26T09:49:54.048Z</time></trkpt><trkpt lat="46.0067767" lon="11.3020285"><ele>453.2</ele><time>2026-04-26T09:49:55.03Z</time></trkpt><trkpt lat="46.0067177" lon="11.3021568"><ele>452.80000000000007</ele><time>2026-04-26T09:49:56.035Z</time></trkpt><trkpt lat="46.0066692" lon="11.3022956"><ele>452.40000000000003</ele><time>2026-04-26T09:49:57.056Z</time></trkpt><trkpt lat="46.0066273" lon="11.3024389"><ele>452.0</ele><time>2026-04-26T09:49:58.048Z</time></trkpt><trkpt lat="46.0065872" lon="11.3025884"><ele>452.0</ele><time>2026-04-26T09:49:59.031Z</time></trkpt><trkpt lat="46.006544" lon="11.3027374"><ele>452.0</ele><time>2026-04-26T09:50:00.049Z</time></trkpt><trkpt lat="46.0064952" lon="11.3028878"><ele>452.0</ele><time>2026-04-26T09:50:01.035Z</time></trkpt><trkpt lat="46.0064589" lon="11.303046"><ele>452.0</ele><time>2026-04-26T09:50:02.044Z</time></trkpt><trkpt lat="46.0064195" lon="11.3031972"><ele>452.16666666666663</ele><time>2026-04-26T09:50:03.037Z</time></trkpt><trkpt lat="46.0063834" lon="11.3033417"><ele>452.3333333333333</ele><time>2026-04-26T09:50:04.044Z</time></trkpt><trkpt lat="46.0063485" lon="11.303474"><ele>452.5</ele><time>2026-04-26T09:50:05.038Z</time></trkpt><trkpt lat="46.0063133" lon="11.3035939"><ele>452.66666666666663</ele><time>2026-04-26T09:50:06.048Z</time></trkpt><trkpt lat="46.0062822" lon="11.3036999"><ele>452.8333333333333</ele><time>2026-04-26T09:50:07.035Z</time></trkpt><trkpt lat="46.0062478" lon="11.3037888"><ele>453.0</ele><time>2026-04-26T09:50:08.038Z</time></trkpt><trkpt lat="46.006228" lon="11.3038791"><ele>453.2</ele><time>2026-04-26T09:50:09.022Z</time></trkpt><trkpt lat="46.006213" lon="11.3039688"><ele>453.4</ele><time>2026-04-26T09:50:10.04Z</time></trkpt><trkpt lat="46.0061765" lon="11.3041271"><ele>453.59999999999997</ele><time>2026-04-26T09:50:12.026Z</time></trkpt><trkpt lat="46.0061189" lon="11.3042579"><ele>453.79999999999995</ele><time>2026-04-26T09:50:14.026Z</time></trkpt><trkpt lat="46.0060879" lon="11.3044145"><ele>454.0</ele><time>2026-04-26T09:50:16.037Z</time></trkpt><trkpt lat="46.0060778" lon="11.3045056"><ele>454.0</ele><time>2026-04-26T09:50:17.028Z</time></trkpt><trkpt lat="46.0060546" lon="11.3045972"><ele>454.00000000000006</ele><time>2026-04-26T09:50:18.038Z</time></trkpt><trkpt lat="46.0060447" lon="11.3046965"><ele>454.0</ele><time>2026-04-26T09:50:19.028Z</time></trkpt><trkpt lat="46.0060386" lon="11.3047989"><ele>454.0</ele><time>2026-04-26T09:50:20.061Z</time></trkpt><trkpt lat="46.0060316" lon="11.3049056"><ele>454.00000000000006</ele><time>2026-04-26T09:50:21.027Z</time></trkpt><trkpt lat="46.0060228" lon="11.3050212"><ele>454.0</ele><time>2026-04-26T09:50:22.032Z</time></trkpt><trkpt lat="46.0060096" lon="11.3051343"><ele>454.0</ele><time>2026-04-26T09:50:23.032Z</time></trkpt><trkpt lat="46.0060002" lon="11.3052421"><ele>454.4</ele><time>2026-04-26T09:50:24.027Z</time></trkpt><trkpt lat="46.0059882" lon="11.3053413"><ele>454.79999999999995</ele><time>2026-04-26T09:50:25.048Z</time></trkpt><trkpt lat="46.0059763" lon="11.3054309"><ele>455.20000000000005</ele><time>2026-04-26T09:50:26.032Z</time></trkpt><trkpt lat="46.0060166" lon="11.3055813"><ele>455.6</ele><time>2026-04-26T09:50:28.037Z</time></trkpt><trkpt lat="46.0061176" lon="11.3056357"><ele>456.0</ele><time>2026-04-26T09:50:30.034Z</time></trkpt><trkpt lat="46.0062364" lon="11.3055935"><ele>456.0</ele><time>2026-04-26T09:50:32.035Z</time></trkpt><trkpt lat="46.0063013" lon="11.3055245"><ele>456.0</ele><time>2026-04-26T09:50:33.035Z</time></trkpt><trkpt lat="46.0063554" lon="11.3054362"><ele>456.0</ele><time>2026-04-26T09:50:34.029Z</time></trkpt><trkpt lat="46.006398" lon="11.3053444"><ele>456.0</ele><time>2026-04-26T09:50:35.037Z</time></trkpt><trkpt lat="46.0064326" lon="11.3052681"><ele>456.0</ele><time>2026-04-26T09:50:36.035Z</time></trkpt><trkpt lat="46.0065277" lon="11.3051612"><ele>456.0</ele><time>2026-04-26T09:50:38.031Z</time></trkpt><trkpt lat="46.0066554" lon="11.3051031"><ele>458.20000000000005</ele><time>2026-04-26T09:50:40.032Z</time></trkpt><trkpt lat="46.0067312" lon="11.3050987"><ele>460.40000000000003</ele><time>2026-04-26T09:50:41.029Z</time></trkpt><trkpt lat="46.0068141" lon="11.3051085"><ele>462.6</ele><time>2026-04-26T09:50:42.035Z</time></trkpt><trkpt lat="46.006909" lon="11.3051526"><ele>464.8</ele><time>2026-04-26T09:50:43.038Z</time></trkpt><trkpt lat="46.0070106" lon="11.3051799"><ele>467.0</ele><time>2026-04-26T09:50:44.044Z</time></trkpt><trkpt lat="46.0071157" lon="11.3051964"><ele>467.0</ele><time>2026-04-26T09:50:45.036Z</time></trkpt><trkpt lat="46.0072233" lon="11.305212"><ele>467.00000000000006</ele><time>2026-04-26T09:50:46.032Z</time></trkpt><trkpt lat="46.0073219" lon="11.3052493"><ele>467.00000000000006</ele><time>2026-04-26T09:50:47.051Z</time></trkpt><trkpt lat="46.0074185" lon="11.3052692"><ele>467.0</ele><time>2026-04-26T09:50:48.032Z</time></trkpt><trkpt lat="46.007496" lon="11.3053019"><ele>467.0</ele><time>2026-04-26T09:50:49.028Z</time></trkpt><trkpt lat="46.0075811" lon="11.3052996"><ele>468.0</ele><time>2026-04-26T09:50:51.027Z</time></trkpt><trkpt lat="46.0076883" lon="11.3052974"><ele>469.00000000000006</ele><time>2026-04-26T09:50:54.032Z</time></trkpt><trkpt lat="46.0077557" lon="11.3053158"><ele>470.00000000000006</ele><time>2026-04-26T09:50:55.028Z</time></trkpt><trkpt lat="46.0078411" lon="11.3053363"><ele>471.0</ele><time>2026-04-26T09:50:56.046Z</time></trkpt><trkpt lat="46.0079418" lon="11.3053591"><ele>472.0</ele><time>2026-04-26T09:50:57.048Z</time></trkpt><trkpt lat="46.0080297" lon="11.3053718"><ele>472.00000000000006</ele><time>2026-04-26T09:50:58.037Z</time></trkpt><trkpt lat="46.0081127" lon="11.3053895"><ele>472.0</ele><time>2026-04-26T09:50:59.045Z</time></trkpt><trkpt lat="46.0081986" lon="11.3054123"><ele>472.0</ele><time>2026-04-26T09:51:00.091Z</time></trkpt><trkpt lat="46.0082736" lon="11.3054158"><ele>472.0</ele><time>2026-04-26T09:51:01.043Z</time></trkpt><trkpt lat="46.0083525" lon="11.3054352"><ele>472.00000000000006</ele><time>2026-04-26T09:51:02.049Z</time></trkpt><trkpt lat="46.0084309" lon="11.3054399"><ele>472.0</ele><time>2026-04-26T09:51:03.045Z</time></trkpt><trkpt lat="46.0085157" lon="11.3054455"><ele>473.1666666666667</ele><time>2026-04-26T09:51:04.032Z</time></trkpt><trkpt lat="46.0086031" lon="11.3054629"><ele>474.33333333333337</ele><time>2026-04-26T09:51:05.046Z</time></trkpt><trkpt lat="46.0086894" lon="11.305479"><ele>475.5</ele><time>2026-04-26T09:51:06.042Z</time></trkpt><trkpt lat="46.0087669" lon="11.3054907"><ele>476.66666666666663</ele><time>2026-04-26T09:51:07.054Z</time></trkpt><trkpt lat="46.0088411" lon="11.3054958"><ele>477.8333333333333</ele><time>2026-04-26T09:51:08.036Z</time></trkpt><trkpt lat="46.0089085" lon="11.3055087"><ele>479.0</ele><time>2026-04-26T09:51:09.032Z</time></trkpt><trkpt lat="46.0089774" lon="11.3055018"><ele>479.0</ele><time>2026-04-26T09:51:10.038Z</time></trkpt><trkpt lat="46.0090452" lon="11.305515"><ele>479.0</ele><time>2026-04-26T09:51:11.029Z</time></trkpt><trkpt lat="46.0091561" lon="11.3055372"><ele>479.0</ele><time>2026-04-26T09:51:13.036Z</time></trkpt><trkpt lat="46.0092649" lon="11.305571"><ele>479.0</ele><time>2026-04-26T09:51:15.031Z</time></trkpt><trkpt lat="46.0093379" lon="11.3056057"><ele>479.0</ele><time>2026-04-26T09:51:16.047Z</time></trkpt><trkpt lat="46.0094304" lon="11.3056239"><ele>480.8333333333333</ele><time>2026-04-26T09:51:18.032Z</time></trkpt><trkpt lat="46.009507" lon="11.3056297"><ele>482.66666666666663</ele><time>2026-04-26T09:51:20.034Z</time></trkpt><trkpt lat="46.0095852" lon="11.3056002"><ele>484.5</ele><time>2026-04-26T09:51:23.035Z</time></trkpt><trkpt lat="46.0096112" lon="11.3055119"><ele>486.33333333333337</ele><time>2026-04-26T09:51:26.052Z</time></trkpt><trkpt lat="46.0095313" lon="11.3055185"><ele>488.1666666666667</ele><time>2026-04-26T09:51:29.027Z</time></trkpt><trkpt lat="46.009438" lon="11.3055262"><ele>490.0</ele><time>2026-04-26T09:51:32.039Z</time></trkpt><trkpt lat="46.0093411" lon="11.3055008"><ele>490.00000000000006</ele><time>2026-04-26T09:51:34.038Z</time></trkpt><trkpt lat="46.0092181" lon="11.3054908"><ele>490.0</ele><time>2026-04-26T09:51:36.025Z</time></trkpt><trkpt lat="46.0091446" lon="11.3054881"><ele>490.0</ele><time>2026-04-26T09:51:37.05Z</time></trkpt><trkpt lat="46.0090806" lon="11.3054712"><ele>490.0</ele><time>2026-04-26T09:51:38.04Z</time></trkpt><trkpt lat="46.0090177" lon="11.3054547"><ele>490.00000000000006</ele><time>2026-04-26T09:51:39.043Z</time></trkpt><trkpt lat="46.0089484" lon="11.3054451"><ele>490.0</ele><time>2026-04-26T09:51:40.039Z</time></trkpt><trkpt lat="46.0088827" lon="11.3054308"><ele>488.1666666666667</ele><time>2026-04-26T09:51:41.036Z</time></trkpt><trkpt lat="46.0088147" lon="11.3054167"><ele>486.33333333333337</ele><time>2026-04-26T09:51:42.036Z</time></trkpt><trkpt lat="46.0087136" lon="11.305395"><ele>484.5</ele><time>2026-04-26T09:51:44.036Z</time></trkpt><trkpt lat="46.0086387" lon="11.3053776"><ele>482.66666666666663</ele><time>2026-04-26T09:51:46.04Z</time></trkpt><trkpt lat="46.0085464" lon="11.3053281"><ele>480.8333333333333</ele><time>2026-04-26T09:52:17.045Z</time></trkpt><trkpt lat="46.0084571" lon="11.3052637"><ele>479.0</ele><time>2026-04-26T09:52:20.04Z</time></trkpt><trkpt lat="46.0084386" lon="11.305118"><ele>479.0</ele><time>2026-04-26T09:52:22.033Z</time></trkpt><trkpt lat="46.0084596" lon="11.3048918"><ele>479.0</ele><time>2026-04-26T09:52:24.04Z</time></trkpt><trkpt lat="46.0084742" lon="11.3047595"><ele>479.0</ele><time>2026-04-26T09:52:25.039Z</time></trkpt><trkpt lat="46.0084874" lon="11.3046172"><ele>479.0</ele><time>2026-04-26T09:52:26.027Z</time></trkpt><trkpt lat="46.0084999" lon="11.3044637"><ele>478.4</ele><time>2026-04-26T09:52:27.033Z</time></trkpt><trkpt lat="46.0085185" lon="11.3043101"><ele>477.79999999999995</ele><time>2026-04-26T09:52:28.043Z</time></trkpt><trkpt lat="46.008538" lon="11.3041572"><ele>477.20000000000005</ele><time>2026-04-26T09:52:29.035Z</time></trkpt><trkpt lat="46.0085553" lon="11.3040144"><ele>476.6</ele><time>2026-04-26T09:52:30.029Z</time></trkpt><trkpt lat="46.0085707" lon="11.303887"><ele>476.0</ele><time>2026-04-26T09:52:31.05Z</time></trkpt><trkpt lat="46.0085898" lon="11.3037648"><ele>475.8333333333333</ele><time>2026-04-26T09:52:32.044Z</time></trkpt><trkpt lat="46.0086052" lon="11.3036431"><ele>475.66666666666663</ele><time>2026-04-26T09:52:33.057Z</time></trkpt><trkpt lat="46.0086206" lon="11.3035212"><ele>475.5</ele><time>2026-04-26T09:52:34.063Z</time></trkpt><trkpt lat="46.0086321" lon="11.3033999"><ele>475.33333333333337</ele><time>2026-04-26T09:52:35.046Z</time></trkpt><trkpt lat="46.0086442" lon="11.3032779"><ele>475.1666666666667</ele><time>2026-04-26T09:52:36.061Z</time></trkpt><trkpt lat="46.0086608" lon="11.3031596"><ele>475.0</ele><time>2026-04-26T09:52:37.049Z</time></trkpt><trkpt lat="46.0086729" lon="11.3030403"><ele>474.8</ele><time>2026-04-26T09:52:38.028Z</time></trkpt><trkpt lat="46.008689" lon="11.3029179"><ele>474.6</ele><time>2026-04-26T09:52:39.03Z</time></trkpt><trkpt lat="46.0087097" lon="11.3027901"><ele>474.4</ele><time>2026-04-26T09:52:40.044Z</time></trkpt><trkpt lat="46.0087299" lon="11.3026572"><ele>474.2</ele><time>2026-04-26T09:52:41.032Z</time></trkpt><trkpt lat="46.0087523" lon="11.3025239"><ele>474.0</ele><time>2026-04-26T09:52:42.052Z</time></trkpt><trkpt lat="46.0087726" lon="11.3023874"><ele>474.0</ele><time>2026-04-26T09:52:43.039Z</time></trkpt><trkpt lat="46.0087926" lon="11.3022533"><ele>474.0</ele><time>2026-04-26T09:52:44.037Z</time></trkpt><trkpt lat="46.0088147" lon="11.3021219"><ele>474.0</ele><time>2026-04-26T09:52:45.049Z</time></trkpt><trkpt lat="46.0088449" lon="11.3019953"><ele>474.0</ele><time>2026-04-26T09:52:46.04Z</time></trkpt><trkpt lat="46.0088748" lon="11.3018694"><ele>474.0</ele><time>2026-04-26T09:52:47.04Z</time></trkpt><trkpt lat="46.008908" lon="11.3017492"><ele>473.3333333333333</ele><time>2026-04-26T09:52:48.039Z</time></trkpt><trkpt lat="46.0089425" lon="11.3016305"><ele>472.66666666666663</ele><time>2026-04-26T09:52:49.036Z</time></trkpt><trkpt lat="46.008978" lon="11.3015136"><ele>472.0</ele><time>2026-04-26T09:52:50.036Z</time></trkpt><trkpt lat="46.0090152" lon="11.3014014"><ele>471.3333333333333</ele><time>2026-04-26T09:52:51.055Z</time></trkpt><trkpt lat="46.0090541" lon="11.3012929"><ele>470.66666666666663</ele><time>2026-04-26T09:52:52.054Z</time></trkpt><trkpt lat="46.0090911" lon="11.3011947"><ele>470.0</ele><time>2026-04-26T09:52:53.05Z</time></trkpt><trkpt lat="46.0091461" lon="11.3010756"><ele>471.3333333333333</ele><time>2026-04-26T09:52:55.05Z</time></trkpt><trkpt lat="46.0091887" lon="11.3010066"><ele>472.66666666666663</ele><time>2026-04-26T09:52:57.05Z</time></trkpt><trkpt lat="46.0092373" lon="11.3009262"><ele>474.0</ele><time>2026-04-26T09:53:00.036Z</time></trkpt><trkpt lat="46.0092697" lon="11.3008121"><ele>475.33333333333337</ele><time>2026-04-26T09:53:30.049Z</time></trkpt><trkpt lat="46.0093129" lon="11.3007193"><ele>476.6666666666667</ele><time>2026-04-26T09:53:32.045Z</time></trkpt><trkpt lat="46.009365" lon="11.3006026"><ele>478.0</ele><time>2026-04-26T09:53:34.051Z</time></trkpt><trkpt lat="46.0094326" lon="11.3004754"><ele>478.00000000000006</ele><time>2026-04-26T09:53:36.044Z</time></trkpt><trkpt lat="46.0095092" lon="11.3003284"><ele>478.0</ele><time>2026-04-26T09:53:38.043Z</time></trkpt><trkpt lat="46.0095588" lon="11.3002548"><ele>478.0</ele><time>2026-04-26T09:53:39.057Z</time></trkpt><trkpt lat="46.0095986" lon="11.3001673"><ele>478.0</ele><time>2026-04-26T09:53:40.057Z</time></trkpt><trkpt lat="46.0096434" lon="11.3000815"><ele>478.00000000000006</ele><time>2026-04-26T09:53:41.055Z</time></trkpt><trkpt lat="46.0096821" lon="11.29999"><ele>478.0</ele><time>2026-04-26T09:53:42.049Z</time></trkpt><trkpt lat="46.0097238" lon="11.2999059"><ele>478.00000000000006</ele><time>2026-04-26T09:53:43.055Z</time></trkpt><trkpt lat="46.0097651" lon="11.2998207"><ele>478.0</ele><time>2026-04-26T09:53:44.052Z</time></trkpt><trkpt lat="46.009801" lon="11.2997289"><ele>478.00000000000006</ele><time>2026-04-26T09:53:45.05Z</time></trkpt><trkpt lat="46.0098416" lon="11.2996416"><ele>478.00000000000006</ele><time>2026-04-26T09:53:46.052Z</time></trkpt><trkpt lat="46.0098795" lon="11.2995539"><ele>478.0</ele><time>2026-04-26T09:53:47.044Z</time></trkpt><trkpt lat="46.0099198" lon="11.29947"><ele>478.00000000000006</ele><time>2026-04-26T09:53:48.046Z</time></trkpt><trkpt lat="46.0099611" lon="11.2993914"><ele>478.00000000000006</ele><time>2026-04-26T09:53:49.056Z</time></trkpt><trkpt lat="46.0099968" lon="11.2993121"><ele>478.2</ele><time>2026-04-26T09:53:50.051Z</time></trkpt><trkpt lat="46.0100597" lon="11.2991672"><ele>478.4</ele><time>2026-04-26T09:53:52.047Z</time></trkpt><trkpt lat="46.0101117" lon="11.2990186"><ele>478.59999999999997</ele><time>2026-04-26T09:53:54.036Z</time></trkpt><trkpt lat="46.0101735" lon="11.2988578"><ele>478.79999999999995</ele><time>2026-04-26T09:53:56.06Z</time></trkpt><trkpt lat="46.0102199" lon="11.2987787"><ele>479.0</ele><time>2026-04-26T09:53:57.041Z</time></trkpt><trkpt lat="46.0102674" lon="11.2986901"><ele>477.66666666666663</ele><time>2026-04-26T09:53:58.042Z</time></trkpt><trkpt lat="46.0103173" lon="11.298598"><ele>476.3333333333333</ele><time>2026-04-26T09:53:59.048Z</time></trkpt><trkpt lat="46.0103634" lon="11.2985025"><ele>475.0</ele><time>2026-04-26T09:54:00.118Z</time></trkpt><trkpt lat="46.0104067" lon="11.2984028"><ele>473.66666666666663</ele><time>2026-04-26T09:54:01.048Z</time></trkpt><trkpt lat="46.0104546" lon="11.298298"><ele>472.3333333333333</ele><time>2026-04-26T09:54:02.047Z</time></trkpt><trkpt lat="46.0105135" lon="11.2981897"><ele>471.0</ele><time>2026-04-26T09:54:03.057Z</time></trkpt><trkpt lat="46.0105716" lon="11.2980724"><ele>470.4</ele><time>2026-04-26T09:54:04.051Z</time></trkpt><trkpt lat="46.0106326" lon="11.2979556"><ele>469.8</ele><time>2026-04-26T09:54:05.046Z</time></trkpt><trkpt lat="46.0107016" lon="11.2978392"><ele>469.19999999999993</ele><time>2026-04-26T09:54:06.041Z</time></trkpt><trkpt lat="46.010768" lon="11.2977148"><ele>468.59999999999997</ele><time>2026-04-26T09:54:07.056Z</time></trkpt><trkpt lat="46.0108377" lon="11.2975911"><ele>468.0</ele><time>2026-04-26T09:54:08.05Z</time></trkpt><trkpt lat="46.0109183" lon="11.2974825"><ele>468.5</ele><time>2026-04-26T09:54:09.056Z</time></trkpt><trkpt lat="46.0109949" lon="11.2973687"><ele>469.0</ele><time>2026-04-26T09:54:10.072Z</time></trkpt><trkpt lat="46.0110768" lon="11.2972589"><ele>469.5</ele><time>2026-04-26T09:54:11.051Z</time></trkpt><trkpt lat="46.0111627" lon="11.2971493"><ele>470.0</ele><time>2026-04-26T09:54:12.049Z</time></trkpt><trkpt lat="46.0112559" lon="11.2970428"><ele>470.0</ele><time>2026-04-26T09:54:13.076Z</time></trkpt><trkpt lat="46.0113521" lon="11.2969355"><ele>470.0</ele><time>2026-04-26T09:54:14.063Z</time></trkpt><trkpt lat="46.0114494" lon="11.2968324"><ele>470.0</ele><time>2026-04-26T09:54:15.043Z</time></trkpt><trkpt lat="46.0115505" lon="11.2967333"><ele>470.0</ele><time>2026-04-26T09:54:16.045Z</time></trkpt><trkpt lat="46.011657" lon="11.2966382"><ele>472.0</ele><time>2026-04-26T09:54:17.053Z</time></trkpt><trkpt lat="46.0117699" lon="11.296546"><ele>474.0</ele><time>2026-04-26T09:54:18.045Z</time></trkpt><trkpt lat="46.011887" lon="11.2964492"><ele>476.0</ele><time>2026-04-26T09:54:19.05Z</time></trkpt><trkpt lat="46.0120035" lon="11.2963513"><ele>478.0</ele><time>2026-04-26T09:54:20.058Z</time></trkpt><trkpt lat="46.0121166" lon="11.2962546"><ele>479.0</ele><time>2026-04-26T09:54:21.044Z</time></trkpt><trkpt lat="46.0124672" lon="11.2958999"><ele>480.0</ele><time>2026-04-26T09:54:24.067Z</time></trkpt><trkpt lat="46.0125744" lon="11.2957722"><ele>480.25</ele><time>2026-04-26T09:54:25.041Z</time></trkpt><trkpt lat="46.0126732" lon="11.2956544"><ele>480.5</ele><time>2026-04-26T09:54:26.049Z</time></trkpt><trkpt lat="46.0127971" lon="11.2955229"><ele>480.75</ele><time>2026-04-26T09:54:27.047Z</time></trkpt><trkpt lat="46.0129214" lon="11.2953983"><ele>481.0</ele><time>2026-04-26T09:54:28.051Z</time></trkpt><trkpt lat="46.0130581" lon="11.295304"><ele>479.0</ele><time>2026-04-26T09:54:29.062Z</time></trkpt><trkpt lat="46.0131933" lon="11.2951935"><ele>477.0</ele><time>2026-04-26T09:54:30.05Z</time></trkpt><trkpt lat="46.0133339" lon="11.2951089"><ele>475.0</ele><time>2026-04-26T09:54:31.05Z</time></trkpt><trkpt lat="46.0134716" lon="11.2950357"><ele>475.0</ele><time>2026-04-26T09:54:32.049Z</time></trkpt><trkpt lat="46.0136071" lon="11.2949796"><ele>475.0</ele><time>2026-04-26T09:54:33.048Z</time></trkpt><trkpt lat="46.0137472" lon="11.294931"><ele>475.0</ele><time>2026-04-26T09:54:34.045Z</time></trkpt><trkpt lat="46.0138882" lon="11.2948878"><ele>475.0</ele><time>2026-04-26T09:54:35.041Z</time></trkpt><trkpt lat="46.0140275" lon="11.2948443"><ele>475.0</ele><time>2026-04-26T09:54:36.04Z</time></trkpt><trkpt lat="46.0141693" lon="11.2948189"><ele>475.0</ele><time>2026-04-26T09:54:37.049Z</time></trkpt><trkpt lat="46.0143069" lon="11.2947924"><ele>475.0</ele><time>2026-04-26T09:54:38.064Z</time></trkpt><trkpt lat="46.0144423" lon="11.2947598"><ele>475.0</ele><time>2026-04-26T09:54:39.078Z</time></trkpt><trkpt lat="46.0145751" lon="11.2947221"><ele>475.0</ele><time>2026-04-26T09:54:40.073Z</time></trkpt><trkpt lat="46.0147086" lon="11.2946915"><ele>475.0</ele><time>2026-04-26T09:54:41.074Z</time></trkpt><trkpt lat="46.0148409" lon="11.2946495"><ele>475.0</ele><time>2026-04-26T09:54:42.066Z</time></trkpt><trkpt lat="46.0149696" lon="11.2946157"><ele>475.0</ele><time>2026-04-26T09:54:43.056Z</time></trkpt><trkpt lat="46.0150949" lon="11.2945774"><ele>475.5</ele><time>2026-04-26T09:54:44.04Z</time></trkpt><trkpt lat="46.0152198" lon="11.2945449"><ele>476.0</ele><time>2026-04-26T09:54:45.105Z</time></trkpt><trkpt lat="46.015342" lon="11.2944893"><ele>476.5</ele><time>2026-04-26T09:54:46.042Z</time></trkpt><trkpt lat="46.0154592" lon="11.2944066"><ele>477.0</ele><time>2026-04-26T09:54:47.074Z</time></trkpt><trkpt lat="46.0155726" lon="11.2943055"><ele>477.0</ele><time>2026-04-26T09:54:48.057Z</time></trkpt><trkpt lat="46.0156738" lon="11.2941795"><ele>477.0</ele><time>2026-04-26T09:54:49.054Z</time></trkpt><trkpt lat="46.015768" lon="11.2940454"><ele>477.0</ele><time>2026-04-26T09:54:50.051Z</time></trkpt><trkpt lat="46.0158455" lon="11.29389"><ele>477.0</ele><time>2026-04-26T09:54:51.111Z</time></trkpt><trkpt lat="46.015914" lon="11.2937291"><ele>476.75</ele><time>2026-04-26T09:54:52.068Z</time></trkpt><trkpt lat="46.0159791" lon="11.2935715"><ele>476.5</ele><time>2026-04-26T09:54:53.06Z</time></trkpt><trkpt lat="46.0160395" lon="11.2934177"><ele>476.25</ele><time>2026-04-26T09:54:54.053Z</time></trkpt><trkpt lat="46.0160919" lon="11.2932647"><ele>476.0</ele><time>2026-04-26T09:54:55.045Z</time></trkpt><trkpt lat="46.0161372" lon="11.2931145"><ele>475.75</ele><time>2026-04-26T09:54:56.055Z</time></trkpt><trkpt lat="46.016175" lon="11.2929585"><ele>475.5</ele><time>2026-04-26T09:54:57.048Z</time></trkpt><trkpt lat="46.0161964" lon="11.2927917"><ele>475.25</ele><time>2026-04-26T09:54:58.06Z</time></trkpt><trkpt lat="46.0161965" lon="11.2926161"><ele>475.0</ele><time>2026-04-26T09:54:59.057Z</time></trkpt><trkpt lat="46.0161884" lon="11.292444"><ele>475.0</ele><time>2026-04-26T09:55:00.062Z</time></trkpt><trkpt lat="46.0161644" lon="11.2922789"><ele>475.0</ele><time>2026-04-26T09:55:01.052Z</time></trkpt><trkpt lat="46.0161315" lon="11.2921185"><ele>475.0</ele><time>2026-04-26T09:55:02.045Z</time></trkpt><trkpt lat="46.0160983" lon="11.2919589"><ele>475.0</ele><time>2026-04-26T09:55:03.052Z</time></trkpt><trkpt lat="46.0160647" lon="11.2917965"><ele>474.5</ele><time>2026-04-26T09:55:04.049Z</time></trkpt><trkpt lat="46.0160332" lon="11.2916272"><ele>474.0</ele><time>2026-04-26T09:55:05.048Z</time></trkpt><trkpt lat="46.0160029" lon="11.2914529"><ele>473.5</ele><time>2026-04-26T09:55:06.052Z</time></trkpt><trkpt lat="46.0159692" lon="11.2912751"><ele>473.0</ele><time>2026-04-26T09:55:07.047Z</time></trkpt><trkpt lat="46.0159397" lon="11.2910938"><ele>475.0</ele><time>2026-04-26T09:55:08.052Z</time></trkpt><trkpt lat="46.0159126" lon="11.2909078"><ele>477.0</ele><time>2026-04-26T09:55:09.048Z</time></trkpt><trkpt lat="46.015887" lon="11.2907177"><ele>479.0</ele><time>2026-04-26T09:55:10.05Z</time></trkpt><trkpt lat="46.0158656" lon="11.2905255"><ele>481.0</ele><time>2026-04-26T09:55:11.044Z</time></trkpt><trkpt lat="46.0158503" lon="11.2903299"><ele>481.5</ele><time>2026-04-26T09:55:12.047Z</time></trkpt><trkpt lat="46.0158456" lon="11.2901329"><ele>482.0</ele><time>2026-04-26T09:55:13.067Z</time></trkpt><trkpt lat="46.0158402" lon="11.2899384"><ele>482.5</ele><time>2026-04-26T09:55:14.059Z</time></trkpt><trkpt lat="46.0158384" lon="11.2897492"><ele>483.0</ele><time>2026-04-26T09:55:15.056Z</time></trkpt><trkpt lat="46.0158422" lon="11.2895633"><ele>483.0</ele><time>2026-04-26T09:55:16.049Z</time></trkpt><trkpt lat="46.0158434" lon="11.2893785"><ele>483.0</ele><time>2026-04-26T09:55:17.047Z</time></trkpt><trkpt lat="46.0158434" lon="11.2891897"><ele>483.0</ele><time>2026-04-26T09:55:18.051Z</time></trkpt><trkpt lat="46.0158375" lon="11.288999"><ele>483.0</ele><time>2026-04-26T09:55:19.05Z</time></trkpt><trkpt lat="46.0158328" lon="11.2888129"><ele>482.5</ele><time>2026-04-26T09:55:20.044Z</time></trkpt><trkpt lat="46.0158326" lon="11.2886277"><ele>482.0</ele><time>2026-04-26T09:55:21.046Z</time></trkpt><trkpt lat="46.0158305" lon="11.2884397"><ele>481.5</ele><time>2026-04-26T09:55:22.044Z</time></trkpt><trkpt lat="46.01583" lon="11.2882503"><ele>481.0</ele><time>2026-04-26T09:55:23.049Z</time></trkpt><trkpt lat="46.0158307" lon="11.2880635"><ele>483.0</ele><time>2026-04-26T09:55:24.045Z</time></trkpt><trkpt lat="46.0158302" lon="11.2878827"><ele>485.0</ele><time>2026-04-26T09:55:25.054Z</time></trkpt><trkpt lat="46.0158317" lon="11.2877057"><ele>487.0</ele><time>2026-04-26T09:55:26.047Z</time></trkpt><trkpt lat="46.0158346" lon="11.2875341"><ele>489.0</ele><time>2026-04-26T09:55:27.038Z</time></trkpt><trkpt lat="46.0158339" lon="11.2873706"><ele>488.4</ele><time>2026-04-26T09:55:28.047Z</time></trkpt><trkpt lat="46.0158322" lon="11.2872177"><ele>487.79999999999995</ele><time>2026-04-26T09:55:29.053Z</time></trkpt><trkpt lat="46.0158315" lon="11.2870671"><ele>487.20000000000005</ele><time>2026-04-26T09:55:30.043Z</time></trkpt><trkpt lat="46.0158313" lon="11.2869226"><ele>486.6</ele><time>2026-04-26T09:55:31.05Z</time></trkpt><trkpt lat="46.0158318" lon="11.2867779"><ele>486.0</ele><time>2026-04-26T09:55:32.046Z</time></trkpt><trkpt lat="46.015836" lon="11.2866276"><ele>486.0</ele><time>2026-04-26T09:55:33.05Z</time></trkpt><trkpt lat="46.0158447" lon="11.286472"><ele>486.0</ele><time>2026-04-26T09:55:34.043Z</time></trkpt><trkpt lat="46.0158574" lon="11.286317"><ele>486.0</ele><time>2026-04-26T09:55:35.049Z</time></trkpt><trkpt lat="46.0158717" lon="11.2861633"><ele>486.0</ele><time>2026-04-26T09:55:36.049Z</time></trkpt><trkpt lat="46.0158895" lon="11.2860089"><ele>486.0</ele><time>2026-04-26T09:55:37.049Z</time></trkpt><trkpt lat="46.0159125" lon="11.285856"><ele>484.6</ele><time>2026-04-26T09:55:38.049Z</time></trkpt><trkpt lat="46.015938" lon="11.2857018"><ele>483.20000000000005</ele><time>2026-04-26T09:55:39.048Z</time></trkpt><trkpt lat="46.0159649" lon="11.2855503"><ele>481.79999999999995</ele><time>2026-04-26T09:55:40.054Z</time></trkpt><trkpt lat="46.0159913" lon="11.2853952"><ele>480.4</ele><time>2026-04-26T09:55:41.041Z</time></trkpt><trkpt lat="46.0160256" lon="11.28524"><ele>479.0</ele><time>2026-04-26T09:55:42.053Z</time></trkpt><trkpt lat="46.0160573" lon="11.2850805"><ele>478.25</ele><time>2026-04-26T09:55:43.09Z</time></trkpt><trkpt lat="46.0160782" lon="11.2849156"><ele>477.5</ele><time>2026-04-26T09:55:44.043Z</time></trkpt><trkpt lat="46.0161041" lon="11.2847512"><ele>476.75</ele><time>2026-04-26T09:55:45.052Z</time></trkpt><trkpt lat="46.0161346" lon="11.2845879"><ele>476.0</ele><time>2026-04-26T09:55:46.047Z</time></trkpt><trkpt lat="46.0161633" lon="11.2844165"><ele>473.75</ele><time>2026-04-26T09:55:47.057Z</time></trkpt><trkpt lat="46.0162007" lon="11.2842458"><ele>471.5</ele><time>2026-04-26T09:55:48.049Z</time></trkpt><trkpt lat="46.0162399" lon="11.2840726"><ele>469.25</ele><time>2026-04-26T09:55:49.056Z</time></trkpt><trkpt lat="46.0162799" lon="11.2838976"><ele>467.0</ele><time>2026-04-26T09:55:50.07Z</time></trkpt><trkpt lat="46.0163211" lon="11.2837262"><ele>463.25</ele><time>2026-04-26T09:55:51.057Z</time></trkpt><trkpt lat="46.0163646" lon="11.2835658"><ele>459.5</ele><time>2026-04-26T09:55:52.052Z</time></trkpt><trkpt lat="46.016407" lon="11.2834102"><ele>455.75</ele><time>2026-04-26T09:55:53.048Z</time></trkpt><trkpt lat="46.0164478" lon="11.2832591"><ele>452.0</ele><time>2026-04-26T09:55:54.049Z</time></trkpt><trkpt lat="46.0164828" lon="11.2831099"><ele>451.20000000000005</ele><time>2026-04-26T09:55:55.051Z</time></trkpt><trkpt lat="46.0165168" lon="11.2829611"><ele>450.40000000000003</ele><time>2026-04-26T09:55:56.051Z</time></trkpt><trkpt lat="46.0165561" lon="11.2828182"><ele>449.59999999999997</ele><time>2026-04-26T09:55:57.062Z</time></trkpt><trkpt lat="46.0165926" lon="11.2826759"><ele>448.79999999999995</ele><time>2026-04-26T09:55:58.055Z</time></trkpt><trkpt lat="46.0166263" lon="11.282529"><ele>448.0</ele><time>2026-04-26T09:55:59.048Z</time></trkpt><trkpt lat="46.0166571" lon="11.2823744"><ele>454.75</ele><time>2026-04-26T09:56:00.141Z</time></trkpt><trkpt lat="46.016696" lon="11.282222"><ele>461.5</ele><time>2026-04-26T09:56:01.079Z</time></trkpt><trkpt lat="46.0167345" lon="11.2820664"><ele>468.25</ele><time>2026-04-26T09:56:02.053Z</time></trkpt><trkpt lat="46.0167769" lon="11.2819161"><ele>475.0</ele><time>2026-04-26T09:56:03.047Z</time></trkpt><trkpt lat="46.0168284" lon="11.2817743"><ele>475.0</ele><time>2026-04-26T09:56:04.053Z</time></trkpt><trkpt lat="46.0168764" lon="11.2816327"><ele>475.0</ele><time>2026-04-26T09:56:05.049Z</time></trkpt><trkpt lat="46.0169552" lon="11.2815125"><ele>475.0</ele><time>2026-04-26T09:56:06.044Z</time></trkpt><trkpt lat="46.0170404" lon="11.2813952"><ele>475.0</ele><time>2026-04-26T09:56:07.066Z</time></trkpt><trkpt lat="46.0171222" lon="11.2812671"><ele>471.75</ele><time>2026-04-26T09:56:08.044Z</time></trkpt><trkpt lat="46.0172009" lon="11.2811375"><ele>468.5</ele><time>2026-04-26T09:56:09.069Z</time></trkpt><trkpt lat="46.0172672" lon="11.2809907"><ele>465.25</ele><time>2026-04-26T09:56:10.056Z</time></trkpt><trkpt lat="46.0173197" lon="11.2808288"><ele>462.0</ele><time>2026-04-26T09:56:11.043Z</time></trkpt><trkpt lat="46.0173483" lon="11.2806497"><ele>459.0</ele><time>2026-04-26T09:56:12.05Z</time></trkpt><trkpt lat="46.0173707" lon="11.2804687"><ele>456.0</ele><time>2026-04-26T09:56:13.048Z</time></trkpt><trkpt lat="46.0173911" lon="11.2802922"><ele>453.0</ele><time>2026-04-26T09:56:14.049Z</time></trkpt><trkpt lat="46.0174127" lon="11.2801139"><ele>450.0</ele><time>2026-04-26T09:56:15.046Z</time></trkpt><trkpt lat="46.0174393" lon="11.2799327"><ele>449.25</ele><time>2026-04-26T09:56:16.047Z</time></trkpt><trkpt lat="46.0174766" lon="11.2797517"><ele>448.5</ele><time>2026-04-26T09:56:17.049Z</time></trkpt><trkpt lat="46.0175224" lon="11.279578"><ele>447.75</ele><time>2026-04-26T09:56:18.061Z</time></trkpt><trkpt lat="46.0175652" lon="11.2794049"><ele>447.0</ele><time>2026-04-26T09:56:19.049Z</time></trkpt><trkpt lat="46.0176073" lon="11.2792377"><ele>453.5</ele><time>2026-04-26T09:56:20.059Z</time></trkpt><trkpt lat="46.0176546" lon="11.2790767"><ele>460.0</ele><time>2026-04-26T09:56:21.048Z</time></trkpt><trkpt lat="46.0177095" lon="11.2789184"><ele>466.5</ele><time>2026-04-26T09:56:22.048Z</time></trkpt><trkpt lat="46.017772" lon="11.278762"><ele>473.0</ele><time>2026-04-26T09:56:23.043Z</time></trkpt><trkpt lat="46.0178537" lon="11.2786226"><ele>473.0</ele><time>2026-04-26T09:56:24.044Z</time></trkpt><trkpt lat="46.0179234" lon="11.2784723"><ele>473.0</ele><time>2026-04-26T09:56:25.048Z</time></trkpt><trkpt lat="46.0179837" lon="11.2783128"><ele>473.0</ele><time>2026-04-26T09:56:26.075Z</time></trkpt><trkpt lat="46.0180368" lon="11.2781523"><ele>473.0</ele><time>2026-04-26T09:56:27.047Z</time></trkpt><trkpt lat="46.018078" lon="11.2779903"><ele>469.5</ele><time>2026-04-26T09:56:28.058Z</time></trkpt><trkpt lat="46.0181114" lon="11.277824"><ele>466.0</ele><time>2026-04-26T09:56:29.053Z</time></trkpt><trkpt lat="46.0181578" lon="11.2776603"><ele>462.5</ele><time>2026-04-26T09:56:30.048Z</time></trkpt><trkpt lat="46.0182226" lon="11.2775036"><ele>459.0</ele><time>2026-04-26T09:56:31.043Z</time></trkpt><trkpt lat="46.0182839" lon="11.2773424"><ele>464.0</ele><time>2026-04-26T09:56:32.056Z</time></trkpt><trkpt lat="46.0183606" lon="11.2771892"><ele>469.0</ele><time>2026-04-26T09:56:33.054Z</time></trkpt><trkpt lat="46.0184471" lon="11.2770498"><ele>474.0</ele><time>2026-04-26T09:56:34.049Z</time></trkpt><trkpt lat="46.0185427" lon="11.2769267"><ele>479.0</ele><time>2026-04-26T09:56:35.063Z</time></trkpt><trkpt lat="46.0186442" lon="11.2768109"><ele>479.0</ele><time>2026-04-26T09:56:36.042Z</time></trkpt><trkpt lat="46.0187226" lon="11.2767187"><ele>479.0</ele><time>2026-04-26T09:56:37.055Z</time></trkpt><trkpt lat="46.0188207" lon="11.2765623"><ele>479.0</ele><time>2026-04-26T09:56:38.048Z</time></trkpt><trkpt lat="46.0189217" lon="11.2764452"><ele>479.0</ele><time>2026-04-26T09:56:39.044Z</time></trkpt><trkpt lat="46.0190387" lon="11.2763319"><ele>478.5</ele><time>2026-04-26T09:56:40.045Z</time></trkpt><trkpt lat="46.0191323" lon="11.2762681"><ele>478.0</ele><time>2026-04-26T09:56:41.046Z</time></trkpt><trkpt lat="46.0192638" lon="11.2762167"><ele>477.5</ele><time>2026-04-26T09:56:42.056Z</time></trkpt><trkpt lat="46.0193954" lon="11.2761736"><ele>477.0</ele><time>2026-04-26T09:56:43.045Z</time></trkpt><trkpt lat="46.0195331" lon="11.2761197"><ele>477.0</ele><time>2026-04-26T09:56:44.051Z</time></trkpt><trkpt lat="46.0196638" lon="11.2760692"><ele>477.0</ele><time>2026-04-26T09:56:45.053Z</time></trkpt><trkpt lat="46.0197999" lon="11.2760193"><ele>477.0</ele><time>2026-04-26T09:56:46.054Z</time></trkpt><trkpt lat="46.0199357" lon="11.2759721"><ele>477.0</ele><time>2026-04-26T09:56:47.056Z</time></trkpt><trkpt lat="46.0200629" lon="11.2759247"><ele>481.5</ele><time>2026-04-26T09:56:48.049Z</time></trkpt><trkpt lat="46.020193" lon="11.27587"><ele>486.0</ele><time>2026-04-26T09:56:49.04Z</time></trkpt><trkpt lat="46.0203056" lon="11.2758207"><ele>490.5</ele><time>2026-04-26T09:56:50.055Z</time></trkpt><trkpt lat="46.0204184" lon="11.2757619"><ele>495.0</ele><time>2026-04-26T09:56:51.051Z</time></trkpt><trkpt lat="46.0205365" lon="11.2756936"><ele>495.0</ele><time>2026-04-26T09:56:52.048Z</time></trkpt><trkpt lat="46.0206435" lon="11.2756291"><ele>495.0</ele><time>2026-04-26T09:56:53.059Z</time></trkpt><trkpt lat="46.0207521" lon="11.2755608"><ele>495.0</ele><time>2026-04-26T09:56:54.048Z</time></trkpt><trkpt lat="46.0208557" lon="11.2754911"><ele>495.0</ele><time>2026-04-26T09:56:55.047Z</time></trkpt><trkpt lat="46.0209506" lon="11.275425"><ele>491.6</ele><time>2026-04-26T09:56:56.048Z</time></trkpt><trkpt lat="46.0210467" lon="11.2753652"><ele>488.2</ele><time>2026-04-26T09:56:57.046Z</time></trkpt><trkpt lat="46.0211436" lon="11.2753161"><ele>484.79999999999995</ele><time>2026-04-26T09:56:58.054Z</time></trkpt><trkpt lat="46.0212551" lon="11.2752808"><ele>481.4</ele><time>2026-04-26T09:56:59.047Z</time></trkpt><trkpt lat="46.0213481" lon="11.2752811"><ele>478.0</ele><time>2026-04-26T09:57:00.069Z</time></trkpt><trkpt lat="46.0214523" lon="11.2753111"><ele>478.0</ele><time>2026-04-26T09:57:01.048Z</time></trkpt><trkpt lat="46.0215557" lon="11.2753383"><ele>477.99999999999994</ele><time>2026-04-26T09:57:02.049Z</time></trkpt><trkpt lat="46.0216571" lon="11.2753396"><ele>477.99999999999994</ele><time>2026-04-26T09:57:03.047Z</time></trkpt><trkpt lat="46.021746" lon="11.275321"><ele>478.0</ele><time>2026-04-26T09:57:04.06Z</time></trkpt><trkpt lat="46.0218314" lon="11.2752318"><ele>478.0</ele><time>2026-04-26T09:57:06.051Z</time></trkpt><trkpt lat="46.02196" lon="11.2750713"><ele>480.75</ele><time>2026-04-26T09:57:07.05Z</time></trkpt><trkpt lat="46.0220593" lon="11.2749299"><ele>483.5</ele><time>2026-04-26T09:57:08.048Z</time></trkpt><trkpt lat="46.0221237" lon="11.274862"><ele>486.25</ele><time>2026-04-26T09:57:09.052Z</time></trkpt><trkpt lat="46.0223291" lon="11.2747563"><ele>489.0</ele><time>2026-04-26T09:57:11.049Z</time></trkpt><trkpt lat="46.0224555" lon="11.274535"><ele>487.2</ele><time>2026-04-26T09:57:13.051Z</time></trkpt><trkpt lat="46.0225102" lon="11.2744071"><ele>485.4</ele><time>2026-04-26T09:57:14.049Z</time></trkpt><trkpt lat="46.0225872" lon="11.274238"><ele>483.6</ele><time>2026-04-26T09:57:15.045Z</time></trkpt><trkpt lat="46.0226031" lon="11.2741251"><ele>481.8</ele><time>2026-04-26T09:57:16.04Z</time></trkpt><trkpt lat="46.022651" lon="11.2740039"><ele>480.0</ele><time>2026-04-26T09:57:17.048Z</time></trkpt><trkpt lat="46.0228134" lon="11.2738617"><ele>473.66666666666663</ele><time>2026-04-26T09:57:19.047Z</time></trkpt><trkpt lat="46.0228988" lon="11.27378"><ele>467.3333333333333</ele><time>2026-04-26T09:57:20.048Z</time></trkpt><trkpt lat="46.0230305" lon="11.2735923"><ele>461.0</ele><time>2026-04-26T09:57:21.055Z</time></trkpt><trkpt lat="46.0231615" lon="11.2733983"><ele>461.0</ele><time>2026-04-26T09:57:22.044Z</time></trkpt><trkpt lat="46.0232703" lon="11.2732089"><ele>461.0</ele><time>2026-04-26T09:57:23.052Z</time></trkpt><trkpt lat="46.0233715" lon="11.2730212"><ele>461.0</ele><time>2026-04-26T09:57:24.052Z</time></trkpt><trkpt lat="46.0234759" lon="11.2728471"><ele>466.66666666666663</ele><time>2026-04-26T09:57:25.045Z</time></trkpt><trkpt lat="46.0235842" lon="11.2726884"><ele>472.33333333333337</ele><time>2026-04-26T09:57:26.042Z</time></trkpt><trkpt lat="46.0237033" lon="11.2725477"><ele>478.0</ele><time>2026-04-26T09:57:27.045Z</time></trkpt><trkpt lat="46.0238112" lon="11.2724004"><ele>474.75</ele><time>2026-04-26T09:57:28.043Z</time></trkpt><trkpt lat="46.0238784" lon="11.272262"><ele>471.5</ele><time>2026-04-26T09:57:29.037Z</time></trkpt><trkpt lat="46.0239381" lon="11.2721232"><ele>468.25</ele><time>2026-04-26T09:57:30.05Z</time></trkpt><trkpt lat="46.0240013" lon="11.2719959"><ele>465.0</ele><time>2026-04-26T09:57:31.032Z</time></trkpt><trkpt lat="46.0240716" lon="11.2718599"><ele>465.0</ele><time>2026-04-26T09:57:32.05Z</time></trkpt><trkpt lat="46.02414" lon="11.2717484"><ele>465.0</ele><time>2026-04-26T09:57:33.044Z</time></trkpt><trkpt lat="46.0242131" lon="11.2716553"><ele>465.0</ele><time>2026-04-26T09:57:34.05Z</time></trkpt><trkpt lat="46.0242937" lon="11.2715821"><ele>465.0</ele><time>2026-04-26T09:57:35.045Z</time></trkpt><trkpt lat="46.0243835" lon="11.2715309"><ele>465.0</ele><time>2026-04-26T09:57:36.051Z</time></trkpt><trkpt lat="46.0244802" lon="11.2714959"><ele>467.0</ele><time>2026-04-26T09:57:37.033Z</time></trkpt><trkpt lat="46.0245751" lon="11.2714655"><ele>469.0</ele><time>2026-04-26T09:57:38.042Z</time></trkpt><trkpt lat="46.0246643" lon="11.271425"><ele>471.0</ele><time>2026-04-26T09:57:39.036Z</time></trkpt><trkpt lat="46.0247561" lon="11.2713706"><ele>473.0</ele><time>2026-04-26T09:57:40.053Z</time></trkpt><trkpt lat="46.024851" lon="11.2713049"><ele>475.0</ele><time>2026-04-26T09:57:41.045Z</time></trkpt><trkpt lat="46.0249453" lon="11.2712224"><ele>481.0</ele><time>2026-04-26T09:57:42.055Z</time></trkpt><trkpt lat="46.025028" lon="11.2711262"><ele>487.0</ele><time>2026-04-26T09:57:43.039Z</time></trkpt><trkpt lat="46.0250929" lon="11.2710218"><ele>493.0</ele><time>2026-04-26T09:57:44.034Z</time></trkpt><trkpt lat="46.025155" lon="11.2709131"><ele>499.0</ele><time>2026-04-26T09:57:45.046Z</time></trkpt><trkpt lat="46.0252225" lon="11.2708268"><ele>505.0</ele><time>2026-04-26T09:57:46.044Z</time></trkpt><trkpt lat="46.0253597" lon="11.2707415"><ele>505.0</ele><time>2026-04-26T09:57:48.039Z</time></trkpt><trkpt lat="46.0254563" lon="11.2706903"><ele>505.0</ele><time>2026-04-26T09:57:49.039Z</time></trkpt><trkpt lat="46.0255479" lon="11.2706404"><ele>505.0</ele><time>2026-04-26T09:57:50.035Z</time></trkpt><trkpt lat="46.0256331" lon="11.2705848"><ele>505.0</ele><time>2026-04-26T09:57:51.033Z</time></trkpt><trkpt lat="46.0257114" lon="11.2705367"><ele>505.0</ele><time>2026-04-26T09:57:52.051Z</time></trkpt><trkpt lat="46.0257835" lon="11.2704935"><ele>506.25</ele><time>2026-04-26T09:57:53.049Z</time></trkpt><trkpt lat="46.025833" lon="11.2704357"><ele>507.5</ele><time>2026-04-26T09:57:54.058Z</time></trkpt><trkpt lat="46.0259201" lon="11.2701681"><ele>508.75</ele><time>2026-04-26T09:57:56.041Z</time></trkpt><trkpt lat="46.0260078" lon="11.2700103"><ele>510.0</ele><time>2026-04-26T09:57:57.047Z</time></trkpt><trkpt lat="46.0260813" lon="11.2699267"><ele>510.0</ele><time>2026-04-26T09:57:58.037Z</time></trkpt><trkpt lat="46.026158" lon="11.2698471"><ele>510.0</ele><time>2026-04-26T09:57:59.031Z</time></trkpt><trkpt lat="46.0262696" lon="11.2697267"><ele>510.0</ele><time>2026-04-26T09:58:00.054Z</time></trkpt><trkpt lat="46.0263793" lon="11.2696113"><ele>510.0</ele><time>2026-04-26T09:58:01.043Z</time></trkpt><trkpt lat="46.0264758" lon="11.2695032"><ele>510.25</ele><time>2026-04-26T09:58:02.039Z</time></trkpt><trkpt lat="46.0265679" lon="11.2693903"><ele>510.5</ele><time>2026-04-26T09:58:03.039Z</time></trkpt><trkpt lat="46.0266661" lon="11.2692826"><ele>510.75</ele><time>2026-04-26T09:58:04.042Z</time></trkpt><trkpt lat="46.0267742" lon="11.2691834"><ele>511.0</ele><time>2026-04-26T09:58:05.052Z</time></trkpt><trkpt lat="46.0268877" lon="11.2690883"><ele>511.0</ele><time>2026-04-26T09:58:06.04Z</time></trkpt><trkpt lat="46.0270008" lon="11.269024"><ele>511.0</ele><time>2026-04-26T09:58:07.062Z</time></trkpt><trkpt lat="46.027108" lon="11.2689778"><ele>511.0</ele><time>2026-04-26T09:58:08.039Z</time></trkpt><trkpt lat="46.0272115" lon="11.2689326"><ele>511.0</ele><time>2026-04-26T09:58:09.04Z</time></trkpt><trkpt lat="46.0272846" lon="11.2689094"><ele>511.0</ele><time>2026-04-26T09:58:10.056Z</time></trkpt><trkpt lat="46.0274689" lon="11.2689743"><ele>518.25</ele><time>2026-04-26T09:58:12.045Z</time></trkpt><trkpt lat="46.0276257" lon="11.2690121"><ele>525.5</ele><time>2026-04-26T09:58:13.046Z</time></trkpt><trkpt lat="46.0277562" lon="11.2690384"><ele>532.75</ele><time>2026-04-26T09:58:14.055Z</time></trkpt><trkpt lat="46.0278747" lon="11.2690547"><ele>540.0</ele><time>2026-04-26T09:58:15.041Z</time></trkpt><trkpt lat="46.0279855" lon="11.2690691"><ele>540.0</ele><time>2026-04-26T09:58:16.04Z</time></trkpt><trkpt lat="46.0280848" lon="11.2690916"><ele>540.0</ele><time>2026-04-26T09:58:17.042Z</time></trkpt><trkpt lat="46.0281718" lon="11.2691338"><ele>540.0</ele><time>2026-04-26T09:58:18.041Z</time></trkpt><trkpt lat="46.0282694" lon="11.2691882"><ele>540.0</ele><time>2026-04-26T09:58:19.033Z</time></trkpt><trkpt lat="46.0283747" lon="11.2692437"><ele>540.0</ele><time>2026-04-26T09:58:20.034Z</time></trkpt><trkpt lat="46.0284873" lon="11.2692934"><ele>538.0</ele><time>2026-04-26T09:58:21.04Z</time></trkpt><trkpt lat="46.0286844" lon="11.2693067"><ele>536.0</ele><time>2026-04-26T09:58:23.036Z</time></trkpt><trkpt lat="46.0288266" lon="11.2692978"><ele>534.0</ele><time>2026-04-26T09:58:24.04Z</time></trkpt><trkpt lat="46.0289529" lon="11.2692861"><ele>534.0</ele><time>2026-04-26T09:58:25.053Z</time></trkpt><trkpt lat="46.0290544" lon="11.2692784"><ele>534.0</ele><time>2026-04-26T09:58:26.056Z</time></trkpt><trkpt lat="46.0291522" lon="11.2692606"><ele>534.0</ele><time>2026-04-26T09:58:27.039Z</time></trkpt><trkpt lat="46.0292607" lon="11.2692231"><ele>534.0</ele><time>2026-04-26T09:58:28.061Z</time></trkpt><trkpt lat="46.0293215" lon="11.269182"><ele>534.0</ele><time>2026-04-26T09:58:29.037Z</time></trkpt><trkpt lat="46.0294095" lon="11.2689945"><ele>522.25</ele><time>2026-04-26T09:58:31.042Z</time></trkpt><trkpt lat="46.0294872" lon="11.2688622"><ele>510.5</ele><time>2026-04-26T09:58:32.048Z</time></trkpt><trkpt lat="46.0295849" lon="11.2687448"><ele>498.75</ele><time>2026-04-26T09:58:33.053Z</time></trkpt><trkpt lat="46.0296485" lon="11.2686897"><ele>487.0</ele><time>2026-04-26T09:58:34.046Z</time></trkpt><trkpt lat="46.0297694" lon="11.2686228"><ele>487.0</ele><time>2026-04-26T09:58:35.04Z</time></trkpt><trkpt lat="46.0298724" lon="11.2685454"><ele>487.00000000000006</ele><time>2026-04-26T09:58:36.032Z</time></trkpt><trkpt lat="46.0299538" lon="11.2684578"><ele>487.00000000000006</ele><time>2026-04-26T09:58:37.038Z</time></trkpt><trkpt lat="46.0300375" lon="11.268364"><ele>487.0</ele><time>2026-04-26T09:58:38.047Z</time></trkpt><trkpt lat="46.0301431" lon="11.2682714"><ele>487.0</ele><time>2026-04-26T09:58:39.054Z</time></trkpt><trkpt lat="46.030252" lon="11.2682034"><ele>485.8</ele><time>2026-04-26T09:58:40.038Z</time></trkpt><trkpt lat="46.030365" lon="11.2681638"><ele>484.6</ele><time>2026-04-26T09:58:41.046Z</time></trkpt><trkpt lat="46.0304788" lon="11.2681395"><ele>483.40000000000003</ele><time>2026-04-26T09:58:42.039Z</time></trkpt><trkpt lat="46.0305919" lon="11.2681115"><ele>482.20000000000005</ele><time>2026-04-26T09:58:43.043Z</time></trkpt><trkpt lat="46.0306875" lon="11.2680702"><ele>481.0</ele><time>2026-04-26T09:58:44.048Z</time></trkpt><trkpt lat="46.0307961" lon="11.2679554"><ele>486.20000000000005</ele><time>2026-04-26T09:58:46.045Z</time></trkpt><trkpt lat="46.0308991" lon="11.2678916"><ele>491.40000000000003</ele><time>2026-04-26T09:58:47.044Z</time></trkpt><trkpt lat="46.0310053" lon="11.267869"><ele>496.6</ele><time>2026-04-26T09:58:48.047Z</time></trkpt><trkpt lat="46.031114" lon="11.2678566"><ele>501.8</ele><time>2026-04-26T09:58:49.048Z</time></trkpt><trkpt lat="46.0312308" lon="11.2678363"><ele>507.0</ele><time>2026-04-26T09:58:50.043Z</time></trkpt><trkpt lat="46.031343" lon="11.2678094"><ele>507.0</ele><time>2026-04-26T09:58:51.039Z</time></trkpt><trkpt lat="46.0314448" lon="11.2677536"><ele>507.0</ele><time>2026-04-26T09:58:52.062Z</time></trkpt><trkpt lat="46.0316122" lon="11.2675822"><ele>507.0</ele><time>2026-04-26T09:58:54.05Z</time></trkpt><trkpt lat="46.0317104" lon="11.267469"><ele>507.0</ele><time>2026-04-26T09:58:55.048Z</time></trkpt><trkpt lat="46.0318016" lon="11.2673638"><ele>505.0</ele><time>2026-04-26T09:58:56.045Z</time></trkpt><trkpt lat="46.0318893" lon="11.2672654"><ele>503.00000000000006</ele><time>2026-04-26T09:58:57.038Z</time></trkpt><trkpt lat="46.0319773" lon="11.2671729"><ele>501.00000000000006</ele><time>2026-04-26T09:58:58.04Z</time></trkpt><trkpt lat="46.032068" lon="11.2670892"><ele>499.0</ele><time>2026-04-26T09:58:59.049Z</time></trkpt><trkpt lat="46.0321624" lon="11.2670051"><ele>497.0</ele><time>2026-04-26T09:59:00.044Z</time></trkpt><trkpt lat="46.0322502" lon="11.2669194"><ele>497.0</ele><time>2026-04-26T09:59:01.043Z</time></trkpt><trkpt lat="46.0323442" lon="11.2668283"><ele>497.0</ele><time>2026-04-26T09:59:02.056Z</time></trkpt><trkpt lat="46.0324371" lon="11.2667423"><ele>497.0</ele><time>2026-04-26T09:59:03.044Z</time></trkpt><trkpt lat="46.0325404" lon="11.2666551"><ele>497.0</ele><time>2026-04-26T09:59:04.05Z</time></trkpt><trkpt lat="46.032646" lon="11.2665972"><ele>499.75</ele><time>2026-04-26T09:59:05.052Z</time></trkpt><trkpt lat="46.0327603" lon="11.2665305"><ele>502.5</ele><time>2026-04-26T09:59:06.036Z</time></trkpt><trkpt lat="46.0328716" lon="11.2664464"><ele>505.25</ele><time>2026-04-26T09:59:07.053Z</time></trkpt><trkpt lat="46.0329821" lon="11.2663539"><ele>508.0</ele><time>2026-04-26T09:59:08.047Z</time></trkpt><trkpt lat="46.033089" lon="11.2662653"><ele>508.0</ele><time>2026-04-26T09:59:09.036Z</time></trkpt><trkpt lat="46.033187" lon="11.2661792"><ele>507.99999999999994</ele><time>2026-04-26T09:59:10.033Z</time></trkpt><trkpt lat="46.0332706" lon="11.2660823"><ele>507.99999999999994</ele><time>2026-04-26T09:59:11.037Z</time></trkpt><trkpt lat="46.0333394" lon="11.265972"><ele>508.0</ele><time>2026-04-26T09:59:12.039Z</time></trkpt><trkpt lat="46.0334034" lon="11.2658569"><ele>508.0</ele><time>2026-04-26T09:59:13.047Z</time></trkpt><trkpt lat="46.0334498" lon="11.2657088"><ele>511.0</ele><time>2026-04-26T09:59:14.037Z</time></trkpt><trkpt lat="46.0334974" lon="11.2655413"><ele>514.0</ele><time>2026-04-26T09:59:15.028Z</time></trkpt><trkpt lat="46.0335451" lon="11.2653606"><ele>517.0</ele><time>2026-04-26T09:59:16.03Z</time></trkpt><trkpt lat="46.0335968" lon="11.2651805"><ele>520.0</ele><time>2026-04-26T09:59:17.038Z</time></trkpt><trkpt lat="46.0336604" lon="11.264996"><ele>520.0</ele><time>2026-04-26T09:59:18.033Z</time></trkpt><trkpt lat="46.0337352" lon="11.264827"><ele>520.0</ele><time>2026-04-26T09:59:19.038Z</time></trkpt><trkpt lat="46.0338196" lon="11.264646"><ele>520.0</ele><time>2026-04-26T09:59:20.039Z</time></trkpt><trkpt lat="46.033893" lon="11.2644631"><ele>520.0</ele><time>2026-04-26T09:59:21.047Z</time></trkpt><trkpt lat="46.0339597" lon="11.2642782"><ele>522.75</ele><time>2026-04-26T09:59:22.041Z</time></trkpt><trkpt lat="46.0340253" lon="11.2640983"><ele>525.5</ele><time>2026-04-26T09:59:23.045Z</time></trkpt><trkpt lat="46.0340885" lon="11.2639303"><ele>528.25</ele><time>2026-04-26T09:59:24.041Z</time></trkpt><trkpt lat="46.0341466" lon="11.2637708"><ele>531.0</ele><time>2026-04-26T09:59:25.029Z</time></trkpt><trkpt lat="46.0342023" lon="11.2636184"><ele>531.0</ele><time>2026-04-26T09:59:26.057Z</time></trkpt><trkpt lat="46.0342533" lon="11.2634811"><ele>531.0</ele><time>2026-04-26T09:59:27.031Z</time></trkpt><trkpt lat="46.0343037" lon="11.2633421"><ele>531.0</ele><time>2026-04-26T09:59:28.039Z</time></trkpt><trkpt lat="46.0343466" lon="11.2632025"><ele>531.0</ele><time>2026-04-26T09:59:29.037Z</time></trkpt><trkpt lat="46.0343748" lon="11.263062"><ele>531.0</ele><time>2026-04-26T09:59:30.033Z</time></trkpt><trkpt lat="46.0343849" lon="11.2629306"><ele>529.1666666666666</ele><time>2026-04-26T09:59:31.05Z</time></trkpt><trkpt lat="46.034393" lon="11.2627912"><ele>527.3333333333334</ele><time>2026-04-26T09:59:32.06Z</time></trkpt><trkpt lat="46.0343994" lon="11.2626618"><ele>525.5</ele><time>2026-04-26T09:59:33.036Z</time></trkpt><trkpt lat="46.0344072" lon="11.262535"><ele>523.6666666666667</ele><time>2026-04-26T09:59:34.053Z</time></trkpt><trkpt lat="46.0344206" lon="11.262416"><ele>521.8333333333334</ele><time>2026-04-26T09:59:35.061Z</time></trkpt><trkpt lat="46.034442" lon="11.2622947"><ele>520.0</ele><time>2026-04-26T09:59:36.053Z</time></trkpt><trkpt lat="46.0344772" lon="11.2621722"><ele>517.6</ele><time>2026-04-26T09:59:37.034Z</time></trkpt><trkpt lat="46.034527" lon="11.2620347"><ele>515.2</ele><time>2026-04-26T09:59:38.041Z</time></trkpt><trkpt lat="46.0345798" lon="11.2618917"><ele>512.8</ele><time>2026-04-26T09:59:39.039Z</time></trkpt><trkpt lat="46.0346296" lon="11.2617515"><ele>510.4</ele><time>2026-04-26T09:59:40.047Z</time></trkpt><trkpt lat="46.0346786" lon="11.2616146"><ele>508.0</ele><time>2026-04-26T09:59:41.035Z</time></trkpt><trkpt lat="46.0347283" lon="11.2614784"><ele>504.59999999999997</ele><time>2026-04-26T09:59:42.046Z</time></trkpt><trkpt lat="46.0347783" lon="11.2613449"><ele>501.19999999999993</ele><time>2026-04-26T09:59:43.034Z</time></trkpt><trkpt lat="46.034834" lon="11.2612172"><ele>497.8</ele><time>2026-04-26T09:59:44.052Z</time></trkpt><trkpt lat="46.0348949" lon="11.2611082"><ele>494.4</ele><time>2026-04-26T09:59:45.035Z</time></trkpt><trkpt lat="46.0349618" lon="11.2610108"><ele>491.0</ele><time>2026-04-26T09:59:46.043Z</time></trkpt><trkpt lat="46.03503" lon="11.2609251"><ele>499.8</ele><time>2026-04-26T09:59:47.037Z</time></trkpt><trkpt lat="46.0350985" lon="11.2608314"><ele>508.6</ele><time>2026-04-26T09:59:48.038Z</time></trkpt><trkpt lat="46.035155" lon="11.2607326"><ele>517.4</ele><time>2026-04-26T09:59:49.05Z</time></trkpt><trkpt lat="46.0351922" lon="11.2606428"><ele>526.2</ele><time>2026-04-26T09:59:50.039Z</time></trkpt><trkpt lat="46.0352169" lon="11.2603932"><ele>535.0</ele><time>2026-04-26T09:59:52.05Z</time></trkpt><trkpt lat="46.0352275" lon="11.2602164"><ele>535.0</ele><time>2026-04-26T09:59:53.039Z</time></trkpt><trkpt lat="46.0352296" lon="11.2600552"><ele>535.0</ele><time>2026-04-26T09:59:54.053Z</time></trkpt><trkpt lat="46.0352288" lon="11.259894"><ele>535.0</ele><time>2026-04-26T09:59:55.042Z</time></trkpt><trkpt lat="46.0352251" lon="11.2597418"><ele>535.0</ele><time>2026-04-26T09:59:56.047Z</time></trkpt><trkpt lat="46.03521" lon="11.2595939"><ele>535.0</ele><time>2026-04-26T09:59:57.037Z</time></trkpt><trkpt lat="46.035185" lon="11.259443"><ele>534.25</ele><time>2026-04-26T09:59:58.046Z</time></trkpt><trkpt lat="46.0351662" lon="11.2592952"><ele>533.5</ele><time>2026-04-26T09:59:59.039Z</time></trkpt><trkpt lat="46.0351645" lon="11.2591362"><ele>532.75</ele><time>2026-04-26T10:00:00.037Z</time></trkpt><trkpt lat="46.0351765" lon="11.2589519"><ele>532.0</ele><time>2026-04-26T10:00:01.037Z</time></trkpt><trkpt lat="46.0352001" lon="11.2587568"><ele>532.0</ele><time>2026-04-26T10:00:02.044Z</time></trkpt><trkpt lat="46.0352273" lon="11.2585578"><ele>532.0</ele><time>2026-04-26T10:00:03.048Z</time></trkpt><trkpt lat="46.0352519" lon="11.2583689"><ele>532.0</ele><time>2026-04-26T10:00:04.039Z</time></trkpt><trkpt lat="46.0352679" lon="11.2581861"><ele>532.0</ele><time>2026-04-26T10:00:05.047Z</time></trkpt><trkpt lat="46.0352703" lon="11.2580178"><ele>532.0</ele><time>2026-04-26T10:00:06.048Z</time></trkpt><trkpt lat="46.0352517" lon="11.2578829"><ele>532.0</ele><time>2026-04-26T10:00:07.039Z</time></trkpt><trkpt lat="46.0352199" lon="11.2577322"><ele>532.0</ele><time>2026-04-26T10:00:08.044Z</time></trkpt><trkpt lat="46.0351733" lon="11.2576156"><ele>532.0</ele><time>2026-04-26T10:00:09.027Z</time></trkpt><trkpt lat="46.035137" lon="11.2575367"><ele>532.0</ele><time>2026-04-26T10:00:10.043Z</time></trkpt><trkpt lat="46.0350904" lon="11.2574731"><ele>532.0</ele><time>2026-04-26T10:00:11.038Z</time></trkpt><trkpt lat="46.0349973" lon="11.2573894"><ele>533.0</ele><time>2026-04-26T10:00:12.048Z</time></trkpt><trkpt lat="46.0349474" lon="11.2573173"><ele>534.0</ele><time>2026-04-26T10:00:13.053Z</time></trkpt><trkpt lat="46.0349046" lon="11.2571813"><ele>535.0</ele><time>2026-04-26T10:00:15.045Z</time></trkpt><trkpt lat="46.0349077" lon="11.2570055"><ele>536.0</ele><time>2026-04-26T10:00:17.034Z</time></trkpt><trkpt lat="46.0349559" lon="11.2568902"><ele>537.0</ele><time>2026-04-26T10:00:19.036Z</time></trkpt><trkpt lat="46.0350576" lon="11.2567826"><ele>537.0</ele><time>2026-04-26T10:00:21.042Z</time></trkpt><trkpt lat="46.0351877" lon="11.2567575"><ele>537.0</ele><time>2026-04-26T10:00:22.037Z</time></trkpt><trkpt lat="46.0353078" lon="11.2567697"><ele>537.0</ele><time>2026-04-26T10:00:23.059Z</time></trkpt><trkpt lat="46.0354032" lon="11.2568022"><ele>537.0</ele><time>2026-04-26T10:00:24.035Z</time></trkpt><trkpt lat="46.0355065" lon="11.2568189"><ele>537.0</ele><time>2026-04-26T10:00:25.037Z</time></trkpt><trkpt lat="46.0356246" lon="11.2568249"><ele>537.0</ele><time>2026-04-26T10:00:26.033Z</time></trkpt><trkpt lat="46.0357065" lon="11.2568324"><ele>537.0</ele><time>2026-04-26T10:00:27.049Z</time></trkpt><trkpt lat="46.0358448" lon="11.256851"><ele>537.0</ele><time>2026-04-26T10:00:28.04Z</time></trkpt><trkpt lat="46.035951" lon="11.2568598"><ele>537.0</ele><time>2026-04-26T10:00:29.038Z</time></trkpt><trkpt lat="46.0360427" lon="11.2568722"><ele>543.0</ele><time>2026-04-26T10:00:30.038Z</time></trkpt><trkpt lat="46.0362331" lon="11.2568897"><ele>549.0</ele><time>2026-04-26T10:00:31.043Z</time></trkpt><trkpt lat="46.0363493" lon="11.256859"><ele>555.0</ele><time>2026-04-26T10:00:32.036Z</time></trkpt><trkpt lat="46.036483" lon="11.2568496"><ele>561.0</ele><time>2026-04-26T10:00:33.038Z</time></trkpt><trkpt lat="46.0365569" lon="11.2568851"><ele>561.0</ele><time>2026-04-26T10:00:35.042Z</time></trkpt><trkpt lat="46.0366088" lon="11.256937"><ele>561.0</ele><time>2026-04-26T10:00:36.051Z</time></trkpt><trkpt lat="46.0367413" lon="11.2571854"><ele>561.0</ele><time>2026-04-26T10:00:38.065Z</time></trkpt><trkpt lat="46.0369284" lon="11.2573717"><ele>570.0</ele><time>2026-04-26T10:00:40.036Z</time></trkpt><trkpt lat="46.0370614" lon="11.2574679"><ele>579.0</ele><time>2026-04-26T10:00:41.048Z</time></trkpt><trkpt lat="46.0371601" lon="11.257533"><ele>588.0</ele><time>2026-04-26T10:00:42.033Z</time></trkpt><trkpt lat="46.0372542" lon="11.2575895"><ele>597.0</ele><time>2026-04-26T10:00:43.059Z</time></trkpt><trkpt lat="46.0373455" lon="11.2576477"><ele>597.0</ele><time>2026-04-26T10:00:44.054Z</time></trkpt><trkpt lat="46.0374633" lon="11.257724"><ele>597.0</ele><time>2026-04-26T10:00:45.033Z</time></trkpt><trkpt lat="46.0375705" lon="11.2577912"><ele>597.0</ele><time>2026-04-26T10:00:46.035Z</time></trkpt><trkpt lat="46.0376825" lon="11.2578689"><ele>597.0</ele><time>2026-04-26T10:00:47.044Z</time></trkpt><trkpt lat="46.0378188" lon="11.2579564"><ele>601.25</ele><time>2026-04-26T10:00:48.049Z</time></trkpt><trkpt lat="46.0379397" lon="11.2580426"><ele>605.5</ele><time>2026-04-26T10:00:49.057Z</time></trkpt><trkpt lat="46.0380642" lon="11.258127"><ele>609.75</ele><time>2026-04-26T10:00:50.042Z</time></trkpt><trkpt lat="46.0382053" lon="11.2582284"><ele>614.0</ele><time>2026-04-26T10:00:51.051Z</time></trkpt><trkpt lat="46.0383345" lon="11.2583044"><ele>603.0</ele><time>2026-04-26T10:00:52.052Z</time></trkpt><trkpt lat="46.0384624" lon="11.2583573"><ele>592.0</ele><time>2026-04-26T10:00:53.051Z</time></trkpt><trkpt lat="46.0385948" lon="11.258415"><ele>581.0</ele><time>2026-04-26T10:00:54.045Z</time></trkpt><trkpt lat="46.0387433" lon="11.2584818"><ele>570.0</ele><time>2026-04-26T10:00:55.04Z</time></trkpt><trkpt lat="46.03888" lon="11.2585388"><ele>570.0</ele><time>2026-04-26T10:00:56.057Z</time></trkpt><trkpt lat="46.0390015" lon="11.2585784"><ele>570.0</ele><time>2026-04-26T10:00:57.034Z</time></trkpt><trkpt lat="46.0391258" lon="11.2585958"><ele>570.0</ele><time>2026-04-26T10:00:58.04Z</time></trkpt><trkpt lat="46.0392583" lon="11.2586045"><ele>570.0</ele><time>2026-04-26T10:00:59.047Z</time></trkpt><trkpt lat="46.0393752" lon="11.2585986"><ele>564.5</ele><time>2026-04-26T10:01:00.041Z</time></trkpt><trkpt lat="46.0394948" lon="11.2585878"><ele>559.0</ele><time>2026-04-26T10:01:01.039Z</time></trkpt><trkpt lat="46.039617" lon="11.2585781"><ele>553.5</ele><time>2026-04-26T10:01:02.043Z</time></trkpt><trkpt lat="46.0397388" lon="11.2585684"><ele>548.0</ele><time>2026-04-26T10:01:03.037Z</time></trkpt><trkpt lat="46.0398729" lon="11.2585588"><ele>546.4</ele><time>2026-04-26T10:01:04.046Z</time></trkpt><trkpt lat="46.0399936" lon="11.2585504"><ele>544.8</ele><time>2026-04-26T10:01:05.046Z</time></trkpt><trkpt lat="46.0401088" lon="11.2585421"><ele>543.2</ele><time>2026-04-26T10:01:06.052Z</time></trkpt><trkpt lat="46.0402115" lon="11.2585233"><ele>541.6</ele><time>2026-04-26T10:01:07.05Z</time></trkpt><trkpt lat="46.0403127" lon="11.2584887"><ele>540.0</ele><time>2026-04-26T10:01:08.054Z</time></trkpt><trkpt lat="46.0404186" lon="11.2584537"><ele>540.0</ele><time>2026-04-26T10:01:09.042Z</time></trkpt><trkpt lat="46.0405299" lon="11.2584293"><ele>540.0</ele><time>2026-04-26T10:01:10.037Z</time></trkpt><trkpt lat="46.0406532" lon="11.2584311"><ele>540.0</ele><time>2026-04-26T10:01:11.039Z</time></trkpt><trkpt lat="46.0407864" lon="11.2584634"><ele>540.0</ele><time>2026-04-26T10:01:12.04Z</time></trkpt><trkpt lat="46.0409167" lon="11.2585235"><ele>543.0</ele><time>2026-04-26T10:01:13.057Z</time></trkpt><trkpt lat="46.0410562" lon="11.2585834"><ele>546.0</ele><time>2026-04-26T10:01:14.044Z</time></trkpt><trkpt lat="46.0411899" lon="11.2586486"><ele>549.0</ele><time>2026-04-26T10:01:15.041Z</time></trkpt><trkpt lat="46.0413074" lon="11.2587405"><ele>552.0</ele><time>2026-04-26T10:01:16.034Z</time></trkpt><trkpt lat="46.0414328" lon="11.2588375"><ele>552.0</ele><time>2026-04-26T10:01:17.034Z</time></trkpt><trkpt lat="46.0415578" lon="11.2589183"><ele>552.0</ele><time>2026-04-26T10:01:18.027Z</time></trkpt><trkpt lat="46.0416915" lon="11.258977"><ele>552.0</ele><time>2026-04-26T10:01:19.05Z</time></trkpt><trkpt lat="46.0418289" lon="11.2590152"><ele>552.0</ele><time>2026-04-26T10:01:20.035Z</time></trkpt><trkpt lat="46.04197" lon="11.2590294"><ele>558.75</ele><time>2026-04-26T10:01:21.05Z</time></trkpt><trkpt lat="46.0421142" lon="11.259036"><ele>565.5</ele><time>2026-04-26T10:01:22.037Z</time></trkpt><trkpt lat="46.0422522" lon="11.2590281"><ele>572.25</ele><time>2026-04-26T10:01:23.037Z</time></trkpt><trkpt lat="46.0423872" lon="11.2590126"><ele>579.0</ele><time>2026-04-26T10:01:24.038Z</time></trkpt><trkpt lat="46.0425012" lon="11.2589767"><ele>574.0</ele><time>2026-04-26T10:01:25.047Z</time></trkpt><trkpt lat="46.0426053" lon="11.2589272"><ele>569.0</ele><time>2026-04-26T10:01:26.038Z</time></trkpt><trkpt lat="46.0426999" lon="11.258865"><ele>564.0</ele><time>2026-04-26T10:01:27.04Z</time></trkpt><trkpt lat="46.0428021" lon="11.258792"><ele>559.0</ele><time>2026-04-26T10:01:28.051Z</time></trkpt><trkpt lat="46.0428927" lon="11.2587119"><ele>554.0</ele><time>2026-04-26T10:01:29.029Z</time></trkpt><trkpt lat="46.0429866" lon="11.2586283"><ele>554.0</ele><time>2026-04-26T10:01:30.049Z</time></trkpt><trkpt lat="46.0431185" lon="11.2585883"><ele>554.0</ele><time>2026-04-26T10:01:31.032Z</time></trkpt><trkpt lat="46.0432151" lon="11.2585219"><ele>554.0</ele><time>2026-04-26T10:01:32.037Z</time></trkpt><trkpt lat="46.0433044" lon="11.2584385"><ele>554.0</ele><time>2026-04-26T10:01:33.038Z</time></trkpt><trkpt lat="46.0433945" lon="11.2583423"><ele>554.5</ele><time>2026-04-26T10:01:34.044Z</time></trkpt><trkpt lat="46.0434877" lon="11.2582356"><ele>555.0</ele><time>2026-04-26T10:01:35.047Z</time></trkpt><trkpt lat="46.0435726" lon="11.2581233"><ele>555.5</ele><time>2026-04-26T10:01:36.049Z</time></trkpt><trkpt lat="46.0436585" lon="11.2580098"><ele>556.0</ele><time>2026-04-26T10:01:37.04Z</time></trkpt><trkpt lat="46.0437465" lon="11.2578899"><ele>555.0</ele><time>2026-04-26T10:01:38.033Z</time></trkpt><trkpt lat="46.043834" lon="11.2577648"><ele>554.0</ele><time>2026-04-26T10:01:39.031Z</time></trkpt><trkpt lat="46.0439249" lon="11.2576344"><ele>553.0</ele><time>2026-04-26T10:01:40.038Z</time></trkpt><trkpt lat="46.0440175" lon="11.2575045"><ele>552.0</ele><time>2026-04-26T10:01:41.039Z</time></trkpt><trkpt lat="46.0441073" lon="11.2573756"><ele>552.0</ele><time>2026-04-26T10:01:42.049Z</time></trkpt><trkpt lat="46.044195" lon="11.2572502"><ele>552.0</ele><time>2026-04-26T10:01:43.04Z</time></trkpt><trkpt lat="46.0442791" lon="11.257128"><ele>552.0</ele><time>2026-04-26T10:01:44.049Z</time></trkpt><trkpt lat="46.0443599" lon="11.257003"><ele>552.0</ele><time>2026-04-26T10:01:45.056Z</time></trkpt><trkpt lat="46.0444425" lon="11.2568713"><ele>552.0</ele><time>2026-04-26T10:01:46.055Z</time></trkpt><trkpt lat="46.0445274" lon="11.2567371"><ele>552.0</ele><time>2026-04-26T10:01:47.041Z</time></trkpt><trkpt lat="46.0446131" lon="11.2566018"><ele>552.0</ele><time>2026-04-26T10:01:48.04Z</time></trkpt><trkpt lat="46.0447015" lon="11.256467"><ele>552.0</ele><time>2026-04-26T10:01:49.04Z</time></trkpt><trkpt lat="46.0447873" lon="11.2563416"><ele>551.0</ele><time>2026-04-26T10:01:50.04Z</time></trkpt><trkpt lat="46.0448763" lon="11.2562208"><ele>550.0</ele><time>2026-04-26T10:01:51.037Z</time></trkpt><trkpt lat="46.0449697" lon="11.256102"><ele>549.0</ele><time>2026-04-26T10:01:52.04Z</time></trkpt><trkpt lat="46.0450698" lon="11.2559869"><ele>548.0</ele><time>2026-04-26T10:01:53.041Z</time></trkpt><trkpt lat="46.0451785" lon="11.2558747"><ele>550.0</ele><time>2026-04-26T10:01:54.057Z</time></trkpt><trkpt lat="46.0452942" lon="11.2557679"><ele>552.0</ele><time>2026-04-26T10:01:55.053Z</time></trkpt><trkpt lat="46.0454137" lon="11.2556756"><ele>554.0</ele><time>2026-04-26T10:01:56.03Z</time></trkpt><trkpt lat="46.0455411" lon="11.2555918"><ele>556.0</ele><time>2026-04-26T10:01:57.043Z</time></trkpt><trkpt lat="46.0456714" lon="11.2555144"><ele>558.25</ele><time>2026-04-26T10:01:58.046Z</time></trkpt><trkpt lat="46.0458037" lon="11.2554457"><ele>560.5</ele><time>2026-04-26T10:01:59.057Z</time></trkpt><trkpt lat="46.0459331" lon="11.2553899"><ele>562.75</ele><time>2026-04-26T10:02:00.054Z</time></trkpt><trkpt lat="46.0460607" lon="11.2553461"><ele>565.0</ele><time>2026-04-26T10:02:01.036Z</time></trkpt><trkpt lat="46.0462023" lon="11.2553075"><ele>565.0</ele><time>2026-04-26T10:02:02.04Z</time></trkpt><trkpt lat="46.0463426" lon="11.2552758"><ele>565.0</ele><time>2026-04-26T10:02:03.05Z</time></trkpt><trkpt lat="46.046479" lon="11.2552478"><ele>565.0</ele><time>2026-04-26T10:02:04.036Z</time></trkpt><trkpt lat="46.0466133" lon="11.255221"><ele>565.0</ele><time>2026-04-26T10:02:05.04Z</time></trkpt><trkpt lat="46.0467477" lon="11.2551931"><ele>563.75</ele><time>2026-04-26T10:02:06.038Z</time></trkpt><trkpt lat="46.046871" lon="11.2551696"><ele>562.5</ele><time>2026-04-26T10:02:07.039Z</time></trkpt><trkpt lat="46.04699" lon="11.2551487"><ele>561.25</ele><time>2026-04-26T10:02:08.055Z</time></trkpt><trkpt lat="46.0471146" lon="11.2551222"><ele>560.0</ele><time>2026-04-26T10:02:09.043Z</time></trkpt><trkpt lat="46.0472319" lon="11.2550753"><ele>560.0</ele><time>2026-04-26T10:02:10.1Z</time></trkpt><trkpt lat="46.0473671" lon="11.2550316"><ele>560.0</ele><time>2026-04-26T10:02:11.04Z</time></trkpt><trkpt lat="46.0475057" lon="11.2549776"><ele>560.0</ele><time>2026-04-26T10:02:12.046Z</time></trkpt><trkpt lat="46.0476482" lon="11.2549169"><ele>560.0</ele><time>2026-04-26T10:02:13.088Z</time></trkpt><trkpt lat="46.0477789" lon="11.2548525"><ele>559.5</ele><time>2026-04-26T10:02:14.042Z</time></trkpt><trkpt lat="46.0479136" lon="11.2547787"><ele>559.0</ele><time>2026-04-26T10:02:15.043Z</time></trkpt><trkpt lat="46.0480482" lon="11.2546953"><ele>558.5</ele><time>2026-04-26T10:02:16.056Z</time></trkpt><trkpt lat="46.048175" lon="11.2546064"><ele>558.0</ele><time>2026-04-26T10:02:17.041Z</time></trkpt><trkpt lat="46.0482988" lon="11.2545069"><ele>554.0</ele><time>2026-04-26T10:02:18.094Z</time></trkpt><trkpt lat="46.0484142" lon="11.2544099"><ele>550.0</ele><time>2026-04-26T10:02:19.034Z</time></trkpt><trkpt lat="46.048527" lon="11.2543127"><ele>546.0</ele><time>2026-04-26T10:02:20.038Z</time></trkpt><trkpt lat="46.0486302" lon="11.2542248"><ele>542.0</ele><time>2026-04-26T10:02:21.04Z</time></trkpt><trkpt lat="46.0487241" lon="11.2541425"><ele>542.0</ele><time>2026-04-26T10:02:22.042Z</time></trkpt><trkpt lat="46.0488164" lon="11.2540633"><ele>542.0</ele><time>2026-04-26T10:02:23.038Z</time></trkpt><trkpt lat="46.0489078" lon="11.2539858"><ele>542.0</ele><time>2026-04-26T10:02:24.053Z</time></trkpt><trkpt lat="46.0490034" lon="11.2539034"><ele>542.0</ele><time>2026-04-26T10:02:25.048Z</time></trkpt><trkpt lat="46.0491025" lon="11.2538186"><ele>542.0</ele><time>2026-04-26T10:02:26.048Z</time></trkpt><trkpt lat="46.0492008" lon="11.2537224"><ele>541.0</ele><time>2026-04-26T10:02:27.051Z</time></trkpt><trkpt lat="46.0492965" lon="11.2536114"><ele>540.0</ele><time>2026-04-26T10:02:28.046Z</time></trkpt><trkpt lat="46.0493959" lon="11.2534841"><ele>539.0</ele><time>2026-04-26T10:02:29.036Z</time></trkpt><trkpt lat="46.0494857" lon="11.2533362"><ele>538.0</ele><time>2026-04-26T10:02:30.053Z</time></trkpt><trkpt lat="46.0495691" lon="11.2531729"><ele>537.0</ele><time>2026-04-26T10:02:31.045Z</time></trkpt><trkpt lat="46.0496545" lon="11.2530017"><ele>536.0</ele><time>2026-04-26T10:02:32.036Z</time></trkpt><trkpt lat="46.0497381" lon="11.2528372"><ele>535.0</ele><time>2026-04-26T10:02:33.034Z</time></trkpt><trkpt lat="46.0498245" lon="11.2526695"><ele>534.0</ele><time>2026-04-26T10:02:34.038Z</time></trkpt><trkpt lat="46.0499129" lon="11.2524993"><ele>534.3333333333334</ele><time>2026-04-26T10:02:35.035Z</time></trkpt><trkpt lat="46.0500048" lon="11.2523248"><ele>534.6666666666667</ele><time>2026-04-26T10:02:36.029Z</time></trkpt><trkpt lat="46.0501025" lon="11.2521505"><ele>535.0</ele><time>2026-04-26T10:02:37.068Z</time></trkpt><trkpt lat="46.0502033" lon="11.2519898"><ele>534.25</ele><time>2026-04-26T10:02:38.048Z</time></trkpt><trkpt lat="46.0503097" lon="11.2518388"><ele>533.5</ele><time>2026-04-26T10:02:39.041Z</time></trkpt><trkpt lat="46.0504228" lon="11.2516961"><ele>532.75</ele><time>2026-04-26T10:02:40.039Z</time></trkpt><trkpt lat="46.0505357" lon="11.2515642"><ele>532.0</ele><time>2026-04-26T10:02:41.036Z</time></trkpt><trkpt lat="46.050651" lon="11.2514345"><ele>531.25</ele><time>2026-04-26T10:02:42.046Z</time></trkpt><trkpt lat="46.0507637" lon="11.2513097"><ele>530.5</ele><time>2026-04-26T10:02:43.037Z</time></trkpt><trkpt lat="46.0508604" lon="11.2511962"><ele>529.75</ele><time>2026-04-26T10:02:44.052Z</time></trkpt><trkpt lat="46.05095" lon="11.2510944"><ele>529.0</ele><time>2026-04-26T10:02:45.044Z</time></trkpt><trkpt lat="46.0510412" lon="11.250993"><ele>529.0</ele><time>2026-04-26T10:02:46.031Z</time></trkpt><trkpt lat="46.0511307" lon="11.2508821"><ele>529.0</ele><time>2026-04-26T10:02:47.041Z</time></trkpt><trkpt lat="46.0512282" lon="11.2507702"><ele>529.0</ele><time>2026-04-26T10:02:48.031Z</time></trkpt><trkpt lat="46.0513202" lon="11.2506402"><ele>529.0</ele><time>2026-04-26T10:02:49.034Z</time></trkpt><trkpt lat="46.0514179" lon="11.2505186"><ele>530.25</ele><time>2026-04-26T10:02:50.049Z</time></trkpt><trkpt lat="46.0515187" lon="11.250402"><ele>531.5</ele><time>2026-04-26T10:02:51.045Z</time></trkpt><trkpt lat="46.0516214" lon="11.2502899"><ele>532.75</ele><time>2026-04-26T10:02:52.032Z</time></trkpt><trkpt lat="46.0517235" lon="11.250179"><ele>534.0</ele><time>2026-04-26T10:02:53.048Z</time></trkpt><trkpt lat="46.051827" lon="11.2500738"><ele>534.0</ele><time>2026-04-26T10:02:54.052Z</time></trkpt><trkpt lat="46.0519348" lon="11.2499798"><ele>534.0</ele><time>2026-04-26T10:02:55.039Z</time></trkpt><trkpt lat="46.0520463" lon="11.2498995"><ele>534.0</ele><time>2026-04-26T10:02:56.042Z</time></trkpt><trkpt lat="46.0521607" lon="11.2498437"><ele>534.0</ele><time>2026-04-26T10:02:57.039Z</time></trkpt><trkpt lat="46.0522786" lon="11.249818"><ele>533.5</ele><time>2026-04-26T10:02:58.043Z</time></trkpt><trkpt lat="46.0523901" lon="11.2497711"><ele>533.0</ele><time>2026-04-26T10:02:59.045Z</time></trkpt><trkpt lat="46.0524912" lon="11.2496813"><ele>532.5</ele><time>2026-04-26T10:03:00.038Z</time></trkpt><trkpt lat="46.0525774" lon="11.2495556"><ele>532.0</ele><time>2026-04-26T10:03:01.034Z</time></trkpt><trkpt lat="46.0526384" lon="11.2493998"><ele>532.0</ele><time>2026-04-26T10:03:02.054Z</time></trkpt><trkpt lat="46.0526716" lon="11.2492271"><ele>532.0</ele><time>2026-04-26T10:03:03.053Z</time></trkpt><trkpt lat="46.0526948" lon="11.2490593"><ele>532.0</ele><time>2026-04-26T10:03:04.042Z</time></trkpt><trkpt lat="46.0527129" lon="11.2488923"><ele>532.0</ele><time>2026-04-26T10:03:05.046Z</time></trkpt><trkpt lat="46.0527333" lon="11.2487344"><ele>531.6666666666667</ele><time>2026-04-26T10:03:06.04Z</time></trkpt><trkpt lat="46.0527427" lon="11.2485987"><ele>531.3333333333334</ele><time>2026-04-26T10:03:07.045Z</time></trkpt><trkpt lat="46.0527573" lon="11.2485056"><ele>531.0</ele><time>2026-04-26T10:03:08.04Z</time></trkpt><trkpt lat="46.0527776" lon="11.2483942"><ele>530.6666666666666</ele><time>2026-04-26T10:03:10.05Z</time></trkpt><trkpt lat="46.0528007" lon="11.2482573"><ele>530.3333333333333</ele><time>2026-04-26T10:03:34.04Z</time></trkpt><trkpt lat="46.0528349" lon="11.2481477"><ele>530.0</ele><time>2026-04-26T10:03:38.044Z</time></trkpt><trkpt lat="46.0528935" lon="11.2480883"><ele>530.0</ele><time>2026-04-26T10:03:40.048Z</time></trkpt><trkpt lat="46.0529867" lon="11.2480309"><ele>530.0</ele><time>2026-04-26T10:03:42.075Z</time></trkpt><trkpt lat="46.0530942" lon="11.2480103"><ele>530.0</ele><time>2026-04-26T10:03:44.046Z</time></trkpt><trkpt lat="46.0532007" lon="11.2479941"><ele>530.0</ele><time>2026-04-26T10:03:46.042Z</time></trkpt><trkpt lat="46.0533167" lon="11.2479622"><ele>530.0</ele><time>2026-04-26T10:03:48.043Z</time></trkpt><trkpt lat="46.0533799" lon="11.2479613"><ele>532.6666666666666</ele><time>2026-04-26T10:03:49.044Z</time></trkpt><trkpt lat="46.0534477" lon="11.2479654"><ele>535.3333333333333</ele><time>2026-04-26T10:03:50.046Z</time></trkpt><trkpt lat="46.0535181" lon="11.2479456"><ele>538.0</ele><time>2026-04-26T10:03:51.039Z</time></trkpt><trkpt lat="46.0535991" lon="11.2479282"><ele>540.6666666666666</ele><time>2026-04-26T10:03:52.053Z</time></trkpt><trkpt lat="46.0536774" lon="11.2478775"><ele>543.3333333333334</ele><time>2026-04-26T10:03:53.038Z</time></trkpt><trkpt lat="46.0537634" lon="11.2478532"><ele>546.0</ele><time>2026-04-26T10:03:54.044Z</time></trkpt><trkpt lat="46.0538467" lon="11.2477991"><ele>546.0</ele><time>2026-04-26T10:03:55.054Z</time></trkpt><trkpt lat="46.0539362" lon="11.2477355"><ele>546.0</ele><time>2026-04-26T10:03:56.038Z</time></trkpt><trkpt lat="46.0540304" lon="11.2476691"><ele>546.0</ele><time>2026-04-26T10:03:57.072Z</time></trkpt><trkpt lat="46.0541288" lon="11.2475999"><ele>546.0</ele><time>2026-04-26T10:03:58.042Z</time></trkpt><trkpt lat="46.0542292" lon="11.2475226"><ele>546.0</ele><time>2026-04-26T10:03:59.038Z</time></trkpt><trkpt lat="46.0543358" lon="11.2474536"><ele>546.5</ele><time>2026-04-26T10:04:00.11Z</time></trkpt><trkpt lat="46.0544465" lon="11.2473953"><ele>547.0</ele><time>2026-04-26T10:04:01.038Z</time></trkpt><trkpt lat="46.0545565" lon="11.2473312"><ele>547.5</ele><time>2026-04-26T10:04:02.049Z</time></trkpt><trkpt lat="46.0546642" lon="11.2472684"><ele>548.0</ele><time>2026-04-26T10:04:03.042Z</time></trkpt><trkpt lat="46.0547661" lon="11.2472064"><ele>553.0</ele><time>2026-04-26T10:04:04.044Z</time></trkpt><trkpt lat="46.0548618" lon="11.2471583"><ele>558.0</ele><time>2026-04-26T10:04:05.042Z</time></trkpt><trkpt lat="46.0549506" lon="11.2471124"><ele>563.0</ele><time>2026-04-26T10:04:06.041Z</time></trkpt><trkpt lat="46.0550388" lon="11.2470775"><ele>568.0</ele><time>2026-04-26T10:04:07.047Z</time></trkpt><trkpt lat="46.0551325" lon="11.2470647"><ele>573.0</ele><time>2026-04-26T10:04:08.048Z</time></trkpt><trkpt lat="46.0552239" lon="11.2470774"><ele>573.0</ele><time>2026-04-26T10:04:09.051Z</time></trkpt><trkpt lat="46.055316" lon="11.2470779"><ele>573.0</ele><time>2026-04-26T10:04:10.045Z</time></trkpt><trkpt lat="46.055407" lon="11.2471074"><ele>573.0</ele><time>2026-04-26T10:04:11.047Z</time></trkpt><trkpt lat="46.0554924" lon="11.247166"><ele>573.0</ele><time>2026-04-26T10:04:12.041Z</time></trkpt><trkpt lat="46.0555754" lon="11.2472342"><ele>573.0</ele><time>2026-04-26T10:04:13.064Z</time></trkpt><trkpt lat="46.0556651" lon="11.2472923"><ele>572.6</ele><time>2026-04-26T10:04:14.071Z</time></trkpt><trkpt lat="46.0557601" lon="11.2473319"><ele>572.1999999999999</ele><time>2026-04-26T10:04:15.051Z</time></trkpt><trkpt lat="46.0558503" lon="11.2473621"><ele>571.8</ele><time>2026-04-26T10:04:16.058Z</time></trkpt><trkpt lat="46.0559439" lon="11.2473357"><ele>571.4</ele><time>2026-04-26T10:04:17.054Z</time></trkpt><trkpt lat="46.0560411" lon="11.2473081"><ele>571.0</ele><time>2026-04-26T10:04:18.055Z</time></trkpt><trkpt lat="46.056148" lon="11.247281"><ele>571.0</ele><time>2026-04-26T10:04:19.033Z</time></trkpt><trkpt lat="46.0562588" lon="11.2472479"><ele>571.0</ele><time>2026-04-26T10:04:20.179Z</time></trkpt><trkpt lat="46.0563598" lon="11.24722"><ele>571.0</ele><time>2026-04-26T10:04:21.097Z</time></trkpt><trkpt lat="46.056448" lon="11.2471805"><ele>571.0</ele><time>2026-04-26T10:04:22.06Z</time></trkpt><trkpt lat="46.0565361" lon="11.2471487"><ele>571.0</ele><time>2026-04-26T10:04:23.039Z</time></trkpt><trkpt lat="46.0566326" lon="11.2471417"><ele>572.2</ele><time>2026-04-26T10:04:24.062Z</time></trkpt><trkpt lat="46.0567884" lon="11.2471299"><ele>573.4000000000001</ele><time>2026-04-26T10:04:25.053Z</time></trkpt><trkpt lat="46.0568699" lon="11.2471419"><ele>574.6</ele><time>2026-04-26T10:04:26.037Z</time></trkpt><trkpt lat="46.0569558" lon="11.2471491"><ele>575.8000000000001</ele><time>2026-04-26T10:04:27.04Z</time></trkpt><trkpt lat="46.0570361" lon="11.2471228"><ele>577.0</ele><time>2026-04-26T10:04:28.046Z</time></trkpt><trkpt lat="46.0571297" lon="11.2470908"><ele>577.0</ele><time>2026-04-26T10:04:29.043Z</time></trkpt><trkpt lat="46.0572744" lon="11.247047"><ele>577.0</ele><time>2026-04-26T10:04:30.049Z</time></trkpt><trkpt lat="46.0573747" lon="11.2470315"><ele>577.0</ele><time>2026-04-26T10:04:31.044Z</time></trkpt><trkpt lat="46.057445" lon="11.2470483"><ele>577.0</ele><time>2026-04-26T10:04:32.042Z</time></trkpt><trkpt lat="46.0575695" lon="11.2470635"><ele>577.0</ele><time>2026-04-26T10:04:36.049Z</time></trkpt><trkpt lat="46.0576491" lon="11.2471054"><ele>577.4</ele><time>2026-04-26T10:04:40.041Z</time></trkpt><trkpt lat="46.0576948" lon="11.2471766"><ele>577.8000000000001</ele><time>2026-04-26T10:04:43.038Z</time></trkpt><trkpt lat="46.0577436" lon="11.2472828"><ele>578.2</ele><time>2026-04-26T10:04:46.053Z</time></trkpt><trkpt lat="46.0577898" lon="11.2473647"><ele>578.6</ele><time>2026-04-26T10:04:48.049Z</time></trkpt><trkpt lat="46.0578679" lon="11.2474396"><ele>579.0</ele><time>2026-04-26T10:04:50.047Z</time></trkpt><trkpt lat="46.05799" lon="11.247509"><ele>579.8571428571428</ele><time>2026-04-26T10:04:52.041Z</time></trkpt><trkpt lat="46.0580572" lon="11.247533"><ele>580.7142857142857</ele><time>2026-04-26T10:04:53.058Z</time></trkpt><trkpt lat="46.0581256" lon="11.2475497"><ele>581.5714285714286</ele><time>2026-04-26T10:04:54.044Z</time></trkpt><trkpt lat="46.0582002" lon="11.2475548"><ele>582.4285714285713</ele><time>2026-04-26T10:04:55.054Z</time></trkpt><trkpt lat="46.0582732" lon="11.2475539"><ele>583.2857142857142</ele><time>2026-04-26T10:04:56.045Z</time></trkpt><trkpt lat="46.0583497" lon="11.2475567"><ele>584.1428571428571</ele><time>2026-04-26T10:04:57.053Z</time></trkpt><trkpt lat="46.0584234" lon="11.2475677"><ele>585.0</ele><time>2026-04-26T10:04:58.046Z</time></trkpt><trkpt lat="46.0584986" lon="11.2475875"><ele>585.0</ele><time>2026-04-26T10:04:59.053Z</time></trkpt><trkpt lat="46.0585748" lon="11.2476116"><ele>585.0</ele><time>2026-04-26T10:05:00.046Z</time></trkpt><trkpt lat="46.0586487" lon="11.247633"><ele>585.0</ele><time>2026-04-26T10:05:01.043Z</time></trkpt><trkpt lat="46.0587168" lon="11.2476301"><ele>585.0</ele><time>2026-04-26T10:05:02.049Z</time></trkpt><trkpt lat="46.058846" lon="11.2476514"><ele>585.0</ele><time>2026-04-26T10:05:04.037Z</time></trkpt><trkpt lat="46.0589121" lon="11.2476649"><ele>585.0</ele><time>2026-04-26T10:05:05.038Z</time></trkpt><trkpt lat="46.0590462" lon="11.2476768"><ele>585.2857142857143</ele><time>2026-04-26T10:05:07.048Z</time></trkpt><trkpt lat="46.0591251" lon="11.2476993"><ele>585.5714285714286</ele><time>2026-04-26T10:05:08.058Z</time></trkpt><trkpt lat="46.0591998" lon="11.2477266"><ele>585.8571428571429</ele><time>2026-04-26T10:05:09.043Z</time></trkpt><trkpt lat="46.0592671" lon="11.2477499"><ele>586.1428571428571</ele><time>2026-04-26T10:05:10.039Z</time></trkpt><trkpt lat="46.0593299" lon="11.2477964"><ele>586.4285714285714</ele><time>2026-04-26T10:05:11.092Z</time></trkpt><trkpt lat="46.0593916" lon="11.247846"><ele>586.7142857142858</ele><time>2026-04-26T10:05:12.04Z</time></trkpt><trkpt lat="46.0594511" lon="11.247889"><ele>587.0</ele><time>2026-04-26T10:05:13.045Z</time></trkpt><trkpt lat="46.05951" lon="11.2479315"><ele>587.0</ele><time>2026-04-26T10:05:14.035Z</time></trkpt><trkpt lat="46.0595631" lon="11.2479807"><ele>587.0</ele><time>2026-04-26T10:05:15.034Z</time></trkpt><trkpt lat="46.0596135" lon="11.2480375"><ele>587.0</ele><time>2026-04-26T10:05:16.043Z</time></trkpt><trkpt lat="46.0596953" lon="11.248159"><ele>587.0</ele><time>2026-04-26T10:05:18.044Z</time></trkpt><trkpt lat="46.0597514" lon="11.2482771"><ele>587.0</ele><time>2026-04-26T10:05:20.041Z</time></trkpt><trkpt lat="46.0598091" lon="11.2483809"><ele>587.0</ele><time>2026-04-26T10:05:22.059Z</time></trkpt><trkpt lat="46.0598504" lon="11.2484749"><ele>591.6666666666666</ele><time>2026-04-26T10:05:24.048Z</time></trkpt><trkpt lat="46.0597979" lon="11.248534"><ele>596.3333333333333</ele><time>2026-04-26T10:05:27.051Z</time></trkpt><trkpt lat="46.0597185" lon="11.2485148"><ele>601.0</ele><time>2026-04-26T10:05:29.054Z</time></trkpt><trkpt lat="46.0596283" lon="11.2484821"><ele>605.6666666666666</ele><time>2026-04-26T10:05:32.046Z</time></trkpt><trkpt lat="46.0595257" lon="11.2484537"><ele>610.3333333333334</ele><time>2026-04-26T10:05:34.058Z</time></trkpt><trkpt lat="46.0594555" lon="11.2484593"><ele>615.0</ele><time>2026-04-26T10:05:35.036Z</time></trkpt><trkpt lat="46.0593847" lon="11.248463"><ele>615.0</ele><time>2026-04-26T10:05:36.048Z</time></trkpt><trkpt lat="46.059305" lon="11.2484627"><ele>615.0</ele><time>2026-04-26T10:05:37.029Z</time></trkpt><trkpt lat="46.0592324" lon="11.2484558"><ele>615.0</ele><time>2026-04-26T10:05:38.046Z</time></trkpt><trkpt lat="46.0591664" lon="11.2484212"><ele>615.0</ele><time>2026-04-26T10:05:39.036Z</time></trkpt><trkpt lat="46.0591004" lon="11.2483995"><ele>615.0</ele><time>2026-04-26T10:05:40.034Z</time></trkpt><trkpt lat="46.0590081" lon="11.2483909"><ele>615.0</ele><time>2026-04-26T10:05:42.035Z</time></trkpt><trkpt lat="46.0589312" lon="11.2483955"><ele>614.5</ele><time>2026-04-26T10:05:44.05Z</time></trkpt><trkpt lat="46.0588414" lon="11.2483975"><ele>614.0</ele><time>2026-04-26T10:05:50.032Z</time></trkpt><trkpt lat="46.0587438" lon="11.2483591"><ele>613.5</ele><time>2026-04-26T10:06:27.027Z</time></trkpt><trkpt lat="46.0587765" lon="11.2484514"><ele>613.0</ele><time>2026-04-26T10:09:18.057Z</time></trkpt><trkpt lat="46.058844" lon="11.2484843"><ele>612.5</ele><time>2026-04-26T10:09:44.038Z</time></trkpt><trkpt lat="46.058904" lon="11.2485336"><ele>612.0</ele><time>2026-04-26T10:09:49.947Z</time></trkpt><trkpt lat="46.0589518" lon="11.2485976"><ele>612.0</ele><time>2026-04-26T10:09:59.08Z</time></trkpt><trkpt lat="46.0590173" lon="11.2486349"><ele>612.0</ele><time>2026-04-26T10:10:15.014Z</time></trkpt><trkpt lat="46.0590807" lon="11.2486748"><ele>612.0</ele><time>2026-04-26T10:10:22.027Z</time></trkpt><trkpt lat="46.0591467" lon="11.2487016"><ele>612.0</ele><time>2026-04-26T10:10:30.059Z</time></trkpt><trkpt lat="46.0592101" lon="11.2487521"><ele>612.0</ele><time>2026-04-26T10:10:41.039Z</time></trkpt><trkpt lat="46.0592688" lon="11.2488065"><ele>612.0</ele><time>2026-04-26T10:10:48.043Z</time></trkpt><trkpt lat="46.0593064" lon="11.2488902"><ele>612.0</ele><time>2026-04-26T10:10:56.053Z</time></trkpt><trkpt lat="46.0593607" lon="11.2489568"><ele>617.5</ele><time>2026-04-26T10:11:08.059Z</time></trkpt><trkpt lat="46.0594152" lon="11.2490146"><ele>623.0</ele><time>2026-04-26T10:11:16.046Z</time></trkpt><trkpt lat="46.0594657" lon="11.2490835"><ele>628.5</ele><time>2026-04-26T10:11:23.035Z</time></trkpt><trkpt lat="46.0595202" lon="11.2491403"><ele>634.0</ele><time>2026-04-26T10:11:33.031Z</time></trkpt><trkpt lat="46.0595791" lon="11.2491795"><ele>639.5</ele><time>2026-04-26T10:11:40.039Z</time></trkpt><trkpt lat="46.0596329" lon="11.249289"><ele>645.0</ele><time>2026-04-26T10:12:08.044Z</time></trkpt><trkpt lat="46.0596892" lon="11.2493864"><ele>645.0</ele><time>2026-04-26T10:12:24.055Z</time></trkpt><trkpt lat="46.0597144" lon="11.2494817"><ele>645.0</ele><time>2026-04-26T10:12:31.049Z</time></trkpt><trkpt lat="46.0597254" lon="11.2495751"><ele>645.0</ele><time>2026-04-26T10:12:39.063Z</time></trkpt><trkpt lat="46.0597313" lon="11.2496749"><ele>645.0</ele><time>2026-04-26T10:12:49.04Z</time></trkpt><trkpt lat="46.0597294" lon="11.2497707"><ele>645.0</ele><time>2026-04-26T10:12:56.027Z</time></trkpt><trkpt lat="46.0597011" lon="11.2499552"><ele>645.0</ele><time>2026-04-26T10:13:32.05Z</time></trkpt><trkpt lat="46.0597248" lon="11.250067"><ele>645.0</ele><time>2026-04-26T10:14:20.031Z</time></trkpt><trkpt lat="46.0596807" lon="11.2499972"><ele>645.0</ele><time>2026-04-26T10:14:27.056Z</time></trkpt><trkpt lat="46.0596264" lon="11.2499352"><ele>645.0</ele><time>2026-04-26T10:14:33.051Z</time></trkpt><trkpt lat="46.0595707" lon="11.2498721"><ele>645.0</ele><time>2026-04-26T10:14:39.045Z</time></trkpt><trkpt lat="46.0595114" lon="11.2498182"><ele>645.0</ele><time>2026-04-26T10:14:48.047Z</time></trkpt><trkpt lat="46.0594492" lon="11.2497779"><ele>645.0</ele><time>2026-04-26T10:14:56.043Z</time></trkpt><trkpt lat="46.05939" lon="11.2497274"><ele>645.0</ele><time>2026-04-26T10:15:04.041Z</time></trkpt><trkpt lat="46.0593314" lon="11.2496932"><ele>645.0</ele><time>2026-04-26T10:15:14.055Z</time></trkpt><trkpt lat="46.0594761" lon="11.2495879"><ele>645.0</ele><time>2026-04-26T10:16:33.052Z</time></trkpt><trkpt lat="46.059399" lon="11.2496068"><ele>645.0</ele><time>2026-04-26T10:16:42.05Z</time></trkpt><trkpt lat="46.0593345" lon="11.249579"><ele>645.0</ele><time>2026-04-26T10:16:51.088Z</time></trkpt><trkpt lat="46.059272" lon="11.2496021"><ele>645.0</ele><time>2026-04-26T10:17:00.051Z</time></trkpt><trkpt lat="46.0593026" lon="11.2496869"><ele>645.0</ele><time>2026-04-26T10:20:10.038Z</time></trkpt><trkpt lat="46.0593524" lon="11.2497574"><ele>645.0</ele><time>2026-04-26T10:20:21.055Z</time></trkpt><trkpt lat="46.0594481" lon="11.2498083"><ele>645.0</ele><time>2026-04-26T10:20:47.051Z</time></trkpt><trkpt lat="46.0595111" lon="11.2497981"><ele>645.0</ele><time>2026-04-26T10:20:54.052Z</time></trkpt><trkpt lat="46.0595341" lon="11.2497011"><ele>645.0</ele><time>2026-04-26T10:21:05.06Z</time></trkpt><trkpt lat="46.0595195" lon="11.2496046"><ele>645.0</ele><time>2026-04-26T10:21:12.05Z</time></trkpt><trkpt lat="46.0595006" lon="11.2495151"><ele>645.0</ele><time>2026-04-26T10:21:20.045Z</time></trkpt><trkpt lat="46.0594467" lon="11.2494493"><ele>645.0</ele><time>2026-04-26T10:21:26.067Z</time></trkpt><trkpt lat="46.0594107" lon="11.2493632"><ele>645.0</ele><time>2026-04-26T10:21:33.058Z</time></trkpt><trkpt lat="46.0593542" lon="11.2492712"><ele>645.0</ele><time>2026-04-26T10:22:24.007Z</time></trkpt><trkpt lat="46.0593947" lon="11.2493493"><ele>645.0</ele><time>2026-04-26T10:22:50.041Z</time></trkpt><trkpt lat="46.0594396" lon="11.2494209"><ele>645.0</ele><time>2026-04-26T10:22:56.059Z</time></trkpt><trkpt lat="46.0594875" lon="11.249492"><ele>645.0</ele><time>2026-04-26T10:23:06.05Z</time></trkpt><trkpt lat="46.0594983" lon="11.2495883"><ele>645.0</ele><time>2026-04-26T10:23:13.034Z</time></trkpt><trkpt lat="46.0595129" lon="11.2496835"><ele>645.0</ele><time>2026-04-26T10:23:21.044Z</time></trkpt><trkpt lat="46.0595334" lon="11.2497825"><ele>645.0</ele><time>2026-04-26T10:23:26.074Z</time></trkpt><trkpt lat="46.0595811" lon="11.2498576"><ele>645.0</ele><time>2026-04-26T10:23:33.061Z</time></trkpt><trkpt lat="46.059646" lon="11.2498853"><ele>645.0</ele><time>2026-04-26T10:23:40.978Z</time></trkpt><trkpt lat="46.0597116" lon="11.249904"><ele>645.0</ele><time>2026-04-26T10:23:49.036Z</time></trkpt><trkpt lat="46.0597525" lon="11.249834"><ele>645.0</ele><time>2026-04-26T10:24:00.071Z</time></trkpt><trkpt lat="46.0597347" lon="11.2497406"><ele>645.0</ele><time>2026-04-26T10:24:06.045Z</time></trkpt><trkpt lat="46.059763" lon="11.2496526"><ele>645.0</ele><time>2026-04-26T10:24:17.064Z</time></trkpt><trkpt lat="46.0597847" lon="11.2495642"><ele>645.0</ele><time>2026-04-26T10:24:25.045Z</time></trkpt><trkpt lat="46.0597282" lon="11.2495124"><ele>645.0</ele><time>2026-04-26T10:24:36.056Z</time></trkpt><trkpt lat="46.0596866" lon="11.2494422"><ele>645.0</ele><time>2026-04-26T10:24:47.032Z</time></trkpt><trkpt lat="46.0596509" lon="11.2493661"><ele>645.0</ele><time>2026-04-26T10:24:54.026Z</time></trkpt><trkpt lat="46.0596209" lon="11.2492826"><ele>645.0</ele><time>2026-04-26T10:25:04.048Z</time></trkpt><trkpt lat="46.0595743" lon="11.2492209"><ele>645.0</ele><time>2026-04-26T10:25:10.049Z</time></trkpt><trkpt lat="46.0595238" lon="11.2491493"><ele>645.0</ele><time>2026-04-26T10:25:18.039Z</time></trkpt><trkpt lat="46.0594937" lon="11.2490693"><ele>645.0</ele><time>2026-04-26T10:25:22.034Z</time></trkpt><trkpt lat="46.0594603" lon="11.2489833"><ele>645.0</ele><time>2026-04-26T10:25:33.052Z</time></trkpt><trkpt lat="46.0594024" lon="11.2489384"><ele>645.0</ele><time>2026-04-26T10:25:42.053Z</time></trkpt><trkpt lat="46.0593387" lon="11.2489381"><ele>645.0</ele><time>2026-04-26T10:25:48.055Z</time></trkpt><trkpt lat="46.0592712" lon="11.2489272"><ele>645.0</ele><time>2026-04-26T10:25:56.049Z</time></trkpt><trkpt lat="46.0592146" lon="11.248864"><ele>645.0</ele><time>2026-04-26T10:26:04.052Z</time></trkpt><trkpt lat="46.0591558" lon="11.2488191"><ele>645.0</ele><time>2026-04-26T10:26:15.041Z</time></trkpt><trkpt lat="46.059126" lon="11.2487384"><ele>640.2857142857143</ele><time>2026-04-26T10:26:20.053Z</time></trkpt><trkpt lat="46.059083" lon="11.2486573"><ele>635.5714285714286</ele><time>2026-04-26T10:26:27.052Z</time></trkpt><trkpt lat="46.0590261" lon="11.2486094"><ele>630.8571428571429</ele><time>2026-04-26T10:26:34.035Z</time></trkpt><trkpt lat="46.0589696" lon="11.2485627"><ele>626.1428571428571</ele><time>2026-04-26T10:26:39.042Z</time></trkpt><trkpt lat="46.0589161" lon="11.2485012"><ele>621.4285714285714</ele><time>2026-04-26T10:26:45.046Z</time></trkpt><trkpt lat="46.0588544" lon="11.2484638"><ele>616.7142857142857</ele><time>2026-04-26T10:26:52.041Z</time></trkpt><trkpt lat="46.0587807" lon="11.248457"><ele>612.0</ele><time>2026-04-26T10:26:59.051Z</time></trkpt><trkpt lat="46.0587166" lon="11.2484292"><ele>612.0</ele><time>2026-04-26T10:27:07.05Z</time></trkpt><trkpt lat="46.0586601" lon="11.248389"><ele>612.0</ele><time>2026-04-26T10:27:15.705Z</time></trkpt><trkpt lat="46.058715" lon="11.2483382"><ele>612.0</ele><time>2026-04-26T10:28:10.02Z</time></trkpt><trkpt lat="46.0589114" lon="11.2483881"><ele>612.0</ele><time>2026-04-26T10:35:43.054Z</time></trkpt><trkpt lat="46.0590966" lon="11.2483953"><ele>613.0</ele><time>2026-04-26T10:35:51.073Z</time></trkpt><trkpt lat="46.0592859" lon="11.2483971"><ele>614.0</ele><time>2026-04-26T10:35:57.124Z</time></trkpt><trkpt lat="46.0595116" lon="11.2484577"><ele>615.0</ele><time>2026-04-26T10:35:59.051Z</time></trkpt><trkpt lat="46.0596633" lon="11.2485262"><ele>615.0</ele><time>2026-04-26T10:36:01.069Z</time></trkpt><trkpt lat="46.059735" lon="11.2485549"><ele>615.0</ele><time>2026-04-26T10:36:03.048Z</time></trkpt><trkpt lat="46.0598061" lon="11.2485787"><ele>615.0</ele><time>2026-04-26T10:36:06.057Z</time></trkpt><trkpt lat="46.0597854" lon="11.2483205"><ele>615.0</ele><time>2026-04-26T10:37:01.054Z</time></trkpt><trkpt lat="46.0596337" lon="11.2480522"><ele>605.6666666666666</ele><time>2026-04-26T10:37:04.042Z</time></trkpt><trkpt lat="46.0594698" lon="11.2478824"><ele>596.3333333333333</ele><time>2026-04-26T10:37:08.037Z</time></trkpt><trkpt lat="46.0592724" lon="11.247771"><ele>587.0</ele><time>2026-04-26T10:37:11.041Z</time></trkpt><trkpt lat="46.0590882" lon="11.2477034"><ele>586.6</ele><time>2026-04-26T10:37:14.042Z</time></trkpt><trkpt lat="46.0589458" lon="11.2476698"><ele>586.2</ele><time>2026-04-26T10:37:18.05Z</time></trkpt><trkpt lat="46.0588728" lon="11.2476588"><ele>585.8</ele><time>2026-04-26T10:37:20.13Z</time></trkpt><trkpt lat="46.0587713" lon="11.2476448"><ele>585.4</ele><time>2026-04-26T10:37:22.046Z</time></trkpt><trkpt lat="46.0587056" lon="11.2476353"><ele>585.0</ele><time>2026-04-26T10:37:23.033Z</time></trkpt><trkpt lat="46.0586292" lon="11.2476239"><ele>585.0</ele><time>2026-04-26T10:37:24.042Z</time></trkpt><trkpt lat="46.0585517" lon="11.2476138"><ele>585.0</ele><time>2026-04-26T10:37:25.053Z</time></trkpt><trkpt lat="46.0584715" lon="11.2476031"><ele>585.0</ele><time>2026-04-26T10:37:26.049Z</time></trkpt><trkpt lat="46.0583947" lon="11.2475915"><ele>585.0</ele><time>2026-04-26T10:37:27.055Z</time></trkpt><trkpt lat="46.0583179" lon="11.2475725"><ele>585.0</ele><time>2026-04-26T10:37:29.039Z</time></trkpt><trkpt lat="46.0582438" lon="11.2475441"><ele>585.0</ele><time>2026-04-26T10:37:31.053Z</time></trkpt><trkpt lat="46.0581584" lon="11.247507"><ele>583.8</ele><time>2026-04-26T10:37:32.06Z</time></trkpt><trkpt lat="46.0580702" lon="11.247461"><ele>582.6</ele><time>2026-04-26T10:37:33.076Z</time></trkpt><trkpt lat="46.0580038" lon="11.2474152"><ele>581.4</ele><time>2026-04-26T10:37:34.038Z</time></trkpt><trkpt lat="46.0579222" lon="11.2473362"><ele>580.2</ele><time>2026-04-26T10:37:36.047Z</time></trkpt><trkpt lat="46.0578611" lon="11.2472526"><ele>579.0</ele><time>2026-04-26T10:37:39.041Z</time></trkpt><trkpt lat="46.0577709" lon="11.247167"><ele>579.0</ele><time>2026-04-26T10:37:40.044Z</time></trkpt><trkpt lat="46.0577008" lon="11.2471475"><ele>579.0</ele><time>2026-04-26T10:38:54.049Z</time></trkpt><trkpt lat="46.057638" lon="11.2471125"><ele>579.0</ele><time>2026-04-26T10:38:56.044Z</time></trkpt><trkpt lat="46.05755" lon="11.2470998"><ele>579.0</ele><time>2026-04-26T10:38:58.041Z</time></trkpt><trkpt lat="46.0574241" lon="11.2471112"><ele>579.0</ele><time>2026-04-26T10:39:00.109Z</time></trkpt><trkpt lat="46.0573551" lon="11.2471103"><ele>579.0</ele><time>2026-04-26T10:39:01.054Z</time></trkpt><trkpt lat="46.0572773" lon="11.2471132"><ele>578.7142857142857</ele><time>2026-04-26T10:39:02.075Z</time></trkpt><trkpt lat="46.057212" lon="11.2471265"><ele>578.4285714285714</ele><time>2026-04-26T10:39:03.031Z</time></trkpt><trkpt lat="46.0571338" lon="11.2471402"><ele>578.1428571428571</ele><time>2026-04-26T10:39:04.041Z</time></trkpt><trkpt lat="46.0570621" lon="11.2471482"><ele>577.8571428571429</ele><time>2026-04-26T10:39:05.045Z</time></trkpt><trkpt lat="46.0569919" lon="11.2471649"><ele>577.5714285714286</ele><time>2026-04-26T10:39:06.06Z</time></trkpt><trkpt lat="46.0569186" lon="11.2471756"><ele>577.2857142857142</ele><time>2026-04-26T10:39:07.048Z</time></trkpt><trkpt lat="46.0568477" lon="11.2471829"><ele>577.0</ele><time>2026-04-26T10:39:08.049Z</time></trkpt><trkpt lat="46.0567785" lon="11.2472004"><ele>577.0</ele><time>2026-04-26T10:39:09.039Z</time></trkpt><trkpt lat="46.0567155" lon="11.2472081"><ele>577.0</ele><time>2026-04-26T10:39:10.062Z</time></trkpt><trkpt lat="46.0566464" lon="11.2472183"><ele>577.0</ele><time>2026-04-26T10:39:11.057Z</time></trkpt><trkpt lat="46.056578" lon="11.2472277"><ele>577.0</ele><time>2026-04-26T10:39:12.044Z</time></trkpt><trkpt lat="46.0565053" lon="11.2472338"><ele>577.0</ele><time>2026-04-26T10:39:13.047Z</time></trkpt><trkpt lat="46.0564286" lon="11.2472431"><ele>577.0</ele><time>2026-04-26T10:39:14.055Z</time></trkpt><trkpt lat="46.0563496" lon="11.2472553"><ele>577.0</ele><time>2026-04-26T10:39:15.044Z</time></trkpt><trkpt lat="46.056263" lon="11.2472889"><ele>573.6</ele><time>2026-04-26T10:39:16.044Z</time></trkpt><trkpt lat="46.0561737" lon="11.2473215"><ele>570.2</ele><time>2026-04-26T10:39:17.042Z</time></trkpt><trkpt lat="46.0560851" lon="11.2473435"><ele>566.8</ele><time>2026-04-26T10:39:18.048Z</time></trkpt><trkpt lat="46.0559901" lon="11.2473635"><ele>563.4</ele><time>2026-04-26T10:39:19.044Z</time></trkpt><trkpt lat="46.0558842" lon="11.2473658"><ele>560.0</ele><time>2026-04-26T10:39:20.053Z</time></trkpt><trkpt lat="46.0557751" lon="11.2473474"><ele>557.4</ele><time>2026-04-26T10:39:21.055Z</time></trkpt><trkpt lat="46.0556766" lon="11.2472976"><ele>554.8</ele><time>2026-04-26T10:39:22.046Z</time></trkpt><trkpt lat="46.0555863" lon="11.24724"><ele>552.2</ele><time>2026-04-26T10:39:23.043Z</time></trkpt><trkpt lat="46.0554956" lon="11.2471658"><ele>549.6</ele><time>2026-04-26T10:39:24.044Z</time></trkpt><trkpt lat="46.0554034" lon="11.2471146"><ele>547.0</ele><time>2026-04-26T10:39:25.043Z</time></trkpt><trkpt lat="46.055309" lon="11.2470708"><ele>551.3333333333334</ele><time>2026-04-26T10:39:26.045Z</time></trkpt><trkpt lat="46.0552208" lon="11.2470379"><ele>555.6666666666667</ele><time>2026-04-26T10:39:27.047Z</time></trkpt><trkpt lat="46.0551345" lon="11.2470511"><ele>560.0</ele><time>2026-04-26T10:39:28.039Z</time></trkpt><trkpt lat="46.0550509" lon="11.2470582"><ele>564.3333333333334</ele><time>2026-04-26T10:39:29.047Z</time></trkpt><trkpt lat="46.0549634" lon="11.2470687"><ele>568.6666666666666</ele><time>2026-04-26T10:39:30.041Z</time></trkpt><trkpt lat="46.0548798" lon="11.2470977"><ele>573.0</ele><time>2026-04-26T10:39:31.056Z</time></trkpt><trkpt lat="46.0547948" lon="11.2471712"><ele>574.0</ele><time>2026-04-26T10:39:32.077Z</time></trkpt><trkpt lat="46.0547114" lon="11.2472109"><ele>575.0</ele><time>2026-04-26T10:39:33.053Z</time></trkpt><trkpt lat="46.0546297" lon="11.2472544"><ele>576.0</ele><time>2026-04-26T10:39:34.035Z</time></trkpt><trkpt lat="46.0545497" lon="11.2472959"><ele>577.0</ele><time>2026-04-26T10:39:35.047Z</time></trkpt><trkpt lat="46.0544715" lon="11.2473383"><ele>578.0</ele><time>2026-04-26T10:39:36.039Z</time></trkpt><trkpt lat="46.0543888" lon="11.2473798"><ele>579.0</ele><time>2026-04-26T10:39:37.043Z</time></trkpt><trkpt lat="46.054306" lon="11.2474227"><ele>573.8333333333334</ele><time>2026-04-26T10:39:38.037Z</time></trkpt><trkpt lat="46.0542235" lon="11.2474683"><ele>568.6666666666666</ele><time>2026-04-26T10:39:39.045Z</time></trkpt><trkpt lat="46.0541439" lon="11.2475293"><ele>563.5</ele><time>2026-04-26T10:39:40.052Z</time></trkpt><trkpt lat="46.0540627" lon="11.2475848"><ele>558.3333333333333</ele><time>2026-04-26T10:39:41.037Z</time></trkpt><trkpt lat="46.0539851" lon="11.2476267"><ele>553.1666666666666</ele><time>2026-04-26T10:39:42.042Z</time></trkpt><trkpt lat="46.0539039" lon="11.2476858"><ele>548.0</ele><time>2026-04-26T10:39:43.049Z</time></trkpt><trkpt lat="46.0538182" lon="11.2477251"><ele>547.6666666666666</ele><time>2026-04-26T10:39:44.042Z</time></trkpt><trkpt lat="46.0537399" lon="11.2477619"><ele>547.3333333333333</ele><time>2026-04-26T10:39:45.047Z</time></trkpt><trkpt lat="46.0536593" lon="11.2477877"><ele>547.0</ele><time>2026-04-26T10:39:46.047Z</time></trkpt><trkpt lat="46.0535766" lon="11.247805"><ele>546.6666666666666</ele><time>2026-04-26T10:39:47.057Z</time></trkpt><trkpt lat="46.0534944" lon="11.2478346"><ele>546.3333333333334</ele><time>2026-04-26T10:39:48.044Z</time></trkpt><trkpt lat="46.0534083" lon="11.2478351"><ele>546.0</ele><time>2026-04-26T10:39:49.039Z</time></trkpt><trkpt lat="46.0533242" lon="11.2478374"><ele>543.3333333333334</ele><time>2026-04-26T10:39:50.048Z</time></trkpt><trkpt lat="46.0532419" lon="11.2478678"><ele>540.6666666666666</ele><time>2026-04-26T10:39:51.041Z</time></trkpt><trkpt lat="46.0531619" lon="11.2478725"><ele>538.0</ele><time>2026-04-26T10:39:52.045Z</time></trkpt><trkpt lat="46.0530958" lon="11.2479264"><ele>535.3333333333333</ele><time>2026-04-26T10:39:53.043Z</time></trkpt><trkpt lat="46.0530028" lon="11.2479509"><ele>532.6666666666666</ele><time>2026-04-26T10:39:55.059Z</time></trkpt><trkpt lat="46.0529317" lon="11.2480126"><ele>530.0</ele><time>2026-04-26T10:39:58.076Z</time></trkpt><trkpt lat="46.0528604" lon="11.248043"><ele>530.0</ele><time>2026-04-26T10:40:02.044Z</time></trkpt><trkpt lat="46.0528406" lon="11.2479448"><ele>530.0</ele><time>2026-04-26T10:40:04.039Z</time></trkpt><trkpt lat="46.0528459" lon="11.247745"><ele>530.0</ele><time>2026-04-26T10:40:06.033Z</time></trkpt><trkpt lat="46.0528507" lon="11.2476191"><ele>530.0</ele><time>2026-04-26T10:40:07.041Z</time></trkpt><trkpt lat="46.0528493" lon="11.2474835"><ele>530.0</ele><time>2026-04-26T10:40:08.034Z</time></trkpt><trkpt lat="46.052845" lon="11.2473338"><ele>528.0</ele><time>2026-04-26T10:40:09.041Z</time></trkpt><trkpt lat="46.0528366" lon="11.2471767"><ele>526.0</ele><time>2026-04-26T10:40:10.045Z</time></trkpt><trkpt lat="46.0528249" lon="11.2470136"><ele>524.0</ele><time>2026-04-26T10:40:11.041Z</time></trkpt><trkpt lat="46.0528161" lon="11.2468509"><ele>522.0</ele><time>2026-04-26T10:40:12.059Z</time></trkpt><trkpt lat="46.0528098" lon="11.2466874"><ele>522.0</ele><time>2026-04-26T10:40:13.064Z</time></trkpt><trkpt lat="46.0528003" lon="11.2465262"><ele>522.0</ele><time>2026-04-26T10:40:14.049Z</time></trkpt><trkpt lat="46.0527936" lon="11.2463656"><ele>522.0</ele><time>2026-04-26T10:40:15.038Z</time></trkpt><trkpt lat="46.0527895" lon="11.2462058"><ele>522.0</ele><time>2026-04-26T10:40:16.043Z</time></trkpt><trkpt lat="46.0527809" lon="11.2460471"><ele>522.0</ele><time>2026-04-26T10:40:17.049Z</time></trkpt><trkpt lat="46.052771" lon="11.245888"><ele>518.8000000000001</ele><time>2026-04-26T10:40:18.059Z</time></trkpt><trkpt lat="46.0527597" lon="11.2457291"><ele>515.6</ele><time>2026-04-26T10:40:19.058Z</time></trkpt><trkpt lat="46.0527479" lon="11.2455702"><ele>512.4000000000001</ele><time>2026-04-26T10:40:20.063Z</time></trkpt><trkpt lat="46.0527515" lon="11.2454131"><ele>509.20000000000005</ele><time>2026-04-26T10:40:21.055Z</time></trkpt><trkpt lat="46.0527471" lon="11.2452611"><ele>506.0</ele><time>2026-04-26T10:40:22.039Z</time></trkpt><trkpt lat="46.0527588" lon="11.2451199"><ele>504.0</ele><time>2026-04-26T10:40:23.047Z</time></trkpt><trkpt lat="46.0527876" lon="11.2449895"><ele>502.0</ele><time>2026-04-26T10:40:24.043Z</time></trkpt><trkpt lat="46.0528313" lon="11.2448727"><ele>500.0</ele><time>2026-04-26T10:40:25.049Z</time></trkpt><trkpt lat="46.0528811" lon="11.2447544"><ele>498.0</ele><time>2026-04-26T10:40:26.052Z</time></trkpt><trkpt lat="46.0529334" lon="11.2446224"><ele>496.0</ele><time>2026-04-26T10:40:27.048Z</time></trkpt><trkpt lat="46.0529954" lon="11.2444858"><ele>494.75</ele><time>2026-04-26T10:40:28.042Z</time></trkpt><trkpt lat="46.0530789" lon="11.2443629"><ele>493.5</ele><time>2026-04-26T10:40:29.05Z</time></trkpt><trkpt lat="46.0531499" lon="11.2442129"><ele>492.25</ele><time>2026-04-26T10:40:30.058Z</time></trkpt><trkpt lat="46.0532201" lon="11.2440653"><ele>491.0</ele><time>2026-04-26T10:40:31.046Z</time></trkpt><trkpt lat="46.0532993" lon="11.2439246"><ele>491.0</ele><time>2026-04-26T10:40:32.053Z</time></trkpt><trkpt lat="46.0533747" lon="11.2437719"><ele>491.0</ele><time>2026-04-26T10:40:33.045Z</time></trkpt><trkpt lat="46.0534514" lon="11.2436185"><ele>491.0</ele><time>2026-04-26T10:40:34.042Z</time></trkpt><trkpt lat="46.0535361" lon="11.2434768"><ele>491.0</ele><time>2026-04-26T10:40:35.05Z</time></trkpt><trkpt lat="46.0536224" lon="11.2433429"><ele>491.0</ele><time>2026-04-26T10:40:36.04Z</time></trkpt><trkpt lat="46.0537004" lon="11.2431994"><ele>491.0</ele><time>2026-04-26T10:40:37.059Z</time></trkpt><trkpt lat="46.0537728" lon="11.2430514"><ele>491.0</ele><time>2026-04-26T10:40:38.045Z</time></trkpt><trkpt lat="46.0538394" lon="11.2429064"><ele>491.0</ele><time>2026-04-26T10:40:39.045Z</time></trkpt><trkpt lat="46.0539026" lon="11.2427671"><ele>488.25</ele><time>2026-04-26T10:40:40.046Z</time></trkpt><trkpt lat="46.0539632" lon="11.2426263"><ele>485.5</ele><time>2026-04-26T10:40:41.06Z</time></trkpt><trkpt lat="46.054018" lon="11.2424841"><ele>482.75</ele><time>2026-04-26T10:40:42.083Z</time></trkpt><trkpt lat="46.0540568" lon="11.2423291"><ele>480.0</ele><time>2026-04-26T10:40:43.068Z</time></trkpt><trkpt lat="46.0541032" lon="11.2421746"><ele>483.75</ele><time>2026-04-26T10:40:44.039Z</time></trkpt><trkpt lat="46.0541409" lon="11.242011"><ele>487.5</ele><time>2026-04-26T10:40:45.076Z</time></trkpt><trkpt lat="46.0541696" lon="11.2418469"><ele>491.25</ele><time>2026-04-26T10:40:46.044Z</time></trkpt><trkpt lat="46.0541885" lon="11.2416847"><ele>495.0</ele><time>2026-04-26T10:40:47.065Z</time></trkpt><trkpt lat="46.054199" lon="11.2415222"><ele>494.0</ele><time>2026-04-26T10:40:48.048Z</time></trkpt><trkpt lat="46.0542043" lon="11.241358"><ele>493.0</ele><time>2026-04-26T10:40:49.063Z</time></trkpt><trkpt lat="46.0542087" lon="11.2411934"><ele>492.0</ele><time>2026-04-26T10:40:50.113Z</time></trkpt><trkpt lat="46.0542172" lon="11.2410275"><ele>491.0</ele><time>2026-04-26T10:40:51.06Z</time></trkpt><trkpt lat="46.0542283" lon="11.2408612"><ele>491.0</ele><time>2026-04-26T10:40:52.042Z</time></trkpt><trkpt lat="46.0542377" lon="11.2406933"><ele>491.0</ele><time>2026-04-26T10:40:53.048Z</time></trkpt><trkpt lat="46.0542471" lon="11.2405271"><ele>491.0</ele><time>2026-04-26T10:40:54.04Z</time></trkpt><trkpt lat="46.0542538" lon="11.2403647"><ele>491.0</ele><time>2026-04-26T10:40:55.055Z</time></trkpt><trkpt lat="46.0542576" lon="11.2402038"><ele>490.0</ele><time>2026-04-26T10:40:56.065Z</time></trkpt><trkpt lat="46.0542623" lon="11.2400436"><ele>489.0</ele><time>2026-04-26T10:40:57.049Z</time></trkpt><trkpt lat="46.0542679" lon="11.2398852"><ele>488.0</ele><time>2026-04-26T10:40:58.049Z</time></trkpt><trkpt lat="46.0542792" lon="11.2397294"><ele>487.0</ele><time>2026-04-26T10:40:59.05Z</time></trkpt><trkpt lat="46.0543022" lon="11.2395744"><ele>486.0</ele><time>2026-04-26T10:41:00.067Z</time></trkpt><trkpt lat="46.0543387" lon="11.2394267"><ele>483.5</ele><time>2026-04-26T10:41:01.056Z</time></trkpt><trkpt lat="46.0543904" lon="11.23929"><ele>481.0</ele><time>2026-04-26T10:41:02.044Z</time></trkpt><trkpt lat="46.0544443" lon="11.2391478"><ele>478.5</ele><time>2026-04-26T10:41:03.049Z</time></trkpt><trkpt lat="46.0545195" lon="11.2390278"><ele>476.0</ele><time>2026-04-26T10:41:04.07Z</time></trkpt><trkpt lat="46.0546192" lon="11.2389238"><ele>475.75</ele><time>2026-04-26T10:41:05.066Z</time></trkpt><trkpt lat="46.0547292" lon="11.238832"><ele>475.5</ele><time>2026-04-26T10:41:06.053Z</time></trkpt><trkpt lat="46.0548333" lon="11.238736"><ele>475.25</ele><time>2026-04-26T10:41:07.048Z</time></trkpt><trkpt lat="46.05494" lon="11.2386541"><ele>475.0</ele><time>2026-04-26T10:41:08.049Z</time></trkpt><trkpt lat="46.0550368" lon="11.2385597"><ele>475.0</ele><time>2026-04-26T10:41:09.048Z</time></trkpt><trkpt lat="46.0551415" lon="11.2384769"><ele>475.0</ele><time>2026-04-26T10:41:10.054Z</time></trkpt><trkpt lat="46.055244" lon="11.238392"><ele>475.0</ele><time>2026-04-26T10:41:11.043Z</time></trkpt><trkpt lat="46.0553485" lon="11.2383185"><ele>475.0</ele><time>2026-04-26T10:41:12.049Z</time></trkpt><trkpt lat="46.0554428" lon="11.2382248"><ele>474.25</ele><time>2026-04-26T10:41:13.058Z</time></trkpt><trkpt lat="46.055537" lon="11.2381329"><ele>473.5</ele><time>2026-04-26T10:41:14.048Z</time></trkpt><trkpt lat="46.055631" lon="11.2380429"><ele>472.75</ele><time>2026-04-26T10:41:15.041Z</time></trkpt><trkpt lat="46.0557239" lon="11.2379525"><ele>472.0</ele><time>2026-04-26T10:41:16.039Z</time></trkpt><trkpt lat="46.0558164" lon="11.2378645"><ele>472.0</ele><time>2026-04-26T10:41:17.038Z</time></trkpt><trkpt lat="46.0559138" lon="11.2377939"><ele>472.00000000000006</ele><time>2026-04-26T10:41:18.039Z</time></trkpt><trkpt lat="46.0560064" lon="11.2377166"><ele>472.00000000000006</ele><time>2026-04-26T10:41:19.049Z</time></trkpt><trkpt lat="46.056098" lon="11.2376393"><ele>472.0</ele><time>2026-04-26T10:41:20.041Z</time></trkpt><trkpt lat="46.0561902" lon="11.2375637"><ele>472.0</ele><time>2026-04-26T10:41:21.049Z</time></trkpt><trkpt lat="46.0562862" lon="11.2375004"><ele>472.0</ele><time>2026-04-26T10:41:22.043Z</time></trkpt><trkpt lat="46.0563819" lon="11.2374402"><ele>472.00000000000006</ele><time>2026-04-26T10:41:23.051Z</time></trkpt><trkpt lat="46.0564734" lon="11.2373731"><ele>472.00000000000006</ele><time>2026-04-26T10:41:24.047Z</time></trkpt><trkpt lat="46.0565696" lon="11.2373278"><ele>472.0</ele><time>2026-04-26T10:41:25.112Z</time></trkpt><trkpt lat="46.0566666" lon="11.2372991"><ele>472.0</ele><time>2026-04-26T10:41:26.047Z</time></trkpt><trkpt lat="46.0567608" lon="11.2372853"><ele>472.6666666666667</ele><time>2026-04-26T10:41:27.047Z</time></trkpt><trkpt lat="46.0568413" lon="11.2372833"><ele>473.33333333333337</ele><time>2026-04-26T10:41:28.04Z</time></trkpt><trkpt lat="46.0569497" lon="11.2373038"><ele>474.0</ele><time>2026-04-26T10:41:30.04Z</time></trkpt><trkpt lat="46.0570126" lon="11.237293"><ele>474.66666666666663</ele><time>2026-04-26T10:41:32.046Z</time></trkpt><trkpt lat="46.057097" lon="11.2373013"><ele>475.3333333333333</ele><time>2026-04-26T10:41:35.044Z</time></trkpt><trkpt lat="46.0571681" lon="11.2373178"><ele>476.0</ele><time>2026-04-26T10:41:38.036Z</time></trkpt><trkpt lat="46.0572334" lon="11.2373562"><ele>476.0</ele><time>2026-04-26T10:42:31.109Z</time></trkpt><trkpt lat="46.0573622" lon="11.23734"><ele>476.0</ele><time>2026-04-26T10:42:33.043Z</time></trkpt><trkpt lat="46.057434" lon="11.2373078"><ele>476.0</ele><time>2026-04-26T10:42:34.048Z</time></trkpt><trkpt lat="46.0575117" lon="11.2372775"><ele>476.0</ele><time>2026-04-26T10:42:35.055Z</time></trkpt><trkpt lat="46.0575938" lon="11.2372436"><ele>476.0</ele><time>2026-04-26T10:42:36.05Z</time></trkpt><trkpt lat="46.0576784" lon="11.237223"><ele>474.99999999999994</ele><time>2026-04-26T10:42:37.047Z</time></trkpt><trkpt lat="46.0577623" lon="11.2372242"><ele>474.0</ele><time>2026-04-26T10:42:38.049Z</time></trkpt><trkpt lat="46.0578431" lon="11.2372253"><ele>473.0</ele><time>2026-04-26T10:42:39.039Z</time></trkpt><trkpt lat="46.0579207" lon="11.2372236"><ele>472.0</ele><time>2026-04-26T10:42:40.039Z</time></trkpt><trkpt lat="46.0579932" lon="11.2372222"><ele>470.99999999999994</ele><time>2026-04-26T10:42:41.047Z</time></trkpt><trkpt lat="46.0580642" lon="11.2372221"><ele>470.0</ele><time>2026-04-26T10:42:42.037Z</time></trkpt><trkpt lat="46.0581364" lon="11.2372257"><ele>469.99999999999994</ele><time>2026-04-26T10:42:43.059Z</time></trkpt><trkpt lat="46.0582097" lon="11.2372274"><ele>470.0</ele><time>2026-04-26T10:42:44.036Z</time></trkpt><trkpt lat="46.0582843" lon="11.2372258"><ele>470.0</ele><time>2026-04-26T10:42:45.044Z</time></trkpt><trkpt lat="46.0583584" lon="11.2372295"><ele>470.0</ele><time>2026-04-26T10:42:46.042Z</time></trkpt><trkpt lat="46.0584296" lon="11.2372387"><ele>469.99999999999994</ele><time>2026-04-26T10:42:47.046Z</time></trkpt><trkpt lat="46.0584968" lon="11.2372459"><ele>470.0</ele><time>2026-04-26T10:42:48.041Z</time></trkpt><trkpt lat="46.0586193" lon="11.2372668"><ele>470.3333333333333</ele><time>2026-04-26T10:42:50.041Z</time></trkpt><trkpt lat="46.0587373" lon="11.2372952"><ele>470.66666666666663</ele><time>2026-04-26T10:42:52.056Z</time></trkpt><trkpt lat="46.0588061" lon="11.2373024"><ele>471.0</ele><time>2026-04-26T10:42:53.057Z</time></trkpt><trkpt lat="46.058882" lon="11.237288"><ele>471.33333333333337</ele><time>2026-04-26T10:42:54.041Z</time></trkpt><trkpt lat="46.0589599" lon="11.2372839"><ele>471.6666666666667</ele><time>2026-04-26T10:42:55.055Z</time></trkpt><trkpt lat="46.0590342" lon="11.2372924"><ele>472.0</ele><time>2026-04-26T10:42:56.04Z</time></trkpt><trkpt lat="46.059104" lon="11.2372938"><ele>472.0</ele><time>2026-04-26T10:42:57.044Z</time></trkpt><trkpt lat="46.0591732" lon="11.2372985"><ele>472.0</ele><time>2026-04-26T10:42:58.049Z</time></trkpt><trkpt lat="46.0592459" lon="11.2372968"><ele>472.0</ele><time>2026-04-26T10:42:59.039Z</time></trkpt><trkpt lat="46.0593218" lon="11.2372951"><ele>472.0</ele><time>2026-04-26T10:43:00.084Z</time></trkpt><trkpt lat="46.0593976" lon="11.2372579"><ele>472.0</ele><time>2026-04-26T10:43:01.045Z</time></trkpt><trkpt lat="46.0594691" lon="11.2372452"><ele>472.0</ele><time>2026-04-26T10:43:02.047Z</time></trkpt><trkpt lat="46.0595381" lon="11.2372403"><ele>472.0</ele><time>2026-04-26T10:43:03.044Z</time></trkpt><trkpt lat="46.0596039" lon="11.2372369"><ele>472.0</ele><time>2026-04-26T10:43:04.039Z</time></trkpt><trkpt lat="46.0596694" lon="11.2372322"><ele>472.00000000000006</ele><time>2026-04-26T10:43:05.041Z</time></trkpt><trkpt lat="46.0597336" lon="11.2372343"><ele>472.00000000000006</ele><time>2026-04-26T10:43:06.076Z</time></trkpt><trkpt lat="46.0598522" lon="11.2372388"><ele>472.0</ele><time>2026-04-26T10:43:08.048Z</time></trkpt><trkpt lat="46.0599597" lon="11.2372398"><ele>472.0</ele><time>2026-04-26T10:43:10.047Z</time></trkpt><trkpt lat="46.0600718" lon="11.2372465"><ele>472.00000000000006</ele><time>2026-04-26T10:43:12.034Z</time></trkpt><trkpt lat="46.0601885" lon="11.2372375"><ele>472.0</ele><time>2026-04-26T10:43:14.041Z</time></trkpt><trkpt lat="46.0602529" lon="11.2372402"><ele>472.0</ele><time>2026-04-26T10:43:15.055Z</time></trkpt><trkpt lat="46.0603211" lon="11.237251"><ele>472.0</ele><time>2026-04-26T10:43:16.036Z</time></trkpt><trkpt lat="46.0603914" lon="11.2372854"><ele>472.00000000000006</ele><time>2026-04-26T10:43:17.046Z</time></trkpt><trkpt lat="46.0604613" lon="11.2373032"><ele>472.0</ele><time>2026-04-26T10:43:18.037Z</time></trkpt><trkpt lat="46.060527" lon="11.2373085"><ele>472.00000000000006</ele><time>2026-04-26T10:43:19.039Z</time></trkpt><trkpt lat="46.0605906" lon="11.2373181"><ele>472.0</ele><time>2026-04-26T10:43:20.038Z</time></trkpt><trkpt lat="46.0607081" lon="11.2373024"><ele>472.0</ele><time>2026-04-26T10:43:22.038Z</time></trkpt><trkpt lat="46.0608065" lon="11.237312"><ele>472.0</ele><time>2026-04-26T10:43:24.056Z</time></trkpt><trkpt lat="46.0608808" lon="11.2373536"><ele>472.00000000000006</ele><time>2026-04-26T10:43:26.05Z</time></trkpt><trkpt lat="46.0609634" lon="11.2373874"><ele>472.0</ele><time>2026-04-26T10:43:28.066Z</time></trkpt><trkpt lat="46.0610644" lon="11.2372985"><ele>472.1428571428571</ele><time>2026-04-26T10:43:30.045Z</time></trkpt><trkpt lat="46.0611249" lon="11.2372626"><ele>472.28571428571433</ele><time>2026-04-26T10:43:31.054Z</time></trkpt><trkpt lat="46.0611896" lon="11.2372525"><ele>472.42857142857144</ele><time>2026-04-26T10:43:32.043Z</time></trkpt><trkpt lat="46.0612572" lon="11.2372474"><ele>472.57142857142856</ele><time>2026-04-26T10:43:33.039Z</time></trkpt><trkpt lat="46.0613259" lon="11.2372377"><ele>472.71428571428567</ele><time>2026-04-26T10:43:34.046Z</time></trkpt><trkpt lat="46.0613907" lon="11.2372348"><ele>472.8571428571429</ele><time>2026-04-26T10:43:35.042Z</time></trkpt><trkpt lat="46.0614658" lon="11.2372303"><ele>473.0</ele><time>2026-04-26T10:43:37.039Z</time></trkpt><trkpt lat="46.0615297" lon="11.2372551"><ele>473.3333333333333</ele><time>2026-04-26T10:43:42.094Z</time></trkpt><trkpt lat="46.0616183" lon="11.2372741"><ele>473.66666666666663</ele><time>2026-04-26T10:43:44.048Z</time></trkpt><trkpt lat="46.0617271" lon="11.2373444"><ele>474.0</ele><time>2026-04-26T10:43:46.043Z</time></trkpt><trkpt lat="46.0617761" lon="11.2374225"><ele>474.33333333333337</ele><time>2026-04-26T10:43:47.035Z</time></trkpt><trkpt lat="46.0618226" lon="11.2375034"><ele>474.6666666666667</ele><time>2026-04-26T10:43:48.054Z</time></trkpt><trkpt lat="46.0618635" lon="11.2375833"><ele>475.0</ele><time>2026-04-26T10:43:49.048Z</time></trkpt><trkpt lat="46.0619035" lon="11.2376738"><ele>475.00000000000006</ele><time>2026-04-26T10:43:50.043Z</time></trkpt><trkpt lat="46.0619471" lon="11.2377683"><ele>475.0</ele><time>2026-04-26T10:43:51.037Z</time></trkpt><trkpt lat="46.0619879" lon="11.237873"><ele>475.0</ele><time>2026-04-26T10:43:52.069Z</time></trkpt><trkpt lat="46.0620303" lon="11.2379812"><ele>475.0</ele><time>2026-04-26T10:43:53.074Z</time></trkpt><trkpt lat="46.0620761" lon="11.2380918"><ele>475.00000000000006</ele><time>2026-04-26T10:43:54.049Z</time></trkpt><trkpt lat="46.062122" lon="11.2382064"><ele>475.0</ele><time>2026-04-26T10:43:55.055Z</time></trkpt><trkpt lat="46.0621705" lon="11.2383072"><ele>475.00000000000006</ele><time>2026-04-26T10:43:56.029Z</time></trkpt><trkpt lat="46.0622129" lon="11.2384134"><ele>475.0</ele><time>2026-04-26T10:43:57.056Z</time></trkpt><trkpt lat="46.0622594" lon="11.2385166"><ele>475.0</ele><time>2026-04-26T10:43:58.043Z</time></trkpt><trkpt lat="46.062303" lon="11.2386186"><ele>475.0</ele><time>2026-04-26T10:43:59.043Z</time></trkpt><trkpt lat="46.0623458" lon="11.2387137"><ele>475.00000000000006</ele><time>2026-04-26T10:44:00.061Z</time></trkpt><trkpt lat="46.0623807" lon="11.238804"><ele>475.0</ele><time>2026-04-26T10:44:01.056Z</time></trkpt><trkpt lat="46.0624152" lon="11.2388913"><ele>475.6666666666667</ele><time>2026-04-26T10:44:02.057Z</time></trkpt><trkpt lat="46.0624525" lon="11.238977"><ele>476.33333333333337</ele><time>2026-04-26T10:44:03.036Z</time></trkpt><trkpt lat="46.0624922" lon="11.2390623"><ele>477.0</ele><time>2026-04-26T10:44:04.085Z</time></trkpt><trkpt lat="46.0625288" lon="11.239159"><ele>477.66666666666663</ele><time>2026-04-26T10:44:05.053Z</time></trkpt><trkpt lat="46.0625784" lon="11.2392499"><ele>478.3333333333333</ele><time>2026-04-26T10:44:06.041Z</time></trkpt><trkpt lat="46.0626247" lon="11.2393538"><ele>479.0</ele><time>2026-04-26T10:44:07.064Z</time></trkpt><trkpt lat="46.0626704" lon="11.2394663"><ele>478.99999999999994</ele><time>2026-04-26T10:44:08.038Z</time></trkpt><trkpt lat="46.0627148" lon="11.2395787"><ele>479.0</ele><time>2026-04-26T10:44:09.038Z</time></trkpt><trkpt lat="46.0627484" lon="11.2396988"><ele>479.0</ele><time>2026-04-26T10:44:10.051Z</time></trkpt><trkpt lat="46.0627815" lon="11.2398063"><ele>479.0</ele><time>2026-04-26T10:44:11.047Z</time></trkpt><trkpt lat="46.0628206" lon="11.2399012"><ele>478.99999999999994</ele><time>2026-04-26T10:44:12.039Z</time></trkpt><trkpt lat="46.0628536" lon="11.2400074"><ele>479.0</ele><time>2026-04-26T10:44:13.045Z</time></trkpt><trkpt lat="46.0629014" lon="11.2401096"><ele>478.99999999999994</ele><time>2026-04-26T10:44:14.055Z</time></trkpt><trkpt lat="46.0629461" lon="11.2402159"><ele>479.0</ele><time>2026-04-26T10:44:15.095Z</time></trkpt><trkpt lat="46.0629859" lon="11.2403166"><ele>479.0</ele><time>2026-04-26T10:44:16.042Z</time></trkpt><trkpt lat="46.0630274" lon="11.2404061"><ele>479.0</ele><time>2026-04-26T10:44:17.051Z</time></trkpt><trkpt lat="46.0630707" lon="11.2405023"><ele>478.99999999999994</ele><time>2026-04-26T10:44:18.035Z</time></trkpt><trkpt lat="46.0631175" lon="11.2406101"><ele>479.0</ele><time>2026-04-26T10:44:19.037Z</time></trkpt><trkpt lat="46.0631708" lon="11.2407252"><ele>479.4</ele><time>2026-04-26T10:44:20.045Z</time></trkpt><trkpt lat="46.0632251" lon="11.2408484"><ele>479.79999999999995</ele><time>2026-04-26T10:44:21.042Z</time></trkpt><trkpt lat="46.0632773" lon="11.2409746"><ele>480.20000000000005</ele><time>2026-04-26T10:44:22.071Z</time></trkpt><trkpt lat="46.0633309" lon="11.2410985"><ele>480.6</ele><time>2026-04-26T10:44:23.037Z</time></trkpt><trkpt lat="46.063384" lon="11.2412215"><ele>481.0</ele><time>2026-04-26T10:44:24.048Z</time></trkpt><trkpt lat="46.0634331" lon="11.2413426"><ele>481.0</ele><time>2026-04-26T10:44:25.059Z</time></trkpt><trkpt lat="46.0634836" lon="11.2414603"><ele>481.0</ele><time>2026-04-26T10:44:26.045Z</time></trkpt><trkpt lat="46.0635281" lon="11.2415825"><ele>481.0</ele><time>2026-04-26T10:44:27.053Z</time></trkpt><trkpt lat="46.0635777" lon="11.2416989"><ele>481.0</ele><time>2026-04-26T10:44:28.055Z</time></trkpt><trkpt lat="46.063623" lon="11.2418092"><ele>481.0</ele><time>2026-04-26T10:44:29.051Z</time></trkpt><trkpt lat="46.0636696" lon="11.2419085"><ele>481.33333333333337</ele><time>2026-04-26T10:44:30.048Z</time></trkpt><trkpt lat="46.0637142" lon="11.2419974"><ele>481.6666666666667</ele><time>2026-04-26T10:44:31.039Z</time></trkpt><trkpt lat="46.0637812" lon="11.242121"><ele>482.0</ele><time>2026-04-26T10:44:33.042Z</time></trkpt><trkpt lat="46.0638365" lon="11.2421843"><ele>482.33333333333337</ele><time>2026-04-26T10:44:35.056Z</time></trkpt><trkpt lat="46.0639272" lon="11.2421805"><ele>482.6666666666667</ele><time>2026-04-26T10:44:37.046Z</time></trkpt><trkpt lat="46.0639858" lon="11.242125"><ele>483.0</ele><time>2026-04-26T10:44:38.043Z</time></trkpt><trkpt lat="46.0640738" lon="11.2421049"><ele>483.1666666666667</ele><time>2026-04-26T10:44:39.062Z</time></trkpt><trkpt lat="46.0641743" lon="11.2420856"><ele>483.33333333333337</ele><time>2026-04-26T10:44:40.035Z</time></trkpt><trkpt lat="46.064269" lon="11.2420666"><ele>483.5</ele><time>2026-04-26T10:44:41.04Z</time></trkpt><trkpt lat="46.0643477" lon="11.242063"><ele>483.6666666666667</ele><time>2026-04-26T10:44:42.036Z</time></trkpt><trkpt lat="46.0644201" lon="11.242062"><ele>483.83333333333337</ele><time>2026-04-26T10:44:43.054Z</time></trkpt><trkpt lat="46.0644872" lon="11.2420542"><ele>484.0</ele><time>2026-04-26T10:44:44.037Z</time></trkpt><trkpt lat="46.0645525" lon="11.2420603"><ele>484.00000000000006</ele><time>2026-04-26T10:44:45.045Z</time></trkpt><trkpt lat="46.0646774" lon="11.2420705"><ele>484.0</ele><time>2026-04-26T10:44:47.04Z</time></trkpt><trkpt lat="46.0647487" lon="11.2420542"><ele>484.0</ele><time>2026-04-26T10:44:48.038Z</time></trkpt><trkpt lat="46.064822" lon="11.2420184"><ele>484.0</ele><time>2026-04-26T10:44:49.045Z</time></trkpt><trkpt lat="46.0648964" lon="11.2419686"><ele>484.00000000000006</ele><time>2026-04-26T10:44:50.049Z</time></trkpt><trkpt lat="46.0649818" lon="11.2419376"><ele>484.0</ele><time>2026-04-26T10:44:51.048Z</time></trkpt><trkpt lat="46.0650747" lon="11.2419244"><ele>484.0</ele><time>2026-04-26T10:44:52.039Z</time></trkpt><trkpt lat="46.0651708" lon="11.2418777"><ele>484.0</ele><time>2026-04-26T10:44:53.039Z</time></trkpt><trkpt lat="46.0652779" lon="11.2418313"><ele>484.0</ele><time>2026-04-26T10:44:54.041Z</time></trkpt><trkpt lat="46.0653894" lon="11.2417777"><ele>484.0</ele><time>2026-04-26T10:44:55.065Z</time></trkpt><trkpt lat="46.0655003" lon="11.2417108"><ele>484.0</ele><time>2026-04-26T10:44:56.048Z</time></trkpt><trkpt lat="46.0656118" lon="11.2416595"><ele>484.0</ele><time>2026-04-26T10:44:57.046Z</time></trkpt><trkpt lat="46.0657178" lon="11.2416176"><ele>484.0</ele><time>2026-04-26T10:44:58.044Z</time></trkpt><trkpt lat="46.0658132" lon="11.24156"><ele>484.0</ele><time>2026-04-26T10:44:59.04Z</time></trkpt><trkpt lat="46.0658911" lon="11.2414971"><ele>484.0</ele><time>2026-04-26T10:45:00.048Z</time></trkpt><trkpt lat="46.0659559" lon="11.2414343"><ele>483.75</ele><time>2026-04-26T10:45:01.042Z</time></trkpt><trkpt lat="46.0660066" lon="11.2413453"><ele>483.5</ele><time>2026-04-26T10:45:02.041Z</time></trkpt><trkpt lat="46.0660699" lon="11.2412746"><ele>483.25</ele><time>2026-04-26T10:45:03.154Z</time></trkpt><trkpt lat="46.0662204" lon="11.2411059"><ele>483.0</ele><time>2026-04-26T10:45:05.038Z</time></trkpt><trkpt lat="46.0662902" lon="11.2409947"><ele>483.0</ele><time>2026-04-26T10:45:06.044Z</time></trkpt><trkpt lat="46.0663558" lon="11.2408909"><ele>482.99999999999994</ele><time>2026-04-26T10:45:07.054Z</time></trkpt><trkpt lat="46.0664219" lon="11.240791"><ele>482.99999999999994</ele><time>2026-04-26T10:45:08.09Z</time></trkpt><trkpt lat="46.0664847" lon="11.2406898"><ele>483.0</ele><time>2026-04-26T10:45:09.095Z</time></trkpt><trkpt lat="46.0665545" lon="11.2406017"><ele>483.0</ele><time>2026-04-26T10:45:10.04Z</time></trkpt><trkpt lat="46.0666265" lon="11.2405212"><ele>483.0</ele><time>2026-04-26T10:45:11.035Z</time></trkpt><trkpt lat="46.0666996" lon="11.2404412"><ele>482.99999999999994</ele><time>2026-04-26T10:45:12.032Z</time></trkpt><trkpt lat="46.0667798" lon="11.240374"><ele>482.99999999999994</ele><time>2026-04-26T10:45:13.035Z</time></trkpt><trkpt lat="46.0668526" lon="11.2402956"><ele>483.0</ele><time>2026-04-26T10:45:14.128Z</time></trkpt><trkpt lat="46.0669267" lon="11.2402187"><ele>483.0</ele><time>2026-04-26T10:45:15.045Z</time></trkpt><trkpt lat="46.0670098" lon="11.2401578"><ele>483.0</ele><time>2026-04-26T10:45:16.05Z</time></trkpt><trkpt lat="46.0670898" lon="11.2400973"><ele>483.0</ele><time>2026-04-26T10:45:17.05Z</time></trkpt><trkpt lat="46.0671672" lon="11.2400344"><ele>483.0</ele><time>2026-04-26T10:45:18.036Z</time></trkpt><trkpt lat="46.0672444" lon="11.239974"><ele>483.0</ele><time>2026-04-26T10:45:19.044Z</time></trkpt><trkpt lat="46.0673221" lon="11.2399139"><ele>483.0</ele><time>2026-04-26T10:45:20.041Z</time></trkpt><trkpt lat="46.0674048" lon="11.2398683"><ele>483.0</ele><time>2026-04-26T10:45:21.047Z</time></trkpt><trkpt lat="46.067489" lon="11.2398399"><ele>483.0</ele><time>2026-04-26T10:45:22.041Z</time></trkpt><trkpt lat="46.067571" lon="11.2398173"><ele>483.0</ele><time>2026-04-26T10:45:23.055Z</time></trkpt><trkpt lat="46.0676469" lon="11.2398099"><ele>483.0</ele><time>2026-04-26T10:45:24.071Z</time></trkpt><trkpt lat="46.0677418" lon="11.2398106"><ele>483.0</ele><time>2026-04-26T10:45:26.037Z</time></trkpt><trkpt lat="46.0678065" lon="11.2397946"><ele>483.0</ele><time>2026-04-26T10:45:30.049Z</time></trkpt><trkpt lat="46.0678945" lon="11.2397763"><ele>483.0</ele><time>2026-04-26T10:45:42.031Z</time></trkpt><trkpt lat="46.0679653" lon="11.2397633"><ele>483.0</ele><time>2026-04-26T10:45:45.045Z</time></trkpt><trkpt lat="46.0680341" lon="11.2397585"><ele>482.99999999999994</ele><time>2026-04-26T10:48:47.095Z</time></trkpt><trkpt lat="46.0681308" lon="11.239684"><ele>482.99999999999994</ele><time>2026-04-26T10:48:50.074Z</time></trkpt><trkpt lat="46.0682588" lon="11.239631"><ele>483.0</ele><time>2026-04-26T10:48:52.056Z</time></trkpt><trkpt lat="46.0683314" lon="11.2395922"><ele>483.0</ele><time>2026-04-26T10:48:53.095Z</time></trkpt><trkpt lat="46.0684102" lon="11.2395603"><ele>482.8333333333333</ele><time>2026-04-26T10:48:54.08Z</time></trkpt><trkpt lat="46.0684899" lon="11.2395133"><ele>482.66666666666663</ele><time>2026-04-26T10:48:55.06Z</time></trkpt><trkpt lat="46.068572" lon="11.2394538"><ele>482.5</ele><time>2026-04-26T10:48:56.072Z</time></trkpt><trkpt lat="46.0686534" lon="11.239389"><ele>482.3333333333333</ele><time>2026-04-26T10:48:57.083Z</time></trkpt><trkpt lat="46.068729" lon="11.2393206"><ele>482.16666666666663</ele><time>2026-04-26T10:48:58.059Z</time></trkpt><trkpt lat="46.068801" lon="11.2392543"><ele>482.0</ele><time>2026-04-26T10:48:59.057Z</time></trkpt><trkpt lat="46.0688639" lon="11.2391815"><ele>482.0</ele><time>2026-04-26T10:49:00.105Z</time></trkpt><trkpt lat="46.0689231" lon="11.2391117"><ele>482.00000000000006</ele><time>2026-04-26T10:49:01.077Z</time></trkpt><trkpt lat="46.0689792" lon="11.2390469"><ele>482.0</ele><time>2026-04-26T10:49:02.055Z</time></trkpt><trkpt lat="46.0690359" lon="11.2389888"><ele>482.0</ele><time>2026-04-26T10:49:03.13Z</time></trkpt><trkpt lat="46.0690964" lon="11.2389349"><ele>482.00000000000006</ele><time>2026-04-26T10:49:04.056Z</time></trkpt><trkpt lat="46.0691569" lon="11.2388799"><ele>482.0</ele><time>2026-04-26T10:49:05.058Z</time></trkpt><trkpt lat="46.0692121" lon="11.2388221"><ele>482.0</ele><time>2026-04-26T10:49:06.062Z</time></trkpt><trkpt lat="46.069266" lon="11.2387738"><ele>482.0</ele><time>2026-04-26T10:49:07.084Z</time></trkpt><trkpt lat="46.0693672" lon="11.2386846"><ele>482.00000000000006</ele><time>2026-04-26T10:49:09.067Z</time></trkpt><trkpt lat="46.0694526" lon="11.2386117"><ele>482.00000000000006</ele><time>2026-04-26T10:49:11.076Z</time></trkpt><trkpt lat="46.0695172" lon="11.2385582"><ele>482.0</ele><time>2026-04-26T10:49:13.09Z</time></trkpt><trkpt lat="46.0695971" lon="11.2384958"><ele>482.0</ele><time>2026-04-26T10:49:15.09Z</time></trkpt><trkpt lat="46.0696944" lon="11.2383749"><ele>481.99999999999994</ele><time>2026-04-26T10:49:17.088Z</time></trkpt><trkpt lat="46.0697491" lon="11.2383093"><ele>482.0</ele><time>2026-04-26T10:49:18.072Z</time></trkpt><trkpt lat="46.0698058" lon="11.2382498"><ele>482.0</ele><time>2026-04-26T10:49:19.078Z</time></trkpt><trkpt lat="46.0698658" lon="11.2381939"><ele>482.0</ele><time>2026-04-26T10:49:20.06Z</time></trkpt><trkpt lat="46.0699302" lon="11.2381309"><ele>481.99999999999994</ele><time>2026-04-26T10:49:21.06Z</time></trkpt><trkpt lat="46.0699989" lon="11.2380613"><ele>482.0</ele><time>2026-04-26T10:49:22.068Z</time></trkpt><trkpt lat="46.070067" lon="11.2379902"><ele>481.8333333333333</ele><time>2026-04-26T10:49:23.067Z</time></trkpt><trkpt lat="46.0701311" lon="11.2379237"><ele>481.66666666666663</ele><time>2026-04-26T10:49:24.11Z</time></trkpt><trkpt lat="46.0701946" lon="11.2378601"><ele>481.5</ele><time>2026-04-26T10:49:25.079Z</time></trkpt><trkpt lat="46.0702618" lon="11.237795"><ele>481.33333333333337</ele><time>2026-04-26T10:49:26.06Z</time></trkpt><trkpt lat="46.0703327" lon="11.2377268"><ele>481.1666666666667</ele><time>2026-04-26T10:49:27.08Z</time></trkpt><trkpt lat="46.0704038" lon="11.2376445"><ele>481.0</ele><time>2026-04-26T10:49:28.058Z</time></trkpt><trkpt lat="46.0704833" lon="11.2375618"><ele>481.0</ele><time>2026-04-26T10:49:29.061Z</time></trkpt><trkpt lat="46.0705553" lon="11.237459"><ele>481.0</ele><time>2026-04-26T10:49:30.061Z</time></trkpt><trkpt lat="46.0706382" lon="11.2373841"><ele>481.0</ele><time>2026-04-26T10:49:31.062Z</time></trkpt><trkpt lat="46.0707215" lon="11.2373137"><ele>481.0</ele><time>2026-04-26T10:49:32.062Z</time></trkpt><trkpt lat="46.0708013" lon="11.2372454"><ele>481.0</ele><time>2026-04-26T10:49:33.07Z</time></trkpt><trkpt lat="46.0708795" lon="11.2371796"><ele>480.6</ele><time>2026-04-26T10:49:34.072Z</time></trkpt><trkpt lat="46.0709573" lon="11.237119"><ele>480.20000000000005</ele><time>2026-04-26T10:49:35.065Z</time></trkpt><trkpt lat="46.0710366" lon="11.237059"><ele>479.79999999999995</ele><time>2026-04-26T10:49:36.051Z</time></trkpt><trkpt lat="46.0711206" lon="11.2369978"><ele>479.4</ele><time>2026-04-26T10:49:37.064Z</time></trkpt><trkpt lat="46.0712058" lon="11.2369392"><ele>479.0</ele><time>2026-04-26T10:49:38.069Z</time></trkpt><trkpt lat="46.0712811" lon="11.2368836"><ele>479.0</ele><time>2026-04-26T10:49:39.064Z</time></trkpt><trkpt lat="46.0713457" lon="11.2368442"><ele>479.0</ele><time>2026-04-26T10:49:40.075Z</time></trkpt><trkpt lat="46.0714601" lon="11.2368286"><ele>479.0</ele><time>2026-04-26T10:49:42.065Z</time></trkpt><trkpt lat="46.0715798" lon="11.2368501"><ele>479.0</ele><time>2026-04-26T10:49:44.048Z</time></trkpt><trkpt lat="46.0716524" lon="11.2368149"><ele>479.0</ele><time>2026-04-26T10:49:45.054Z</time></trkpt><trkpt lat="46.0717268" lon="11.2367385"><ele>478.79999999999995</ele><time>2026-04-26T10:49:46.065Z</time></trkpt><trkpt lat="46.0718097" lon="11.2366585"><ele>478.59999999999997</ele><time>2026-04-26T10:49:47.079Z</time></trkpt><trkpt lat="46.0718991" lon="11.2365824"><ele>478.4</ele><time>2026-04-26T10:49:48.099Z</time></trkpt><trkpt lat="46.0720024" lon="11.236524"><ele>478.2</ele><time>2026-04-26T10:49:49.063Z</time></trkpt><trkpt lat="46.0721094" lon="11.2364628"><ele>478.0</ele><time>2026-04-26T10:49:50.055Z</time></trkpt><trkpt lat="46.0722211" lon="11.236401"><ele>478.0</ele><time>2026-04-26T10:49:51.058Z</time></trkpt><trkpt lat="46.0723344" lon="11.2363334"><ele>478.0</ele><time>2026-04-26T10:49:52.064Z</time></trkpt><trkpt lat="46.0724511" lon="11.2362654"><ele>478.0</ele><time>2026-04-26T10:49:53.055Z</time></trkpt><trkpt lat="46.0725662" lon="11.2361921"><ele>478.0</ele><time>2026-04-26T10:49:54.054Z</time></trkpt><trkpt lat="46.0726842" lon="11.2361248"><ele>478.25</ele><time>2026-04-26T10:49:55.064Z</time></trkpt><trkpt lat="46.0728114" lon="11.2360787"><ele>478.5</ele><time>2026-04-26T10:49:56.083Z</time></trkpt><trkpt lat="46.0729421" lon="11.2360379"><ele>478.75</ele><time>2026-04-26T10:49:57.067Z</time></trkpt><trkpt lat="46.0730754" lon="11.235997"><ele>479.0</ele><time>2026-04-26T10:49:58.048Z</time></trkpt><trkpt lat="46.0732155" lon="11.2359827"><ele>481.0</ele><time>2026-04-26T10:49:59.056Z</time></trkpt><trkpt lat="46.0733596" lon="11.2359842"><ele>483.0</ele><time>2026-04-26T10:50:00.148Z</time></trkpt><trkpt lat="46.0735032" lon="11.2359827"><ele>485.0</ele><time>2026-04-26T10:50:01.069Z</time></trkpt><trkpt lat="46.07364" lon="11.2359729"><ele>487.0</ele><time>2026-04-26T10:50:02.063Z</time></trkpt><trkpt lat="46.0737707" lon="11.2359275"><ele>487.0</ele><time>2026-04-26T10:50:03.068Z</time></trkpt><trkpt lat="46.0738978" lon="11.2358713"><ele>487.0</ele><time>2026-04-26T10:50:04.06Z</time></trkpt><trkpt lat="46.0740208" lon="11.235818"><ele>487.0</ele><time>2026-04-26T10:50:05.072Z</time></trkpt><trkpt lat="46.0741426" lon="11.2357617"><ele>487.0</ele><time>2026-04-26T10:50:06.064Z</time></trkpt><trkpt lat="46.0742605" lon="11.2356965"><ele>487.0</ele><time>2026-04-26T10:50:07.081Z</time></trkpt><trkpt lat="46.0743798" lon="11.2356469"><ele>487.0</ele><time>2026-04-26T10:50:08.08Z</time></trkpt><trkpt lat="46.0745" lon="11.2355979"><ele>487.0</ele><time>2026-04-26T10:50:09.067Z</time></trkpt><trkpt lat="46.0746271" lon="11.2355709"><ele>487.0</ele><time>2026-04-26T10:50:10.063Z</time></trkpt><trkpt lat="46.0747603" lon="11.2355543"><ele>491.75</ele><time>2026-04-26T10:50:11.078Z</time></trkpt><trkpt lat="46.0748956" lon="11.2355476"><ele>496.5</ele><time>2026-04-26T10:50:12.058Z</time></trkpt><trkpt lat="46.0750351" lon="11.2355391"><ele>501.25</ele><time>2026-04-26T10:50:13.102Z</time></trkpt><trkpt lat="46.0751752" lon="11.2355243"><ele>506.0</ele><time>2026-04-26T10:50:14.174Z</time></trkpt><trkpt lat="46.0753147" lon="11.235502"><ele>508.5</ele><time>2026-04-26T10:50:15.177Z</time></trkpt><trkpt lat="46.0754517" lon="11.2354708"><ele>511.0</ele><time>2026-04-26T10:50:16.058Z</time></trkpt><trkpt lat="46.0755893" lon="11.2354412"><ele>513.5</ele><time>2026-04-26T10:50:17.048Z</time></trkpt><trkpt lat="46.0757279" lon="11.2354217"><ele>516.0</ele><time>2026-04-26T10:50:18.052Z</time></trkpt><trkpt lat="46.0758689" lon="11.2353978"><ele>516.0</ele><time>2026-04-26T10:50:19.063Z</time></trkpt><trkpt lat="46.0760138" lon="11.2353888"><ele>516.0</ele><time>2026-04-26T10:50:20.059Z</time></trkpt><trkpt lat="46.0761652" lon="11.2353907"><ele>516.0</ele><time>2026-04-26T10:50:21.066Z</time></trkpt><trkpt lat="46.0763176" lon="11.2354017"><ele>516.0</ele><time>2026-04-26T10:50:22.178Z</time></trkpt><trkpt lat="46.0764703" lon="11.2353972"><ele>518.0</ele><time>2026-04-26T10:50:23.111Z</time></trkpt><trkpt lat="46.0766255" lon="11.235396"><ele>520.0</ele><time>2026-04-26T10:50:24.06Z</time></trkpt><trkpt lat="46.0767822" lon="11.2353752"><ele>522.0</ele><time>2026-04-26T10:50:25.059Z</time></trkpt><trkpt lat="46.0769361" lon="11.235294"><ele>522.0</ele><time>2026-04-26T10:50:26.055Z</time></trkpt><trkpt lat="46.0770837" lon="11.2351655"><ele>522.0</ele><time>2026-04-26T10:50:27.054Z</time></trkpt><trkpt lat="46.0772244" lon="11.2350352"><ele>522.0</ele><time>2026-04-26T10:50:28.068Z</time></trkpt><trkpt lat="46.0773518" lon="11.2348874"><ele>529.6666666666666</ele><time>2026-04-26T10:50:29.055Z</time></trkpt><trkpt lat="46.0774933" lon="11.2347736"><ele>537.3333333333333</ele><time>2026-04-26T10:50:30.051Z</time></trkpt><trkpt lat="46.077647" lon="11.234695"><ele>545.0</ele><time>2026-04-26T10:50:31.05Z</time></trkpt><trkpt lat="46.0778134" lon="11.2346761"><ele>545.0</ele><time>2026-04-26T10:50:32.052Z</time></trkpt><trkpt lat="46.0779728" lon="11.2346277"><ele>545.0</ele><time>2026-04-26T10:50:33.057Z</time></trkpt><trkpt lat="46.0781312" lon="11.2345884"><ele>545.0</ele><time>2026-04-26T10:50:34.059Z</time></trkpt><trkpt lat="46.0782879" lon="11.2345469"><ele>541.0</ele><time>2026-04-26T10:50:35.059Z</time></trkpt><trkpt lat="46.0784386" lon="11.2345036"><ele>537.0</ele><time>2026-04-26T10:50:36.05Z</time></trkpt><trkpt lat="46.0785862" lon="11.2344571"><ele>533.0</ele><time>2026-04-26T10:50:37.056Z</time></trkpt><trkpt lat="46.0787333" lon="11.2343941"><ele>533.0</ele><time>2026-04-26T10:50:38.052Z</time></trkpt><trkpt lat="46.0788806" lon="11.2343438"><ele>533.0</ele><time>2026-04-26T10:50:39.075Z</time></trkpt><trkpt lat="46.0790275" lon="11.2342868"><ele>533.0</ele><time>2026-04-26T10:50:40.062Z</time></trkpt><trkpt lat="46.079173" lon="11.2342179"><ele>531.5</ele><time>2026-04-26T10:50:41.057Z</time></trkpt><trkpt lat="46.0793106" lon="11.2341285"><ele>530.0</ele><time>2026-04-26T10:50:42.095Z</time></trkpt><trkpt lat="46.0794452" lon="11.2340389"><ele>528.5</ele><time>2026-04-26T10:50:43.061Z</time></trkpt><trkpt lat="46.0795792" lon="11.2339482"><ele>527.0</ele><time>2026-04-26T10:50:44.09Z</time></trkpt><trkpt lat="46.0797142" lon="11.2338542"><ele>532.75</ele><time>2026-04-26T10:50:45.062Z</time></trkpt><trkpt lat="46.079855" lon="11.2337751"><ele>538.5</ele><time>2026-04-26T10:50:46.051Z</time></trkpt><trkpt lat="46.079997" lon="11.2337088"><ele>544.25</ele><time>2026-04-26T10:50:47.074Z</time></trkpt><trkpt lat="46.0801313" lon="11.2336266"><ele>550.0</ele><time>2026-04-26T10:50:48.075Z</time></trkpt><trkpt lat="46.0802608" lon="11.2335388"><ele>550.0</ele><time>2026-04-26T10:50:49.051Z</time></trkpt><trkpt lat="46.080379" lon="11.2334195"><ele>550.0</ele><time>2026-04-26T10:50:50.063Z</time></trkpt><trkpt lat="46.0804925" lon="11.233295"><ele>550.0</ele><time>2026-04-26T10:50:51.063Z</time></trkpt><trkpt lat="46.0805934" lon="11.2331513"><ele>550.0</ele><time>2026-04-26T10:50:52.055Z</time></trkpt><trkpt lat="46.080694" lon="11.2330061"><ele>552.0</ele><time>2026-04-26T10:50:53.054Z</time></trkpt><trkpt lat="46.0807911" lon="11.2328486"><ele>554.0</ele><time>2026-04-26T10:50:54.056Z</time></trkpt><trkpt lat="46.0808993" lon="11.23271"><ele>556.0</ele><time>2026-04-26T10:50:55.058Z</time></trkpt><trkpt lat="46.0810093" lon="11.2325871"><ele>558.0</ele><time>2026-04-26T10:50:56.053Z</time></trkpt><trkpt lat="46.0811178" lon="11.2324784"><ele>558.0</ele><time>2026-04-26T10:50:57.057Z</time></trkpt><trkpt lat="46.0812219" lon="11.2323734"><ele>558.0</ele><time>2026-04-26T10:50:58.056Z</time></trkpt><trkpt lat="46.0813121" lon="11.2322735"><ele>558.0</ele><time>2026-04-26T10:50:59.095Z</time></trkpt><trkpt lat="46.0813986" lon="11.2321694"><ele>558.0</ele><time>2026-04-26T10:51:00.057Z</time></trkpt><trkpt lat="46.081488" lon="11.232076"><ele>559.75</ele><time>2026-04-26T10:51:01.102Z</time></trkpt><trkpt lat="46.0815815" lon="11.2319813"><ele>561.5</ele><time>2026-04-26T10:51:02.079Z</time></trkpt><trkpt lat="46.08168" lon="11.2318901"><ele>563.25</ele><time>2026-04-26T10:51:03.09Z</time></trkpt><trkpt lat="46.0817759" lon="11.2317859"><ele>565.0</ele><time>2026-04-26T10:51:04.052Z</time></trkpt><trkpt lat="46.0818759" lon="11.2316917"><ele>565.0</ele><time>2026-04-26T10:51:05.064Z</time></trkpt><trkpt lat="46.0819634" lon="11.2315748"><ele>565.0</ele><time>2026-04-26T10:51:06.071Z</time></trkpt><trkpt lat="46.0820525" lon="11.2314743"><ele>565.0</ele><time>2026-04-26T10:51:07.097Z</time></trkpt><trkpt lat="46.0821389" lon="11.2313678"><ele>565.0</ele><time>2026-04-26T10:51:08.063Z</time></trkpt><trkpt lat="46.0822256" lon="11.2312813"><ele>563.4</ele><time>2026-04-26T10:51:09.055Z</time></trkpt><trkpt lat="46.0823153" lon="11.2311948"><ele>561.8</ele><time>2026-04-26T10:51:10.062Z</time></trkpt><trkpt lat="46.0824117" lon="11.2311101"><ele>560.2</ele><time>2026-04-26T10:51:11.1Z</time></trkpt><trkpt lat="46.0825075" lon="11.2310236"><ele>558.6</ele><time>2026-04-26T10:51:12.041Z</time></trkpt><trkpt lat="46.0826093" lon="11.2309459"><ele>557.0</ele><time>2026-04-26T10:51:13.068Z</time></trkpt><trkpt lat="46.0827168" lon="11.2308755"><ele>557.0</ele><time>2026-04-26T10:51:14.045Z</time></trkpt><trkpt lat="46.0828317" lon="11.2308109"><ele>557.0</ele><time>2026-04-26T10:51:15.052Z</time></trkpt><trkpt lat="46.0829518" lon="11.2307552"><ele>557.0</ele><time>2026-04-26T10:51:16.037Z</time></trkpt><trkpt lat="46.0830595" lon="11.2306574"><ele>557.0</ele><time>2026-04-26T10:51:17.046Z</time></trkpt><trkpt lat="46.0831546" lon="11.2305249"><ele>556.75</ele><time>2026-04-26T10:51:18.036Z</time></trkpt><trkpt lat="46.0832491" lon="11.2303911"><ele>556.5</ele><time>2026-04-26T10:51:19.041Z</time></trkpt><trkpt lat="46.0833369" lon="11.2302633"><ele>556.25</ele><time>2026-04-26T10:51:20.043Z</time></trkpt><trkpt lat="46.0834245" lon="11.2301535"><ele>556.0</ele><time>2026-04-26T10:51:21.036Z</time></trkpt><trkpt lat="46.0834919" lon="11.2300328"><ele>555.4</ele><time>2026-04-26T10:51:22.052Z</time></trkpt><trkpt lat="46.0835551" lon="11.2299094"><ele>554.8</ele><time>2026-04-26T10:51:23.036Z</time></trkpt><trkpt lat="46.0836194" lon="11.229785"><ele>554.1999999999999</ele><time>2026-04-26T10:51:24.04Z</time></trkpt><trkpt lat="46.0836839" lon="11.2296538"><ele>553.6</ele><time>2026-04-26T10:51:25.051Z</time></trkpt><trkpt lat="46.0837243" lon="11.2294955"><ele>553.0</ele><time>2026-04-26T10:51:26.045Z</time></trkpt><trkpt lat="46.0837564" lon="11.2293355"><ele>552.6</ele><time>2026-04-26T10:51:27.045Z</time></trkpt><trkpt lat="46.0837796" lon="11.2291776"><ele>552.1999999999999</ele><time>2026-04-26T10:51:28.04Z</time></trkpt><trkpt lat="46.0837959" lon="11.2290206"><ele>551.8</ele><time>2026-04-26T10:51:29.042Z</time></trkpt><trkpt lat="46.0838129" lon="11.2288656"><ele>551.4</ele><time>2026-04-26T10:51:30.053Z</time></trkpt><trkpt lat="46.0838339" lon="11.2287007"><ele>551.0</ele><time>2026-04-26T10:51:31.047Z</time></trkpt><trkpt lat="46.0838681" lon="11.2285365"><ele>551.0</ele><time>2026-04-26T10:51:32.056Z</time></trkpt><trkpt lat="46.0838993" lon="11.2283652"><ele>551.0</ele><time>2026-04-26T10:51:33.046Z</time></trkpt><trkpt lat="46.0839301" lon="11.2281891"><ele>551.0</ele><time>2026-04-26T10:51:34.052Z</time></trkpt><trkpt lat="46.0839515" lon="11.2280158"><ele>551.0</ele><time>2026-04-26T10:51:35.045Z</time></trkpt><trkpt lat="46.0839689" lon="11.2278528"><ele>549.4</ele><time>2026-04-26T10:51:36.043Z</time></trkpt><trkpt lat="46.0839891" lon="11.2276988"><ele>547.8</ele><time>2026-04-26T10:51:37.046Z</time></trkpt><trkpt lat="46.0840139" lon="11.2275428"><ele>546.1999999999999</ele><time>2026-04-26T10:51:38.055Z</time></trkpt><trkpt lat="46.084039" lon="11.2273859"><ele>544.6</ele><time>2026-04-26T10:51:39.041Z</time></trkpt><trkpt lat="46.0840602" lon="11.227238"><ele>543.0</ele><time>2026-04-26T10:51:40.04Z</time></trkpt><trkpt lat="46.0840827" lon="11.2271071"><ele>547.8333333333334</ele><time>2026-04-26T10:51:41.036Z</time></trkpt><trkpt lat="46.0841064" lon="11.2269943"><ele>552.6666666666666</ele><time>2026-04-26T10:51:42.04Z</time></trkpt><trkpt lat="46.0841294" lon="11.2269038"><ele>557.5</ele><time>2026-04-26T10:51:43.052Z</time></trkpt><trkpt lat="46.0841906" lon="11.226873"><ele>562.3333333333333</ele><time>2026-04-26T10:51:44.035Z</time></trkpt><trkpt lat="46.084292" lon="11.2268719"><ele>567.1666666666666</ele><time>2026-04-26T10:51:46.038Z</time></trkpt><trkpt lat="46.0843245" lon="11.2269656"><ele>572.0</ele><time>2026-04-26T10:51:47.055Z</time></trkpt><trkpt lat="46.0843652" lon="11.2270574"><ele>572.0</ele><time>2026-04-26T10:51:48.042Z</time></trkpt><trkpt lat="46.0843419" lon="11.2271692"><ele>572.0</ele><time>2026-04-26T10:51:49.043Z</time></trkpt><trkpt lat="46.084304" lon="11.2272901"><ele>572.0</ele><time>2026-04-26T10:51:50.04Z</time></trkpt><trkpt lat="46.084257" lon="11.2274233"><ele>572.0</ele><time>2026-04-26T10:51:51.041Z</time></trkpt><trkpt lat="46.0842077" lon="11.2275757"><ele>572.0</ele><time>2026-04-26T10:51:52.051Z</time></trkpt><trkpt lat="46.0841841" lon="11.2277541"><ele>573.5</ele><time>2026-04-26T10:51:53.038Z</time></trkpt><trkpt lat="46.084183" lon="11.2279468"><ele>575.0</ele><time>2026-04-26T10:51:54.042Z</time></trkpt><trkpt lat="46.0841714" lon="11.228129"><ele>576.5</ele><time>2026-04-26T10:51:55.043Z</time></trkpt><trkpt lat="46.0841622" lon="11.2283146"><ele>578.0</ele><time>2026-04-26T10:51:56.037Z</time></trkpt><trkpt lat="46.0841843" lon="11.2285063"><ele>578.5</ele><time>2026-04-26T10:51:57.038Z</time></trkpt><trkpt lat="46.0842091" lon="11.2286964"><ele>579.0</ele><time>2026-04-26T10:51:58.042Z</time></trkpt><trkpt lat="46.0842327" lon="11.2288822"><ele>579.5</ele><time>2026-04-26T10:51:59.039Z</time></trkpt><trkpt lat="46.0842583" lon="11.2290666"><ele>580.0</ele><time>2026-04-26T10:52:00.171Z</time></trkpt><trkpt lat="46.0842834" lon="11.2294332"><ele>581.5</ele><time>2026-04-26T10:52:02.039Z</time></trkpt><trkpt lat="46.0842978" lon="11.2296138"><ele>583.0</ele><time>2026-04-26T10:52:03.038Z</time></trkpt><trkpt lat="46.084324" lon="11.2297902"><ele>584.5</ele><time>2026-04-26T10:52:04.037Z</time></trkpt><trkpt lat="46.0843397" lon="11.2299674"><ele>586.0</ele><time>2026-04-26T10:52:05.044Z</time></trkpt><trkpt lat="46.0843647" lon="11.230139"><ele>586.0</ele><time>2026-04-26T10:52:06.054Z</time></trkpt><trkpt lat="46.084401" lon="11.2303121"><ele>586.0</ele><time>2026-04-26T10:52:07.052Z</time></trkpt><trkpt lat="46.0844464" lon="11.2304838"><ele>586.0</ele><time>2026-04-26T10:52:08.041Z</time></trkpt><trkpt lat="46.0844984" lon="11.2306542"><ele>586.0</ele><time>2026-04-26T10:52:09.042Z</time></trkpt><trkpt lat="46.0845538" lon="11.2308228"><ele>586.0</ele><time>2026-04-26T10:52:10.045Z</time></trkpt><trkpt lat="46.0846115" lon="11.2309807"><ele>586.0</ele><time>2026-04-26T10:52:11.03Z</time></trkpt><trkpt lat="46.0846611" lon="11.2311423"><ele>586.0</ele><time>2026-04-26T10:52:12.043Z</time></trkpt><trkpt lat="46.0847043" lon="11.2313041"><ele>586.0</ele><time>2026-04-26T10:52:13.051Z</time></trkpt><trkpt lat="46.0847366" lon="11.2314677"><ele>585.25</ele><time>2026-04-26T10:52:14.04Z</time></trkpt><trkpt lat="46.084749" lon="11.2316371"><ele>584.5</ele><time>2026-04-26T10:52:15.039Z</time></trkpt><trkpt lat="46.0847334" lon="11.2318031"><ele>583.75</ele><time>2026-04-26T10:52:16.054Z</time></trkpt><trkpt lat="46.0846954" lon="11.23197"><ele>583.0</ele><time>2026-04-26T10:52:17.041Z</time></trkpt><trkpt lat="46.0846322" lon="11.2321291"><ele>583.0</ele><time>2026-04-26T10:52:18.053Z</time></trkpt><trkpt lat="46.0845319" lon="11.2322608"><ele>583.0</ele><time>2026-04-26T10:52:19.041Z</time></trkpt><trkpt lat="46.0844214" lon="11.2323784"><ele>583.0</ele><time>2026-04-26T10:52:20.048Z</time></trkpt><trkpt lat="46.0842969" lon="11.2324561"><ele>583.0</ele><time>2026-04-26T10:52:21.048Z</time></trkpt><trkpt lat="46.0842014" lon="11.2325869"><ele>581.0</ele><time>2026-04-26T10:52:22.039Z</time></trkpt><trkpt lat="46.0841339" lon="11.232747"><ele>579.0</ele><time>2026-04-26T10:52:23.044Z</time></trkpt><trkpt lat="46.084086" lon="11.2329097"><ele>577.0</ele><time>2026-04-26T10:52:24.049Z</time></trkpt><trkpt lat="46.0840541" lon="11.233091"><ele>575.0</ele><time>2026-04-26T10:52:25.055Z</time></trkpt><trkpt lat="46.0840036" lon="11.2332614"><ele>575.0</ele><time>2026-04-26T10:52:26.044Z</time></trkpt><trkpt lat="46.083987" lon="11.2334473"><ele>575.0</ele><time>2026-04-26T10:52:27.039Z</time></trkpt><trkpt lat="46.0839804" lon="11.2336416"><ele>575.0</ele><time>2026-04-26T10:52:28.043Z</time></trkpt><trkpt lat="46.0839919" lon="11.2338433"><ele>575.0</ele><time>2026-04-26T10:52:29.04Z</time></trkpt><trkpt lat="46.0840081" lon="11.2340509"><ele>577.0</ele><time>2026-04-26T10:52:30.057Z</time></trkpt><trkpt lat="46.0840213" lon="11.2342581"><ele>579.0</ele><time>2026-04-26T10:52:31.048Z</time></trkpt><trkpt lat="46.0840243" lon="11.234469"><ele>581.0</ele><time>2026-04-26T10:52:32.049Z</time></trkpt><trkpt lat="46.0840063" lon="11.234676"><ele>583.0</ele><time>2026-04-26T10:52:33.04Z</time></trkpt><trkpt lat="46.0839784" lon="11.2348743"><ele>586.75</ele><time>2026-04-26T10:52:34.042Z</time></trkpt><trkpt lat="46.0839197" lon="11.2350642"><ele>590.5</ele><time>2026-04-26T10:52:35.051Z</time></trkpt><trkpt lat="46.0838767" lon="11.2352592"><ele>594.25</ele><time>2026-04-26T10:52:36.125Z</time></trkpt><trkpt lat="46.0837917" lon="11.2354319"><ele>598.0</ele><time>2026-04-26T10:52:37.116Z</time></trkpt><trkpt lat="46.0836906" lon="11.235602"><ele>609.6666666666667</ele><time>2026-04-26T10:52:38.046Z</time></trkpt><trkpt lat="46.0835747" lon="11.235732"><ele>621.3333333333334</ele><time>2026-04-26T10:52:39.04Z</time></trkpt><trkpt lat="46.0834564" lon="11.2358754"><ele>633.0</ele><time>2026-04-26T10:52:40.038Z</time></trkpt><trkpt lat="46.0833318" lon="11.2359996"><ele>621.0</ele><time>2026-04-26T10:52:41.044Z</time></trkpt><trkpt lat="46.0831992" lon="11.2361117"><ele>609.0</ele><time>2026-04-26T10:52:42.056Z</time></trkpt><trkpt lat="46.0830712" lon="11.2362323"><ele>597.0</ele><time>2026-04-26T10:52:43.047Z</time></trkpt><trkpt lat="46.0829478" lon="11.2363579"><ele>607.25</ele><time>2026-04-26T10:52:44.041Z</time></trkpt><trkpt lat="46.0828333" lon="11.2365027"><ele>617.5</ele><time>2026-04-26T10:52:45.041Z</time></trkpt><trkpt lat="46.0827246" lon="11.2366516"><ele>627.75</ele><time>2026-04-26T10:52:46.049Z</time></trkpt><trkpt lat="46.0826162" lon="11.236795"><ele>638.0</ele><time>2026-04-26T10:52:47.038Z</time></trkpt><trkpt lat="46.0825082" lon="11.2369315"><ele>638.25</ele><time>2026-04-26T10:52:48.053Z</time></trkpt><trkpt lat="46.0824005" lon="11.237067"><ele>638.5</ele><time>2026-04-26T10:52:49.054Z</time></trkpt><trkpt lat="46.0822894" lon="11.2371987"><ele>638.75</ele><time>2026-04-26T10:52:50.043Z</time></trkpt><trkpt lat="46.0821766" lon="11.2373329"><ele>639.0</ele><time>2026-04-26T10:52:51.044Z</time></trkpt><trkpt lat="46.0820535" lon="11.2374733"><ele>639.0</ele><time>2026-04-26T10:52:52.038Z</time></trkpt><trkpt lat="46.08191" lon="11.2375895"><ele>639.0</ele><time>2026-04-26T10:52:53.033Z</time></trkpt><trkpt lat="46.0817762" lon="11.2377261"><ele>639.0</ele><time>2026-04-26T10:52:54.048Z</time></trkpt><trkpt lat="46.0816335" lon="11.2378619"><ele>642.0</ele><time>2026-04-26T10:52:55.051Z</time></trkpt><trkpt lat="46.0814937" lon="11.2380088"><ele>645.0</ele><time>2026-04-26T10:52:56.048Z</time></trkpt><trkpt lat="46.0813527" lon="11.2381519"><ele>648.0</ele><time>2026-04-26T10:52:57.04Z</time></trkpt><trkpt lat="46.0812121" lon="11.2382928"><ele>648.0</ele><time>2026-04-26T10:52:58.039Z</time></trkpt><trkpt lat="46.0810711" lon="11.2384262"><ele>648.0</ele><time>2026-04-26T10:52:59.043Z</time></trkpt><trkpt lat="46.0809304" lon="11.2385609"><ele>648.0</ele><time>2026-04-26T10:53:00.055Z</time></trkpt><trkpt lat="46.0807978" lon="11.2387021"><ele>650.6666666666666</ele><time>2026-04-26T10:53:01.046Z</time></trkpt><trkpt lat="46.0806632" lon="11.2388334"><ele>653.3333333333333</ele><time>2026-04-26T10:53:02.039Z</time></trkpt><trkpt lat="46.0805239" lon="11.2389645"><ele>656.0</ele><time>2026-04-26T10:53:03.052Z</time></trkpt><trkpt lat="46.0803832" lon="11.2391019"><ele>656.0</ele><time>2026-04-26T10:53:04.04Z</time></trkpt><trkpt lat="46.0802432" lon="11.239244"><ele>656.0</ele><time>2026-04-26T10:53:05.065Z</time></trkpt><trkpt lat="46.0801014" lon="11.2393798"><ele>656.0</ele><time>2026-04-26T10:53:06.069Z</time></trkpt><trkpt lat="46.0799586" lon="11.2395143"><ele>659.3333333333333</ele><time>2026-04-26T10:53:07.044Z</time></trkpt><trkpt lat="46.0798174" lon="11.2396527"><ele>662.6666666666666</ele><time>2026-04-26T10:53:08.038Z</time></trkpt><trkpt lat="46.0796745" lon="11.2397871"><ele>666.0</ele><time>2026-04-26T10:53:09.049Z</time></trkpt><trkpt lat="46.0795346" lon="11.2399264"><ele>666.0</ele><time>2026-04-26T10:53:10.035Z</time></trkpt><trkpt lat="46.0793931" lon="11.2400556"><ele>666.0</ele><time>2026-04-26T10:53:11.041Z</time></trkpt><trkpt lat="46.0792781" lon="11.2402207"><ele>666.0</ele><time>2026-04-26T10:53:12.035Z</time></trkpt><trkpt lat="46.0791667" lon="11.2403754"><ele>667.75</ele><time>2026-04-26T10:53:13.036Z</time></trkpt><trkpt lat="46.0790651" lon="11.2405386"><ele>669.5</ele><time>2026-04-26T10:53:14.035Z</time></trkpt><trkpt lat="46.0789757" lon="11.2406994"><ele>671.25</ele><time>2026-04-26T10:53:15.055Z</time></trkpt><trkpt lat="46.0788694" lon="11.2408193"><ele>673.0</ele><time>2026-04-26T10:53:16.042Z</time></trkpt><trkpt lat="46.0787601" lon="11.2409163"><ele>673.0</ele><time>2026-04-26T10:53:17.038Z</time></trkpt><trkpt lat="46.0786316" lon="11.2409309"><ele>673.0</ele><time>2026-04-26T10:53:18.041Z</time></trkpt><trkpt lat="46.0785211" lon="11.2409537"><ele>673.0</ele><time>2026-04-26T10:53:19.04Z</time></trkpt><trkpt lat="46.0784454" lon="11.2409952"><ele>673.0</ele><time>2026-04-26T10:53:20.039Z</time></trkpt><trkpt lat="46.0784014" lon="11.2410635"><ele>673.0</ele><time>2026-04-26T10:53:21.043Z</time></trkpt><trkpt lat="46.0784075" lon="11.2411627"><ele>673.0</ele><time>2026-04-26T10:53:22.05Z</time></trkpt><trkpt lat="46.0784503" lon="11.2412436"><ele>673.0</ele><time>2026-04-26T10:53:23.052Z</time></trkpt><trkpt lat="46.0785109" lon="11.2412943"><ele>673.0</ele><time>2026-04-26T10:53:24.038Z</time></trkpt><trkpt lat="46.0785889" lon="11.2413087"><ele>673.0</ele><time>2026-04-26T10:53:25.044Z</time></trkpt><trkpt lat="46.0786755" lon="11.2412453"><ele>673.0</ele><time>2026-04-26T10:53:26.052Z</time></trkpt><trkpt lat="46.0787637" lon="11.2411229"><ele>673.0</ele><time>2026-04-26T10:53:27.036Z</time></trkpt><trkpt lat="46.0788701" lon="11.2410057"><ele>673.0</ele><time>2026-04-26T10:53:28.067Z</time></trkpt><trkpt lat="46.0789936" lon="11.2408834"><ele>673.0</ele><time>2026-04-26T10:53:29.035Z</time></trkpt><trkpt lat="46.0791179" lon="11.2407582"><ele>673.0</ele><time>2026-04-26T10:53:30.04Z</time></trkpt><trkpt lat="46.0792341" lon="11.2406355"><ele>673.0</ele><time>2026-04-26T10:53:31.059Z</time></trkpt><trkpt lat="46.0793501" lon="11.2405219"><ele>671.25</ele><time>2026-04-26T10:53:32.04Z</time></trkpt><trkpt lat="46.0794681" lon="11.2404144"><ele>669.5</ele><time>2026-04-26T10:53:33.041Z</time></trkpt><trkpt lat="46.0795886" lon="11.2403183"><ele>667.75</ele><time>2026-04-26T10:53:34.047Z</time></trkpt><trkpt lat="46.0797197" lon="11.240244"><ele>666.0</ele><time>2026-04-26T10:53:35.048Z</time></trkpt><trkpt lat="46.0798601" lon="11.2401549"><ele>677.0</ele><time>2026-04-26T10:53:36.062Z</time></trkpt><trkpt lat="46.0800081" lon="11.2400561"><ele>688.0</ele><time>2026-04-26T10:53:37.042Z</time></trkpt><trkpt lat="46.0801505" lon="11.2399528"><ele>699.0</ele><time>2026-04-26T10:53:38.046Z</time></trkpt><trkpt lat="46.0802843" lon="11.2398375"><ele>696.75</ele><time>2026-04-26T10:53:39.06Z</time></trkpt><trkpt lat="46.0804151" lon="11.239754"><ele>694.5</ele><time>2026-04-26T10:53:40.049Z</time></trkpt><trkpt lat="46.0805426" lon="11.239678"><ele>692.25</ele><time>2026-04-26T10:53:41.036Z</time></trkpt><trkpt lat="46.0806734" lon="11.2396136"><ele>690.0</ele><time>2026-04-26T10:53:42.04Z</time></trkpt><trkpt lat="46.0808016" lon="11.2395347"><ele>690.0</ele><time>2026-04-26T10:53:43.039Z</time></trkpt><trkpt lat="46.0809168" lon="11.2394175"><ele>690.0</ele><time>2026-04-26T10:53:44.056Z</time></trkpt><trkpt lat="46.0810459" lon="11.2393428"><ele>690.0</ele><time>2026-04-26T10:53:45.045Z</time></trkpt><trkpt lat="46.0811566" lon="11.2392247"><ele>690.0</ele><time>2026-04-26T10:53:46.038Z</time></trkpt><trkpt lat="46.08127" lon="11.23913"><ele>690.0</ele><time>2026-04-26T10:53:47.045Z</time></trkpt><trkpt lat="46.0813854" lon="11.2390476"><ele>690.0</ele><time>2026-04-26T10:53:48.052Z</time></trkpt><trkpt lat="46.081518" lon="11.2390161"><ele>690.0</ele><time>2026-04-26T10:53:49.041Z</time></trkpt><trkpt lat="46.0816588" lon="11.2389822"><ele>690.0</ele><time>2026-04-26T10:53:50.048Z</time></trkpt><trkpt lat="46.0817922" lon="11.2389298"><ele>687.75</ele><time>2026-04-26T10:53:51.042Z</time></trkpt><trkpt lat="46.0819158" lon="11.2388751"><ele>685.5</ele><time>2026-04-26T10:53:52.041Z</time></trkpt><trkpt lat="46.0820296" lon="11.2388325"><ele>683.25</ele><time>2026-04-26T10:53:53.051Z</time></trkpt><trkpt lat="46.0821446" lon="11.2387936"><ele>681.0</ele><time>2026-04-26T10:53:54.048Z</time></trkpt><trkpt lat="46.0822657" lon="11.2387498"><ele>681.0</ele><time>2026-04-26T10:53:55.064Z</time></trkpt><trkpt lat="46.0823875" lon="11.2386834"><ele>681.0</ele><time>2026-04-26T10:53:56.047Z</time></trkpt><trkpt lat="46.0825112" lon="11.2386169"><ele>681.0</ele><time>2026-04-26T10:53:57.04Z</time></trkpt><trkpt lat="46.0826351" lon="11.2385579"><ele>681.0</ele><time>2026-04-26T10:53:58.041Z</time></trkpt><trkpt lat="46.0827552" lon="11.2384962"><ele>689.5</ele><time>2026-04-26T10:53:59.045Z</time></trkpt><trkpt lat="46.0828698" lon="11.2384283"><ele>698.0</ele><time>2026-04-26T10:54:00.092Z</time></trkpt><trkpt lat="46.0829827" lon="11.2383622"><ele>706.5</ele><time>2026-04-26T10:54:01.046Z</time></trkpt><trkpt lat="46.0830954" lon="11.2383058"><ele>715.0</ele><time>2026-04-26T10:54:02.05Z</time></trkpt><trkpt lat="46.0832157" lon="11.238266"><ele>722.25</ele><time>2026-04-26T10:54:03.045Z</time></trkpt><trkpt lat="46.0833425" lon="11.2382419"><ele>729.5</ele><time>2026-04-26T10:54:04.039Z</time></trkpt><trkpt lat="46.0834772" lon="11.2382343"><ele>736.75</ele><time>2026-04-26T10:54:05.053Z</time></trkpt><trkpt lat="46.0836122" lon="11.2382512"><ele>744.0</ele><time>2026-04-26T10:54:06.055Z</time></trkpt><trkpt lat="46.0837394" lon="11.2382784"><ele>744.0</ele><time>2026-04-26T10:54:07.039Z</time></trkpt><trkpt lat="46.0838591" lon="11.2383033"><ele>744.0</ele><time>2026-04-26T10:54:08.042Z</time></trkpt><trkpt lat="46.0839648" lon="11.2383237"><ele>744.0</ele><time>2026-04-26T10:54:09.046Z</time></trkpt><trkpt lat="46.0840658" lon="11.2382912"><ele>744.0</ele><time>2026-04-26T10:54:10.055Z</time></trkpt><trkpt lat="46.0841561" lon="11.2381905"><ele>744.0</ele><time>2026-04-26T10:54:11.048Z</time></trkpt><trkpt lat="46.0842254" lon="11.2380738"><ele>740.6</ele><time>2026-04-26T10:54:12.042Z</time></trkpt><trkpt lat="46.0842837" lon="11.23794"><ele>737.2</ele><time>2026-04-26T10:54:13.039Z</time></trkpt><trkpt lat="46.0843218" lon="11.2377976"><ele>733.8000000000001</ele><time>2026-04-26T10:54:14.041Z</time></trkpt><trkpt lat="46.0843347" lon="11.2376535"><ele>730.4000000000001</ele><time>2026-04-26T10:54:15.05Z</time></trkpt><trkpt lat="46.0843439" lon="11.2375199"><ele>727.0</ele><time>2026-04-26T10:54:16.076Z</time></trkpt><trkpt lat="46.0843484" lon="11.2373907"><ele>724.6666666666667</ele><time>2026-04-26T10:54:17.045Z</time></trkpt><trkpt lat="46.0843347" lon="11.2372565"><ele>722.3333333333334</ele><time>2026-04-26T10:54:18.034Z</time></trkpt><trkpt lat="46.0843638" lon="11.2371384"><ele>720.0</ele><time>2026-04-26T10:54:19.056Z</time></trkpt><trkpt lat="46.0844068" lon="11.2370394"><ele>717.6666666666666</ele><time>2026-04-26T10:54:20.043Z</time></trkpt><trkpt lat="46.0844633" lon="11.2369727"><ele>715.3333333333333</ele><time>2026-04-26T10:54:21.048Z</time></trkpt><trkpt lat="46.0845426" lon="11.2369645"><ele>713.0</ele><time>2026-04-26T10:54:22.038Z</time></trkpt><trkpt lat="46.0846328" lon="11.2369967"><ele>713.0</ele><time>2026-04-26T10:54:23.038Z</time></trkpt><trkpt lat="46.0847163" lon="11.2370987"><ele>713.0</ele><time>2026-04-26T10:54:24.04Z</time></trkpt><trkpt lat="46.084785" lon="11.2372309"><ele>713.0</ele><time>2026-04-26T10:54:25.037Z</time></trkpt><trkpt lat="46.0848554" lon="11.2373588"><ele>713.0</ele><time>2026-04-26T10:54:26.039Z</time></trkpt><trkpt lat="46.0849306" lon="11.2374908"><ele>722.0</ele><time>2026-04-26T10:54:27.043Z</time></trkpt><trkpt lat="46.0850219" lon="11.2376049"><ele>731.0</ele><time>2026-04-26T10:54:28.047Z</time></trkpt><trkpt lat="46.0851129" lon="11.2377237"><ele>740.0</ele><time>2026-04-26T10:54:29.037Z</time></trkpt><trkpt lat="46.0852229" lon="11.2378096"><ele>749.0</ele><time>2026-04-26T10:54:30.059Z</time></trkpt><trkpt lat="46.0853393" lon="11.2378843"><ele>749.0</ele><time>2026-04-26T10:54:31.04Z</time></trkpt><trkpt lat="46.085455" lon="11.2379575"><ele>749.0</ele><time>2026-04-26T10:54:32.04Z</time></trkpt><trkpt lat="46.0855703" lon="11.23803"><ele>749.0</ele><time>2026-04-26T10:54:33.048Z</time></trkpt><trkpt lat="46.085683" lon="11.238108"><ele>749.0</ele><time>2026-04-26T10:54:34.048Z</time></trkpt><trkpt lat="46.0857951" lon="11.2381844"><ele>749.25</ele><time>2026-04-26T10:54:35.042Z</time></trkpt><trkpt lat="46.0859031" lon="11.2382583"><ele>749.5</ele><time>2026-04-26T10:54:36.048Z</time></trkpt><trkpt lat="46.0860076" lon="11.2383287"><ele>749.75</ele><time>2026-04-26T10:54:37.041Z</time></trkpt><trkpt lat="46.086113" lon="11.2383998"><ele>750.0</ele><time>2026-04-26T10:54:38.038Z</time></trkpt><trkpt lat="46.0862189" lon="11.2384785"><ele>750.0</ele><time>2026-04-26T10:54:39.055Z</time></trkpt><trkpt lat="46.0863281" lon="11.2385538"><ele>750.0</ele><time>2026-04-26T10:54:40.042Z</time></trkpt><trkpt lat="46.0864334" lon="11.2386267"><ele>750.0</ele><time>2026-04-26T10:54:41.044Z</time></trkpt><trkpt lat="46.0865399" lon="11.2386911"><ele>750.0</ele><time>2026-04-26T10:54:42.032Z</time></trkpt><trkpt lat="46.0866499" lon="11.2387513"><ele>757.75</ele><time>2026-04-26T10:54:43.038Z</time></trkpt><trkpt lat="46.0867721" lon="11.238778"><ele>765.5</ele><time>2026-04-26T10:54:44.04Z</time></trkpt><trkpt lat="46.086907" lon="11.2387347"><ele>773.25</ele><time>2026-04-26T10:54:45.076Z</time></trkpt><trkpt lat="46.0870495" lon="11.2386951"><ele>781.0</ele><time>2026-04-26T10:54:46.059Z</time></trkpt><trkpt lat="46.0871866" lon="11.2386748"><ele>781.0</ele><time>2026-04-26T10:54:47.04Z</time></trkpt><trkpt lat="46.0873204" lon="11.2386616"><ele>781.0</ele><time>2026-04-26T10:54:48.04Z</time></trkpt><trkpt lat="46.0874499" lon="11.2386265"><ele>781.0</ele><time>2026-04-26T10:54:49.043Z</time></trkpt><trkpt lat="46.087583" lon="11.2386473"><ele>781.0</ele><time>2026-04-26T10:54:50.042Z</time></trkpt><trkpt lat="46.0877074" lon="11.2386847"><ele>788.25</ele><time>2026-04-26T10:54:51.059Z</time></trkpt><trkpt lat="46.0878294" lon="11.2387195"><ele>795.5</ele><time>2026-04-26T10:54:52.05Z</time></trkpt><trkpt lat="46.0879481" lon="11.2387593"><ele>802.75</ele><time>2026-04-26T10:54:53.04Z</time></trkpt><trkpt lat="46.0880635" lon="11.238828"><ele>810.0</ele><time>2026-04-26T10:54:54.05Z</time></trkpt><trkpt lat="46.0881708" lon="11.2389383"><ele>802.25</ele><time>2026-04-26T10:54:55.038Z</time></trkpt><trkpt lat="46.0882968" lon="11.2390404"><ele>794.5</ele><time>2026-04-26T10:54:56.053Z</time></trkpt><trkpt lat="46.0884256" lon="11.2391454"><ele>786.75</ele><time>2026-04-26T10:54:57.042Z</time></trkpt><trkpt lat="46.0885429" lon="11.2392686"><ele>779.0</ele><time>2026-04-26T10:54:58.052Z</time></trkpt><trkpt lat="46.0886632" lon="11.2393754"><ele>779.0</ele><time>2026-04-26T10:54:59.047Z</time></trkpt><trkpt lat="46.0887756" lon="11.2394915"><ele>779.0</ele><time>2026-04-26T10:55:00.087Z</time></trkpt><trkpt lat="46.0888844" lon="11.2396233"><ele>779.0</ele><time>2026-04-26T10:55:01.036Z</time></trkpt><trkpt lat="46.0890039" lon="11.239734"><ele>779.0</ele><time>2026-04-26T10:55:02.04Z</time></trkpt><trkpt lat="46.0891179" lon="11.2398552"><ele>780.0</ele><time>2026-04-26T10:55:03.036Z</time></trkpt><trkpt lat="46.0892259" lon="11.2399799"><ele>781.0</ele><time>2026-04-26T10:55:04.055Z</time></trkpt><trkpt lat="46.0893324" lon="11.2401018"><ele>782.0</ele><time>2026-04-26T10:55:05.077Z</time></trkpt><trkpt lat="46.0894409" lon="11.2402191"><ele>783.0</ele><time>2026-04-26T10:55:06.051Z</time></trkpt><trkpt lat="46.0895507" lon="11.240334"><ele>783.0</ele><time>2026-04-26T10:55:07.035Z</time></trkpt><trkpt lat="46.0896684" lon="11.2404321"><ele>783.0</ele><time>2026-04-26T10:55:08.044Z</time></trkpt><trkpt lat="46.0898027" lon="11.2404852"><ele>783.0</ele><time>2026-04-26T10:55:09.042Z</time></trkpt><trkpt lat="46.0899245" lon="11.240556"><ele>783.0</ele><time>2026-04-26T10:55:10.045Z</time></trkpt><trkpt lat="46.0900665" lon="11.2405268"><ele>794.3333333333333</ele><time>2026-04-26T10:55:11.048Z</time></trkpt><trkpt lat="46.0902423" lon="11.2404338"><ele>805.6666666666666</ele><time>2026-04-26T10:55:12.039Z</time></trkpt><trkpt lat="46.0903753" lon="11.2403643"><ele>817.0</ele><time>2026-04-26T10:55:13.048Z</time></trkpt><trkpt lat="46.0904871" lon="11.2402492"><ele>817.0</ele><time>2026-04-26T10:55:14.049Z</time></trkpt><trkpt lat="46.09058" lon="11.2401406"><ele>817.0</ele><time>2026-04-26T10:55:15.038Z</time></trkpt><trkpt lat="46.0906536" lon="11.2399948"><ele>817.0</ele><time>2026-04-26T10:55:16.04Z</time></trkpt><trkpt lat="46.0907334" lon="11.2398374"><ele>817.0</ele><time>2026-04-26T10:55:17.042Z</time></trkpt><trkpt lat="46.0908416" lon="11.2397072"><ele>820.0</ele><time>2026-04-26T10:55:18.053Z</time></trkpt><trkpt lat="46.0909605" lon="11.2395892"><ele>823.0</ele><time>2026-04-26T10:55:19.041Z</time></trkpt><trkpt lat="46.0910962" lon="11.2394898"><ele>826.0</ele><time>2026-04-26T10:55:20.046Z</time></trkpt><trkpt lat="46.0912306" lon="11.2393817"><ele>826.0</ele><time>2026-04-26T10:55:21.044Z</time></trkpt><trkpt lat="46.0913548" lon="11.2392565"><ele>826.0</ele><time>2026-04-26T10:55:22.05Z</time></trkpt><trkpt lat="46.0914784" lon="11.2391244"><ele>826.0</ele><time>2026-04-26T10:55:23.038Z</time></trkpt><trkpt lat="46.0916021" lon="11.238987"><ele>832.3333333333333</ele><time>2026-04-26T10:55:24.035Z</time></trkpt><trkpt lat="46.0917247" lon="11.2388389"><ele>838.6666666666667</ele><time>2026-04-26T10:55:25.04Z</time></trkpt><trkpt lat="46.0918372" lon="11.2386917"><ele>845.0</ele><time>2026-04-26T10:55:26.046Z</time></trkpt><trkpt lat="46.0919511" lon="11.2385654"><ele>845.0</ele><time>2026-04-26T10:55:27.044Z</time></trkpt><trkpt lat="46.0920728" lon="11.2384556"><ele>845.0</ele><time>2026-04-26T10:55:28.039Z</time></trkpt><trkpt lat="46.092206" lon="11.2383676"><ele>845.0</ele><time>2026-04-26T10:55:29.039Z</time></trkpt><trkpt lat="46.0923369" lon="11.2382742"><ele>845.0</ele><time>2026-04-26T10:55:30.041Z</time></trkpt><trkpt lat="46.0924537" lon="11.2381537"><ele>851.75</ele><time>2026-04-26T10:55:31.041Z</time></trkpt><trkpt lat="46.0925762" lon="11.2380598"><ele>858.5</ele><time>2026-04-26T10:55:32.042Z</time></trkpt><trkpt lat="46.0926959" lon="11.2379615"><ele>865.25</ele><time>2026-04-26T10:55:33.044Z</time></trkpt><trkpt lat="46.0928113" lon="11.2378501"><ele>872.0</ele><time>2026-04-26T10:55:34.045Z</time></trkpt><trkpt lat="46.0929244" lon="11.2377362"><ele>872.0</ele><time>2026-04-26T10:55:35.042Z</time></trkpt><trkpt lat="46.0930366" lon="11.2376263"><ele>872.0</ele><time>2026-04-26T10:55:36.04Z</time></trkpt><trkpt lat="46.0931413" lon="11.2375212"><ele>872.0</ele><time>2026-04-26T10:55:37.059Z</time></trkpt><trkpt lat="46.0932543" lon="11.2374577"><ele>872.0</ele><time>2026-04-26T10:55:38.057Z</time></trkpt><trkpt lat="46.0933665" lon="11.2373851"><ele>874.5</ele><time>2026-04-26T10:55:39.046Z</time></trkpt><trkpt lat="46.0934883" lon="11.2373423"><ele>877.0</ele><time>2026-04-26T10:55:40.037Z</time></trkpt><trkpt lat="46.0936066" lon="11.2372945"><ele>879.5</ele><time>2026-04-26T10:55:41.048Z</time></trkpt><trkpt lat="46.0937187" lon="11.237231"><ele>882.0</ele><time>2026-04-26T10:55:42.051Z</time></trkpt><trkpt lat="46.0938329" lon="11.2371663"><ele>882.0</ele><time>2026-04-26T10:55:43.046Z</time></trkpt><trkpt lat="46.093945" lon="11.2370947"><ele>882.0</ele><time>2026-04-26T10:55:44.049Z</time></trkpt><trkpt lat="46.0940464" lon="11.2370021"><ele>882.0</ele><time>2026-04-26T10:55:45.041Z</time></trkpt><trkpt lat="46.094144" lon="11.2369552"><ele>882.0</ele><time>2026-04-26T10:55:46.046Z</time></trkpt><trkpt lat="46.0942283" lon="11.236889"><ele>882.0</ele><time>2026-04-26T10:55:47.045Z</time></trkpt><trkpt lat="46.0943101" lon="11.2368401"><ele>880.0</ele><time>2026-04-26T10:55:48.035Z</time></trkpt><trkpt lat="46.0944012" lon="11.2368128"><ele>878.0</ele><time>2026-04-26T10:55:49.039Z</time></trkpt><trkpt lat="46.0944945" lon="11.2367625"><ele>876.0</ele><time>2026-04-26T10:55:50.035Z</time></trkpt><trkpt lat="46.0945943" lon="11.2367173"><ele>874.0</ele><time>2026-04-26T10:55:51.038Z</time></trkpt><trkpt lat="46.0946967" lon="11.2366722"><ele>872.0</ele><time>2026-04-26T10:55:52.04Z</time></trkpt><trkpt lat="46.0948053" lon="11.2366365"><ele>872.0</ele><time>2026-04-26T10:55:53.049Z</time></trkpt><trkpt lat="46.0949141" lon="11.2366122"><ele>872.0</ele><time>2026-04-26T10:55:54.042Z</time></trkpt><trkpt lat="46.0950216" lon="11.2365726"><ele>872.0</ele><time>2026-04-26T10:55:55.051Z</time></trkpt><trkpt lat="46.0951366" lon="11.2365594"><ele>872.0</ele><time>2026-04-26T10:55:56.038Z</time></trkpt><trkpt lat="46.0952541" lon="11.2365398"><ele>867.75</ele><time>2026-04-26T10:55:57.042Z</time></trkpt><trkpt lat="46.0953762" lon="11.2365463"><ele>863.5</ele><time>2026-04-26T10:55:58.045Z</time></trkpt><trkpt lat="46.095504" lon="11.2365649"><ele>859.25</ele><time>2026-04-26T10:55:59.053Z</time></trkpt><trkpt lat="46.0956317" lon="11.2366008"><ele>855.0</ele><time>2026-04-26T10:56:00.072Z</time></trkpt><trkpt lat="46.0957541" lon="11.2366212"><ele>854.75</ele><time>2026-04-26T10:56:01.041Z</time></trkpt><trkpt lat="46.0958682" lon="11.236634"><ele>854.5</ele><time>2026-04-26T10:56:02.041Z</time></trkpt><trkpt lat="46.0959803" lon="11.2366314"><ele>854.25</ele><time>2026-04-26T10:56:03.045Z</time></trkpt><trkpt lat="46.0960934" lon="11.2366421"><ele>854.0</ele><time>2026-04-26T10:56:04.04Z</time></trkpt><trkpt lat="46.0962078" lon="11.236658"><ele>854.0</ele><time>2026-04-26T10:56:05.045Z</time></trkpt><trkpt lat="46.0963242" lon="11.2366727"><ele>854.0</ele><time>2026-04-26T10:56:06.041Z</time></trkpt><trkpt lat="46.0964425" lon="11.2366924"><ele>854.0</ele><time>2026-04-26T10:56:07.038Z</time></trkpt><trkpt lat="46.0965659" lon="11.2367138"><ele>854.0</ele><time>2026-04-26T10:56:08.047Z</time></trkpt><trkpt lat="46.0966928" lon="11.2367306"><ele>856.0</ele><time>2026-04-26T10:56:09.039Z</time></trkpt><trkpt lat="46.0968232" lon="11.2367426"><ele>858.0</ele><time>2026-04-26T10:56:10.041Z</time></trkpt><trkpt lat="46.0969529" lon="11.2367556"><ele>860.0</ele><time>2026-04-26T10:56:11.057Z</time></trkpt><trkpt lat="46.0970776" lon="11.2367719"><ele>862.0</ele><time>2026-04-26T10:56:12.048Z</time></trkpt><trkpt lat="46.0971965" lon="11.2368042"><ele>862.0</ele><time>2026-04-26T10:56:13.047Z</time></trkpt><trkpt lat="46.0973146" lon="11.2368613"><ele>862.0</ele><time>2026-04-26T10:56:14.042Z</time></trkpt><trkpt lat="46.0974324" lon="11.2369534"><ele>862.0</ele><time>2026-04-26T10:56:15.058Z</time></trkpt><trkpt lat="46.0975471" lon="11.2370823"><ele>862.0</ele><time>2026-04-26T10:56:16.041Z</time></trkpt><trkpt lat="46.0976653" lon="11.2372132"><ele>860.75</ele><time>2026-04-26T10:56:17.045Z</time></trkpt><trkpt lat="46.0977846" lon="11.2373382"><ele>859.5</ele><time>2026-04-26T10:56:18.039Z</time></trkpt><trkpt lat="46.0979123" lon="11.2374443"><ele>858.25</ele><time>2026-04-26T10:56:19.043Z</time></trkpt><trkpt lat="46.098048" lon="11.2375242"><ele>857.0</ele><time>2026-04-26T10:56:20.054Z</time></trkpt><trkpt lat="46.0981958" lon="11.23757"><ele>860.5</ele><time>2026-04-26T10:56:21.049Z</time></trkpt><trkpt lat="46.0983481" lon="11.2375791"><ele>864.0</ele><time>2026-04-26T10:56:22.048Z</time></trkpt><trkpt lat="46.0984961" lon="11.2375825"><ele>867.5</ele><time>2026-04-26T10:56:23.058Z</time></trkpt><trkpt lat="46.0986414" lon="11.237554"><ele>871.0</ele><time>2026-04-26T10:56:24.065Z</time></trkpt><trkpt lat="46.098788" lon="11.2375297"><ele>871.0</ele><time>2026-04-26T10:56:25.056Z</time></trkpt><trkpt lat="46.098931" lon="11.2374739"><ele>871.0</ele><time>2026-04-26T10:56:26.037Z</time></trkpt><trkpt lat="46.0990691" lon="11.2374007"><ele>871.0</ele><time>2026-04-26T10:56:27.04Z</time></trkpt><trkpt lat="46.0992043" lon="11.2373275"><ele>871.0</ele><time>2026-04-26T10:56:28.04Z</time></trkpt><trkpt lat="46.0993387" lon="11.2372648"><ele>874.5</ele><time>2026-04-26T10:56:29.05Z</time></trkpt><trkpt lat="46.099473" lon="11.2372057"><ele>878.0</ele><time>2026-04-26T10:56:30.058Z</time></trkpt><trkpt lat="46.0996068" lon="11.2371448"><ele>881.5</ele><time>2026-04-26T10:56:31.043Z</time></trkpt><trkpt lat="46.0997361" lon="11.2370761"><ele>885.0</ele><time>2026-04-26T10:56:32.041Z</time></trkpt><trkpt lat="46.0998597" lon="11.2370141"><ele>885.25</ele><time>2026-04-26T10:56:33.047Z</time></trkpt><trkpt lat="46.0999762" lon="11.2369619"><ele>885.5</ele><time>2026-04-26T10:56:34.039Z</time></trkpt><trkpt lat="46.1000874" lon="11.236913"><ele>885.75</ele><time>2026-04-26T10:56:35.054Z</time></trkpt><trkpt lat="46.1002035" lon="11.2368696"><ele>886.0</ele><time>2026-04-26T10:56:36.053Z</time></trkpt><trkpt lat="46.1003287" lon="11.2368445"><ele>886.0</ele><time>2026-04-26T10:56:37.05Z</time></trkpt><trkpt lat="46.1004555" lon="11.2368291"><ele>886.0</ele><time>2026-04-26T10:56:38.064Z</time></trkpt><trkpt lat="46.1005821" lon="11.2368148"><ele>886.0</ele><time>2026-04-26T10:56:39.052Z</time></trkpt><trkpt lat="46.1007118" lon="11.2367959"><ele>886.0</ele><time>2026-04-26T10:56:40.043Z</time></trkpt><trkpt lat="46.1008453" lon="11.2367671"><ele>888.25</ele><time>2026-04-26T10:56:41.037Z</time></trkpt><trkpt lat="46.1009813" lon="11.2367142"><ele>890.5</ele><time>2026-04-26T10:56:42.04Z</time></trkpt><trkpt lat="46.1011206" lon="11.2366509"><ele>892.75</ele><time>2026-04-26T10:56:43.042Z</time></trkpt><trkpt lat="46.1012625" lon="11.236589"><ele>895.0</ele><time>2026-04-26T10:56:44.05Z</time></trkpt><trkpt lat="46.1014051" lon="11.2365293"><ele>895.0</ele><time>2026-04-26T10:56:45.047Z</time></trkpt><trkpt lat="46.1015512" lon="11.2364724"><ele>895.0</ele><time>2026-04-26T10:56:46.071Z</time></trkpt><trkpt lat="46.1017011" lon="11.2364218"><ele>895.0</ele><time>2026-04-26T10:56:47.059Z</time></trkpt><trkpt lat="46.1018548" lon="11.2363793"><ele>901.6666666666666</ele><time>2026-04-26T10:56:48.047Z</time></trkpt><trkpt lat="46.1020099" lon="11.2363538"><ele>908.3333333333333</ele><time>2026-04-26T10:56:49.04Z</time></trkpt><trkpt lat="46.1021621" lon="11.2363449"><ele>915.0</ele><time>2026-04-26T10:56:50.041Z</time></trkpt><trkpt lat="46.102312" lon="11.2363542"><ele>913.25</ele><time>2026-04-26T10:56:51.042Z</time></trkpt><trkpt lat="46.1024592" lon="11.2363657"><ele>911.5</ele><time>2026-04-26T10:56:52.066Z</time></trkpt><trkpt lat="46.1025951" lon="11.2364095"><ele>909.75</ele><time>2026-04-26T10:56:53.046Z</time></trkpt><trkpt lat="46.1027172" lon="11.236467"><ele>908.0</ele><time>2026-04-26T10:56:54.039Z</time></trkpt><trkpt lat="46.1028414" lon="11.2365213"><ele>908.0</ele><time>2026-04-26T10:56:55.049Z</time></trkpt><trkpt lat="46.1029564" lon="11.236576"><ele>908.0</ele><time>2026-04-26T10:56:56.046Z</time></trkpt><trkpt lat="46.1030758" lon="11.2365992"><ele>908.0</ele><time>2026-04-26T10:56:57.043Z</time></trkpt><trkpt lat="46.1031992" lon="11.236621"><ele>908.0</ele><time>2026-04-26T10:56:58.032Z</time></trkpt><trkpt lat="46.1033197" lon="11.2365746"><ele>917.75</ele><time>2026-04-26T10:56:59.042Z</time></trkpt><trkpt lat="46.1034224" lon="11.236463"><ele>927.5</ele><time>2026-04-26T10:57:00.046Z</time></trkpt><trkpt lat="46.1035351" lon="11.2363897"><ele>937.25</ele><time>2026-04-26T10:57:01.047Z</time></trkpt><trkpt lat="46.1036674" lon="11.2363631"><ele>947.0</ele><time>2026-04-26T10:57:02.051Z</time></trkpt><trkpt lat="46.1038089" lon="11.2363551"><ele>947.0</ele><time>2026-04-26T10:57:03.043Z</time></trkpt><trkpt lat="46.103946" lon="11.23637"><ele>947.0</ele><time>2026-04-26T10:57:04.049Z</time></trkpt><trkpt lat="46.1040787" lon="11.2363998"><ele>947.0</ele><time>2026-04-26T10:57:05.047Z</time></trkpt><trkpt lat="46.1042067" lon="11.23643"><ele>947.0</ele><time>2026-04-26T10:57:06.047Z</time></trkpt><trkpt lat="46.1043341" lon="11.2364513"><ele>947.5</ele><time>2026-04-26T10:57:07.048Z</time></trkpt><trkpt lat="46.1044642" lon="11.2364696"><ele>948.0</ele><time>2026-04-26T10:57:08.047Z</time></trkpt><trkpt lat="46.1045938" lon="11.2364725"><ele>948.5</ele><time>2026-04-26T10:57:09.047Z</time></trkpt><trkpt lat="46.1047186" lon="11.2364601"><ele>949.0</ele><time>2026-04-26T10:57:10.046Z</time></trkpt><trkpt lat="46.1048285" lon="11.2364207"><ele>947.4000000000001</ele><time>2026-04-26T10:57:11.038Z</time></trkpt><trkpt lat="46.1049197" lon="11.2363384"><ele>945.8000000000001</ele><time>2026-04-26T10:57:12.047Z</time></trkpt><trkpt lat="46.1050081" lon="11.2362957"><ele>944.1999999999999</ele><time>2026-04-26T10:57:13.048Z</time></trkpt><trkpt lat="46.105093" lon="11.2362422"><ele>942.5999999999999</ele><time>2026-04-26T10:57:14.044Z</time></trkpt><trkpt lat="46.1051842" lon="11.2362231"><ele>941.0</ele><time>2026-04-26T10:57:15.05Z</time></trkpt><trkpt lat="46.1052734" lon="11.2361623"><ele>941.0</ele><time>2026-04-26T10:57:16.039Z</time></trkpt><trkpt lat="46.1053618" lon="11.2361845"><ele>941.0</ele><time>2026-04-26T10:57:17.041Z</time></trkpt><trkpt lat="46.1054315" lon="11.2363057"><ele>941.0</ele><time>2026-04-26T10:57:18.04Z</time></trkpt><trkpt lat="46.1054889" lon="11.23649"><ele>941.0</ele><time>2026-04-26T10:57:19.039Z</time></trkpt><trkpt lat="46.1055534" lon="11.2366787"><ele>941.4</ele><time>2026-04-26T10:57:20.043Z</time></trkpt><trkpt lat="46.1056331" lon="11.236797"><ele>941.8</ele><time>2026-04-26T10:57:21.063Z</time></trkpt><trkpt lat="46.1057078" lon="11.2369024"><ele>942.1999999999999</ele><time>2026-04-26T10:57:22.036Z</time></trkpt><trkpt lat="46.1057992" lon="11.2369464"><ele>942.5999999999999</ele><time>2026-04-26T10:57:23.037Z</time></trkpt><trkpt lat="46.1058974" lon="11.2369929"><ele>943.0</ele><time>2026-04-26T10:57:24.037Z</time></trkpt><trkpt lat="46.1060127" lon="11.2369633"><ele>943.0</ele><time>2026-04-26T10:57:25.041Z</time></trkpt><trkpt lat="46.1061293" lon="11.2369097"><ele>943.0</ele><time>2026-04-26T10:57:26.034Z</time></trkpt><trkpt lat="46.1062431" lon="11.2368417"><ele>943.0</ele><time>2026-04-26T10:57:27.034Z</time></trkpt><trkpt lat="46.1063536" lon="11.2367892"><ele>943.0</ele><time>2026-04-26T10:57:28.043Z</time></trkpt><trkpt lat="46.1064667" lon="11.2367595"><ele>943.0</ele><time>2026-04-26T10:57:29.046Z</time></trkpt><trkpt lat="46.1065728" lon="11.2366755"><ele>943.0</ele><time>2026-04-26T10:57:30.034Z</time></trkpt><trkpt lat="46.1066719" lon="11.2366134"><ele>943.0</ele><time>2026-04-26T10:57:31.043Z</time></trkpt><trkpt lat="46.106764" lon="11.2365557"><ele>943.0</ele><time>2026-04-26T10:57:32.06Z</time></trkpt><trkpt lat="46.106847" lon="11.2365022"><ele>943.0</ele><time>2026-04-26T10:57:33.049Z</time></trkpt><trkpt lat="46.1069238" lon="11.2364511"><ele>943.0</ele><time>2026-04-26T10:57:34.04Z</time></trkpt><trkpt lat="46.1070014" lon="11.23639"><ele>943.0</ele><time>2026-04-26T10:57:35.05Z</time></trkpt><trkpt lat="46.1071089" lon="11.2363981"><ele>943.0</ele><time>2026-04-26T10:57:36.035Z</time></trkpt><trkpt lat="46.107203" lon="11.2363345"><ele>943.0</ele><time>2026-04-26T10:57:37.044Z</time></trkpt><trkpt lat="46.1073077" lon="11.2362771"><ele>943.0</ele><time>2026-04-26T10:57:38.033Z</time></trkpt><trkpt lat="46.1074045" lon="11.2362097"><ele>943.8</ele><time>2026-04-26T10:57:39.047Z</time></trkpt><trkpt lat="46.1074941" lon="11.2361151"><ele>944.5999999999999</ele><time>2026-04-26T10:57:40.043Z</time></trkpt><trkpt lat="46.1075915" lon="11.2360285"><ele>945.4000000000001</ele><time>2026-04-26T10:57:41.038Z</time></trkpt><trkpt lat="46.1076708" lon="11.2359173"><ele>946.2</ele><time>2026-04-26T10:57:42.039Z</time></trkpt><trkpt lat="46.1077434" lon="11.2358009"><ele>947.0</ele><time>2026-04-26T10:57:43.038Z</time></trkpt><trkpt lat="46.1077978" lon="11.2356717"><ele>945.4000000000001</ele><time>2026-04-26T10:57:44.043Z</time></trkpt><trkpt lat="46.1078413" lon="11.2355381"><ele>943.8000000000001</ele><time>2026-04-26T10:57:45.052Z</time></trkpt><trkpt lat="46.1078781" lon="11.2354038"><ele>942.2</ele><time>2026-04-26T10:57:46.043Z</time></trkpt><trkpt lat="46.1079178" lon="11.235278"><ele>940.6</ele><time>2026-04-26T10:57:47.042Z</time></trkpt><trkpt lat="46.1079662" lon="11.2351597"><ele>939.0</ele><time>2026-04-26T10:57:48.04Z</time></trkpt><trkpt lat="46.1080061" lon="11.2350353"><ele>939.0</ele><time>2026-04-26T10:57:49.032Z</time></trkpt><trkpt lat="46.1080458" lon="11.2349073"><ele>939.0000000000001</ele><time>2026-04-26T10:57:50.048Z</time></trkpt><trkpt lat="46.108098" lon="11.2347807"><ele>939.0000000000001</ele><time>2026-04-26T10:57:51.058Z</time></trkpt><trkpt lat="46.1081694" lon="11.2346707"><ele>939.0</ele><time>2026-04-26T10:57:52.04Z</time></trkpt><trkpt lat="46.1082461" lon="11.2345594"><ele>939.0</ele><time>2026-04-26T10:57:53.041Z</time></trkpt><trkpt lat="46.1083433" lon="11.2344688"><ele>942.0</ele><time>2026-04-26T10:57:54.054Z</time></trkpt><trkpt lat="46.1084487" lon="11.2343724"><ele>945.0</ele><time>2026-04-26T10:57:55.039Z</time></trkpt><trkpt lat="46.1085568" lon="11.2342747"><ele>948.0</ele><time>2026-04-26T10:57:56.048Z</time></trkpt><trkpt lat="46.1086669" lon="11.2341771"><ele>951.0</ele><time>2026-04-26T10:57:57.045Z</time></trkpt><trkpt lat="46.1087818" lon="11.2340793"><ele>952.25</ele><time>2026-04-26T10:57:58.055Z</time></trkpt><trkpt lat="46.1088937" lon="11.2339708"><ele>953.5</ele><time>2026-04-26T10:57:59.042Z</time></trkpt><trkpt lat="46.1090088" lon="11.2338643"><ele>954.75</ele><time>2026-04-26T10:58:00.057Z</time></trkpt><trkpt lat="46.1091262" lon="11.2337573"><ele>956.0</ele><time>2026-04-26T10:58:01.037Z</time></trkpt><trkpt lat="46.1092459" lon="11.2336521"><ele>956.0</ele><time>2026-04-26T10:58:02.043Z</time></trkpt><trkpt lat="46.1093618" lon="11.2335317"><ele>956.0</ele><time>2026-04-26T10:58:03.055Z</time></trkpt><trkpt lat="46.1094945" lon="11.2334544"><ele>956.0</ele><time>2026-04-26T10:58:04.043Z</time></trkpt><trkpt lat="46.1096284" lon="11.2333753"><ele>956.0</ele><time>2026-04-26T10:58:05.045Z</time></trkpt><trkpt lat="46.1097715" lon="11.2333202"><ele>957.25</ele><time>2026-04-26T10:58:06.038Z</time></trkpt><trkpt lat="46.1099115" lon="11.2332616"><ele>958.5</ele><time>2026-04-26T10:58:07.048Z</time></trkpt><trkpt lat="46.1100555" lon="11.2332094"><ele>959.75</ele><time>2026-04-26T10:58:08.06Z</time></trkpt><trkpt lat="46.1102091" lon="11.2332104"><ele>961.0</ele><time>2026-04-26T10:58:09.039Z</time></trkpt><trkpt lat="46.1103623" lon="11.2332354"><ele>961.0</ele><time>2026-04-26T10:58:10.039Z</time></trkpt><trkpt lat="46.1105146" lon="11.2333029"><ele>961.0</ele><time>2026-04-26T10:58:11.04Z</time></trkpt><trkpt lat="46.1106575" lon="11.2333914"><ele>961.0</ele><time>2026-04-26T10:58:12.043Z</time></trkpt><trkpt lat="46.1107962" lon="11.2335096"><ele>961.6666666666666</ele><time>2026-04-26T10:58:13.045Z</time></trkpt><trkpt lat="46.1109361" lon="11.2336295"><ele>962.3333333333333</ele><time>2026-04-26T10:58:14.045Z</time></trkpt><trkpt lat="46.1110751" lon="11.2337351"><ele>963.0</ele><time>2026-04-26T10:58:15.046Z</time></trkpt><trkpt lat="46.1112147" lon="11.2338372"><ele>963.0</ele><time>2026-04-26T10:58:16.041Z</time></trkpt><trkpt lat="46.1113534" lon="11.233939"><ele>963.0</ele><time>2026-04-26T10:58:17.046Z</time></trkpt><trkpt lat="46.1114914" lon="11.2340347"><ele>963.0</ele><time>2026-04-26T10:58:18.04Z</time></trkpt><trkpt lat="46.111629" lon="11.2341417"><ele>962.6666666666667</ele><time>2026-04-26T10:58:19.055Z</time></trkpt><trkpt lat="46.111763" lon="11.2342419"><ele>962.3333333333334</ele><time>2026-04-26T10:58:20.042Z</time></trkpt><trkpt lat="46.1119022" lon="11.2343351"><ele>962.0</ele><time>2026-04-26T10:58:21.05Z</time></trkpt><trkpt lat="46.1120377" lon="11.2344341"><ele>962.0</ele><time>2026-04-26T10:58:22.039Z</time></trkpt><trkpt lat="46.1121726" lon="11.2345312"><ele>962.0</ele><time>2026-04-26T10:58:23.054Z</time></trkpt><trkpt lat="46.112301" lon="11.2346329"><ele>962.0</ele><time>2026-04-26T10:58:24.039Z</time></trkpt><trkpt lat="46.1124279" lon="11.2347285"><ele>962.0</ele><time>2026-04-26T10:58:25.036Z</time></trkpt><trkpt lat="46.1125529" lon="11.2348341"><ele>965.0</ele><time>2026-04-26T10:58:26.04Z</time></trkpt><trkpt lat="46.1126745" lon="11.2349475"><ele>968.0</ele><time>2026-04-26T10:58:27.039Z</time></trkpt><trkpt lat="46.1127929" lon="11.2350612"><ele>971.0</ele><time>2026-04-26T10:58:28.045Z</time></trkpt><trkpt lat="46.1129102" lon="11.2351895"><ele>974.0</ele><time>2026-04-26T10:58:29.066Z</time></trkpt><trkpt lat="46.1130333" lon="11.2353162"><ele>974.0</ele><time>2026-04-26T10:58:30.054Z</time></trkpt><trkpt lat="46.1131603" lon="11.2354376"><ele>974.0</ele><time>2026-04-26T10:58:31.048Z</time></trkpt><trkpt lat="46.1132871" lon="11.2355661"><ele>974.0</ele><time>2026-04-26T10:58:32.058Z</time></trkpt><trkpt lat="46.1134193" lon="11.2356872"><ele>972.6666666666667</ele><time>2026-04-26T10:58:33.044Z</time></trkpt><trkpt lat="46.1135633" lon="11.2357977"><ele>971.3333333333333</ele><time>2026-04-26T10:58:34.042Z</time></trkpt><trkpt lat="46.1137237" lon="11.2358785"><ele>970.0</ele><time>2026-04-26T10:58:35.046Z</time></trkpt><trkpt lat="46.1138882" lon="11.235947"><ele>970.0</ele><time>2026-04-26T10:58:36.038Z</time></trkpt><trkpt lat="46.1140525" lon="11.2360115"><ele>970.0</ele><time>2026-04-26T10:58:37.038Z</time></trkpt><trkpt lat="46.1142138" lon="11.2360761"><ele>970.0</ele><time>2026-04-26T10:58:38.038Z</time></trkpt><trkpt lat="46.1143734" lon="11.2361368"><ele>966.0</ele><time>2026-04-26T10:58:39.036Z</time></trkpt><trkpt lat="46.1145276" lon="11.2362063"><ele>962.0</ele><time>2026-04-26T10:58:40.049Z</time></trkpt><trkpt lat="46.1146717" lon="11.2363094"><ele>958.0</ele><time>2026-04-26T10:58:41.039Z</time></trkpt><trkpt lat="46.1148205" lon="11.2363909"><ele>957.0</ele><time>2026-04-26T10:58:42.037Z</time></trkpt><trkpt lat="46.1149676" lon="11.2364474"><ele>956.0</ele><time>2026-04-26T10:58:43.039Z</time></trkpt><trkpt lat="46.115113" lon="11.2365153"><ele>955.0</ele><time>2026-04-26T10:58:44.038Z</time></trkpt><trkpt lat="46.1152606" lon="11.2365721"><ele>958.3333333333333</ele><time>2026-04-26T10:58:45.047Z</time></trkpt><trkpt lat="46.1154123" lon="11.2365912"><ele>961.6666666666667</ele><time>2026-04-26T10:58:46.034Z</time></trkpt><trkpt lat="46.1155674" lon="11.2366536"><ele>965.0</ele><time>2026-04-26T10:58:47.045Z</time></trkpt><trkpt lat="46.1157243" lon="11.2367171"><ele>963.3333333333334</ele><time>2026-04-26T10:58:48.036Z</time></trkpt><trkpt lat="46.1158844" lon="11.2367737"><ele>961.6666666666667</ele><time>2026-04-26T10:58:49.044Z</time></trkpt><trkpt lat="46.1160461" lon="11.2368295"><ele>960.0</ele><time>2026-04-26T10:58:50.035Z</time></trkpt><trkpt lat="46.1162067" lon="11.2368882"><ele>960.0</ele><time>2026-04-26T10:58:51.056Z</time></trkpt><trkpt lat="46.1163664" lon="11.2369452"><ele>960.0</ele><time>2026-04-26T10:58:52.049Z</time></trkpt><trkpt lat="46.1165238" lon="11.2370057"><ele>960.0</ele><time>2026-04-26T10:58:53.037Z</time></trkpt><trkpt lat="46.1166819" lon="11.2370658"><ele>958.3333333333333</ele><time>2026-04-26T10:58:54.038Z</time></trkpt><trkpt lat="46.1168408" lon="11.2371153"><ele>956.6666666666666</ele><time>2026-04-26T10:58:55.042Z</time></trkpt><trkpt lat="46.1169945" lon="11.2372062"><ele>955.0</ele><time>2026-04-26T10:58:56.028Z</time></trkpt><trkpt lat="46.1171476" lon="11.2372841"><ele>954.3333333333333</ele><time>2026-04-26T10:58:57.045Z</time></trkpt><trkpt lat="46.1173003" lon="11.2373535"><ele>953.6666666666667</ele><time>2026-04-26T10:58:58.046Z</time></trkpt><trkpt lat="46.117455" lon="11.2374168"><ele>953.0</ele><time>2026-04-26T10:58:59.041Z</time></trkpt><trkpt lat="46.117607" lon="11.2374993"><ele>953.0</ele><time>2026-04-26T10:59:00.039Z</time></trkpt><trkpt lat="46.1177601" lon="11.2375635"><ele>953.0</ele><time>2026-04-26T10:59:01.046Z</time></trkpt><trkpt lat="46.1179144" lon="11.2376301"><ele>953.0</ele><time>2026-04-26T10:59:02.042Z</time></trkpt><trkpt lat="46.1180708" lon="11.2376907"><ele>953.0</ele><time>2026-04-26T10:59:03.042Z</time></trkpt><trkpt lat="46.1182262" lon="11.237754"><ele>953.0</ele><time>2026-04-26T10:59:04.046Z</time></trkpt><trkpt lat="46.1183807" lon="11.2378218"><ele>953.0</ele><time>2026-04-26T10:59:05.053Z</time></trkpt><trkpt lat="46.1185331" lon="11.2378984"><ele>952.3333333333334</ele><time>2026-04-26T10:59:06.034Z</time></trkpt><trkpt lat="46.118682" lon="11.2379785"><ele>951.6666666666667</ele><time>2026-04-26T10:59:07.045Z</time></trkpt><trkpt lat="46.1188315" lon="11.2380573"><ele>951.0</ele><time>2026-04-26T10:59:08.046Z</time></trkpt><trkpt lat="46.1189812" lon="11.2381352"><ele>951.6666666666667</ele><time>2026-04-26T10:59:09.054Z</time></trkpt><trkpt lat="46.1191315" lon="11.2382112"><ele>952.3333333333334</ele><time>2026-04-26T10:59:10.043Z</time></trkpt><trkpt lat="46.1192825" lon="11.2382856"><ele>953.0</ele><time>2026-04-26T10:59:11.036Z</time></trkpt><trkpt lat="46.1194354" lon="11.2383564"><ele>953.0</ele><time>2026-04-26T10:59:12.04Z</time></trkpt><trkpt lat="46.1195877" lon="11.2384315"><ele>953.0</ele><time>2026-04-26T10:59:13.04Z</time></trkpt><trkpt lat="46.1197371" lon="11.2385172"><ele>953.0</ele><time>2026-04-26T10:59:14.044Z</time></trkpt><trkpt lat="46.1198893" lon="11.2385954"><ele>950.0</ele><time>2026-04-26T10:59:15.046Z</time></trkpt><trkpt lat="46.1200398" lon="11.2386764"><ele>947.0</ele><time>2026-04-26T10:59:16.055Z</time></trkpt><trkpt lat="46.120189" lon="11.2387573"><ele>944.0</ele><time>2026-04-26T10:59:17.047Z</time></trkpt><trkpt lat="46.1203409" lon="11.2388179"><ele>944.0</ele><time>2026-04-26T10:59:18.033Z</time></trkpt><trkpt lat="46.1204849" lon="11.2388907"><ele>944.0</ele><time>2026-04-26T10:59:19.056Z</time></trkpt><trkpt lat="46.1206248" lon="11.2389662"><ele>944.0</ele><time>2026-04-26T10:59:20.055Z</time></trkpt><trkpt lat="46.1207551" lon="11.2390697"><ele>946.25</ele><time>2026-04-26T10:59:21.039Z</time></trkpt><trkpt lat="46.1208857" lon="11.2391642"><ele>948.5</ele><time>2026-04-26T10:59:22.041Z</time></trkpt><trkpt lat="46.1210011" lon="11.2392986"><ele>950.75</ele><time>2026-04-26T10:59:23.049Z</time></trkpt><trkpt lat="46.121119" lon="11.239423"><ele>953.0</ele><time>2026-04-26T10:59:24.044Z</time></trkpt><trkpt lat="46.1212341" lon="11.2395504"><ele>953.0</ele><time>2026-04-26T10:59:25.04Z</time></trkpt><trkpt lat="46.1213523" lon="11.2396763"><ele>953.0</ele><time>2026-04-26T10:59:26.041Z</time></trkpt><trkpt lat="46.1214718" lon="11.2398013"><ele>953.0</ele><time>2026-04-26T10:59:27.037Z</time></trkpt><trkpt lat="46.1215871" lon="11.2399254"><ele>953.0</ele><time>2026-04-26T10:59:28.035Z</time></trkpt><trkpt lat="46.1217006" lon="11.2400446"><ele>952.0</ele><time>2026-04-26T10:59:29.041Z</time></trkpt><trkpt lat="46.1218141" lon="11.24016"><ele>951.0</ele><time>2026-04-26T10:59:30.057Z</time></trkpt><trkpt lat="46.1219241" lon="11.2402778"><ele>950.0</ele><time>2026-04-26T10:59:31.039Z</time></trkpt><trkpt lat="46.1220332" lon="11.2403923"><ele>949.0</ele><time>2026-04-26T10:59:32.048Z</time></trkpt><trkpt lat="46.1221416" lon="11.2405041"><ele>949.0</ele><time>2026-04-26T10:59:33.045Z</time></trkpt><trkpt lat="46.1222512" lon="11.2406138"><ele>949.0</ele><time>2026-04-26T10:59:34.048Z</time></trkpt><trkpt lat="46.1223637" lon="11.2407218"><ele>949.0</ele><time>2026-04-26T10:59:35.038Z</time></trkpt><trkpt lat="46.1224744" lon="11.2408328"><ele>949.0</ele><time>2026-04-26T10:59:36.059Z</time></trkpt><trkpt lat="46.1225876" lon="11.2409374"><ele>947.75</ele><time>2026-04-26T10:59:37.052Z</time></trkpt><trkpt lat="46.1226988" lon="11.241039"><ele>946.5</ele><time>2026-04-26T10:59:38.038Z</time></trkpt><trkpt lat="46.1228053" lon="11.2411342"><ele>945.25</ele><time>2026-04-26T10:59:39.045Z</time></trkpt><trkpt lat="46.1229061" lon="11.2412299"><ele>944.0</ele><time>2026-04-26T10:59:40.047Z</time></trkpt><trkpt lat="46.1230083" lon="11.2413212"><ele>944.0</ele><time>2026-04-26T10:59:41.042Z</time></trkpt><trkpt lat="46.1231081" lon="11.2414212"><ele>944.0</ele><time>2026-04-26T10:59:42.046Z</time></trkpt><trkpt lat="46.1232129" lon="11.2415198"><ele>944.0</ele><time>2026-04-26T10:59:43.065Z</time></trkpt><trkpt lat="46.1233185" lon="11.2416254"><ele>944.0</ele><time>2026-04-26T10:59:44.039Z</time></trkpt><trkpt lat="46.123427" lon="11.2417347"><ele>945.5</ele><time>2026-04-26T10:59:45.058Z</time></trkpt><trkpt lat="46.1235281" lon="11.2418588"><ele>947.0</ele><time>2026-04-26T10:59:46.041Z</time></trkpt><trkpt lat="46.1236323" lon="11.2419742"><ele>948.5</ele><time>2026-04-26T10:59:47.048Z</time></trkpt><trkpt lat="46.1237441" lon="11.2420706"><ele>950.0</ele><time>2026-04-26T10:59:48.048Z</time></trkpt><trkpt lat="46.1238556" lon="11.2421682"><ele>950.0</ele><time>2026-04-26T10:59:49.059Z</time></trkpt><trkpt lat="46.1239694" lon="11.2422711"><ele>950.0</ele><time>2026-04-26T10:59:50.045Z</time></trkpt><trkpt lat="46.1240856" lon="11.242385"><ele>950.0</ele><time>2026-04-26T10:59:51.044Z</time></trkpt><trkpt lat="46.1242046" lon="11.2425035"><ele>950.0</ele><time>2026-04-26T10:59:52.041Z</time></trkpt><trkpt lat="46.1243203" lon="11.2426222"><ele>951.25</ele><time>2026-04-26T10:59:53.05Z</time></trkpt><trkpt lat="46.1244309" lon="11.2427392"><ele>952.5</ele><time>2026-04-26T10:59:54.042Z</time></trkpt><trkpt lat="46.124542" lon="11.2428483"><ele>953.75</ele><time>2026-04-26T10:59:55.046Z</time></trkpt><trkpt lat="46.1246483" lon="11.242964"><ele>955.0</ele><time>2026-04-26T10:59:56.039Z</time></trkpt><trkpt lat="46.1247592" lon="11.2430704"><ele>956.5</ele><time>2026-04-26T10:59:57.053Z</time></trkpt><trkpt lat="46.1248728" lon="11.2431741"><ele>958.0</ele><time>2026-04-26T10:59:58.042Z</time></trkpt><trkpt lat="46.124992" lon="11.2432698"><ele>959.5</ele><time>2026-04-26T10:59:59.045Z</time></trkpt><trkpt lat="46.1251128" lon="11.24336"><ele>961.0</ele><time>2026-04-26T11:00:00.093Z</time></trkpt><trkpt lat="46.1252335" lon="11.2434454"><ele>961.0</ele><time>2026-04-26T11:00:01.047Z</time></trkpt><trkpt lat="46.12535" lon="11.243529"><ele>961.0</ele><time>2026-04-26T11:00:02.041Z</time></trkpt><trkpt lat="46.1254629" lon="11.2435997"><ele>961.0</ele><time>2026-04-26T11:00:03.057Z</time></trkpt><trkpt lat="46.1255732" lon="11.2436608"><ele>961.0</ele><time>2026-04-26T11:00:04.039Z</time></trkpt><trkpt lat="46.1256779" lon="11.2437252"><ele>960.8</ele><time>2026-04-26T11:00:05.049Z</time></trkpt><trkpt lat="46.1257781" lon="11.2437775"><ele>960.5999999999999</ele><time>2026-04-26T11:00:06.057Z</time></trkpt><trkpt lat="46.1258578" lon="11.2438226"><ele>960.4</ele><time>2026-04-26T11:00:07.075Z</time></trkpt><trkpt lat="46.1259184" lon="11.2438539"><ele>960.2</ele><time>2026-04-26T11:00:08.051Z</time></trkpt><trkpt lat="46.1260187" lon="11.2438959"><ele>960.0</ele><time>2026-04-26T11:00:10.048Z</time></trkpt><trkpt lat="46.1261428" lon="11.243946"><ele>959.8333333333334</ele><time>2026-04-26T11:00:12.04Z</time></trkpt><trkpt lat="46.1262154" lon="11.2439693"><ele>959.6666666666667</ele><time>2026-04-26T11:00:13.045Z</time></trkpt><trkpt lat="46.1262878" lon="11.2439956"><ele>959.5</ele><time>2026-04-26T11:00:14.046Z</time></trkpt><trkpt lat="46.1263618" lon="11.2440178"><ele>959.3333333333334</ele><time>2026-04-26T11:00:15.045Z</time></trkpt><trkpt lat="46.1264404" lon="11.2440351"><ele>959.1666666666667</ele><time>2026-04-26T11:00:16.039Z</time></trkpt><trkpt lat="46.1265232" lon="11.2440487"><ele>959.0</ele><time>2026-04-26T11:00:17.042Z</time></trkpt><trkpt lat="46.1266154" lon="11.2440662"><ele>959.0</ele><time>2026-04-26T11:00:18.052Z</time></trkpt><trkpt lat="46.1267141" lon="11.2440875"><ele>959.0000000000001</ele><time>2026-04-26T11:00:19.037Z</time></trkpt><trkpt lat="46.126816" lon="11.2441042"><ele>959.0000000000001</ele><time>2026-04-26T11:00:20.033Z</time></trkpt><trkpt lat="46.1269178" lon="11.2441207"><ele>959.0</ele><time>2026-04-26T11:00:21.044Z</time></trkpt><trkpt lat="46.1270211" lon="11.2441342"><ele>959.0</ele><time>2026-04-26T11:00:22.047Z</time></trkpt><trkpt lat="46.1271251" lon="11.2441586"><ele>959.0</ele><time>2026-04-26T11:00:23.044Z</time></trkpt><trkpt lat="46.1272349" lon="11.2441803"><ele>959.0</ele><time>2026-04-26T11:00:24.056Z</time></trkpt><trkpt lat="46.1273471" lon="11.2442057"><ele>959.0</ele><time>2026-04-26T11:00:25.043Z</time></trkpt><trkpt lat="46.1274603" lon="11.2442306"><ele>959.0</ele><time>2026-04-26T11:00:26.039Z</time></trkpt><trkpt lat="46.1275797" lon="11.2442518"><ele>958.0</ele><time>2026-04-26T11:00:27.052Z</time></trkpt><trkpt lat="46.1277051" lon="11.2442744"><ele>957.0</ele><time>2026-04-26T11:00:28.041Z</time></trkpt><trkpt lat="46.1278322" lon="11.2442972"><ele>956.0</ele><time>2026-04-26T11:00:29.064Z</time></trkpt><trkpt lat="46.1279563" lon="11.2443236"><ele>955.0</ele><time>2026-04-26T11:00:30.044Z</time></trkpt><trkpt lat="46.1280778" lon="11.2443462"><ele>955.0</ele><time>2026-04-26T11:00:31.045Z</time></trkpt><trkpt lat="46.1281959" lon="11.2443686"><ele>955.0</ele><time>2026-04-26T11:00:32.041Z</time></trkpt><trkpt lat="46.1283112" lon="11.2443877"><ele>955.0</ele><time>2026-04-26T11:00:33.053Z</time></trkpt><trkpt lat="46.1284225" lon="11.2444107"><ele>955.0</ele><time>2026-04-26T11:00:34.068Z</time></trkpt><trkpt lat="46.1285318" lon="11.2444287"><ele>955.0</ele><time>2026-04-26T11:00:35.048Z</time></trkpt><trkpt lat="46.1286396" lon="11.2444395"><ele>955.0</ele><time>2026-04-26T11:00:36.04Z</time></trkpt><trkpt lat="46.1287443" lon="11.2444607"><ele>955.0</ele><time>2026-04-26T11:00:37.038Z</time></trkpt><trkpt lat="46.1288505" lon="11.2444825"><ele>955.0</ele><time>2026-04-26T11:00:38.048Z</time></trkpt><trkpt lat="46.1289632" lon="11.2444945"><ele>955.0</ele><time>2026-04-26T11:00:39.043Z</time></trkpt><trkpt lat="46.1290755" lon="11.2445315"><ele>955.0</ele><time>2026-04-26T11:00:40.051Z</time></trkpt><trkpt lat="46.1291857" lon="11.2445514"><ele>955.0</ele><time>2026-04-26T11:00:41.04Z</time></trkpt><trkpt lat="46.1292854" lon="11.2445436"><ele>955.0</ele><time>2026-04-26T11:00:42.043Z</time></trkpt><trkpt lat="46.1293766" lon="11.2445329"><ele>955.0</ele><time>2026-04-26T11:00:43.051Z</time></trkpt><trkpt lat="46.1294577" lon="11.2445053"><ele>955.0</ele><time>2026-04-26T11:00:44.044Z</time></trkpt><trkpt lat="46.1295343" lon="11.2444792"><ele>954.9999999999999</ele><time>2026-04-26T11:00:45.047Z</time></trkpt><trkpt lat="46.1296108" lon="11.2444633"><ele>955.0</ele><time>2026-04-26T11:00:46.03Z</time></trkpt><trkpt lat="46.1296787" lon="11.2444438"><ele>955.0</ele><time>2026-04-26T11:00:47.047Z</time></trkpt><trkpt lat="46.1297767" lon="11.244405"><ele>955.0</ele><time>2026-04-26T11:00:49.109Z</time></trkpt><trkpt lat="46.1298575" lon="11.2444112"><ele>954.9999999999999</ele><time>2026-04-26T11:00:51.042Z</time></trkpt><trkpt lat="46.129945" lon="11.2444792"><ele>955.0</ele><time>2026-04-26T11:00:53.113Z</time></trkpt><trkpt lat="46.1300338" lon="11.2445984"><ele>955.2857142857142</ele><time>2026-04-26T11:00:55.038Z</time></trkpt><trkpt lat="46.130087" lon="11.2446578"><ele>955.5714285714286</ele><time>2026-04-26T11:00:56.054Z</time></trkpt><trkpt lat="46.1301459" lon="11.2447186"><ele>955.8571428571429</ele><time>2026-04-26T11:00:57.039Z</time></trkpt><trkpt lat="46.1302015" lon="11.2447769"><ele>956.1428571428571</ele><time>2026-04-26T11:00:58.049Z</time></trkpt><trkpt lat="46.1302638" lon="11.2448233"><ele>956.4285714285716</ele><time>2026-04-26T11:00:59.047Z</time></trkpt><trkpt lat="46.1303242" lon="11.2448686"><ele>956.7142857142858</ele><time>2026-04-26T11:01:00.074Z</time></trkpt><trkpt lat="46.1303829" lon="11.2449227"><ele>957.0</ele><time>2026-04-26T11:01:01.048Z</time></trkpt><trkpt lat="46.1304417" lon="11.2450051"><ele>957.0</ele><time>2026-04-26T11:01:02.039Z</time></trkpt><trkpt lat="46.1305059" lon="11.2450895"><ele>957.0</ele><time>2026-04-26T11:01:03.036Z</time></trkpt><trkpt lat="46.1305732" lon="11.2451694"><ele>957.0</ele><time>2026-04-26T11:01:04.038Z</time></trkpt><trkpt lat="46.1306376" lon="11.2452571"><ele>957.0</ele><time>2026-04-26T11:01:05.047Z</time></trkpt><trkpt lat="46.1307061" lon="11.2453353"><ele>957.0</ele><time>2026-04-26T11:01:06.05Z</time></trkpt><trkpt lat="46.1307801" lon="11.2454043"><ele>957.0</ele><time>2026-04-26T11:01:07.042Z</time></trkpt><trkpt lat="46.1308473" lon="11.2454843"><ele>956.6666666666666</ele><time>2026-04-26T11:01:08.046Z</time></trkpt><trkpt lat="46.1309071" lon="11.2455726"><ele>956.3333333333333</ele><time>2026-04-26T11:01:09.039Z</time></trkpt><trkpt lat="46.1309592" lon="11.2456702"><ele>956.0</ele><time>2026-04-26T11:01:10.052Z</time></trkpt><trkpt lat="46.1310055" lon="11.2457722"><ele>955.6666666666666</ele><time>2026-04-26T11:01:11.038Z</time></trkpt><trkpt lat="46.1310536" lon="11.2458669"><ele>955.3333333333333</ele><time>2026-04-26T11:01:12.038Z</time></trkpt><trkpt lat="46.1311041" lon="11.245964"><ele>955.0</ele><time>2026-04-26T11:01:13.04Z</time></trkpt><trkpt lat="46.1311598" lon="11.2460656"><ele>956.1666666666666</ele><time>2026-04-26T11:01:14.045Z</time></trkpt><trkpt lat="46.131218" lon="11.2461696"><ele>957.3333333333333</ele><time>2026-04-26T11:01:15.057Z</time></trkpt><trkpt lat="46.1312661" lon="11.2462729"><ele>958.5</ele><time>2026-04-26T11:01:16.051Z</time></trkpt><trkpt lat="46.1313144" lon="11.2463649"><ele>959.6666666666667</ele><time>2026-04-26T11:01:17.041Z</time></trkpt><trkpt lat="46.1313563" lon="11.2464565"><ele>960.8333333333334</ele><time>2026-04-26T11:01:18.038Z</time></trkpt><trkpt lat="46.1313973" lon="11.246539"><ele>962.0</ele><time>2026-04-26T11:01:19.044Z</time></trkpt><trkpt lat="46.1314442" lon="11.2466159"><ele>962.3333333333334</ele><time>2026-04-26T11:01:20.041Z</time></trkpt><trkpt lat="46.1315003" lon="11.2466848"><ele>962.6666666666667</ele><time>2026-04-26T11:01:21.045Z</time></trkpt><trkpt lat="46.1315696" lon="11.2467406"><ele>963.0</ele><time>2026-04-26T11:01:22.051Z</time></trkpt><trkpt lat="46.1316473" lon="11.246784"><ele>963.3333333333333</ele><time>2026-04-26T11:01:23.045Z</time></trkpt><trkpt lat="46.1317275" lon="11.2468321"><ele>963.6666666666666</ele><time>2026-04-26T11:01:24.044Z</time></trkpt><trkpt lat="46.1318122" lon="11.246881"><ele>964.0</ele><time>2026-04-26T11:01:25.043Z</time></trkpt><trkpt lat="46.1319009" lon="11.2469301"><ele>964.0</ele><time>2026-04-26T11:01:26.045Z</time></trkpt><trkpt lat="46.131989" lon="11.2469675"><ele>964.0000000000001</ele><time>2026-04-26T11:01:27.044Z</time></trkpt><trkpt lat="46.1320754" lon="11.2470068"><ele>964.0000000000001</ele><time>2026-04-26T11:01:28.046Z</time></trkpt><trkpt lat="46.132164" lon="11.247048"><ele>964.0</ele><time>2026-04-26T11:01:29.035Z</time></trkpt><trkpt lat="46.1322571" lon="11.2470951"><ele>964.0</ele><time>2026-04-26T11:01:30.052Z</time></trkpt><trkpt lat="46.1323518" lon="11.247151"><ele>963.4000000000001</ele><time>2026-04-26T11:01:31.045Z</time></trkpt><trkpt lat="46.1324425" lon="11.2472196"><ele>962.8000000000001</ele><time>2026-04-26T11:01:32.045Z</time></trkpt><trkpt lat="46.13253" lon="11.2472921"><ele>962.1999999999999</ele><time>2026-04-26T11:01:33.054Z</time></trkpt><trkpt lat="46.1326133" lon="11.2473718"><ele>961.5999999999999</ele><time>2026-04-26T11:01:34.044Z</time></trkpt><trkpt lat="46.1326947" lon="11.2474541"><ele>961.0</ele><time>2026-04-26T11:01:35.033Z</time></trkpt><trkpt lat="46.132777" lon="11.2475344"><ele>962.0</ele><time>2026-04-26T11:01:36.039Z</time></trkpt><trkpt lat="46.1328613" lon="11.2476116"><ele>962.9999999999999</ele><time>2026-04-26T11:01:37.031Z</time></trkpt><trkpt lat="46.1329462" lon="11.2476925"><ele>963.9999999999999</ele><time>2026-04-26T11:01:38.05Z</time></trkpt><trkpt lat="46.1330363" lon="11.2477642"><ele>965.0</ele><time>2026-04-26T11:01:39.053Z</time></trkpt><trkpt lat="46.1331317" lon="11.247829"><ele>966.0</ele><time>2026-04-26T11:01:40.053Z</time></trkpt><trkpt lat="46.1332234" lon="11.2479011"><ele>966.0</ele><time>2026-04-26T11:01:41.038Z</time></trkpt><trkpt lat="46.1333122" lon="11.2479779"><ele>965.9999999999999</ele><time>2026-04-26T11:01:42.041Z</time></trkpt><trkpt lat="46.1334044" lon="11.248045"><ele>965.9999999999999</ele><time>2026-04-26T11:01:43.038Z</time></trkpt><trkpt lat="46.1334861" lon="11.2481308"><ele>966.0</ele><time>2026-04-26T11:01:44.047Z</time></trkpt><trkpt lat="46.1335677" lon="11.2482096"><ele>966.0</ele><time>2026-04-26T11:01:45.049Z</time></trkpt><trkpt lat="46.1336541" lon="11.2482822"><ele>967.1999999999999</ele><time>2026-04-26T11:01:46.06Z</time></trkpt><trkpt lat="46.1337445" lon="11.2483539"><ele>968.3999999999999</ele><time>2026-04-26T11:01:47.058Z</time></trkpt><trkpt lat="46.1338405" lon="11.2484197"><ele>969.6</ele><time>2026-04-26T11:01:48.045Z</time></trkpt><trkpt lat="46.1339242" lon="11.248495"><ele>970.8</ele><time>2026-04-26T11:01:49.06Z</time></trkpt><trkpt lat="46.1340018" lon="11.2485699"><ele>972.0</ele><time>2026-04-26T11:01:50.058Z</time></trkpt><trkpt lat="46.1340845" lon="11.2486308"><ele>972.1666666666666</ele><time>2026-04-26T11:01:51.059Z</time></trkpt><trkpt lat="46.1341643" lon="11.2487007"><ele>972.3333333333333</ele><time>2026-04-26T11:01:52.049Z</time></trkpt><trkpt lat="46.1342273" lon="11.2487818"><ele>972.5</ele><time>2026-04-26T11:01:53.052Z</time></trkpt><trkpt lat="46.1342778" lon="11.2488521"><ele>972.6666666666666</ele><time>2026-04-26T11:01:54.039Z</time></trkpt><trkpt lat="46.1343488" lon="11.2489512"><ele>972.8333333333333</ele><time>2026-04-26T11:01:56.044Z</time></trkpt><trkpt lat="46.134397" lon="11.249023"><ele>973.0</ele><time>2026-04-26T11:01:58.042Z</time></trkpt><trkpt lat="46.1344529" lon="11.2491141"><ele>973.8</ele><time>2026-04-26T11:02:00.053Z</time></trkpt><trkpt lat="46.1345297" lon="11.2492128"><ele>974.5999999999999</ele><time>2026-04-26T11:02:02.041Z</time></trkpt><trkpt lat="46.134627" lon="11.2492981"><ele>975.4000000000001</ele><time>2026-04-26T11:02:04.039Z</time></trkpt><trkpt lat="46.1347261" lon="11.2494264"><ele>976.2</ele><time>2026-04-26T11:02:06.038Z</time></trkpt><trkpt lat="46.1347984" lon="11.249471"><ele>977.0</ele><time>2026-04-26T11:02:07.038Z</time></trkpt><trkpt lat="46.1348688" lon="11.2495157"><ele>976.857142857143</ele><time>2026-04-26T11:02:08.04Z</time></trkpt><trkpt lat="46.1349434" lon="11.2495464"><ele>976.7142857142858</ele><time>2026-04-26T11:02:09.057Z</time></trkpt><trkpt lat="46.135016" lon="11.2495792"><ele>976.5714285714286</ele><time>2026-04-26T11:02:10.037Z</time></trkpt><trkpt lat="46.1350851" lon="11.2496124"><ele>976.4285714285714</ele><time>2026-04-26T11:02:11.035Z</time></trkpt><trkpt lat="46.135148" lon="11.2496496"><ele>976.2857142857142</ele><time>2026-04-26T11:02:12.046Z</time></trkpt><trkpt lat="46.1352106" lon="11.2496837"><ele>976.142857142857</ele><time>2026-04-26T11:02:13.036Z</time></trkpt><trkpt lat="46.1352867" lon="11.2496773"><ele>975.9999999999999</ele><time>2026-04-26T11:02:14.039Z</time></trkpt><trkpt lat="46.1353631" lon="11.2496991"><ele>976.0</ele><time>2026-04-26T11:02:15.041Z</time></trkpt><trkpt lat="46.1354362" lon="11.249759"><ele>975.9999999999999</ele><time>2026-04-26T11:02:16.046Z</time></trkpt><trkpt lat="46.1355097" lon="11.249832"><ele>975.9999999999999</ele><time>2026-04-26T11:02:17.041Z</time></trkpt><trkpt lat="46.1355848" lon="11.2499019"><ele>976.0</ele><time>2026-04-26T11:02:18.039Z</time></trkpt><trkpt lat="46.1356598" lon="11.2499829"><ele>976.0</ele><time>2026-04-26T11:02:19.041Z</time></trkpt><trkpt lat="46.1357393" lon="11.2500537"><ele>975.8333333333333</ele><time>2026-04-26T11:02:20.059Z</time></trkpt><trkpt lat="46.1358165" lon="11.2501295"><ele>975.6666666666666</ele><time>2026-04-26T11:02:21.039Z</time></trkpt><trkpt lat="46.1358963" lon="11.2501886"><ele>975.5</ele><time>2026-04-26T11:02:22.044Z</time></trkpt><trkpt lat="46.1359673" lon="11.2502417"><ele>975.3333333333333</ele><time>2026-04-26T11:02:23.066Z</time></trkpt><trkpt lat="46.1360272" lon="11.2503074"><ele>975.1666666666666</ele><time>2026-04-26T11:02:24.038Z</time></trkpt><trkpt lat="46.1360786" lon="11.2503812"><ele>975.0</ele><time>2026-04-26T11:02:25.047Z</time></trkpt><trkpt lat="46.1361323" lon="11.2504579"><ele>975.0</ele><time>2026-04-26T11:02:26.047Z</time></trkpt><trkpt lat="46.1361824" lon="11.2505494"><ele>975.0</ele><time>2026-04-26T11:02:27.058Z</time></trkpt><trkpt lat="46.1362354" lon="11.2506401"><ele>975.0</ele><time>2026-04-26T11:02:28.05Z</time></trkpt><trkpt lat="46.1362945" lon="11.2507274"><ele>975.0</ele><time>2026-04-26T11:02:29.042Z</time></trkpt><trkpt lat="46.1363546" lon="11.2508116"><ele>975.0</ele><time>2026-04-26T11:02:30.036Z</time></trkpt><trkpt lat="46.1364151" lon="11.2508968"><ele>975.0</ele><time>2026-04-26T11:02:31.037Z</time></trkpt><trkpt lat="46.1364741" lon="11.2509847"><ele>975.2</ele><time>2026-04-26T11:02:32.054Z</time></trkpt><trkpt lat="46.1365313" lon="11.2510818"><ele>975.4</ele><time>2026-04-26T11:02:33.044Z</time></trkpt><trkpt lat="46.1365935" lon="11.2511835"><ele>975.5999999999999</ele><time>2026-04-26T11:02:34.044Z</time></trkpt><trkpt lat="46.1366635" lon="11.2512778"><ele>975.8</ele><time>2026-04-26T11:02:35.051Z</time></trkpt><trkpt lat="46.1367305" lon="11.2513776"><ele>976.0</ele><time>2026-04-26T11:02:36.047Z</time></trkpt><trkpt lat="46.1368054" lon="11.2514688"><ele>975.1999999999999</ele><time>2026-04-26T11:02:37.045Z</time></trkpt><trkpt lat="46.1368838" lon="11.2515577"><ele>974.3999999999999</ele><time>2026-04-26T11:02:38.042Z</time></trkpt><trkpt lat="46.1369641" lon="11.2516432"><ele>973.6</ele><time>2026-04-26T11:02:39.04Z</time></trkpt><trkpt lat="46.137046" lon="11.2517245"><ele>972.8</ele><time>2026-04-26T11:02:40.056Z</time></trkpt><trkpt lat="46.137128" lon="11.251813"><ele>972.0</ele><time>2026-04-26T11:02:41.04Z</time></trkpt><trkpt lat="46.1372124" lon="11.2519102"><ele>972.0</ele><time>2026-04-26T11:02:42.042Z</time></trkpt><trkpt lat="46.1372999" lon="11.2520098"><ele>972.0</ele><time>2026-04-26T11:02:43.065Z</time></trkpt><trkpt lat="46.1373891" lon="11.2521114"><ele>972.0</ele><time>2026-04-26T11:02:44.044Z</time></trkpt><trkpt lat="46.137481" lon="11.2522119"><ele>972.0</ele><time>2026-04-26T11:02:45.061Z</time></trkpt><trkpt lat="46.1375761" lon="11.2523077"><ele>973.0</ele><time>2026-04-26T11:02:46.038Z</time></trkpt><trkpt lat="46.1376688" lon="11.2524055"><ele>974.0</ele><time>2026-04-26T11:02:47.042Z</time></trkpt><trkpt lat="46.1377598" lon="11.2525"><ele>975.0</ele><time>2026-04-26T11:02:48.056Z</time></trkpt><trkpt lat="46.1378518" lon="11.2525897"><ele>976.0</ele><time>2026-04-26T11:02:49.044Z</time></trkpt><trkpt lat="46.1379437" lon="11.2526769"><ele>977.0</ele><time>2026-04-26T11:02:50.034Z</time></trkpt><trkpt lat="46.1380347" lon="11.2527726"><ele>977.0</ele><time>2026-04-26T11:02:51.038Z</time></trkpt><trkpt lat="46.1381302" lon="11.2528651"><ele>977.0</ele><time>2026-04-26T11:02:52.04Z</time></trkpt><trkpt lat="46.138225" lon="11.2529617"><ele>977.0</ele><time>2026-04-26T11:02:53.045Z</time></trkpt><trkpt lat="46.1383181" lon="11.2530614"><ele>977.0</ele><time>2026-04-26T11:02:54.04Z</time></trkpt><trkpt lat="46.138409" lon="11.253165"><ele>977.25</ele><time>2026-04-26T11:02:55.048Z</time></trkpt><trkpt lat="46.1384986" lon="11.253271"><ele>977.5</ele><time>2026-04-26T11:02:56.058Z</time></trkpt><trkpt lat="46.13858" lon="11.2533928"><ele>977.75</ele><time>2026-04-26T11:02:57.058Z</time></trkpt><trkpt lat="46.1386592" lon="11.2535171"><ele>978.0</ele><time>2026-04-26T11:02:58.05Z</time></trkpt><trkpt lat="46.1387383" lon="11.2536416"><ele>978.0</ele><time>2026-04-26T11:02:59.048Z</time></trkpt><trkpt lat="46.1388136" lon="11.2537631"><ele>978.0</ele><time>2026-04-26T11:03:00.047Z</time></trkpt><trkpt lat="46.1388851" lon="11.2538806"><ele>978.0</ele><time>2026-04-26T11:03:01.055Z</time></trkpt><trkpt lat="46.1389604" lon="11.2539943"><ele>978.0</ele><time>2026-04-26T11:03:02.057Z</time></trkpt><trkpt lat="46.1390392" lon="11.2541068"><ele>978.0</ele><time>2026-04-26T11:03:03.046Z</time></trkpt><trkpt lat="46.139117" lon="11.2542263"><ele>979.0</ele><time>2026-04-26T11:03:04.046Z</time></trkpt><trkpt lat="46.1391948" lon="11.2543505"><ele>980.0</ele><time>2026-04-26T11:03:05.052Z</time></trkpt><trkpt lat="46.1392731" lon="11.2544775"><ele>981.0</ele><time>2026-04-26T11:03:06.052Z</time></trkpt><trkpt lat="46.1393552" lon="11.2546039"><ele>982.0</ele><time>2026-04-26T11:03:07.055Z</time></trkpt><trkpt lat="46.1394366" lon="11.2547335"><ele>979.75</ele><time>2026-04-26T11:03:08.058Z</time></trkpt><trkpt lat="46.1395191" lon="11.2548644"><ele>977.5</ele><time>2026-04-26T11:03:09.061Z</time></trkpt><trkpt lat="46.1396037" lon="11.254997"><ele>975.25</ele><time>2026-04-26T11:03:10.055Z</time></trkpt><trkpt lat="46.1396893" lon="11.2551302"><ele>973.0</ele><time>2026-04-26T11:03:11.042Z</time></trkpt><trkpt lat="46.1397775" lon="11.2552612"><ele>973.0</ele><time>2026-04-26T11:03:12.052Z</time></trkpt><trkpt lat="46.1398633" lon="11.2553916"><ele>973.0</ele><time>2026-04-26T11:03:13.061Z</time></trkpt><trkpt lat="46.1399421" lon="11.2555232"><ele>973.0</ele><time>2026-04-26T11:03:14.053Z</time></trkpt><trkpt lat="46.140019" lon="11.2556489"><ele>973.0</ele><time>2026-04-26T11:03:15.051Z</time></trkpt><trkpt lat="46.1400912" lon="11.2557677"><ele>975.2</ele><time>2026-04-26T11:03:16.045Z</time></trkpt><trkpt lat="46.1401616" lon="11.2558792"><ele>977.4</ele><time>2026-04-26T11:03:17.054Z</time></trkpt><trkpt lat="46.1402302" lon="11.2559876"><ele>979.6000000000001</ele><time>2026-04-26T11:03:18.062Z</time></trkpt><trkpt lat="46.140297" lon="11.2560944"><ele>981.8000000000001</ele><time>2026-04-26T11:03:19.054Z</time></trkpt><trkpt lat="46.1403676" lon="11.2561989"><ele>984.0</ele><time>2026-04-26T11:03:20.052Z</time></trkpt><trkpt lat="46.140439" lon="11.2563053"><ele>984.0</ele><time>2026-04-26T11:03:21.045Z</time></trkpt><trkpt lat="46.1405122" lon="11.2564142"><ele>984.0000000000001</ele><time>2026-04-26T11:03:22.039Z</time></trkpt><trkpt lat="46.1405843" lon="11.2565287"><ele>984.0000000000001</ele><time>2026-04-26T11:03:23.043Z</time></trkpt><trkpt lat="46.1406577" lon="11.2566381"><ele>984.0</ele><time>2026-04-26T11:03:24.051Z</time></trkpt><trkpt lat="46.1407252" lon="11.2567511"><ele>984.0</ele><time>2026-04-26T11:03:25.046Z</time></trkpt><trkpt lat="46.1407927" lon="11.2568597"><ele>983.8000000000001</ele><time>2026-04-26T11:03:26.04Z</time></trkpt><trkpt lat="46.1408598" lon="11.2569709"><ele>983.6000000000001</ele><time>2026-04-26T11:03:27.039Z</time></trkpt><trkpt lat="46.1409299" lon="11.2570797"><ele>983.4</ele><time>2026-04-26T11:03:28.043Z</time></trkpt><trkpt lat="46.1409959" lon="11.2571982"><ele>983.2</ele><time>2026-04-26T11:03:29.045Z</time></trkpt><trkpt lat="46.1410715" lon="11.2573059"><ele>983.0</ele><time>2026-04-26T11:03:30.044Z</time></trkpt><trkpt lat="46.1411495" lon="11.2574151"><ele>983.0</ele><time>2026-04-26T11:03:31.04Z</time></trkpt><trkpt lat="46.1412236" lon="11.2575333"><ele>983.0</ele><time>2026-04-26T11:03:32.044Z</time></trkpt><trkpt lat="46.1412998" lon="11.2576465"><ele>983.0</ele><time>2026-04-26T11:03:33.078Z</time></trkpt><trkpt lat="46.1413642" lon="11.2577686"><ele>983.0</ele><time>2026-04-26T11:03:34.061Z</time></trkpt><trkpt lat="46.1414299" lon="11.2578807"><ele>983.0</ele><time>2026-04-26T11:03:35.067Z</time></trkpt><trkpt lat="46.1414929" lon="11.2579891"><ele>985.0</ele><time>2026-04-26T11:03:36.054Z</time></trkpt><trkpt lat="46.1415511" lon="11.2580947"><ele>987.0</ele><time>2026-04-26T11:03:37.046Z</time></trkpt><trkpt lat="46.1416097" lon="11.2581925"><ele>989.0</ele><time>2026-04-26T11:03:38.049Z</time></trkpt><trkpt lat="46.1416573" lon="11.2583061"><ele>991.0</ele><time>2026-04-26T11:03:39.041Z</time></trkpt><trkpt lat="46.1417066" lon="11.2584193"><ele>993.0</ele><time>2026-04-26T11:03:40.055Z</time></trkpt><trkpt lat="46.1417549" lon="11.258541"><ele>993.0</ele><time>2026-04-26T11:03:41.049Z</time></trkpt><trkpt lat="46.1418032" lon="11.2586711"><ele>993.0</ele><time>2026-04-26T11:03:42.05Z</time></trkpt><trkpt lat="46.1418497" lon="11.25881"><ele>993.0</ele><time>2026-04-26T11:03:43.047Z</time></trkpt><trkpt lat="46.1418987" lon="11.2589491"><ele>993.0</ele><time>2026-04-26T11:03:44.044Z</time></trkpt><trkpt lat="46.1419595" lon="11.25909"><ele>993.0</ele><time>2026-04-26T11:03:45.048Z</time></trkpt><trkpt lat="46.142017" lon="11.2592415"><ele>991.75</ele><time>2026-04-26T11:03:46.04Z</time></trkpt><trkpt lat="46.1420754" lon="11.2593943"><ele>990.5</ele><time>2026-04-26T11:03:47.047Z</time></trkpt><trkpt lat="46.1421386" lon="11.2595434"><ele>989.25</ele><time>2026-04-26T11:03:48.044Z</time></trkpt><trkpt lat="46.1422045" lon="11.2596811"><ele>988.0</ele><time>2026-04-26T11:03:49.054Z</time></trkpt><trkpt lat="46.1422848" lon="11.2597976"><ele>991.25</ele><time>2026-04-26T11:03:50.045Z</time></trkpt><trkpt lat="46.1423827" lon="11.259898"><ele>994.5</ele><time>2026-04-26T11:03:51.066Z</time></trkpt><trkpt lat="46.142484" lon="11.2599974"><ele>997.75</ele><time>2026-04-26T11:03:52.061Z</time></trkpt><trkpt lat="46.1425857" lon="11.2601018"><ele>1001.0</ele><time>2026-04-26T11:03:53.044Z</time></trkpt><trkpt lat="46.1426871" lon="11.2602155"><ele>1001.0</ele><time>2026-04-26T11:03:54.041Z</time></trkpt><trkpt lat="46.1427846" lon="11.2603353"><ele>1001.0</ele><time>2026-04-26T11:03:55.049Z</time></trkpt><trkpt lat="46.1428829" lon="11.2604545"><ele>1001.0</ele><time>2026-04-26T11:03:56.054Z</time></trkpt><trkpt lat="46.1429817" lon="11.2605752"><ele>1001.0</ele><time>2026-04-26T11:03:57.05Z</time></trkpt><trkpt lat="46.1430864" lon="11.2606872"><ele>1001.75</ele><time>2026-04-26T11:03:58.049Z</time></trkpt><trkpt lat="46.1431927" lon="11.2607975"><ele>1002.5</ele><time>2026-04-26T11:03:59.054Z</time></trkpt><trkpt lat="46.1432982" lon="11.2609101"><ele>1003.25</ele><time>2026-04-26T11:04:00.078Z</time></trkpt><trkpt lat="46.1434083" lon="11.2610227"><ele>1004.0</ele><time>2026-04-26T11:04:01.047Z</time></trkpt><trkpt lat="46.1435214" lon="11.2611382"><ele>1004.0</ele><time>2026-04-26T11:04:02.048Z</time></trkpt><trkpt lat="46.1436354" lon="11.2612535"><ele>1004.0</ele><time>2026-04-26T11:04:03.057Z</time></trkpt><trkpt lat="46.1437504" lon="11.2613693"><ele>1004.0</ele><time>2026-04-26T11:04:04.057Z</time></trkpt><trkpt lat="46.1438674" lon="11.2614853"><ele>1004.0</ele><time>2026-04-26T11:04:05.048Z</time></trkpt><trkpt lat="46.1439847" lon="11.2616019"><ele>1003.75</ele><time>2026-04-26T11:04:06.05Z</time></trkpt><trkpt lat="46.1441008" lon="11.2617218"><ele>1003.5</ele><time>2026-04-26T11:04:07.051Z</time></trkpt><trkpt lat="46.1442164" lon="11.2618428"><ele>1003.25</ele><time>2026-04-26T11:04:08.049Z</time></trkpt><trkpt lat="46.1443346" lon="11.2619596"><ele>1003.0</ele><time>2026-04-26T11:04:09.052Z</time></trkpt><trkpt lat="46.1444512" lon="11.262078"><ele>1003.0</ele><time>2026-04-26T11:04:10.049Z</time></trkpt><trkpt lat="46.1445653" lon="11.2621997"><ele>1003.0</ele><time>2026-04-26T11:04:11.05Z</time></trkpt><trkpt lat="46.1446792" lon="11.2623217"><ele>1003.0</ele><time>2026-04-26T11:04:12.043Z</time></trkpt><trkpt lat="46.1447936" lon="11.2624423"><ele>1003.0</ele><time>2026-04-26T11:04:13.048Z</time></trkpt><trkpt lat="46.144909" lon="11.262563"><ele>1003.75</ele><time>2026-04-26T11:04:14.037Z</time></trkpt><trkpt lat="46.1450217" lon="11.2626853"><ele>1004.5</ele><time>2026-04-26T11:04:15.04Z</time></trkpt><trkpt lat="46.1451341" lon="11.2628079"><ele>1005.25</ele><time>2026-04-26T11:04:16.042Z</time></trkpt><trkpt lat="46.1452462" lon="11.2629292"><ele>1006.0</ele><time>2026-04-26T11:04:17.048Z</time></trkpt><trkpt lat="46.1453581" lon="11.263049"><ele>1007.25</ele><time>2026-04-26T11:04:18.049Z</time></trkpt><trkpt lat="46.1454687" lon="11.2631721"><ele>1008.5</ele><time>2026-04-26T11:04:19.036Z</time></trkpt><trkpt lat="46.145584" lon="11.2632877"><ele>1009.75</ele><time>2026-04-26T11:04:20.047Z</time></trkpt><trkpt lat="46.1456989" lon="11.2634071"><ele>1011.0</ele><time>2026-04-26T11:04:21.042Z</time></trkpt><trkpt lat="46.1458141" lon="11.2635284"><ele>1011.0</ele><time>2026-04-26T11:04:22.052Z</time></trkpt><trkpt lat="46.1459324" lon="11.2636473"><ele>1011.0</ele><time>2026-04-26T11:04:23.047Z</time></trkpt><trkpt lat="46.1460358" lon="11.2637972"><ele>1011.0</ele><time>2026-04-26T11:04:24.047Z</time></trkpt><trkpt lat="46.1461487" lon="11.2639293"><ele>1011.0</ele><time>2026-04-26T11:04:25.059Z</time></trkpt><trkpt lat="46.1462609" lon="11.2640642"><ele>1009.25</ele><time>2026-04-26T11:04:26.06Z</time></trkpt><trkpt lat="46.1463745" lon="11.2641979"><ele>1007.5</ele><time>2026-04-26T11:04:27.059Z</time></trkpt><trkpt lat="46.1465023" lon="11.2643145"><ele>1005.75</ele><time>2026-04-26T11:04:28.042Z</time></trkpt><trkpt lat="46.1466222" lon="11.2644481"><ele>1004.0</ele><time>2026-04-26T11:04:29.042Z</time></trkpt><trkpt lat="46.1467504" lon="11.2645823"><ele>1003.0</ele><time>2026-04-26T11:04:30.045Z</time></trkpt><trkpt lat="46.146873" lon="11.2647314"><ele>1002.0</ele><time>2026-04-26T11:04:31.05Z</time></trkpt><trkpt lat="46.1470054" lon="11.2648688"><ele>1001.0</ele><time>2026-04-26T11:04:32.061Z</time></trkpt><trkpt lat="46.1471393" lon="11.2650083"><ele>1001.0</ele><time>2026-04-26T11:04:33.068Z</time></trkpt><trkpt lat="46.1472821" lon="11.2651291"><ele>1001.0</ele><time>2026-04-26T11:04:34.059Z</time></trkpt><trkpt lat="46.1474171" lon="11.2652529"><ele>1001.0</ele><time>2026-04-26T11:04:35.051Z</time></trkpt><trkpt lat="46.1475399" lon="11.2653968"><ele>1001.25</ele><time>2026-04-26T11:04:36.046Z</time></trkpt><trkpt lat="46.1476606" lon="11.2655328"><ele>1001.5</ele><time>2026-04-26T11:04:37.055Z</time></trkpt><trkpt lat="46.1477702" lon="11.2656627"><ele>1001.75</ele><time>2026-04-26T11:04:38.038Z</time></trkpt><trkpt lat="46.1478583" lon="11.2657968"><ele>1002.0</ele><time>2026-04-26T11:04:39.046Z</time></trkpt><trkpt lat="46.147934" lon="11.2659522"><ele>1002.0</ele><time>2026-04-26T11:04:40.055Z</time></trkpt><trkpt lat="46.1480018" lon="11.2661065"><ele>1002.0</ele><time>2026-04-26T11:04:41.041Z</time></trkpt><trkpt lat="46.148071" lon="11.2662343"><ele>1002.0</ele><time>2026-04-26T11:04:42.058Z</time></trkpt><trkpt lat="46.1481228" lon="11.2663903"><ele>1002.0</ele><time>2026-04-26T11:04:43.055Z</time></trkpt><trkpt lat="46.1482004" lon="11.2665228"><ele>1007.0</ele><time>2026-04-26T11:04:44.046Z</time></trkpt><trkpt lat="46.1482934" lon="11.2666515"><ele>1012.0</ele><time>2026-04-26T11:04:45.041Z</time></trkpt><trkpt lat="46.1483823" lon="11.2667856"><ele>1017.0</ele><time>2026-04-26T11:04:46.048Z</time></trkpt><trkpt lat="46.1484753" lon="11.2669213"><ele>1022.0</ele><time>2026-04-26T11:04:47.047Z</time></trkpt><trkpt lat="46.1485801" lon="11.2670311"><ele>1022.0</ele><time>2026-04-26T11:04:48.052Z</time></trkpt><trkpt lat="46.1486774" lon="11.2671436"><ele>1022.0</ele><time>2026-04-26T11:04:49.052Z</time></trkpt><trkpt lat="46.1487671" lon="11.2672726"><ele>1022.0</ele><time>2026-04-26T11:04:50.049Z</time></trkpt><trkpt lat="46.1488572" lon="11.267402"><ele>1022.0</ele><time>2026-04-26T11:04:51.049Z</time></trkpt><trkpt lat="46.1489491" lon="11.2675321"><ele>1022.25</ele><time>2026-04-26T11:04:52.038Z</time></trkpt><trkpt lat="46.1490261" lon="11.2676871"><ele>1022.5</ele><time>2026-04-26T11:04:53.042Z</time></trkpt><trkpt lat="46.14911" lon="11.2678297"><ele>1022.75</ele><time>2026-04-26T11:04:54.05Z</time></trkpt><trkpt lat="46.1491917" lon="11.267972"><ele>1023.0</ele><time>2026-04-26T11:04:55.044Z</time></trkpt><trkpt lat="46.149259" lon="11.2681297"><ele>1023.0</ele><time>2026-04-26T11:04:56.049Z</time></trkpt><trkpt lat="46.1493087" lon="11.2682912"><ele>1023.0</ele><time>2026-04-26T11:04:57.051Z</time></trkpt><trkpt lat="46.1493409" lon="11.2684572"><ele>1023.0</ele><time>2026-04-26T11:04:58.046Z</time></trkpt><trkpt lat="46.1493747" lon="11.2686196"><ele>1023.0</ele><time>2026-04-26T11:04:59.069Z</time></trkpt><trkpt lat="46.1494092" lon="11.268781"><ele>1022.0</ele><time>2026-04-26T11:05:00.094Z</time></trkpt><trkpt lat="46.1494497" lon="11.2689462"><ele>1021.0</ele><time>2026-04-26T11:05:01.042Z</time></trkpt><trkpt lat="46.1495026" lon="11.2691116"><ele>1020.0</ele><time>2026-04-26T11:05:02.059Z</time></trkpt><trkpt lat="46.1495497" lon="11.2692839"><ele>1019.0</ele><time>2026-04-26T11:05:03.044Z</time></trkpt><trkpt lat="46.1495924" lon="11.2694594"><ele>1019.0</ele><time>2026-04-26T11:05:04.051Z</time></trkpt><trkpt lat="46.149631" lon="11.2696387"><ele>1019.0</ele><time>2026-04-26T11:05:05.06Z</time></trkpt><trkpt lat="46.1496814" lon="11.2698161"><ele>1019.0</ele><time>2026-04-26T11:05:06.049Z</time></trkpt><trkpt lat="46.1497213" lon="11.270002"><ele>1019.0</ele><time>2026-04-26T11:05:07.041Z</time></trkpt><trkpt lat="46.149777" lon="11.2701743"><ele>1019.25</ele><time>2026-04-26T11:05:08.047Z</time></trkpt><trkpt lat="46.1498403" lon="11.2703328"><ele>1019.5</ele><time>2026-04-26T11:05:09.044Z</time></trkpt><trkpt lat="46.1498969" lon="11.2704897"><ele>1019.75</ele><time>2026-04-26T11:05:10.047Z</time></trkpt><trkpt lat="46.1499799" lon="11.270622"><ele>1020.0</ele><time>2026-04-26T11:05:11.053Z</time></trkpt><trkpt lat="46.1500508" lon="11.2707667"><ele>1021.0</ele><time>2026-04-26T11:05:12.046Z</time></trkpt><trkpt lat="46.1501166" lon="11.2709215"><ele>1022.0</ele><time>2026-04-26T11:05:13.065Z</time></trkpt><trkpt lat="46.1501824" lon="11.2710806"><ele>1023.0</ele><time>2026-04-26T11:05:14.054Z</time></trkpt><trkpt lat="46.1502475" lon="11.2712433"><ele>1024.0</ele><time>2026-04-26T11:05:15.052Z</time></trkpt><trkpt lat="46.1503115" lon="11.2714107"><ele>1023.75</ele><time>2026-04-26T11:05:16.046Z</time></trkpt><trkpt lat="46.1503766" lon="11.2715797"><ele>1023.5</ele><time>2026-04-26T11:05:17.049Z</time></trkpt><trkpt lat="46.1504431" lon="11.2717478"><ele>1023.25</ele><time>2026-04-26T11:05:18.043Z</time></trkpt><trkpt lat="46.1505096" lon="11.2719143"><ele>1023.0</ele><time>2026-04-26T11:05:19.051Z</time></trkpt><trkpt lat="46.1505747" lon="11.272081"><ele>1023.0</ele><time>2026-04-26T11:05:20.051Z</time></trkpt><trkpt lat="46.1506406" lon="11.2722465"><ele>1023.0</ele><time>2026-04-26T11:05:21.045Z</time></trkpt><trkpt lat="46.1507065" lon="11.2724112"><ele>1023.0</ele><time>2026-04-26T11:05:22.049Z</time></trkpt><trkpt lat="46.15077" lon="11.2725758"><ele>1023.0</ele><time>2026-04-26T11:05:23.047Z</time></trkpt><trkpt lat="46.150831" lon="11.272737"><ele>1024.0</ele><time>2026-04-26T11:05:24.047Z</time></trkpt><trkpt lat="46.1508919" lon="11.272893"><ele>1025.0</ele><time>2026-04-26T11:05:25.041Z</time></trkpt><trkpt lat="46.1509552" lon="11.2730467"><ele>1026.0</ele><time>2026-04-26T11:05:26.048Z</time></trkpt><trkpt lat="46.1510293" lon="11.2731945"><ele>1027.0</ele><time>2026-04-26T11:05:27.035Z</time></trkpt><trkpt lat="46.1511186" lon="11.2733296"><ele>1027.0</ele><time>2026-04-26T11:05:28.04Z</time></trkpt><trkpt lat="46.1512197" lon="11.2734503"><ele>1027.0</ele><time>2026-04-26T11:05:29.048Z</time></trkpt><trkpt lat="46.1513314" lon="11.2735533"><ele>1027.0</ele><time>2026-04-26T11:05:30.054Z</time></trkpt><trkpt lat="46.151446" lon="11.2736528"><ele>1027.0</ele><time>2026-04-26T11:05:31.054Z</time></trkpt><trkpt lat="46.151562" lon="11.2737469"><ele>1028.25</ele><time>2026-04-26T11:05:32.05Z</time></trkpt><trkpt lat="46.1516906" lon="11.2738113"><ele>1029.5</ele><time>2026-04-26T11:05:33.046Z</time></trkpt><trkpt lat="46.1518156" lon="11.2738791"><ele>1030.75</ele><time>2026-04-26T11:05:34.045Z</time></trkpt><trkpt lat="46.1519514" lon="11.2738825"><ele>1032.0</ele><time>2026-04-26T11:05:35.045Z</time></trkpt><trkpt lat="46.1520876" lon="11.2738591"><ele>1032.0</ele><time>2026-04-26T11:05:36.044Z</time></trkpt><trkpt lat="46.1522237" lon="11.2738306"><ele>1032.0</ele><time>2026-04-26T11:05:37.08Z</time></trkpt><trkpt lat="46.1523592" lon="11.2737897"><ele>1032.0</ele><time>2026-04-26T11:05:38.041Z</time></trkpt><trkpt lat="46.1524943" lon="11.2737489"><ele>1032.0</ele><time>2026-04-26T11:05:39.038Z</time></trkpt><trkpt lat="46.1526237" lon="11.2737126"><ele>1033.0</ele><time>2026-04-26T11:05:40.06Z</time></trkpt><trkpt lat="46.1527454" lon="11.273688"><ele>1034.0</ele><time>2026-04-26T11:05:41.05Z</time></trkpt><trkpt lat="46.1528658" lon="11.2736898"><ele>1035.0</ele><time>2026-04-26T11:05:42.048Z</time></trkpt><trkpt lat="46.1529855" lon="11.2737122"><ele>1036.0</ele><time>2026-04-26T11:05:43.05Z</time></trkpt><trkpt lat="46.1531081" lon="11.2737529"><ele>1034.75</ele><time>2026-04-26T11:05:44.052Z</time></trkpt><trkpt lat="46.1532222" lon="11.2738216"><ele>1033.5</ele><time>2026-04-26T11:05:45.048Z</time></trkpt><trkpt lat="46.153328" lon="11.2739191"><ele>1032.25</ele><time>2026-04-26T11:05:46.038Z</time></trkpt><trkpt lat="46.1534145" lon="11.2740554"><ele>1031.0</ele><time>2026-04-26T11:05:47.048Z</time></trkpt><trkpt lat="46.1535004" lon="11.2742019"><ele>1031.0</ele><time>2026-04-26T11:05:48.044Z</time></trkpt><trkpt lat="46.1535993" lon="11.2743192"><ele>1031.0</ele><time>2026-04-26T11:05:49.043Z</time></trkpt><trkpt lat="46.1537074" lon="11.2744324"><ele>1031.0</ele><time>2026-04-26T11:05:50.041Z</time></trkpt><trkpt lat="46.1538173" lon="11.2745587"><ele>1031.0</ele><time>2026-04-26T11:05:51.053Z</time></trkpt><trkpt lat="46.153942" lon="11.274652"><ele>1030.25</ele><time>2026-04-26T11:05:52.046Z</time></trkpt><trkpt lat="46.1540452" lon="11.2747936"><ele>1029.5</ele><time>2026-04-26T11:05:53.044Z</time></trkpt><trkpt lat="46.1541701" lon="11.2748862"><ele>1028.75</ele><time>2026-04-26T11:05:54.057Z</time></trkpt><trkpt lat="46.1542742" lon="11.2750101"><ele>1028.0</ele><time>2026-04-26T11:05:55.045Z</time></trkpt><trkpt lat="46.154354" lon="11.2751631"><ele>1028.0</ele><time>2026-04-26T11:05:56.039Z</time></trkpt><trkpt lat="46.1544278" lon="11.2753286"><ele>1028.0</ele><time>2026-04-26T11:05:57.044Z</time></trkpt><trkpt lat="46.1545007" lon="11.2754953"><ele>1028.0</ele><time>2026-04-26T11:05:58.044Z</time></trkpt><trkpt lat="46.1545707" lon="11.2756645"><ele>1028.0</ele><time>2026-04-26T11:05:59.058Z</time></trkpt><trkpt lat="46.1546437" lon="11.2758315"><ele>1027.75</ele><time>2026-04-26T11:06:00.067Z</time></trkpt><trkpt lat="46.1547169" lon="11.276001"><ele>1027.5</ele><time>2026-04-26T11:06:01.073Z</time></trkpt><trkpt lat="46.1548027" lon="11.2761526"><ele>1027.25</ele><time>2026-04-26T11:06:02.049Z</time></trkpt><trkpt lat="46.1548802" lon="11.2763115"><ele>1027.0</ele><time>2026-04-26T11:06:03.058Z</time></trkpt><trkpt lat="46.1549583" lon="11.2764655"><ele>1027.0</ele><time>2026-04-26T11:06:04.044Z</time></trkpt><trkpt lat="46.1550346" lon="11.2766219"><ele>1027.0</ele><time>2026-04-26T11:06:05.059Z</time></trkpt><trkpt lat="46.155103" lon="11.2767838"><ele>1027.0</ele><time>2026-04-26T11:06:06.039Z</time></trkpt><trkpt lat="46.1551741" lon="11.2769428"><ele>1027.0</ele><time>2026-04-26T11:06:07.049Z</time></trkpt><trkpt lat="46.1552305" lon="11.2771167"><ele>1025.75</ele><time>2026-04-26T11:06:08.05Z</time></trkpt><trkpt lat="46.1552797" lon="11.2773026"><ele>1024.5</ele><time>2026-04-26T11:06:09.049Z</time></trkpt><trkpt lat="46.1553141" lon="11.2774794"><ele>1023.25</ele><time>2026-04-26T11:06:10.051Z</time></trkpt><trkpt lat="46.1553718" lon="11.2776729"><ele>1022.0</ele><time>2026-04-26T11:06:11.057Z</time></trkpt><trkpt lat="46.1554249" lon="11.2778588"><ele>1022.0</ele><time>2026-04-26T11:06:12.044Z</time></trkpt><trkpt lat="46.1554777" lon="11.2780534"><ele>1022.0</ele><time>2026-04-26T11:06:13.052Z</time></trkpt><trkpt lat="46.1555266" lon="11.2782457"><ele>1022.0</ele><time>2026-04-26T11:06:14.048Z</time></trkpt><trkpt lat="46.1555773" lon="11.2784432"><ele>1022.0</ele><time>2026-04-26T11:06:15.05Z</time></trkpt><trkpt lat="46.155628" lon="11.2786337"><ele>1020.75</ele><time>2026-04-26T11:06:16.061Z</time></trkpt><trkpt lat="46.1556774" lon="11.2788226"><ele>1019.5</ele><time>2026-04-26T11:06:17.093Z</time></trkpt><trkpt lat="46.1557339" lon="11.2789932"><ele>1018.25</ele><time>2026-04-26T11:06:18.047Z</time></trkpt><trkpt lat="46.1558098" lon="11.2791435"><ele>1017.0</ele><time>2026-04-26T11:06:19.049Z</time></trkpt><trkpt lat="46.1559023" lon="11.2792922"><ele>1018.0</ele><time>2026-04-26T11:06:20.042Z</time></trkpt><trkpt lat="46.1560022" lon="11.2794495"><ele>1019.0</ele><time>2026-04-26T11:06:21.046Z</time></trkpt><trkpt lat="46.1561023" lon="11.2796138"><ele>1020.0</ele><time>2026-04-26T11:06:22.058Z</time></trkpt><trkpt lat="46.1561862" lon="11.2797883"><ele>1021.0</ele><time>2026-04-26T11:06:23.059Z</time></trkpt><trkpt lat="46.1562531" lon="11.2799746"><ele>1021.0</ele><time>2026-04-26T11:06:24.043Z</time></trkpt><trkpt lat="46.1563185" lon="11.2801813"><ele>1021.0</ele><time>2026-04-26T11:06:25.08Z</time></trkpt><trkpt lat="46.1563746" lon="11.2803827"><ele>1021.0</ele><time>2026-04-26T11:06:26.05Z</time></trkpt><trkpt lat="46.1564323" lon="11.2805896"><ele>1020.3333333333333</ele><time>2026-04-26T11:06:27.042Z</time></trkpt><trkpt lat="46.1564901" lon="11.2807926"><ele>1019.6666666666667</ele><time>2026-04-26T11:06:28.047Z</time></trkpt><trkpt lat="46.1565458" lon="11.281"><ele>1019.0</ele><time>2026-04-26T11:06:29.056Z</time></trkpt><trkpt lat="46.1566048" lon="11.2812116"><ele>1021.6666666666667</ele><time>2026-04-26T11:06:30.049Z</time></trkpt><trkpt lat="46.1566616" lon="11.2814221"><ele>1024.3333333333333</ele><time>2026-04-26T11:06:31.052Z</time></trkpt><trkpt lat="46.1567199" lon="11.2816272"><ele>1027.0</ele><time>2026-04-26T11:06:32.048Z</time></trkpt><trkpt lat="46.1567765" lon="11.281825"><ele>1027.0</ele><time>2026-04-26T11:06:33.04Z</time></trkpt><trkpt lat="46.1568331" lon="11.2819733"><ele>1027.0</ele><time>2026-04-26T11:06:34.046Z</time></trkpt><trkpt lat="46.1569181" lon="11.2821203"><ele>1027.0</ele><time>2026-04-26T11:06:35.048Z</time></trkpt><trkpt lat="46.1570114" lon="11.2822631"><ele>1027.0</ele><time>2026-04-26T11:06:36.051Z</time></trkpt><trkpt lat="46.1571104" lon="11.2824086"><ele>1024.25</ele><time>2026-04-26T11:06:37.048Z</time></trkpt><trkpt lat="46.1571993" lon="11.2825536"><ele>1021.5</ele><time>2026-04-26T11:06:38.061Z</time></trkpt><trkpt lat="46.1572453" lon="11.2826646"><ele>1018.75</ele><time>2026-04-26T11:06:39.05Z</time></trkpt><trkpt lat="46.1572697" lon="11.2827765"><ele>1016.0</ele><time>2026-04-26T11:06:40.037Z</time></trkpt><trkpt lat="46.1573032" lon="11.2830174"><ele>1015.3333333333334</ele><time>2026-04-26T11:06:41.038Z</time></trkpt><trkpt lat="46.157324" lon="11.2832494"><ele>1014.6666666666667</ele><time>2026-04-26T11:06:42.06Z</time></trkpt><trkpt lat="46.1573396" lon="11.2834623"><ele>1014.0</ele><time>2026-04-26T11:06:43.04Z</time></trkpt><trkpt lat="46.1573531" lon="11.2836696"><ele>1014.0</ele><time>2026-04-26T11:06:44.054Z</time></trkpt><trkpt lat="46.1573573" lon="11.2838706"><ele>1014.0</ele><time>2026-04-26T11:06:45.077Z</time></trkpt><trkpt lat="46.1573427" lon="11.283997"><ele>1014.0</ele><time>2026-04-26T11:06:46.045Z</time></trkpt><trkpt lat="46.1573084" lon="11.284094"><ele>1014.0</ele><time>2026-04-26T11:06:47.042Z</time></trkpt><trkpt lat="46.1572266" lon="11.2842735"><ele>1014.6</ele><time>2026-04-26T11:06:48.034Z</time></trkpt><trkpt lat="46.1571422" lon="11.2844569"><ele>1015.2</ele><time>2026-04-26T11:06:49.041Z</time></trkpt><trkpt lat="46.1570728" lon="11.2845862"><ele>1015.8000000000001</ele><time>2026-04-26T11:06:50.042Z</time></trkpt><trkpt lat="46.1570334" lon="11.284718"><ele>1016.4000000000001</ele><time>2026-04-26T11:06:51.047Z</time></trkpt><trkpt lat="46.1569858" lon="11.284811"><ele>1017.0</ele><time>2026-04-26T11:06:52.057Z</time></trkpt><trkpt lat="46.1569161" lon="11.2849247"><ele>1018.5</ele><time>2026-04-26T11:06:54.049Z</time></trkpt><trkpt lat="46.1568775" lon="11.2849985"><ele>1020.0</ele><time>2026-04-26T11:06:56.033Z</time></trkpt><trkpt lat="46.1568115" lon="11.2850846"><ele>1021.5</ele><time>2026-04-26T11:06:59.042Z</time></trkpt><trkpt lat="46.1567663" lon="11.285176"><ele>1023.0</ele><time>2026-04-26T11:07:02.037Z</time></trkpt><trkpt lat="46.1566979" lon="11.2851941"><ele>1024.5</ele><time>2026-04-26T11:09:06.038Z</time></trkpt><trkpt lat="46.1566436" lon="11.2853098"><ele>1026.0</ele><time>2026-04-26T11:09:09.057Z</time></trkpt><trkpt lat="46.1565893" lon="11.2854224"><ele>1024.3333333333333</ele><time>2026-04-26T11:09:11.038Z</time></trkpt><trkpt lat="46.1565166" lon="11.2855521"><ele>1022.6666666666667</ele><time>2026-04-26T11:09:13.049Z</time></trkpt><trkpt lat="46.1564732" lon="11.2856238"><ele>1021.0</ele><time>2026-04-26T11:09:14.034Z</time></trkpt><trkpt lat="46.1564294" lon="11.2857015"><ele>1019.3333333333334</ele><time>2026-04-26T11:09:15.045Z</time></trkpt><trkpt lat="46.1563873" lon="11.2857871"><ele>1017.6666666666667</ele><time>2026-04-26T11:09:16.034Z</time></trkpt><trkpt lat="46.156348" lon="11.2858771"><ele>1016.0</ele><time>2026-04-26T11:09:17.032Z</time></trkpt><trkpt lat="46.1563057" lon="11.2859866"><ele>1016.0</ele><time>2026-04-26T11:09:18.035Z</time></trkpt><trkpt lat="46.1562661" lon="11.2860938"><ele>1015.9999999999999</ele><time>2026-04-26T11:09:19.052Z</time></trkpt><trkpt lat="46.1562264" lon="11.2862148"><ele>1015.9999999999999</ele><time>2026-04-26T11:09:20.028Z</time></trkpt><trkpt lat="46.1561851" lon="11.2863458"><ele>1016.0</ele><time>2026-04-26T11:09:21.033Z</time></trkpt><trkpt lat="46.1561453" lon="11.2864874"><ele>1016.0</ele><time>2026-04-26T11:09:22.034Z</time></trkpt><trkpt lat="46.1561007" lon="11.2866283"><ele>1017.1999999999999</ele><time>2026-04-26T11:09:23.032Z</time></trkpt><trkpt lat="46.1560536" lon="11.2867691"><ele>1018.3999999999999</ele><time>2026-04-26T11:09:24.044Z</time></trkpt><trkpt lat="46.1560268" lon="11.2869229"><ele>1019.6</ele><time>2026-04-26T11:09:25.038Z</time></trkpt><trkpt lat="46.1559826" lon="11.2870576"><ele>1020.8</ele><time>2026-04-26T11:09:26.039Z</time></trkpt><trkpt lat="46.1559319" lon="11.2871874"><ele>1022.0</ele><time>2026-04-26T11:09:27.041Z</time></trkpt><trkpt lat="46.1558977" lon="11.2873273"><ele>1022.0</ele><time>2026-04-26T11:09:28.045Z</time></trkpt><trkpt lat="46.1558613" lon="11.2874666"><ele>1022.0</ele><time>2026-04-26T11:09:29.043Z</time></trkpt><trkpt lat="46.1558219" lon="11.287608"><ele>1022.0</ele><time>2026-04-26T11:09:30.044Z</time></trkpt><trkpt lat="46.1557842" lon="11.2877524"><ele>1022.0</ele><time>2026-04-26T11:09:31.04Z</time></trkpt><trkpt lat="46.1557402" lon="11.2878894"><ele>1022.0</ele><time>2026-04-26T11:09:32.049Z</time></trkpt><trkpt lat="46.1556978" lon="11.2880193"><ele>1022.8</ele><time>2026-04-26T11:09:33.044Z</time></trkpt><trkpt lat="46.1556552" lon="11.2881401"><ele>1023.6</ele><time>2026-04-26T11:09:34.055Z</time></trkpt><trkpt lat="46.1556108" lon="11.2882515"><ele>1024.3999999999999</ele><time>2026-04-26T11:09:35.038Z</time></trkpt><trkpt lat="46.1555672" lon="11.288362"><ele>1025.2</ele><time>2026-04-26T11:09:36.036Z</time></trkpt><trkpt lat="46.1555356" lon="11.2884837"><ele>1026.0</ele><time>2026-04-26T11:09:37.039Z</time></trkpt><trkpt lat="46.1555026" lon="11.2886103"><ele>1026.0</ele><time>2026-04-26T11:09:38.039Z</time></trkpt><trkpt lat="46.1554834" lon="11.288748"><ele>1026.0</ele><time>2026-04-26T11:09:39.041Z</time></trkpt><trkpt lat="46.155469" lon="11.2888987"><ele>1026.0</ele><time>2026-04-26T11:09:40.038Z</time></trkpt><trkpt lat="46.155467" lon="11.2890632"><ele>1026.0</ele><time>2026-04-26T11:09:41.043Z</time></trkpt><trkpt lat="46.1554666" lon="11.2892327"><ele>1026.0</ele><time>2026-04-26T11:09:42.032Z</time></trkpt><trkpt lat="46.1554717" lon="11.2894054"><ele>1026.25</ele><time>2026-04-26T11:09:43.044Z</time></trkpt><trkpt lat="46.1554787" lon="11.2895846"><ele>1026.5</ele><time>2026-04-26T11:09:44.031Z</time></trkpt><trkpt lat="46.1554905" lon="11.2897695"><ele>1026.75</ele><time>2026-04-26T11:09:45.049Z</time></trkpt><trkpt lat="46.155497" lon="11.2899584"><ele>1027.0</ele><time>2026-04-26T11:09:46.046Z</time></trkpt><trkpt lat="46.1554979" lon="11.2901502"><ele>1027.25</ele><time>2026-04-26T11:09:47.04Z</time></trkpt><trkpt lat="46.1555019" lon="11.2903456"><ele>1027.5</ele><time>2026-04-26T11:09:48.033Z</time></trkpt><trkpt lat="46.1555048" lon="11.2905535"><ele>1027.75</ele><time>2026-04-26T11:09:49.04Z</time></trkpt><trkpt lat="46.1555106" lon="11.2907761"><ele>1028.0</ele><time>2026-04-26T11:09:50.045Z</time></trkpt><trkpt lat="46.1555192" lon="11.2910139"><ele>1028.0</ele><time>2026-04-26T11:09:51.053Z</time></trkpt><trkpt lat="46.1555335" lon="11.291265"><ele>1028.0</ele><time>2026-04-26T11:09:52.039Z</time></trkpt><trkpt lat="46.1555655" lon="11.2915285"><ele>1028.0</ele><time>2026-04-26T11:09:53.046Z</time></trkpt><trkpt lat="46.1556527" lon="11.2918028"><ele>1025.5</ele><time>2026-04-26T11:09:54.048Z</time></trkpt><trkpt lat="46.1557748" lon="11.2920769"><ele>1023.0</ele><time>2026-04-26T11:09:55.043Z</time></trkpt><trkpt lat="46.1558893" lon="11.2923588"><ele>1027.0</ele><time>2026-04-26T11:09:56.045Z</time></trkpt><trkpt lat="46.155993" lon="11.2926394"><ele>1031.0</ele><time>2026-04-26T11:09:57.075Z</time></trkpt><trkpt lat="46.1560916" lon="11.2929076"><ele>1035.0</ele><time>2026-04-26T11:09:58.044Z</time></trkpt><trkpt lat="46.15618" lon="11.2931653"><ele>1039.6666666666667</ele><time>2026-04-26T11:09:59.038Z</time></trkpt><trkpt lat="46.1562675" lon="11.2934128"><ele>1044.3333333333335</ele><time>2026-04-26T11:10:00.059Z</time></trkpt><trkpt lat="46.1563583" lon="11.2936453"><ele>1049.0</ele><time>2026-04-26T11:10:01.047Z</time></trkpt><trkpt lat="46.1564503" lon="11.2938655"><ele>1044.0</ele><time>2026-04-26T11:10:02.043Z</time></trkpt><trkpt lat="46.1565377" lon="11.2940872"><ele>1039.0</ele><time>2026-04-26T11:10:03.044Z</time></trkpt><trkpt lat="46.1566223" lon="11.2943127"><ele>1034.0</ele><time>2026-04-26T11:10:04.039Z</time></trkpt><trkpt lat="46.1567098" lon="11.294536"><ele>1034.0</ele><time>2026-04-26T11:10:05.047Z</time></trkpt><trkpt lat="46.1568046" lon="11.2947491"><ele>1034.0</ele><time>2026-04-26T11:10:06.038Z</time></trkpt><trkpt lat="46.1569144" lon="11.2949407"><ele>1034.0</ele><time>2026-04-26T11:10:07.047Z</time></trkpt><trkpt lat="46.1570348" lon="11.2951109"><ele>1041.0</ele><time>2026-04-26T11:10:08.057Z</time></trkpt><trkpt lat="46.1571513" lon="11.2952817"><ele>1048.0</ele><time>2026-04-26T11:10:09.051Z</time></trkpt><trkpt lat="46.1572679" lon="11.2954533"><ele>1055.0</ele><time>2026-04-26T11:10:10.044Z</time></trkpt><trkpt lat="46.1573664" lon="11.2956513"><ele>1050.3333333333335</ele><time>2026-04-26T11:10:11.037Z</time></trkpt><trkpt lat="46.1574619" lon="11.2958564"><ele>1045.6666666666667</ele><time>2026-04-26T11:10:12.045Z</time></trkpt><trkpt lat="46.157556" lon="11.2960582"><ele>1041.0</ele><time>2026-04-26T11:10:13.047Z</time></trkpt><trkpt lat="46.1576498" lon="11.2962462"><ele>1041.0</ele><time>2026-04-26T11:10:14.05Z</time></trkpt><trkpt lat="46.1577471" lon="11.2964069"><ele>1041.0</ele><time>2026-04-26T11:10:15.064Z</time></trkpt><trkpt lat="46.1578118" lon="11.2965657"><ele>1041.0</ele><time>2026-04-26T11:10:16.041Z</time></trkpt><trkpt lat="46.1579164" lon="11.2966622"><ele>1041.0</ele><time>2026-04-26T11:10:17.029Z</time></trkpt><trkpt lat="46.158054" lon="11.2966855"><ele>1041.5</ele><time>2026-04-26T11:10:18.041Z</time></trkpt><trkpt lat="46.1581988" lon="11.296646"><ele>1042.0</ele><time>2026-04-26T11:10:19.034Z</time></trkpt><trkpt lat="46.1583403" lon="11.2965862"><ele>1042.5</ele><time>2026-04-26T11:10:20.048Z</time></trkpt><trkpt lat="46.1584745" lon="11.2965409"><ele>1043.0</ele><time>2026-04-26T11:10:21.044Z</time></trkpt><trkpt lat="46.1586019" lon="11.2965279"><ele>1043.0</ele><time>2026-04-26T11:10:22.04Z</time></trkpt><trkpt lat="46.1587114" lon="11.2964807"><ele>1043.0</ele><time>2026-04-26T11:10:23.039Z</time></trkpt><trkpt lat="46.1588143" lon="11.296447"><ele>1043.0</ele><time>2026-04-26T11:10:24.037Z</time></trkpt><trkpt lat="46.1589176" lon="11.2964287"><ele>1043.0</ele><time>2026-04-26T11:10:25.043Z</time></trkpt><trkpt lat="46.1590207" lon="11.2964235"><ele>1043.0</ele><time>2026-04-26T11:10:26.049Z</time></trkpt><trkpt lat="46.1591146" lon="11.2964784"><ele>1042.6</ele><time>2026-04-26T11:10:27.043Z</time></trkpt><trkpt lat="46.1592014" lon="11.296529"><ele>1042.1999999999998</ele><time>2026-04-26T11:10:28.054Z</time></trkpt><trkpt lat="46.1592722" lon="11.2966165"><ele>1041.8</ele><time>2026-04-26T11:10:29.034Z</time></trkpt><trkpt lat="46.1593294" lon="11.2967387"><ele>1041.3999999999999</ele><time>2026-04-26T11:10:30.039Z</time></trkpt><trkpt lat="46.1593727" lon="11.2968958"><ele>1041.0</ele><time>2026-04-26T11:10:31.031Z</time></trkpt><trkpt lat="46.1594177" lon="11.2970718"><ele>1045.0</ele><time>2026-04-26T11:10:32.033Z</time></trkpt><trkpt lat="46.1594579" lon="11.297255"><ele>1049.0</ele><time>2026-04-26T11:10:33.045Z</time></trkpt><trkpt lat="46.1594985" lon="11.2974368"><ele>1053.0</ele><time>2026-04-26T11:10:34.033Z</time></trkpt><trkpt lat="46.1595343" lon="11.2976209"><ele>1057.0</ele><time>2026-04-26T11:10:35.044Z</time></trkpt><trkpt lat="46.1595697" lon="11.2978061"><ele>1057.0</ele><time>2026-04-26T11:10:36.051Z</time></trkpt><trkpt lat="46.1596113" lon="11.2979943"><ele>1057.0</ele><time>2026-04-26T11:10:37.047Z</time></trkpt><trkpt lat="46.1596588" lon="11.2981814"><ele>1057.0</ele><time>2026-04-26T11:10:38.04Z</time></trkpt><trkpt lat="46.1596963" lon="11.2983727"><ele>1057.0</ele><time>2026-04-26T11:10:39.051Z</time></trkpt><trkpt lat="46.1597409" lon="11.2985574"><ele>1055.75</ele><time>2026-04-26T11:10:40.039Z</time></trkpt><trkpt lat="46.1597809" lon="11.2987376"><ele>1054.5</ele><time>2026-04-26T11:10:41.04Z</time></trkpt><trkpt lat="46.1598241" lon="11.2989122"><ele>1053.25</ele><time>2026-04-26T11:10:42.034Z</time></trkpt><trkpt lat="46.1598655" lon="11.2990849"><ele>1052.0</ele><time>2026-04-26T11:10:43.04Z</time></trkpt><trkpt lat="46.1598918" lon="11.2992598"><ele>1052.0</ele><time>2026-04-26T11:10:44.038Z</time></trkpt><trkpt lat="46.1599278" lon="11.2994309"><ele>1052.0</ele><time>2026-04-26T11:10:45.049Z</time></trkpt><trkpt lat="46.1599758" lon="11.2995956"><ele>1052.0</ele><time>2026-04-26T11:10:46.053Z</time></trkpt><trkpt lat="46.1600186" lon="11.2997543"><ele>1052.0</ele><time>2026-04-26T11:10:47.036Z</time></trkpt><trkpt lat="46.1600586" lon="11.2999057"><ele>1053.5</ele><time>2026-04-26T11:10:48.041Z</time></trkpt><trkpt lat="46.1600934" lon="11.300055"><ele>1055.0</ele><time>2026-04-26T11:10:49.031Z</time></trkpt><trkpt lat="46.1601204" lon="11.3002094"><ele>1056.5</ele><time>2026-04-26T11:10:50.031Z</time></trkpt><trkpt lat="46.1601331" lon="11.3003748"><ele>1058.0</ele><time>2026-04-26T11:10:51.038Z</time></trkpt><trkpt lat="46.1601288" lon="11.3005497"><ele>1060.0</ele><time>2026-04-26T11:10:52.044Z</time></trkpt><trkpt lat="46.1601116" lon="11.3007272"><ele>1062.0</ele><time>2026-04-26T11:10:53.034Z</time></trkpt><trkpt lat="46.1600807" lon="11.3009034"><ele>1064.0</ele><time>2026-04-26T11:10:54.041Z</time></trkpt><trkpt lat="46.1600433" lon="11.3010795"><ele>1066.0</ele><time>2026-04-26T11:10:55.044Z</time></trkpt><trkpt lat="46.1600078" lon="11.3012477"><ele>1066.0</ele><time>2026-04-26T11:10:56.043Z</time></trkpt><trkpt lat="46.1599794" lon="11.3014175"><ele>1066.0</ele><time>2026-04-26T11:10:57.047Z</time></trkpt><trkpt lat="46.1599561" lon="11.3015779"><ele>1066.0</ele><time>2026-04-26T11:10:58.052Z</time></trkpt><trkpt lat="46.1599357" lon="11.3017318"><ele>1066.0</ele><time>2026-04-26T11:10:59.033Z</time></trkpt><trkpt lat="46.1599162" lon="11.3018863"><ele>1066.0</ele><time>2026-04-26T11:11:00.055Z</time></trkpt><trkpt lat="46.1599021" lon="11.3020315"><ele>1066.0</ele><time>2026-04-26T11:11:01.045Z</time></trkpt><trkpt lat="46.1599128" lon="11.302167"><ele>1066.0</ele><time>2026-04-26T11:11:02.046Z</time></trkpt><trkpt lat="46.1599536" lon="11.3022886"><ele>1066.0</ele><time>2026-04-26T11:11:03.044Z</time></trkpt><trkpt lat="46.1599978" lon="11.3023975"><ele>1066.0</ele><time>2026-04-26T11:11:04.042Z</time></trkpt><trkpt lat="46.1600684" lon="11.3024623"><ele>1067.0</ele><time>2026-04-26T11:11:05.048Z</time></trkpt><trkpt lat="46.1601671" lon="11.3024672"><ele>1068.0</ele><time>2026-04-26T11:11:06.041Z</time></trkpt><trkpt lat="46.1602649" lon="11.3024457"><ele>1069.0</ele><time>2026-04-26T11:11:07.048Z</time></trkpt><trkpt lat="46.1603591" lon="11.3024312"><ele>1070.0</ele><time>2026-04-26T11:11:08.035Z</time></trkpt><trkpt lat="46.1604516" lon="11.3024291"><ele>1071.0</ele><time>2026-04-26T11:11:09.035Z</time></trkpt><trkpt lat="46.1605432" lon="11.3024419"><ele>1071.0</ele><time>2026-04-26T11:11:10.032Z</time></trkpt><trkpt lat="46.1606355" lon="11.3024535"><ele>1071.0</ele><time>2026-04-26T11:11:11.037Z</time></trkpt><trkpt lat="46.1607269" lon="11.3024706"><ele>1071.0</ele><time>2026-04-26T11:11:12.045Z</time></trkpt><trkpt lat="46.1608119" lon="11.3025289"><ele>1071.0</ele><time>2026-04-26T11:11:13.033Z</time></trkpt><trkpt lat="46.1608884" lon="11.3025782"><ele>1071.0</ele><time>2026-04-26T11:11:14.035Z</time></trkpt><trkpt lat="46.1609579" lon="11.3026659"><ele>1071.8</ele><time>2026-04-26T11:11:15.045Z</time></trkpt><trkpt lat="46.1610267" lon="11.3027335"><ele>1072.6</ele><time>2026-04-26T11:11:16.041Z</time></trkpt><trkpt lat="46.1611105" lon="11.3028088"><ele>1073.4</ele><time>2026-04-26T11:11:17.034Z</time></trkpt><trkpt lat="46.1612002" lon="11.3029029"><ele>1074.2</ele><time>2026-04-26T11:11:18.037Z</time></trkpt><trkpt lat="46.1612993" lon="11.3030005"><ele>1075.0</ele><time>2026-04-26T11:11:19.044Z</time></trkpt><trkpt lat="46.1613986" lon="11.3031014"><ele>1075.0</ele><time>2026-04-26T11:11:20.048Z</time></trkpt><trkpt lat="46.1614921" lon="11.303209"><ele>1075.0</ele><time>2026-04-26T11:11:21.039Z</time></trkpt><trkpt lat="46.161582" lon="11.3033255"><ele>1075.0</ele><time>2026-04-26T11:11:22.041Z</time></trkpt><trkpt lat="46.1616583" lon="11.3034703"><ele>1075.0</ele><time>2026-04-26T11:11:23.035Z</time></trkpt><trkpt lat="46.1617318" lon="11.3036284"><ele>1074.0</ele><time>2026-04-26T11:11:24.031Z</time></trkpt><trkpt lat="46.1618086" lon="11.3037976"><ele>1073.0</ele><time>2026-04-26T11:11:25.038Z</time></trkpt><trkpt lat="46.1618835" lon="11.3039833"><ele>1072.0</ele><time>2026-04-26T11:11:26.044Z</time></trkpt><trkpt lat="46.1619542" lon="11.3041863"><ele>1071.0</ele><time>2026-04-26T11:11:27.043Z</time></trkpt><trkpt lat="46.1620298" lon="11.3043965"><ele>1071.0</ele><time>2026-04-26T11:11:28.043Z</time></trkpt><trkpt lat="46.162107" lon="11.3046057"><ele>1071.0</ele><time>2026-04-26T11:11:29.047Z</time></trkpt><trkpt lat="46.1621771" lon="11.304815"><ele>1071.0</ele><time>2026-04-26T11:11:30.041Z</time></trkpt><trkpt lat="46.1622445" lon="11.3050199"><ele>1072.3333333333333</ele><time>2026-04-26T11:11:31.038Z</time></trkpt><trkpt lat="46.162313" lon="11.305216"><ele>1073.6666666666665</ele><time>2026-04-26T11:11:32.052Z</time></trkpt><trkpt lat="46.1623779" lon="11.3054095"><ele>1075.0</ele><time>2026-04-26T11:11:33.024Z</time></trkpt><trkpt lat="46.1624424" lon="11.3056031"><ele>1076.25</ele><time>2026-04-26T11:11:34.04Z</time></trkpt><trkpt lat="46.1625142" lon="11.3057886"><ele>1077.5</ele><time>2026-04-26T11:11:35.037Z</time></trkpt><trkpt lat="46.162601" lon="11.3059515"><ele>1078.75</ele><time>2026-04-26T11:11:36.038Z</time></trkpt><trkpt lat="46.1626992" lon="11.3060939"><ele>1080.0</ele><time>2026-04-26T11:11:37.053Z</time></trkpt><trkpt lat="46.1627975" lon="11.3062287"><ele>1080.0</ele><time>2026-04-26T11:11:38.039Z</time></trkpt><trkpt lat="46.1628976" lon="11.3063579"><ele>1080.0</ele><time>2026-04-26T11:11:39.037Z</time></trkpt><trkpt lat="46.1630029" lon="11.3064818"><ele>1080.0</ele><time>2026-04-26T11:11:40.029Z</time></trkpt><trkpt lat="46.1631068" lon="11.3066128"><ele>1080.0</ele><time>2026-04-26T11:11:41.034Z</time></trkpt><trkpt lat="46.1632277" lon="11.3067271"><ele>1075.6666666666667</ele><time>2026-04-26T11:11:42.035Z</time></trkpt><trkpt lat="46.1633648" lon="11.3068317"><ele>1071.3333333333335</ele><time>2026-04-26T11:11:43.045Z</time></trkpt><trkpt lat="46.1635128" lon="11.3069396"><ele>1067.0</ele><time>2026-04-26T11:11:44.038Z</time></trkpt><trkpt lat="46.1636738" lon="11.3070454"><ele>1067.0</ele><time>2026-04-26T11:11:45.042Z</time></trkpt><trkpt lat="46.1638435" lon="11.3071475"><ele>1067.0</ele><time>2026-04-26T11:11:46.039Z</time></trkpt><trkpt lat="46.1640112" lon="11.3072618"><ele>1067.0</ele><time>2026-04-26T11:11:47.038Z</time></trkpt><trkpt lat="46.1641576" lon="11.3074125"><ele>1069.3333333333335</ele><time>2026-04-26T11:11:48.033Z</time></trkpt><trkpt lat="46.1643093" lon="11.3075293"><ele>1071.6666666666667</ele><time>2026-04-26T11:11:49.044Z</time></trkpt><trkpt lat="46.1644579" lon="11.3076433"><ele>1074.0</ele><time>2026-04-26T11:11:50.034Z</time></trkpt><trkpt lat="46.1646006" lon="11.3077681"><ele>1074.0</ele><time>2026-04-26T11:11:51.04Z</time></trkpt><trkpt lat="46.1647323" lon="11.3078976"><ele>1074.0</ele><time>2026-04-26T11:11:52.044Z</time></trkpt><trkpt lat="46.1648316" lon="11.3080679"><ele>1074.0</ele><time>2026-04-26T11:11:53.047Z</time></trkpt><trkpt lat="46.164917" lon="11.3082483"><ele>1078.3333333333333</ele><time>2026-04-26T11:11:54.049Z</time></trkpt><trkpt lat="46.1649962" lon="11.3084333"><ele>1082.6666666666665</ele><time>2026-04-26T11:11:55.049Z</time></trkpt><trkpt lat="46.1650859" lon="11.3086086"><ele>1087.0</ele><time>2026-04-26T11:11:56.05Z</time></trkpt><trkpt lat="46.16519" lon="11.3087693"><ele>1096.3333333333333</ele><time>2026-04-26T11:11:57.037Z</time></trkpt><trkpt lat="46.1653063" lon="11.3089243"><ele>1105.6666666666667</ele><time>2026-04-26T11:11:58.041Z</time></trkpt><trkpt lat="46.165429" lon="11.309074"><ele>1115.0</ele><time>2026-04-26T11:11:59.036Z</time></trkpt><trkpt lat="46.1655564" lon="11.3092175"><ele>1115.0</ele><time>2026-04-26T11:12:00.049Z</time></trkpt><trkpt lat="46.1656905" lon="11.3093544"><ele>1115.0</ele><time>2026-04-26T11:12:01.038Z</time></trkpt><trkpt lat="46.1658389" lon="11.3094725"><ele>1115.0</ele><time>2026-04-26T11:12:02.041Z</time></trkpt><trkpt lat="46.1660004" lon="11.3095628"><ele>1113.6666666666667</ele><time>2026-04-26T11:12:03.04Z</time></trkpt><trkpt lat="46.1661636" lon="11.3096439"><ele>1112.3333333333333</ele><time>2026-04-26T11:12:04.052Z</time></trkpt><trkpt lat="46.1663233" lon="11.3097228"><ele>1111.0</ele><time>2026-04-26T11:12:05.039Z</time></trkpt><trkpt lat="46.1664792" lon="11.3097993"><ele>1104.0</ele><time>2026-04-26T11:12:06.051Z</time></trkpt><trkpt lat="46.1666318" lon="11.3098677"><ele>1097.0</ele><time>2026-04-26T11:12:07.035Z</time></trkpt><trkpt lat="46.1667802" lon="11.3099511"><ele>1090.0</ele><time>2026-04-26T11:12:08.041Z</time></trkpt><trkpt lat="46.1669309" lon="11.3100255"><ele>1090.0</ele><time>2026-04-26T11:12:09.041Z</time></trkpt><trkpt lat="46.1670789" lon="11.3101041"><ele>1090.0</ele><time>2026-04-26T11:12:10.037Z</time></trkpt><trkpt lat="46.1672271" lon="11.310178"><ele>1090.0</ele><time>2026-04-26T11:12:11.038Z</time></trkpt><trkpt lat="46.1673743" lon="11.3102469"><ele>1085.75</ele><time>2026-04-26T11:12:12.038Z</time></trkpt><trkpt lat="46.1675186" lon="11.3103151"><ele>1081.5</ele><time>2026-04-26T11:12:13.041Z</time></trkpt><trkpt lat="46.1676565" lon="11.3103907"><ele>1077.25</ele><time>2026-04-26T11:12:14.044Z</time></trkpt><trkpt lat="46.1677903" lon="11.3104691"><ele>1073.0</ele><time>2026-04-26T11:12:15.058Z</time></trkpt><trkpt lat="46.1679233" lon="11.3105469"><ele>1075.5</ele><time>2026-04-26T11:12:16.032Z</time></trkpt><trkpt lat="46.1680448" lon="11.3106622"><ele>1078.0</ele><time>2026-04-26T11:12:17.039Z</time></trkpt><trkpt lat="46.1681549" lon="11.3107984"><ele>1080.5</ele><time>2026-04-26T11:12:18.051Z</time></trkpt><trkpt lat="46.168249" lon="11.3109619"><ele>1083.0</ele><time>2026-04-26T11:12:19.042Z</time></trkpt><trkpt lat="46.1683333" lon="11.3111436"><ele>1083.0</ele><time>2026-04-26T11:12:20.04Z</time></trkpt><trkpt lat="46.1684122" lon="11.311336"><ele>1083.0</ele><time>2026-04-26T11:12:21.04Z</time></trkpt><trkpt lat="46.1684867" lon="11.3115285"><ele>1083.0</ele><time>2026-04-26T11:12:22.052Z</time></trkpt><trkpt lat="46.168567" lon="11.3117099"><ele>1083.75</ele><time>2026-04-26T11:12:23.059Z</time></trkpt><trkpt lat="46.1686528" lon="11.3118826"><ele>1084.5</ele><time>2026-04-26T11:12:24.04Z</time></trkpt><trkpt lat="46.1687523" lon="11.3120385"><ele>1085.25</ele><time>2026-04-26T11:12:25.034Z</time></trkpt><trkpt lat="46.1688783" lon="11.3121587"><ele>1086.0</ele><time>2026-04-26T11:12:26.042Z</time></trkpt><trkpt lat="46.1690239" lon="11.3122418"><ele>1086.3333333333333</ele><time>2026-04-26T11:12:27.053Z</time></trkpt><trkpt lat="46.1691817" lon="11.3122904"><ele>1086.6666666666665</ele><time>2026-04-26T11:12:28.047Z</time></trkpt><trkpt lat="46.1693419" lon="11.3123254"><ele>1087.0</ele><time>2026-04-26T11:12:29.042Z</time></trkpt><trkpt lat="46.1695008" lon="11.3123533"><ele>1087.0</ele><time>2026-04-26T11:12:30.033Z</time></trkpt><trkpt lat="46.169653" lon="11.3124016"><ele>1087.0</ele><time>2026-04-26T11:12:31.043Z</time></trkpt><trkpt lat="46.1697906" lon="11.3124904"><ele>1087.0</ele><time>2026-04-26T11:12:32.04Z</time></trkpt><trkpt lat="46.1699117" lon="11.3126186"><ele>1087.0</ele><time>2026-04-26T11:12:33.044Z</time></trkpt><trkpt lat="46.1700186" lon="11.3127708"><ele>1087.0</ele><time>2026-04-26T11:12:34.036Z</time></trkpt><trkpt lat="46.1701296" lon="11.3129202"><ele>1087.0</ele><time>2026-04-26T11:12:35.05Z</time></trkpt><trkpt lat="46.1702507" lon="11.3130628"><ele>1091.0</ele><time>2026-04-26T11:12:36.04Z</time></trkpt><trkpt lat="46.1703732" lon="11.3132071"><ele>1095.0</ele><time>2026-04-26T11:12:37.044Z</time></trkpt><trkpt lat="46.1704893" lon="11.3133638"><ele>1099.0</ele><time>2026-04-26T11:12:38.04Z</time></trkpt><trkpt lat="46.170605" lon="11.3135256"><ele>1096.3333333333333</ele><time>2026-04-26T11:12:39.04Z</time></trkpt><trkpt lat="46.1707298" lon="11.3136834"><ele>1093.6666666666667</ele><time>2026-04-26T11:12:40.038Z</time></trkpt><trkpt lat="46.1708523" lon="11.3138638"><ele>1091.0</ele><time>2026-04-26T11:12:41.046Z</time></trkpt><trkpt lat="46.1709901" lon="11.3140512"><ele>1098.3333333333335</ele><time>2026-04-26T11:12:42.046Z</time></trkpt><trkpt lat="46.1711313" lon="11.3142459"><ele>1105.6666666666667</ele><time>2026-04-26T11:12:43.047Z</time></trkpt><trkpt lat="46.1712755" lon="11.314428"><ele>1113.0</ele><time>2026-04-26T11:12:44.035Z</time></trkpt><trkpt lat="46.1714249" lon="11.314582"><ele>1108.6666666666667</ele><time>2026-04-26T11:12:45.05Z</time></trkpt><trkpt lat="46.1715784" lon="11.3147036"><ele>1104.3333333333335</ele><time>2026-04-26T11:12:46.043Z</time></trkpt><trkpt lat="46.1717273" lon="11.3148162"><ele>1100.0</ele><time>2026-04-26T11:12:47.047Z</time></trkpt><trkpt lat="46.1718632" lon="11.31494"><ele>1100.0</ele><time>2026-04-26T11:12:48.041Z</time></trkpt><trkpt lat="46.171965" lon="11.3151167"><ele>1100.0</ele><time>2026-04-26T11:12:49.037Z</time></trkpt><trkpt lat="46.1720511" lon="11.3153043"><ele>1100.0</ele><time>2026-04-26T11:12:50.042Z</time></trkpt><trkpt lat="46.1721112" lon="11.3155111"><ele>1105.3333333333335</ele><time>2026-04-26T11:12:51.036Z</time></trkpt><trkpt lat="46.1721434" lon="11.3157354"><ele>1110.6666666666667</ele><time>2026-04-26T11:12:52.04Z</time></trkpt><trkpt lat="46.1721798" lon="11.3159575"><ele>1116.0</ele><time>2026-04-26T11:12:53.045Z</time></trkpt><trkpt lat="46.1722519" lon="11.3161717"><ele>1110.0</ele><time>2026-04-26T11:12:54.034Z</time></trkpt><trkpt lat="46.1723594" lon="11.3163695"><ele>1104.0</ele><time>2026-04-26T11:12:55.04Z</time></trkpt><trkpt lat="46.1724829" lon="11.3165625"><ele>1098.0</ele><time>2026-04-26T11:12:56.04Z</time></trkpt><trkpt lat="46.1726137" lon="11.3167536"><ele>1098.0</ele><time>2026-04-26T11:12:57.046Z</time></trkpt><trkpt lat="46.172748" lon="11.316949"><ele>1098.0</ele><time>2026-04-26T11:12:58.05Z</time></trkpt><trkpt lat="46.1728843" lon="11.3171354"><ele>1098.0</ele><time>2026-04-26T11:12:59.047Z</time></trkpt><trkpt lat="46.1730134" lon="11.3173114"><ele>1097.6666666666667</ele><time>2026-04-26T11:13:00.053Z</time></trkpt><trkpt lat="46.1731334" lon="11.3174937"><ele>1097.3333333333335</ele><time>2026-04-26T11:13:01.042Z</time></trkpt><trkpt lat="46.1732517" lon="11.3176709"><ele>1097.0</ele><time>2026-04-26T11:13:02.049Z</time></trkpt><trkpt lat="46.1733679" lon="11.317848"><ele>1097.0</ele><time>2026-04-26T11:13:03.044Z</time></trkpt><trkpt lat="46.1734852" lon="11.3180218"><ele>1097.0</ele><time>2026-04-26T11:13:04.048Z</time></trkpt><trkpt lat="46.1736041" lon="11.3181777"><ele>1097.0</ele><time>2026-04-26T11:13:05.036Z</time></trkpt><trkpt lat="46.1737236" lon="11.3183264"><ele>1098.0</ele><time>2026-04-26T11:13:06.035Z</time></trkpt><trkpt lat="46.1738568" lon="11.3184517"><ele>1099.0</ele><time>2026-04-26T11:13:07.035Z</time></trkpt><trkpt lat="46.1740019" lon="11.3185609"><ele>1100.0</ele><time>2026-04-26T11:13:08.028Z</time></trkpt><trkpt lat="46.1741521" lon="11.3186466"><ele>1100.0</ele><time>2026-04-26T11:13:09.038Z</time></trkpt><trkpt lat="46.1743023" lon="11.3187124"><ele>1100.0</ele><time>2026-04-26T11:13:10.033Z</time></trkpt><trkpt lat="46.174445" lon="11.3188038"><ele>1100.0</ele><time>2026-04-26T11:13:11.042Z</time></trkpt><trkpt lat="46.17458" lon="11.3189163"><ele>1099.6666666666667</ele><time>2026-04-26T11:13:12.05Z</time></trkpt><trkpt lat="46.1746907" lon="11.3190771"><ele>1099.3333333333333</ele><time>2026-04-26T11:13:13.055Z</time></trkpt><trkpt lat="46.1747845" lon="11.3192678"><ele>1099.0</ele><time>2026-04-26T11:13:14.057Z</time></trkpt><trkpt lat="46.1748821" lon="11.3194558"><ele>1099.0</ele><time>2026-04-26T11:13:15.047Z</time></trkpt><trkpt lat="46.1749785" lon="11.3196401"><ele>1099.0</ele><time>2026-04-26T11:13:16.037Z</time></trkpt><trkpt lat="46.1750745" lon="11.3198199"><ele>1099.0</ele><time>2026-04-26T11:13:17.04Z</time></trkpt><trkpt lat="46.1751641" lon="11.3200031"><ele>1100.3333333333333</ele><time>2026-04-26T11:13:18.055Z</time></trkpt><trkpt lat="46.1752453" lon="11.3201944"><ele>1101.6666666666667</ele><time>2026-04-26T11:13:19.043Z</time></trkpt><trkpt lat="46.175313" lon="11.3203934"><ele>1103.0</ele><time>2026-04-26T11:13:20.035Z</time></trkpt><trkpt lat="46.1753682" lon="11.3205985"><ele>1106.5</ele><time>2026-04-26T11:13:21.04Z</time></trkpt><trkpt lat="46.1754245" lon="11.3208019"><ele>1110.0</ele><time>2026-04-26T11:13:22.032Z</time></trkpt><trkpt lat="46.1754761" lon="11.3210051"><ele>1113.5</ele><time>2026-04-26T11:13:23.04Z</time></trkpt><trkpt lat="46.1755348" lon="11.3211973"><ele>1117.0</ele><time>2026-04-26T11:13:24.038Z</time></trkpt><trkpt lat="46.1756315" lon="11.3213623"><ele>1113.3333333333333</ele><time>2026-04-26T11:13:25.058Z</time></trkpt><trkpt lat="46.1757419" lon="11.3215097"><ele>1109.6666666666667</ele><time>2026-04-26T11:13:26.033Z</time></trkpt><trkpt lat="46.1758627" lon="11.3216566"><ele>1106.0</ele><time>2026-04-26T11:13:27.039Z</time></trkpt><trkpt lat="46.1759885" lon="11.3218003"><ele>1106.0</ele><time>2026-04-26T11:13:28.038Z</time></trkpt><trkpt lat="46.1761144" lon="11.3219481"><ele>1106.0</ele><time>2026-04-26T11:13:29.037Z</time></trkpt><trkpt lat="46.1762403" lon="11.3221018"><ele>1106.0</ele><time>2026-04-26T11:13:30.048Z</time></trkpt><trkpt lat="46.1763718" lon="11.3222582"><ele>1105.0</ele><time>2026-04-26T11:13:31.045Z</time></trkpt><trkpt lat="46.1764992" lon="11.3224273"><ele>1104.0</ele><time>2026-04-26T11:13:32.048Z</time></trkpt><trkpt lat="46.1766188" lon="11.3226161"><ele>1103.0</ele><time>2026-04-26T11:13:33.048Z</time></trkpt><trkpt lat="46.1767356" lon="11.3228136"><ele>1103.0</ele><time>2026-04-26T11:13:34.041Z</time></trkpt><trkpt lat="46.176853" lon="11.3230157"><ele>1103.0</ele><time>2026-04-26T11:13:35.034Z</time></trkpt><trkpt lat="46.1769735" lon="11.3232181"><ele>1103.0</ele><time>2026-04-26T11:13:36.032Z</time></trkpt><trkpt lat="46.1770985" lon="11.323416"><ele>1108.6666666666667</ele><time>2026-04-26T11:13:37.036Z</time></trkpt><trkpt lat="46.1772227" lon="11.3236091"><ele>1114.3333333333333</ele><time>2026-04-26T11:13:38.037Z</time></trkpt><trkpt lat="46.1773432" lon="11.3237974"><ele>1120.0</ele><time>2026-04-26T11:13:39.053Z</time></trkpt><trkpt lat="46.1774603" lon="11.3239803"><ele>1120.0</ele><time>2026-04-26T11:13:40.044Z</time></trkpt><trkpt lat="46.1775816" lon="11.3241543"><ele>1120.0</ele><time>2026-04-26T11:13:41.047Z</time></trkpt><trkpt lat="46.1777115" lon="11.3243032"><ele>1120.0</ele><time>2026-04-26T11:13:42.035Z</time></trkpt><trkpt lat="46.1778497" lon="11.324425"><ele>1120.0</ele><time>2026-04-26T11:13:43.037Z</time></trkpt><trkpt lat="46.1779908" lon="11.3245206"><ele>1120.0</ele><time>2026-04-26T11:13:44.039Z</time></trkpt><trkpt lat="46.1781292" lon="11.3246189"><ele>1120.0</ele><time>2026-04-26T11:13:45.036Z</time></trkpt><trkpt lat="46.1782649" lon="11.3247119"><ele>1119.5</ele><time>2026-04-26T11:13:46.038Z</time></trkpt><trkpt lat="46.1783971" lon="11.3248129"><ele>1119.0</ele><time>2026-04-26T11:13:47.042Z</time></trkpt><trkpt lat="46.1785273" lon="11.3249163"><ele>1118.5</ele><time>2026-04-26T11:13:48.051Z</time></trkpt><trkpt lat="46.178658" lon="11.3250182"><ele>1118.0</ele><time>2026-04-26T11:13:49.036Z</time></trkpt><trkpt lat="46.1787873" lon="11.3251168"><ele>1118.0</ele><time>2026-04-26T11:13:50.029Z</time></trkpt><trkpt lat="46.1789141" lon="11.3252145"><ele>1118.0</ele><time>2026-04-26T11:13:51.03Z</time></trkpt><trkpt lat="46.1790491" lon="11.3252857"><ele>1118.0</ele><time>2026-04-26T11:13:52.038Z</time></trkpt><trkpt lat="46.1791909" lon="11.3253434"><ele>1118.0</ele><time>2026-04-26T11:13:53.045Z</time></trkpt><trkpt lat="46.1793389" lon="11.3253972"><ele>1118.3333333333335</ele><time>2026-04-26T11:13:54.041Z</time></trkpt><trkpt lat="46.1794909" lon="11.3254465"><ele>1118.6666666666667</ele><time>2026-04-26T11:13:55.045Z</time></trkpt><trkpt lat="46.1796424" lon="11.3255038"><ele>1119.0</ele><time>2026-04-26T11:13:56.038Z</time></trkpt><trkpt lat="46.179792" lon="11.3255666"><ele>1115.3333333333333</ele><time>2026-04-26T11:13:57.044Z</time></trkpt><trkpt lat="46.1799415" lon="11.3256262"><ele>1111.6666666666665</ele><time>2026-04-26T11:13:58.037Z</time></trkpt><trkpt lat="46.1800849" lon="11.3257071"><ele>1108.0</ele><time>2026-04-26T11:13:59.044Z</time></trkpt><trkpt lat="46.1802209" lon="11.3258087"><ele>1108.0</ele><time>2026-04-26T11:14:00.064Z</time></trkpt><trkpt lat="46.1803443" lon="11.3259345"><ele>1108.0</ele><time>2026-04-26T11:14:01.035Z</time></trkpt><trkpt lat="46.1804559" lon="11.3260653"><ele>1108.0</ele><time>2026-04-26T11:14:02.044Z</time></trkpt><trkpt lat="46.1805621" lon="11.3261776"><ele>1108.0</ele><time>2026-04-26T11:14:03.053Z</time></trkpt><trkpt lat="46.1806716" lon="11.3262598"><ele>1106.0</ele><time>2026-04-26T11:14:04.036Z</time></trkpt><trkpt lat="46.1807857" lon="11.3263039"><ele>1104.0</ele><time>2026-04-26T11:14:05.049Z</time></trkpt><trkpt lat="46.1808995" lon="11.3263008"><ele>1102.0</ele><time>2026-04-26T11:14:06.034Z</time></trkpt><trkpt lat="46.1810113" lon="11.3262803"><ele>1100.0</ele><time>2026-04-26T11:14:07.036Z</time></trkpt><trkpt lat="46.1811217" lon="11.3262669"><ele>1100.0</ele><time>2026-04-26T11:14:08.048Z</time></trkpt><trkpt lat="46.1812272" lon="11.3262346"><ele>1100.0</ele><time>2026-04-26T11:14:09.043Z</time></trkpt><trkpt lat="46.1813283" lon="11.3262002"><ele>1100.0</ele><time>2026-04-26T11:14:10.053Z</time></trkpt><trkpt lat="46.1814241" lon="11.3261596"><ele>1100.0</ele><time>2026-04-26T11:14:11.046Z</time></trkpt><trkpt lat="46.1815157" lon="11.3261048"><ele>1100.0</ele><time>2026-04-26T11:14:12.06Z</time></trkpt><trkpt lat="46.1816014" lon="11.3260493"><ele>1100.8</ele><time>2026-04-26T11:14:13.033Z</time></trkpt><trkpt lat="46.181688" lon="11.3260004"><ele>1101.6</ele><time>2026-04-26T11:14:14.041Z</time></trkpt><trkpt lat="46.1817804" lon="11.325973"><ele>1102.4</ele><time>2026-04-26T11:14:15.041Z</time></trkpt><trkpt lat="46.1818732" lon="11.3259393"><ele>1103.2</ele><time>2026-04-26T11:14:16.036Z</time></trkpt><trkpt lat="46.1819664" lon="11.3259138"><ele>1104.0</ele><time>2026-04-26T11:14:17.03Z</time></trkpt><trkpt lat="46.1820596" lon="11.3259078"><ele>1104.0</ele><time>2026-04-26T11:14:18.042Z</time></trkpt><trkpt lat="46.1821496" lon="11.3259048"><ele>1104.0</ele><time>2026-04-26T11:14:19.049Z</time></trkpt><trkpt lat="46.1822408" lon="11.3259609"><ele>1104.0</ele><time>2026-04-26T11:14:20.039Z</time></trkpt><trkpt lat="46.1823239" lon="11.3259621"><ele>1104.0</ele><time>2026-04-26T11:14:21.043Z</time></trkpt><trkpt lat="46.1824002" lon="11.3260174"><ele>1104.0</ele><time>2026-04-26T11:14:22.037Z</time></trkpt><trkpt lat="46.1824756" lon="11.3260376"><ele>1104.0</ele><time>2026-04-26T11:14:23.039Z</time></trkpt><trkpt lat="46.1825541" lon="11.3260562"><ele>1105.0</ele><time>2026-04-26T11:14:24.039Z</time></trkpt><trkpt lat="46.1826385" lon="11.3260879"><ele>1106.0</ele><time>2026-04-26T11:14:25.053Z</time></trkpt><trkpt lat="46.1827296" lon="11.3261157"><ele>1107.0</ele><time>2026-04-26T11:14:26.04Z</time></trkpt><trkpt lat="46.1828322" lon="11.3261245"><ele>1108.0</ele><time>2026-04-26T11:14:27.043Z</time></trkpt><trkpt lat="46.1829454" lon="11.3261429"><ele>1109.0</ele><time>2026-04-26T11:14:28.042Z</time></trkpt><trkpt lat="46.1830633" lon="11.326157"><ele>1109.0</ele><time>2026-04-26T11:14:29.047Z</time></trkpt><trkpt lat="46.1831893" lon="11.3261475"><ele>1109.0</ele><time>2026-04-26T11:14:30.052Z</time></trkpt><trkpt lat="46.183311" lon="11.3261915"><ele>1109.0</ele><time>2026-04-26T11:14:31.046Z</time></trkpt><trkpt lat="46.1834183" lon="11.3262867"><ele>1109.0</ele><time>2026-04-26T11:14:32.033Z</time></trkpt><trkpt lat="46.1835183" lon="11.3264051"><ele>1109.0</ele><time>2026-04-26T11:14:33.045Z</time></trkpt><trkpt lat="46.1836014" lon="11.3265408"><ele>1109.0</ele><time>2026-04-26T11:14:34.046Z</time></trkpt><trkpt lat="46.1836746" lon="11.3266857"><ele>1109.0</ele><time>2026-04-26T11:14:35.045Z</time></trkpt><trkpt lat="46.1837491" lon="11.3268259"><ele>1109.0</ele><time>2026-04-26T11:14:36.054Z</time></trkpt><trkpt lat="46.1837869" lon="11.3269884"><ele>1109.0</ele><time>2026-04-26T11:14:37.049Z</time></trkpt><trkpt lat="46.1837994" lon="11.3271601"><ele>1109.0</ele><time>2026-04-26T11:14:38.041Z</time></trkpt><trkpt lat="46.1837947" lon="11.3273408"><ele>1109.0</ele><time>2026-04-26T11:14:39.038Z</time></trkpt><trkpt lat="46.1837787" lon="11.327526"><ele>1109.0</ele><time>2026-04-26T11:14:40.041Z</time></trkpt><trkpt lat="46.183747" lon="11.327714"><ele>1109.5</ele><time>2026-04-26T11:14:41.04Z</time></trkpt><trkpt lat="46.1836815" lon="11.3278931"><ele>1110.0</ele><time>2026-04-26T11:14:42.039Z</time></trkpt><trkpt lat="46.183605" lon="11.328073"><ele>1110.5</ele><time>2026-04-26T11:14:43.051Z</time></trkpt><trkpt lat="46.1835079" lon="11.3282445"><ele>1111.0</ele><time>2026-04-26T11:14:44.052Z</time></trkpt><trkpt lat="46.1834236" lon="11.3284286"><ele>1109.75</ele><time>2026-04-26T11:14:45.05Z</time></trkpt><trkpt lat="46.1833463" lon="11.3286142"><ele>1108.5</ele><time>2026-04-26T11:14:46.042Z</time></trkpt><trkpt lat="46.1832705" lon="11.3287991"><ele>1107.25</ele><time>2026-04-26T11:14:47.041Z</time></trkpt><trkpt lat="46.1831844" lon="11.3289633"><ele>1106.0</ele><time>2026-04-26T11:14:48.057Z</time></trkpt><trkpt lat="46.1831477" lon="11.3291627"><ele>1111.25</ele><time>2026-04-26T11:14:49.049Z</time></trkpt><trkpt lat="46.1831303" lon="11.3293622"><ele>1116.5</ele><time>2026-04-26T11:14:50.056Z</time></trkpt><trkpt lat="46.1830913" lon="11.3295455"><ele>1121.75</ele><time>2026-04-26T11:14:51.043Z</time></trkpt><trkpt lat="46.1831" lon="11.3297239"><ele>1127.0</ele><time>2026-04-26T11:14:52.04Z</time></trkpt><trkpt lat="46.1831576" lon="11.3298876"><ele>1119.25</ele><time>2026-04-26T11:14:53.041Z</time></trkpt><trkpt lat="46.1832418" lon="11.3300412"><ele>1111.5</ele><time>2026-04-26T11:14:54.044Z</time></trkpt><trkpt lat="46.1833377" lon="11.3301974"><ele>1103.75</ele><time>2026-04-26T11:14:55.042Z</time></trkpt><trkpt lat="46.1834366" lon="11.3303514"><ele>1096.0</ele><time>2026-04-26T11:14:56.037Z</time></trkpt><trkpt lat="46.1835244" lon="11.3305151"><ele>1098.0</ele><time>2026-04-26T11:14:57.043Z</time></trkpt><trkpt lat="46.1836074" lon="11.3306757"><ele>1100.0</ele><time>2026-04-26T11:14:58.05Z</time></trkpt><trkpt lat="46.1836708" lon="11.33085"><ele>1102.0</ele><time>2026-04-26T11:14:59.04Z</time></trkpt><trkpt lat="46.1837541" lon="11.3309966"><ele>1104.0</ele><time>2026-04-26T11:15:00.075Z</time></trkpt><trkpt lat="46.1838557" lon="11.3311233"><ele>1104.0</ele><time>2026-04-26T11:15:01.045Z</time></trkpt><trkpt lat="46.1839805" lon="11.3312179"><ele>1104.0</ele><time>2026-04-26T11:15:02.057Z</time></trkpt><trkpt lat="46.1841182" lon="11.3312868"><ele>1104.0</ele><time>2026-04-26T11:15:03.049Z</time></trkpt><trkpt lat="46.1842578" lon="11.3313179"><ele>1104.0</ele><time>2026-04-26T11:15:04.049Z</time></trkpt><trkpt lat="46.184392" lon="11.3313423"><ele>1105.0</ele><time>2026-04-26T11:15:05.058Z</time></trkpt><trkpt lat="46.1845355" lon="11.3312673"><ele>1106.0</ele><time>2026-04-26T11:15:06.04Z</time></trkpt><trkpt lat="46.18467" lon="11.3312075"><ele>1107.0</ele><time>2026-04-26T11:15:07.051Z</time></trkpt><trkpt lat="46.184789" lon="11.3310899"><ele>1108.0</ele><time>2026-04-26T11:15:08.054Z</time></trkpt><trkpt lat="46.1848911" lon="11.3309367"><ele>1110.0</ele><time>2026-04-26T11:15:09.068Z</time></trkpt><trkpt lat="46.1849717" lon="11.3307494"><ele>1112.0</ele><time>2026-04-26T11:15:10.048Z</time></trkpt><trkpt lat="46.1850548" lon="11.3305491"><ele>1114.0</ele><time>2026-04-26T11:15:11.041Z</time></trkpt><trkpt lat="46.1851378" lon="11.3303588"><ele>1109.0</ele><time>2026-04-26T11:15:12.036Z</time></trkpt><trkpt lat="46.1852272" lon="11.3301757"><ele>1104.0</ele><time>2026-04-26T11:15:13.045Z</time></trkpt><trkpt lat="46.1853278" lon="11.3300008"><ele>1099.0</ele><time>2026-04-26T11:15:14.04Z</time></trkpt><trkpt lat="46.18545" lon="11.3298476"><ele>1096.3333333333333</ele><time>2026-04-26T11:15:15.039Z</time></trkpt><trkpt lat="46.1855867" lon="11.3297182"><ele>1093.6666666666667</ele><time>2026-04-26T11:15:16.032Z</time></trkpt><trkpt lat="46.1857296" lon="11.3296225"><ele>1091.0</ele><time>2026-04-26T11:15:17.053Z</time></trkpt><trkpt lat="46.1858732" lon="11.3295486"><ele>1091.0</ele><time>2026-04-26T11:15:18.043Z</time></trkpt><trkpt lat="46.1860208" lon="11.3295102"><ele>1091.0</ele><time>2026-04-26T11:15:19.042Z</time></trkpt><trkpt lat="46.186167" lon="11.3294992"><ele>1091.0</ele><time>2026-04-26T11:15:20.043Z</time></trkpt><trkpt lat="46.1863041" lon="11.3294667"><ele>1091.0</ele><time>2026-04-26T11:15:21.045Z</time></trkpt><trkpt lat="46.1864481" lon="11.3294785"><ele>1092.6666666666667</ele><time>2026-04-26T11:15:22.058Z</time></trkpt><trkpt lat="46.1865915" lon="11.3295343"><ele>1094.3333333333333</ele><time>2026-04-26T11:15:23.042Z</time></trkpt><trkpt lat="46.1867328" lon="11.3296318"><ele>1096.0</ele><time>2026-04-26T11:15:24.049Z</time></trkpt><trkpt lat="46.186872" lon="11.3297494"><ele>1099.3333333333333</ele><time>2026-04-26T11:15:25.033Z</time></trkpt><trkpt lat="46.1870165" lon="11.329847"><ele>1102.6666666666667</ele><time>2026-04-26T11:15:26.038Z</time></trkpt><trkpt lat="46.187165" lon="11.3299273"><ele>1106.0</ele><time>2026-04-26T11:15:27.056Z</time></trkpt><trkpt lat="46.1873102" lon="11.329993"><ele>1108.0</ele><time>2026-04-26T11:15:28.046Z</time></trkpt><trkpt lat="46.1874621" lon="11.3299983"><ele>1110.0</ele><time>2026-04-26T11:15:29.039Z</time></trkpt><trkpt lat="46.1876132" lon="11.3299425"><ele>1112.0</ele><time>2026-04-26T11:15:30.056Z</time></trkpt><trkpt lat="46.1877615" lon="11.3298468"><ele>1112.0</ele><time>2026-04-26T11:15:31.052Z</time></trkpt><trkpt lat="46.1879151" lon="11.3297298"><ele>1112.0</ele><time>2026-04-26T11:15:32.066Z</time></trkpt><trkpt lat="46.1880739" lon="11.3295988"><ele>1112.0</ele><time>2026-04-26T11:15:33.047Z</time></trkpt><trkpt lat="46.1882339" lon="11.3294575"><ele>1110.0</ele><time>2026-04-26T11:15:34.044Z</time></trkpt><trkpt lat="46.1883843" lon="11.3292974"><ele>1108.0</ele><time>2026-04-26T11:15:35.044Z</time></trkpt><trkpt lat="46.188536" lon="11.3291522"><ele>1106.0</ele><time>2026-04-26T11:15:36.044Z</time></trkpt><trkpt lat="46.1886915" lon="11.3290485"><ele>1106.0</ele><time>2026-04-26T11:15:37.059Z</time></trkpt><trkpt lat="46.188841" lon="11.3289611"><ele>1106.0</ele><time>2026-04-26T11:15:38.046Z</time></trkpt><trkpt lat="46.1889928" lon="11.3288965"><ele>1106.0</ele><time>2026-04-26T11:15:39.043Z</time></trkpt><trkpt lat="46.1891493" lon="11.328904"><ele>1109.75</ele><time>2026-04-26T11:15:40.054Z</time></trkpt><trkpt lat="46.1892994" lon="11.3289648"><ele>1113.5</ele><time>2026-04-26T11:15:41.04Z</time></trkpt><trkpt lat="46.1894383" lon="11.329019"><ele>1117.25</ele><time>2026-04-26T11:15:42.045Z</time></trkpt><trkpt lat="46.1895757" lon="11.3289934"><ele>1121.0</ele><time>2026-04-26T11:15:43.049Z</time></trkpt><trkpt lat="46.18971" lon="11.3289394"><ele>1112.3333333333335</ele><time>2026-04-26T11:15:44.037Z</time></trkpt><trkpt lat="46.1898402" lon="11.3288424"><ele>1103.6666666666667</ele><time>2026-04-26T11:15:45.055Z</time></trkpt><trkpt lat="46.1899658" lon="11.3286837"><ele>1095.0</ele><time>2026-04-26T11:15:46.038Z</time></trkpt><trkpt lat="46.1901176" lon="11.3285661"><ele>1094.6666666666667</ele><time>2026-04-26T11:15:47.052Z</time></trkpt><trkpt lat="46.190289" lon="11.3284698"><ele>1094.3333333333335</ele><time>2026-04-26T11:15:48.05Z</time></trkpt><trkpt lat="46.1904689" lon="11.3283931"><ele>1094.0</ele><time>2026-04-26T11:15:49.045Z</time></trkpt><trkpt lat="46.1906521" lon="11.3283187"><ele>1099.6666666666667</ele><time>2026-04-26T11:15:50.05Z</time></trkpt><trkpt lat="46.1908321" lon="11.3282402"><ele>1105.3333333333333</ele><time>2026-04-26T11:15:51.047Z</time></trkpt><trkpt lat="46.1910027" lon="11.3281562"><ele>1111.0</ele><time>2026-04-26T11:15:52.04Z</time></trkpt><trkpt lat="46.1914884" lon="11.3279554"><ele>1101.3333333333333</ele><time>2026-04-26T11:15:55.04Z</time></trkpt><trkpt lat="46.1916409" lon="11.3278366"><ele>1091.6666666666667</ele><time>2026-04-26T11:15:56.057Z</time></trkpt><trkpt lat="46.1918136" lon="11.3277508"><ele>1082.0</ele><time>2026-04-26T11:15:57.065Z</time></trkpt><trkpt lat="46.1919624" lon="11.3277312"><ele>1082.0</ele><time>2026-04-26T11:15:58.073Z</time></trkpt><trkpt lat="46.1921192" lon="11.3277608"><ele>1082.0</ele><time>2026-04-26T11:15:59.04Z</time></trkpt><trkpt lat="46.1922556" lon="11.3278701"><ele>1082.0</ele><time>2026-04-26T11:16:00.042Z</time></trkpt><trkpt lat="46.1923892" lon="11.3279335"><ele>1083.5</ele><time>2026-04-26T11:16:01.041Z</time></trkpt><trkpt lat="46.19253" lon="11.3279493"><ele>1085.0</ele><time>2026-04-26T11:16:02.036Z</time></trkpt><trkpt lat="46.1926669" lon="11.3279201"><ele>1086.5</ele><time>2026-04-26T11:16:03.038Z</time></trkpt><trkpt lat="46.1928072" lon="11.3278691"><ele>1088.0</ele><time>2026-04-26T11:16:04.044Z</time></trkpt><trkpt lat="46.1929501" lon="11.327822"><ele>1088.0</ele><time>2026-04-26T11:16:05.05Z</time></trkpt><trkpt lat="46.193086" lon="11.3277637"><ele>1088.0</ele><time>2026-04-26T11:16:06.024Z</time></trkpt><trkpt lat="46.1932405" lon="11.3277401"><ele>1088.0</ele><time>2026-04-26T11:16:07.038Z</time></trkpt><trkpt lat="46.1934037" lon="11.3277663"><ele>1090.3333333333335</ele><time>2026-04-26T11:16:08.039Z</time></trkpt><trkpt lat="46.1935792" lon="11.3277925"><ele>1092.6666666666667</ele><time>2026-04-26T11:16:09.05Z</time></trkpt><trkpt lat="46.1937727" lon="11.3278269"><ele>1095.0</ele><time>2026-04-26T11:16:10.038Z</time></trkpt><trkpt lat="46.1939779" lon="11.3278634"><ele>1095.3333333333333</ele><time>2026-04-26T11:16:11.043Z</time></trkpt><trkpt lat="46.1941814" lon="11.3278892"><ele>1095.6666666666665</ele><time>2026-04-26T11:16:12.038Z</time></trkpt><trkpt lat="46.1943803" lon="11.3279069"><ele>1096.0</ele><time>2026-04-26T11:16:13.044Z</time></trkpt><trkpt lat="46.1945725" lon="11.3279192"><ele>1096.0</ele><time>2026-04-26T11:16:14.035Z</time></trkpt><trkpt lat="46.1947555" lon="11.3279246"><ele>1096.0</ele><time>2026-04-26T11:16:15.029Z</time></trkpt><trkpt lat="46.1949319" lon="11.3279458"><ele>1096.0</ele><time>2026-04-26T11:16:16.04Z</time></trkpt><trkpt lat="46.1950823" lon="11.3280534"><ele>1103.75</ele><time>2026-04-26T11:16:17.042Z</time></trkpt><trkpt lat="46.1952133" lon="11.3281591"><ele>1111.5</ele><time>2026-04-26T11:16:18.047Z</time></trkpt><trkpt lat="46.1953337" lon="11.3282751"><ele>1119.25</ele><time>2026-04-26T11:16:19.035Z</time></trkpt><trkpt lat="46.1954498" lon="11.32837"><ele>1127.0</ele><time>2026-04-26T11:16:20.04Z</time></trkpt><trkpt lat="46.195577" lon="11.3284687"><ele>1115.6666666666667</ele><time>2026-04-26T11:16:21.045Z</time></trkpt><trkpt lat="46.1957068" lon="11.3285603"><ele>1104.3333333333333</ele><time>2026-04-26T11:16:22.047Z</time></trkpt><trkpt lat="46.1958528" lon="11.3286222"><ele>1093.0</ele><time>2026-04-26T11:16:23.044Z</time></trkpt><trkpt lat="46.1960054" lon="11.3286547"><ele>1093.0</ele><time>2026-04-26T11:16:24.054Z</time></trkpt><trkpt lat="46.1961636" lon="11.3286732"><ele>1093.0</ele><time>2026-04-26T11:16:25.045Z</time></trkpt><trkpt lat="46.1963196" lon="11.3287148"><ele>1093.0</ele><time>2026-04-26T11:16:26.04Z</time></trkpt><trkpt lat="46.1964786" lon="11.3287491"><ele>1077.6666666666665</ele><time>2026-04-26T11:16:27.027Z</time></trkpt><trkpt lat="46.1966378" lon="11.3287743"><ele>1062.3333333333333</ele><time>2026-04-26T11:16:28.034Z</time></trkpt><trkpt lat="46.1967967" lon="11.3288085"><ele>1047.0</ele><time>2026-04-26T11:16:29.035Z</time></trkpt><trkpt lat="46.1969565" lon="11.3288427"><ele>1047.0</ele><time>2026-04-26T11:16:30.032Z</time></trkpt><trkpt lat="46.1971177" lon="11.3288741"><ele>1047.0</ele><time>2026-04-26T11:16:31.034Z</time></trkpt><trkpt lat="46.1972769" lon="11.3289105"><ele>1047.0</ele><time>2026-04-26T11:16:32.038Z</time></trkpt><trkpt lat="46.197434" lon="11.3289391"><ele>1057.6666666666667</ele><time>2026-04-26T11:16:33.038Z</time></trkpt><trkpt lat="46.1975864" lon="11.3289714"><ele>1068.3333333333335</ele><time>2026-04-26T11:16:34.052Z</time></trkpt><trkpt lat="46.1977358" lon="11.3289948"><ele>1079.0</ele><time>2026-04-26T11:16:35.04Z</time></trkpt><trkpt lat="46.1978867" lon="11.3290044"><ele>1079.0</ele><time>2026-04-26T11:16:36.034Z</time></trkpt><trkpt lat="46.1980338" lon="11.3289443"><ele>1079.0</ele><time>2026-04-26T11:16:37.037Z</time></trkpt><trkpt lat="46.1981729" lon="11.3288963"><ele>1079.0</ele><time>2026-04-26T11:16:38.039Z</time></trkpt><trkpt lat="46.1983066" lon="11.3288244"><ele>1079.0</ele><time>2026-04-26T11:16:39.042Z</time></trkpt><trkpt lat="46.1984208" lon="11.3286912"><ele>1080.25</ele><time>2026-04-26T11:16:40.039Z</time></trkpt><trkpt lat="46.1985251" lon="11.328542"><ele>1081.5</ele><time>2026-04-26T11:16:41.053Z</time></trkpt><trkpt lat="46.1986288" lon="11.3283993"><ele>1082.75</ele><time>2026-04-26T11:16:42.04Z</time></trkpt><trkpt lat="46.1987255" lon="11.3282361"><ele>1084.0</ele><time>2026-04-26T11:16:43.049Z</time></trkpt><trkpt lat="46.1988105" lon="11.3280529"><ele>1090.0</ele><time>2026-04-26T11:16:44.042Z</time></trkpt><trkpt lat="46.1989108" lon="11.3278793"><ele>1096.0</ele><time>2026-04-26T11:16:45.05Z</time></trkpt><trkpt lat="46.1990299" lon="11.3277219"><ele>1102.0</ele><time>2026-04-26T11:16:46.039Z</time></trkpt><trkpt lat="46.1991364" lon="11.3275469"><ele>1102.0</ele><time>2026-04-26T11:16:47.032Z</time></trkpt><trkpt lat="46.1992468" lon="11.3273841"><ele>1102.0</ele><time>2026-04-26T11:16:48.04Z</time></trkpt><trkpt lat="46.1993369" lon="11.3272088"><ele>1102.0</ele><time>2026-04-26T11:16:49.038Z</time></trkpt><trkpt lat="46.1994107" lon="11.32702"><ele>1097.0</ele><time>2026-04-26T11:16:50.039Z</time></trkpt><trkpt lat="46.1994617" lon="11.3268159"><ele>1092.0</ele><time>2026-04-26T11:16:51.029Z</time></trkpt><trkpt lat="46.1994873" lon="11.3266058"><ele>1087.0</ele><time>2026-04-26T11:16:52.036Z</time></trkpt><trkpt lat="46.1995205" lon="11.3264052"><ele>1082.0</ele><time>2026-04-26T11:16:53.036Z</time></trkpt><trkpt lat="46.1995651" lon="11.3262147"><ele>1078.75</ele><time>2026-04-26T11:16:54.028Z</time></trkpt><trkpt lat="46.1996242" lon="11.3260336"><ele>1075.5</ele><time>2026-04-26T11:16:55.036Z</time></trkpt><trkpt lat="46.1997125" lon="11.3258868"><ele>1072.25</ele><time>2026-04-26T11:16:56.044Z</time></trkpt><trkpt lat="46.1998118" lon="11.3257658"><ele>1069.0</ele><time>2026-04-26T11:16:57.037Z</time></trkpt><trkpt lat="46.1999444" lon="11.3257134"><ele>1075.5</ele><time>2026-04-26T11:16:58.03Z</time></trkpt><trkpt lat="46.2000875" lon="11.3256852"><ele>1082.0</ele><time>2026-04-26T11:16:59.04Z</time></trkpt><trkpt lat="46.2002306" lon="11.3256919"><ele>1088.5</ele><time>2026-04-26T11:17:00.051Z</time></trkpt><trkpt lat="46.200365" lon="11.3257167"><ele>1095.0</ele><time>2026-04-26T11:17:01.046Z</time></trkpt><trkpt lat="46.2004907" lon="11.3256427"><ele>1095.0</ele><time>2026-04-26T11:17:02.035Z</time></trkpt><trkpt lat="46.2006128" lon="11.3255754"><ele>1095.0</ele><time>2026-04-26T11:17:03.048Z</time></trkpt><trkpt lat="46.2007062" lon="11.3254185"><ele>1095.0</ele><time>2026-04-26T11:17:04.041Z</time></trkpt><trkpt lat="46.2008116" lon="11.3252679"><ele>1095.0</ele><time>2026-04-26T11:17:05.042Z</time></trkpt><trkpt lat="46.2009192" lon="11.3251046"><ele>1094.0</ele><time>2026-04-26T11:17:06.04Z</time></trkpt><trkpt lat="46.2010371" lon="11.3249554"><ele>1093.0</ele><time>2026-04-26T11:17:07.033Z</time></trkpt><trkpt lat="46.2011745" lon="11.3248364"><ele>1092.0</ele><time>2026-04-26T11:17:08.032Z</time></trkpt><trkpt lat="46.2012963" lon="11.3247003"><ele>1095.0</ele><time>2026-04-26T11:17:09.036Z</time></trkpt><trkpt lat="46.2014246" lon="11.3245782"><ele>1098.0</ele><time>2026-04-26T11:17:10.03Z</time></trkpt><trkpt lat="46.201552" lon="11.3244607"><ele>1101.0</ele><time>2026-04-26T11:17:11.034Z</time></trkpt><trkpt lat="46.2016893" lon="11.3243619"><ele>1101.0</ele><time>2026-04-26T11:17:12.03Z</time></trkpt><trkpt lat="46.2018348" lon="11.3242795"><ele>1101.0</ele><time>2026-04-26T11:17:13.033Z</time></trkpt><trkpt lat="46.2019956" lon="11.3242308"><ele>1101.0</ele><time>2026-04-26T11:17:14.034Z</time></trkpt><trkpt lat="46.2021697" lon="11.3242118"><ele>1105.6666666666667</ele><time>2026-04-26T11:17:15.04Z</time></trkpt><trkpt lat="46.2023456" lon="11.324196"><ele>1110.3333333333335</ele><time>2026-04-26T11:17:16.034Z</time></trkpt><trkpt lat="46.2025361" lon="11.324224"><ele>1115.0</ele><time>2026-04-26T11:17:17.038Z</time></trkpt><trkpt lat="46.2027376" lon="11.3242203"><ele>1115.0</ele><time>2026-04-26T11:17:18.047Z</time></trkpt><trkpt lat="46.2029422" lon="11.3241991"><ele>1115.0</ele><time>2026-04-26T11:17:19.052Z</time></trkpt><trkpt lat="46.2031442" lon="11.3241755"><ele>1115.0</ele><time>2026-04-26T11:17:20.043Z</time></trkpt><trkpt lat="46.2033425" lon="11.324162"><ele>1114.6666666666667</ele><time>2026-04-26T11:17:21.039Z</time></trkpt><trkpt lat="46.2035383" lon="11.3241577"><ele>1114.3333333333333</ele><time>2026-04-26T11:17:22.063Z</time></trkpt><trkpt lat="46.2037231" lon="11.3241452"><ele>1114.0</ele><time>2026-04-26T11:17:23.032Z</time></trkpt><trkpt lat="46.2039027" lon="11.3241143"><ele>1113.6666666666665</ele><time>2026-04-26T11:17:24.052Z</time></trkpt><trkpt lat="46.2040846" lon="11.3240964"><ele>1113.3333333333333</ele><time>2026-04-26T11:17:25.037Z</time></trkpt><trkpt lat="46.2042683" lon="11.3240704"><ele>1113.0</ele><time>2026-04-26T11:17:26.029Z</time></trkpt><trkpt lat="46.2044487" lon="11.3240264"><ele>1113.0</ele><time>2026-04-26T11:17:27.036Z</time></trkpt><trkpt lat="46.2046279" lon="11.3239496"><ele>1113.0</ele><time>2026-04-26T11:17:28.035Z</time></trkpt><trkpt lat="46.2047905" lon="11.3238305"><ele>1113.0</ele><time>2026-04-26T11:17:29.033Z</time></trkpt><trkpt lat="46.2049512" lon="11.3237223"><ele>1103.6666666666667</ele><time>2026-04-26T11:17:30.043Z</time></trkpt><trkpt lat="46.2051133" lon="11.3236308"><ele>1094.3333333333335</ele><time>2026-04-26T11:17:31.043Z</time></trkpt><trkpt lat="46.2052731" lon="11.3235431"><ele>1085.0</ele><time>2026-04-26T11:17:32.053Z</time></trkpt><trkpt lat="46.2054396" lon="11.3235254"><ele>1085.0</ele><time>2026-04-26T11:17:33.056Z</time></trkpt><trkpt lat="46.2055961" lon="11.3234888"><ele>1085.0</ele><time>2026-04-26T11:17:34.033Z</time></trkpt><trkpt lat="46.2057514" lon="11.3235247"><ele>1085.0</ele><time>2026-04-26T11:17:35.025Z</time></trkpt><trkpt lat="46.2059004" lon="11.3235879"><ele>1085.75</ele><time>2026-04-26T11:17:36.051Z</time></trkpt><trkpt lat="46.2060468" lon="11.3236216"><ele>1086.5</ele><time>2026-04-26T11:17:37.045Z</time></trkpt><trkpt lat="46.2061864" lon="11.3236662"><ele>1087.25</ele><time>2026-04-26T11:17:38.038Z</time></trkpt><trkpt lat="46.2063229" lon="11.323692"><ele>1088.0</ele><time>2026-04-26T11:17:39.048Z</time></trkpt><trkpt lat="46.206448" lon="11.3237133"><ele>1086.1666666666667</ele><time>2026-04-26T11:17:40.028Z</time></trkpt><trkpt lat="46.2065519" lon="11.3237482"><ele>1084.3333333333335</ele><time>2026-04-26T11:17:41.043Z</time></trkpt><trkpt lat="46.2066357" lon="11.3237902"><ele>1082.5</ele><time>2026-04-26T11:17:42.041Z</time></trkpt><trkpt lat="46.2067037" lon="11.3238334"><ele>1080.6666666666667</ele><time>2026-04-26T11:17:43.032Z</time></trkpt><trkpt lat="46.2067534" lon="11.3239"><ele>1078.8333333333333</ele><time>2026-04-26T11:17:44.044Z</time></trkpt><trkpt lat="46.2068305" lon="11.3239948"><ele>1077.0</ele><time>2026-04-26T11:17:46.032Z</time></trkpt><trkpt lat="46.2068912" lon="11.3240832"><ele>1077.0</ele><time>2026-04-26T11:17:49.036Z</time></trkpt><trkpt lat="46.2069723" lon="11.3241531"><ele>1077.0</ele><time>2026-04-26T11:18:17.028Z</time></trkpt><trkpt lat="46.2069775" lon="11.3240589"><ele>1077.0</ele><time>2026-04-26T11:18:25.044Z</time></trkpt><trkpt lat="46.2069008" lon="11.3239681"><ele>1077.0</ele><time>2026-04-26T11:18:27.034Z</time></trkpt><trkpt lat="46.2068199" lon="11.3238081"><ele>1077.0</ele><time>2026-04-26T11:19:50.04Z</time></trkpt><trkpt lat="46.2067562" lon="11.3238014"><ele>1077.0</ele><time>2026-04-26T11:20:00.08Z</time></trkpt><trkpt lat="46.2066843" lon="11.3237828"><ele>1077.0</ele><time>2026-04-26T11:20:04.036Z</time></trkpt></trkseg><trkseg><trkpt lat="46.2070054" lon="11.324268"><ele>1101.0</ele><time>2026-04-26T12:21:33.46Z</time></trkpt><trkpt lat="46.2070527" lon="11.3243663"><ele>1101.0</ele><time>2026-04-26T12:21:34.448Z</time></trkpt><trkpt lat="46.2071003" lon="11.3244784"><ele>1101.0</ele><time>2026-04-26T12:21:35.439Z</time></trkpt><trkpt lat="46.207145" lon="11.3246172"><ele>1101.0</ele><time>2026-04-26T12:21:36.443Z</time></trkpt><trkpt lat="46.2071732" lon="11.3247625"><ele>1101.0</ele><time>2026-04-26T12:21:37.441Z</time></trkpt><trkpt lat="46.2071779" lon="11.3249155"><ele>1104.6</ele><time>2026-04-26T12:21:38.445Z</time></trkpt><trkpt lat="46.2071503" lon="11.3250669"><ele>1108.1999999999998</ele><time>2026-04-26T12:21:39.449Z</time></trkpt><trkpt lat="46.2071193" lon="11.3252137"><ele>1111.8000000000002</ele><time>2026-04-26T12:21:40.45Z</time></trkpt><trkpt lat="46.2070858" lon="11.3253682"><ele>1115.4</ele><time>2026-04-26T12:21:41.456Z</time></trkpt><trkpt lat="46.2070518" lon="11.3255294"><ele>1119.0</ele><time>2026-04-26T12:21:42.452Z</time></trkpt><trkpt lat="46.2070255" lon="11.3256926"><ele>1120.8</ele><time>2026-04-26T12:21:43.44Z</time></trkpt><trkpt lat="46.2069943" lon="11.3258512"><ele>1122.6000000000001</ele><time>2026-04-26T12:21:44.461Z</time></trkpt><trkpt lat="46.2069567" lon="11.3259963"><ele>1124.4</ele><time>2026-04-26T12:21:45.449Z</time></trkpt><trkpt lat="46.2069298" lon="11.3261464"><ele>1126.2</ele><time>2026-04-26T12:21:46.46Z</time></trkpt><trkpt lat="46.2069289" lon="11.326304"><ele>1128.0</ele><time>2026-04-26T12:21:47.449Z</time></trkpt><trkpt lat="46.2069488" lon="11.326454"><ele>1130.4</ele><time>2026-04-26T12:21:48.454Z</time></trkpt><trkpt lat="46.2069899" lon="11.3265956"><ele>1132.8</ele><time>2026-04-26T12:21:49.448Z</time></trkpt><trkpt lat="46.2070364" lon="11.3267331"><ele>1135.2</ele><time>2026-04-26T12:21:50.454Z</time></trkpt><trkpt lat="46.2070999" lon="11.3268597"><ele>1137.6</ele><time>2026-04-26T12:21:51.445Z</time></trkpt><trkpt lat="46.2071676" lon="11.3269776"><ele>1140.0</ele><time>2026-04-26T12:21:52.443Z</time></trkpt><trkpt lat="46.2072397" lon="11.3270865"><ele>1140.0</ele><time>2026-04-26T12:21:53.447Z</time></trkpt><trkpt lat="46.2073138" lon="11.3271922"><ele>1140.0</ele><time>2026-04-26T12:21:54.448Z</time></trkpt><trkpt lat="46.2073918" lon="11.3272946"><ele>1140.0</ele><time>2026-04-26T12:21:55.443Z</time></trkpt><trkpt lat="46.2074715" lon="11.3274022"><ele>1140.0</ele><time>2026-04-26T12:21:56.451Z</time></trkpt><trkpt lat="46.2075579" lon="11.3275133"><ele>1140.0</ele><time>2026-04-26T12:21:57.46Z</time></trkpt><trkpt lat="46.2076511" lon="11.3276271"><ele>1127.5</ele><time>2026-04-26T12:21:58.462Z</time></trkpt><trkpt lat="46.2077531" lon="11.3277358"><ele>1115.0</ele><time>2026-04-26T12:21:59.458Z</time></trkpt><trkpt lat="46.2078615" lon="11.3278325"><ele>1102.5</ele><time>2026-04-26T12:22:00.454Z</time></trkpt><trkpt lat="46.2079793" lon="11.3279083"><ele>1090.0</ele><time>2026-04-26T12:22:01.444Z</time></trkpt><trkpt lat="46.2081107" lon="11.3279416"><ele>1085.0</ele><time>2026-04-26T12:22:02.444Z</time></trkpt><trkpt lat="46.2082516" lon="11.3279431"><ele>1080.0</ele><time>2026-04-26T12:22:03.452Z</time></trkpt><trkpt lat="46.2084039" lon="11.3279152"><ele>1075.0</ele><time>2026-04-26T12:22:04.442Z</time></trkpt><trkpt lat="46.2085607" lon="11.3278676"><ele>1075.0</ele><time>2026-04-26T12:22:05.457Z</time></trkpt><trkpt lat="46.2087117" lon="11.3278076"><ele>1075.0</ele><time>2026-04-26T12:22:06.446Z</time></trkpt><trkpt lat="46.2088488" lon="11.3277455"><ele>1075.0</ele><time>2026-04-26T12:22:07.447Z</time></trkpt><trkpt lat="46.208978" lon="11.3276944"><ele>1075.0</ele><time>2026-04-26T12:22:08.44Z</time></trkpt><trkpt lat="46.209129" lon="11.3276692"><ele>1073.0</ele><time>2026-04-26T12:22:09.45Z</time></trkpt><trkpt lat="46.2092932" lon="11.3276942"><ele>1071.0</ele><time>2026-04-26T12:22:10.454Z</time></trkpt><trkpt lat="46.2094508" lon="11.3276915"><ele>1069.0</ele><time>2026-04-26T12:22:11.444Z</time></trkpt><trkpt lat="46.2095995" lon="11.3276891"><ele>1069.0</ele><time>2026-04-26T12:22:12.448Z</time></trkpt><trkpt lat="46.2097441" lon="11.3277161"><ele>1069.0</ele><time>2026-04-26T12:22:13.447Z</time></trkpt><trkpt lat="46.2098857" lon="11.3277084"><ele>1069.0</ele><time>2026-04-26T12:22:14.448Z</time></trkpt><trkpt lat="46.2101619" lon="11.32776"><ele>1068.3333333333333</ele><time>2026-04-26T12:22:16.545Z</time></trkpt><trkpt lat="46.2104372" lon="11.327851"><ele>1067.6666666666667</ele><time>2026-04-26T12:22:18.452Z</time></trkpt><trkpt lat="46.2105805" lon="11.3279095"><ele>1067.0</ele><time>2026-04-26T12:22:19.445Z</time></trkpt><trkpt lat="46.2107274" lon="11.3279242"><ele>1069.25</ele><time>2026-04-26T12:22:20.448Z</time></trkpt><trkpt lat="46.2108615" lon="11.3279726"><ele>1071.5</ele><time>2026-04-26T12:22:21.441Z</time></trkpt><trkpt lat="46.2109882" lon="11.3280473"><ele>1073.75</ele><time>2026-04-26T12:22:22.452Z</time></trkpt><trkpt lat="46.2110882" lon="11.3281554"><ele>1076.0</ele><time>2026-04-26T12:22:23.459Z</time></trkpt><trkpt lat="46.2111953" lon="11.3282528"><ele>1076.0</ele><time>2026-04-26T12:22:24.443Z</time></trkpt><trkpt lat="46.2112895" lon="11.3282875"><ele>1076.0</ele><time>2026-04-26T12:22:25.446Z</time></trkpt><trkpt lat="46.2114137" lon="11.3282768"><ele>1076.0</ele><time>2026-04-26T12:22:26.459Z</time></trkpt><trkpt lat="46.2115298" lon="11.3282162"><ele>1076.0</ele><time>2026-04-26T12:22:27.442Z</time></trkpt><trkpt lat="46.211641" lon="11.3281335"><ele>1062.5</ele><time>2026-04-26T12:22:28.449Z</time></trkpt><trkpt lat="46.2118078" lon="11.3280439"><ele>1049.0</ele><time>2026-04-26T12:22:29.458Z</time></trkpt><trkpt lat="46.2119387" lon="11.3279615"><ele>1035.5</ele><time>2026-04-26T12:22:30.44Z</time></trkpt><trkpt lat="46.2120599" lon="11.3279248"><ele>1022.0</ele><time>2026-04-26T12:22:31.437Z</time></trkpt><trkpt lat="46.2121927" lon="11.3278768"><ele>1022.0</ele><time>2026-04-26T12:22:32.442Z</time></trkpt><trkpt lat="46.2123079" lon="11.3278574"><ele>1022.0</ele><time>2026-04-26T12:22:33.435Z</time></trkpt><trkpt lat="46.2124297" lon="11.3279536"><ele>1022.0</ele><time>2026-04-26T12:22:34.445Z</time></trkpt><trkpt lat="46.2125287" lon="11.3280332"><ele>1022.0</ele><time>2026-04-26T12:22:35.444Z</time></trkpt><trkpt lat="46.2126327" lon="11.3281704"><ele>1028.0</ele><time>2026-04-26T12:22:36.476Z</time></trkpt><trkpt lat="46.2127254" lon="11.3282663"><ele>1034.0</ele><time>2026-04-26T12:22:37.447Z</time></trkpt><trkpt lat="46.2128172" lon="11.3283749"><ele>1040.0</ele><time>2026-04-26T12:22:38.455Z</time></trkpt><trkpt lat="46.2129079" lon="11.3284193"><ele>1046.0</ele><time>2026-04-26T12:22:39.436Z</time></trkpt><trkpt lat="46.212994" lon="11.328426"><ele>1052.0</ele><time>2026-04-26T12:22:40.459Z</time></trkpt><trkpt lat="46.2131146" lon="11.3283947"><ele>1045.75</ele><time>2026-04-26T12:22:41.441Z</time></trkpt><trkpt lat="46.2132193" lon="11.3283043"><ele>1039.5</ele><time>2026-04-26T12:22:42.435Z</time></trkpt><trkpt lat="46.2133171" lon="11.3281876"><ele>1033.25</ele><time>2026-04-26T12:22:43.438Z</time></trkpt><trkpt lat="46.2134104" lon="11.3280535"><ele>1027.0</ele><time>2026-04-26T12:22:44.451Z</time></trkpt><trkpt lat="46.2134839" lon="11.327885"><ele>1021.25</ele><time>2026-04-26T12:22:45.441Z</time></trkpt><trkpt lat="46.2135275" lon="11.3276987"><ele>1015.5</ele><time>2026-04-26T12:22:46.448Z</time></trkpt><trkpt lat="46.2135762" lon="11.3275333"><ele>1009.75</ele><time>2026-04-26T12:22:47.466Z</time></trkpt><trkpt lat="46.2135528" lon="11.327355"><ele>1004.0</ele><time>2026-04-26T12:22:48.462Z</time></trkpt><trkpt lat="46.2134902" lon="11.3271749"><ele>1000.5</ele><time>2026-04-26T12:22:49.449Z</time></trkpt><trkpt lat="46.2134514" lon="11.3269856"><ele>997.0</ele><time>2026-04-26T12:22:50.439Z</time></trkpt><trkpt lat="46.2134288" lon="11.3267924"><ele>993.5</ele><time>2026-04-26T12:22:51.447Z</time></trkpt><trkpt lat="46.2134223" lon="11.3266077"><ele>990.0</ele><time>2026-04-26T12:22:52.458Z</time></trkpt><trkpt lat="46.2134601" lon="11.3264154"><ele>983.0</ele><time>2026-04-26T12:22:53.466Z</time></trkpt><trkpt lat="46.2135195" lon="11.3262119"><ele>976.0</ele><time>2026-04-26T12:22:54.445Z</time></trkpt><trkpt lat="46.2135988" lon="11.3260155"><ele>969.0</ele><time>2026-04-26T12:22:55.445Z</time></trkpt><trkpt lat="46.2136714" lon="11.3258302"><ele>969.0</ele><time>2026-04-26T12:22:56.443Z</time></trkpt><trkpt lat="46.2137431" lon="11.3256463"><ele>969.0</ele><time>2026-04-26T12:22:57.44Z</time></trkpt><trkpt lat="46.2138078" lon="11.325461"><ele>969.0</ele><time>2026-04-26T12:22:58.462Z</time></trkpt><trkpt lat="46.2138571" lon="11.3252638"><ele>969.0</ele><time>2026-04-26T12:22:59.452Z</time></trkpt><trkpt lat="46.2138839" lon="11.325054"><ele>965.5</ele><time>2026-04-26T12:23:00.445Z</time></trkpt><trkpt lat="46.2138994" lon="11.3248471"><ele>962.0</ele><time>2026-04-26T12:23:01.44Z</time></trkpt><trkpt lat="46.2139074" lon="11.324648"><ele>958.5</ele><time>2026-04-26T12:23:02.441Z</time></trkpt><trkpt lat="46.2139239" lon="11.3244666"><ele>955.0</ele><time>2026-04-26T12:23:03.447Z</time></trkpt><trkpt lat="46.2139563" lon="11.3242947"><ele>956.0</ele><time>2026-04-26T12:23:04.451Z</time></trkpt><trkpt lat="46.2140185" lon="11.3241388"><ele>957.0</ele><time>2026-04-26T12:23:05.453Z</time></trkpt><trkpt lat="46.2140744" lon="11.3239776"><ele>958.0</ele><time>2026-04-26T12:23:06.45Z</time></trkpt><trkpt lat="46.2141457" lon="11.3238148"><ele>959.0</ele><time>2026-04-26T12:23:07.443Z</time></trkpt><trkpt lat="46.2142038" lon="11.3236284"><ele>959.0</ele><time>2026-04-26T12:23:08.441Z</time></trkpt><trkpt lat="46.2142792" lon="11.3234561"><ele>959.0</ele><time>2026-04-26T12:23:09.442Z</time></trkpt><trkpt lat="46.2143809" lon="11.3232995"><ele>959.0</ele><time>2026-04-26T12:23:10.461Z</time></trkpt><trkpt lat="46.2144785" lon="11.3231265"><ele>959.0</ele><time>2026-04-26T12:23:11.445Z</time></trkpt><trkpt lat="46.214526" lon="11.3229006"><ele>953.0</ele><time>2026-04-26T12:23:12.435Z</time></trkpt><trkpt lat="46.2145557" lon="11.3226549"><ele>947.0</ele><time>2026-04-26T12:23:13.458Z</time></trkpt><trkpt lat="46.2145777" lon="11.3224092"><ele>941.0</ele><time>2026-04-26T12:23:14.438Z</time></trkpt><trkpt lat="46.2146015" lon="11.3221761"><ele>936.3333333333334</ele><time>2026-04-26T12:23:15.45Z</time></trkpt><trkpt lat="46.214631" lon="11.3219544"><ele>931.6666666666667</ele><time>2026-04-26T12:23:16.439Z</time></trkpt><trkpt lat="46.2146552" lon="11.3217419"><ele>927.0</ele><time>2026-04-26T12:23:17.45Z</time></trkpt><trkpt lat="46.2146898" lon="11.3215293"><ele>923.3333333333333</ele><time>2026-04-26T12:23:18.434Z</time></trkpt><trkpt lat="46.2147455" lon="11.3213157"><ele>919.6666666666666</ele><time>2026-04-26T12:23:19.44Z</time></trkpt><trkpt lat="46.2147985" lon="11.3211118"><ele>916.0</ele><time>2026-04-26T12:23:20.44Z</time></trkpt><trkpt lat="46.2148484" lon="11.3209124"><ele>917.75</ele><time>2026-04-26T12:23:21.437Z</time></trkpt><trkpt lat="46.2149001" lon="11.3207244"><ele>919.5</ele><time>2026-04-26T12:23:22.446Z</time></trkpt><trkpt lat="46.2149635" lon="11.3205523"><ele>921.25</ele><time>2026-04-26T12:23:23.45Z</time></trkpt><trkpt lat="46.2150437" lon="11.3204031"><ele>923.0</ele><time>2026-04-26T12:23:24.437Z</time></trkpt><trkpt lat="46.2151375" lon="11.3202731"><ele>923.0</ele><time>2026-04-26T12:23:25.447Z</time></trkpt><trkpt lat="46.2152772" lon="11.3202039"><ele>923.0</ele><time>2026-04-26T12:23:26.45Z</time></trkpt><trkpt lat="46.2154302" lon="11.3201637"><ele>923.0</ele><time>2026-04-26T12:23:27.443Z</time></trkpt><trkpt lat="46.2155968" lon="11.3201427"><ele>927.3333333333334</ele><time>2026-04-26T12:23:28.439Z</time></trkpt><trkpt lat="46.2157563" lon="11.3200876"><ele>931.6666666666667</ele><time>2026-04-26T12:23:29.445Z</time></trkpt><trkpt lat="46.2159177" lon="11.3200396"><ele>936.0</ele><time>2026-04-26T12:23:30.456Z</time></trkpt><trkpt lat="46.216077" lon="11.3200056"><ele>936.0</ele><time>2026-04-26T12:23:31.449Z</time></trkpt><trkpt lat="46.2162325" lon="11.3199223"><ele>936.0</ele><time>2026-04-26T12:23:32.458Z</time></trkpt><trkpt lat="46.2163791" lon="11.3197957"><ele>936.0</ele><time>2026-04-26T12:23:33.436Z</time></trkpt><trkpt lat="46.2165227" lon="11.3196673"><ele>927.6666666666667</ele><time>2026-04-26T12:23:34.439Z</time></trkpt><trkpt lat="46.2166674" lon="11.3195445"><ele>919.3333333333334</ele><time>2026-04-26T12:23:35.444Z</time></trkpt><trkpt lat="46.2168159" lon="11.3194339"><ele>911.0</ele><time>2026-04-26T12:23:36.453Z</time></trkpt><trkpt lat="46.2169746" lon="11.3193351"><ele>911.0</ele><time>2026-04-26T12:23:37.439Z</time></trkpt><trkpt lat="46.2171465" lon="11.319306"><ele>911.0</ele><time>2026-04-26T12:23:38.441Z</time></trkpt><trkpt lat="46.2173266" lon="11.3192699"><ele>911.0</ele><time>2026-04-26T12:23:39.441Z</time></trkpt><trkpt lat="46.2175049" lon="11.3192119"><ele>911.3333333333334</ele><time>2026-04-26T12:23:40.445Z</time></trkpt><trkpt lat="46.2176797" lon="11.3191489"><ele>911.6666666666667</ele><time>2026-04-26T12:23:41.451Z</time></trkpt><trkpt lat="46.2178581" lon="11.3191206"><ele>912.0</ele><time>2026-04-26T12:23:42.449Z</time></trkpt><trkpt lat="46.2180268" lon="11.3190707"><ele>912.6666666666667</ele><time>2026-04-26T12:23:43.456Z</time></trkpt><trkpt lat="46.2181792" lon="11.3189979"><ele>913.3333333333334</ele><time>2026-04-26T12:23:44.45Z</time></trkpt><trkpt lat="46.218328" lon="11.3189171"><ele>914.0</ele><time>2026-04-26T12:23:45.444Z</time></trkpt><trkpt lat="46.2184825" lon="11.3189242"><ele>914.0</ele><time>2026-04-26T12:23:46.446Z</time></trkpt><trkpt lat="46.2186315" lon="11.3189492"><ele>914.0</ele><time>2026-04-26T12:23:47.447Z</time></trkpt><trkpt lat="46.2187706" lon="11.3190108"><ele>914.0</ele><time>2026-04-26T12:23:48.442Z</time></trkpt><trkpt lat="46.2188989" lon="11.3190607"><ele>914.0</ele><time>2026-04-26T12:23:49.451Z</time></trkpt><trkpt lat="46.2190237" lon="11.3190949"><ele>913.25</ele><time>2026-04-26T12:23:50.453Z</time></trkpt><trkpt lat="46.2191484" lon="11.3190843"><ele>912.5</ele><time>2026-04-26T12:23:51.446Z</time></trkpt><trkpt lat="46.2192721" lon="11.3190348"><ele>911.75</ele><time>2026-04-26T12:23:52.451Z</time></trkpt><trkpt lat="46.2193592" lon="11.3188855"><ele>911.0</ele><time>2026-04-26T12:23:53.445Z</time></trkpt><trkpt lat="46.2194516" lon="11.3187652"><ele>904.5</ele><time>2026-04-26T12:23:54.437Z</time></trkpt><trkpt lat="46.2195409" lon="11.3186733"><ele>898.0</ele><time>2026-04-26T12:23:55.445Z</time></trkpt><trkpt lat="46.2196464" lon="11.3186066"><ele>891.5</ele><time>2026-04-26T12:23:56.438Z</time></trkpt><trkpt lat="46.2197628" lon="11.318601"><ele>885.0</ele><time>2026-04-26T12:23:57.443Z</time></trkpt><trkpt lat="46.2198688" lon="11.3185642"><ele>885.0</ele><time>2026-04-26T12:23:58.463Z</time></trkpt><trkpt lat="46.2199445" lon="11.3184518"><ele>885.0</ele><time>2026-04-26T12:23:59.457Z</time></trkpt><trkpt lat="46.2199831" lon="11.3183046"><ele>885.0</ele><time>2026-04-26T12:24:00.435Z</time></trkpt><trkpt lat="46.2200187" lon="11.3181641"><ele>885.0</ele><time>2026-04-26T12:24:01.452Z</time></trkpt><trkpt lat="46.2200882" lon="11.3180538"><ele>885.0</ele><time>2026-04-26T12:24:02.434Z</time></trkpt><trkpt lat="46.2201993" lon="11.3180095"><ele>880.75</ele><time>2026-04-26T12:24:03.473Z</time></trkpt><trkpt lat="46.2203147" lon="11.3179845"><ele>876.5</ele><time>2026-04-26T12:24:04.452Z</time></trkpt><trkpt lat="46.2204418" lon="11.3179628"><ele>872.25</ele><time>2026-04-26T12:24:05.438Z</time></trkpt><trkpt lat="46.2205755" lon="11.3179337"><ele>868.0</ele><time>2026-04-26T12:24:06.436Z</time></trkpt><trkpt lat="46.2207157" lon="11.317896"><ele>868.0</ele><time>2026-04-26T12:24:07.446Z</time></trkpt><trkpt lat="46.2208621" lon="11.3178667"><ele>868.0</ele><time>2026-04-26T12:24:08.448Z</time></trkpt><trkpt lat="46.2210122" lon="11.317826"><ele>868.0</ele><time>2026-04-26T12:24:09.47Z</time></trkpt><trkpt lat="46.2211665" lon="11.3177869"><ele>868.0</ele><time>2026-04-26T12:24:10.45Z</time></trkpt><trkpt lat="46.2213225" lon="11.3177366"><ele>868.0</ele><time>2026-04-26T12:24:11.455Z</time></trkpt><trkpt lat="46.2214771" lon="11.31769"><ele>868.0</ele><time>2026-04-26T12:24:12.444Z</time></trkpt><trkpt lat="46.2216287" lon="11.3176505"><ele>871.0</ele><time>2026-04-26T12:24:13.448Z</time></trkpt><trkpt lat="46.2217738" lon="11.3176209"><ele>874.0</ele><time>2026-04-26T12:24:14.446Z</time></trkpt><trkpt lat="46.2219072" lon="11.3175874"><ele>877.0</ele><time>2026-04-26T12:24:15.464Z</time></trkpt><trkpt lat="46.2220275" lon="11.3175244"><ele>880.0</ele><time>2026-04-26T12:24:16.44Z</time></trkpt><trkpt lat="46.2221246" lon="11.3174251"><ele>880.0</ele><time>2026-04-26T12:24:17.453Z</time></trkpt><trkpt lat="46.2221996" lon="11.3173061"><ele>880.0</ele><time>2026-04-26T12:24:18.458Z</time></trkpt><trkpt lat="46.2222542" lon="11.3171611"><ele>880.0</ele><time>2026-04-26T12:24:19.454Z</time></trkpt><trkpt lat="46.2222916" lon="11.3169973"><ele>880.0</ele><time>2026-04-26T12:24:20.451Z</time></trkpt><trkpt lat="46.222331" lon="11.3168424"><ele>880.6</ele><time>2026-04-26T12:24:21.445Z</time></trkpt><trkpt lat="46.22238" lon="11.316704"><ele>881.2</ele><time>2026-04-26T12:24:22.458Z</time></trkpt><trkpt lat="46.2224373" lon="11.3165802"><ele>881.8</ele><time>2026-04-26T12:24:23.458Z</time></trkpt><trkpt lat="46.2225151" lon="11.3164769"><ele>882.4</ele><time>2026-04-26T12:24:24.457Z</time></trkpt><trkpt lat="46.2226049" lon="11.3164017"><ele>883.0</ele><time>2026-04-26T12:24:25.445Z</time></trkpt><trkpt lat="46.2226993" lon="11.3163077"><ele>877.5</ele><time>2026-04-26T12:24:26.449Z</time></trkpt><trkpt lat="46.2227946" lon="11.316206"><ele>872.0</ele><time>2026-04-26T12:24:27.441Z</time></trkpt><trkpt lat="46.2228681" lon="11.3160708"><ele>866.5</ele><time>2026-04-26T12:24:28.448Z</time></trkpt><trkpt lat="46.2229258" lon="11.315915"><ele>861.0</ele><time>2026-04-26T12:24:29.439Z</time></trkpt><trkpt lat="46.2229643" lon="11.3157341"><ele>856.25</ele><time>2026-04-26T12:24:30.453Z</time></trkpt><trkpt lat="46.2229953" lon="11.3155449"><ele>851.5</ele><time>2026-04-26T12:24:31.46Z</time></trkpt><trkpt lat="46.2230262" lon="11.3153547"><ele>846.75</ele><time>2026-04-26T12:24:32.438Z</time></trkpt><trkpt lat="46.2230646" lon="11.3151723"><ele>842.0</ele><time>2026-04-26T12:24:33.449Z</time></trkpt><trkpt lat="46.2231019" lon="11.3149933"><ele>842.0</ele><time>2026-04-26T12:24:34.44Z</time></trkpt><trkpt lat="46.2231413" lon="11.3148191"><ele>842.0</ele><time>2026-04-26T12:24:35.447Z</time></trkpt><trkpt lat="46.2231829" lon="11.3146495"><ele>842.0</ele><time>2026-04-26T12:24:36.459Z</time></trkpt><trkpt lat="46.2232407" lon="11.3144849"><ele>842.0</ele><time>2026-04-26T12:24:37.443Z</time></trkpt><trkpt lat="46.2233148" lon="11.3143234"><ele>844.5</ele><time>2026-04-26T12:24:38.446Z</time></trkpt><trkpt lat="46.2233745" lon="11.3141482"><ele>847.0</ele><time>2026-04-26T12:24:39.438Z</time></trkpt><trkpt lat="46.2234569" lon="11.3139988"><ele>849.5</ele><time>2026-04-26T12:24:40.439Z</time></trkpt><trkpt lat="46.2235405" lon="11.3138535"><ele>852.0</ele><time>2026-04-26T12:24:41.437Z</time></trkpt><trkpt lat="46.2236252" lon="11.313711"><ele>850.0</ele><time>2026-04-26T12:24:42.47Z</time></trkpt><trkpt lat="46.2237226" lon="11.3135862"><ele>848.0</ele><time>2026-04-26T12:24:43.456Z</time></trkpt><trkpt lat="46.2238081" lon="11.3134447"><ele>846.0</ele><time>2026-04-26T12:24:44.441Z</time></trkpt><trkpt lat="46.2238983" lon="11.3133187"><ele>844.0</ele><time>2026-04-26T12:24:45.451Z</time></trkpt><trkpt lat="46.2239849" lon="11.3132072"><ele>844.0</ele><time>2026-04-26T12:24:46.442Z</time></trkpt><trkpt lat="46.2240646" lon="11.3131265"><ele>844.0</ele><time>2026-04-26T12:24:47.457Z</time></trkpt><trkpt lat="46.2241371" lon="11.3130626"><ele>844.0</ele><time>2026-04-26T12:24:48.447Z</time></trkpt><trkpt lat="46.2242293" lon="11.3130275"><ele>844.0</ele><time>2026-04-26T12:24:49.444Z</time></trkpt><trkpt lat="46.2243275" lon="11.3129998"><ele>844.0</ele><time>2026-04-26T12:24:50.45Z</time></trkpt><trkpt lat="46.2244326" lon="11.3130023"><ele>844.0</ele><time>2026-04-26T12:24:51.446Z</time></trkpt><trkpt lat="46.2245466" lon="11.3130733"><ele>844.0</ele><time>2026-04-26T12:24:52.457Z</time></trkpt><trkpt lat="46.2246795" lon="11.3130962"><ele>844.0</ele><time>2026-04-26T12:24:53.453Z</time></trkpt><trkpt lat="46.2248374" lon="11.3131027"><ele>844.0</ele><time>2026-04-26T12:24:54.446Z</time></trkpt><trkpt lat="46.2250076" lon="11.3130519"><ele>845.0</ele><time>2026-04-26T12:24:55.445Z</time></trkpt><trkpt lat="46.2251705" lon="11.3130672"><ele>846.0</ele><time>2026-04-26T12:24:56.446Z</time></trkpt><trkpt lat="46.2253192" lon="11.3130651"><ele>847.0</ele><time>2026-04-26T12:24:57.459Z</time></trkpt><trkpt lat="46.2254528" lon="11.3130613"><ele>848.0</ele><time>2026-04-26T12:24:58.48Z</time></trkpt><trkpt lat="46.2255802" lon="11.3130775"><ele>848.0</ele><time>2026-04-26T12:24:59.452Z</time></trkpt><trkpt lat="46.2256938" lon="11.31314"><ele>848.0</ele><time>2026-04-26T12:25:00.453Z</time></trkpt><trkpt lat="46.2258209" lon="11.3132197"><ele>848.0</ele><time>2026-04-26T12:25:01.445Z</time></trkpt><trkpt lat="46.2259155" lon="11.3132827"><ele>848.0</ele><time>2026-04-26T12:25:02.453Z</time></trkpt><trkpt lat="46.2259932" lon="11.3133449"><ele>848.0</ele><time>2026-04-26T12:25:03.446Z</time></trkpt><trkpt lat="46.2261043" lon="11.3133598"><ele>848.0</ele><time>2026-04-26T12:25:05.461Z</time></trkpt><trkpt lat="46.2261667" lon="11.3131951"><ele>848.0</ele><time>2026-04-26T12:25:07.45Z</time></trkpt><trkpt lat="46.2262143" lon="11.3130706"><ele>848.0</ele><time>2026-04-26T12:25:09.448Z</time></trkpt><trkpt lat="46.2263205" lon="11.3129654"><ele>838.25</ele><time>2026-04-26T12:25:11.459Z</time></trkpt><trkpt lat="46.2264134" lon="11.312906"><ele>828.5</ele><time>2026-04-26T12:25:12.45Z</time></trkpt><trkpt lat="46.2265292" lon="11.3128633"><ele>818.75</ele><time>2026-04-26T12:25:13.445Z</time></trkpt><trkpt lat="46.2266652" lon="11.3128326"><ele>809.0</ele><time>2026-04-26T12:25:14.437Z</time></trkpt><trkpt lat="46.2268197" lon="11.3128431"><ele>809.0</ele><time>2026-04-26T12:25:15.481Z</time></trkpt><trkpt lat="46.2269962" lon="11.3128578"><ele>809.0</ele><time>2026-04-26T12:25:16.452Z</time></trkpt><trkpt lat="46.227188" lon="11.3128907"><ele>809.0</ele><time>2026-04-26T12:25:17.454Z</time></trkpt><trkpt lat="46.2273751" lon="11.3129148"><ele>808.3333333333334</ele><time>2026-04-26T12:25:18.444Z</time></trkpt><trkpt lat="46.2275515" lon="11.3129408"><ele>807.6666666666667</ele><time>2026-04-26T12:25:19.455Z</time></trkpt><trkpt lat="46.2277086" lon="11.3129435"><ele>807.0</ele><time>2026-04-26T12:25:20.444Z</time></trkpt><trkpt lat="46.2278484" lon="11.31295"><ele>807.0</ele><time>2026-04-26T12:25:21.451Z</time></trkpt><trkpt lat="46.2279797" lon="11.312962"><ele>807.0</ele><time>2026-04-26T12:25:22.441Z</time></trkpt><trkpt lat="46.2280969" lon="11.3130353"><ele>807.0</ele><time>2026-04-26T12:25:23.45Z</time></trkpt><trkpt lat="46.2282004" lon="11.3131315"><ele>807.0</ele><time>2026-04-26T12:25:24.44Z</time></trkpt><trkpt lat="46.2282929" lon="11.3132493"><ele>812.5</ele><time>2026-04-26T12:25:25.452Z</time></trkpt><trkpt lat="46.2283871" lon="11.313398"><ele>818.0</ele><time>2026-04-26T12:25:26.452Z</time></trkpt><trkpt lat="46.2284684" lon="11.3135825"><ele>823.5</ele><time>2026-04-26T12:25:27.445Z</time></trkpt><trkpt lat="46.2285518" lon="11.3137696"><ele>829.0</ele><time>2026-04-26T12:25:28.454Z</time></trkpt><trkpt lat="46.2286159" lon="11.3139705"><ele>833.75</ele><time>2026-04-26T12:25:29.451Z</time></trkpt><trkpt lat="46.2286836" lon="11.3141598"><ele>838.5</ele><time>2026-04-26T12:25:30.445Z</time></trkpt><trkpt lat="46.2287537" lon="11.3143319"><ele>843.25</ele><time>2026-04-26T12:25:31.445Z</time></trkpt><trkpt lat="46.2288242" lon="11.3144934"><ele>848.0</ele><time>2026-04-26T12:25:32.466Z</time></trkpt><trkpt lat="46.2288921" lon="11.3146425"><ele>850.75</ele><time>2026-04-26T12:25:33.447Z</time></trkpt><trkpt lat="46.2289464" lon="11.314791"><ele>853.5</ele><time>2026-04-26T12:25:34.446Z</time></trkpt><trkpt lat="46.2289663" lon="11.3149495"><ele>856.25</ele><time>2026-04-26T12:25:35.448Z</time></trkpt><trkpt lat="46.2289767" lon="11.3151222"><ele>859.0</ele><time>2026-04-26T12:25:36.441Z</time></trkpt><trkpt lat="46.2290223" lon="11.3152822"><ele>861.0</ele><time>2026-04-26T12:25:37.449Z</time></trkpt><trkpt lat="46.2290083" lon="11.31546"><ele>863.0</ele><time>2026-04-26T12:25:38.443Z</time></trkpt><trkpt lat="46.2289808" lon="11.3156386"><ele>865.0</ele><time>2026-04-26T12:25:39.455Z</time></trkpt><trkpt lat="46.2289398" lon="11.3158237"><ele>867.0</ele><time>2026-04-26T12:25:40.46Z</time></trkpt><trkpt lat="46.2288899" lon="11.31602"><ele>867.0</ele><time>2026-04-26T12:25:41.442Z</time></trkpt><trkpt lat="46.2288381" lon="11.3162271"><ele>867.0</ele><time>2026-04-26T12:25:42.438Z</time></trkpt><trkpt lat="46.2287834" lon="11.3164327"><ele>867.0</ele><time>2026-04-26T12:25:43.444Z</time></trkpt><trkpt lat="46.2287282" lon="11.3166234"><ele>867.0</ele><time>2026-04-26T12:25:44.441Z</time></trkpt><trkpt lat="46.2286912" lon="11.3168056"><ele>867.75</ele><time>2026-04-26T12:25:45.435Z</time></trkpt><trkpt lat="46.2286568" lon="11.3169852"><ele>868.5</ele><time>2026-04-26T12:25:46.435Z</time></trkpt><trkpt lat="46.2286223" lon="11.3171633"><ele>869.25</ele><time>2026-04-26T12:25:47.443Z</time></trkpt><trkpt lat="46.2285487" lon="11.3173201"><ele>870.0</ele><time>2026-04-26T12:25:48.457Z</time></trkpt><trkpt lat="46.2285043" lon="11.3174903"><ele>868.5</ele><time>2026-04-26T12:25:49.452Z</time></trkpt><trkpt lat="46.2284602" lon="11.317665"><ele>867.0</ele><time>2026-04-26T12:25:50.457Z</time></trkpt><trkpt lat="46.2283892" lon="11.317825"><ele>865.5</ele><time>2026-04-26T12:25:51.46Z</time></trkpt><trkpt lat="46.2283448" lon="11.3179829"><ele>864.0</ele><time>2026-04-26T12:25:52.44Z</time></trkpt><trkpt lat="46.2283135" lon="11.3181406"><ele>862.4000000000001</ele><time>2026-04-26T12:25:53.449Z</time></trkpt><trkpt lat="46.2283112" lon="11.318316"><ele>860.8000000000001</ele><time>2026-04-26T12:25:54.446Z</time></trkpt><trkpt lat="46.2282586" lon="11.318459"><ele>859.1999999999999</ele><time>2026-04-26T12:25:55.447Z</time></trkpt><trkpt lat="46.2282255" lon="11.3186059"><ele>857.5999999999999</ele><time>2026-04-26T12:25:56.451Z</time></trkpt><trkpt lat="46.2282215" lon="11.3187584"><ele>856.0</ele><time>2026-04-26T12:25:57.446Z</time></trkpt><trkpt lat="46.2282221" lon="11.3188987"><ele>855.5999999999999</ele><time>2026-04-26T12:25:58.439Z</time></trkpt><trkpt lat="46.22822" lon="11.3190305"><ele>855.1999999999999</ele><time>2026-04-26T12:25:59.465Z</time></trkpt><trkpt lat="46.2282071" lon="11.3191718"><ele>854.8000000000001</ele><time>2026-04-26T12:26:00.445Z</time></trkpt><trkpt lat="46.2282185" lon="11.3193243"><ele>854.4000000000001</ele><time>2026-04-26T12:26:01.444Z</time></trkpt><trkpt lat="46.2282253" lon="11.3194665"><ele>854.0</ele><time>2026-04-26T12:26:02.439Z</time></trkpt><trkpt lat="46.2282614" lon="11.3196016"><ele>854.0</ele><time>2026-04-26T12:26:03.443Z</time></trkpt><trkpt lat="46.2283228" lon="11.3197294"><ele>854.0000000000001</ele><time>2026-04-26T12:26:04.444Z</time></trkpt><trkpt lat="46.228396" lon="11.3198321"><ele>854.0000000000001</ele><time>2026-04-26T12:26:05.461Z</time></trkpt><trkpt lat="46.2284697" lon="11.3199267"><ele>854.0</ele><time>2026-04-26T12:26:06.442Z</time></trkpt><trkpt lat="46.2285693" lon="11.3199885"><ele>854.0</ele><time>2026-04-26T12:26:07.441Z</time></trkpt><trkpt lat="46.2286892" lon="11.3199976"><ele>856.6666666666667</ele><time>2026-04-26T12:26:08.436Z</time></trkpt><trkpt lat="46.2288286" lon="11.3199788"><ele>859.3333333333333</ele><time>2026-04-26T12:26:09.447Z</time></trkpt><trkpt lat="46.2289782" lon="11.3199286"><ele>862.0</ele><time>2026-04-26T12:26:10.448Z</time></trkpt><trkpt lat="46.2291292" lon="11.3198334"><ele>862.0</ele><time>2026-04-26T12:26:11.447Z</time></trkpt><trkpt lat="46.2292874" lon="11.319754"><ele>862.0</ele><time>2026-04-26T12:26:12.448Z</time></trkpt><trkpt lat="46.2294604" lon="11.3196935"><ele>862.0</ele><time>2026-04-26T12:26:13.44Z</time></trkpt><trkpt lat="46.2296491" lon="11.3196174"><ele>852.3333333333333</ele><time>2026-04-26T12:26:14.447Z</time></trkpt><trkpt lat="46.2298478" lon="11.3195414"><ele>842.6666666666667</ele><time>2026-04-26T12:26:15.459Z</time></trkpt><trkpt lat="46.2300463" lon="11.3194852"><ele>833.0</ele><time>2026-04-26T12:26:16.446Z</time></trkpt><trkpt lat="46.2302295" lon="11.3194092"><ele>833.0</ele><time>2026-04-26T12:26:17.45Z</time></trkpt><trkpt lat="46.2303878" lon="11.3193023"><ele>833.0</ele><time>2026-04-26T12:26:18.449Z</time></trkpt><trkpt lat="46.2305305" lon="11.3191821"><ele>833.0</ele><time>2026-04-26T12:26:19.435Z</time></trkpt><trkpt lat="46.2306674" lon="11.3190917"><ele>834.75</ele><time>2026-04-26T12:26:20.454Z</time></trkpt><trkpt lat="46.2307972" lon="11.3190272"><ele>836.5</ele><time>2026-04-26T12:26:21.433Z</time></trkpt><trkpt lat="46.2309204" lon="11.3189959"><ele>838.25</ele><time>2026-04-26T12:26:22.446Z</time></trkpt><trkpt lat="46.2310434" lon="11.3190315"><ele>840.0</ele><time>2026-04-26T12:26:23.437Z</time></trkpt><trkpt lat="46.2311558" lon="11.3190948"><ele>840.0</ele><time>2026-04-26T12:26:24.444Z</time></trkpt><trkpt lat="46.231241" lon="11.3191988"><ele>840.0</ele><time>2026-04-26T12:26:25.441Z</time></trkpt><trkpt lat="46.2313107" lon="11.3193476"><ele>840.0</ele><time>2026-04-26T12:26:26.434Z</time></trkpt><trkpt lat="46.2313804" lon="11.3195091"><ele>840.0</ele><time>2026-04-26T12:26:27.444Z</time></trkpt><trkpt lat="46.2314369" lon="11.3197003"><ele>845.3333333333333</ele><time>2026-04-26T12:26:28.433Z</time></trkpt><trkpt lat="46.2315299" lon="11.3199005"><ele>850.6666666666666</ele><time>2026-04-26T12:26:29.446Z</time></trkpt><trkpt lat="46.2316562" lon="11.3200889"><ele>856.0</ele><time>2026-04-26T12:26:30.45Z</time></trkpt><trkpt lat="46.2317947" lon="11.3202552"><ele>856.0</ele><time>2026-04-26T12:26:31.442Z</time></trkpt><trkpt lat="46.2319325" lon="11.3204044"><ele>856.0</ele><time>2026-04-26T12:26:32.446Z</time></trkpt><trkpt lat="46.2320538" lon="11.3205581"><ele>856.0</ele><time>2026-04-26T12:26:33.439Z</time></trkpt><trkpt lat="46.2321638" lon="11.3207072"><ele>851.0</ele><time>2026-04-26T12:26:34.439Z</time></trkpt><trkpt lat="46.2322432" lon="11.3208977"><ele>846.0</ele><time>2026-04-26T12:26:35.439Z</time></trkpt><trkpt lat="46.2323103" lon="11.3211062"><ele>841.0</ele><time>2026-04-26T12:26:36.444Z</time></trkpt><trkpt lat="46.23238" lon="11.3213096"><ele>847.6666666666666</ele><time>2026-04-26T12:26:37.448Z</time></trkpt><trkpt lat="46.2324606" lon="11.3215157"><ele>854.3333333333333</ele><time>2026-04-26T12:26:38.431Z</time></trkpt><trkpt lat="46.2325316" lon="11.3217212"><ele>861.0</ele><time>2026-04-26T12:26:39.454Z</time></trkpt><trkpt lat="46.2325978" lon="11.3219185"><ele>861.0</ele><time>2026-04-26T12:26:40.461Z</time></trkpt><trkpt lat="46.2326602" lon="11.322111"><ele>861.0</ele><time>2026-04-26T12:26:41.434Z</time></trkpt><trkpt lat="46.2327143" lon="11.3223032"><ele>861.0</ele><time>2026-04-26T12:26:42.447Z</time></trkpt><trkpt lat="46.2327542" lon="11.3225088"><ele>861.0</ele><time>2026-04-26T12:26:43.443Z</time></trkpt><trkpt lat="46.2327812" lon="11.3227323"><ele>868.0</ele><time>2026-04-26T12:26:44.437Z</time></trkpt><trkpt lat="46.2328284" lon="11.3229538"><ele>875.0</ele><time>2026-04-26T12:26:45.446Z</time></trkpt><trkpt lat="46.2328702" lon="11.3231766"><ele>882.0</ele><time>2026-04-26T12:26:46.432Z</time></trkpt><trkpt lat="46.2329188" lon="11.3233963"><ele>885.75</ele><time>2026-04-26T12:26:47.453Z</time></trkpt><trkpt lat="46.2329568" lon="11.3236146"><ele>889.5</ele><time>2026-04-26T12:26:48.441Z</time></trkpt><trkpt lat="46.2329889" lon="11.3238239"><ele>893.25</ele><time>2026-04-26T12:26:49.449Z</time></trkpt><trkpt lat="46.2330289" lon="11.324018"><ele>897.0</ele><time>2026-04-26T12:26:50.441Z</time></trkpt><trkpt lat="46.2330568" lon="11.3242061"><ele>898.75</ele><time>2026-04-26T12:26:51.447Z</time></trkpt><trkpt lat="46.2330704" lon="11.3243879"><ele>900.5</ele><time>2026-04-26T12:26:52.432Z</time></trkpt><trkpt lat="46.233063" lon="11.324566"><ele>902.25</ele><time>2026-04-26T12:26:53.449Z</time></trkpt><trkpt lat="46.2330204" lon="11.3247374"><ele>904.0</ele><time>2026-04-26T12:26:54.445Z</time></trkpt><trkpt lat="46.2329087" lon="11.3248869"><ele>904.4000000000001</ele><time>2026-04-26T12:26:55.433Z</time></trkpt><trkpt lat="46.2328294" lon="11.3250278"><ele>904.8000000000001</ele><time>2026-04-26T12:26:56.431Z</time></trkpt><trkpt lat="46.2327563" lon="11.3251518"><ele>905.1999999999999</ele><time>2026-04-26T12:26:57.439Z</time></trkpt><trkpt lat="46.2327022" lon="11.3252718"><ele>905.5999999999999</ele><time>2026-04-26T12:26:58.428Z</time></trkpt><trkpt lat="46.2326666" lon="11.3253875"><ele>906.0</ele><time>2026-04-26T12:26:59.429Z</time></trkpt><trkpt lat="46.2326409" lon="11.3254992"><ele>904.5999999999999</ele><time>2026-04-26T12:27:00.432Z</time></trkpt><trkpt lat="46.232668" lon="11.3256149"><ele>903.1999999999999</ele><time>2026-04-26T12:27:01.432Z</time></trkpt><trkpt lat="46.2327377" lon="11.3257326"><ele>901.8000000000001</ele><time>2026-04-26T12:27:02.429Z</time></trkpt><trkpt lat="46.2328429" lon="11.3258067"><ele>900.4000000000001</ele><time>2026-04-26T12:27:03.442Z</time></trkpt><trkpt lat="46.2329734" lon="11.3258495"><ele>899.0</ele><time>2026-04-26T12:27:04.432Z</time></trkpt><trkpt lat="46.2330938" lon="11.3258211"><ele>890.0</ele><time>2026-04-26T12:27:05.438Z</time></trkpt><trkpt lat="46.2332312" lon="11.3257463"><ele>881.0</ele><time>2026-04-26T12:27:06.421Z</time></trkpt><trkpt lat="46.2333708" lon="11.3256345"><ele>872.0</ele><time>2026-04-26T12:27:07.427Z</time></trkpt><trkpt lat="46.2335049" lon="11.3255278"><ele>867.75</ele><time>2026-04-26T12:27:08.43Z</time></trkpt><trkpt lat="46.2336304" lon="11.3254114"><ele>863.5</ele><time>2026-04-26T12:27:09.441Z</time></trkpt><trkpt lat="46.2337646" lon="11.3253094"><ele>859.25</ele><time>2026-04-26T12:27:10.431Z</time></trkpt><trkpt lat="46.2338774" lon="11.3252156"><ele>855.0</ele><time>2026-04-26T12:27:11.461Z</time></trkpt><trkpt lat="46.2339703" lon="11.3250807"><ele>858.75</ele><time>2026-04-26T12:27:12.435Z</time></trkpt><trkpt lat="46.2340455" lon="11.3249076"><ele>862.5</ele><time>2026-04-26T12:27:13.439Z</time></trkpt><trkpt lat="46.2341199" lon="11.3247349"><ele>866.25</ele><time>2026-04-26T12:27:14.43Z</time></trkpt><trkpt lat="46.2342105" lon="11.3245816"><ele>870.0</ele><time>2026-04-26T12:27:15.431Z</time></trkpt><trkpt lat="46.2343291" lon="11.324453"><ele>861.0</ele><time>2026-04-26T12:27:16.429Z</time></trkpt><trkpt lat="46.2344485" lon="11.3243167"><ele>852.0</ele><time>2026-04-26T12:27:17.452Z</time></trkpt><trkpt lat="46.2345652" lon="11.3241849"><ele>843.0</ele><time>2026-04-26T12:27:18.445Z</time></trkpt><trkpt lat="46.2346742" lon="11.3240586"><ele>834.0</ele><time>2026-04-26T12:27:19.427Z</time></trkpt><trkpt lat="46.2347841" lon="11.3239431"><ele>831.75</ele><time>2026-04-26T12:27:20.426Z</time></trkpt><trkpt lat="46.2349109" lon="11.3238486"><ele>829.5</ele><time>2026-04-26T12:27:21.43Z</time></trkpt><trkpt lat="46.235046" lon="11.3237723"><ele>827.25</ele><time>2026-04-26T12:27:22.427Z</time></trkpt><trkpt lat="46.2351996" lon="11.3237238"><ele>825.0</ele><time>2026-04-26T12:27:23.465Z</time></trkpt><trkpt lat="46.235354" lon="11.323699"><ele>825.0</ele><time>2026-04-26T12:27:24.443Z</time></trkpt><trkpt lat="46.2355106" lon="11.3236981"><ele>825.0</ele><time>2026-04-26T12:27:25.428Z</time></trkpt><trkpt lat="46.2356709" lon="11.3236945"><ele>825.0</ele><time>2026-04-26T12:27:26.439Z</time></trkpt><trkpt lat="46.2358332" lon="11.3236966"><ele>833.6666666666667</ele><time>2026-04-26T12:27:27.436Z</time></trkpt><trkpt lat="46.2359893" lon="11.3237174"><ele>842.3333333333334</ele><time>2026-04-26T12:27:28.447Z</time></trkpt><trkpt lat="46.2361377" lon="11.3237274"><ele>851.0</ele><time>2026-04-26T12:27:29.453Z</time></trkpt><trkpt lat="46.2362825" lon="11.3237245"><ele>851.0</ele><time>2026-04-26T12:27:30.436Z</time></trkpt><trkpt lat="46.2364144" lon="11.3237543"><ele>851.0</ele><time>2026-04-26T12:27:31.436Z</time></trkpt><trkpt lat="46.2365354" lon="11.3238185"><ele>851.0</ele><time>2026-04-26T12:27:32.426Z</time></trkpt><trkpt lat="46.2366634" lon="11.3239347"><ele>851.0</ele><time>2026-04-26T12:27:33.451Z</time></trkpt><trkpt lat="46.2367902" lon="11.3240606"><ele>852.75</ele><time>2026-04-26T12:27:34.45Z</time></trkpt><trkpt lat="46.2369168" lon="11.3241858"><ele>854.5</ele><time>2026-04-26T12:27:35.459Z</time></trkpt><trkpt lat="46.237044" lon="11.3242997"><ele>856.25</ele><time>2026-04-26T12:27:36.441Z</time></trkpt><trkpt lat="46.2371765" lon="11.3243777"><ele>858.0</ele><time>2026-04-26T12:27:37.452Z</time></trkpt><trkpt lat="46.2373039" lon="11.3244265"><ele>858.0</ele><time>2026-04-26T12:27:38.432Z</time></trkpt><trkpt lat="46.2374305" lon="11.3244683"><ele>858.0</ele><time>2026-04-26T12:27:39.44Z</time></trkpt><trkpt lat="46.2375541" lon="11.3245154"><ele>858.0</ele><time>2026-04-26T12:27:40.444Z</time></trkpt><trkpt lat="46.2376726" lon="11.3245642"><ele>858.0</ele><time>2026-04-26T12:27:41.447Z</time></trkpt><trkpt lat="46.2377955" lon="11.3246153"><ele>858.0</ele><time>2026-04-26T12:27:42.435Z</time></trkpt><trkpt lat="46.2379173" lon="11.3246582"><ele>858.0</ele><time>2026-04-26T12:27:43.435Z</time></trkpt><trkpt lat="46.2380403" lon="11.3247089"><ele>858.0</ele><time>2026-04-26T12:27:44.431Z</time></trkpt><trkpt lat="46.2381649" lon="11.3247535"><ele>858.0</ele><time>2026-04-26T12:27:45.44Z</time></trkpt><trkpt lat="46.2382925" lon="11.3247895"><ele>862.0</ele><time>2026-04-26T12:27:46.435Z</time></trkpt><trkpt lat="46.2384238" lon="11.3248229"><ele>866.0</ele><time>2026-04-26T12:27:47.467Z</time></trkpt><trkpt lat="46.2385483" lon="11.3248615"><ele>870.0</ele><time>2026-04-26T12:27:48.452Z</time></trkpt><trkpt lat="46.238674" lon="11.3248872"><ele>874.0</ele><time>2026-04-26T12:27:49.446Z</time></trkpt><trkpt lat="46.2387939" lon="11.3248833"><ele>874.0</ele><time>2026-04-26T12:27:50.44Z</time></trkpt><trkpt lat="46.2389144" lon="11.3248542"><ele>874.0</ele><time>2026-04-26T12:27:51.449Z</time></trkpt><trkpt lat="46.2390302" lon="11.3248122"><ele>874.0</ele><time>2026-04-26T12:27:52.44Z</time></trkpt><trkpt lat="46.2391377" lon="11.3247847"><ele>874.0</ele><time>2026-04-26T12:27:53.456Z</time></trkpt><trkpt lat="46.2392498" lon="11.3247535"><ele>873.6</ele><time>2026-04-26T12:27:54.438Z</time></trkpt><trkpt lat="46.2393615" lon="11.3247335"><ele>873.2</ele><time>2026-04-26T12:27:55.456Z</time></trkpt><trkpt lat="46.2394708" lon="11.3247092"><ele>872.8000000000001</ele><time>2026-04-26T12:27:56.445Z</time></trkpt><trkpt lat="46.2395723" lon="11.3246823"><ele>872.4000000000001</ele><time>2026-04-26T12:27:57.447Z</time></trkpt><trkpt lat="46.2396633" lon="11.324656"><ele>872.0</ele><time>2026-04-26T12:27:58.455Z</time></trkpt><trkpt lat="46.2397553" lon="11.3246333"><ele>873.6</ele><time>2026-04-26T12:27:59.466Z</time></trkpt><trkpt lat="46.2398536" lon="11.3246338"><ele>875.2</ele><time>2026-04-26T12:28:00.435Z</time></trkpt><trkpt lat="46.2399547" lon="11.3246582"><ele>876.8</ele><time>2026-04-26T12:28:01.434Z</time></trkpt><trkpt lat="46.2400599" lon="11.3246911"><ele>878.4</ele><time>2026-04-26T12:28:02.436Z</time></trkpt><trkpt lat="46.2401708" lon="11.324742"><ele>880.0</ele><time>2026-04-26T12:28:03.44Z</time></trkpt><trkpt lat="46.2402872" lon="11.3247984"><ele>880.0</ele><time>2026-04-26T12:28:04.445Z</time></trkpt><trkpt lat="46.2404075" lon="11.3248331"><ele>880.0</ele><time>2026-04-26T12:28:05.459Z</time></trkpt><trkpt lat="46.2405209" lon="11.324864"><ele>880.0</ele><time>2026-04-26T12:28:06.437Z</time></trkpt><trkpt lat="46.2406258" lon="11.3249184"><ele>880.0</ele><time>2026-04-26T12:28:07.446Z</time></trkpt><trkpt lat="46.2407338" lon="11.3249611"><ele>879.4</ele><time>2026-04-26T12:28:08.445Z</time></trkpt><trkpt lat="46.2408238" lon="11.3250448"><ele>878.8</ele><time>2026-04-26T12:28:09.446Z</time></trkpt><trkpt lat="46.240917" lon="11.3251088"><ele>878.2</ele><time>2026-04-26T12:28:10.462Z</time></trkpt><trkpt lat="46.2409838" lon="11.3252134"><ele>877.6</ele><time>2026-04-26T12:28:11.453Z</time></trkpt><trkpt lat="46.2410453" lon="11.3253422"><ele>877.0</ele><time>2026-04-26T12:28:12.443Z</time></trkpt><trkpt lat="46.2410907" lon="11.3254991"><ele>881.5</ele><time>2026-04-26T12:28:13.458Z</time></trkpt><trkpt lat="46.2411462" lon="11.3256531"><ele>886.0</ele><time>2026-04-26T12:28:14.435Z</time></trkpt><trkpt lat="46.2412016" lon="11.325842"><ele>890.5</ele><time>2026-04-26T12:28:15.436Z</time></trkpt><trkpt lat="46.2412665" lon="11.3260333"><ele>895.0</ele><time>2026-04-26T12:28:16.465Z</time></trkpt><trkpt lat="46.2413432" lon="11.3262096"><ele>895.0</ele><time>2026-04-26T12:28:17.452Z</time></trkpt><trkpt lat="46.2414513" lon="11.3263391"><ele>895.0</ele><time>2026-04-26T12:28:18.439Z</time></trkpt><trkpt lat="46.2415687" lon="11.3264493"><ele>895.0</ele><time>2026-04-26T12:28:19.448Z</time></trkpt><trkpt lat="46.2416942" lon="11.326544"><ele>895.0</ele><time>2026-04-26T12:28:20.446Z</time></trkpt><trkpt lat="46.2418097" lon="11.3266546"><ele>893.75</ele><time>2026-04-26T12:28:21.45Z</time></trkpt><trkpt lat="46.2419078" lon="11.3267833"><ele>892.5</ele><time>2026-04-26T12:28:22.468Z</time></trkpt><trkpt lat="46.2419928" lon="11.3269474"><ele>891.25</ele><time>2026-04-26T12:28:23.444Z</time></trkpt><trkpt lat="46.2420668" lon="11.3271342"><ele>890.0</ele><time>2026-04-26T12:28:24.448Z</time></trkpt><trkpt lat="46.2421531" lon="11.3273108"><ele>886.3333333333334</ele><time>2026-04-26T12:28:25.458Z</time></trkpt><trkpt lat="46.2422478" lon="11.3274864"><ele>882.6666666666667</ele><time>2026-04-26T12:28:26.442Z</time></trkpt><trkpt lat="46.2423482" lon="11.327655"><ele>879.0</ele><time>2026-04-26T12:28:27.457Z</time></trkpt><trkpt lat="46.2424414" lon="11.3278282"><ele>879.0</ele><time>2026-04-26T12:28:28.451Z</time></trkpt><trkpt lat="46.2425628" lon="11.3279576"><ele>879.0</ele><time>2026-04-26T12:28:29.449Z</time></trkpt><trkpt lat="46.2426691" lon="11.3280829"><ele>879.0</ele><time>2026-04-26T12:28:30.441Z</time></trkpt><trkpt lat="46.2427563" lon="11.3282137"><ele>879.0</ele><time>2026-04-26T12:28:31.45Z</time></trkpt><trkpt lat="46.2428283" lon="11.3283556"><ele>885.5</ele><time>2026-04-26T12:28:32.44Z</time></trkpt><trkpt lat="46.2428484" lon="11.3285318"><ele>892.0</ele><time>2026-04-26T12:28:33.45Z</time></trkpt><trkpt lat="46.242845" lon="11.3287214"><ele>898.5</ele><time>2026-04-26T12:28:34.454Z</time></trkpt><trkpt lat="46.2428213" lon="11.3289077"><ele>905.0</ele><time>2026-04-26T12:28:35.436Z</time></trkpt><trkpt lat="46.242813" lon="11.3291018"><ele>910.0</ele><time>2026-04-26T12:28:36.432Z</time></trkpt><trkpt lat="46.2428516" lon="11.3293042"><ele>915.0</ele><time>2026-04-26T12:28:37.455Z</time></trkpt><trkpt lat="46.2429119" lon="11.3295157"><ele>920.0</ele><time>2026-04-26T12:28:38.432Z</time></trkpt><trkpt lat="46.2429624" lon="11.3297398"><ele>925.3333333333334</ele><time>2026-04-26T12:28:39.45Z</time></trkpt><trkpt lat="46.2430291" lon="11.3299655"><ele>930.6666666666667</ele><time>2026-04-26T12:28:40.436Z</time></trkpt><trkpt lat="46.2430866" lon="11.3302051"><ele>936.0</ele><time>2026-04-26T12:28:41.441Z</time></trkpt><trkpt lat="46.2431541" lon="11.3304088"><ele>923.0</ele><time>2026-04-26T12:28:42.443Z</time></trkpt><trkpt lat="46.2432351" lon="11.3305919"><ele>910.0</ele><time>2026-04-26T12:28:43.444Z</time></trkpt><trkpt lat="46.2433411" lon="11.3307601"><ele>897.0</ele><time>2026-04-26T12:28:44.448Z</time></trkpt><trkpt lat="46.243431" lon="11.3309273"><ele>897.0</ele><time>2026-04-26T12:28:45.443Z</time></trkpt><trkpt lat="46.2435387" lon="11.3310898"><ele>897.0</ele><time>2026-04-26T12:28:46.46Z</time></trkpt><trkpt lat="46.2436824" lon="11.3312383"><ele>897.0</ele><time>2026-04-26T12:28:47.456Z</time></trkpt><trkpt lat="46.2438057" lon="11.3312892"><ele>897.0</ele><time>2026-04-26T12:28:48.447Z</time></trkpt><trkpt lat="46.2439398" lon="11.3312654"><ele>897.0</ele><time>2026-04-26T12:28:49.448Z</time></trkpt><trkpt lat="46.2440486" lon="11.3312128"><ele>897.0</ele><time>2026-04-26T12:28:50.441Z</time></trkpt><trkpt lat="46.2441599" lon="11.3311887"><ele>897.0</ele><time>2026-04-26T12:28:51.444Z</time></trkpt><trkpt lat="46.2442627" lon="11.3311043"><ele>889.0</ele><time>2026-04-26T12:28:52.439Z</time></trkpt><trkpt lat="46.244376" lon="11.3310425"><ele>881.0</ele><time>2026-04-26T12:28:53.445Z</time></trkpt><trkpt lat="46.2444801" lon="11.3310588"><ele>873.0</ele><time>2026-04-26T12:28:54.45Z</time></trkpt><trkpt lat="46.2445899" lon="11.3311266"><ele>865.0</ele><time>2026-04-26T12:28:55.431Z</time></trkpt><trkpt lat="46.2447659" lon="11.3313102"><ele>870.6666666666666</ele><time>2026-04-26T12:28:56.442Z</time></trkpt><trkpt lat="46.2449246" lon="11.3314472"><ele>876.3333333333333</ele><time>2026-04-26T12:28:57.441Z</time></trkpt><trkpt lat="46.2450856" lon="11.3315909"><ele>882.0</ele><time>2026-04-26T12:28:58.438Z</time></trkpt><trkpt lat="46.2452661" lon="11.3317065"><ele>882.0</ele><time>2026-04-26T12:28:59.442Z</time></trkpt><trkpt lat="46.2454512" lon="11.3318247"><ele>882.0</ele><time>2026-04-26T12:29:00.44Z</time></trkpt><trkpt lat="46.2456133" lon="11.3319408"><ele>882.0</ele><time>2026-04-26T12:29:01.438Z</time></trkpt><trkpt lat="46.2457792" lon="11.3320413"><ele>889.0</ele><time>2026-04-26T12:29:02.436Z</time></trkpt><trkpt lat="46.245929" lon="11.3321634"><ele>896.0</ele><time>2026-04-26T12:29:03.437Z</time></trkpt><trkpt lat="46.2460817" lon="11.3322846"><ele>903.0</ele><time>2026-04-26T12:29:04.445Z</time></trkpt><trkpt lat="46.2462284" lon="11.3323975"><ele>903.0</ele><time>2026-04-26T12:29:05.443Z</time></trkpt><trkpt lat="46.2463778" lon="11.3324819"><ele>903.0</ele><time>2026-04-26T12:29:06.441Z</time></trkpt><trkpt lat="46.2465384" lon="11.3325262"><ele>903.0</ele><time>2026-04-26T12:29:07.443Z</time></trkpt><trkpt lat="46.2466863" lon="11.3325961"><ele>895.5</ele><time>2026-04-26T12:29:08.448Z</time></trkpt><trkpt lat="46.2468355" lon="11.3326376"><ele>888.0</ele><time>2026-04-26T12:29:09.46Z</time></trkpt><trkpt lat="46.2469809" lon="11.3326793"><ele>880.5</ele><time>2026-04-26T12:29:10.435Z</time></trkpt><trkpt lat="46.2471226" lon="11.3327232"><ele>873.0</ele><time>2026-04-26T12:29:11.445Z</time></trkpt><trkpt lat="46.2472651" lon="11.3327726"><ele>876.5</ele><time>2026-04-26T12:29:12.449Z</time></trkpt><trkpt lat="46.2474029" lon="11.3328412"><ele>880.0</ele><time>2026-04-26T12:29:13.45Z</time></trkpt><trkpt lat="46.2475204" lon="11.3329516"><ele>883.5</ele><time>2026-04-26T12:29:14.433Z</time></trkpt><trkpt lat="46.2476196" lon="11.333099"><ele>887.0</ele><time>2026-04-26T12:29:15.444Z</time></trkpt><trkpt lat="46.2476875" lon="11.333293"><ele>887.0</ele><time>2026-04-26T12:29:16.44Z</time></trkpt><trkpt lat="46.247752" lon="11.333487"><ele>887.0</ele><time>2026-04-26T12:29:17.448Z</time></trkpt><trkpt lat="46.2477826" lon="11.3336997"><ele>887.0</ele><time>2026-04-26T12:29:18.441Z</time></trkpt><trkpt lat="46.2477872" lon="11.3339239"><ele>887.3333333333334</ele><time>2026-04-26T12:29:19.442Z</time></trkpt><trkpt lat="46.2477228" lon="11.3341601"><ele>887.6666666666667</ele><time>2026-04-26T12:29:20.455Z</time></trkpt><trkpt lat="46.2476654" lon="11.3343829"><ele>888.0</ele><time>2026-04-26T12:29:21.454Z</time></trkpt><trkpt lat="46.2476104" lon="11.3345874"><ele>887.5</ele><time>2026-04-26T12:29:22.431Z</time></trkpt><trkpt lat="46.2475556" lon="11.3347847"><ele>887.0</ele><time>2026-04-26T12:29:23.455Z</time></trkpt><trkpt lat="46.247506" lon="11.3349626"><ele>886.5</ele><time>2026-04-26T12:29:24.43Z</time></trkpt><trkpt lat="46.2474712" lon="11.3351201"><ele>886.0</ele><time>2026-04-26T12:29:25.433Z</time></trkpt><trkpt lat="46.2474418" lon="11.3352701"><ele>886.0</ele><time>2026-04-26T12:29:26.438Z</time></trkpt><trkpt lat="46.2474212" lon="11.3354124"><ele>885.9999999999999</ele><time>2026-04-26T12:29:27.436Z</time></trkpt><trkpt lat="46.2474172" lon="11.3355566"><ele>885.9999999999999</ele><time>2026-04-26T12:29:28.435Z</time></trkpt><trkpt lat="46.2474486" lon="11.335698"><ele>886.0</ele><time>2026-04-26T12:29:29.434Z</time></trkpt><trkpt lat="46.2474986" lon="11.3358596"><ele>886.0</ele><time>2026-04-26T12:29:30.431Z</time></trkpt><trkpt lat="46.2475873" lon="11.3360118"><ele>887.75</ele><time>2026-04-26T12:29:31.426Z</time></trkpt><trkpt lat="46.2476902" lon="11.3361426"><ele>889.5</ele><time>2026-04-26T12:29:32.435Z</time></trkpt><trkpt lat="46.247785" lon="11.3362858"><ele>891.25</ele><time>2026-04-26T12:29:33.431Z</time></trkpt><trkpt lat="46.2478879" lon="11.3364236"><ele>893.0</ele><time>2026-04-26T12:29:34.439Z</time></trkpt><trkpt lat="46.2480121" lon="11.3365368"><ele>886.75</ele><time>2026-04-26T12:29:35.442Z</time></trkpt><trkpt lat="46.2481342" lon="11.3366331"><ele>880.5</ele><time>2026-04-26T12:29:36.433Z</time></trkpt><trkpt lat="46.2482535" lon="11.3367456"><ele>874.25</ele><time>2026-04-26T12:29:37.443Z</time></trkpt><trkpt lat="46.2483578" lon="11.3368594"><ele>868.0</ele><time>2026-04-26T12:29:38.446Z</time></trkpt><trkpt lat="46.2484565" lon="11.3369672"><ele>867.9999999999999</ele><time>2026-04-26T12:29:39.456Z</time></trkpt><trkpt lat="46.2485323" lon="11.3370584"><ele>868.0</ele><time>2026-04-26T12:29:40.448Z</time></trkpt><trkpt lat="46.2485836" lon="11.3371653"><ele>868.0</ele><time>2026-04-26T12:29:41.451Z</time></trkpt><trkpt lat="46.2486246" lon="11.3372792"><ele>868.0</ele><time>2026-04-26T12:29:42.436Z</time></trkpt><trkpt lat="46.2486199" lon="11.3374009"><ele>867.9999999999999</ele><time>2026-04-26T12:29:43.442Z</time></trkpt><trkpt lat="46.2485843" lon="11.3375027"><ele>868.0</ele><time>2026-04-26T12:29:44.429Z</time></trkpt><trkpt lat="46.2485357" lon="11.3375882"><ele>867.0</ele><time>2026-04-26T12:29:45.44Z</time></trkpt><trkpt lat="46.2484577" lon="11.3376445"><ele>866.0</ele><time>2026-04-26T12:29:46.434Z</time></trkpt><trkpt lat="46.2483713" lon="11.3376756"><ele>865.0</ele><time>2026-04-26T12:29:47.439Z</time></trkpt><trkpt lat="46.2482819" lon="11.337708"><ele>864.0</ele><time>2026-04-26T12:29:48.436Z</time></trkpt><trkpt lat="46.2481914" lon="11.3377562"><ele>863.0</ele><time>2026-04-26T12:29:49.454Z</time></trkpt><trkpt lat="46.2480955" lon="11.3378033"><ele>862.0</ele><time>2026-04-26T12:29:50.448Z</time></trkpt><trkpt lat="46.2479892" lon="11.3378541"><ele>861.0</ele><time>2026-04-26T12:29:51.482Z</time></trkpt><trkpt lat="46.2478357" lon="11.3379156"><ele>860.0</ele><time>2026-04-26T12:29:52.426Z</time></trkpt><trkpt lat="46.2477266" lon="11.3379761"><ele>859.0</ele><time>2026-04-26T12:29:53.438Z</time></trkpt><trkpt lat="46.2476384" lon="11.3380659"><ele>859.0</ele><time>2026-04-26T12:29:54.444Z</time></trkpt><trkpt lat="46.2475488" lon="11.3381691"><ele>859.0000000000001</ele><time>2026-04-26T12:29:55.437Z</time></trkpt><trkpt lat="46.2474567" lon="11.3382585"><ele>859.0000000000001</ele><time>2026-04-26T12:29:56.448Z</time></trkpt><trkpt lat="46.2473661" lon="11.338321"><ele>859.0</ele><time>2026-04-26T12:29:57.446Z</time></trkpt><trkpt lat="46.2472742" lon="11.3383566"><ele>859.0</ele><time>2026-04-26T12:29:58.428Z</time></trkpt><trkpt lat="46.2471668" lon="11.3383479"><ele>863.25</ele><time>2026-04-26T12:29:59.447Z</time></trkpt><trkpt lat="46.2470539" lon="11.3383006"><ele>867.5</ele><time>2026-04-26T12:30:00.446Z</time></trkpt><trkpt lat="46.246935" lon="11.3382699"><ele>871.75</ele><time>2026-04-26T12:30:01.431Z</time></trkpt><trkpt lat="46.2468202" lon="11.338286"><ele>876.0</ele><time>2026-04-26T12:30:02.445Z</time></trkpt><trkpt lat="46.2466965" lon="11.3383437"><ele>876.0</ele><time>2026-04-26T12:30:03.44Z</time></trkpt><trkpt lat="46.2465604" lon="11.3384384"><ele>876.0</ele><time>2026-04-26T12:30:04.446Z</time></trkpt><trkpt lat="46.2464294" lon="11.3385402"><ele>876.0</ele><time>2026-04-26T12:30:05.429Z</time></trkpt><trkpt lat="46.2462869" lon="11.3386763"><ele>872.3333333333333</ele><time>2026-04-26T12:30:06.423Z</time></trkpt><trkpt lat="46.2461428" lon="11.3387847"><ele>868.6666666666666</ele><time>2026-04-26T12:30:07.438Z</time></trkpt><trkpt lat="46.2459621" lon="11.33892"><ele>865.0</ele><time>2026-04-26T12:30:08.431Z</time></trkpt><trkpt lat="46.2458292" lon="11.3390443"><ele>865.0</ele><time>2026-04-26T12:30:09.447Z</time></trkpt><trkpt lat="46.2456671" lon="11.3391199"><ele>865.0</ele><time>2026-04-26T12:30:10.446Z</time></trkpt><trkpt lat="46.2455158" lon="11.3392302"><ele>865.0</ele><time>2026-04-26T12:30:11.435Z</time></trkpt><trkpt lat="46.2453855" lon="11.339354"><ele>865.6666666666666</ele><time>2026-04-26T12:30:12.439Z</time></trkpt><trkpt lat="46.2452672" lon="11.3394802"><ele>866.3333333333333</ele><time>2026-04-26T12:30:13.434Z</time></trkpt><trkpt lat="46.2451532" lon="11.3396249"><ele>867.0</ele><time>2026-04-26T12:30:14.436Z</time></trkpt><trkpt lat="46.2450474" lon="11.3397831"><ele>867.0</ele><time>2026-04-26T12:30:15.439Z</time></trkpt><trkpt lat="46.2449515" lon="11.3399417"><ele>867.0</ele><time>2026-04-26T12:30:16.436Z</time></trkpt><trkpt lat="46.2448503" lon="11.3401025"><ele>867.0</ele><time>2026-04-26T12:30:17.447Z</time></trkpt><trkpt lat="46.2447326" lon="11.340218"><ele>867.0</ele><time>2026-04-26T12:30:18.438Z</time></trkpt><trkpt lat="46.2446485" lon="11.3403857"><ele>868.25</ele><time>2026-04-26T12:30:19.431Z</time></trkpt><trkpt lat="46.2445557" lon="11.3405382"><ele>869.5</ele><time>2026-04-26T12:30:20.439Z</time></trkpt><trkpt lat="46.2444435" lon="11.3406542"><ele>870.75</ele><time>2026-04-26T12:30:21.437Z</time></trkpt><trkpt lat="46.2443117" lon="11.3407294"><ele>872.0</ele><time>2026-04-26T12:30:22.445Z</time></trkpt><trkpt lat="46.2441722" lon="11.3407887"><ele>872.0</ele><time>2026-04-26T12:30:23.46Z</time></trkpt><trkpt lat="46.2440326" lon="11.3408508"><ele>872.0</ele><time>2026-04-26T12:30:24.437Z</time></trkpt><trkpt lat="46.2438826" lon="11.3409074"><ele>872.0</ele><time>2026-04-26T12:30:25.456Z</time></trkpt><trkpt lat="46.2437389" lon="11.3410047"><ele>870.0</ele><time>2026-04-26T12:30:26.448Z</time></trkpt><trkpt lat="46.2435976" lon="11.3411329"><ele>868.0</ele><time>2026-04-26T12:30:27.434Z</time></trkpt><trkpt lat="46.2434566" lon="11.341282"><ele>866.0</ele><time>2026-04-26T12:30:28.453Z</time></trkpt><trkpt lat="46.2433241" lon="11.3414456"><ele>866.0</ele><time>2026-04-26T12:30:29.439Z</time></trkpt><trkpt lat="46.2431949" lon="11.3416113"><ele>866.0</ele><time>2026-04-26T12:30:30.443Z</time></trkpt><trkpt lat="46.2430544" lon="11.3417556"><ele>866.0</ele><time>2026-04-26T12:30:31.445Z</time></trkpt><trkpt lat="46.2429222" lon="11.3418957"><ele>867.25</ele><time>2026-04-26T12:30:32.455Z</time></trkpt><trkpt lat="46.2428063" lon="11.342038"><ele>868.5</ele><time>2026-04-26T12:30:33.456Z</time></trkpt><trkpt lat="46.2427114" lon="11.3421894"><ele>869.75</ele><time>2026-04-26T12:30:34.449Z</time></trkpt><trkpt lat="46.2426361" lon="11.342349"><ele>871.0</ele><time>2026-04-26T12:30:35.438Z</time></trkpt><trkpt lat="46.2425965" lon="11.3425251"><ele>871.0</ele><time>2026-04-26T12:30:36.436Z</time></trkpt><trkpt lat="46.242587" lon="11.3427001"><ele>871.0</ele><time>2026-04-26T12:30:37.434Z</time></trkpt><trkpt lat="46.2426056" lon="11.3428723"><ele>871.0</ele><time>2026-04-26T12:30:38.43Z</time></trkpt><trkpt lat="46.242642" lon="11.3430542"><ele>871.0</ele><time>2026-04-26T12:30:39.44Z</time></trkpt><trkpt lat="46.2426946" lon="11.3432326"><ele>870.5</ele><time>2026-04-26T12:30:40.434Z</time></trkpt><trkpt lat="46.2427611" lon="11.3434042"><ele>870.0</ele><time>2026-04-26T12:30:41.427Z</time></trkpt><trkpt lat="46.2428235" lon="11.3435703"><ele>869.5</ele><time>2026-04-26T12:30:42.436Z</time></trkpt><trkpt lat="46.2428874" lon="11.3437289"><ele>869.0</ele><time>2026-04-26T12:30:43.441Z</time></trkpt><trkpt lat="46.2429478" lon="11.3438833"><ele>869.0</ele><time>2026-04-26T12:30:44.442Z</time></trkpt><trkpt lat="46.2430269" lon="11.3440248"><ele>869.0</ele><time>2026-04-26T12:30:45.454Z</time></trkpt><trkpt lat="46.2431333" lon="11.3441426"><ele>869.0</ele><time>2026-04-26T12:30:46.437Z</time></trkpt><trkpt lat="46.2432534" lon="11.3442473"><ele>869.0</ele><time>2026-04-26T12:30:47.457Z</time></trkpt><trkpt lat="46.2433932" lon="11.3442952"><ele>867.0</ele><time>2026-04-26T12:30:48.441Z</time></trkpt><trkpt lat="46.2435422" lon="11.3443156"><ele>865.0</ele><time>2026-04-26T12:30:49.441Z</time></trkpt><trkpt lat="46.2437085" lon="11.3442795"><ele>863.0</ele><time>2026-04-26T12:30:50.444Z</time></trkpt><trkpt lat="46.2438769" lon="11.3441766"><ele>867.0</ele><time>2026-04-26T12:30:51.431Z</time></trkpt><trkpt lat="46.2440302" lon="11.3440324"><ele>871.0</ele><time>2026-04-26T12:30:52.429Z</time></trkpt><trkpt lat="46.2441797" lon="11.3438907"><ele>875.0</ele><time>2026-04-26T12:30:53.427Z</time></trkpt><trkpt lat="46.2443364" lon="11.3437744"><ele>867.6666666666667</ele><time>2026-04-26T12:30:54.443Z</time></trkpt><trkpt lat="46.2444934" lon="11.3436589"><ele>860.3333333333333</ele><time>2026-04-26T12:30:55.438Z</time></trkpt><trkpt lat="46.2446541" lon="11.343521"><ele>853.0</ele><time>2026-04-26T12:30:56.441Z</time></trkpt><trkpt lat="46.2448128" lon="11.3434004"><ele>853.0</ele><time>2026-04-26T12:30:57.445Z</time></trkpt><trkpt lat="46.2449677" lon="11.3432723"><ele>853.0</ele><time>2026-04-26T12:30:58.427Z</time></trkpt><trkpt lat="46.2451189" lon="11.3431724"><ele>853.0</ele><time>2026-04-26T12:30:59.428Z</time></trkpt><trkpt lat="46.2452707" lon="11.3430463"><ele>843.3333333333333</ele><time>2026-04-26T12:31:00.426Z</time></trkpt><trkpt lat="46.245411" lon="11.3429692"><ele>833.6666666666667</ele><time>2026-04-26T12:31:01.444Z</time></trkpt><trkpt lat="46.2455704" lon="11.3429418"><ele>824.0</ele><time>2026-04-26T12:31:02.43Z</time></trkpt><trkpt lat="46.2457268" lon="11.3429353"><ele>823.3333333333334</ele><time>2026-04-26T12:31:03.45Z</time></trkpt><trkpt lat="46.2458903" lon="11.3429609"><ele>822.6666666666667</ele><time>2026-04-26T12:31:04.44Z</time></trkpt><trkpt lat="46.2460554" lon="11.3430098"><ele>822.0</ele><time>2026-04-26T12:31:05.446Z</time></trkpt><trkpt lat="46.2462328" lon="11.3430571"><ele>838.0</ele><time>2026-04-26T12:31:06.438Z</time></trkpt><trkpt lat="46.2464051" lon="11.3430798"><ele>854.0</ele><time>2026-04-26T12:31:07.45Z</time></trkpt><trkpt lat="46.2465746" lon="11.3430874"><ele>870.0</ele><time>2026-04-26T12:31:08.423Z</time></trkpt><trkpt lat="46.2467427" lon="11.343078"><ele>870.6666666666667</ele><time>2026-04-26T12:31:09.45Z</time></trkpt><trkpt lat="46.2469085" lon="11.3430524"><ele>871.3333333333334</ele><time>2026-04-26T12:31:10.431Z</time></trkpt><trkpt lat="46.2470741" lon="11.3430421"><ele>872.0</ele><time>2026-04-26T12:31:11.448Z</time></trkpt><trkpt lat="46.2472296" lon="11.3430096"><ele>861.75</ele><time>2026-04-26T12:31:12.429Z</time></trkpt><trkpt lat="46.2473815" lon="11.3429827"><ele>851.5</ele><time>2026-04-26T12:31:13.445Z</time></trkpt><trkpt lat="46.2475265" lon="11.3429591"><ele>841.25</ele><time>2026-04-26T12:31:14.437Z</time></trkpt><trkpt lat="46.2476634" lon="11.3429308"><ele>831.0</ele><time>2026-04-26T12:31:15.455Z</time></trkpt><trkpt lat="46.2477998" lon="11.3429554"><ele>831.0</ele><time>2026-04-26T12:31:16.42Z</time></trkpt><trkpt lat="46.2479296" lon="11.3429443"><ele>831.0</ele><time>2026-04-26T12:31:17.431Z</time></trkpt><trkpt lat="46.2480552" lon="11.342946"><ele>831.0</ele><time>2026-04-26T12:31:18.439Z</time></trkpt><trkpt lat="46.2481784" lon="11.34294"><ele>831.0</ele><time>2026-04-26T12:31:19.441Z</time></trkpt><trkpt lat="46.2483049" lon="11.3429486"><ele>830.75</ele><time>2026-04-26T12:31:20.434Z</time></trkpt><trkpt lat="46.248431" lon="11.3429783"><ele>830.5</ele><time>2026-04-26T12:31:21.429Z</time></trkpt><trkpt lat="46.248553" lon="11.3430038"><ele>830.25</ele><time>2026-04-26T12:31:22.42Z</time></trkpt><trkpt lat="46.24867" lon="11.3430657"><ele>830.0</ele><time>2026-04-26T12:31:23.438Z</time></trkpt><trkpt lat="46.2487932" lon="11.3431153"><ele>838.0</ele><time>2026-04-26T12:31:24.432Z</time></trkpt><trkpt lat="46.2489177" lon="11.3431616"><ele>846.0</ele><time>2026-04-26T12:31:25.456Z</time></trkpt><trkpt lat="46.2490425" lon="11.3431945"><ele>854.0</ele><time>2026-04-26T12:31:26.435Z</time></trkpt><trkpt lat="46.2491619" lon="11.3432389"><ele>862.0</ele><time>2026-04-26T12:31:27.438Z</time></trkpt><trkpt lat="46.2492764" lon="11.3433016"><ele>862.0</ele><time>2026-04-26T12:31:28.434Z</time></trkpt><trkpt lat="46.2493901" lon="11.3433497"><ele>862.0</ele><time>2026-04-26T12:31:29.437Z</time></trkpt><trkpt lat="46.2495026" lon="11.3433981"><ele>862.0</ele><time>2026-04-26T12:31:30.439Z</time></trkpt><trkpt lat="46.2496085" lon="11.3434802"><ele>862.0</ele><time>2026-04-26T12:31:31.429Z</time></trkpt><trkpt lat="46.2497085" lon="11.3435866"><ele>864.0</ele><time>2026-04-26T12:31:32.434Z</time></trkpt><trkpt lat="46.2498112" lon="11.3436921"><ele>866.0</ele><time>2026-04-26T12:31:33.438Z</time></trkpt><trkpt lat="46.2499103" lon="11.3438082"><ele>868.0</ele><time>2026-04-26T12:31:34.426Z</time></trkpt><trkpt lat="46.2500041" lon="11.3439317"><ele>870.0</ele><time>2026-04-26T12:31:35.44Z</time></trkpt><trkpt lat="46.2501004" lon="11.344046"><ele>870.0</ele><time>2026-04-26T12:31:36.438Z</time></trkpt><trkpt lat="46.2501995" lon="11.3441597"><ele>870.0</ele><time>2026-04-26T12:31:37.445Z</time></trkpt><trkpt lat="46.2502976" lon="11.3442742"><ele>870.0</ele><time>2026-04-26T12:31:38.432Z</time></trkpt><trkpt lat="46.250388" lon="11.3444061"><ele>870.0</ele><time>2026-04-26T12:31:39.429Z</time></trkpt><trkpt lat="46.2504687" lon="11.3445552"><ele>870.0</ele><time>2026-04-26T12:31:40.422Z</time></trkpt><trkpt lat="46.2505501" lon="11.3447088"><ele>870.0</ele><time>2026-04-26T12:31:41.435Z</time></trkpt><trkpt lat="46.2506262" lon="11.344872"><ele>870.0</ele><time>2026-04-26T12:31:42.43Z</time></trkpt><trkpt lat="46.2506895" lon="11.345041"><ele>870.0</ele><time>2026-04-26T12:31:43.453Z</time></trkpt><trkpt lat="46.2507161" lon="11.3452309"><ele>869.0</ele><time>2026-04-26T12:31:44.44Z</time></trkpt><trkpt lat="46.2507452" lon="11.3454127"><ele>868.0</ele><time>2026-04-26T12:31:45.431Z</time></trkpt><trkpt lat="46.2507744" lon="11.3455907"><ele>867.0</ele><time>2026-04-26T12:31:46.443Z</time></trkpt><trkpt lat="46.2507983" lon="11.3457702"><ele>866.0</ele><time>2026-04-26T12:31:47.447Z</time></trkpt><trkpt lat="46.2508194" lon="11.3459527"><ele>866.0</ele><time>2026-04-26T12:31:48.432Z</time></trkpt><trkpt lat="46.2508196" lon="11.3461413"><ele>866.0</ele><time>2026-04-26T12:31:49.449Z</time></trkpt><trkpt lat="46.2508176" lon="11.3463327"><ele>866.0</ele><time>2026-04-26T12:31:50.428Z</time></trkpt><trkpt lat="46.2508086" lon="11.3465258"><ele>866.0</ele><time>2026-04-26T12:31:51.438Z</time></trkpt><trkpt lat="46.2508008" lon="11.3467238"><ele>866.25</ele><time>2026-04-26T12:31:52.428Z</time></trkpt><trkpt lat="46.2507389" lon="11.3469238"><ele>866.5</ele><time>2026-04-26T12:31:53.434Z</time></trkpt><trkpt lat="46.2507129" lon="11.3471202"><ele>866.75</ele><time>2026-04-26T12:31:54.426Z</time></trkpt><trkpt lat="46.2507081" lon="11.3473107"><ele>867.0</ele><time>2026-04-26T12:31:55.433Z</time></trkpt><trkpt lat="46.250737" lon="11.3474952"><ele>868.5</ele><time>2026-04-26T12:31:56.427Z</time></trkpt><trkpt lat="46.2507801" lon="11.3476725"><ele>870.0</ele><time>2026-04-26T12:31:57.429Z</time></trkpt><trkpt lat="46.250825" lon="11.3478506"><ele>871.5</ele><time>2026-04-26T12:31:58.431Z</time></trkpt><trkpt lat="46.250903" lon="11.3480117"><ele>873.0</ele><time>2026-04-26T12:31:59.426Z</time></trkpt><trkpt lat="46.2509891" lon="11.3481641"><ele>876.5</ele><time>2026-04-26T12:32:00.437Z</time></trkpt><trkpt lat="46.2510813" lon="11.348314"><ele>880.0</ele><time>2026-04-26T12:32:01.441Z</time></trkpt><trkpt lat="46.2511892" lon="11.3484538"><ele>883.5</ele><time>2026-04-26T12:32:02.426Z</time></trkpt><trkpt lat="46.2513056" lon="11.3485813"><ele>887.0</ele><time>2026-04-26T12:32:03.438Z</time></trkpt><trkpt lat="46.2514287" lon="11.3486924"><ele>879.3333333333334</ele><time>2026-04-26T12:32:04.435Z</time></trkpt><trkpt lat="46.2515718" lon="11.3487739"><ele>871.6666666666667</ele><time>2026-04-26T12:32:05.439Z</time></trkpt><trkpt lat="46.2517244" lon="11.3488249"><ele>864.0</ele><time>2026-04-26T12:32:06.441Z</time></trkpt><trkpt lat="46.2518851" lon="11.3488512"><ele>864.0</ele><time>2026-04-26T12:32:07.432Z</time></trkpt><trkpt lat="46.2520544" lon="11.3488569"><ele>864.0</ele><time>2026-04-26T12:32:08.452Z</time></trkpt><trkpt lat="46.2522229" lon="11.3488458"><ele>864.0</ele><time>2026-04-26T12:32:09.438Z</time></trkpt><trkpt lat="46.2523914" lon="11.34884"><ele>865.0</ele><time>2026-04-26T12:32:10.424Z</time></trkpt><trkpt lat="46.2525624" lon="11.3488369"><ele>866.0</ele><time>2026-04-26T12:32:11.441Z</time></trkpt><trkpt lat="46.252731" lon="11.3488249"><ele>867.0</ele><time>2026-04-26T12:32:12.444Z</time></trkpt><trkpt lat="46.2529035" lon="11.348828"><ele>867.0</ele><time>2026-04-26T12:32:13.454Z</time></trkpt><trkpt lat="46.2530716" lon="11.3488377"><ele>867.0</ele><time>2026-04-26T12:32:14.439Z</time></trkpt><trkpt lat="46.2532257" lon="11.3488488"><ele>867.0</ele><time>2026-04-26T12:32:15.45Z</time></trkpt><trkpt lat="46.2533758" lon="11.3488841"><ele>872.3333333333333</ele><time>2026-04-26T12:32:16.43Z</time></trkpt><trkpt lat="46.2535186" lon="11.3489597"><ele>877.6666666666666</ele><time>2026-04-26T12:32:17.428Z</time></trkpt><trkpt lat="46.2536523" lon="11.3490617"><ele>883.0</ele><time>2026-04-26T12:32:18.43Z</time></trkpt><trkpt lat="46.2537887" lon="11.3491654"><ele>883.0</ele><time>2026-04-26T12:32:19.449Z</time></trkpt><trkpt lat="46.253925" lon="11.349269"><ele>883.0</ele><time>2026-04-26T12:32:20.427Z</time></trkpt><trkpt lat="46.2540576" lon="11.3493685"><ele>883.0</ele><time>2026-04-26T12:32:21.439Z</time></trkpt><trkpt lat="46.2541863" lon="11.3494766"><ele>881.3333333333333</ele><time>2026-04-26T12:32:22.424Z</time></trkpt><trkpt lat="46.2543327" lon="11.3495439"><ele>879.6666666666667</ele><time>2026-04-26T12:32:23.423Z</time></trkpt><trkpt lat="46.2544868" lon="11.349538"><ele>878.0</ele><time>2026-04-26T12:32:24.453Z</time></trkpt><trkpt lat="46.2546286" lon="11.3495223"><ele>878.0</ele><time>2026-04-26T12:32:25.427Z</time></trkpt><trkpt lat="46.2547625" lon="11.3495175"><ele>878.0</ele><time>2026-04-26T12:32:26.452Z</time></trkpt><trkpt lat="46.2548925" lon="11.3495309"><ele>878.0</ele><time>2026-04-26T12:32:27.426Z</time></trkpt><trkpt lat="46.2550319" lon="11.3495547"><ele>878.0</ele><time>2026-04-26T12:32:28.436Z</time></trkpt><trkpt lat="46.2551556" lon="11.3496073"><ele>879.5</ele><time>2026-04-26T12:32:29.424Z</time></trkpt><trkpt lat="46.2552753" lon="11.3496767"><ele>881.0</ele><time>2026-04-26T12:32:30.426Z</time></trkpt><trkpt lat="46.2554016" lon="11.3497671"><ele>882.5</ele><time>2026-04-26T12:32:31.424Z</time></trkpt><trkpt lat="46.2555372" lon="11.3498776"><ele>884.0</ele><time>2026-04-26T12:32:32.438Z</time></trkpt><trkpt lat="46.2556774" lon="11.3499876"><ele>884.0</ele><time>2026-04-26T12:32:33.43Z</time></trkpt><trkpt lat="46.2558152" lon="11.3501051"><ele>884.0</ele><time>2026-04-26T12:32:34.442Z</time></trkpt><trkpt lat="46.2559526" lon="11.3502185"><ele>884.0</ele><time>2026-04-26T12:32:35.426Z</time></trkpt><trkpt lat="46.2560847" lon="11.3503239"><ele>884.0</ele><time>2026-04-26T12:32:36.426Z</time></trkpt><trkpt lat="46.2562104" lon="11.3504251"><ele>884.0</ele><time>2026-04-26T12:32:37.44Z</time></trkpt><trkpt lat="46.2563403" lon="11.3505201"><ele>884.0</ele><time>2026-04-26T12:32:38.427Z</time></trkpt><trkpt lat="46.2564716" lon="11.350623"><ele>884.0</ele><time>2026-04-26T12:32:39.432Z</time></trkpt><trkpt lat="46.2565819" lon="11.3507786"><ele>884.0</ele><time>2026-04-26T12:32:40.442Z</time></trkpt><trkpt lat="46.2566814" lon="11.3509468"><ele>884.0</ele><time>2026-04-26T12:32:41.425Z</time></trkpt><trkpt lat="46.2567645" lon="11.3511507"><ele>884.0</ele><time>2026-04-26T12:32:42.422Z</time></trkpt><trkpt lat="46.2568656" lon="11.3513338"><ele>893.6666666666667</ele><time>2026-04-26T12:32:43.435Z</time></trkpt><trkpt lat="46.2569725" lon="11.3515057"><ele>903.3333333333333</ele><time>2026-04-26T12:32:44.448Z</time></trkpt><trkpt lat="46.2570953" lon="11.3516324"><ele>913.0</ele><time>2026-04-26T12:32:45.44Z</time></trkpt><trkpt lat="46.2572184" lon="11.3517283"><ele>903.5</ele><time>2026-04-26T12:32:46.441Z</time></trkpt><trkpt lat="46.2573341" lon="11.351819"><ele>894.0</ele><time>2026-04-26T12:32:47.455Z</time></trkpt><trkpt lat="46.2574461" lon="11.3519335"><ele>884.5</ele><time>2026-04-26T12:32:48.425Z</time></trkpt><trkpt lat="46.2575454" lon="11.3520505"><ele>875.0</ele><time>2026-04-26T12:32:49.434Z</time></trkpt><trkpt lat="46.2576262" lon="11.3521861"><ele>881.0</ele><time>2026-04-26T12:32:50.433Z</time></trkpt><trkpt lat="46.2576698" lon="11.3523533"><ele>887.0</ele><time>2026-04-26T12:32:51.458Z</time></trkpt><trkpt lat="46.257678" lon="11.3525272"><ele>893.0</ele><time>2026-04-26T12:32:52.434Z</time></trkpt><trkpt lat="46.2576742" lon="11.3527126"><ele>899.0</ele><time>2026-04-26T12:32:53.449Z</time></trkpt><trkpt lat="46.2576553" lon="11.3529048"><ele>902.75</ele><time>2026-04-26T12:32:54.434Z</time></trkpt><trkpt lat="46.2576469" lon="11.3531009"><ele>906.5</ele><time>2026-04-26T12:32:55.437Z</time></trkpt><trkpt lat="46.2576692" lon="11.3533037"><ele>910.25</ele><time>2026-04-26T12:32:56.444Z</time></trkpt><trkpt lat="46.2577089" lon="11.3535122"><ele>914.0</ele><time>2026-04-26T12:32:57.458Z</time></trkpt><trkpt lat="46.2577443" lon="11.3537294"><ele>913.0</ele><time>2026-04-26T12:32:58.438Z</time></trkpt><trkpt lat="46.2577804" lon="11.3539454"><ele>912.0</ele><time>2026-04-26T12:32:59.44Z</time></trkpt><trkpt lat="46.2578181" lon="11.3541582"><ele>911.0</ele><time>2026-04-26T12:33:00.448Z</time></trkpt><trkpt lat="46.257865" lon="11.3543652"><ele>911.0</ele><time>2026-04-26T12:33:01.44Z</time></trkpt><trkpt lat="46.2579025" lon="11.3545735"><ele>911.0</ele><time>2026-04-26T12:33:02.454Z</time></trkpt><trkpt lat="46.2579358" lon="11.3547783"><ele>911.0</ele><time>2026-04-26T12:33:03.455Z</time></trkpt><trkpt lat="46.2579706" lon="11.3549763"><ele>911.0</ele><time>2026-04-26T12:33:04.436Z</time></trkpt><trkpt lat="46.2580044" lon="11.3551663"><ele>911.5</ele><time>2026-04-26T12:33:05.442Z</time></trkpt><trkpt lat="46.2580463" lon="11.3553434"><ele>912.0</ele><time>2026-04-26T12:33:06.44Z</time></trkpt><trkpt lat="46.258088" lon="11.3555122"><ele>912.5</ele><time>2026-04-26T12:33:07.434Z</time></trkpt><trkpt lat="46.2581462" lon="11.3556533"><ele>913.0</ele><time>2026-04-26T12:33:08.431Z</time></trkpt><trkpt lat="46.2582275" lon="11.3557584"><ele>907.25</ele><time>2026-04-26T12:33:09.443Z</time></trkpt><trkpt lat="46.2583257" lon="11.3558068"><ele>901.5</ele><time>2026-04-26T12:33:10.436Z</time></trkpt><trkpt lat="46.258468" lon="11.3557803"><ele>895.75</ele><time>2026-04-26T12:33:11.441Z</time></trkpt><trkpt lat="46.2586264" lon="11.3557351"><ele>890.0</ele><time>2026-04-26T12:33:12.439Z</time></trkpt><trkpt lat="46.2587799" lon="11.3556997"><ele>890.0</ele><time>2026-04-26T12:33:13.435Z</time></trkpt><trkpt lat="46.2589341" lon="11.3556719"><ele>890.0</ele><time>2026-04-26T12:33:14.435Z</time></trkpt><trkpt lat="46.2590862" lon="11.355674"><ele>890.0</ele><time>2026-04-26T12:33:15.435Z</time></trkpt><trkpt lat="46.2592459" lon="11.3556761"><ele>887.0</ele><time>2026-04-26T12:33:16.438Z</time></trkpt><trkpt lat="46.2594032" lon="11.3556512"><ele>884.0</ele><time>2026-04-26T12:33:17.442Z</time></trkpt><trkpt lat="46.2595908" lon="11.3556172"><ele>881.0</ele><time>2026-04-26T12:33:18.445Z</time></trkpt><trkpt lat="46.2597782" lon="11.3556344"><ele>881.75</ele><time>2026-04-26T12:33:19.437Z</time></trkpt><trkpt lat="46.2599302" lon="11.3555878"><ele>882.5</ele><time>2026-04-26T12:33:20.444Z</time></trkpt><trkpt lat="46.2600796" lon="11.3555551"><ele>883.25</ele><time>2026-04-26T12:33:21.446Z</time></trkpt><trkpt lat="46.2602098" lon="11.35552"><ele>884.0</ele><time>2026-04-26T12:33:22.437Z</time></trkpt><trkpt lat="46.2603304" lon="11.3554658"><ele>880.5</ele><time>2026-04-26T12:33:23.449Z</time></trkpt><trkpt lat="46.2604368" lon="11.3553814"><ele>877.0</ele><time>2026-04-26T12:33:24.424Z</time></trkpt><trkpt lat="46.2605319" lon="11.3552732"><ele>873.5</ele><time>2026-04-26T12:33:25.435Z</time></trkpt><trkpt lat="46.2606162" lon="11.3551472"><ele>870.0</ele><time>2026-04-26T12:33:26.433Z</time></trkpt><trkpt lat="46.2606968" lon="11.355021"><ele>870.0</ele><time>2026-04-26T12:33:27.436Z</time></trkpt><trkpt lat="46.2607805" lon="11.3549168"><ele>870.0</ele><time>2026-04-26T12:33:28.439Z</time></trkpt><trkpt lat="46.2608753" lon="11.3548373"><ele>870.0</ele><time>2026-04-26T12:33:29.436Z</time></trkpt><trkpt lat="46.2609919" lon="11.3547939"><ele>870.0</ele><time>2026-04-26T12:33:30.445Z</time></trkpt><trkpt lat="46.2611233" lon="11.3547739"><ele>870.0</ele><time>2026-04-26T12:33:31.438Z</time></trkpt><trkpt lat="46.2612636" lon="11.3547678"><ele>870.0</ele><time>2026-04-26T12:33:32.434Z</time></trkpt><trkpt lat="46.2614017" lon="11.3547521"><ele>870.0</ele><time>2026-04-26T12:33:33.433Z</time></trkpt><trkpt lat="46.2615319" lon="11.3547321"><ele>870.0</ele><time>2026-04-26T12:33:34.449Z</time></trkpt><trkpt lat="46.261655" lon="11.3547134"><ele>870.25</ele><time>2026-04-26T12:33:35.456Z</time></trkpt><trkpt lat="46.2617721" lon="11.354685"><ele>870.5</ele><time>2026-04-26T12:33:36.444Z</time></trkpt><trkpt lat="46.2618854" lon="11.354668"><ele>870.75</ele><time>2026-04-26T12:33:37.448Z</time></trkpt><trkpt lat="46.2619983" lon="11.3547136"><ele>871.0</ele><time>2026-04-26T12:33:38.429Z</time></trkpt><trkpt lat="46.2621038" lon="11.3548004"><ele>871.0</ele><time>2026-04-26T12:33:39.449Z</time></trkpt><trkpt lat="46.2621814" lon="11.354953"><ele>871.0</ele><time>2026-04-26T12:33:40.456Z</time></trkpt><trkpt lat="46.2622514" lon="11.3551175"><ele>871.0</ele><time>2026-04-26T12:33:41.438Z</time></trkpt><trkpt lat="46.2623123" lon="11.3552948"><ele>871.0</ele><time>2026-04-26T12:33:42.464Z</time></trkpt><trkpt lat="46.2623749" lon="11.3554796"><ele>872.0</ele><time>2026-04-26T12:33:43.459Z</time></trkpt><trkpt lat="46.2624598" lon="11.3556488"><ele>873.0</ele><time>2026-04-26T12:33:44.436Z</time></trkpt><trkpt lat="46.2625299" lon="11.3558247"><ele>874.0</ele><time>2026-04-26T12:33:45.44Z</time></trkpt><trkpt lat="46.2625986" lon="11.3559914"><ele>875.0</ele><time>2026-04-26T12:33:46.45Z</time></trkpt><trkpt lat="46.2626579" lon="11.3561587"><ele>875.0</ele><time>2026-04-26T12:33:47.439Z</time></trkpt><trkpt lat="46.2626998" lon="11.3563339"><ele>875.0</ele><time>2026-04-26T12:33:48.436Z</time></trkpt><trkpt lat="46.2627058" lon="11.3565234"><ele>875.0</ele><time>2026-04-26T12:33:49.447Z</time></trkpt><trkpt lat="46.2627043" lon="11.3567225"><ele>875.0</ele><time>2026-04-26T12:33:50.439Z</time></trkpt><trkpt lat="46.2626862" lon="11.3569368"><ele>906.0</ele><time>2026-04-26T12:33:51.431Z</time></trkpt><trkpt lat="46.2626253" lon="11.3586672"><ele>899.75</ele><time>2026-04-26T12:33:58.426Z</time></trkpt><trkpt lat="46.2625726" lon="11.3588844"><ele>893.5</ele><time>2026-04-26T12:33:59.434Z</time></trkpt><trkpt lat="46.262494" lon="11.3590752"><ele>887.25</ele><time>2026-04-26T12:34:00.454Z</time></trkpt><trkpt lat="46.2624026" lon="11.3592222"><ele>881.0</ele><time>2026-04-26T12:34:01.438Z</time></trkpt><trkpt lat="46.2623639" lon="11.3594427"><ele>881.0</ele><time>2026-04-26T12:34:02.434Z</time></trkpt><trkpt lat="46.262317" lon="11.3596721"><ele>881.0</ele><time>2026-04-26T12:34:03.436Z</time></trkpt><trkpt lat="46.2623134" lon="11.3599152"><ele>881.0</ele><time>2026-04-26T12:34:04.428Z</time></trkpt><trkpt lat="46.2623184" lon="11.360156"><ele>874.6666666666667</ele><time>2026-04-26T12:34:05.433Z</time></trkpt><trkpt lat="46.2623098" lon="11.3603963"><ele>868.3333333333333</ele><time>2026-04-26T12:34:06.428Z</time></trkpt><trkpt lat="46.2623371" lon="11.3606388"><ele>862.0</ele><time>2026-04-26T12:34:07.444Z</time></trkpt><trkpt lat="46.2623726" lon="11.3608818"><ele>862.0</ele><time>2026-04-26T12:34:08.437Z</time></trkpt><trkpt lat="46.262441" lon="11.361135"><ele>862.0</ele><time>2026-04-26T12:34:09.432Z</time></trkpt><trkpt lat="46.2624757" lon="11.361376"><ele>862.0</ele><time>2026-04-26T12:34:10.443Z</time></trkpt><trkpt lat="46.262489" lon="11.3616078"><ele>862.0</ele><time>2026-04-26T12:34:11.449Z</time></trkpt><trkpt lat="46.2624689" lon="11.3618305"><ele>862.0</ele><time>2026-04-26T12:34:12.439Z</time></trkpt><trkpt lat="46.2624197" lon="11.3620412"><ele>862.0</ele><time>2026-04-26T12:34:13.444Z</time></trkpt><trkpt lat="46.2623404" lon="11.3622415"><ele>881.3333333333333</ele><time>2026-04-26T12:34:14.444Z</time></trkpt><trkpt lat="46.2622571" lon="11.3624503"><ele>900.6666666666667</ele><time>2026-04-26T12:34:15.443Z</time></trkpt><trkpt lat="46.262186" lon="11.3626771"><ele>920.0</ele><time>2026-04-26T12:34:16.448Z</time></trkpt><trkpt lat="46.2621073" lon="11.3629081"><ele>913.6666666666667</ele><time>2026-04-26T12:34:17.444Z</time></trkpt><trkpt lat="46.2620236" lon="11.363149"><ele>907.3333333333333</ele><time>2026-04-26T12:34:18.433Z</time></trkpt><trkpt lat="46.2619469" lon="11.3634011"><ele>901.0</ele><time>2026-04-26T12:34:19.441Z</time></trkpt><trkpt lat="46.2618903" lon="11.3636567"><ele>895.6666666666666</ele><time>2026-04-26T12:34:20.449Z</time></trkpt><trkpt lat="46.2618411" lon="11.3639109"><ele>890.3333333333333</ele><time>2026-04-26T12:34:21.44Z</time></trkpt><trkpt lat="46.2617953" lon="11.3641582"><ele>885.0</ele><time>2026-04-26T12:34:22.434Z</time></trkpt><trkpt lat="46.2617633" lon="11.3644072"><ele>885.0</ele><time>2026-04-26T12:34:23.431Z</time></trkpt><trkpt lat="46.261682" lon="11.3646322"><ele>885.0</ele><time>2026-04-26T12:34:24.439Z</time></trkpt><trkpt lat="46.2616088" lon="11.3648548"><ele>885.0</ele><time>2026-04-26T12:34:25.443Z</time></trkpt><trkpt lat="46.2615332" lon="11.3650976"><ele>882.3333333333333</ele><time>2026-04-26T12:34:26.438Z</time></trkpt><trkpt lat="46.2614585" lon="11.3653672"><ele>879.6666666666666</ele><time>2026-04-26T12:34:27.434Z</time></trkpt><trkpt lat="46.2613799" lon="11.3656448"><ele>877.0</ele><time>2026-04-26T12:34:28.418Z</time></trkpt><trkpt lat="46.2613319" lon="11.3659209"><ele>880.5</ele><time>2026-04-26T12:34:29.441Z</time></trkpt><trkpt lat="46.2612825" lon="11.3661724"><ele>884.0</ele><time>2026-04-26T12:34:30.428Z</time></trkpt><trkpt lat="46.2608785" lon="11.3684074"><ele>884.0</ele><time>2026-04-26T12:34:38.494Z</time></trkpt><trkpt lat="46.2608545" lon="11.3686069"><ele>884.0</ele><time>2026-04-26T12:34:39.463Z</time></trkpt><trkpt lat="46.2608873" lon="11.368758"><ele>884.0</ele><time>2026-04-26T12:34:40.453Z</time></trkpt><trkpt lat="46.2608312" lon="11.3690182"><ele>884.0</ele><time>2026-04-26T12:34:41.439Z</time></trkpt><trkpt lat="46.2608191" lon="11.3692683"><ele>875.6666666666667</ele><time>2026-04-26T12:34:42.443Z</time></trkpt><trkpt lat="46.2608452" lon="11.3695163"><ele>867.3333333333333</ele><time>2026-04-26T12:34:43.43Z</time></trkpt><trkpt lat="46.2608458" lon="11.3697618"><ele>859.0</ele><time>2026-04-26T12:34:44.44Z</time></trkpt><trkpt lat="46.260821" lon="11.369994"><ele>856.3333333333333</ele><time>2026-04-26T12:34:45.466Z</time></trkpt><trkpt lat="46.2607771" lon="11.3702175"><ele>853.6666666666667</ele><time>2026-04-26T12:34:46.434Z</time></trkpt><trkpt lat="46.2607066" lon="11.3704325"><ele>851.0</ele><time>2026-04-26T12:34:47.45Z</time></trkpt><trkpt lat="46.2606264" lon="11.3706512"><ele>868.0</ele><time>2026-04-26T12:34:48.448Z</time></trkpt><trkpt lat="46.2605413" lon="11.3708713"><ele>885.0</ele><time>2026-04-26T12:34:49.448Z</time></trkpt><trkpt lat="46.2604538" lon="11.3710971"><ele>902.0</ele><time>2026-04-26T12:34:50.443Z</time></trkpt><trkpt lat="46.2603452" lon="11.3713118"><ele>882.0</ele><time>2026-04-26T12:34:51.45Z</time></trkpt><trkpt lat="46.2602479" lon="11.3715312"><ele>862.0</ele><time>2026-04-26T12:34:52.437Z</time></trkpt><trkpt lat="46.2601466" lon="11.3717451"><ele>842.0</ele><time>2026-04-26T12:34:53.439Z</time></trkpt><trkpt lat="46.2600577" lon="11.3719583"><ele>842.0</ele><time>2026-04-26T12:34:54.438Z</time></trkpt><trkpt lat="46.259988" lon="11.3721787"><ele>842.0</ele><time>2026-04-26T12:34:55.438Z</time></trkpt><trkpt lat="46.259916" lon="11.3723964"><ele>842.0</ele><time>2026-04-26T12:34:56.44Z</time></trkpt><trkpt lat="46.2598421" lon="11.3726028"><ele>841.25</ele><time>2026-04-26T12:34:57.432Z</time></trkpt><trkpt lat="46.2597752" lon="11.3727966"><ele>840.5</ele><time>2026-04-26T12:34:58.446Z</time></trkpt><trkpt lat="46.2597242" lon="11.3729837"><ele>839.75</ele><time>2026-04-26T12:34:59.449Z</time></trkpt><trkpt lat="46.2597125" lon="11.3731791"><ele>839.0</ele><time>2026-04-26T12:35:00.446Z</time></trkpt><trkpt lat="46.2597397" lon="11.373369"><ele>838.0</ele><time>2026-04-26T12:35:01.448Z</time></trkpt><trkpt lat="46.2597898" lon="11.3735487"><ele>837.0</ele><time>2026-04-26T12:35:02.441Z</time></trkpt><trkpt lat="46.25986" lon="11.373711"><ele>836.0</ele><time>2026-04-26T12:35:03.453Z</time></trkpt><trkpt lat="46.2599695" lon="11.3738398"><ele>835.0</ele><time>2026-04-26T12:35:04.45Z</time></trkpt><trkpt lat="46.2601122" lon="11.3739317"><ele>834.25</ele><time>2026-04-26T12:35:05.469Z</time></trkpt><trkpt lat="46.2602631" lon="11.3739981"><ele>833.5</ele><time>2026-04-26T12:35:06.439Z</time></trkpt><trkpt lat="46.2603933" lon="11.3740809"><ele>832.75</ele><time>2026-04-26T12:35:07.437Z</time></trkpt><trkpt lat="46.2605353" lon="11.3741219"><ele>832.0</ele><time>2026-04-26T12:35:08.44Z</time></trkpt><trkpt lat="46.260658" lon="11.3742144"><ele>832.0</ele><time>2026-04-26T12:35:09.45Z</time></trkpt><trkpt lat="46.2607546" lon="11.3743609"><ele>832.0</ele><time>2026-04-26T12:35:10.449Z</time></trkpt><trkpt lat="46.2608209" lon="11.3745377"><ele>832.0</ele><time>2026-04-26T12:35:11.436Z</time></trkpt><trkpt lat="46.2608873" lon="11.3747311"><ele>832.0</ele><time>2026-04-26T12:35:12.436Z</time></trkpt><trkpt lat="46.2608838" lon="11.3749685"><ele>835.6666666666666</ele><time>2026-04-26T12:35:13.44Z</time></trkpt><trkpt lat="46.2608371" lon="11.3752129"><ele>839.3333333333333</ele><time>2026-04-26T12:35:14.447Z</time></trkpt><trkpt lat="46.2607797" lon="11.3754677"><ele>843.0</ele><time>2026-04-26T12:35:15.438Z</time></trkpt><trkpt lat="46.2607271" lon="11.3757354"><ele>843.0</ele><time>2026-04-26T12:35:16.451Z</time></trkpt><trkpt lat="46.2607056" lon="11.376008"><ele>843.0</ele><time>2026-04-26T12:35:17.452Z</time></trkpt><trkpt lat="46.2606937" lon="11.3762754"><ele>843.0</ele><time>2026-04-26T12:35:18.456Z</time></trkpt><trkpt lat="46.2606852" lon="11.3765365"><ele>839.0</ele><time>2026-04-26T12:35:19.433Z</time></trkpt><trkpt lat="46.2606724" lon="11.3767879"><ele>835.0</ele><time>2026-04-26T12:35:20.443Z</time></trkpt><trkpt lat="46.2606511" lon="11.3770308"><ele>831.0</ele><time>2026-04-26T12:35:21.455Z</time></trkpt><trkpt lat="46.2606413" lon="11.3772675"><ele>850.3333333333333</ele><time>2026-04-26T12:35:22.431Z</time></trkpt><trkpt lat="46.260612" lon="11.3775069"><ele>869.6666666666666</ele><time>2026-04-26T12:35:23.455Z</time></trkpt><trkpt lat="46.2605529" lon="11.3777423"><ele>889.0</ele><time>2026-04-26T12:35:24.439Z</time></trkpt><trkpt lat="46.260483" lon="11.3779693"><ele>883.6666666666666</ele><time>2026-04-26T12:35:25.454Z</time></trkpt><trkpt lat="46.2603927" lon="11.3781966"><ele>878.3333333333333</ele><time>2026-04-26T12:35:26.439Z</time></trkpt><trkpt lat="46.2602805" lon="11.3784123"><ele>873.0</ele><time>2026-04-26T12:35:27.452Z</time></trkpt><trkpt lat="46.2601996" lon="11.378638"><ele>867.3333333333333</ele><time>2026-04-26T12:35:28.434Z</time></trkpt><trkpt lat="46.2601235" lon="11.378866"><ele>861.6666666666666</ele><time>2026-04-26T12:35:29.439Z</time></trkpt><trkpt lat="46.2600241" lon="11.3790843"><ele>856.0</ele><time>2026-04-26T12:35:30.456Z</time></trkpt><trkpt lat="46.2599584" lon="11.3793139"><ele>856.0</ele><time>2026-04-26T12:35:31.438Z</time></trkpt><trkpt lat="46.2598816" lon="11.3795322"><ele>856.0</ele><time>2026-04-26T12:35:32.437Z</time></trkpt><trkpt lat="46.2598315" lon="11.3797596"><ele>856.0</ele><time>2026-04-26T12:35:33.454Z</time></trkpt><trkpt lat="46.2598145" lon="11.3799914"><ele>849.6666666666666</ele><time>2026-04-26T12:35:34.442Z</time></trkpt><trkpt lat="46.259852" lon="11.3802224"><ele>843.3333333333333</ele><time>2026-04-26T12:35:35.451Z</time></trkpt><trkpt lat="46.2598822" lon="11.3804565"><ele>837.0</ele><time>2026-04-26T12:35:36.438Z</time></trkpt><trkpt lat="46.2599623" lon="11.3806822"><ele>835.3333333333333</ele><time>2026-04-26T12:35:37.44Z</time></trkpt><trkpt lat="46.2600481" lon="11.3809107"><ele>833.6666666666666</ele><time>2026-04-26T12:35:38.438Z</time></trkpt><trkpt lat="46.2601189" lon="11.3811551"><ele>832.0</ele><time>2026-04-26T12:35:39.452Z</time></trkpt><trkpt lat="46.2601715" lon="11.3814093"><ele>828.3333333333333</ele><time>2026-04-26T12:35:40.435Z</time></trkpt><trkpt lat="46.2602201" lon="11.3816653"><ele>824.6666666666667</ele><time>2026-04-26T12:35:41.442Z</time></trkpt><trkpt lat="46.2602693" lon="11.3819152"><ele>821.0</ele><time>2026-04-26T12:35:42.447Z</time></trkpt><trkpt lat="46.2603248" lon="11.3821569"><ele>817.3333333333334</ele><time>2026-04-26T12:35:43.448Z</time></trkpt><trkpt lat="46.260384" lon="11.3823963"><ele>813.6666666666667</ele><time>2026-04-26T12:35:44.437Z</time></trkpt><trkpt lat="46.2604166" lon="11.382651"><ele>810.0</ele><time>2026-04-26T12:35:45.446Z</time></trkpt><trkpt lat="46.2604123" lon="11.3829192"><ele>811.6666666666667</ele><time>2026-04-26T12:35:46.433Z</time></trkpt><trkpt lat="46.2604235" lon="11.383172"><ele>813.3333333333334</ele><time>2026-04-26T12:35:47.439Z</time></trkpt><trkpt lat="46.2603835" lon="11.3834267"><ele>815.0</ele><time>2026-04-26T12:35:48.43Z</time></trkpt><trkpt lat="46.2603613" lon="11.3836731"><ele>817.6666666666667</ele><time>2026-04-26T12:35:49.449Z</time></trkpt><trkpt lat="46.260356" lon="11.3839152"><ele>820.3333333333333</ele><time>2026-04-26T12:35:50.444Z</time></trkpt><trkpt lat="46.2603583" lon="11.3841577"><ele>823.0</ele><time>2026-04-26T12:35:51.445Z</time></trkpt><trkpt lat="46.2603929" lon="11.3843989"><ele>823.0</ele><time>2026-04-26T12:35:52.432Z</time></trkpt><trkpt lat="46.2604351" lon="11.3846372"><ele>823.0</ele><time>2026-04-26T12:35:53.443Z</time></trkpt><trkpt lat="46.2604783" lon="11.3848701"><ele>823.0</ele><time>2026-04-26T12:35:54.447Z</time></trkpt><trkpt lat="46.2605151" lon="11.3851006"><ele>832.0</ele><time>2026-04-26T12:35:55.436Z</time></trkpt><trkpt lat="46.2605386" lon="11.3853341"><ele>841.0</ele><time>2026-04-26T12:35:56.441Z</time></trkpt><trkpt lat="46.260532" lon="11.3855746"><ele>850.0</ele><time>2026-04-26T12:35:57.452Z</time></trkpt><trkpt lat="46.2604698" lon="11.3858196"><ele>855.3333333333333</ele><time>2026-04-26T12:35:58.442Z</time></trkpt><trkpt lat="46.2604356" lon="11.3860619"><ele>860.6666666666667</ele><time>2026-04-26T12:35:59.449Z</time></trkpt><trkpt lat="46.2604276" lon="11.3862991"><ele>866.0</ele><time>2026-04-26T12:36:00.445Z</time></trkpt><trkpt lat="46.2604012" lon="11.3865327"><ele>866.0</ele><time>2026-04-26T12:36:01.441Z</time></trkpt><trkpt lat="46.2604164" lon="11.386762"><ele>866.0</ele><time>2026-04-26T12:36:02.447Z</time></trkpt><trkpt lat="46.2604663" lon="11.3869799"><ele>866.0</ele><time>2026-04-26T12:36:03.443Z</time></trkpt><trkpt lat="46.2605418" lon="11.3871836"><ele>847.75</ele><time>2026-04-26T12:36:04.428Z</time></trkpt><trkpt lat="46.2606314" lon="11.3873664"><ele>829.5</ele><time>2026-04-26T12:36:05.45Z</time></trkpt><trkpt lat="46.2607258" lon="11.3875356"><ele>811.25</ele><time>2026-04-26T12:36:06.456Z</time></trkpt><trkpt lat="46.260788" lon="11.3877237"><ele>793.0</ele><time>2026-04-26T12:36:07.444Z</time></trkpt><trkpt lat="46.2608377" lon="11.3879223"><ele>795.3333333333333</ele><time>2026-04-26T12:36:08.454Z</time></trkpt><trkpt lat="46.2608883" lon="11.3881248"><ele>797.6666666666667</ele><time>2026-04-26T12:36:09.456Z</time></trkpt><trkpt lat="46.2608765" lon="11.3883511"><ele>800.0</ele><time>2026-04-26T12:36:10.435Z</time></trkpt><trkpt lat="46.2608129" lon="11.388576"><ele>800.0</ele><time>2026-04-26T12:36:11.46Z</time></trkpt><trkpt lat="46.2607605" lon="11.3887932"><ele>800.0</ele><time>2026-04-26T12:36:12.44Z</time></trkpt><trkpt lat="46.260715" lon="11.3890178"><ele>800.0</ele><time>2026-04-26T12:36:13.446Z</time></trkpt><trkpt lat="46.2606971" lon="11.3892494"><ele>804.6666666666667</ele><time>2026-04-26T12:36:14.441Z</time></trkpt><trkpt lat="46.2607251" lon="11.3894788"><ele>809.3333333333333</ele><time>2026-04-26T12:36:15.44Z</time></trkpt><trkpt lat="46.2607648" lon="11.3897089"><ele>814.0</ele><time>2026-04-26T12:36:16.452Z</time></trkpt><trkpt lat="46.2608183" lon="11.3899339"><ele>816.6666666666666</ele><time>2026-04-26T12:36:17.443Z</time></trkpt><trkpt lat="46.2608675" lon="11.3901646"><ele>819.3333333333333</ele><time>2026-04-26T12:36:18.433Z</time></trkpt><trkpt lat="46.2609213" lon="11.3903892"><ele>822.0</ele><time>2026-04-26T12:36:19.448Z</time></trkpt><trkpt lat="46.2609648" lon="11.3906145"><ele>828.6666666666667</ele><time>2026-04-26T12:36:20.454Z</time></trkpt><trkpt lat="46.2610082" lon="11.3908359"><ele>835.3333333333334</ele><time>2026-04-26T12:36:21.442Z</time></trkpt><trkpt lat="46.2610655" lon="11.3910457"><ele>842.0</ele><time>2026-04-26T12:36:22.441Z</time></trkpt><trkpt lat="46.261136" lon="11.3912427"><ele>847.6666666666667</ele><time>2026-04-26T12:36:23.435Z</time></trkpt><trkpt lat="46.2612106" lon="11.3914363"><ele>853.3333333333333</ele><time>2026-04-26T12:36:24.432Z</time></trkpt><trkpt lat="46.2612911" lon="11.3916271"><ele>859.0</ele><time>2026-04-26T12:36:25.433Z</time></trkpt><trkpt lat="46.2613662" lon="11.3918232"><ele>851.6666666666666</ele><time>2026-04-26T12:36:26.431Z</time></trkpt><trkpt lat="46.2614563" lon="11.3920078"><ele>844.3333333333333</ele><time>2026-04-26T12:36:27.466Z</time></trkpt><trkpt lat="46.2615549" lon="11.3921864"><ele>837.0</ele><time>2026-04-26T12:36:28.428Z</time></trkpt><trkpt lat="46.2616574" lon="11.3923665"><ele>837.0</ele><time>2026-04-26T12:36:29.433Z</time></trkpt><trkpt lat="46.2617629" lon="11.3925488"><ele>837.0</ele><time>2026-04-26T12:36:30.426Z</time></trkpt><trkpt lat="46.2618703" lon="11.3927324"><ele>837.0</ele><time>2026-04-26T12:36:31.441Z</time></trkpt><trkpt lat="46.2619835" lon="11.392909"><ele>846.6666666666667</ele><time>2026-04-26T12:36:32.436Z</time></trkpt><trkpt lat="46.262089" lon="11.3930886"><ele>856.3333333333334</ele><time>2026-04-26T12:36:33.444Z</time></trkpt><trkpt lat="46.2621888" lon="11.3932685"><ele>866.0</ele><time>2026-04-26T12:36:34.45Z</time></trkpt><trkpt lat="46.2622861" lon="11.3934424"><ele>856.5</ele><time>2026-04-26T12:36:35.445Z</time></trkpt><trkpt lat="46.2623886" lon="11.3936023"><ele>847.0</ele><time>2026-04-26T12:36:36.442Z</time></trkpt><trkpt lat="46.2624897" lon="11.393757"><ele>837.5</ele><time>2026-04-26T12:36:37.437Z</time></trkpt><trkpt lat="46.2625892" lon="11.3939064"><ele>828.0</ele><time>2026-04-26T12:36:38.429Z</time></trkpt><trkpt lat="46.2626557" lon="11.3940878"><ele>828.0</ele><time>2026-04-26T12:36:39.428Z</time></trkpt><trkpt lat="46.262706" lon="11.3942738"><ele>828.0</ele><time>2026-04-26T12:36:40.426Z</time></trkpt><trkpt lat="46.2627156" lon="11.394476"><ele>828.0</ele><time>2026-04-26T12:36:41.444Z</time></trkpt><trkpt lat="46.2627212" lon="11.3946825"><ele>828.0</ele><time>2026-04-26T12:36:42.438Z</time></trkpt><trkpt lat="46.2627061" lon="11.3948864"><ele>831.6666666666667</ele><time>2026-04-26T12:36:43.443Z</time></trkpt><trkpt lat="46.2626861" lon="11.3950938"><ele>835.3333333333334</ele><time>2026-04-26T12:36:44.434Z</time></trkpt><trkpt lat="46.2626776" lon="11.3953082"><ele>839.0</ele><time>2026-04-26T12:36:45.441Z</time></trkpt><trkpt lat="46.2627076" lon="11.3955353"><ele>839.0</ele><time>2026-04-26T12:36:46.434Z</time></trkpt><trkpt lat="46.2627571" lon="11.3957644"><ele>839.0</ele><time>2026-04-26T12:36:47.439Z</time></trkpt><trkpt lat="46.2627903" lon="11.3960035"><ele>839.0</ele><time>2026-04-26T12:36:48.446Z</time></trkpt><trkpt lat="46.2628512" lon="11.3962338"><ele>832.6666666666667</ele><time>2026-04-26T12:36:49.447Z</time></trkpt><trkpt lat="46.2629029" lon="11.3964587"><ele>826.3333333333333</ele><time>2026-04-26T12:36:50.441Z</time></trkpt><trkpt lat="46.2629487" lon="11.3966777"><ele>820.0</ele><time>2026-04-26T12:36:51.442Z</time></trkpt><trkpt lat="46.2630077" lon="11.3968851"><ele>820.0</ele><time>2026-04-26T12:36:52.45Z</time></trkpt><trkpt lat="46.2630526" lon="11.3970923"><ele>820.0</ele><time>2026-04-26T12:36:53.454Z</time></trkpt><trkpt lat="46.2630879" lon="11.3973023"><ele>820.0</ele><time>2026-04-26T12:36:54.434Z</time></trkpt><trkpt lat="46.2631277" lon="11.3975128"><ele>811.6666666666666</ele><time>2026-04-26T12:36:55.45Z</time></trkpt><trkpt lat="46.2631677" lon="11.397724"><ele>803.3333333333333</ele><time>2026-04-26T12:36:56.442Z</time></trkpt><trkpt lat="46.263205" lon="11.3979347"><ele>795.0</ele><time>2026-04-26T12:36:57.438Z</time></trkpt><trkpt lat="46.2632555" lon="11.3981392"><ele>795.0</ele><time>2026-04-26T12:36:58.436Z</time></trkpt><trkpt lat="46.2633039" lon="11.3983436"><ele>795.0</ele><time>2026-04-26T12:36:59.441Z</time></trkpt><trkpt lat="46.2633377" lon="11.3985526"><ele>795.0</ele><time>2026-04-26T12:37:00.427Z</time></trkpt><trkpt lat="46.2633765" lon="11.3987551"><ele>795.0</ele><time>2026-04-26T12:37:01.431Z</time></trkpt><trkpt lat="46.2634148" lon="11.3989517"><ele>801.75</ele><time>2026-04-26T12:37:02.426Z</time></trkpt><trkpt lat="46.2634518" lon="11.3991455"><ele>808.5</ele><time>2026-04-26T12:37:03.443Z</time></trkpt><trkpt lat="46.2634919" lon="11.3993386"><ele>815.25</ele><time>2026-04-26T12:37:04.433Z</time></trkpt><trkpt lat="46.2635319" lon="11.3995356"><ele>822.0</ele><time>2026-04-26T12:37:05.449Z</time></trkpt><trkpt lat="46.2635806" lon="11.3997341"><ele>832.3333333333333</ele><time>2026-04-26T12:37:06.433Z</time></trkpt><trkpt lat="46.2636434" lon="11.3999282"><ele>842.6666666666666</ele><time>2026-04-26T12:37:07.441Z</time></trkpt><trkpt lat="46.2637377" lon="11.4001021"><ele>853.0</ele><time>2026-04-26T12:37:08.444Z</time></trkpt><trkpt lat="46.2638318" lon="11.4002742"><ele>853.0</ele><time>2026-04-26T12:37:09.44Z</time></trkpt><trkpt lat="46.2639183" lon="11.4004507"><ele>853.0</ele><time>2026-04-26T12:37:10.431Z</time></trkpt><trkpt lat="46.2640219" lon="11.4006123"><ele>853.0</ele><time>2026-04-26T12:37:11.442Z</time></trkpt><trkpt lat="46.2641288" lon="11.4007634"><ele>845.5</ele><time>2026-04-26T12:37:12.435Z</time></trkpt><trkpt lat="46.2642266" lon="11.4009199"><ele>838.0</ele><time>2026-04-26T12:37:13.45Z</time></trkpt><trkpt lat="46.2642974" lon="11.401104"><ele>830.5</ele><time>2026-04-26T12:37:14.44Z</time></trkpt><trkpt lat="46.2643616" lon="11.4012968"><ele>823.0</ele><time>2026-04-26T12:37:15.453Z</time></trkpt><trkpt lat="46.2644095" lon="11.4015052"><ele>823.0</ele><time>2026-04-26T12:37:16.436Z</time></trkpt><trkpt lat="46.2644511" lon="11.4017184"><ele>823.0</ele><time>2026-04-26T12:37:17.438Z</time></trkpt><trkpt lat="46.2644884" lon="11.4019349"><ele>823.0</ele><time>2026-04-26T12:37:18.427Z</time></trkpt><trkpt lat="46.2645338" lon="11.4021423"><ele>824.75</ele><time>2026-04-26T12:37:19.437Z</time></trkpt><trkpt lat="46.2645847" lon="11.4023413"><ele>826.5</ele><time>2026-04-26T12:37:20.432Z</time></trkpt><trkpt lat="46.2646323" lon="11.4025365"><ele>828.25</ele><time>2026-04-26T12:37:21.436Z</time></trkpt><trkpt lat="46.2647206" lon="11.4027043"><ele>830.0</ele><time>2026-04-26T12:37:22.438Z</time></trkpt><trkpt lat="46.2648145" lon="11.4028644"><ele>814.3333333333334</ele><time>2026-04-26T12:37:23.438Z</time></trkpt><trkpt lat="46.2648922" lon="11.4030391"><ele>798.6666666666667</ele><time>2026-04-26T12:37:24.451Z</time></trkpt><trkpt lat="46.2649945" lon="11.4032209"><ele>783.0</ele><time>2026-04-26T12:37:25.429Z</time></trkpt><trkpt lat="46.2650931" lon="11.4034122"><ele>783.0</ele><time>2026-04-26T12:37:26.439Z</time></trkpt><trkpt lat="46.2651974" lon="11.4035976"><ele>783.0</ele><time>2026-04-26T12:37:27.444Z</time></trkpt><trkpt lat="46.2652954" lon="11.4037735"><ele>783.0</ele><time>2026-04-26T12:37:28.441Z</time></trkpt><trkpt lat="46.2653903" lon="11.4039473"><ele>783.3333333333333</ele><time>2026-04-26T12:37:29.448Z</time></trkpt><trkpt lat="46.2654831" lon="11.4041226"><ele>783.6666666666666</ele><time>2026-04-26T12:37:30.447Z</time></trkpt><trkpt lat="46.2655763" lon="11.4043018"><ele>784.0</ele><time>2026-04-26T12:37:31.45Z</time></trkpt><trkpt lat="46.265674" lon="11.4044908"><ele>784.6666666666666</ele><time>2026-04-26T12:37:32.437Z</time></trkpt><trkpt lat="46.265768" lon="11.4046908"><ele>785.3333333333333</ele><time>2026-04-26T12:37:33.447Z</time></trkpt><trkpt lat="46.2658509" lon="11.4049038"><ele>786.0</ele><time>2026-04-26T12:37:34.436Z</time></trkpt><trkpt lat="46.2659307" lon="11.4051198"><ele>786.0</ele><time>2026-04-26T12:37:35.448Z</time></trkpt><trkpt lat="46.2660005" lon="11.4053359"><ele>786.0</ele><time>2026-04-26T12:37:36.44Z</time></trkpt><trkpt lat="46.2660691" lon="11.4055445"><ele>786.0</ele><time>2026-04-26T12:37:37.436Z</time></trkpt><trkpt lat="46.2661304" lon="11.4057483"><ele>786.75</ele><time>2026-04-26T12:37:38.449Z</time></trkpt><trkpt lat="46.2661902" lon="11.4059484"><ele>787.5</ele><time>2026-04-26T12:37:39.468Z</time></trkpt><trkpt lat="46.2662583" lon="11.4061401"><ele>788.25</ele><time>2026-04-26T12:37:40.435Z</time></trkpt><trkpt lat="46.2663197" lon="11.4063322"><ele>789.0</ele><time>2026-04-26T12:37:41.455Z</time></trkpt><trkpt lat="46.266384" lon="11.4065133"><ele>789.0</ele><time>2026-04-26T12:37:42.444Z</time></trkpt><trkpt lat="46.2664411" lon="11.4066769"><ele>789.0</ele><time>2026-04-26T12:37:43.437Z</time></trkpt><trkpt lat="46.266489" lon="11.4068165"><ele>789.0</ele><time>2026-04-26T12:37:44.446Z</time></trkpt><trkpt lat="46.2665233" lon="11.4069304"><ele>789.0</ele><time>2026-04-26T12:37:45.452Z</time></trkpt><trkpt lat="46.2665524" lon="11.407021"><ele>789.0</ele><time>2026-04-26T12:37:46.448Z</time></trkpt><trkpt lat="46.2666042" lon="11.40716"><ele>792.6</ele><time>2026-04-26T12:37:48.437Z</time></trkpt><trkpt lat="46.2666466" lon="11.4072897"><ele>796.2</ele><time>2026-04-26T12:37:50.438Z</time></trkpt><trkpt lat="46.2666812" lon="11.4073706"><ele>799.8000000000001</ele><time>2026-04-26T12:37:51.45Z</time></trkpt><trkpt lat="46.2667138" lon="11.4074957"><ele>803.4000000000001</ele><time>2026-04-26T12:37:52.434Z</time></trkpt><trkpt lat="46.2667567" lon="11.4076492"><ele>807.0</ele><time>2026-04-26T12:37:53.436Z</time></trkpt><trkpt lat="46.2667974" lon="11.4078155"><ele>807.0</ele><time>2026-04-26T12:37:54.465Z</time></trkpt><trkpt lat="46.2668636" lon="11.4079697"><ele>807.0</ele><time>2026-04-26T12:37:55.446Z</time></trkpt><trkpt lat="46.2669421" lon="11.40811"><ele>807.0</ele><time>2026-04-26T12:37:56.462Z</time></trkpt><trkpt lat="46.2670215" lon="11.4082479"><ele>807.0</ele><time>2026-04-26T12:37:57.466Z</time></trkpt><trkpt lat="46.2671236" lon="11.4083678"><ele>805.5</ele><time>2026-04-26T12:37:58.434Z</time></trkpt><trkpt lat="46.2672214" lon="11.4084816"><ele>804.0</ele><time>2026-04-26T12:37:59.441Z</time></trkpt><trkpt lat="46.2673202" lon="11.4085639"><ele>802.5</ele><time>2026-04-26T12:38:00.446Z</time></trkpt><trkpt lat="46.2674542" lon="11.4086438"><ele>801.0</ele><time>2026-04-26T12:38:01.441Z</time></trkpt><trkpt lat="46.267588" lon="11.4087252"><ele>800.75</ele><time>2026-04-26T12:38:02.451Z</time></trkpt><trkpt lat="46.2676884" lon="11.4088084"><ele>800.5</ele><time>2026-04-26T12:38:03.434Z</time></trkpt><trkpt lat="46.2677912" lon="11.4089183"><ele>800.25</ele><time>2026-04-26T12:38:04.435Z</time></trkpt><trkpt lat="46.2678853" lon="11.4090552"><ele>800.0</ele><time>2026-04-26T12:38:05.447Z</time></trkpt><trkpt lat="46.2679901" lon="11.4091856"><ele>800.0</ele><time>2026-04-26T12:38:06.429Z</time></trkpt><trkpt lat="46.2680923" lon="11.4093158"><ele>800.0</ele><time>2026-04-26T12:38:07.442Z</time></trkpt><trkpt lat="46.2681668" lon="11.4094539"><ele>800.0</ele><time>2026-04-26T12:38:08.443Z</time></trkpt><trkpt lat="46.2682491" lon="11.4095953"><ele>800.0</ele><time>2026-04-26T12:38:09.461Z</time></trkpt><trkpt lat="46.2683087" lon="11.4097527"><ele>802.5</ele><time>2026-04-26T12:38:10.436Z</time></trkpt><trkpt lat="46.2683764" lon="11.4098874"><ele>805.0</ele><time>2026-04-26T12:38:11.439Z</time></trkpt><trkpt lat="46.2684627" lon="11.4100226"><ele>807.5</ele><time>2026-04-26T12:38:12.438Z</time></trkpt><trkpt lat="46.2685666" lon="11.4101512"><ele>810.0</ele><time>2026-04-26T12:38:13.438Z</time></trkpt><trkpt lat="46.2686754" lon="11.4102488"><ele>810.0</ele><time>2026-04-26T12:38:14.448Z</time></trkpt><trkpt lat="46.2687786" lon="11.410326"><ele>810.0</ele><time>2026-04-26T12:38:15.461Z</time></trkpt><trkpt lat="46.2689168" lon="11.410372"><ele>810.0</ele><time>2026-04-26T12:38:16.459Z</time></trkpt><trkpt lat="46.2690532" lon="11.4104336"><ele>810.0</ele><time>2026-04-26T12:38:17.447Z</time></trkpt><trkpt lat="46.2691864" lon="11.4104866"><ele>807.75</ele><time>2026-04-26T12:38:18.452Z</time></trkpt><trkpt lat="46.2693337" lon="11.4105306"><ele>805.5</ele><time>2026-04-26T12:38:19.439Z</time></trkpt><trkpt lat="46.2694777" lon="11.4105829"><ele>803.25</ele><time>2026-04-26T12:38:20.433Z</time></trkpt><trkpt lat="46.2696101" lon="11.4106537"><ele>801.0</ele><time>2026-04-26T12:38:21.438Z</time></trkpt><trkpt lat="46.2697426" lon="11.4107319"><ele>806.5</ele><time>2026-04-26T12:38:22.432Z</time></trkpt><trkpt lat="46.2698761" lon="11.4108065"><ele>812.0</ele><time>2026-04-26T12:38:23.448Z</time></trkpt><trkpt lat="46.2700059" lon="11.4109016"><ele>817.5</ele><time>2026-04-26T12:38:24.454Z</time></trkpt><trkpt lat="46.2701281" lon="11.4109936"><ele>823.0</ele><time>2026-04-26T12:38:25.43Z</time></trkpt><trkpt lat="46.270242" lon="11.4110883"><ele>823.0</ele><time>2026-04-26T12:38:26.451Z</time></trkpt><trkpt lat="46.2703512" lon="11.411192"><ele>823.0</ele><time>2026-04-26T12:38:27.445Z</time></trkpt><trkpt lat="46.2704567" lon="11.411307"><ele>823.0</ele><time>2026-04-26T12:38:28.451Z</time></trkpt><trkpt lat="46.2705601" lon="11.4114378"><ele>823.0</ele><time>2026-04-26T12:38:29.447Z</time></trkpt><trkpt lat="46.2706578" lon="11.4115887"><ele>822.5</ele><time>2026-04-26T12:38:30.446Z</time></trkpt><trkpt lat="46.2707452" lon="11.4117542"><ele>822.0</ele><time>2026-04-26T12:38:31.46Z</time></trkpt><trkpt lat="46.2708103" lon="11.4119482"><ele>821.5</ele><time>2026-04-26T12:38:32.441Z</time></trkpt><trkpt lat="46.2708786" lon="11.4121481"><ele>821.0</ele><time>2026-04-26T12:38:33.449Z</time></trkpt><trkpt lat="46.2709503" lon="11.4123516"><ele>816.0</ele><time>2026-04-26T12:38:34.455Z</time></trkpt><trkpt lat="46.270997" lon="11.4125721"><ele>811.0</ele><time>2026-04-26T12:38:35.457Z</time></trkpt><trkpt lat="46.2710358" lon="11.4127935"><ele>806.0</ele><time>2026-04-26T12:38:36.45Z</time></trkpt><trkpt lat="46.2710641" lon="11.4130213"><ele>804.6666666666667</ele><time>2026-04-26T12:38:37.471Z</time></trkpt><trkpt lat="46.2710816" lon="11.4132503"><ele>803.3333333333333</ele><time>2026-04-26T12:38:38.438Z</time></trkpt><trkpt lat="46.2711086" lon="11.413473"><ele>802.0</ele><time>2026-04-26T12:38:39.448Z</time></trkpt><trkpt lat="46.2711165" lon="11.4136965"><ele>802.0</ele><time>2026-04-26T12:38:40.434Z</time></trkpt><trkpt lat="46.2711147" lon="11.4139116"><ele>802.0</ele><time>2026-04-26T12:38:41.444Z</time></trkpt><trkpt lat="46.2711054" lon="11.4141203"><ele>802.0</ele><time>2026-04-26T12:38:42.437Z</time></trkpt><trkpt lat="46.2710884" lon="11.4143233"><ele>802.0</ele><time>2026-04-26T12:38:43.435Z</time></trkpt><trkpt lat="46.2710647" lon="11.4145222"><ele>801.0</ele><time>2026-04-26T12:38:44.434Z</time></trkpt><trkpt lat="46.2710333" lon="11.41472"><ele>800.0</ele><time>2026-04-26T12:38:45.45Z</time></trkpt><trkpt lat="46.2709917" lon="11.4149191"><ele>799.0</ele><time>2026-04-26T12:38:46.436Z</time></trkpt><trkpt lat="46.2709506" lon="11.415122"><ele>798.0</ele><time>2026-04-26T12:38:47.457Z</time></trkpt><trkpt lat="46.2709017" lon="11.4153262"><ele>797.6666666666667</ele><time>2026-04-26T12:38:48.431Z</time></trkpt><trkpt lat="46.2708487" lon="11.4155313"><ele>797.3333333333334</ele><time>2026-04-26T12:38:49.456Z</time></trkpt><trkpt lat="46.2708065" lon="11.4157385"><ele>797.0</ele><time>2026-04-26T12:38:50.448Z</time></trkpt><trkpt lat="46.2707612" lon="11.4159478"><ele>797.0</ele><time>2026-04-26T12:38:51.451Z</time></trkpt><trkpt lat="46.2707338" lon="11.4161673"><ele>797.0</ele><time>2026-04-26T12:38:52.443Z</time></trkpt><trkpt lat="46.2707135" lon="11.4163901"><ele>797.0</ele><time>2026-04-26T12:38:53.45Z</time></trkpt><trkpt lat="46.2707004" lon="11.4166155"><ele>798.3333333333334</ele><time>2026-04-26T12:38:54.45Z</time></trkpt><trkpt lat="46.2706815" lon="11.4168441"><ele>799.6666666666667</ele><time>2026-04-26T12:38:55.449Z</time></trkpt><trkpt lat="46.2706829" lon="11.4170714"><ele>801.0</ele><time>2026-04-26T12:38:56.448Z</time></trkpt><trkpt lat="46.2706962" lon="11.4173016"><ele>801.0</ele><time>2026-04-26T12:38:57.438Z</time></trkpt><trkpt lat="46.2707116" lon="11.4175377"><ele>801.0</ele><time>2026-04-26T12:38:58.441Z</time></trkpt><trkpt lat="46.2707364" lon="11.4177728"><ele>801.0</ele><time>2026-04-26T12:38:59.434Z</time></trkpt><trkpt lat="46.2707721" lon="11.418008"><ele>801.0</ele><time>2026-04-26T12:39:00.451Z</time></trkpt><trkpt lat="46.2708" lon="11.4182453"><ele>801.0</ele><time>2026-04-26T12:39:01.439Z</time></trkpt><trkpt lat="46.2708288" lon="11.4184832"><ele>801.0</ele><time>2026-04-26T12:39:02.44Z</time></trkpt><trkpt lat="46.2708603" lon="11.4187194"><ele>801.3333333333333</ele><time>2026-04-26T12:39:03.466Z</time></trkpt><trkpt lat="46.2708989" lon="11.4189523"><ele>801.6666666666666</ele><time>2026-04-26T12:39:04.449Z</time></trkpt><trkpt lat="46.2709499" lon="11.4191769"><ele>802.0</ele><time>2026-04-26T12:39:05.442Z</time></trkpt><trkpt lat="46.270995" lon="11.4193979"><ele>802.0</ele><time>2026-04-26T12:39:06.453Z</time></trkpt><trkpt lat="46.271033" lon="11.4196178"><ele>802.0</ele><time>2026-04-26T12:39:07.431Z</time></trkpt><trkpt lat="46.2710746" lon="11.4198347"><ele>802.0</ele><time>2026-04-26T12:39:08.44Z</time></trkpt><trkpt lat="46.2711147" lon="11.4200531"><ele>802.3333333333333</ele><time>2026-04-26T12:39:09.443Z</time></trkpt><trkpt lat="46.2711514" lon="11.4202742"><ele>802.6666666666667</ele><time>2026-04-26T12:39:10.46Z</time></trkpt><trkpt lat="46.2711927" lon="11.4204975"><ele>803.0</ele><time>2026-04-26T12:39:11.455Z</time></trkpt><trkpt lat="46.2712317" lon="11.4207249"><ele>803.0</ele><time>2026-04-26T12:39:12.436Z</time></trkpt><trkpt lat="46.2712522" lon="11.4209629"><ele>803.0</ele><time>2026-04-26T12:39:13.469Z</time></trkpt><trkpt lat="46.2712739" lon="11.421201"><ele>803.0</ele><time>2026-04-26T12:39:14.46Z</time></trkpt><trkpt lat="46.271296" lon="11.4214347"><ele>805.0</ele><time>2026-04-26T12:39:15.444Z</time></trkpt><trkpt lat="46.2712937" lon="11.4216531"><ele>807.0</ele><time>2026-04-26T12:39:16.437Z</time></trkpt><trkpt lat="46.2713059" lon="11.4218399"><ele>809.0</ele><time>2026-04-26T12:39:17.445Z</time></trkpt><trkpt lat="46.2713424" lon="11.4219985"><ele>811.0</ele><time>2026-04-26T12:39:18.444Z</time></trkpt><trkpt lat="46.2713764" lon="11.4221364"><ele>809.8333333333333</ele><time>2026-04-26T12:39:19.444Z</time></trkpt><trkpt lat="46.2714106" lon="11.4222557"><ele>808.6666666666666</ele><time>2026-04-26T12:39:20.45Z</time></trkpt><trkpt lat="46.2714381" lon="11.4223564"><ele>807.5</ele><time>2026-04-26T12:39:21.439Z</time></trkpt><trkpt lat="46.2714603" lon="11.4224421"><ele>806.3333333333333</ele><time>2026-04-26T12:39:22.434Z</time></trkpt><trkpt lat="46.2715006" lon="11.4225892"><ele>805.1666666666666</ele><time>2026-04-26T12:39:24.437Z</time></trkpt><trkpt lat="46.2715005" lon="11.4227131"><ele>804.0</ele><time>2026-04-26T12:39:26.431Z</time></trkpt><trkpt lat="46.2714855" lon="11.4228193"><ele>804.0</ele><time>2026-04-26T12:39:28.436Z</time></trkpt><trkpt lat="46.27145" lon="11.4229246"><ele>804.0</ele><time>2026-04-26T12:39:30.44Z</time></trkpt><trkpt lat="46.2714109" lon="11.4230186"><ele>804.0</ele><time>2026-04-26T12:39:32.439Z</time></trkpt><trkpt lat="46.2713407" lon="11.4230539"><ele>804.0</ele><time>2026-04-26T12:39:34.438Z</time></trkpt><trkpt lat="46.2712563" lon="11.4230215"><ele>804.0</ele><time>2026-04-26T12:39:36.443Z</time></trkpt><trkpt lat="46.2711665" lon="11.4229771"><ele>804.0</ele><time>2026-04-26T12:39:38.446Z</time></trkpt><trkpt lat="46.2710982" lon="11.4229419"><ele>809.0</ele><time>2026-04-26T12:39:40.431Z</time></trkpt><trkpt lat="46.2710145" lon="11.4229181"><ele>814.0</ele><time>2026-04-26T12:39:43.44Z</time></trkpt><trkpt lat="46.2708711" lon="11.4227965"><ele>819.0</ele><time>2026-04-26T12:39:59.562Z</time></trkpt><trkpt lat="46.2708085" lon="11.422573"><ele>824.0</ele><time>2026-04-26T12:40:02.487Z</time></trkpt><trkpt lat="46.2707829" lon="11.4224679"><ele>824.0000000000001</ele><time>2026-04-26T12:40:03.501Z</time></trkpt><trkpt lat="46.2707449" lon="11.422354"><ele>824.0</ele><time>2026-04-26T12:40:04.481Z</time></trkpt><trkpt lat="46.2707025" lon="11.4222414"><ele>824.0</ele><time>2026-04-26T12:40:05.448Z</time></trkpt><trkpt lat="46.2706549" lon="11.4221471"><ele>824.0</ele><time>2026-04-26T12:40:06.468Z</time></trkpt><trkpt lat="46.2706221" lon="11.4220441"><ele>824.0000000000001</ele><time>2026-04-26T12:40:07.456Z</time></trkpt><trkpt lat="46.2705708" lon="11.421953"><ele>824.0</ele><time>2026-04-26T12:40:08.46Z</time></trkpt><trkpt lat="46.2705087" lon="11.4218304"><ele>825.8000000000001</ele><time>2026-04-26T12:40:09.442Z</time></trkpt><trkpt lat="46.2704219" lon="11.4217052"><ele>827.6</ele><time>2026-04-26T12:40:10.444Z</time></trkpt><trkpt lat="46.2703521" lon="11.4215974"><ele>829.4</ele><time>2026-04-26T12:40:11.441Z</time></trkpt><trkpt lat="46.2703076" lon="11.4214787"><ele>831.2</ele><time>2026-04-26T12:40:12.441Z</time></trkpt><trkpt lat="46.2702399" lon="11.42136"><ele>833.0</ele><time>2026-04-26T12:40:13.438Z</time></trkpt><trkpt lat="46.270138" lon="11.4212224"><ele>833.0</ele><time>2026-04-26T12:40:14.462Z</time></trkpt><trkpt lat="46.270031" lon="11.4210972"><ele>833.0</ele><time>2026-04-26T12:40:15.434Z</time></trkpt><trkpt lat="46.2699381" lon="11.4209429"><ele>833.0</ele><time>2026-04-26T12:40:16.438Z</time></trkpt><trkpt lat="46.2698328" lon="11.420773"><ele>833.0</ele><time>2026-04-26T12:40:17.447Z</time></trkpt><trkpt lat="46.2697197" lon="11.4205975"><ele>843.3333333333334</ele><time>2026-04-26T12:40:18.436Z</time></trkpt><trkpt lat="46.2696096" lon="11.4204389"><ele>853.6666666666667</ele><time>2026-04-26T12:40:19.45Z</time></trkpt><trkpt lat="46.2695142" lon="11.4202647"><ele>864.0</ele><time>2026-04-26T12:40:20.441Z</time></trkpt><trkpt lat="46.2694163" lon="11.4201019"><ele>864.0</ele><time>2026-04-26T12:40:21.44Z</time></trkpt><trkpt lat="46.2693199" lon="11.419954"><ele>864.0</ele><time>2026-04-26T12:40:22.433Z</time></trkpt><trkpt lat="46.2692246" lon="11.4198172"><ele>864.0</ele><time>2026-04-26T12:40:23.441Z</time></trkpt><trkpt lat="46.2691447" lon="11.4196757"><ele>864.0</ele><time>2026-04-26T12:40:24.435Z</time></trkpt><trkpt lat="46.2690747" lon="11.4195493"><ele>863.25</ele><time>2026-04-26T12:40:25.44Z</time></trkpt><trkpt lat="46.2690623" lon="11.4193866"><ele>862.5</ele><time>2026-04-26T12:40:26.45Z</time></trkpt><trkpt lat="46.2691105" lon="11.4191988"><ele>861.75</ele><time>2026-04-26T12:40:27.445Z</time></trkpt><trkpt lat="46.269193" lon="11.4190381"><ele>861.0</ele><time>2026-04-26T12:40:28.463Z</time></trkpt><trkpt lat="46.2692488" lon="11.418874"><ele>861.25</ele><time>2026-04-26T12:40:29.446Z</time></trkpt><trkpt lat="46.2692998" lon="11.4187281"><ele>861.5</ele><time>2026-04-26T12:40:30.445Z</time></trkpt><trkpt lat="46.2693295" lon="11.4185631"><ele>861.75</ele><time>2026-04-26T12:40:31.443Z</time></trkpt><trkpt lat="46.2693124" lon="11.4183916"><ele>862.0</ele><time>2026-04-26T12:40:32.448Z</time></trkpt><trkpt lat="46.2692949" lon="11.4182246"><ele>862.0</ele><time>2026-04-26T12:40:33.443Z</time></trkpt><trkpt lat="46.2691927" lon="11.4180958"><ele>862.0</ele><time>2026-04-26T12:40:34.439Z</time></trkpt><trkpt lat="46.2690915" lon="11.418004"><ele>862.0</ele><time>2026-04-26T12:40:35.443Z</time></trkpt><trkpt lat="46.2689521" lon="11.417944"><ele>862.0</ele><time>2026-04-26T12:40:36.431Z</time></trkpt><trkpt lat="46.26882" lon="11.4179555"><ele>865.75</ele><time>2026-04-26T12:40:37.438Z</time></trkpt><trkpt lat="46.2686894" lon="11.4180074"><ele>869.5</ele><time>2026-04-26T12:40:38.45Z</time></trkpt><trkpt lat="46.26856" lon="11.418048"><ele>873.25</ele><time>2026-04-26T12:40:39.451Z</time></trkpt><trkpt lat="46.2684402" lon="11.4180729"><ele>877.0</ele><time>2026-04-26T12:40:40.445Z</time></trkpt><trkpt lat="46.2683163" lon="11.4181064"><ele>877.0</ele><time>2026-04-26T12:40:41.446Z</time></trkpt><trkpt lat="46.2681816" lon="11.4181247"><ele>877.0</ele><time>2026-04-26T12:40:42.441Z</time></trkpt><trkpt lat="46.2680424" lon="11.4180964"><ele>877.0</ele><time>2026-04-26T12:40:43.44Z</time></trkpt><trkpt lat="46.2678968" lon="11.4180246"><ele>877.0</ele><time>2026-04-26T12:40:44.446Z</time></trkpt><trkpt lat="46.2677564" lon="11.4179246"><ele>878.3333333333333</ele><time>2026-04-26T12:40:45.442Z</time></trkpt><trkpt lat="46.2676197" lon="11.4178172"><ele>879.6666666666667</ele><time>2026-04-26T12:40:46.456Z</time></trkpt><trkpt lat="46.2674765" lon="11.4177054"><ele>881.0</ele><time>2026-04-26T12:40:47.441Z</time></trkpt><trkpt lat="46.2673384" lon="11.4176061"><ele>884.0</ele><time>2026-04-26T12:40:48.446Z</time></trkpt><trkpt lat="46.2671947" lon="11.4175202"><ele>887.0</ele><time>2026-04-26T12:40:49.447Z</time></trkpt><trkpt lat="46.2670659" lon="11.4174179"><ele>890.0</ele><time>2026-04-26T12:40:50.456Z</time></trkpt><trkpt lat="46.2669379" lon="11.4173187"><ele>893.0</ele><time>2026-04-26T12:40:51.445Z</time></trkpt><trkpt lat="46.2668079" lon="11.4172164"><ele>889.75</ele><time>2026-04-26T12:40:52.429Z</time></trkpt><trkpt lat="46.2666776" lon="11.4171144"><ele>886.5</ele><time>2026-04-26T12:40:53.441Z</time></trkpt><trkpt lat="46.2665472" lon="11.4170237"><ele>883.25</ele><time>2026-04-26T12:40:54.438Z</time></trkpt><trkpt lat="46.2664223" lon="11.4169375"><ele>880.0</ele><time>2026-04-26T12:40:55.45Z</time></trkpt><trkpt lat="46.2663077" lon="11.4168596"><ele>877.8</ele><time>2026-04-26T12:40:56.454Z</time></trkpt><trkpt lat="46.2662084" lon="11.4168024"><ele>875.6</ele><time>2026-04-26T12:40:57.441Z</time></trkpt><trkpt lat="46.2661263" lon="11.4167769"><ele>873.4000000000001</ele><time>2026-04-26T12:40:58.441Z</time></trkpt><trkpt lat="46.2660579" lon="11.4167734"><ele>871.2</ele><time>2026-04-26T12:40:59.425Z</time></trkpt><trkpt lat="46.2659942" lon="11.41679"><ele>869.0</ele><time>2026-04-26T12:41:00.448Z</time></trkpt><trkpt lat="46.2658666" lon="11.4168342"><ele>869.0</ele><time>2026-04-26T12:41:02.441Z</time></trkpt><trkpt lat="46.265784" lon="11.41685"><ele>869.0000000000001</ele><time>2026-04-26T12:41:03.447Z</time></trkpt><trkpt lat="46.2656963" lon="11.4168643"><ele>869.0000000000001</ele><time>2026-04-26T12:41:04.44Z</time></trkpt><trkpt lat="46.2656085" lon="11.4168864"><ele>869.0</ele><time>2026-04-26T12:41:05.46Z</time></trkpt><trkpt lat="46.2655134" lon="11.4169179"><ele>869.0</ele><time>2026-04-26T12:41:06.451Z</time></trkpt><trkpt lat="46.2654136" lon="11.4169668"><ele>864.4000000000001</ele><time>2026-04-26T12:41:07.455Z</time></trkpt><trkpt lat="46.2653238" lon="11.417023"><ele>859.8000000000001</ele><time>2026-04-26T12:41:08.461Z</time></trkpt><trkpt lat="46.2652286" lon="11.4170655"><ele>855.2</ele><time>2026-04-26T12:41:10.438Z</time></trkpt><trkpt lat="46.2651331" lon="11.4170712"><ele>850.5999999999999</ele><time>2026-04-26T12:41:32.437Z</time></trkpt><trkpt lat="46.265219" lon="11.4169833"><ele>846.0</ele><time>2026-04-26T12:41:48.438Z</time></trkpt><trkpt lat="46.265303" lon="11.4168799"><ele>846.0</ele><time>2026-04-26T12:41:49.432Z</time></trkpt><trkpt lat="46.2654044" lon="11.4168049"><ele>846.0</ele><time>2026-04-26T12:41:50.456Z</time></trkpt><trkpt lat="46.2654872" lon="11.4167665"><ele>846.0</ele><time>2026-04-26T12:41:51.445Z</time></trkpt><trkpt lat="46.2656233" lon="11.4167646"><ele>846.0</ele><time>2026-04-26T12:41:52.445Z</time></trkpt><trkpt lat="46.265879" lon="11.4167115"><ele>851.75</ele><time>2026-04-26T12:41:53.463Z</time></trkpt><trkpt lat="46.2660521" lon="11.4167157"><ele>857.5</ele><time>2026-04-26T12:41:54.453Z</time></trkpt><trkpt lat="46.2661665" lon="11.4167323"><ele>863.25</ele><time>2026-04-26T12:41:55.46Z</time></trkpt><trkpt lat="46.2662758" lon="11.4167579"><ele>869.0</ele><time>2026-04-26T12:41:56.44Z</time></trkpt><trkpt lat="46.266395" lon="11.4168213"><ele>871.75</ele><time>2026-04-26T12:41:57.444Z</time></trkpt><trkpt lat="46.2665066" lon="11.4169258"><ele>874.5</ele><time>2026-04-26T12:41:58.452Z</time></trkpt><trkpt lat="46.2666325" lon="11.4170366"><ele>877.25</ele><time>2026-04-26T12:41:59.442Z</time></trkpt><trkpt lat="46.2667585" lon="11.4171357"><ele>880.0</ele><time>2026-04-26T12:42:00.455Z</time></trkpt><trkpt lat="46.2668819" lon="11.4172352"><ele>880.25</ele><time>2026-04-26T12:42:01.439Z</time></trkpt><trkpt lat="46.2670058" lon="11.41733"><ele>880.5</ele><time>2026-04-26T12:42:02.452Z</time></trkpt><trkpt lat="46.2671339" lon="11.417411"><ele>880.75</ele><time>2026-04-26T12:42:03.462Z</time></trkpt><trkpt lat="46.2672452" lon="11.4175156"><ele>881.0</ele><time>2026-04-26T12:42:04.446Z</time></trkpt><trkpt lat="46.2673661" lon="11.4175876"><ele>881.0</ele><time>2026-04-26T12:42:05.463Z</time></trkpt><trkpt lat="46.26748" lon="11.4176711"><ele>881.0</ele><time>2026-04-26T12:42:06.451Z</time></trkpt><trkpt lat="46.267592" lon="11.4177549"><ele>881.0</ele><time>2026-04-26T12:42:07.445Z</time></trkpt><trkpt lat="46.2677" lon="11.4178404"><ele>881.0</ele><time>2026-04-26T12:42:08.453Z</time></trkpt><trkpt lat="46.2678045" lon="11.4179233"><ele>880.0</ele><time>2026-04-26T12:42:09.446Z</time></trkpt><trkpt lat="46.2679073" lon="11.4179964"><ele>879.0</ele><time>2026-04-26T12:42:10.434Z</time></trkpt><trkpt lat="46.268011" lon="11.4180524"><ele>878.0</ele><time>2026-04-26T12:42:11.439Z</time></trkpt><trkpt lat="46.2681219" lon="11.4180916"><ele>877.0</ele><time>2026-04-26T12:42:12.446Z</time></trkpt><trkpt lat="46.2682387" lon="11.4181066"><ele>877.0</ele><time>2026-04-26T12:42:13.448Z</time></trkpt><trkpt lat="46.2683456" lon="11.4181169"><ele>877.0</ele><time>2026-04-26T12:42:14.428Z</time></trkpt><trkpt lat="46.2684483" lon="11.4181087"><ele>877.0</ele><time>2026-04-26T12:42:15.442Z</time></trkpt><trkpt lat="46.2685364" lon="11.4180774"><ele>877.0</ele><time>2026-04-26T12:42:16.453Z</time></trkpt><trkpt lat="46.268619" lon="11.4180458"><ele>877.0</ele><time>2026-04-26T12:42:17.452Z</time></trkpt><trkpt lat="46.2686993" lon="11.4180132"><ele>875.1666666666666</ele><time>2026-04-26T12:42:18.451Z</time></trkpt><trkpt lat="46.2687782" lon="11.4179709"><ele>873.3333333333333</ele><time>2026-04-26T12:42:19.435Z</time></trkpt><trkpt lat="46.2688575" lon="11.4179406"><ele>871.5</ele><time>2026-04-26T12:42:20.447Z</time></trkpt><trkpt lat="46.2689382" lon="11.4179305"><ele>869.6666666666667</ele><time>2026-04-26T12:42:21.443Z</time></trkpt><trkpt lat="46.269023" lon="11.4179749"><ele>867.8333333333334</ele><time>2026-04-26T12:42:22.439Z</time></trkpt><trkpt lat="46.2691084" lon="11.4180477"><ele>866.0</ele><time>2026-04-26T12:42:23.445Z</time></trkpt><trkpt lat="46.2691868" lon="11.4181375"><ele>865.3333333333334</ele><time>2026-04-26T12:42:24.449Z</time></trkpt><trkpt lat="46.2692631" lon="11.4182258"><ele>864.6666666666667</ele><time>2026-04-26T12:42:25.471Z</time></trkpt><trkpt lat="46.2693142" lon="11.4183338"><ele>864.0</ele><time>2026-04-26T12:42:26.431Z</time></trkpt><trkpt lat="46.2693027" lon="11.4184789"><ele>863.3333333333333</ele><time>2026-04-26T12:42:27.456Z</time></trkpt><trkpt lat="46.269285" lon="11.4186055"><ele>862.6666666666666</ele><time>2026-04-26T12:42:28.43Z</time></trkpt><trkpt lat="46.2692837" lon="11.4187078"><ele>862.0</ele><time>2026-04-26T12:42:29.44Z</time></trkpt><trkpt lat="46.269265" lon="11.4188114"><ele>861.8333333333333</ele><time>2026-04-26T12:42:30.437Z</time></trkpt><trkpt lat="46.2692291" lon="11.4189015"><ele>861.6666666666666</ele><time>2026-04-26T12:42:31.454Z</time></trkpt><trkpt lat="46.2691891" lon="11.4189838"><ele>861.5</ele><time>2026-04-26T12:42:32.44Z</time></trkpt><trkpt lat="46.2691562" lon="11.4190775"><ele>861.3333333333333</ele><time>2026-04-26T12:42:33.448Z</time></trkpt><trkpt lat="46.2691225" lon="11.4191745"><ele>861.1666666666666</ele><time>2026-04-26T12:42:34.435Z</time></trkpt><trkpt lat="46.2690904" lon="11.4192875"><ele>861.0</ele><time>2026-04-26T12:42:35.448Z</time></trkpt><trkpt lat="46.2690625" lon="11.4194064"><ele>861.0</ele><time>2026-04-26T12:42:36.436Z</time></trkpt><trkpt lat="46.2690845" lon="11.4195416"><ele>861.0</ele><time>2026-04-26T12:42:37.444Z</time></trkpt><trkpt lat="46.2691134" lon="11.4196717"><ele>861.0</ele><time>2026-04-26T12:42:38.441Z</time></trkpt><trkpt lat="46.2691945" lon="11.4198075"><ele>861.0</ele><time>2026-04-26T12:42:39.433Z</time></trkpt><trkpt lat="46.269329" lon="11.419922"><ele>862.0</ele><time>2026-04-26T12:42:40.457Z</time></trkpt><trkpt lat="46.2694328" lon="11.4201212"><ele>863.0</ele><time>2026-04-26T12:42:41.444Z</time></trkpt><trkpt lat="46.2695519" lon="11.4203126"><ele>864.0</ele><time>2026-04-26T12:42:42.444Z</time></trkpt><trkpt lat="46.2696636" lon="11.420497"><ele>869.25</ele><time>2026-04-26T12:42:43.444Z</time></trkpt><trkpt lat="46.2697682" lon="11.4206777"><ele>874.5</ele><time>2026-04-26T12:42:44.448Z</time></trkpt><trkpt lat="46.269848" lon="11.4208497"><ele>879.75</ele><time>2026-04-26T12:42:45.443Z</time></trkpt><trkpt lat="46.2699284" lon="11.4209871"><ele>885.0</ele><time>2026-04-26T12:42:46.436Z</time></trkpt><trkpt lat="46.2700036" lon="11.4211235"><ele>877.25</ele><time>2026-04-26T12:42:47.432Z</time></trkpt><trkpt lat="46.2700621" lon="11.4212638"><ele>869.5</ele><time>2026-04-26T12:42:48.431Z</time></trkpt><trkpt lat="46.270146" lon="11.4213672"><ele>861.75</ele><time>2026-04-26T12:42:49.436Z</time></trkpt><trkpt lat="46.2702254" lon="11.4214819"><ele>854.0</ele><time>2026-04-26T12:42:50.435Z</time></trkpt><trkpt lat="46.2703141" lon="11.4215901"><ele>854.0</ele><time>2026-04-26T12:42:51.468Z</time></trkpt><trkpt lat="46.2703821" lon="11.4217166"><ele>854.0000000000001</ele><time>2026-04-26T12:42:52.428Z</time></trkpt><trkpt lat="46.2704403" lon="11.4218467"><ele>854.0000000000001</ele><time>2026-04-26T12:42:53.436Z</time></trkpt><trkpt lat="46.2704913" lon="11.4219759"><ele>854.0</ele><time>2026-04-26T12:42:54.444Z</time></trkpt><trkpt lat="46.2705352" lon="11.4221079"><ele>854.0</ele><time>2026-04-26T12:42:55.435Z</time></trkpt><trkpt lat="46.2705795" lon="11.4222396"><ele>848.0</ele><time>2026-04-26T12:42:56.452Z</time></trkpt><trkpt lat="46.2706467" lon="11.4223495"><ele>842.0000000000001</ele><time>2026-04-26T12:42:57.451Z</time></trkpt><trkpt lat="46.2706971" lon="11.4224633"><ele>836.0</ele><time>2026-04-26T12:42:58.43Z</time></trkpt><trkpt lat="46.270747" lon="11.4225689"><ele>830.0</ele><time>2026-04-26T12:42:59.439Z</time></trkpt><trkpt lat="46.2707994" lon="11.4226703"><ele>824.0</ele><time>2026-04-26T12:43:00.438Z</time></trkpt><trkpt lat="46.2708648" lon="11.422758"><ele>824.0000000000001</ele><time>2026-04-26T12:43:01.465Z</time></trkpt><trkpt lat="46.2709346" lon="11.4228269"><ele>824.0</ele><time>2026-04-26T12:43:02.442Z</time></trkpt><trkpt lat="46.2710129" lon="11.4228649"><ele>824.0</ele><time>2026-04-26T12:43:03.448Z</time></trkpt><trkpt lat="46.2710887" lon="11.4228932"><ele>824.0</ele><time>2026-04-26T12:43:04.43Z</time></trkpt><trkpt lat="46.2711549" lon="11.4229092"><ele>824.0000000000001</ele><time>2026-04-26T12:43:05.444Z</time></trkpt><trkpt lat="46.2712651" lon="11.4229727"><ele>824.0</ele><time>2026-04-26T12:43:07.443Z</time></trkpt><trkpt lat="46.2713534" lon="11.423037"><ele>824.2</ele><time>2026-04-26T12:43:09.443Z</time></trkpt><trkpt lat="46.2714201" lon="11.4230807"><ele>824.4000000000001</ele><time>2026-04-26T12:43:11.456Z</time></trkpt><trkpt lat="46.2714957" lon="11.4231332"><ele>824.6</ele><time>2026-04-26T12:43:13.446Z</time></trkpt><trkpt lat="46.2715279" lon="11.4233042"><ele>824.8</ele><time>2026-04-26T12:43:15.444Z</time></trkpt><trkpt lat="46.2715041" lon="11.4234375"><ele>825.0</ele><time>2026-04-26T12:43:16.446Z</time></trkpt><trkpt lat="46.2714812" lon="11.4236011"><ele>820.0</ele><time>2026-04-26T12:43:17.452Z</time></trkpt><trkpt lat="46.2714807" lon="11.4237931"><ele>815.0</ele><time>2026-04-26T12:43:18.436Z</time></trkpt><trkpt lat="46.2714856" lon="11.4240004"><ele>810.0</ele><time>2026-04-26T12:43:19.456Z</time></trkpt><trkpt lat="46.2714938" lon="11.4242102"><ele>805.0</ele><time>2026-04-26T12:43:20.444Z</time></trkpt><trkpt lat="46.2715094" lon="11.4244162"><ele>805.0</ele><time>2026-04-26T12:43:21.462Z</time></trkpt><trkpt lat="46.2715275" lon="11.4246249"><ele>805.0</ele><time>2026-04-26T12:43:22.451Z</time></trkpt><trkpt lat="46.2715523" lon="11.4248588"><ele>805.0</ele><time>2026-04-26T12:43:23.459Z</time></trkpt><trkpt lat="46.2715956" lon="11.4251252"><ele>804.6666666666666</ele><time>2026-04-26T12:43:24.454Z</time></trkpt><trkpt lat="46.2716401" lon="11.4254181"><ele>804.3333333333333</ele><time>2026-04-26T12:43:25.457Z</time></trkpt><trkpt lat="46.2716913" lon="11.4257344"><ele>804.0</ele><time>2026-04-26T12:43:26.441Z</time></trkpt><trkpt lat="46.271757" lon="11.4260655"><ele>805.0</ele><time>2026-04-26T12:43:27.439Z</time></trkpt><trkpt lat="46.2718441" lon="11.4263939"><ele>806.0</ele><time>2026-04-26T12:43:28.436Z</time></trkpt><trkpt lat="46.2719429" lon="11.4267187"><ele>806.0</ele><time>2026-04-26T12:43:29.451Z</time></trkpt><trkpt lat="46.272058" lon="11.4270362"><ele>806.0</ele><time>2026-04-26T12:43:30.439Z</time></trkpt><trkpt lat="46.2721848" lon="11.4273459"><ele>806.0</ele><time>2026-04-26T12:43:31.458Z</time></trkpt><trkpt lat="46.272328" lon="11.4276379"><ele>806.0</ele><time>2026-04-26T12:43:32.46Z</time></trkpt><trkpt lat="46.2724626" lon="11.4279253"><ele>806.0</ele><time>2026-04-26T12:43:33.437Z</time></trkpt><trkpt lat="46.2725811" lon="11.4282144"><ele>806.0</ele><time>2026-04-26T12:43:34.443Z</time></trkpt><trkpt lat="46.2727004" lon="11.4284961"><ele>806.0</ele><time>2026-04-26T12:43:35.465Z</time></trkpt><trkpt lat="46.2728146" lon="11.4287734"><ele>806.0</ele><time>2026-04-26T12:43:36.455Z</time></trkpt><trkpt lat="46.2729222" lon="11.429042"><ele>806.0</ele><time>2026-04-26T12:43:37.436Z</time></trkpt><trkpt lat="46.2730293" lon="11.4292978"><ele>807.3333333333334</ele><time>2026-04-26T12:43:38.435Z</time></trkpt><trkpt lat="46.2731302" lon="11.4295526"><ele>808.6666666666667</ele><time>2026-04-26T12:43:39.437Z</time></trkpt><trkpt lat="46.2732307" lon="11.4298091"><ele>810.0</ele><time>2026-04-26T12:43:40.443Z</time></trkpt><trkpt lat="46.2733339" lon="11.4300653"><ele>810.3333333333333</ele><time>2026-04-26T12:43:41.443Z</time></trkpt><trkpt lat="46.2734456" lon="11.4303184"><ele>810.6666666666666</ele><time>2026-04-26T12:43:42.446Z</time></trkpt><trkpt lat="46.2735553" lon="11.430577"><ele>811.0</ele><time>2026-04-26T12:43:43.445Z</time></trkpt><trkpt lat="46.2736578" lon="11.4308421"><ele>811.0</ele><time>2026-04-26T12:43:44.452Z</time></trkpt><trkpt lat="46.2737563" lon="11.4311109"><ele>811.0</ele><time>2026-04-26T12:43:45.439Z</time></trkpt><trkpt lat="46.2738606" lon="11.4313747"><ele>811.0</ele><time>2026-04-26T12:43:46.44Z</time></trkpt><trkpt lat="46.2739682" lon="11.4316311"><ele>812.6666666666666</ele><time>2026-04-26T12:43:47.452Z</time></trkpt><trkpt lat="46.2740777" lon="11.431879"><ele>814.3333333333333</ele><time>2026-04-26T12:43:48.437Z</time></trkpt><trkpt lat="46.2741854" lon="11.4321261"><ele>816.0</ele><time>2026-04-26T12:43:49.455Z</time></trkpt><trkpt lat="46.2743067" lon="11.4323573"><ele>816.0</ele><time>2026-04-26T12:43:50.432Z</time></trkpt><trkpt lat="46.2744348" lon="11.4325813"><ele>816.0</ele><time>2026-04-26T12:43:51.455Z</time></trkpt><trkpt lat="46.2745693" lon="11.4328012"><ele>816.0</ele><time>2026-04-26T12:43:52.44Z</time></trkpt><trkpt lat="46.2747064" lon="11.4330226"><ele>817.3333333333333</ele><time>2026-04-26T12:43:53.439Z</time></trkpt><trkpt lat="46.2748437" lon="11.4332453"><ele>818.6666666666666</ele><time>2026-04-26T12:43:54.435Z</time></trkpt><trkpt lat="46.2749765" lon="11.433471"><ele>820.0</ele><time>2026-04-26T12:43:55.429Z</time></trkpt><trkpt lat="46.2751053" lon="11.4336876"><ele>818.0</ele><time>2026-04-26T12:43:56.434Z</time></trkpt><trkpt lat="46.2752287" lon="11.4338948"><ele>816.0</ele><time>2026-04-26T12:43:57.434Z</time></trkpt><trkpt lat="46.2753459" lon="11.4340963"><ele>814.0</ele><time>2026-04-26T12:43:58.45Z</time></trkpt><trkpt lat="46.275449" lon="11.4343034"><ele>814.0</ele><time>2026-04-26T12:43:59.427Z</time></trkpt><trkpt lat="46.2755496" lon="11.4345086"><ele>814.0</ele><time>2026-04-26T12:44:00.433Z</time></trkpt><trkpt lat="46.2756348" lon="11.4347261"><ele>814.0</ele><time>2026-04-26T12:44:01.438Z</time></trkpt><trkpt lat="46.2757215" lon="11.434946"><ele>815.3333333333333</ele><time>2026-04-26T12:44:02.443Z</time></trkpt><trkpt lat="46.2757991" lon="11.4351763"><ele>816.6666666666667</ele><time>2026-04-26T12:44:03.454Z</time></trkpt><trkpt lat="46.2758827" lon="11.4354118"><ele>818.0</ele><time>2026-04-26T12:44:04.438Z</time></trkpt><trkpt lat="46.2759848" lon="11.4356438"><ele>818.0</ele><time>2026-04-26T12:44:05.448Z</time></trkpt><trkpt lat="46.2760747" lon="11.4358867"><ele>818.0</ele><time>2026-04-26T12:44:06.439Z</time></trkpt><trkpt lat="46.2761669" lon="11.4361291"><ele>818.0</ele><time>2026-04-26T12:44:07.434Z</time></trkpt><trkpt lat="46.2762618" lon="11.4363642"><ele>817.0</ele><time>2026-04-26T12:44:08.438Z</time></trkpt><trkpt lat="46.2763445" lon="11.4365938"><ele>816.0</ele><time>2026-04-26T12:44:09.443Z</time></trkpt><trkpt lat="46.27643" lon="11.4368154"><ele>815.0</ele><time>2026-04-26T12:44:10.438Z</time></trkpt><trkpt lat="46.2765148" lon="11.4370332"><ele>817.3333333333334</ele><time>2026-04-26T12:44:11.435Z</time></trkpt><trkpt lat="46.2766031" lon="11.437246"><ele>819.6666666666667</ele><time>2026-04-26T12:44:12.453Z</time></trkpt><trkpt lat="46.2766871" lon="11.4374602"><ele>822.0</ele><time>2026-04-26T12:44:13.436Z</time></trkpt><trkpt lat="46.2767693" lon="11.4376747"><ele>822.0</ele><time>2026-04-26T12:44:14.431Z</time></trkpt><trkpt lat="46.2768532" lon="11.4378881"><ele>822.0</ele><time>2026-04-26T12:44:15.452Z</time></trkpt><trkpt lat="46.2769466" lon="11.4380967"><ele>822.0</ele><time>2026-04-26T12:44:16.431Z</time></trkpt><trkpt lat="46.2770393" lon="11.4383063"><ele>821.6666666666667</ele><time>2026-04-26T12:44:17.434Z</time></trkpt><trkpt lat="46.2771301" lon="11.4385173"><ele>821.3333333333334</ele><time>2026-04-26T12:44:18.442Z</time></trkpt><trkpt lat="46.2772295" lon="11.4387213"><ele>821.0</ele><time>2026-04-26T12:44:19.435Z</time></trkpt><trkpt lat="46.2773384" lon="11.438918"><ele>826.0</ele><time>2026-04-26T12:44:20.451Z</time></trkpt><trkpt lat="46.2774466" lon="11.4391238"><ele>831.0</ele><time>2026-04-26T12:44:21.439Z</time></trkpt><trkpt lat="46.2775559" lon="11.439339"><ele>836.0</ele><time>2026-04-26T12:44:22.447Z</time></trkpt><trkpt lat="46.2776662" lon="11.4395594"><ele>831.6666666666667</ele><time>2026-04-26T12:44:23.435Z</time></trkpt><trkpt lat="46.2777731" lon="11.4397867"><ele>827.3333333333333</ele><time>2026-04-26T12:44:24.435Z</time></trkpt><trkpt lat="46.2778757" lon="11.440016"><ele>823.0</ele><time>2026-04-26T12:44:25.436Z</time></trkpt><trkpt lat="46.2779706" lon="11.4402449"><ele>822.3333333333333</ele><time>2026-04-26T12:44:26.443Z</time></trkpt><trkpt lat="46.2780547" lon="11.4404786"><ele>821.6666666666667</ele><time>2026-04-26T12:44:27.449Z</time></trkpt><trkpt lat="46.2781416" lon="11.4407084"><ele>821.0</ele><time>2026-04-26T12:44:28.432Z</time></trkpt><trkpt lat="46.2782313" lon="11.440934"><ele>824.0</ele><time>2026-04-26T12:44:29.439Z</time></trkpt><trkpt lat="46.2783188" lon="11.4411602"><ele>827.0</ele><time>2026-04-26T12:44:30.44Z</time></trkpt><trkpt lat="46.2784042" lon="11.4413897"><ele>830.0</ele><time>2026-04-26T12:44:31.441Z</time></trkpt><trkpt lat="46.2784917" lon="11.4416186"><ele>830.0</ele><time>2026-04-26T12:44:32.442Z</time></trkpt><trkpt lat="46.2785801" lon="11.441848"><ele>830.0</ele><time>2026-04-26T12:44:33.448Z</time></trkpt><trkpt lat="46.2786767" lon="11.4420732"><ele>830.0</ele><time>2026-04-26T12:44:34.435Z</time></trkpt><trkpt lat="46.2787735" lon="11.4422996"><ele>828.0</ele><time>2026-04-26T12:44:35.458Z</time></trkpt><trkpt lat="46.2788803" lon="11.442516"><ele>826.0</ele><time>2026-04-26T12:44:36.436Z</time></trkpt><trkpt lat="46.2789911" lon="11.442728"><ele>824.0</ele><time>2026-04-26T12:44:37.447Z</time></trkpt><trkpt lat="46.2791028" lon="11.4429352"><ele>827.6666666666667</ele><time>2026-04-26T12:44:38.441Z</time></trkpt><trkpt lat="46.2792114" lon="11.4431351"><ele>831.3333333333333</ele><time>2026-04-26T12:44:39.458Z</time></trkpt><trkpt lat="46.2793144" lon="11.4433263"><ele>835.0</ele><time>2026-04-26T12:44:40.44Z</time></trkpt><trkpt lat="46.2794067" lon="11.4435122"><ele>835.0</ele><time>2026-04-26T12:44:41.429Z</time></trkpt><trkpt lat="46.2794856" lon="11.4436926"><ele>835.0</ele><time>2026-04-26T12:44:42.44Z</time></trkpt><trkpt lat="46.2795585" lon="11.443861"><ele>835.0</ele><time>2026-04-26T12:44:43.443Z</time></trkpt><trkpt lat="46.2796254" lon="11.4440219"><ele>835.0</ele><time>2026-04-26T12:44:44.439Z</time></trkpt><trkpt lat="46.2796838" lon="11.4441773"><ele>834.8</ele><time>2026-04-26T12:44:45.454Z</time></trkpt><trkpt lat="46.2797364" lon="11.4443259"><ele>834.6</ele><time>2026-04-26T12:44:46.426Z</time></trkpt><trkpt lat="46.2797938" lon="11.4444609"><ele>834.4000000000001</ele><time>2026-04-26T12:44:47.458Z</time></trkpt><trkpt lat="46.2798298" lon="11.4446052"><ele>834.2</ele><time>2026-04-26T12:44:48.444Z</time></trkpt><trkpt lat="46.2798248" lon="11.444755"><ele>834.0</ele><time>2026-04-26T12:44:49.452Z</time></trkpt><trkpt lat="46.2798362" lon="11.4448825"><ele>834.0</ele><time>2026-04-26T12:44:50.429Z</time></trkpt><trkpt lat="46.2798558" lon="11.4449965"><ele>834.0</ele><time>2026-04-26T12:44:51.445Z</time></trkpt><trkpt lat="46.2798787" lon="11.4451069"><ele>834.0</ele><time>2026-04-26T12:44:52.43Z</time></trkpt><trkpt lat="46.2798873" lon="11.4452169"><ele>834.0</ele><time>2026-04-26T12:44:53.445Z</time></trkpt><trkpt lat="46.2799087" lon="11.4453233"><ele>834.0</ele><time>2026-04-26T12:44:54.442Z</time></trkpt><trkpt lat="46.2799592" lon="11.4454255"><ele>834.0</ele><time>2026-04-26T12:44:55.439Z</time></trkpt><trkpt lat="46.2800287" lon="11.4455147"><ele>833.25</ele><time>2026-04-26T12:44:56.432Z</time></trkpt><trkpt lat="46.2800994" lon="11.4456264"><ele>832.5</ele><time>2026-04-26T12:44:57.438Z</time></trkpt><trkpt lat="46.2801559" lon="11.4457648"><ele>831.75</ele><time>2026-04-26T12:44:58.446Z</time></trkpt><trkpt lat="46.2801966" lon="11.4459262"><ele>831.0</ele><time>2026-04-26T12:44:59.452Z</time></trkpt><trkpt lat="46.2802245" lon="11.4460958"><ele>831.0</ele><time>2026-04-26T12:45:00.445Z</time></trkpt><trkpt lat="46.28026" lon="11.44627"><ele>831.0</ele><time>2026-04-26T12:45:01.443Z</time></trkpt><trkpt lat="46.2802896" lon="11.4464603"><ele>831.0</ele><time>2026-04-26T12:45:02.432Z</time></trkpt><trkpt lat="46.280307" lon="11.4466627"><ele>831.0</ele><time>2026-04-26T12:45:03.455Z</time></trkpt><trkpt lat="46.2803304" lon="11.4468675"><ele>831.0</ele><time>2026-04-26T12:45:04.431Z</time></trkpt><trkpt lat="46.2803424" lon="11.4470751"><ele>831.0</ele><time>2026-04-26T12:45:05.442Z</time></trkpt><trkpt lat="46.2803516" lon="11.4472828"><ele>831.0</ele><time>2026-04-26T12:45:06.444Z</time></trkpt><trkpt lat="46.280352" lon="11.4474894"><ele>831.0</ele><time>2026-04-26T12:45:07.436Z</time></trkpt><trkpt lat="46.2803544" lon="11.4476989"><ele>831.5</ele><time>2026-04-26T12:45:08.434Z</time></trkpt><trkpt lat="46.2803534" lon="11.4479115"><ele>832.0</ele><time>2026-04-26T12:45:09.441Z</time></trkpt><trkpt lat="46.2803485" lon="11.4481254"><ele>832.5</ele><time>2026-04-26T12:45:10.44Z</time></trkpt><trkpt lat="46.2803255" lon="11.44834"><ele>833.0</ele><time>2026-04-26T12:45:11.464Z</time></trkpt><trkpt lat="46.2802983" lon="11.4485523"><ele>833.25</ele><time>2026-04-26T12:45:12.459Z</time></trkpt><trkpt lat="46.2802675" lon="11.4487609"><ele>833.5</ele><time>2026-04-26T12:45:13.428Z</time></trkpt><trkpt lat="46.280235" lon="11.4489641"><ele>833.75</ele><time>2026-04-26T12:45:14.446Z</time></trkpt><trkpt lat="46.2802227" lon="11.4491714"><ele>834.0</ele><time>2026-04-26T12:45:15.446Z</time></trkpt><trkpt lat="46.2802107" lon="11.4493749"><ele>834.0</ele><time>2026-04-26T12:45:16.442Z</time></trkpt><trkpt lat="46.2801939" lon="11.4495753"><ele>834.0</ele><time>2026-04-26T12:45:17.462Z</time></trkpt><trkpt lat="46.2801736" lon="11.4497771"><ele>834.0</ele><time>2026-04-26T12:45:18.457Z</time></trkpt><trkpt lat="46.2801198" lon="11.4499791"><ele>834.0</ele><time>2026-04-26T12:45:19.467Z</time></trkpt><trkpt lat="46.2800947" lon="11.4501877"><ele>834.0</ele><time>2026-04-26T12:45:20.442Z</time></trkpt><trkpt lat="46.2801006" lon="11.4503962"><ele>834.0</ele><time>2026-04-26T12:45:21.456Z</time></trkpt><trkpt lat="46.2801169" lon="11.4506125"><ele>834.0</ele><time>2026-04-26T12:45:22.435Z</time></trkpt><trkpt lat="46.2801597" lon="11.450832"><ele>834.6666666666667</ele><time>2026-04-26T12:45:23.454Z</time></trkpt><trkpt lat="46.2802125" lon="11.4510517"><ele>835.3333333333334</ele><time>2026-04-26T12:45:24.441Z</time></trkpt><trkpt lat="46.2802677" lon="11.4512753"><ele>836.0</ele><time>2026-04-26T12:45:25.448Z</time></trkpt><trkpt lat="46.280329" lon="11.4514977"><ele>836.0</ele><time>2026-04-26T12:45:26.458Z</time></trkpt><trkpt lat="46.2803878" lon="11.4517256"><ele>836.0</ele><time>2026-04-26T12:45:27.466Z</time></trkpt><trkpt lat="46.2804479" lon="11.4519566"><ele>836.0</ele><time>2026-04-26T12:45:28.448Z</time></trkpt><trkpt lat="46.2805111" lon="11.4521926"><ele>835.3333333333334</ele><time>2026-04-26T12:45:29.445Z</time></trkpt><trkpt lat="46.280574" lon="11.452433"><ele>834.6666666666667</ele><time>2026-04-26T12:45:30.438Z</time></trkpt><trkpt lat="46.2806113" lon="11.4526879"><ele>834.0</ele><time>2026-04-26T12:45:31.447Z</time></trkpt><trkpt lat="46.2806419" lon="11.4529436"><ele>839.0</ele><time>2026-04-26T12:45:32.447Z</time></trkpt><trkpt lat="46.2806491" lon="11.4532058"><ele>844.0</ele><time>2026-04-26T12:45:33.439Z</time></trkpt><trkpt lat="46.2806456" lon="11.4534701"><ele>849.0</ele><time>2026-04-26T12:45:34.446Z</time></trkpt><trkpt lat="46.2806344" lon="11.4537322"><ele>848.0</ele><time>2026-04-26T12:45:35.459Z</time></trkpt><trkpt lat="46.2806195" lon="11.4539916"><ele>847.0</ele><time>2026-04-26T12:45:36.45Z</time></trkpt><trkpt lat="46.2806013" lon="11.4542461"><ele>846.0</ele><time>2026-04-26T12:45:37.45Z</time></trkpt><trkpt lat="46.2805816" lon="11.4544922"><ele>842.0</ele><time>2026-04-26T12:45:38.447Z</time></trkpt><trkpt lat="46.2805641" lon="11.4547314"><ele>838.0</ele><time>2026-04-26T12:45:39.439Z</time></trkpt><trkpt lat="46.2805446" lon="11.4549666"><ele>834.0</ele><time>2026-04-26T12:45:40.442Z</time></trkpt><trkpt lat="46.2805329" lon="11.4552033"><ele>834.0</ele><time>2026-04-26T12:45:41.478Z</time></trkpt><trkpt lat="46.2805097" lon="11.4554415"><ele>834.0</ele><time>2026-04-26T12:45:42.436Z</time></trkpt><trkpt lat="46.2804863" lon="11.4556815"><ele>834.0</ele><time>2026-04-26T12:45:43.436Z</time></trkpt><trkpt lat="46.2804654" lon="11.4559235"><ele>834.3333333333333</ele><time>2026-04-26T12:45:44.45Z</time></trkpt><trkpt lat="46.2804415" lon="11.4561655"><ele>834.6666666666666</ele><time>2026-04-26T12:45:45.435Z</time></trkpt><trkpt lat="46.2804079" lon="11.4564065"><ele>835.0</ele><time>2026-04-26T12:45:46.444Z</time></trkpt><trkpt lat="46.2803754" lon="11.4566503"><ele>836.0</ele><time>2026-04-26T12:45:47.462Z</time></trkpt><trkpt lat="46.2803493" lon="11.4568977"><ele>837.0</ele><time>2026-04-26T12:45:48.45Z</time></trkpt><trkpt lat="46.280329" lon="11.4571483"><ele>838.0</ele><time>2026-04-26T12:45:49.446Z</time></trkpt><trkpt lat="46.2803061" lon="11.4574007"><ele>839.3333333333333</ele><time>2026-04-26T12:45:50.449Z</time></trkpt><trkpt lat="46.2802879" lon="11.4576579"><ele>840.6666666666667</ele><time>2026-04-26T12:45:51.454Z</time></trkpt><trkpt lat="46.2802568" lon="11.4579178"><ele>842.0</ele><time>2026-04-26T12:45:52.442Z</time></trkpt><trkpt lat="46.2802512" lon="11.4581819"><ele>842.3333333333334</ele><time>2026-04-26T12:45:53.451Z</time></trkpt><trkpt lat="46.2802652" lon="11.4584462"><ele>842.6666666666667</ele><time>2026-04-26T12:45:54.444Z</time></trkpt><trkpt lat="46.2803034" lon="11.4587043"><ele>843.0</ele><time>2026-04-26T12:45:55.441Z</time></trkpt><trkpt lat="46.280355" lon="11.4589597"><ele>843.0</ele><time>2026-04-26T12:45:56.448Z</time></trkpt><trkpt lat="46.2804162" lon="11.4592139"><ele>843.0</ele><time>2026-04-26T12:45:57.452Z</time></trkpt><trkpt lat="46.2804926" lon="11.4594655"><ele>843.0</ele><time>2026-04-26T12:45:58.437Z</time></trkpt><trkpt lat="46.2805651" lon="11.4597152"><ele>847.3333333333333</ele><time>2026-04-26T12:45:59.454Z</time></trkpt><trkpt lat="46.2806686" lon="11.459944"><ele>851.6666666666666</ele><time>2026-04-26T12:46:00.446Z</time></trkpt><trkpt lat="46.2807858" lon="11.4601566"><ele>856.0</ele><time>2026-04-26T12:46:01.463Z</time></trkpt><trkpt lat="46.2809124" lon="11.4603589"><ele>851.3333333333333</ele><time>2026-04-26T12:46:02.45Z</time></trkpt><trkpt lat="46.2810473" lon="11.460549"><ele>846.6666666666667</ele><time>2026-04-26T12:46:03.45Z</time></trkpt><trkpt lat="46.2811918" lon="11.460731"><ele>842.0</ele><time>2026-04-26T12:46:04.443Z</time></trkpt><trkpt lat="46.2813546" lon="11.4609"><ele>842.3333333333334</ele><time>2026-04-26T12:46:05.464Z</time></trkpt><trkpt lat="46.2815064" lon="11.4610809"><ele>842.6666666666667</ele><time>2026-04-26T12:46:06.463Z</time></trkpt><trkpt lat="46.2816574" lon="11.4612637"><ele>843.0</ele><time>2026-04-26T12:46:07.451Z</time></trkpt><trkpt lat="46.2818058" lon="11.4614514"><ele>843.0</ele><time>2026-04-26T12:46:08.461Z</time></trkpt><trkpt lat="46.2819535" lon="11.4616416"><ele>843.0</ele><time>2026-04-26T12:46:09.463Z</time></trkpt><trkpt lat="46.2821017" lon="11.4618332"><ele>843.0</ele><time>2026-04-26T12:46:10.451Z</time></trkpt><trkpt lat="46.2822499" lon="11.4620239"><ele>843.6666666666667</ele><time>2026-04-26T12:46:11.447Z</time></trkpt><trkpt lat="46.2823967" lon="11.4622111"><ele>844.3333333333334</ele><time>2026-04-26T12:46:12.45Z</time></trkpt><trkpt lat="46.2825393" lon="11.4623913"><ele>845.0</ele><time>2026-04-26T12:46:13.457Z</time></trkpt><trkpt lat="46.2826751" lon="11.4625675"><ele>845.0</ele><time>2026-04-26T12:46:14.446Z</time></trkpt><trkpt lat="46.2828059" lon="11.462741"><ele>845.0</ele><time>2026-04-26T12:46:15.458Z</time></trkpt><trkpt lat="46.2829277" lon="11.4629211"><ele>845.0</ele><time>2026-04-26T12:46:16.442Z</time></trkpt><trkpt lat="46.2830408" lon="11.4631097"><ele>850.3333333333334</ele><time>2026-04-26T12:46:17.465Z</time></trkpt><trkpt lat="46.2831453" lon="11.463307"><ele>855.6666666666667</ele><time>2026-04-26T12:46:18.443Z</time></trkpt><trkpt lat="46.2832369" lon="11.4635193"><ele>861.0</ele><time>2026-04-26T12:46:19.438Z</time></trkpt><trkpt lat="46.2833198" lon="11.463737"><ele>858.3333333333333</ele><time>2026-04-26T12:46:20.458Z</time></trkpt><trkpt lat="46.2833985" lon="11.4639559"><ele>855.6666666666666</ele><time>2026-04-26T12:46:21.453Z</time></trkpt><trkpt lat="46.283474" lon="11.4641761"><ele>853.0</ele><time>2026-04-26T12:46:22.461Z</time></trkpt><trkpt lat="46.2835416" lon="11.4644021"><ele>851.6666666666666</ele><time>2026-04-26T12:46:23.443Z</time></trkpt><trkpt lat="46.2836127" lon="11.4646269"><ele>850.3333333333333</ele><time>2026-04-26T12:46:24.439Z</time></trkpt><trkpt lat="46.2836959" lon="11.4648479"><ele>849.0</ele><time>2026-04-26T12:46:25.444Z</time></trkpt><trkpt lat="46.2837798" lon="11.4650717"><ele>849.0</ele><time>2026-04-26T12:46:26.444Z</time></trkpt><trkpt lat="46.2838689" lon="11.4652963"><ele>849.0</ele><time>2026-04-26T12:46:27.461Z</time></trkpt><trkpt lat="46.2839509" lon="11.4655282"><ele>849.0</ele><time>2026-04-26T12:46:28.446Z</time></trkpt><trkpt lat="46.2840282" lon="11.4657616"><ele>850.0</ele><time>2026-04-26T12:46:29.469Z</time></trkpt><trkpt lat="46.2841045" lon="11.4659913"><ele>851.0</ele><time>2026-04-26T12:46:30.436Z</time></trkpt><trkpt lat="46.2841772" lon="11.4662194"><ele>852.0</ele><time>2026-04-26T12:46:31.439Z</time></trkpt><trkpt lat="46.2842512" lon="11.4664423"><ele>852.0</ele><time>2026-04-26T12:46:32.459Z</time></trkpt><trkpt lat="46.284325" lon="11.4666604"><ele>852.0</ele><time>2026-04-26T12:46:33.447Z</time></trkpt><trkpt lat="46.2843974" lon="11.4668754"><ele>852.0</ele><time>2026-04-26T12:46:34.468Z</time></trkpt><trkpt lat="46.2844696" lon="11.4670888"><ele>850.6666666666667</ele><time>2026-04-26T12:46:35.456Z</time></trkpt><trkpt lat="46.2845419" lon="11.467304"><ele>849.3333333333334</ele><time>2026-04-26T12:46:36.441Z</time></trkpt><trkpt lat="46.2846165" lon="11.4675207"><ele>848.0</ele><time>2026-04-26T12:46:37.457Z</time></trkpt><trkpt lat="46.2846937" lon="11.4677408"><ele>851.6666666666667</ele><time>2026-04-26T12:46:38.468Z</time></trkpt><trkpt lat="46.2847689" lon="11.4679675"><ele>855.3333333333333</ele><time>2026-04-26T12:46:39.459Z</time></trkpt><trkpt lat="46.284843" lon="11.468199"><ele>859.0</ele><time>2026-04-26T12:46:40.46Z</time></trkpt><trkpt lat="46.2849081" lon="11.4684431"><ele>859.0</ele><time>2026-04-26T12:46:41.469Z</time></trkpt><trkpt lat="46.2849685" lon="11.4686949"><ele>859.0</ele><time>2026-04-26T12:46:42.45Z</time></trkpt><trkpt lat="46.2850111" lon="11.4689575"><ele>859.0</ele><time>2026-04-26T12:46:43.453Z</time></trkpt><trkpt lat="46.2850349" lon="11.469227"><ele>857.3333333333333</ele><time>2026-04-26T12:46:44.44Z</time></trkpt><trkpt lat="46.2850484" lon="11.4694965"><ele>855.6666666666667</ele><time>2026-04-26T12:46:45.441Z</time></trkpt><trkpt lat="46.2850549" lon="11.4697617"><ele>854.0</ele><time>2026-04-26T12:46:46.449Z</time></trkpt><trkpt lat="46.2850496" lon="11.4700184"><ele>853.3333333333334</ele><time>2026-04-26T12:46:47.467Z</time></trkpt><trkpt lat="46.2850361" lon="11.4702646"><ele>852.6666666666667</ele><time>2026-04-26T12:46:48.44Z</time></trkpt><trkpt lat="46.2850193" lon="11.4705016"><ele>852.0</ele><time>2026-04-26T12:46:49.446Z</time></trkpt><trkpt lat="46.2850021" lon="11.4707303"><ele>852.0</ele><time>2026-04-26T12:46:50.451Z</time></trkpt><trkpt lat="46.2849837" lon="11.4709545"><ele>852.0</ele><time>2026-04-26T12:46:51.468Z</time></trkpt><trkpt lat="46.284964" lon="11.4711742"><ele>852.0</ele><time>2026-04-26T12:46:52.457Z</time></trkpt><trkpt lat="46.2849466" lon="11.4713913"><ele>852.6666666666667</ele><time>2026-04-26T12:46:53.452Z</time></trkpt><trkpt lat="46.2849319" lon="11.4716098"><ele>853.3333333333334</ele><time>2026-04-26T12:46:54.451Z</time></trkpt><trkpt lat="46.2849161" lon="11.4718301"><ele>854.0</ele><time>2026-04-26T12:46:55.453Z</time></trkpt><trkpt lat="46.2849001" lon="11.4720556"><ele>855.0</ele><time>2026-04-26T12:46:56.439Z</time></trkpt><trkpt lat="46.2848804" lon="11.4722873"><ele>856.0</ele><time>2026-04-26T12:46:57.451Z</time></trkpt><trkpt lat="46.2848662" lon="11.4725215"><ele>857.0</ele><time>2026-04-26T12:46:58.457Z</time></trkpt><trkpt lat="46.2848507" lon="11.4727541"><ele>856.3333333333334</ele><time>2026-04-26T12:46:59.46Z</time></trkpt><trkpt lat="46.2848353" lon="11.4729863"><ele>855.6666666666667</ele><time>2026-04-26T12:47:00.448Z</time></trkpt><trkpt lat="46.2848232" lon="11.4732206"><ele>855.0</ele><time>2026-04-26T12:47:01.458Z</time></trkpt><trkpt lat="46.2848094" lon="11.4734603"><ele>855.0</ele><time>2026-04-26T12:47:02.442Z</time></trkpt><trkpt lat="46.2847951" lon="11.4737059"><ele>855.0</ele><time>2026-04-26T12:47:03.443Z</time></trkpt><trkpt lat="46.2847806" lon="11.4739546"><ele>855.0</ele><time>2026-04-26T12:47:04.444Z</time></trkpt><trkpt lat="46.284766" lon="11.4742019"><ele>854.3333333333333</ele><time>2026-04-26T12:47:05.472Z</time></trkpt><trkpt lat="46.2847584" lon="11.4744462"><ele>853.6666666666666</ele><time>2026-04-26T12:47:06.44Z</time></trkpt><trkpt lat="46.2847459" lon="11.4746883"><ele>853.0</ele><time>2026-04-26T12:47:07.447Z</time></trkpt><trkpt lat="46.2847552" lon="11.4749274"><ele>853.6666666666666</ele><time>2026-04-26T12:47:08.444Z</time></trkpt><trkpt lat="46.2847769" lon="11.4751622"><ele>854.3333333333333</ele><time>2026-04-26T12:47:09.45Z</time></trkpt><trkpt lat="46.2848083" lon="11.4753941"><ele>855.0</ele><time>2026-04-26T12:47:10.44Z</time></trkpt><trkpt lat="46.2848437" lon="11.4756252"><ele>855.0</ele><time>2026-04-26T12:47:11.464Z</time></trkpt><trkpt lat="46.2848988" lon="11.4758513"><ele>855.0</ele><time>2026-04-26T12:47:12.459Z</time></trkpt><trkpt lat="46.2849396" lon="11.47608"><ele>855.0</ele><time>2026-04-26T12:47:13.465Z</time></trkpt><trkpt lat="46.2849775" lon="11.4763078"><ele>854.6666666666667</ele><time>2026-04-26T12:47:14.479Z</time></trkpt><trkpt lat="46.2850156" lon="11.4765334"><ele>854.3333333333334</ele><time>2026-04-26T12:47:15.462Z</time></trkpt><trkpt lat="46.2850536" lon="11.4767543"><ele>854.0</ele><time>2026-04-26T12:47:16.465Z</time></trkpt><trkpt lat="46.2850859" lon="11.4769718"><ele>854.0</ele><time>2026-04-26T12:47:17.462Z</time></trkpt><trkpt lat="46.2851305" lon="11.4771776"><ele>854.0</ele><time>2026-04-26T12:47:18.445Z</time></trkpt><trkpt lat="46.2851704" lon="11.477378"><ele>854.0</ele><time>2026-04-26T12:47:19.441Z</time></trkpt><trkpt lat="46.2852039" lon="11.4775764"><ele>854.0</ele><time>2026-04-26T12:47:20.446Z</time></trkpt><trkpt lat="46.2852342" lon="11.47777"><ele>854.25</ele><time>2026-04-26T12:47:21.466Z</time></trkpt><trkpt lat="46.2852585" lon="11.4779562"><ele>854.5</ele><time>2026-04-26T12:47:22.445Z</time></trkpt><trkpt lat="46.2852823" lon="11.4781282"><ele>854.75</ele><time>2026-04-26T12:47:23.456Z</time></trkpt><trkpt lat="46.2853108" lon="11.4782859"><ele>855.0</ele><time>2026-04-26T12:47:24.45Z</time></trkpt><trkpt lat="46.285337" lon="11.4784282"><ele>855.0</ele><time>2026-04-26T12:47:25.454Z</time></trkpt><trkpt lat="46.28536" lon="11.4785534"><ele>855.0</ele><time>2026-04-26T12:47:26.442Z</time></trkpt><trkpt lat="46.2853817" lon="11.4786674"><ele>855.0</ele><time>2026-04-26T12:47:27.471Z</time></trkpt><trkpt lat="46.2854001" lon="11.4787748"><ele>855.0</ele><time>2026-04-26T12:47:28.451Z</time></trkpt><trkpt lat="46.2854161" lon="11.478871"><ele>855.0</ele><time>2026-04-26T12:47:29.445Z</time></trkpt><trkpt lat="46.2854415" lon="11.4790334"><ele>855.0</ele><time>2026-04-26T12:47:31.445Z</time></trkpt><trkpt lat="46.2854631" lon="11.4791756"><ele>855.0</ele><time>2026-04-26T12:47:33.448Z</time></trkpt><trkpt lat="46.2854913" lon="11.4793302"><ele>855.0</ele><time>2026-04-26T12:47:35.438Z</time></trkpt><trkpt lat="46.2855053" lon="11.4794494"><ele>855.0</ele><time>2026-04-26T12:47:36.451Z</time></trkpt><trkpt lat="46.2855305" lon="11.4795996"><ele>855.0</ele><time>2026-04-26T12:47:37.454Z</time></trkpt><trkpt lat="46.2855573" lon="11.4797725"><ele>855.0</ele><time>2026-04-26T12:47:38.449Z</time></trkpt><trkpt lat="46.2855754" lon="11.479974"><ele>857.3333333333333</ele><time>2026-04-26T12:47:39.447Z</time></trkpt><trkpt lat="46.2856118" lon="11.4801918"><ele>859.6666666666666</ele><time>2026-04-26T12:47:40.442Z</time></trkpt><trkpt lat="46.2856501" lon="11.4804368"><ele>862.0</ele><time>2026-04-26T12:47:41.452Z</time></trkpt><trkpt lat="46.2856924" lon="11.480714"><ele>862.0</ele><time>2026-04-26T12:47:42.441Z</time></trkpt><trkpt lat="46.2857322" lon="11.4810287"><ele>862.0</ele><time>2026-04-26T12:47:43.446Z</time></trkpt><trkpt lat="46.2857751" lon="11.4813831"><ele>861.0</ele><time>2026-04-26T12:47:44.453Z</time></trkpt><trkpt lat="46.2858199" lon="11.4817747"><ele>860.0</ele><time>2026-04-26T12:47:45.445Z</time></trkpt><trkpt lat="46.2858829" lon="11.4821989"><ele>860.0</ele><time>2026-04-26T12:47:46.448Z</time></trkpt><trkpt lat="46.2859137" lon="11.4826491"><ele>860.0</ele><time>2026-04-26T12:47:47.443Z</time></trkpt><trkpt lat="46.2859595" lon="11.4831467"><ele>860.0</ele><time>2026-04-26T12:47:48.449Z</time></trkpt><trkpt lat="46.2860513" lon="11.4836419"><ele>860.0</ele><time>2026-04-26T12:47:49.438Z</time></trkpt><trkpt lat="46.2861085" lon="11.4841039"><ele>860.0</ele><time>2026-04-26T12:47:50.442Z</time></trkpt><trkpt lat="46.2861651" lon="11.4845309"><ele>860.0</ele><time>2026-04-26T12:47:51.434Z</time></trkpt><trkpt lat="46.2862198" lon="11.4849293"><ele>860.0</ele><time>2026-04-26T12:47:52.451Z</time></trkpt><trkpt lat="46.2862684" lon="11.4853087"><ele>860.0</ele><time>2026-04-26T12:47:53.442Z</time></trkpt><trkpt lat="46.2863147" lon="11.4856662"><ele>860.0</ele><time>2026-04-26T12:47:54.447Z</time></trkpt><trkpt lat="46.2863547" lon="11.4860009"><ele>860.0</ele><time>2026-04-26T12:47:55.456Z</time></trkpt><trkpt lat="46.2863883" lon="11.4863246"><ele>860.0</ele><time>2026-04-26T12:47:56.441Z</time></trkpt><trkpt lat="46.2864164" lon="11.4866433"><ele>860.0</ele><time>2026-04-26T12:47:57.465Z</time></trkpt><trkpt lat="46.2864389" lon="11.4869604"><ele>860.0</ele><time>2026-04-26T12:47:58.454Z</time></trkpt><trkpt lat="46.2864376" lon="11.487282"><ele>861.3333333333334</ele><time>2026-04-26T12:47:59.44Z</time></trkpt><trkpt lat="46.2864335" lon="11.4876037"><ele>862.6666666666667</ele><time>2026-04-26T12:48:00.442Z</time></trkpt><trkpt lat="46.2864301" lon="11.4879247"><ele>864.0</ele><time>2026-04-26T12:48:01.441Z</time></trkpt><trkpt lat="46.2864241" lon="11.4882456"><ele>864.0</ele><time>2026-04-26T12:48:02.461Z</time></trkpt><trkpt lat="46.286409" lon="11.4885669"><ele>864.0</ele><time>2026-04-26T12:48:03.447Z</time></trkpt><trkpt lat="46.2863882" lon="11.4888874"><ele>864.0</ele><time>2026-04-26T12:48:04.471Z</time></trkpt><trkpt lat="46.2863689" lon="11.4892036"><ele>864.3333333333333</ele><time>2026-04-26T12:48:05.458Z</time></trkpt><trkpt lat="46.2863412" lon="11.489515"><ele>864.6666666666666</ele><time>2026-04-26T12:48:06.463Z</time></trkpt><trkpt lat="46.2863127" lon="11.4898237"><ele>865.0</ele><time>2026-04-26T12:48:07.461Z</time></trkpt><trkpt lat="46.2862811" lon="11.4901299"><ele>866.0</ele><time>2026-04-26T12:48:08.462Z</time></trkpt><trkpt lat="46.2862494" lon="11.4904338"><ele>867.0</ele><time>2026-04-26T12:48:09.464Z</time></trkpt><trkpt lat="46.2862126" lon="11.4907372"><ele>868.0</ele><time>2026-04-26T12:48:10.476Z</time></trkpt><trkpt lat="46.2861762" lon="11.4910418"><ele>869.3333333333333</ele><time>2026-04-26T12:48:11.461Z</time></trkpt><trkpt lat="46.2861413" lon="11.4913488"><ele>870.6666666666667</ele><time>2026-04-26T12:48:12.46Z</time></trkpt><trkpt lat="46.2861078" lon="11.4916586"><ele>872.0</ele><time>2026-04-26T12:48:13.468Z</time></trkpt><trkpt lat="46.2860587" lon="11.4919666"><ele>874.0</ele><time>2026-04-26T12:48:14.473Z</time></trkpt><trkpt lat="46.2858174" lon="11.4941561"><ele>874.0</ele><time>2026-04-26T12:48:21.462Z</time></trkpt><trkpt lat="46.2858129" lon="11.4945185"><ele>874.0</ele><time>2026-04-26T12:48:22.444Z</time></trkpt><trkpt lat="46.2858504" lon="11.4948358"><ele>873.0</ele><time>2026-04-26T12:48:23.452Z</time></trkpt><trkpt lat="46.285873" lon="11.4951692"><ele>872.0</ele><time>2026-04-26T12:48:24.45Z</time></trkpt><trkpt lat="46.285916" lon="11.495484"><ele>871.6666666666667</ele><time>2026-04-26T12:48:25.446Z</time></trkpt><trkpt lat="46.2859435" lon="11.4958002"><ele>871.3333333333333</ele><time>2026-04-26T12:48:26.448Z</time></trkpt><trkpt lat="46.2859755" lon="11.4961133"><ele>871.0</ele><time>2026-04-26T12:48:27.44Z</time></trkpt><trkpt lat="46.2860113" lon="11.496426"><ele>870.6666666666666</ele><time>2026-04-26T12:48:28.45Z</time></trkpt><trkpt lat="46.2860464" lon="11.4967375"><ele>870.3333333333333</ele><time>2026-04-26T12:48:29.452Z</time></trkpt><trkpt lat="46.2860877" lon="11.4970461"><ele>870.0</ele><time>2026-04-26T12:48:30.445Z</time></trkpt><trkpt lat="46.2861362" lon="11.4973539"><ele>870.0</ele><time>2026-04-26T12:48:31.456Z</time></trkpt><trkpt lat="46.2861927" lon="11.4976604"><ele>870.0</ele><time>2026-04-26T12:48:32.443Z</time></trkpt><trkpt lat="46.2862438" lon="11.497967"><ele>870.0</ele><time>2026-04-26T12:48:33.468Z</time></trkpt><trkpt lat="46.2862981" lon="11.498272"><ele>870.3333333333333</ele><time>2026-04-26T12:48:34.439Z</time></trkpt><trkpt lat="46.2863529" lon="11.4985767"><ele>870.6666666666666</ele><time>2026-04-26T12:48:35.445Z</time></trkpt><trkpt lat="46.2864107" lon="11.4988811"><ele>871.0</ele><time>2026-04-26T12:48:36.448Z</time></trkpt><trkpt lat="46.2864687" lon="11.4991861"><ele>872.3333333333333</ele><time>2026-04-26T12:48:37.446Z</time></trkpt><trkpt lat="46.2865252" lon="11.4994907"><ele>873.6666666666667</ele><time>2026-04-26T12:48:38.457Z</time></trkpt><trkpt lat="46.2865812" lon="11.4997956"><ele>875.0</ele><time>2026-04-26T12:48:39.446Z</time></trkpt><trkpt lat="46.2866335" lon="11.5001029"><ele>875.0</ele><time>2026-04-26T12:48:40.445Z</time></trkpt><trkpt lat="46.2866874" lon="11.5004106"><ele>875.0</ele><time>2026-04-26T12:48:41.457Z</time></trkpt><trkpt lat="46.2867383" lon="11.5007209"><ele>875.0</ele><time>2026-04-26T12:48:42.446Z</time></trkpt><trkpt lat="46.2867779" lon="11.5010351"><ele>875.6666666666667</ele><time>2026-04-26T12:48:43.459Z</time></trkpt><trkpt lat="46.2868028" lon="11.5013541"><ele>876.3333333333333</ele><time>2026-04-26T12:48:44.451Z</time></trkpt><trkpt lat="46.2868145" lon="11.5016762"><ele>877.0</ele><time>2026-04-26T12:48:45.453Z</time></trkpt><trkpt lat="46.2868116" lon="11.5019996"><ele>878.6666666666666</ele><time>2026-04-26T12:48:46.444Z</time></trkpt><trkpt lat="46.286801" lon="11.5023224"><ele>880.3333333333333</ele><time>2026-04-26T12:48:47.451Z</time></trkpt><trkpt lat="46.2867819" lon="11.5026436"><ele>882.0</ele><time>2026-04-26T12:48:48.455Z</time></trkpt><trkpt lat="46.2867489" lon="11.5029644"><ele>882.5</ele><time>2026-04-26T12:48:49.45Z</time></trkpt><trkpt lat="46.2867067" lon="11.5032848"><ele>883.0</ele><time>2026-04-26T12:48:50.448Z</time></trkpt><trkpt lat="46.28665" lon="11.5036036"><ele>887.5</ele><time>2026-04-26T12:48:51.448Z</time></trkpt><trkpt lat="46.2865765" lon="11.5039159"><ele>892.0</ele><time>2026-04-26T12:48:52.461Z</time></trkpt><trkpt lat="46.286497" lon="11.5042235"><ele>887.6666666666666</ele><time>2026-04-26T12:48:53.445Z</time></trkpt><trkpt lat="46.2864079" lon="11.5045221"><ele>883.3333333333333</ele><time>2026-04-26T12:48:54.447Z</time></trkpt><trkpt lat="46.2863069" lon="11.5048099"><ele>879.0</ele><time>2026-04-26T12:48:55.454Z</time></trkpt><trkpt lat="46.286198" lon="11.5050895"><ele>878.3333333333333</ele><time>2026-04-26T12:48:56.447Z</time></trkpt><trkpt lat="46.2860816" lon="11.5053609"><ele>877.6666666666666</ele><time>2026-04-26T12:48:57.438Z</time></trkpt><trkpt lat="46.2859555" lon="11.5056206"><ele>877.0</ele><time>2026-04-26T12:48:58.445Z</time></trkpt><trkpt lat="46.2858195" lon="11.505867"><ele>879.0</ele><time>2026-04-26T12:48:59.451Z</time></trkpt><trkpt lat="46.2856799" lon="11.5061066"><ele>881.0</ele><time>2026-04-26T12:49:00.457Z</time></trkpt><trkpt lat="46.2855347" lon="11.5063399"><ele>883.0</ele><time>2026-04-26T12:49:01.441Z</time></trkpt><trkpt lat="46.2853814" lon="11.5065612"><ele>883.0</ele><time>2026-04-26T12:49:02.444Z</time></trkpt><trkpt lat="46.2852219" lon="11.5067728"><ele>883.0</ele><time>2026-04-26T12:49:03.445Z</time></trkpt><trkpt lat="46.2850668" lon="11.5069934"><ele>883.0</ele><time>2026-04-26T12:49:04.439Z</time></trkpt><trkpt lat="46.2849185" lon="11.5072259"><ele>883.0</ele><time>2026-04-26T12:49:05.449Z</time></trkpt><trkpt lat="46.2847807" lon="11.507473"><ele>883.0</ele><time>2026-04-26T12:49:06.462Z</time></trkpt><trkpt lat="46.2846734" lon="11.5077534"><ele>883.0</ele><time>2026-04-26T12:49:07.452Z</time></trkpt><trkpt lat="46.2845795" lon="11.5080423"><ele>883.0</ele><time>2026-04-26T12:49:08.454Z</time></trkpt><trkpt lat="46.2844891" lon="11.5083335"><ele>883.0</ele><time>2026-04-26T12:49:09.451Z</time></trkpt><trkpt lat="46.284412" lon="11.5086351"><ele>883.0</ele><time>2026-04-26T12:49:10.454Z</time></trkpt><trkpt lat="46.2843566" lon="11.5089502"><ele>884.0</ele><time>2026-04-26T12:49:11.44Z</time></trkpt><trkpt lat="46.2843149" lon="11.5092726"><ele>885.0</ele><time>2026-04-26T12:49:12.441Z</time></trkpt><trkpt lat="46.2842886" lon="11.5096025"><ele>885.5</ele><time>2026-04-26T12:49:13.445Z</time></trkpt><trkpt lat="46.2842675" lon="11.5099374"><ele>886.0</ele><time>2026-04-26T12:49:14.438Z</time></trkpt><trkpt lat="46.2842308" lon="11.5102683"><ele>883.5</ele><time>2026-04-26T12:49:15.45Z</time></trkpt><trkpt lat="46.2841985" lon="11.5105937"><ele>881.0</ele><time>2026-04-26T12:49:16.442Z</time></trkpt><trkpt lat="46.2841704" lon="11.5109181"><ele>880.5</ele><time>2026-04-26T12:49:17.451Z</time></trkpt><trkpt lat="46.284149" lon="11.5112446"><ele>880.0</ele><time>2026-04-26T12:49:18.45Z</time></trkpt><trkpt lat="46.2841588" lon="11.5115807"><ele>880.0</ele><time>2026-04-26T12:49:19.441Z</time></trkpt><trkpt lat="46.2841744" lon="11.5119174"><ele>880.0</ele><time>2026-04-26T12:49:20.448Z</time></trkpt><trkpt lat="46.2841991" lon="11.5122541"><ele>881.0</ele><time>2026-04-26T12:49:21.446Z</time></trkpt><trkpt lat="46.2842289" lon="11.5125896"><ele>882.0</ele><time>2026-04-26T12:49:22.444Z</time></trkpt><trkpt lat="46.2842562" lon="11.512924"><ele>883.0</ele><time>2026-04-26T12:49:23.446Z</time></trkpt><trkpt lat="46.2842839" lon="11.5132547"><ele>884.0</ele><time>2026-04-26T12:49:24.445Z</time></trkpt><trkpt lat="46.2843146" lon="11.5135801"><ele>883.5</ele><time>2026-04-26T12:49:25.462Z</time></trkpt><trkpt lat="46.2843463" lon="11.513904"><ele>883.0</ele><time>2026-04-26T12:49:26.456Z</time></trkpt><trkpt lat="46.2843772" lon="11.5142271"><ele>883.0</ele><time>2026-04-26T12:49:27.457Z</time></trkpt><trkpt lat="46.2844055" lon="11.5145493"><ele>883.0</ele><time>2026-04-26T12:49:28.456Z</time></trkpt><trkpt lat="46.2844336" lon="11.5148702"><ele>883.0</ele><time>2026-04-26T12:49:29.44Z</time></trkpt><trkpt lat="46.2844625" lon="11.5151887"><ele>883.3333333333333</ele><time>2026-04-26T12:49:30.442Z</time></trkpt><trkpt lat="46.2844937" lon="11.515504"><ele>883.6666666666667</ele><time>2026-04-26T12:49:31.452Z</time></trkpt><trkpt lat="46.2845242" lon="11.5158187"><ele>884.0</ele><time>2026-04-26T12:49:32.444Z</time></trkpt><trkpt lat="46.2845541" lon="11.516132"><ele>884.6666666666667</ele><time>2026-04-26T12:49:33.451Z</time></trkpt><trkpt lat="46.2845827" lon="11.5164448"><ele>885.3333333333333</ele><time>2026-04-26T12:49:34.445Z</time></trkpt><trkpt lat="46.2846097" lon="11.5167589"><ele>886.0</ele><time>2026-04-26T12:49:35.454Z</time></trkpt><trkpt lat="46.2846328" lon="11.5170728"><ele>886.6666666666666</ele><time>2026-04-26T12:49:36.445Z</time></trkpt><trkpt lat="46.2846607" lon="11.5173854"><ele>887.3333333333333</ele><time>2026-04-26T12:49:37.453Z</time></trkpt><trkpt lat="46.2846916" lon="11.5176966"><ele>888.0</ele><time>2026-04-26T12:49:38.431Z</time></trkpt><trkpt lat="46.2847245" lon="11.5180059"><ele>888.6666666666667</ele><time>2026-04-26T12:49:39.451Z</time></trkpt><trkpt lat="46.2847497" lon="11.5183153"><ele>889.3333333333334</ele><time>2026-04-26T12:49:40.453Z</time></trkpt><trkpt lat="46.2847752" lon="11.5186246"><ele>890.0</ele><time>2026-04-26T12:49:41.45Z</time></trkpt><trkpt lat="46.2848022" lon="11.5189369"><ele>893.0</ele><time>2026-04-26T12:49:42.446Z</time></trkpt><trkpt lat="46.2848309" lon="11.5192557"><ele>896.0</ele><time>2026-04-26T12:49:43.454Z</time></trkpt><trkpt lat="46.284861" lon="11.5195836"><ele>896.5</ele><time>2026-04-26T12:49:44.441Z</time></trkpt><trkpt lat="46.2848936" lon="11.5199184"><ele>897.0</ele><time>2026-04-26T12:49:45.458Z</time></trkpt><trkpt lat="46.2849282" lon="11.520256"><ele>897.0</ele><time>2026-04-26T12:49:46.439Z</time></trkpt><trkpt lat="46.2849619" lon="11.5205937"><ele>897.0</ele><time>2026-04-26T12:49:47.456Z</time></trkpt><trkpt lat="46.2849978" lon="11.5209264"><ele>896.6666666666667</ele><time>2026-04-26T12:49:48.445Z</time></trkpt><trkpt lat="46.2850319" lon="11.5212402"><ele>896.3333333333334</ele><time>2026-04-26T12:49:49.458Z</time></trkpt><trkpt lat="46.2850628" lon="11.5215228"><ele>896.0</ele><time>2026-04-26T12:49:50.441Z</time></trkpt><trkpt lat="46.2850841" lon="11.5217787"><ele>896.0</ele><time>2026-04-26T12:49:51.465Z</time></trkpt><trkpt lat="46.2851038" lon="11.522016"><ele>896.0</ele><time>2026-04-26T12:49:52.449Z</time></trkpt><trkpt lat="46.2851122" lon="11.5222437"><ele>896.0</ele><time>2026-04-26T12:49:53.446Z</time></trkpt><trkpt lat="46.2851134" lon="11.5224611"><ele>895.75</ele><time>2026-04-26T12:49:54.466Z</time></trkpt><trkpt lat="46.2851046" lon="11.5226635"><ele>895.5</ele><time>2026-04-26T12:49:55.459Z</time></trkpt><trkpt lat="46.2850871" lon="11.5228478"><ele>895.25</ele><time>2026-04-26T12:49:56.455Z</time></trkpt><trkpt lat="46.2850694" lon="11.5230172"><ele>895.0</ele><time>2026-04-26T12:49:57.458Z</time></trkpt><trkpt lat="46.2850527" lon="11.5231762"><ele>895.0</ele><time>2026-04-26T12:49:58.446Z</time></trkpt><trkpt lat="46.2850343" lon="11.5233251"><ele>895.0</ele><time>2026-04-26T12:49:59.452Z</time></trkpt><trkpt lat="46.2850022" lon="11.5234579"><ele>895.0</ele><time>2026-04-26T12:50:00.46Z</time></trkpt><trkpt lat="46.28496" lon="11.5235911"><ele>895.0</ele><time>2026-04-26T12:50:01.439Z</time></trkpt><trkpt lat="46.2849226" lon="11.5237485"><ele>895.0</ele><time>2026-04-26T12:50:02.452Z</time></trkpt><trkpt lat="46.2849168" lon="11.5239474"><ele>895.6666666666666</ele><time>2026-04-26T12:50:03.442Z</time></trkpt><trkpt lat="46.2848991" lon="11.5241592"><ele>896.3333333333333</ele><time>2026-04-26T12:50:04.436Z</time></trkpt><trkpt lat="46.2848728" lon="11.5243765"><ele>897.0</ele><time>2026-04-26T12:50:05.451Z</time></trkpt><trkpt lat="46.2848228" lon="11.5245881"><ele>897.0</ele><time>2026-04-26T12:50:06.454Z</time></trkpt><trkpt lat="46.2847634" lon="11.5247973"><ele>897.0</ele><time>2026-04-26T12:50:07.437Z</time></trkpt><trkpt lat="46.2846974" lon="11.5249948"><ele>897.0</ele><time>2026-04-26T12:50:08.455Z</time></trkpt><trkpt lat="46.2846235" lon="11.525181"><ele>897.0</ele><time>2026-04-26T12:50:09.456Z</time></trkpt><trkpt lat="46.2845542" lon="11.52537"><ele>897.0</ele><time>2026-04-26T12:50:10.446Z</time></trkpt><trkpt lat="46.2844856" lon="11.5255614"><ele>897.0</ele><time>2026-04-26T12:50:11.462Z</time></trkpt><trkpt lat="46.2844163" lon="11.525756"><ele>897.0</ele><time>2026-04-26T12:50:12.449Z</time></trkpt><trkpt lat="46.2843455" lon="11.5259535"><ele>897.0</ele><time>2026-04-26T12:50:13.452Z</time></trkpt><trkpt lat="46.2842712" lon="11.5261581"><ele>897.0</ele><time>2026-04-26T12:50:14.443Z</time></trkpt><trkpt lat="46.2841981" lon="11.5263733"><ele>897.0</ele><time>2026-04-26T12:50:15.467Z</time></trkpt><trkpt lat="46.2841228" lon="11.5265936"><ele>897.3333333333333</ele><time>2026-04-26T12:50:16.442Z</time></trkpt><trkpt lat="46.2840424" lon="11.5268162"><ele>897.6666666666666</ele><time>2026-04-26T12:50:17.459Z</time></trkpt><trkpt lat="46.2839584" lon="11.5270412"><ele>898.0</ele><time>2026-04-26T12:50:18.442Z</time></trkpt><trkpt lat="46.283872" lon="11.5272685"><ele>898.0</ele><time>2026-04-26T12:50:19.463Z</time></trkpt><trkpt lat="46.2837816" lon="11.527494"><ele>898.0</ele><time>2026-04-26T12:50:20.444Z</time></trkpt><trkpt lat="46.2836878" lon="11.5277147"><ele>898.0</ele><time>2026-04-26T12:50:21.462Z</time></trkpt><trkpt lat="46.2835983" lon="11.5279379"><ele>898.3333333333333</ele><time>2026-04-26T12:50:22.45Z</time></trkpt><trkpt lat="46.2835104" lon="11.5281619"><ele>898.6666666666667</ele><time>2026-04-26T12:50:23.468Z</time></trkpt><trkpt lat="46.2834325" lon="11.5283936"><ele>899.0</ele><time>2026-04-26T12:50:24.439Z</time></trkpt><trkpt lat="46.2833621" lon="11.528631"><ele>900.3333333333334</ele><time>2026-04-26T12:50:25.463Z</time></trkpt><trkpt lat="46.2833107" lon="11.5288828"><ele>901.6666666666667</ele><time>2026-04-26T12:50:26.459Z</time></trkpt><trkpt lat="46.283265" lon="11.52914"><ele>903.0</ele><time>2026-04-26T12:50:27.451Z</time></trkpt><trkpt lat="46.2832265" lon="11.5294067"><ele>904.0</ele><time>2026-04-26T12:50:28.468Z</time></trkpt><trkpt lat="46.2832025" lon="11.5296851"><ele>905.0</ele><time>2026-04-26T12:50:29.449Z</time></trkpt><trkpt lat="46.2831879" lon="11.5299726"><ele>906.0</ele><time>2026-04-26T12:50:30.454Z</time></trkpt><trkpt lat="46.283176" lon="11.5302675"><ele>906.6666666666667</ele><time>2026-04-26T12:50:31.451Z</time></trkpt><trkpt lat="46.2831629" lon="11.5305658"><ele>907.3333333333334</ele><time>2026-04-26T12:50:32.451Z</time></trkpt><trkpt lat="46.2831496" lon="11.5308671"><ele>908.0</ele><time>2026-04-26T12:50:33.455Z</time></trkpt><trkpt lat="46.2831212" lon="11.5311718"><ele>906.6666666666667</ele><time>2026-04-26T12:50:34.437Z</time></trkpt><trkpt lat="46.2830839" lon="11.5314773"><ele>905.3333333333333</ele><time>2026-04-26T12:50:35.447Z</time></trkpt><trkpt lat="46.2830245" lon="11.5317772"><ele>904.0</ele><time>2026-04-26T12:50:36.437Z</time></trkpt><trkpt lat="46.2829461" lon="11.5320723"><ele>904.0</ele><time>2026-04-26T12:50:37.454Z</time></trkpt><trkpt lat="46.2828536" lon="11.5323627"><ele>904.0</ele><time>2026-04-26T12:50:38.441Z</time></trkpt><trkpt lat="46.2827614" lon="11.5326561"><ele>904.0</ele><time>2026-04-26T12:50:39.451Z</time></trkpt><trkpt lat="46.2826792" lon="11.5329565"><ele>903.5</ele><time>2026-04-26T12:50:40.438Z</time></trkpt><trkpt lat="46.2826133" lon="11.5332706"><ele>903.0</ele><time>2026-04-26T12:50:41.442Z</time></trkpt><trkpt lat="46.2825554" lon="11.5335907"><ele>905.5</ele><time>2026-04-26T12:50:42.44Z</time></trkpt><trkpt lat="46.2825001" lon="11.5339127"><ele>908.0</ele><time>2026-04-26T12:50:43.451Z</time></trkpt><trkpt lat="46.282434" lon="11.5342288"><ele>908.0</ele><time>2026-04-26T12:50:44.451Z</time></trkpt><trkpt lat="46.2823667" lon="11.5345458"><ele>908.0</ele><time>2026-04-26T12:50:45.457Z</time></trkpt><trkpt lat="46.2823019" lon="11.5348652"><ele>906.5</ele><time>2026-04-26T12:50:46.455Z</time></trkpt><trkpt lat="46.2822328" lon="11.5351833"><ele>905.0</ele><time>2026-04-26T12:50:47.458Z</time></trkpt><trkpt lat="46.2821668" lon="11.5355028"><ele>904.5</ele><time>2026-04-26T12:50:48.439Z</time></trkpt><trkpt lat="46.2821042" lon="11.535822"><ele>904.0</ele><time>2026-04-26T12:50:49.473Z</time></trkpt><trkpt lat="46.28205" lon="11.5361446"><ele>905.5</ele><time>2026-04-26T12:50:50.447Z</time></trkpt><trkpt lat="46.2820019" lon="11.5364709"><ele>907.0</ele><time>2026-04-26T12:50:51.459Z</time></trkpt><trkpt lat="46.2819594" lon="11.5368008"><ele>908.0</ele><time>2026-04-26T12:50:52.438Z</time></trkpt><trkpt lat="46.2819201" lon="11.5371323"><ele>909.0</ele><time>2026-04-26T12:50:53.456Z</time></trkpt><trkpt lat="46.2818809" lon="11.5374643"><ele>909.0</ele><time>2026-04-26T12:50:54.443Z</time></trkpt><trkpt lat="46.2818459" lon="11.5377957"><ele>909.0</ele><time>2026-04-26T12:50:55.438Z</time></trkpt><trkpt lat="46.2818131" lon="11.5381258"><ele>909.0</ele><time>2026-04-26T12:50:56.453Z</time></trkpt><trkpt lat="46.2817871" lon="11.5384557"><ele>909.0</ele><time>2026-04-26T12:50:57.451Z</time></trkpt><trkpt lat="46.2817783" lon="11.5387884"><ele>911.0</ele><time>2026-04-26T12:50:58.472Z</time></trkpt><trkpt lat="46.281782" lon="11.5391202"><ele>913.0</ele><time>2026-04-26T12:50:59.461Z</time></trkpt><trkpt lat="46.2817983" lon="11.5394447"><ele>914.6666666666666</ele><time>2026-04-26T12:51:00.468Z</time></trkpt><trkpt lat="46.2818293" lon="11.5397613"><ele>916.3333333333333</ele><time>2026-04-26T12:51:01.455Z</time></trkpt><trkpt lat="46.2818688" lon="11.5400738"><ele>918.0</ele><time>2026-04-26T12:51:02.445Z</time></trkpt><trkpt lat="46.281927" lon="11.5403802"><ele>921.3333333333333</ele><time>2026-04-26T12:51:03.456Z</time></trkpt><trkpt lat="46.2819804" lon="11.5406879"><ele>924.6666666666666</ele><time>2026-04-26T12:51:04.461Z</time></trkpt><trkpt lat="46.2820314" lon="11.5409948"><ele>928.0</ele><time>2026-04-26T12:51:05.443Z</time></trkpt><trkpt lat="46.2820686" lon="11.5413043"><ele>928.6666666666666</ele><time>2026-04-26T12:51:06.475Z</time></trkpt><trkpt lat="46.2820833" lon="11.5416169"><ele>929.3333333333333</ele><time>2026-04-26T12:51:07.458Z</time></trkpt><trkpt lat="46.2820807" lon="11.5419281"><ele>930.0</ele><time>2026-04-26T12:51:08.446Z</time></trkpt><trkpt lat="46.2820581" lon="11.5422371"><ele>930.0</ele><time>2026-04-26T12:51:09.461Z</time></trkpt><trkpt lat="46.2820183" lon="11.5425434"><ele>930.0</ele><time>2026-04-26T12:51:10.453Z</time></trkpt><trkpt lat="46.2819687" lon="11.5428483"><ele>930.0</ele><time>2026-04-26T12:51:11.445Z</time></trkpt><trkpt lat="46.2818975" lon="11.543157"><ele>942.0</ele><time>2026-04-26T12:51:12.458Z</time></trkpt><trkpt lat="46.2814168" lon="11.5467265"><ele>938.5</ele><time>2026-04-26T12:51:23.408Z</time></trkpt><trkpt lat="46.281268" lon="11.5470848"><ele>935.0</ele><time>2026-04-26T12:51:24.441Z</time></trkpt><trkpt lat="46.2812564" lon="11.5473817"><ele>935.0</ele><time>2026-04-26T12:51:25.456Z</time></trkpt><trkpt lat="46.2811921" lon="11.5477268"><ele>935.0</ele><time>2026-04-26T12:51:26.45Z</time></trkpt><trkpt lat="46.2811655" lon="11.5480287"><ele>932.5</ele><time>2026-04-26T12:51:27.464Z</time></trkpt><trkpt lat="46.2811756" lon="11.5483587"><ele>930.0</ele><time>2026-04-26T12:51:28.468Z</time></trkpt><trkpt lat="46.2812022" lon="11.5486845"><ele>930.6666666666667</ele><time>2026-04-26T12:51:29.453Z</time></trkpt><trkpt lat="46.2812607" lon="11.549"><ele>931.3333333333334</ele><time>2026-04-26T12:51:30.468Z</time></trkpt><trkpt lat="46.2813307" lon="11.5493017"><ele>932.0</ele><time>2026-04-26T12:51:31.456Z</time></trkpt><trkpt lat="46.2814135" lon="11.5495925"><ele>930.6666666666667</ele><time>2026-04-26T12:51:32.439Z</time></trkpt><trkpt lat="46.2815045" lon="11.5498706"><ele>929.3333333333333</ele><time>2026-04-26T12:51:33.459Z</time></trkpt><trkpt lat="46.281621" lon="11.5501287"><ele>928.0</ele><time>2026-04-26T12:51:34.468Z</time></trkpt><trkpt lat="46.2817484" lon="11.5503638"><ele>928.3333333333333</ele><time>2026-04-26T12:51:35.45Z</time></trkpt><trkpt lat="46.2818822" lon="11.5505804"><ele>928.6666666666667</ele><time>2026-04-26T12:51:36.463Z</time></trkpt><trkpt lat="46.2820257" lon="11.5507806"><ele>929.0</ele><time>2026-04-26T12:51:37.47Z</time></trkpt><trkpt lat="46.2821782" lon="11.5509663"><ele>929.3333333333334</ele><time>2026-04-26T12:51:38.452Z</time></trkpt><trkpt lat="46.2823165" lon="11.5511672"><ele>929.6666666666667</ele><time>2026-04-26T12:51:39.469Z</time></trkpt><trkpt lat="46.2824606" lon="11.5513641"><ele>930.0</ele><time>2026-04-26T12:51:40.461Z</time></trkpt><trkpt lat="46.2825835" lon="11.551582"><ele>930.3333333333333</ele><time>2026-04-26T12:51:41.448Z</time></trkpt><trkpt lat="46.2827152" lon="11.5517923"><ele>930.6666666666666</ele><time>2026-04-26T12:51:42.447Z</time></trkpt><trkpt lat="46.2828655" lon="11.5519858"><ele>931.0</ele><time>2026-04-26T12:51:43.459Z</time></trkpt><trkpt lat="46.2830251" lon="11.5521707"><ele>931.6666666666666</ele><time>2026-04-26T12:51:44.456Z</time></trkpt><trkpt lat="46.2831974" lon="11.5523307"><ele>932.3333333333333</ele><time>2026-04-26T12:51:45.448Z</time></trkpt><trkpt lat="46.2833641" lon="11.5524781"><ele>933.0</ele><time>2026-04-26T12:51:46.447Z</time></trkpt><trkpt lat="46.2835312" lon="11.552608"><ele>933.0</ele><time>2026-04-26T12:51:47.459Z</time></trkpt><trkpt lat="46.2837023" lon="11.5527332"><ele>933.0</ele><time>2026-04-26T12:51:48.444Z</time></trkpt><trkpt lat="46.2838671" lon="11.5528823"><ele>933.0</ele><time>2026-04-26T12:51:49.456Z</time></trkpt><trkpt lat="46.284029" lon="11.5530498"><ele>932.3333333333333</ele><time>2026-04-26T12:51:50.458Z</time></trkpt><trkpt lat="46.2841888" lon="11.5532377"><ele>931.6666666666666</ele><time>2026-04-26T12:51:51.446Z</time></trkpt><trkpt lat="46.2843477" lon="11.5534466"><ele>931.0</ele><time>2026-04-26T12:51:52.46Z</time></trkpt><trkpt lat="46.2845068" lon="11.5536733"><ele>931.5</ele><time>2026-04-26T12:51:53.476Z</time></trkpt><trkpt lat="46.2846566" lon="11.5539228"><ele>932.0</ele><time>2026-04-26T12:51:54.45Z</time></trkpt><trkpt lat="46.2848006" lon="11.5541834"><ele>937.0</ele><time>2026-04-26T12:51:55.458Z</time></trkpt><trkpt lat="46.2849318" lon="11.5544603"><ele>942.0</ele><time>2026-04-26T12:51:56.461Z</time></trkpt><trkpt lat="46.2850526" lon="11.5547516"><ele>942.5</ele><time>2026-04-26T12:51:57.465Z</time></trkpt><trkpt lat="46.2851678" lon="11.5550506"><ele>943.0</ele><time>2026-04-26T12:51:58.462Z</time></trkpt><trkpt lat="46.2852686" lon="11.5553656"><ele>940.5</ele><time>2026-04-26T12:51:59.474Z</time></trkpt><trkpt lat="46.285368" lon="11.5556796"><ele>938.0</ele><time>2026-04-26T12:52:00.475Z</time></trkpt><trkpt lat="46.2854538" lon="11.5559854"><ele>937.0</ele><time>2026-04-26T12:52:01.492Z</time></trkpt><trkpt lat="46.2855383" lon="11.5562805"><ele>936.0</ele><time>2026-04-26T12:52:02.466Z</time></trkpt><trkpt lat="46.285618" lon="11.5565573"><ele>935.0</ele><time>2026-04-26T12:52:03.456Z</time></trkpt><trkpt lat="46.2856945" lon="11.5568068"><ele>939.3333333333334</ele><time>2026-04-26T12:52:04.473Z</time></trkpt><trkpt lat="46.28578" lon="11.5570301"><ele>943.6666666666667</ele><time>2026-04-26T12:52:05.472Z</time></trkpt><trkpt lat="46.2858778" lon="11.5572319"><ele>948.0</ele><time>2026-04-26T12:52:06.452Z</time></trkpt><trkpt lat="46.2956161" lon="11.5804725"><ele>956.3333333333333</ele><time>2026-04-26T12:53:45.782Z</time></trkpt><trkpt lat="46.2955023" lon="11.5804745"><ele>964.6666666666666</ele><time>2026-04-26T12:53:51.457Z</time></trkpt><trkpt lat="46.295576" lon="11.5807032"><ele>973.0</ele><time>2026-04-26T12:53:52.461Z</time></trkpt><trkpt lat="46.2956378" lon="11.5809276"><ele>977.0</ele><time>2026-04-26T12:53:53.451Z</time></trkpt><trkpt lat="46.2956976" lon="11.581141"><ele>981.0</ele><time>2026-04-26T12:53:54.453Z</time></trkpt><trkpt lat="46.2957613" lon="11.5813432"><ele>985.0</ele><time>2026-04-26T12:53:55.448Z</time></trkpt><trkpt lat="46.2958193" lon="11.5815379"><ele>985.0</ele><time>2026-04-26T12:53:56.458Z</time></trkpt><trkpt lat="46.2958718" lon="11.5817161"><ele>985.0</ele><time>2026-04-26T12:53:57.455Z</time></trkpt><trkpt lat="46.2959178" lon="11.5818841"><ele>985.0</ele><time>2026-04-26T12:53:58.456Z</time></trkpt><trkpt lat="46.2959507" lon="11.5820471"><ele>985.0</ele><time>2026-04-26T12:53:59.468Z</time></trkpt><trkpt lat="46.2959653" lon="11.5822053"><ele>983.2</ele><time>2026-04-26T12:54:00.444Z</time></trkpt><trkpt lat="46.2959571" lon="11.5823496"><ele>981.4</ele><time>2026-04-26T12:54:01.454Z</time></trkpt><trkpt lat="46.295921" lon="11.5824813"><ele>979.5999999999999</ele><time>2026-04-26T12:54:02.455Z</time></trkpt><trkpt lat="46.2958683" lon="11.5825989"><ele>977.8</ele><time>2026-04-26T12:54:03.441Z</time></trkpt><trkpt lat="46.2958226" lon="11.5827199"><ele>976.0</ele><time>2026-04-26T12:54:04.448Z</time></trkpt><trkpt lat="46.2957914" lon="11.582846"><ele>974.75</ele><time>2026-04-26T12:54:05.452Z</time></trkpt><trkpt lat="46.2958025" lon="11.5829922"><ele>973.5</ele><time>2026-04-26T12:54:06.449Z</time></trkpt><trkpt lat="46.2958436" lon="11.5831349"><ele>972.25</ele><time>2026-04-26T12:54:07.446Z</time></trkpt><trkpt lat="46.2959112" lon="11.5832773"><ele>971.0</ele><time>2026-04-26T12:54:08.455Z</time></trkpt><trkpt lat="46.2959925" lon="11.5834295"><ele>971.0</ele><time>2026-04-26T12:54:09.485Z</time></trkpt><trkpt lat="46.2960838" lon="11.583589"><ele>971.0</ele><time>2026-04-26T12:54:10.445Z</time></trkpt><trkpt lat="46.2961833" lon="11.5837503"><ele>971.0</ele><time>2026-04-26T12:54:11.448Z</time></trkpt><trkpt lat="46.296287" lon="11.5839134"><ele>971.0</ele><time>2026-04-26T12:54:12.457Z</time></trkpt><trkpt lat="46.2963925" lon="11.584082"><ele>972.0</ele><time>2026-04-26T12:54:13.465Z</time></trkpt><trkpt lat="46.2965021" lon="11.5842522"><ele>973.0</ele><time>2026-04-26T12:54:14.46Z</time></trkpt><trkpt lat="46.2966141" lon="11.5844214"><ele>974.0</ele><time>2026-04-26T12:54:15.446Z</time></trkpt><trkpt lat="46.2967323" lon="11.584583"><ele>974.0</ele><time>2026-04-26T12:54:16.456Z</time></trkpt><trkpt lat="46.2968554" lon="11.5847386"><ele>974.0</ele><time>2026-04-26T12:54:17.454Z</time></trkpt><trkpt lat="46.2969808" lon="11.5848885"><ele>974.0</ele><time>2026-04-26T12:54:18.449Z</time></trkpt><trkpt lat="46.2971084" lon="11.5850347"><ele>974.0</ele><time>2026-04-26T12:54:19.439Z</time></trkpt><trkpt lat="46.2972417" lon="11.5851738"><ele>974.0</ele><time>2026-04-26T12:54:20.445Z</time></trkpt><trkpt lat="46.2973785" lon="11.5853077"><ele>974.0</ele><time>2026-04-26T12:54:21.454Z</time></trkpt><trkpt lat="46.2975168" lon="11.5854404"><ele>973.6666666666667</ele><time>2026-04-26T12:54:22.459Z</time></trkpt><trkpt lat="46.2976565" lon="11.5855706"><ele>973.3333333333333</ele><time>2026-04-26T12:54:23.45Z</time></trkpt><trkpt lat="46.2977932" lon="11.5857002"><ele>973.0</ele><time>2026-04-26T12:54:24.459Z</time></trkpt><trkpt lat="46.2979305" lon="11.5858199"><ele>973.0</ele><time>2026-04-26T12:54:25.449Z</time></trkpt><trkpt lat="46.2980646" lon="11.5859442"><ele>973.0</ele><time>2026-04-26T12:54:26.448Z</time></trkpt><trkpt lat="46.2982011" lon="11.586071"><ele>973.0</ele><time>2026-04-26T12:54:27.466Z</time></trkpt><trkpt lat="46.2983399" lon="11.5862029"><ele>975.6666666666666</ele><time>2026-04-26T12:54:28.447Z</time></trkpt><trkpt lat="46.2984808" lon="11.5863412"><ele>978.3333333333333</ele><time>2026-04-26T12:54:29.47Z</time></trkpt><trkpt lat="46.29862" lon="11.586492"><ele>981.0</ele><time>2026-04-26T12:54:30.468Z</time></trkpt><trkpt lat="46.2987574" lon="11.5866549"><ele>981.0</ele><time>2026-04-26T12:54:31.456Z</time></trkpt><trkpt lat="46.2988906" lon="11.5868321"><ele>981.0</ele><time>2026-04-26T12:54:32.442Z</time></trkpt><trkpt lat="46.2990221" lon="11.5870117"><ele>981.0</ele><time>2026-04-26T12:54:33.443Z</time></trkpt><trkpt lat="46.2991514" lon="11.5871919"><ele>984.6666666666667</ele><time>2026-04-26T12:54:34.448Z</time></trkpt><trkpt lat="46.2992805" lon="11.5873631"><ele>988.3333333333334</ele><time>2026-04-26T12:54:35.453Z</time></trkpt><trkpt lat="46.2994049" lon="11.5875314"><ele>992.0</ele><time>2026-04-26T12:54:36.456Z</time></trkpt><trkpt lat="46.2995262" lon="11.5876936"><ele>991.6666666666667</ele><time>2026-04-26T12:54:37.468Z</time></trkpt><trkpt lat="46.2996425" lon="11.5878516"><ele>991.3333333333333</ele><time>2026-04-26T12:54:38.447Z</time></trkpt><trkpt lat="46.2997589" lon="11.5879968"><ele>991.0</ele><time>2026-04-26T12:54:39.461Z</time></trkpt><trkpt lat="46.2998693" lon="11.588141"><ele>991.0</ele><time>2026-04-26T12:54:40.453Z</time></trkpt><trkpt lat="46.2999697" lon="11.5882918"><ele>991.0</ele><time>2026-04-26T12:54:41.467Z</time></trkpt><trkpt lat="46.3000758" lon="11.5884227"><ele>991.0</ele><time>2026-04-26T12:54:42.453Z</time></trkpt><trkpt lat="46.3001754" lon="11.5885523"><ele>991.0</ele><time>2026-04-26T12:54:43.474Z</time></trkpt><trkpt lat="46.3002705" lon="11.588677"><ele>991.5</ele><time>2026-04-26T12:54:44.45Z</time></trkpt><trkpt lat="46.3003614" lon="11.5887975"><ele>992.0</ele><time>2026-04-26T12:54:45.444Z</time></trkpt><trkpt lat="46.3004491" lon="11.5889171"><ele>992.5</ele><time>2026-04-26T12:54:46.439Z</time></trkpt><trkpt lat="46.3005354" lon="11.5890366"><ele>993.0</ele><time>2026-04-26T12:54:47.447Z</time></trkpt><trkpt lat="46.3006247" lon="11.589157"><ele>993.0</ele><time>2026-04-26T12:54:48.435Z</time></trkpt><trkpt lat="46.3007158" lon="11.5892801"><ele>993.0</ele><time>2026-04-26T12:54:49.442Z</time></trkpt><trkpt lat="46.3008044" lon="11.5894017"><ele>993.0</ele><time>2026-04-26T12:54:50.447Z</time></trkpt><trkpt lat="46.3008907" lon="11.5895136"><ele>993.0</ele><time>2026-04-26T12:54:51.449Z</time></trkpt><trkpt lat="46.3009748" lon="11.5896214"><ele>991.6666666666666</ele><time>2026-04-26T12:54:52.439Z</time></trkpt><trkpt lat="46.3010515" lon="11.5897226"><ele>990.3333333333333</ele><time>2026-04-26T12:54:53.446Z</time></trkpt><trkpt lat="46.3011206" lon="11.5898099"><ele>989.0</ele><time>2026-04-26T12:54:54.439Z</time></trkpt><trkpt lat="46.3011835" lon="11.5898868"><ele>987.6666666666666</ele><time>2026-04-26T12:54:55.445Z</time></trkpt><trkpt lat="46.3012421" lon="11.5899567"><ele>986.3333333333333</ele><time>2026-04-26T12:54:56.441Z</time></trkpt><trkpt lat="46.3012989" lon="11.5900245"><ele>985.0</ele><time>2026-04-26T12:54:57.453Z</time></trkpt><trkpt lat="46.3013568" lon="11.5900961"><ele>985.0</ele><time>2026-04-26T12:54:58.444Z</time></trkpt><trkpt lat="46.3014147" lon="11.5901793"><ele>985.0</ele><time>2026-04-26T12:54:59.456Z</time></trkpt><trkpt lat="46.3014808" lon="11.5902631"><ele>985.0</ele><time>2026-04-26T12:55:00.448Z</time></trkpt><trkpt lat="46.3015516" lon="11.5903583"><ele>985.0</ele><time>2026-04-26T12:55:01.45Z</time></trkpt><trkpt lat="46.3016271" lon="11.5904661"><ele>985.0</ele><time>2026-04-26T12:55:02.455Z</time></trkpt><trkpt lat="46.3017099" lon="11.5905819"><ele>984.75</ele><time>2026-04-26T12:55:03.447Z</time></trkpt><trkpt lat="46.3018001" lon="11.5907038"><ele>984.5</ele><time>2026-04-26T12:55:04.455Z</time></trkpt><trkpt lat="46.3018962" lon="11.5908297"><ele>984.25</ele><time>2026-04-26T12:55:05.444Z</time></trkpt><trkpt lat="46.3019963" lon="11.5909606"><ele>984.0</ele><time>2026-04-26T12:55:06.451Z</time></trkpt><trkpt lat="46.3020989" lon="11.5910991"><ele>984.5</ele><time>2026-04-26T12:55:07.457Z</time></trkpt><trkpt lat="46.3022027" lon="11.5912435"><ele>985.0</ele><time>2026-04-26T12:55:08.455Z</time></trkpt><trkpt lat="46.3023091" lon="11.5913932"><ele>985.5</ele><time>2026-04-26T12:55:09.448Z</time></trkpt><trkpt lat="46.3024196" lon="11.5915513"><ele>986.0</ele><time>2026-04-26T12:55:10.478Z</time></trkpt><trkpt lat="46.3025303" lon="11.5917168"><ele>986.75</ele><time>2026-04-26T12:55:11.455Z</time></trkpt><trkpt lat="46.3026387" lon="11.5918837"><ele>987.5</ele><time>2026-04-26T12:55:12.452Z</time></trkpt><trkpt lat="46.3027394" lon="11.5920269"><ele>988.25</ele><time>2026-04-26T12:55:13.458Z</time></trkpt><trkpt lat="46.3028075" lon="11.5921568"><ele>989.0</ele><time>2026-04-26T12:55:14.445Z</time></trkpt><trkpt lat="46.3028591" lon="11.5922524"><ele>989.2</ele><time>2026-04-26T12:55:15.447Z</time></trkpt><trkpt lat="46.3029154" lon="11.5923482"><ele>989.4000000000001</ele><time>2026-04-26T12:55:17.474Z</time></trkpt><trkpt lat="46.3029839" lon="11.592472"><ele>989.6</ele><time>2026-04-26T12:55:23.435Z</time></trkpt><trkpt lat="46.303052" lon="11.59259"><ele>989.8</ele><time>2026-04-26T12:55:27.453Z</time></trkpt><trkpt lat="46.3031433" lon="11.5927551"><ele>990.0</ele><time>2026-04-26T12:55:29.465Z</time></trkpt><trkpt lat="46.3032119" lon="11.5928765"><ele>990.5</ele><time>2026-04-26T12:55:30.466Z</time></trkpt><trkpt lat="46.3032899" lon="11.5930168"><ele>991.0</ele><time>2026-04-26T12:55:31.456Z</time></trkpt><trkpt lat="46.3033738" lon="11.5931666"><ele>991.5</ele><time>2026-04-26T12:55:32.449Z</time></trkpt><trkpt lat="46.3034629" lon="11.593324"><ele>992.0</ele><time>2026-04-26T12:55:33.461Z</time></trkpt><trkpt lat="46.3035562" lon="11.5934894"><ele>992.0</ele><time>2026-04-26T12:55:34.454Z</time></trkpt><trkpt lat="46.303651" lon="11.5936622"><ele>992.0</ele><time>2026-04-26T12:55:35.469Z</time></trkpt><trkpt lat="46.3037493" lon="11.5938369"><ele>992.0</ele><time>2026-04-26T12:55:36.456Z</time></trkpt><trkpt lat="46.3038519" lon="11.5940122"><ele>992.3333333333334</ele><time>2026-04-26T12:55:37.447Z</time></trkpt><trkpt lat="46.3039557" lon="11.5941884"><ele>992.6666666666667</ele><time>2026-04-26T12:55:38.447Z</time></trkpt><trkpt lat="46.3040585" lon="11.5943683"><ele>993.0</ele><time>2026-04-26T12:55:39.455Z</time></trkpt><trkpt lat="46.3041585" lon="11.5945484"><ele>993.25</ele><time>2026-04-26T12:55:40.447Z</time></trkpt><trkpt lat="46.3042534" lon="11.5947227"><ele>993.5</ele><time>2026-04-26T12:55:41.456Z</time></trkpt><trkpt lat="46.3043448" lon="11.5948837"><ele>993.75</ele><time>2026-04-26T12:55:42.448Z</time></trkpt><trkpt lat="46.3044291" lon="11.5950264"><ele>994.0</ele><time>2026-04-26T12:55:43.458Z</time></trkpt><trkpt lat="46.3045026" lon="11.5951561"><ele>993.9999999999999</ele><time>2026-04-26T12:55:44.459Z</time></trkpt><trkpt lat="46.3045628" lon="11.5952738"><ele>994.0</ele><time>2026-04-26T12:55:45.461Z</time></trkpt><trkpt lat="46.304602" lon="11.5953758"><ele>994.0</ele><time>2026-04-26T12:55:46.443Z</time></trkpt><trkpt lat="46.3046096" lon="11.5954779"><ele>994.0</ele><time>2026-04-26T12:55:47.451Z</time></trkpt><trkpt lat="46.3046092" lon="11.5955796"><ele>993.9999999999999</ele><time>2026-04-26T12:55:48.461Z</time></trkpt><trkpt lat="46.3046045" lon="11.595682"><ele>994.0</ele><time>2026-04-26T12:55:49.441Z</time></trkpt><trkpt lat="46.3046286" lon="11.5957769"><ele>994.0</ele><time>2026-04-26T12:55:50.454Z</time></trkpt><trkpt lat="46.3047007" lon="11.5958427"><ele>994.0000000000001</ele><time>2026-04-26T12:55:51.446Z</time></trkpt><trkpt lat="46.304789" lon="11.5958967"><ele>994.0000000000001</ele><time>2026-04-26T12:55:52.446Z</time></trkpt><trkpt lat="46.3048917" lon="11.5959554"><ele>994.0</ele><time>2026-04-26T12:55:53.451Z</time></trkpt><trkpt lat="46.3049941" lon="11.5960628"><ele>994.0</ele><time>2026-04-26T12:55:54.436Z</time></trkpt><trkpt lat="46.3050911" lon="11.5962062"><ele>995.3333333333333</ele><time>2026-04-26T12:55:55.451Z</time></trkpt><trkpt lat="46.3051962" lon="11.5963565"><ele>996.6666666666667</ele><time>2026-04-26T12:55:56.445Z</time></trkpt><trkpt lat="46.3052954" lon="11.5965262"><ele>998.0</ele><time>2026-04-26T12:55:57.453Z</time></trkpt><trkpt lat="46.3053981" lon="11.5966954"><ele>998.0</ele><time>2026-04-26T12:55:58.459Z</time></trkpt><trkpt lat="46.3054983" lon="11.5968711"><ele>998.0</ele><time>2026-04-26T12:55:59.446Z</time></trkpt><trkpt lat="46.3056024" lon="11.5970408"><ele>998.0</ele><time>2026-04-26T12:56:00.447Z</time></trkpt><trkpt lat="46.3056984" lon="11.5972131"><ele>998.0</ele><time>2026-04-26T12:56:01.435Z</time></trkpt><trkpt lat="46.3057921" lon="11.5973863"><ele>998.0</ele><time>2026-04-26T12:56:02.441Z</time></trkpt><trkpt lat="46.3058885" lon="11.5975588"><ele>998.0</ele><time>2026-04-26T12:56:03.443Z</time></trkpt><trkpt lat="46.3059837" lon="11.5977352"><ele>999.3333333333334</ele><time>2026-04-26T12:56:04.447Z</time></trkpt><trkpt lat="46.3060819" lon="11.5979139"><ele>1000.6666666666667</ele><time>2026-04-26T12:56:05.455Z</time></trkpt><trkpt lat="46.3061822" lon="11.5980937"><ele>1002.0</ele><time>2026-04-26T12:56:06.449Z</time></trkpt><trkpt lat="46.306283" lon="11.5982696"><ele>1002.0</ele><time>2026-04-26T12:56:07.45Z</time></trkpt><trkpt lat="46.3063814" lon="11.5984386"><ele>1002.0</ele><time>2026-04-26T12:56:08.44Z</time></trkpt><trkpt lat="46.3064737" lon="11.598604"><ele>1002.0</ele><time>2026-04-26T12:56:09.449Z</time></trkpt><trkpt lat="46.3065622" lon="11.5987598"><ele>1002.0</ele><time>2026-04-26T12:56:10.453Z</time></trkpt><trkpt lat="46.3066473" lon="11.5989124"><ele>1003.0</ele><time>2026-04-26T12:56:11.441Z</time></trkpt><trkpt lat="46.3067316" lon="11.5990657"><ele>1004.0</ele><time>2026-04-26T12:56:12.45Z</time></trkpt><trkpt lat="46.3068163" lon="11.5992191"><ele>1005.0</ele><time>2026-04-26T12:56:13.445Z</time></trkpt><trkpt lat="46.3069008" lon="11.5993756"><ele>1006.0</ele><time>2026-04-26T12:56:14.453Z</time></trkpt><trkpt lat="46.3069861" lon="11.5995336"><ele>1006.25</ele><time>2026-04-26T12:56:15.456Z</time></trkpt><trkpt lat="46.307074" lon="11.5996925"><ele>1006.5</ele><time>2026-04-26T12:56:16.444Z</time></trkpt><trkpt lat="46.3071603" lon="11.599852"><ele>1006.75</ele><time>2026-04-26T12:56:17.458Z</time></trkpt><trkpt lat="46.3072549" lon="11.5999982"><ele>1007.0</ele><time>2026-04-26T12:56:18.455Z</time></trkpt><trkpt lat="46.3073119" lon="11.6001785"><ele>1007.0</ele><time>2026-04-26T12:56:19.452Z</time></trkpt><trkpt lat="46.3074047" lon="11.6003064"><ele>1007.0</ele><time>2026-04-26T12:56:20.446Z</time></trkpt><trkpt lat="46.3074883" lon="11.6004356"><ele>1007.0</ele><time>2026-04-26T12:56:21.453Z</time></trkpt><trkpt lat="46.3075564" lon="11.6005737"><ele>1007.0</ele><time>2026-04-26T12:56:22.441Z</time></trkpt><trkpt lat="46.3076208" lon="11.6007075"><ele>1007.2</ele><time>2026-04-26T12:56:23.451Z</time></trkpt><trkpt lat="46.3076854" lon="11.6008316"><ele>1007.4000000000001</ele><time>2026-04-26T12:56:24.44Z</time></trkpt><trkpt lat="46.307756" lon="11.6009387"><ele>1007.5999999999999</ele><time>2026-04-26T12:56:25.451Z</time></trkpt><trkpt lat="46.307831" lon="11.6010276"><ele>1007.8</ele><time>2026-04-26T12:56:26.47Z</time></trkpt><trkpt lat="46.3079116" lon="11.6010945"><ele>1008.0</ele><time>2026-04-26T12:56:27.448Z</time></trkpt><trkpt lat="46.3079954" lon="11.6011389"><ele>1008.1666666666666</ele><time>2026-04-26T12:56:28.445Z</time></trkpt><trkpt lat="46.3080882" lon="11.6011564"><ele>1008.3333333333333</ele><time>2026-04-26T12:56:29.456Z</time></trkpt><trkpt lat="46.3081699" lon="11.6011981"><ele>1008.5</ele><time>2026-04-26T12:56:30.449Z</time></trkpt><trkpt lat="46.3082471" lon="11.6012343"><ele>1008.6666666666666</ele><time>2026-04-26T12:56:31.45Z</time></trkpt><trkpt lat="46.308318" lon="11.6012736"><ele>1008.8333333333333</ele><time>2026-04-26T12:56:32.462Z</time></trkpt><trkpt lat="46.30839" lon="11.6013114"><ele>1009.0</ele><time>2026-04-26T12:56:33.455Z</time></trkpt><trkpt lat="46.3084658" lon="11.6013494"><ele>1008.9999999999999</ele><time>2026-04-26T12:56:34.468Z</time></trkpt><trkpt lat="46.3085521" lon="11.6013828"><ele>1009.0</ele><time>2026-04-26T12:56:35.453Z</time></trkpt><trkpt lat="46.3086375" lon="11.6014217"><ele>1009.0</ele><time>2026-04-26T12:56:36.456Z</time></trkpt><trkpt lat="46.3087224" lon="11.6014611"><ele>1009.0</ele><time>2026-04-26T12:56:37.465Z</time></trkpt><trkpt lat="46.3087991" lon="11.6014968"><ele>1008.9999999999999</ele><time>2026-04-26T12:56:38.446Z</time></trkpt><trkpt lat="46.3088752" lon="11.6015094"><ele>1009.0</ele><time>2026-04-26T12:56:39.459Z</time></trkpt><trkpt lat="46.3089476" lon="11.6015576"><ele>1009.4999999999999</ele><time>2026-04-26T12:56:40.447Z</time></trkpt><trkpt lat="46.3090121" lon="11.6016071"><ele>1010.0</ele><time>2026-04-26T12:56:41.452Z</time></trkpt><trkpt lat="46.3090662" lon="11.6016682"><ele>1010.5</ele><time>2026-04-26T12:56:42.447Z</time></trkpt><trkpt lat="46.3091429" lon="11.6017093"><ele>1011.0</ele><time>2026-04-26T12:56:44.471Z</time></trkpt><trkpt lat="46.3092066" lon="11.6016943"><ele>1011.4999999999999</ele><time>2026-04-26T12:56:46.445Z</time></trkpt><trkpt lat="46.3092406" lon="11.6017735"><ele>1012.0</ele><time>2026-04-26T12:56:48.44Z</time></trkpt><trkpt lat="46.3092645" lon="11.6019762"><ele>1012.4999999999999</ele><time>2026-04-26T12:56:50.437Z</time></trkpt><trkpt lat="46.3092464" lon="11.6021024"><ele>1013.0</ele><time>2026-04-26T12:56:51.454Z</time></trkpt><trkpt lat="46.3092375" lon="11.6022281"><ele>1013.5</ele><time>2026-04-26T12:56:52.442Z</time></trkpt><trkpt lat="46.3092342" lon="11.6023534"><ele>1014.0</ele><time>2026-04-26T12:56:53.447Z</time></trkpt><trkpt lat="46.3092366" lon="11.6024778"><ele>1014.4999999999999</ele><time>2026-04-26T12:56:54.444Z</time></trkpt><trkpt lat="46.3092447" lon="11.6026013"><ele>1015.0</ele><time>2026-04-26T12:56:55.444Z</time></trkpt><trkpt lat="46.3092556" lon="11.6027239"><ele>1014.8</ele><time>2026-04-26T12:56:56.446Z</time></trkpt><trkpt lat="46.3092726" lon="11.6028441"><ele>1014.6</ele><time>2026-04-26T12:56:57.453Z</time></trkpt><trkpt lat="46.309279" lon="11.6029668"><ele>1014.4000000000001</ele><time>2026-04-26T12:56:58.444Z</time></trkpt><trkpt lat="46.3092921" lon="11.6030946"><ele>1014.2</ele><time>2026-04-26T12:56:59.44Z</time></trkpt><trkpt lat="46.3092953" lon="11.6032301"><ele>1014.0</ele><time>2026-04-26T12:57:00.472Z</time></trkpt><trkpt lat="46.3093074" lon="11.6033695"><ele>1014.0</ele><time>2026-04-26T12:57:01.459Z</time></trkpt><trkpt lat="46.309313" lon="11.6035106"><ele>1014.0000000000001</ele><time>2026-04-26T12:57:02.441Z</time></trkpt><trkpt lat="46.3093303" lon="11.6036525"><ele>1014.0000000000001</ele><time>2026-04-26T12:57:03.458Z</time></trkpt><trkpt lat="46.3093586" lon="11.6037992"><ele>1014.0</ele><time>2026-04-26T12:57:04.45Z</time></trkpt><trkpt lat="46.3093835" lon="11.6039566"><ele>1014.0</ele><time>2026-04-26T12:57:05.461Z</time></trkpt><trkpt lat="46.3094099" lon="11.6041238"><ele>1014.5</ele><time>2026-04-26T12:57:06.452Z</time></trkpt><trkpt lat="46.3094398" lon="11.6042986"><ele>1015.0</ele><time>2026-04-26T12:57:07.439Z</time></trkpt><trkpt lat="46.3094694" lon="11.6044778"><ele>1015.5</ele><time>2026-04-26T12:57:08.451Z</time></trkpt><trkpt lat="46.3095155" lon="11.6046555"><ele>1016.0</ele><time>2026-04-26T12:57:09.452Z</time></trkpt><trkpt lat="46.3095503" lon="11.6048396"><ele>1016.75</ele><time>2026-04-26T12:57:10.439Z</time></trkpt><trkpt lat="46.3095767" lon="11.6050281"><ele>1017.5</ele><time>2026-04-26T12:57:11.444Z</time></trkpt><trkpt lat="46.3096034" lon="11.6052165"><ele>1018.25</ele><time>2026-04-26T12:57:12.458Z</time></trkpt><trkpt lat="46.309627" lon="11.6054243"><ele>1019.0</ele><time>2026-04-26T12:57:13.444Z</time></trkpt><trkpt lat="46.3096568" lon="11.6056533"><ele>1019.0</ele><time>2026-04-26T12:57:14.462Z</time></trkpt><trkpt lat="46.3096822" lon="11.6058974"><ele>1019.0</ele><time>2026-04-26T12:57:15.443Z</time></trkpt><trkpt lat="46.3097058" lon="11.6061461"><ele>1019.0</ele><time>2026-04-26T12:57:16.445Z</time></trkpt><trkpt lat="46.3097336" lon="11.60639"><ele>1020.3333333333334</ele><time>2026-04-26T12:57:17.46Z</time></trkpt><trkpt lat="46.3097705" lon="11.6066227"><ele>1021.6666666666667</ele><time>2026-04-26T12:57:18.449Z</time></trkpt><trkpt lat="46.3098245" lon="11.6068459"><ele>1023.0</ele><time>2026-04-26T12:57:19.469Z</time></trkpt><trkpt lat="46.3098807" lon="11.6070676"><ele>1024.0</ele><time>2026-04-26T12:57:20.457Z</time></trkpt><trkpt lat="46.3099408" lon="11.6072855"><ele>1025.0</ele><time>2026-04-26T12:57:21.443Z</time></trkpt><trkpt lat="46.3100018" lon="11.6074987"><ele>1026.0</ele><time>2026-04-26T12:57:22.445Z</time></trkpt><trkpt lat="46.310057" lon="11.6077129"><ele>1025.0</ele><time>2026-04-26T12:57:23.469Z</time></trkpt><trkpt lat="46.3101337" lon="11.6079169"><ele>1024.0</ele><time>2026-04-26T12:57:24.455Z</time></trkpt><trkpt lat="46.3102056" lon="11.6081275"><ele>1023.0</ele><time>2026-04-26T12:57:25.449Z</time></trkpt><trkpt lat="46.3102727" lon="11.6083444"><ele>1023.0</ele><time>2026-04-26T12:57:26.441Z</time></trkpt><trkpt lat="46.3103356" lon="11.608565"><ele>1023.0</ele><time>2026-04-26T12:57:27.473Z</time></trkpt><trkpt lat="46.3103886" lon="11.6087918"><ele>1023.0</ele><time>2026-04-26T12:57:28.458Z</time></trkpt><trkpt lat="46.3104511" lon="11.6090096"><ele>1022.6666666666667</ele><time>2026-04-26T12:57:29.454Z</time></trkpt><trkpt lat="46.3105122" lon="11.6092258"><ele>1022.3333333333334</ele><time>2026-04-26T12:57:30.451Z</time></trkpt><trkpt lat="46.310592" lon="11.6094351"><ele>1022.0</ele><time>2026-04-26T12:57:31.455Z</time></trkpt><trkpt lat="46.3106542" lon="11.6096496"><ele>1023.6666666666667</ele><time>2026-04-26T12:57:32.441Z</time></trkpt><trkpt lat="46.3107119" lon="11.6098576"><ele>1025.3333333333333</ele><time>2026-04-26T12:57:33.468Z</time></trkpt><trkpt lat="46.310772" lon="11.6100591"><ele>1027.0</ele><time>2026-04-26T12:57:34.47Z</time></trkpt><trkpt lat="46.3108315" lon="11.6102585"><ele>1028.25</ele><time>2026-04-26T12:57:35.454Z</time></trkpt><trkpt lat="46.3108694" lon="11.6104669"><ele>1029.5</ele><time>2026-04-26T12:57:36.443Z</time></trkpt><trkpt lat="46.3109211" lon="11.6106658"><ele>1030.75</ele><time>2026-04-26T12:57:37.471Z</time></trkpt><trkpt lat="46.3109945" lon="11.6108435"><ele>1032.0</ele><time>2026-04-26T12:57:38.459Z</time></trkpt><trkpt lat="46.3110844" lon="11.6109923"><ele>1032.0</ele><time>2026-04-26T12:57:39.451Z</time></trkpt><trkpt lat="46.3111591" lon="11.6111453"><ele>1032.0</ele><time>2026-04-26T12:57:40.46Z</time></trkpt><trkpt lat="46.3112239" lon="11.6112975"><ele>1032.0</ele><time>2026-04-26T12:57:41.46Z</time></trkpt><trkpt lat="46.3112594" lon="11.6114673"><ele>1032.0</ele><time>2026-04-26T12:57:42.448Z</time></trkpt><trkpt lat="46.3112751" lon="11.6116563"><ele>1032.75</ele><time>2026-04-26T12:57:43.468Z</time></trkpt><trkpt lat="46.311271" lon="11.6118621"><ele>1033.5</ele><time>2026-04-26T12:57:44.45Z</time></trkpt><trkpt lat="46.3112688" lon="11.61208"><ele>1034.25</ele><time>2026-04-26T12:57:45.459Z</time></trkpt><trkpt lat="46.3112839" lon="11.6123048"><ele>1035.0</ele><time>2026-04-26T12:57:46.467Z</time></trkpt><trkpt lat="46.3113016" lon="11.6125366"><ele>1035.0</ele><time>2026-04-26T12:57:47.474Z</time></trkpt><trkpt lat="46.3113286" lon="11.612772"><ele>1035.0</ele><time>2026-04-26T12:57:48.444Z</time></trkpt><trkpt lat="46.3113615" lon="11.6130093"><ele>1035.0</ele><time>2026-04-26T12:57:49.451Z</time></trkpt><trkpt lat="46.3113964" lon="11.6132469"><ele>1044.3333333333333</ele><time>2026-04-26T12:57:50.439Z</time></trkpt><trkpt lat="46.3114187" lon="11.6134883"><ele>1053.6666666666665</ele><time>2026-04-26T12:57:51.459Z</time></trkpt><trkpt lat="46.3114352" lon="11.6137338"><ele>1063.0</ele><time>2026-04-26T12:57:52.459Z</time></trkpt><trkpt lat="46.3114635" lon="11.6139834"><ele>1063.0</ele><time>2026-04-26T12:57:53.467Z</time></trkpt><trkpt lat="46.3114843" lon="11.6142386"><ele>1063.0</ele><time>2026-04-26T12:57:54.471Z</time></trkpt><trkpt lat="46.31148" lon="11.6144949"><ele>1063.0</ele><time>2026-04-26T12:57:55.468Z</time></trkpt><trkpt lat="46.311506" lon="11.614748"><ele>1064.3333333333333</ele><time>2026-04-26T12:57:56.463Z</time></trkpt><trkpt lat="46.3115286" lon="11.6150007"><ele>1065.6666666666667</ele><time>2026-04-26T12:57:57.478Z</time></trkpt><trkpt lat="46.311518" lon="11.6152541"><ele>1067.0</ele><time>2026-04-26T12:57:58.467Z</time></trkpt><trkpt lat="46.3115121" lon="11.6155069"><ele>1067.0</ele><time>2026-04-26T12:57:59.458Z</time></trkpt><trkpt lat="46.311496" lon="11.6157578"><ele>1067.0</ele><time>2026-04-26T12:58:00.464Z</time></trkpt><trkpt lat="46.3114903" lon="11.6160066"><ele>1067.0</ele><time>2026-04-26T12:58:01.474Z</time></trkpt><trkpt lat="46.3114975" lon="11.6162561"><ele>1066.3333333333335</ele><time>2026-04-26T12:58:02.451Z</time></trkpt><trkpt lat="46.3114905" lon="11.616506"><ele>1065.6666666666667</ele><time>2026-04-26T12:58:03.458Z</time></trkpt><trkpt lat="46.31147" lon="11.6167548"><ele>1065.0</ele><time>2026-04-26T12:58:04.451Z</time></trkpt><trkpt lat="46.3114407" lon="11.6170035"><ele>1066.3333333333333</ele><time>2026-04-26T12:58:05.46Z</time></trkpt><trkpt lat="46.3114082" lon="11.617252"><ele>1067.6666666666665</ele><time>2026-04-26T12:58:06.461Z</time></trkpt><trkpt lat="46.3113789" lon="11.6175027"><ele>1069.0</ele><time>2026-04-26T12:58:07.477Z</time></trkpt><trkpt lat="46.3113455" lon="11.617753"><ele>1061.6666666666665</ele><time>2026-04-26T12:58:08.448Z</time></trkpt><trkpt lat="46.3113082" lon="11.6180056"><ele>1054.3333333333333</ele><time>2026-04-26T12:58:09.471Z</time></trkpt><trkpt lat="46.3112732" lon="11.6182605"><ele>1047.0</ele><time>2026-04-26T12:58:10.445Z</time></trkpt><trkpt lat="46.3112388" lon="11.6185167"><ele>1048.6666666666667</ele><time>2026-04-26T12:58:11.464Z</time></trkpt><trkpt lat="46.311203" lon="11.6187727"><ele>1050.3333333333335</ele><time>2026-04-26T12:58:12.461Z</time></trkpt><trkpt lat="46.3111683" lon="11.6190218"><ele>1052.0</ele><time>2026-04-26T12:58:13.45Z</time></trkpt><trkpt lat="46.3111334" lon="11.6192579"><ele>1052.0</ele><time>2026-04-26T12:58:14.453Z</time></trkpt><trkpt lat="46.311105" lon="11.6194813"><ele>1052.0</ele><time>2026-04-26T12:58:15.455Z</time></trkpt><trkpt lat="46.3110863" lon="11.6196908"><ele>1052.0</ele><time>2026-04-26T12:58:16.453Z</time></trkpt><trkpt lat="46.3110734" lon="11.6198968"><ele>1052.0</ele><time>2026-04-26T12:58:17.457Z</time></trkpt><trkpt lat="46.3110965" lon="11.620118"><ele>1052.0</ele><time>2026-04-26T12:58:18.448Z</time></trkpt><trkpt lat="46.3111664" lon="11.6203471"><ele>1052.0</ele><time>2026-04-26T12:58:19.455Z</time></trkpt><trkpt lat="46.3112512" lon="11.6205845"><ele>1052.0</ele><time>2026-04-26T12:58:20.446Z</time></trkpt><trkpt lat="46.3113162" lon="11.6208523"><ele>1052.0</ele><time>2026-04-26T12:58:21.454Z</time></trkpt><trkpt lat="46.31139" lon="11.6211348"><ele>1052.0</ele><time>2026-04-26T12:58:22.444Z</time></trkpt><trkpt lat="46.3114524" lon="11.6214219"><ele>1052.0</ele><time>2026-04-26T12:58:23.457Z</time></trkpt><trkpt lat="46.3114932" lon="11.6217079"><ele>1064.3333333333335</ele><time>2026-04-26T12:58:24.445Z</time></trkpt><trkpt lat="46.3115301" lon="11.6219871"><ele>1076.6666666666667</ele><time>2026-04-26T12:58:25.474Z</time></trkpt><trkpt lat="46.3115562" lon="11.6222587"><ele>1089.0</ele><time>2026-04-26T12:58:26.459Z</time></trkpt><trkpt lat="46.3115701" lon="11.622528"><ele>1089.0</ele><time>2026-04-26T12:58:27.462Z</time></trkpt><trkpt lat="46.3115605" lon="11.6228033"><ele>1089.0</ele><time>2026-04-26T12:58:28.459Z</time></trkpt><trkpt lat="46.3115452" lon="11.6230852"><ele>1089.0</ele><time>2026-04-26T12:58:29.457Z</time></trkpt><trkpt lat="46.3115275" lon="11.6233768"><ele>1093.0</ele><time>2026-04-26T12:58:30.449Z</time></trkpt><trkpt lat="46.3115127" lon="11.6236765"><ele>1097.0</ele><time>2026-04-26T12:58:31.456Z</time></trkpt><trkpt lat="46.3115105" lon="11.623988"><ele>1101.0</ele><time>2026-04-26T12:58:32.457Z</time></trkpt><trkpt lat="46.3115161" lon="11.6243109"><ele>1103.0</ele><time>2026-04-26T12:58:33.462Z</time></trkpt><trkpt lat="46.3115301" lon="11.6246436"><ele>1105.0</ele><time>2026-04-26T12:58:34.472Z</time></trkpt><trkpt lat="46.3115427" lon="11.6249843"><ele>1107.5</ele><time>2026-04-26T12:58:35.473Z</time></trkpt><trkpt lat="46.311551" lon="11.6253297"><ele>1110.0</ele><time>2026-04-26T12:58:36.45Z</time></trkpt><trkpt lat="46.3115606" lon="11.6256716"><ele>1110.0</ele><time>2026-04-26T12:58:37.469Z</time></trkpt><trkpt lat="46.3115724" lon="11.6260045"><ele>1110.0</ele><time>2026-04-26T12:58:38.451Z</time></trkpt><trkpt lat="46.311588" lon="11.626331"><ele>1109.3333333333333</ele><time>2026-04-26T12:58:39.448Z</time></trkpt><trkpt lat="46.3115987" lon="11.6266543"><ele>1108.6666666666665</ele><time>2026-04-26T12:58:40.457Z</time></trkpt><trkpt lat="46.3115936" lon="11.6269748"><ele>1108.0</ele><time>2026-04-26T12:58:41.451Z</time></trkpt><trkpt lat="46.3115765" lon="11.6272856"><ele>1108.0</ele><time>2026-04-26T12:58:42.47Z</time></trkpt><trkpt lat="46.3115651" lon="11.6275879"><ele>1108.0</ele><time>2026-04-26T12:58:43.475Z</time></trkpt><trkpt lat="46.3115692" lon="11.6278848"><ele>1108.0</ele><time>2026-04-26T12:58:44.459Z</time></trkpt><trkpt lat="46.3115864" lon="11.6281788"><ele>1108.0</ele><time>2026-04-26T12:58:45.462Z</time></trkpt><trkpt lat="46.311613" lon="11.628471"><ele>1108.0</ele><time>2026-04-26T12:58:46.464Z</time></trkpt><trkpt lat="46.3116441" lon="11.6287526"><ele>1108.0</ele><time>2026-04-26T12:58:47.459Z</time></trkpt><trkpt lat="46.3116646" lon="11.6290268"><ele>1108.0</ele><time>2026-04-26T12:58:48.453Z</time></trkpt><trkpt lat="46.3116865" lon="11.6292834"><ele>1108.0</ele><time>2026-04-26T12:58:49.459Z</time></trkpt><trkpt lat="46.3117073" lon="11.6295191"><ele>1108.0</ele><time>2026-04-26T12:58:50.451Z</time></trkpt><trkpt lat="46.3117342" lon="11.6297302"><ele>1106.25</ele><time>2026-04-26T12:58:51.449Z</time></trkpt><trkpt lat="46.3117834" lon="11.6299167"><ele>1104.5</ele><time>2026-04-26T12:58:52.467Z</time></trkpt><trkpt lat="46.3118483" lon="11.6300938"><ele>1102.75</ele><time>2026-04-26T12:58:53.444Z</time></trkpt><trkpt lat="46.3119362" lon="11.6302489"><ele>1101.0</ele><time>2026-04-26T12:58:54.468Z</time></trkpt><trkpt lat="46.3120453" lon="11.6303788"><ele>1099.25</ele><time>2026-04-26T12:58:55.459Z</time></trkpt><trkpt lat="46.3121634" lon="11.6304985"><ele>1097.5</ele><time>2026-04-26T12:58:56.477Z</time></trkpt><trkpt lat="46.3122737" lon="11.6306427"><ele>1095.75</ele><time>2026-04-26T12:58:57.466Z</time></trkpt><trkpt lat="46.3123782" lon="11.6307948"><ele>1094.0</ele><time>2026-04-26T12:58:58.448Z</time></trkpt><trkpt lat="46.3124446" lon="11.6310067"><ele>1102.6666666666667</ele><time>2026-04-26T12:58:59.465Z</time></trkpt><trkpt lat="46.3124766" lon="11.631257"><ele>1111.3333333333333</ele><time>2026-04-26T12:59:00.455Z</time></trkpt><trkpt lat="46.3124923" lon="11.6315301"><ele>1120.0</ele><time>2026-04-26T12:59:01.456Z</time></trkpt><trkpt lat="46.3125072" lon="11.6318184"><ele>1123.0</ele><time>2026-04-26T12:59:02.458Z</time></trkpt><trkpt lat="46.3125268" lon="11.6321177"><ele>1126.0</ele><time>2026-04-26T12:59:03.453Z</time></trkpt><trkpt lat="46.3125528" lon="11.6324051"><ele>1129.0</ele><time>2026-04-26T12:59:04.473Z</time></trkpt><trkpt lat="46.3125788" lon="11.6326785"><ele>1130.6666666666665</ele><time>2026-04-26T12:59:05.456Z</time></trkpt><trkpt lat="46.3125934" lon="11.6329497"><ele>1132.3333333333333</ele><time>2026-04-26T12:59:06.453Z</time></trkpt><trkpt lat="46.3125852" lon="11.6332317"><ele>1134.0</ele><time>2026-04-26T12:59:07.461Z</time></trkpt><trkpt lat="46.3125648" lon="11.6335197"><ele>1137.3333333333333</ele><time>2026-04-26T12:59:08.452Z</time></trkpt><trkpt lat="46.3125413" lon="11.6338081"><ele>1140.6666666666665</ele><time>2026-04-26T12:59:09.475Z</time></trkpt><trkpt lat="46.3125316" lon="11.6340965"><ele>1144.0</ele><time>2026-04-26T12:59:10.458Z</time></trkpt><trkpt lat="46.3125346" lon="11.6343834"><ele>1147.0</ele><time>2026-04-26T12:59:11.441Z</time></trkpt><trkpt lat="46.3125456" lon="11.6346662"><ele>1150.0</ele><time>2026-04-26T12:59:12.451Z</time></trkpt><trkpt lat="46.3125529" lon="11.6349403"><ele>1153.0</ele><time>2026-04-26T12:59:13.467Z</time></trkpt><trkpt lat="46.3125457" lon="11.6352033"><ele>1153.0</ele><time>2026-04-26T12:59:14.456Z</time></trkpt><trkpt lat="46.3124979" lon="11.6354564"><ele>1153.0</ele><time>2026-04-26T12:59:15.459Z</time></trkpt><trkpt lat="46.3124587" lon="11.635689"><ele>1153.0</ele><time>2026-04-26T12:59:16.451Z</time></trkpt><trkpt lat="46.3124523" lon="11.6359251"><ele>1153.0</ele><time>2026-04-26T12:59:17.456Z</time></trkpt><trkpt lat="46.3124803" lon="11.6361719"><ele>1153.0</ele><time>2026-04-26T12:59:18.458Z</time></trkpt><trkpt lat="46.3124947" lon="11.6364108"><ele>1153.0</ele><time>2026-04-26T12:59:19.468Z</time></trkpt><trkpt lat="46.3124815" lon="11.6366442"><ele>1153.0</ele><time>2026-04-26T12:59:20.459Z</time></trkpt><trkpt lat="46.3124375" lon="11.6368635"><ele>1153.0</ele><time>2026-04-26T12:59:21.459Z</time></trkpt><trkpt lat="46.3123927" lon="11.6370662"><ele>1153.0</ele><time>2026-04-26T12:59:22.461Z</time></trkpt><trkpt lat="46.3123647" lon="11.637261"><ele>1153.0</ele><time>2026-04-26T12:59:23.464Z</time></trkpt><trkpt lat="46.3123411" lon="11.6374528"><ele>1154.25</ele><time>2026-04-26T12:59:24.452Z</time></trkpt><trkpt lat="46.3123553" lon="11.6376382"><ele>1155.5</ele><time>2026-04-26T12:59:25.464Z</time></trkpt><trkpt lat="46.3124048" lon="11.6378156"><ele>1156.75</ele><time>2026-04-26T12:59:26.446Z</time></trkpt><trkpt lat="46.3124928" lon="11.6379766"><ele>1158.0</ele><time>2026-04-26T12:59:27.453Z</time></trkpt><trkpt lat="46.3125852" lon="11.6381262"><ele>1158.0</ele><time>2026-04-26T12:59:28.46Z</time></trkpt><trkpt lat="46.3126726" lon="11.6382856"><ele>1158.0</ele><time>2026-04-26T12:59:29.455Z</time></trkpt><trkpt lat="46.3127337" lon="11.6384709"><ele>1158.0</ele><time>2026-04-26T12:59:30.449Z</time></trkpt><trkpt lat="46.3127619" lon="11.6386823"><ele>1158.0</ele><time>2026-04-26T12:59:31.458Z</time></trkpt><trkpt lat="46.3127686" lon="11.6389113"><ele>1157.0</ele><time>2026-04-26T12:59:32.447Z</time></trkpt><trkpt lat="46.3127652" lon="11.6391573"><ele>1156.0</ele><time>2026-04-26T12:59:33.467Z</time></trkpt><trkpt lat="46.3127685" lon="11.6394175"><ele>1155.0</ele><time>2026-04-26T12:59:34.452Z</time></trkpt><trkpt lat="46.3127764" lon="11.6396887"><ele>1155.0</ele><time>2026-04-26T12:59:35.474Z</time></trkpt><trkpt lat="46.3127922" lon="11.6399724"><ele>1155.0</ele><time>2026-04-26T12:59:36.462Z</time></trkpt><trkpt lat="46.3128042" lon="11.6402686"><ele>1155.0</ele><time>2026-04-26T12:59:37.457Z</time></trkpt><trkpt lat="46.3128104" lon="11.6405702"><ele>1156.3333333333333</ele><time>2026-04-26T12:59:38.471Z</time></trkpt><trkpt lat="46.312813" lon="11.6408675"><ele>1157.6666666666665</ele><time>2026-04-26T12:59:39.47Z</time></trkpt><trkpt lat="46.3128181" lon="11.6411551"><ele>1159.0</ele><time>2026-04-26T12:59:40.469Z</time></trkpt><trkpt lat="46.3128269" lon="11.6414326"><ele>1159.0</ele><time>2026-04-26T12:59:41.456Z</time></trkpt><trkpt lat="46.312843" lon="11.6416985"><ele>1159.0</ele><time>2026-04-26T12:59:42.449Z</time></trkpt><trkpt lat="46.3128701" lon="11.6419457"><ele>1159.0</ele><time>2026-04-26T12:59:43.448Z</time></trkpt><trkpt lat="46.3129411" lon="11.6421685"><ele>1157.6666666666665</ele><time>2026-04-26T12:59:44.457Z</time></trkpt><trkpt lat="46.3130195" lon="11.6423777"><ele>1156.3333333333333</ele><time>2026-04-26T12:59:45.446Z</time></trkpt><trkpt lat="46.3131195" lon="11.642575"><ele>1155.0</ele><time>2026-04-26T12:59:46.46Z</time></trkpt><trkpt lat="46.3132404" lon="11.6427606"><ele>1162.0</ele><time>2026-04-26T12:59:47.444Z</time></trkpt><trkpt lat="46.3133658" lon="11.6429533"><ele>1169.0</ele><time>2026-04-26T12:59:48.459Z</time></trkpt><trkpt lat="46.3134954" lon="11.6431538"><ele>1176.0</ele><time>2026-04-26T12:59:49.468Z</time></trkpt><trkpt lat="46.3136193" lon="11.6433685"><ele>1176.0</ele><time>2026-04-26T12:59:50.47Z</time></trkpt><trkpt lat="46.3137376" lon="11.6436068"><ele>1176.0</ele><time>2026-04-26T12:59:51.471Z</time></trkpt><trkpt lat="46.3138459" lon="11.6438643"><ele>1176.0</ele><time>2026-04-26T12:59:52.453Z</time></trkpt><trkpt lat="46.313943" lon="11.6441302"><ele>1181.3333333333333</ele><time>2026-04-26T12:59:53.447Z</time></trkpt><trkpt lat="46.3140362" lon="11.6443874"><ele>1186.6666666666665</ele><time>2026-04-26T12:59:54.452Z</time></trkpt><trkpt lat="46.3141326" lon="11.6446277"><ele>1192.0</ele><time>2026-04-26T12:59:55.451Z</time></trkpt><trkpt lat="46.3142178" lon="11.6448543"><ele>1192.0</ele><time>2026-04-26T12:59:56.465Z</time></trkpt><trkpt lat="46.3142718" lon="11.6450834"><ele>1192.0</ele><time>2026-04-26T12:59:57.472Z</time></trkpt><trkpt lat="46.3142878" lon="11.6453119"><ele>1192.0</ele><time>2026-04-26T12:59:58.448Z</time></trkpt><trkpt lat="46.3142713" lon="11.6455329"><ele>1192.5</ele><time>2026-04-26T12:59:59.464Z</time></trkpt><trkpt lat="46.3142446" lon="11.6457441"><ele>1193.0</ele><time>2026-04-26T13:00:00.456Z</time></trkpt><trkpt lat="46.3142466" lon="11.6459466"><ele>1193.5</ele><time>2026-04-26T13:00:01.453Z</time></trkpt><trkpt lat="46.3142776" lon="11.6461465"><ele>1194.0</ele><time>2026-04-26T13:00:02.449Z</time></trkpt><trkpt lat="46.3143289" lon="11.6463445"><ele>1195.25</ele><time>2026-04-26T13:00:03.47Z</time></trkpt><trkpt lat="46.3144046" lon="11.646525"><ele>1196.5</ele><time>2026-04-26T13:00:04.45Z</time></trkpt><trkpt lat="46.3144795" lon="11.6466932"><ele>1197.75</ele><time>2026-04-26T13:00:05.464Z</time></trkpt><trkpt lat="46.3145418" lon="11.6468592"><ele>1199.0</ele><time>2026-04-26T13:00:06.454Z</time></trkpt><trkpt lat="46.3145854" lon="11.6470301"><ele>1200.75</ele><time>2026-04-26T13:00:07.452Z</time></trkpt><trkpt lat="46.3145934" lon="11.6472101"><ele>1202.5</ele><time>2026-04-26T13:00:08.462Z</time></trkpt><trkpt lat="46.3145663" lon="11.6473959"><ele>1204.25</ele><time>2026-04-26T13:00:09.454Z</time></trkpt><trkpt lat="46.3145299" lon="11.6475844"><ele>1206.0</ele><time>2026-04-26T13:00:10.459Z</time></trkpt><trkpt lat="46.3145069" lon="11.6477852"><ele>1207.6666666666667</ele><time>2026-04-26T13:00:11.459Z</time></trkpt><trkpt lat="46.3145061" lon="11.6480088"><ele>1209.3333333333335</ele><time>2026-04-26T13:00:12.454Z</time></trkpt><trkpt lat="46.3145059" lon="11.6482405"><ele>1211.0</ele><time>2026-04-26T13:00:13.471Z</time></trkpt><trkpt lat="46.3145088" lon="11.64846"><ele>1213.25</ele><time>2026-04-26T13:00:14.448Z</time></trkpt><trkpt lat="46.3145052" lon="11.648658"><ele>1215.5</ele><time>2026-04-26T13:00:15.448Z</time></trkpt><trkpt lat="46.3144827" lon="11.6488401"><ele>1217.75</ele><time>2026-04-26T13:00:16.447Z</time></trkpt><trkpt lat="46.3144276" lon="11.6490156"><ele>1220.0</ele><time>2026-04-26T13:00:17.466Z</time></trkpt><trkpt lat="46.3143533" lon="11.6491603"><ele>1220.0</ele><time>2026-04-26T13:00:18.448Z</time></trkpt><trkpt lat="46.3142833" lon="11.649278"><ele>1220.0</ele><time>2026-04-26T13:00:19.446Z</time></trkpt><trkpt lat="46.3142497" lon="11.6494021"><ele>1220.0</ele><time>2026-04-26T13:00:20.459Z</time></trkpt><trkpt lat="46.3142135" lon="11.649496"><ele>1220.0</ele><time>2026-04-26T13:00:21.452Z</time></trkpt><trkpt lat="46.3142663" lon="11.649623"><ele>1220.0</ele><time>2026-04-26T13:00:23.448Z</time></trkpt><trkpt lat="46.3143362" lon="11.6496101"><ele>1220.0</ele><time>2026-04-26T13:00:24.446Z</time></trkpt><trkpt lat="46.3144174" lon="11.6495775"><ele>1220.0</ele><time>2026-04-26T13:00:25.449Z</time></trkpt><trkpt lat="46.3144786" lon="11.6494797"><ele>1220.0</ele><time>2026-04-26T13:00:26.439Z</time></trkpt><trkpt lat="46.3145562" lon="11.6493871"><ele>1220.0</ele><time>2026-04-26T13:00:27.449Z</time></trkpt><trkpt lat="46.3146498" lon="11.6492882"><ele>1220.0</ele><time>2026-04-26T13:00:28.461Z</time></trkpt><trkpt lat="46.3147541" lon="11.6491803"><ele>1220.0</ele><time>2026-04-26T13:00:29.456Z</time></trkpt><trkpt lat="46.3148691" lon="11.6490635"><ele>1221.0</ele><time>2026-04-26T13:00:30.462Z</time></trkpt><trkpt lat="46.3149875" lon="11.6489415"><ele>1222.0</ele><time>2026-04-26T13:00:31.449Z</time></trkpt><trkpt lat="46.3151093" lon="11.6488146"><ele>1223.0</ele><time>2026-04-26T13:00:32.472Z</time></trkpt><trkpt lat="46.3152389" lon="11.6486864"><ele>1225.6666666666667</ele><time>2026-04-26T13:00:33.458Z</time></trkpt><trkpt lat="46.3153777" lon="11.648564"><ele>1228.3333333333333</ele><time>2026-04-26T13:00:34.462Z</time></trkpt><trkpt lat="46.3155219" lon="11.6484517"><ele>1231.0</ele><time>2026-04-26T13:00:35.455Z</time></trkpt><trkpt lat="46.3156579" lon="11.6483436"><ele>1231.0</ele><time>2026-04-26T13:00:36.447Z</time></trkpt><trkpt lat="46.3157778" lon="11.6482299"><ele>1231.0</ele><time>2026-04-26T13:00:37.47Z</time></trkpt><trkpt lat="46.3158768" lon="11.6480962"><ele>1231.0</ele><time>2026-04-26T13:00:38.45Z</time></trkpt><trkpt lat="46.3159563" lon="11.6479521"><ele>1231.0</ele><time>2026-04-26T13:00:39.463Z</time></trkpt><trkpt lat="46.3160226" lon="11.6478122"><ele>1231.2</ele><time>2026-04-26T13:00:40.465Z</time></trkpt><trkpt lat="46.3160797" lon="11.6476843"><ele>1231.3999999999999</ele><time>2026-04-26T13:00:41.459Z</time></trkpt><trkpt lat="46.3161272" lon="11.6475732"><ele>1231.6</ele><time>2026-04-26T13:00:42.448Z</time></trkpt><trkpt lat="46.3161726" lon="11.6474964"><ele>1231.8</ele><time>2026-04-26T13:00:43.454Z</time></trkpt><trkpt lat="46.3162544" lon="11.6474938"><ele>1232.0</ele><time>2026-04-26T13:00:45.456Z</time></trkpt><trkpt lat="46.3162826" lon="11.6476577"><ele>1232.0</ele><time>2026-04-26T13:00:47.465Z</time></trkpt><trkpt lat="46.3162463" lon="11.6477606"><ele>1232.0</ele><time>2026-04-26T13:00:48.459Z</time></trkpt><trkpt lat="46.316191" lon="11.6478601"><ele>1232.0</ele><time>2026-04-26T13:00:49.458Z</time></trkpt><trkpt lat="46.31613" lon="11.6479616"><ele>1232.0</ele><time>2026-04-26T13:00:50.453Z</time></trkpt><trkpt lat="46.3160976" lon="11.6480942"><ele>1232.0</ele><time>2026-04-26T13:00:51.446Z</time></trkpt><trkpt lat="46.3161055" lon="11.648265"><ele>1231.75</ele><time>2026-04-26T13:00:52.454Z</time></trkpt><trkpt lat="46.3161196" lon="11.6484524"><ele>1231.5</ele><time>2026-04-26T13:00:53.455Z</time></trkpt><trkpt lat="46.3161584" lon="11.6486478"><ele>1231.25</ele><time>2026-04-26T13:00:54.453Z</time></trkpt><trkpt lat="46.3161945" lon="11.6488259"><ele>1231.0</ele><time>2026-04-26T13:00:55.449Z</time></trkpt><trkpt lat="46.3161883" lon="11.6490221"><ele>1233.0</ele><time>2026-04-26T13:00:56.457Z</time></trkpt><trkpt lat="46.3161323" lon="11.6492376"><ele>1235.0</ele><time>2026-04-26T13:00:57.464Z</time></trkpt><trkpt lat="46.3161066" lon="11.6494808"><ele>1237.0</ele><time>2026-04-26T13:00:58.45Z</time></trkpt><trkpt lat="46.3160659" lon="11.6497221"><ele>1239.0</ele><time>2026-04-26T13:00:59.47Z</time></trkpt><trkpt lat="46.3160253" lon="11.649946"><ele>1241.0</ele><time>2026-04-26T13:01:00.459Z</time></trkpt><trkpt lat="46.3159887" lon="11.6501529"><ele>1243.0</ele><time>2026-04-26T13:01:01.463Z</time></trkpt><trkpt lat="46.3159543" lon="11.6503523"><ele>1245.0</ele><time>2026-04-26T13:01:02.463Z</time></trkpt><trkpt lat="46.3159045" lon="11.6505396"><ele>1246.0</ele><time>2026-04-26T13:01:03.462Z</time></trkpt><trkpt lat="46.3158893" lon="11.650734"><ele>1247.0</ele><time>2026-04-26T13:01:04.456Z</time></trkpt><trkpt lat="46.3159109" lon="11.6509307"><ele>1248.0</ele><time>2026-04-26T13:01:05.456Z</time></trkpt><trkpt lat="46.3159269" lon="11.6511062"><ele>1249.0</ele><time>2026-04-26T13:01:06.48Z</time></trkpt><trkpt lat="46.3159231" lon="11.6512457"><ele>1249.0</ele><time>2026-04-26T13:01:07.462Z</time></trkpt><trkpt lat="46.3159412" lon="11.6513518"><ele>1249.0</ele><time>2026-04-26T13:01:08.449Z</time></trkpt><trkpt lat="46.316008" lon="11.6514003"><ele>1249.0</ele><time>2026-04-26T13:01:09.464Z</time></trkpt><trkpt lat="46.316086" lon="11.6514031"><ele>1249.0</ele><time>2026-04-26T13:01:10.447Z</time></trkpt><trkpt lat="46.3161597" lon="11.6513602"><ele>1249.0</ele><time>2026-04-26T13:01:11.459Z</time></trkpt><trkpt lat="46.3162133" lon="11.6512541"><ele>1249.0</ele><time>2026-04-26T13:01:12.458Z</time></trkpt><trkpt lat="46.3162405" lon="11.6511062"><ele>1249.0</ele><time>2026-04-26T13:01:13.467Z</time></trkpt><trkpt lat="46.3162692" lon="11.6509385"><ele>1249.0</ele><time>2026-04-26T13:01:14.453Z</time></trkpt><trkpt lat="46.3163259" lon="11.6507838"><ele>1249.0</ele><time>2026-04-26T13:01:15.45Z</time></trkpt><trkpt lat="46.3164233" lon="11.650664"><ele>1249.0</ele><time>2026-04-26T13:01:16.465Z</time></trkpt><trkpt lat="46.3165486" lon="11.6505724"><ele>1252.75</ele><time>2026-04-26T13:01:17.459Z</time></trkpt><trkpt lat="46.3166818" lon="11.6504849"><ele>1256.5</ele><time>2026-04-26T13:01:18.452Z</time></trkpt><trkpt lat="46.3168063" lon="11.65037"><ele>1260.25</ele><time>2026-04-26T13:01:19.455Z</time></trkpt><trkpt lat="46.3169139" lon="11.6502279"><ele>1264.0</ele><time>2026-04-26T13:01:20.452Z</time></trkpt><trkpt lat="46.3170057" lon="11.6500687"><ele>1264.0</ele><time>2026-04-26T13:01:21.467Z</time></trkpt><trkpt lat="46.3170698" lon="11.6498923"><ele>1264.0</ele><time>2026-04-26T13:01:22.47Z</time></trkpt><trkpt lat="46.3171147" lon="11.6497232"><ele>1264.0</ele><time>2026-04-26T13:01:23.46Z</time></trkpt><trkpt lat="46.317123" lon="11.6495637"><ele>1264.0</ele><time>2026-04-26T13:01:24.468Z</time></trkpt><trkpt lat="46.3171389" lon="11.6494461"><ele>1264.2</ele><time>2026-04-26T13:01:25.449Z</time></trkpt><trkpt lat="46.3171611" lon="11.6493524"><ele>1264.4</ele><time>2026-04-26T13:01:26.462Z</time></trkpt><trkpt lat="46.3172782" lon="11.6493408"><ele>1264.6</ele><time>2026-04-26T13:01:28.448Z</time></trkpt><trkpt lat="46.3173451" lon="11.6495115"><ele>1264.8</ele><time>2026-04-26T13:01:30.452Z</time></trkpt><trkpt lat="46.3173414" lon="11.6496575"><ele>1265.0</ele><time>2026-04-26T13:01:31.462Z</time></trkpt><trkpt lat="46.3173347" lon="11.6498432"><ele>1270.3333333333335</ele><time>2026-04-26T13:01:32.456Z</time></trkpt><trkpt lat="46.3173138" lon="11.6500701"><ele>1275.6666666666667</ele><time>2026-04-26T13:01:33.449Z</time></trkpt><trkpt lat="46.3173147" lon="11.6503376"><ele>1281.0</ele><time>2026-04-26T13:01:34.441Z</time></trkpt><trkpt lat="46.3173069" lon="11.6506355"><ele>1282.6666666666667</ele><time>2026-04-26T13:01:35.481Z</time></trkpt><trkpt lat="46.3172979" lon="11.6509414"><ele>1284.3333333333335</ele><time>2026-04-26T13:01:36.449Z</time></trkpt><trkpt lat="46.3172795" lon="11.6512276"><ele>1286.0</ele><time>2026-04-26T13:01:37.47Z</time></trkpt><trkpt lat="46.3172501" lon="11.6514868"><ele>1284.0</ele><time>2026-04-26T13:01:38.458Z</time></trkpt><trkpt lat="46.3172085" lon="11.6517257"><ele>1282.0</ele><time>2026-04-26T13:01:39.452Z</time></trkpt><trkpt lat="46.317155" lon="11.6519488"><ele>1280.0</ele><time>2026-04-26T13:01:40.459Z</time></trkpt><trkpt lat="46.3171027" lon="11.6521642"><ele>1280.0</ele><time>2026-04-26T13:01:41.454Z</time></trkpt><trkpt lat="46.3170652" lon="11.6523885"><ele>1280.0</ele><time>2026-04-26T13:01:42.461Z</time></trkpt><trkpt lat="46.3170189" lon="11.6526269"><ele>1280.0</ele><time>2026-04-26T13:01:43.457Z</time></trkpt><trkpt lat="46.3170242" lon="11.6528585"><ele>1283.5</ele><time>2026-04-26T13:01:44.466Z</time></trkpt><trkpt lat="46.3170395" lon="11.6530626"><ele>1287.0</ele><time>2026-04-26T13:01:45.462Z</time></trkpt><trkpt lat="46.3170372" lon="11.6532687"><ele>1290.5</ele><time>2026-04-26T13:01:46.471Z</time></trkpt><trkpt lat="46.3170193" lon="11.6534691"><ele>1294.0</ele><time>2026-04-26T13:01:47.468Z</time></trkpt><trkpt lat="46.316941" lon="11.6536588"><ele>1298.3333333333333</ele><time>2026-04-26T13:01:48.465Z</time></trkpt><trkpt lat="46.3168365" lon="11.6538516"><ele>1302.6666666666667</ele><time>2026-04-26T13:01:49.461Z</time></trkpt><trkpt lat="46.3167152" lon="11.6540493"><ele>1307.0</ele><time>2026-04-26T13:01:50.449Z</time></trkpt><trkpt lat="46.316585" lon="11.6542556"><ele>1308.6666666666667</ele><time>2026-04-26T13:01:51.461Z</time></trkpt><trkpt lat="46.3164534" lon="11.654465"><ele>1310.3333333333333</ele><time>2026-04-26T13:01:52.454Z</time></trkpt><trkpt lat="46.3163205" lon="11.6546658"><ele>1312.0</ele><time>2026-04-26T13:01:53.461Z</time></trkpt><trkpt lat="46.3161872" lon="11.6548681"><ele>1312.0</ele><time>2026-04-26T13:01:54.45Z</time></trkpt><trkpt lat="46.316059" lon="11.6550638"><ele>1312.0</ele><time>2026-04-26T13:01:55.451Z</time></trkpt><trkpt lat="46.3159402" lon="11.6552702"><ele>1312.0</ele><time>2026-04-26T13:01:56.461Z</time></trkpt><trkpt lat="46.3158257" lon="11.6554817"><ele>1315.0</ele><time>2026-04-26T13:01:57.457Z</time></trkpt><trkpt lat="46.3157213" lon="11.6557047"><ele>1318.0</ele><time>2026-04-26T13:01:58.458Z</time></trkpt><trkpt lat="46.3156262" lon="11.6559337"><ele>1321.0</ele><time>2026-04-26T13:01:59.462Z</time></trkpt><trkpt lat="46.3155334" lon="11.6561605"><ele>1321.3333333333333</ele><time>2026-04-26T13:02:00.467Z</time></trkpt><trkpt lat="46.3154399" lon="11.6563848"><ele>1321.6666666666667</ele><time>2026-04-26T13:02:01.464Z</time></trkpt><trkpt lat="46.3153469" lon="11.6566085"><ele>1322.0</ele><time>2026-04-26T13:02:02.463Z</time></trkpt><trkpt lat="46.3152573" lon="11.656834"><ele>1324.0</ele><time>2026-04-26T13:02:03.459Z</time></trkpt><trkpt lat="46.3151789" lon="11.6570732"><ele>1326.0</ele><time>2026-04-26T13:02:04.46Z</time></trkpt><trkpt lat="46.315111" lon="11.6573224"><ele>1328.0</ele><time>2026-04-26T13:02:05.46Z</time></trkpt><trkpt lat="46.3150491" lon="11.6575711"><ele>1330.0</ele><time>2026-04-26T13:02:06.478Z</time></trkpt><trkpt lat="46.3149897" lon="11.6578064"><ele>1332.0</ele><time>2026-04-26T13:02:07.461Z</time></trkpt><trkpt lat="46.3149321" lon="11.6580222"><ele>1334.0</ele><time>2026-04-26T13:02:08.449Z</time></trkpt><trkpt lat="46.3148657" lon="11.6582182"><ele>1334.0</ele><time>2026-04-26T13:02:09.465Z</time></trkpt><trkpt lat="46.3147902" lon="11.6584073"><ele>1334.0</ele><time>2026-04-26T13:02:10.464Z</time></trkpt><trkpt lat="46.3146962" lon="11.6585836"><ele>1334.0</ele><time>2026-04-26T13:02:11.465Z</time></trkpt><trkpt lat="46.314594" lon="11.6587533"><ele>1336.0</ele><time>2026-04-26T13:02:12.464Z</time></trkpt><trkpt lat="46.3144907" lon="11.6589185"><ele>1338.0</ele><time>2026-04-26T13:02:13.453Z</time></trkpt><trkpt lat="46.3143919" lon="11.6590817"><ele>1340.0</ele><time>2026-04-26T13:02:14.456Z</time></trkpt><trkpt lat="46.3142948" lon="11.6592376"><ele>1342.0</ele><time>2026-04-26T13:02:15.465Z</time></trkpt><trkpt lat="46.3142" lon="11.6593866"><ele>1344.25</ele><time>2026-04-26T13:02:16.446Z</time></trkpt><trkpt lat="46.3141105" lon="11.6595364"><ele>1346.5</ele><time>2026-04-26T13:02:17.459Z</time></trkpt><trkpt lat="46.3140208" lon="11.6596815"><ele>1348.75</ele><time>2026-04-26T13:02:18.45Z</time></trkpt><trkpt lat="46.3139398" lon="11.6598366"><ele>1351.0</ele><time>2026-04-26T13:02:19.46Z</time></trkpt><trkpt lat="46.3138684" lon="11.6600041"><ele>1351.25</ele><time>2026-04-26T13:02:20.454Z</time></trkpt><trkpt lat="46.3138031" lon="11.6601788"><ele>1351.5</ele><time>2026-04-26T13:02:21.467Z</time></trkpt><trkpt lat="46.3137242" lon="11.660345"><ele>1351.75</ele><time>2026-04-26T13:02:22.47Z</time></trkpt><trkpt lat="46.3136365" lon="11.6605213"><ele>1352.0</ele><time>2026-04-26T13:02:23.462Z</time></trkpt><trkpt lat="46.3135635" lon="11.6607035"><ele>1353.5</ele><time>2026-04-26T13:02:24.464Z</time></trkpt><trkpt lat="46.3135215" lon="11.6608921"><ele>1355.0</ele><time>2026-04-26T13:02:25.499Z</time></trkpt><trkpt lat="46.3134741" lon="11.661073"><ele>1356.5</ele><time>2026-04-26T13:02:26.469Z</time></trkpt><trkpt lat="46.3134213" lon="11.6612482"><ele>1358.0</ele><time>2026-04-26T13:02:27.456Z</time></trkpt><trkpt lat="46.3133706" lon="11.6614257"><ele>1359.75</ele><time>2026-04-26T13:02:28.465Z</time></trkpt><trkpt lat="46.3133117" lon="11.6615994"><ele>1361.5</ele><time>2026-04-26T13:02:29.452Z</time></trkpt><trkpt lat="46.3132547" lon="11.6617776"><ele>1363.25</ele><time>2026-04-26T13:02:30.465Z</time></trkpt><trkpt lat="46.3131982" lon="11.6619645"><ele>1365.0</ele><time>2026-04-26T13:02:31.458Z</time></trkpt><trkpt lat="46.3131434" lon="11.6621567"><ele>1364.6666666666667</ele><time>2026-04-26T13:02:32.45Z</time></trkpt><trkpt lat="46.3130888" lon="11.662354"><ele>1364.3333333333335</ele><time>2026-04-26T13:02:33.456Z</time></trkpt><trkpt lat="46.3130289" lon="11.6625545"><ele>1364.0</ele><time>2026-04-26T13:02:34.452Z</time></trkpt><trkpt lat="46.3129704" lon="11.6627605"><ele>1365.6666666666667</ele><time>2026-04-26T13:02:35.457Z</time></trkpt><trkpt lat="46.312909" lon="11.6629668"><ele>1367.3333333333333</ele><time>2026-04-26T13:02:36.456Z</time></trkpt><trkpt lat="46.3128497" lon="11.6631781"><ele>1369.0</ele><time>2026-04-26T13:02:37.461Z</time></trkpt><trkpt lat="46.3127994" lon="11.6633999"><ele>1371.0</ele><time>2026-04-26T13:02:38.467Z</time></trkpt><trkpt lat="46.3127592" lon="11.6636319"><ele>1373.0</ele><time>2026-04-26T13:02:39.461Z</time></trkpt><trkpt lat="46.3127169" lon="11.6638644"><ele>1375.0</ele><time>2026-04-26T13:02:40.454Z</time></trkpt><trkpt lat="46.3126752" lon="11.6640965"><ele>1375.0</ele><time>2026-04-26T13:02:41.461Z</time></trkpt><trkpt lat="46.312634" lon="11.6643276"><ele>1375.0</ele><time>2026-04-26T13:02:42.452Z</time></trkpt><trkpt lat="46.3125908" lon="11.6645576"><ele>1375.0</ele><time>2026-04-26T13:02:43.479Z</time></trkpt><trkpt lat="46.3125468" lon="11.6647892"><ele>1375.6666666666665</ele><time>2026-04-26T13:02:44.457Z</time></trkpt><trkpt lat="46.3124987" lon="11.6650235"><ele>1376.3333333333333</ele><time>2026-04-26T13:02:45.448Z</time></trkpt><trkpt lat="46.3124476" lon="11.6652634"><ele>1377.0</ele><time>2026-04-26T13:02:46.461Z</time></trkpt><trkpt lat="46.3123963" lon="11.6655102"><ele>1378.6666666666667</ele><time>2026-04-26T13:02:47.463Z</time></trkpt><trkpt lat="46.3123472" lon="11.6657639"><ele>1380.3333333333335</ele><time>2026-04-26T13:02:48.459Z</time></trkpt><trkpt lat="46.3122813" lon="11.6660247"><ele>1382.0</ele><time>2026-04-26T13:02:49.452Z</time></trkpt><trkpt lat="46.3122378" lon="11.6663061"><ele>1382.0</ele><time>2026-04-26T13:02:50.454Z</time></trkpt><trkpt lat="46.3122126" lon="11.6665944"><ele>1382.0</ele><time>2026-04-26T13:02:51.457Z</time></trkpt><trkpt lat="46.3121989" lon="11.6668857"><ele>1382.0</ele><time>2026-04-26T13:02:52.463Z</time></trkpt><trkpt lat="46.3122181" lon="11.6671823"><ele>1383.3333333333335</ele><time>2026-04-26T13:02:53.463Z</time></trkpt><trkpt lat="46.3122238" lon="11.6674762"><ele>1384.6666666666667</ele><time>2026-04-26T13:02:54.466Z</time></trkpt><trkpt lat="46.3122261" lon="11.6677666"><ele>1386.0</ele><time>2026-04-26T13:02:55.472Z</time></trkpt><trkpt lat="46.3122243" lon="11.6680505"><ele>1387.3333333333333</ele><time>2026-04-26T13:02:56.478Z</time></trkpt><trkpt lat="46.3122214" lon="11.6683238"><ele>1388.6666666666665</ele><time>2026-04-26T13:02:57.469Z</time></trkpt><trkpt lat="46.3122203" lon="11.6685849"><ele>1390.0</ele><time>2026-04-26T13:02:58.455Z</time></trkpt><trkpt lat="46.3122177" lon="11.6688347"><ele>1391.3333333333333</ele><time>2026-04-26T13:02:59.468Z</time></trkpt><trkpt lat="46.3122067" lon="11.6690778"><ele>1392.6666666666667</ele><time>2026-04-26T13:03:00.462Z</time></trkpt><trkpt lat="46.3121713" lon="11.6693266"><ele>1394.0</ele><time>2026-04-26T13:03:01.473Z</time></trkpt><trkpt lat="46.3121145" lon="11.6695694"><ele>1396.3333333333335</ele><time>2026-04-26T13:03:02.459Z</time></trkpt><trkpt lat="46.3120262" lon="11.6697989"><ele>1398.6666666666667</ele><time>2026-04-26T13:03:03.454Z</time></trkpt><trkpt lat="46.3119226" lon="11.6700283"><ele>1401.0</ele><time>2026-04-26T13:03:04.453Z</time></trkpt><trkpt lat="46.3117874" lon="11.6702584"><ele>1402.0</ele><time>2026-04-26T13:03:05.46Z</time></trkpt><trkpt lat="46.31167" lon="11.6704862"><ele>1403.0</ele><time>2026-04-26T13:03:06.443Z</time></trkpt><trkpt lat="46.3115496" lon="11.6706933"><ele>1404.0</ele><time>2026-04-26T13:03:07.466Z</time></trkpt><trkpt lat="46.3114417" lon="11.6709271"><ele>1407.0</ele><time>2026-04-26T13:03:08.464Z</time></trkpt><trkpt lat="46.3113684" lon="11.6711816"><ele>1410.0</ele><time>2026-04-26T13:03:09.459Z</time></trkpt><trkpt lat="46.311296" lon="11.671441"><ele>1413.0</ele><time>2026-04-26T13:03:10.447Z</time></trkpt><trkpt lat="46.311245" lon="11.6717163"><ele>1412.6666666666667</ele><time>2026-04-26T13:03:11.456Z</time></trkpt><trkpt lat="46.3111896" lon="11.6719891"><ele>1412.3333333333335</ele><time>2026-04-26T13:03:12.458Z</time></trkpt><trkpt lat="46.3111298" lon="11.6722595"><ele>1412.0</ele><time>2026-04-26T13:03:13.462Z</time></trkpt><trkpt lat="46.3110643" lon="11.6725233"><ele>1412.0</ele><time>2026-04-26T13:03:14.455Z</time></trkpt><trkpt lat="46.3110042" lon="11.6727724"><ele>1412.0</ele><time>2026-04-26T13:03:15.468Z</time></trkpt><trkpt lat="46.3109596" lon="11.6730022"><ele>1412.0</ele><time>2026-04-26T13:03:16.47Z</time></trkpt><trkpt lat="46.3109492" lon="11.6732267"><ele>1412.0</ele><time>2026-04-26T13:03:17.469Z</time></trkpt><trkpt lat="46.3109657" lon="11.6734617"><ele>1412.0</ele><time>2026-04-26T13:03:18.463Z</time></trkpt><trkpt lat="46.3109995" lon="11.6737049"><ele>1412.0</ele><time>2026-04-26T13:03:19.456Z</time></trkpt><trkpt lat="46.3110093" lon="11.6739481"><ele>1411.3333333333335</ele><time>2026-04-26T13:03:20.475Z</time></trkpt><trkpt lat="46.3110366" lon="11.6741819"><ele>1410.6666666666667</ele><time>2026-04-26T13:03:21.469Z</time></trkpt><trkpt lat="46.311087" lon="11.6744005"><ele>1410.0</ele><time>2026-04-26T13:03:22.469Z</time></trkpt><trkpt lat="46.3111228" lon="11.6746121"><ele>1410.0</ele><time>2026-04-26T13:03:23.491Z</time></trkpt><trkpt lat="46.3111567" lon="11.6748138"><ele>1410.0</ele><time>2026-04-26T13:03:24.458Z</time></trkpt><trkpt lat="46.3111739" lon="11.6750084"><ele>1410.0</ele><time>2026-04-26T13:03:25.467Z</time></trkpt><trkpt lat="46.3112374" lon="11.6751835"><ele>1410.0</ele><time>2026-04-26T13:03:26.461Z</time></trkpt><trkpt lat="46.3113053" lon="11.6753676"><ele>1409.6666666666667</ele><time>2026-04-26T13:03:27.478Z</time></trkpt><trkpt lat="46.3113624" lon="11.6755756"><ele>1409.3333333333335</ele><time>2026-04-26T13:03:28.463Z</time></trkpt><trkpt lat="46.3114416" lon="11.6757849"><ele>1409.0</ele><time>2026-04-26T13:03:29.463Z</time></trkpt><trkpt lat="46.311537" lon="11.6760021"><ele>1408.6666666666667</ele><time>2026-04-26T13:03:30.458Z</time></trkpt><trkpt lat="46.3116235" lon="11.676231"><ele>1408.3333333333333</ele><time>2026-04-26T13:03:31.455Z</time></trkpt><trkpt lat="46.3117065" lon="11.6764738"><ele>1408.0</ele><time>2026-04-26T13:03:32.454Z</time></trkpt><trkpt lat="46.3117969" lon="11.6767123"><ele>1406.6666666666665</ele><time>2026-04-26T13:03:33.461Z</time></trkpt><trkpt lat="46.3118927" lon="11.6769443"><ele>1405.3333333333333</ele><time>2026-04-26T13:03:34.455Z</time></trkpt><trkpt lat="46.3119881" lon="11.6771693"><ele>1404.0</ele><time>2026-04-26T13:03:35.454Z</time></trkpt><trkpt lat="46.3120801" lon="11.6773882"><ele>1404.0</ele><time>2026-04-26T13:03:36.457Z</time></trkpt><trkpt lat="46.3121738" lon="11.6776024"><ele>1404.0</ele><time>2026-04-26T13:03:37.457Z</time></trkpt><trkpt lat="46.3122656" lon="11.6778105"><ele>1404.0</ele><time>2026-04-26T13:03:38.454Z</time></trkpt><trkpt lat="46.3123587" lon="11.6780083"><ele>1410.6666666666667</ele><time>2026-04-26T13:03:39.444Z</time></trkpt><trkpt lat="46.312461" lon="11.678191"><ele>1417.3333333333335</ele><time>2026-04-26T13:03:40.456Z</time></trkpt><trkpt lat="46.3126011" lon="11.6783233"><ele>1424.0</ele><time>2026-04-26T13:03:41.461Z</time></trkpt><trkpt lat="46.3127343" lon="11.6784559"><ele>1424.0</ele><time>2026-04-26T13:03:42.47Z</time></trkpt><trkpt lat="46.3128665" lon="11.6785793"><ele>1424.0</ele><time>2026-04-26T13:03:43.461Z</time></trkpt><trkpt lat="46.3129903" lon="11.6786978"><ele>1424.0</ele><time>2026-04-26T13:03:44.466Z</time></trkpt><trkpt lat="46.3130983" lon="11.6788238"><ele>1424.0</ele><time>2026-04-26T13:03:45.473Z</time></trkpt><trkpt lat="46.3131935" lon="11.6789332"><ele>1425.7142857142856</ele><time>2026-04-26T13:03:46.466Z</time></trkpt><trkpt lat="46.3132657" lon="11.6790147"><ele>1427.4285714285713</ele><time>2026-04-26T13:03:47.456Z</time></trkpt><trkpt lat="46.3133102" lon="11.6790936"><ele>1429.142857142857</ele><time>2026-04-26T13:03:48.449Z</time></trkpt><trkpt lat="46.3133201" lon="11.6791842"><ele>1430.8571428571427</ele><time>2026-04-26T13:03:49.449Z</time></trkpt><trkpt lat="46.3132949" lon="11.6792683"><ele>1432.5714285714287</ele><time>2026-04-26T13:03:50.476Z</time></trkpt><trkpt lat="46.3132339" lon="11.6793303"><ele>1434.2857142857142</ele><time>2026-04-26T13:03:51.454Z</time></trkpt><trkpt lat="46.3131804" lon="11.6794132"><ele>1436.0</ele><time>2026-04-26T13:03:52.456Z</time></trkpt><trkpt lat="46.3130982" lon="11.6794391"><ele>1436.0</ele><time>2026-04-26T13:03:53.45Z</time></trkpt><trkpt lat="46.3130069" lon="11.679441"><ele>1436.0</ele><time>2026-04-26T13:03:54.457Z</time></trkpt><trkpt lat="46.3128921" lon="11.6794062"><ele>1436.0</ele><time>2026-04-26T13:03:55.454Z</time></trkpt><trkpt lat="46.3127322" lon="11.6793869"><ele>1436.0</ele><time>2026-04-26T13:03:56.449Z</time></trkpt><trkpt lat="46.3125723" lon="11.6793353"><ele>1436.0</ele><time>2026-04-26T13:03:57.455Z</time></trkpt><trkpt lat="46.3123936" lon="11.6792277"><ele>1436.0</ele><time>2026-04-26T13:03:58.453Z</time></trkpt><trkpt lat="46.3122125" lon="11.679121"><ele>1436.0</ele><time>2026-04-26T13:03:59.457Z</time></trkpt><trkpt lat="46.3120465" lon="11.6790451"><ele>1437.0</ele><time>2026-04-26T13:04:00.448Z</time></trkpt><trkpt lat="46.3118937" lon="11.6789526"><ele>1438.0</ele><time>2026-04-26T13:04:01.459Z</time></trkpt><trkpt lat="46.3117366" lon="11.6789"><ele>1439.0</ele><time>2026-04-26T13:04:02.455Z</time></trkpt><trkpt lat="46.3116259" lon="11.6788099"><ele>1439.0</ele><time>2026-04-26T13:04:03.452Z</time></trkpt><trkpt lat="46.3115203" lon="11.6787352"><ele>1439.0</ele><time>2026-04-26T13:04:04.461Z</time></trkpt><trkpt lat="46.3114211" lon="11.6786681"><ele>1439.0</ele><time>2026-04-26T13:04:05.447Z</time></trkpt><trkpt lat="46.3113192" lon="11.6786521"><ele>1439.0</ele><time>2026-04-26T13:04:06.449Z</time></trkpt><trkpt lat="46.3112172" lon="11.6786771"><ele>1439.0</ele><time>2026-04-26T13:04:07.456Z</time></trkpt><trkpt lat="46.3111221" lon="11.6787777"><ele>1434.0</ele><time>2026-04-26T13:04:08.456Z</time></trkpt><trkpt lat="46.311027" lon="11.6788979"><ele>1429.0</ele><time>2026-04-26T13:04:09.475Z</time></trkpt><trkpt lat="46.3109561" lon="11.6790667"><ele>1424.0</ele><time>2026-04-26T13:04:10.448Z</time></trkpt><trkpt lat="46.3108914" lon="11.679244"><ele>1419.0</ele><time>2026-04-26T13:04:11.461Z</time></trkpt><trkpt lat="46.310818" lon="11.6794325"><ele>1422.0</ele><time>2026-04-26T13:04:12.449Z</time></trkpt><trkpt lat="46.3107619" lon="11.6796391"><ele>1425.0</ele><time>2026-04-26T13:04:13.465Z</time></trkpt><trkpt lat="46.3107388" lon="11.6798547"><ele>1428.0</ele><time>2026-04-26T13:04:14.475Z</time></trkpt><trkpt lat="46.3107058" lon="11.6800506"><ele>1431.0</ele><time>2026-04-26T13:04:15.476Z</time></trkpt><trkpt lat="46.3106638" lon="11.6802301"><ele>1434.5</ele><time>2026-04-26T13:04:16.448Z</time></trkpt><trkpt lat="46.3106157" lon="11.680393"><ele>1438.0</ele><time>2026-04-26T13:04:17.461Z</time></trkpt><trkpt lat="46.3105573" lon="11.6805394"><ele>1441.5</ele><time>2026-04-26T13:04:18.444Z</time></trkpt><trkpt lat="46.3104986" lon="11.6806831"><ele>1445.0</ele><time>2026-04-26T13:04:19.458Z</time></trkpt><trkpt lat="46.3104285" lon="11.6808233"><ele>1440.0</ele><time>2026-04-26T13:04:20.463Z</time></trkpt><trkpt lat="46.3103573" lon="11.6809692"><ele>1435.0</ele><time>2026-04-26T13:04:21.456Z</time></trkpt><trkpt lat="46.3102792" lon="11.6811233"><ele>1430.0</ele><time>2026-04-26T13:04:22.438Z</time></trkpt><trkpt lat="46.3101839" lon="11.6812718"><ele>1425.0</ele><time>2026-04-26T13:04:23.459Z</time></trkpt><trkpt lat="46.3100836" lon="11.6814217"><ele>1425.0</ele><time>2026-04-26T13:04:24.455Z</time></trkpt><trkpt lat="46.3099803" lon="11.6815738"><ele>1425.0</ele><time>2026-04-26T13:04:25.45Z</time></trkpt><trkpt lat="46.3098707" lon="11.681727"><ele>1425.0</ele><time>2026-04-26T13:04:26.465Z</time></trkpt><trkpt lat="46.3097581" lon="11.6818795"><ele>1421.3333333333333</ele><time>2026-04-26T13:04:27.469Z</time></trkpt><trkpt lat="46.3096431" lon="11.6820278"><ele>1417.6666666666665</ele><time>2026-04-26T13:04:28.453Z</time></trkpt><trkpt lat="46.3095331" lon="11.6821799"><ele>1414.0</ele><time>2026-04-26T13:04:29.452Z</time></trkpt><trkpt lat="46.3094194" lon="11.682319"><ele>1414.0</ele><time>2026-04-26T13:04:30.456Z</time></trkpt><trkpt lat="46.3093189" lon="11.6824653"><ele>1414.0</ele><time>2026-04-26T13:04:31.457Z</time></trkpt><trkpt lat="46.3092313" lon="11.6826196"><ele>1414.0</ele><time>2026-04-26T13:04:32.448Z</time></trkpt><trkpt lat="46.3091482" lon="11.6827814"><ele>1414.0</ele><time>2026-04-26T13:04:33.455Z</time></trkpt><trkpt lat="46.3090715" lon="11.6829534"><ele>1412.0</ele><time>2026-04-26T13:04:34.453Z</time></trkpt><trkpt lat="46.3090007" lon="11.6831371"><ele>1410.0</ele><time>2026-04-26T13:04:35.468Z</time></trkpt><trkpt lat="46.3089337" lon="11.6833387"><ele>1408.0</ele><time>2026-04-26T13:04:36.463Z</time></trkpt><trkpt lat="46.3088772" lon="11.6835399"><ele>1411.25</ele><time>2026-04-26T13:04:37.446Z</time></trkpt><trkpt lat="46.308819" lon="11.683734"><ele>1414.5</ele><time>2026-04-26T13:04:38.475Z</time></trkpt><trkpt lat="46.3087541" lon="11.6839167"><ele>1417.75</ele><time>2026-04-26T13:04:39.458Z</time></trkpt><trkpt lat="46.308684" lon="11.684084"><ele>1421.0</ele><time>2026-04-26T13:04:40.481Z</time></trkpt><trkpt lat="46.3086134" lon="11.6842376"><ele>1421.0</ele><time>2026-04-26T13:04:41.462Z</time></trkpt><trkpt lat="46.308541" lon="11.6843838"><ele>1421.0</ele><time>2026-04-26T13:04:42.46Z</time></trkpt><trkpt lat="46.3084763" lon="11.6845345"><ele>1421.0</ele><time>2026-04-26T13:04:43.457Z</time></trkpt><trkpt lat="46.3084197" lon="11.6846958"><ele>1421.0</ele><time>2026-04-26T13:04:44.461Z</time></trkpt><trkpt lat="46.3083931" lon="11.6848911"><ele>1424.0</ele><time>2026-04-26T13:04:45.464Z</time></trkpt><trkpt lat="46.3083818" lon="11.6851064"><ele>1427.0</ele><time>2026-04-26T13:04:46.467Z</time></trkpt><trkpt lat="46.3083803" lon="11.6853294"><ele>1430.0</ele><time>2026-04-26T13:04:47.476Z</time></trkpt><trkpt lat="46.3083722" lon="11.6855566"><ele>1432.3333333333335</ele><time>2026-04-26T13:04:48.465Z</time></trkpt><trkpt lat="46.3083572" lon="11.6857861"><ele>1434.6666666666667</ele><time>2026-04-26T13:04:49.47Z</time></trkpt><trkpt lat="46.3083364" lon="11.6860207"><ele>1437.0</ele><time>2026-04-26T13:04:50.466Z</time></trkpt><trkpt lat="46.308309" lon="11.686258"><ele>1439.0</ele><time>2026-04-26T13:04:51.451Z</time></trkpt><trkpt lat="46.3082764" lon="11.6864904"><ele>1441.0</ele><time>2026-04-26T13:04:52.465Z</time></trkpt><trkpt lat="46.3082347" lon="11.6867114"><ele>1443.0</ele><time>2026-04-26T13:04:53.461Z</time></trkpt><trkpt lat="46.3082027" lon="11.6869258"><ele>1443.0</ele><time>2026-04-26T13:04:54.463Z</time></trkpt><trkpt lat="46.3081827" lon="11.6871361"><ele>1443.0</ele><time>2026-04-26T13:04:55.459Z</time></trkpt><trkpt lat="46.3081787" lon="11.6873422"><ele>1443.0</ele><time>2026-04-26T13:04:56.472Z</time></trkpt><trkpt lat="46.3081374" lon="11.6875465"><ele>1443.0</ele><time>2026-04-26T13:04:57.451Z</time></trkpt><trkpt lat="46.3081625" lon="11.6877556"><ele>1443.0</ele><time>2026-04-26T13:04:58.452Z</time></trkpt><trkpt lat="46.3082044" lon="11.687968"><ele>1443.0</ele><time>2026-04-26T13:04:59.475Z</time></trkpt><trkpt lat="46.3082357" lon="11.6881836"><ele>1443.0</ele><time>2026-04-26T13:05:00.464Z</time></trkpt><trkpt lat="46.3082655" lon="11.6883974"><ele>1441.0</ele><time>2026-04-26T13:05:01.472Z</time></trkpt><trkpt lat="46.3083168" lon="11.6886109"><ele>1439.0</ele><time>2026-04-26T13:05:02.46Z</time></trkpt><trkpt lat="46.3083743" lon="11.6888261"><ele>1437.0</ele><time>2026-04-26T13:05:03.451Z</time></trkpt><trkpt lat="46.3084599" lon="11.6890322"><ele>1437.0</ele><time>2026-04-26T13:05:04.467Z</time></trkpt><trkpt lat="46.3085334" lon="11.6892429"><ele>1437.0</ele><time>2026-04-26T13:05:05.461Z</time></trkpt><trkpt lat="46.3086155" lon="11.6894532"><ele>1437.0</ele><time>2026-04-26T13:05:06.461Z</time></trkpt><trkpt lat="46.3086827" lon="11.689663"><ele>1434.3333333333333</ele><time>2026-04-26T13:05:07.466Z</time></trkpt><trkpt lat="46.308755" lon="11.6898589"><ele>1431.6666666666665</ele><time>2026-04-26T13:05:08.474Z</time></trkpt><trkpt lat="46.3088368" lon="11.6900443"><ele>1429.0</ele><time>2026-04-26T13:05:09.462Z</time></trkpt><trkpt lat="46.3089247" lon="11.6902258"><ele>1435.0</ele><time>2026-04-26T13:05:10.471Z</time></trkpt><trkpt lat="46.3089986" lon="11.6904269"><ele>1441.0</ele><time>2026-04-26T13:05:11.476Z</time></trkpt><trkpt lat="46.3090619" lon="11.6906372"><ele>1447.0</ele><time>2026-04-26T13:05:12.461Z</time></trkpt><trkpt lat="46.309108" lon="11.6908608"><ele>1447.0</ele><time>2026-04-26T13:05:13.468Z</time></trkpt><trkpt lat="46.3091501" lon="11.6910867"><ele>1447.0</ele><time>2026-04-26T13:05:14.462Z</time></trkpt><trkpt lat="46.3091913" lon="11.6913174"><ele>1447.0</ele><time>2026-04-26T13:05:15.471Z</time></trkpt><trkpt lat="46.3092263" lon="11.6915446"><ele>1447.0</ele><time>2026-04-26T13:05:16.445Z</time></trkpt><trkpt lat="46.3092649" lon="11.6917616"><ele>1447.0</ele><time>2026-04-26T13:05:17.45Z</time></trkpt><trkpt lat="46.3093011" lon="11.6919742"><ele>1447.0</ele><time>2026-04-26T13:05:18.446Z</time></trkpt><trkpt lat="46.3093293" lon="11.6921763"><ele>1447.0</ele><time>2026-04-26T13:05:19.464Z</time></trkpt><trkpt lat="46.3093408" lon="11.6923722"><ele>1447.0</ele><time>2026-04-26T13:05:20.459Z</time></trkpt><trkpt lat="46.3093341" lon="11.6925621"><ele>1447.0</ele><time>2026-04-26T13:05:21.459Z</time></trkpt><trkpt lat="46.3092927" lon="11.6927415"><ele>1447.0</ele><time>2026-04-26T13:05:22.463Z</time></trkpt><trkpt lat="46.3092202" lon="11.6929029"><ele>1447.0</ele><time>2026-04-26T13:05:23.447Z</time></trkpt><trkpt lat="46.3091371" lon="11.6930671"><ele>1446.75</ele><time>2026-04-26T13:05:24.451Z</time></trkpt><trkpt lat="46.3090291" lon="11.6932065"><ele>1446.5</ele><time>2026-04-26T13:05:25.458Z</time></trkpt><trkpt lat="46.3089043" lon="11.6933232"><ele>1446.25</ele><time>2026-04-26T13:05:26.459Z</time></trkpt><trkpt lat="46.3087806" lon="11.6934432"><ele>1446.0</ele><time>2026-04-26T13:05:27.454Z</time></trkpt><trkpt lat="46.3086535" lon="11.693569"><ele>1450.3333333333333</ele><time>2026-04-26T13:05:28.456Z</time></trkpt><trkpt lat="46.3085185" lon="11.6936982"><ele>1454.6666666666665</ele><time>2026-04-26T13:05:29.46Z</time></trkpt><trkpt lat="46.3083792" lon="11.6938313"><ele>1459.0</ele><time>2026-04-26T13:05:30.471Z</time></trkpt><trkpt lat="46.3082352" lon="11.6939586"><ele>1459.0</ele><time>2026-04-26T13:05:31.451Z</time></trkpt><trkpt lat="46.3080947" lon="11.694082"><ele>1459.0</ele><time>2026-04-26T13:05:32.453Z</time></trkpt><trkpt lat="46.30797" lon="11.6942095"><ele>1459.0</ele><time>2026-04-26T13:05:33.46Z</time></trkpt><trkpt lat="46.3078532" lon="11.6943535"><ele>1461.0</ele><time>2026-04-26T13:05:34.448Z</time></trkpt><trkpt lat="46.3077296" lon="11.6945016"><ele>1463.0</ele><time>2026-04-26T13:05:35.449Z</time></trkpt><trkpt lat="46.3076201" lon="11.6946829"><ele>1465.0</ele><time>2026-04-26T13:05:36.451Z</time></trkpt><trkpt lat="46.3075083" lon="11.6948687"><ele>1465.0</ele><time>2026-04-26T13:05:37.45Z</time></trkpt><trkpt lat="46.3074017" lon="11.6950623"><ele>1465.0</ele><time>2026-04-26T13:05:38.445Z</time></trkpt><trkpt lat="46.3073254" lon="11.6952788"><ele>1465.0</ele><time>2026-04-26T13:05:39.467Z</time></trkpt><trkpt lat="46.3072504" lon="11.6954867"><ele>1464.75</ele><time>2026-04-26T13:05:40.449Z</time></trkpt><trkpt lat="46.3071707" lon="11.6956776"><ele>1464.5</ele><time>2026-04-26T13:05:41.475Z</time></trkpt><trkpt lat="46.3071239" lon="11.6958779"><ele>1464.25</ele><time>2026-04-26T13:05:42.456Z</time></trkpt><trkpt lat="46.3070842" lon="11.6960844"><ele>1464.0</ele><time>2026-04-26T13:05:43.46Z</time></trkpt><trkpt lat="46.3070611" lon="11.6963075"><ele>1464.0</ele><time>2026-04-26T13:05:44.447Z</time></trkpt><trkpt lat="46.3070469" lon="11.6965398"><ele>1464.0</ele><time>2026-04-26T13:05:45.467Z</time></trkpt><trkpt lat="46.3070105" lon="11.6967712"><ele>1464.0</ele><time>2026-04-26T13:05:46.466Z</time></trkpt><trkpt lat="46.3069833" lon="11.6970035"><ele>1461.75</ele><time>2026-04-26T13:05:47.471Z</time></trkpt><trkpt lat="46.3069632" lon="11.6972225"><ele>1459.5</ele><time>2026-04-26T13:05:48.465Z</time></trkpt><trkpt lat="46.3069476" lon="11.6974184"><ele>1457.25</ele><time>2026-04-26T13:05:49.456Z</time></trkpt><trkpt lat="46.3069393" lon="11.6975809"><ele>1455.0</ele><time>2026-04-26T13:05:50.451Z</time></trkpt><trkpt lat="46.3069468" lon="11.697717"><ele>1452.8333333333333</ele><time>2026-04-26T13:05:51.449Z</time></trkpt><trkpt lat="46.3069935" lon="11.6978375"><ele>1450.6666666666667</ele><time>2026-04-26T13:05:52.449Z</time></trkpt><trkpt lat="46.3070901" lon="11.6979172"><ele>1448.5</ele><time>2026-04-26T13:05:53.453Z</time></trkpt><trkpt lat="46.3071682" lon="11.6979697"><ele>1446.3333333333335</ele><time>2026-04-26T13:05:54.453Z</time></trkpt><trkpt lat="46.3072387" lon="11.6980006"><ele>1444.1666666666667</ele><time>2026-04-26T13:05:55.469Z</time></trkpt><trkpt lat="46.3072992" lon="11.698031"><ele>1442.0</ele><time>2026-04-26T13:05:56.46Z</time></trkpt><trkpt lat="46.3073485" lon="11.698097"><ele>1444.5</ele><time>2026-04-26T13:05:57.467Z</time></trkpt><trkpt lat="46.3073664" lon="11.6982096"><ele>1447.0</ele><time>2026-04-26T13:05:58.477Z</time></trkpt><trkpt lat="46.3073425" lon="11.6984332"><ele>1449.5</ele><time>2026-04-26T13:05:59.461Z</time></trkpt><trkpt lat="46.3072842" lon="11.6986347"><ele>1452.0</ele><time>2026-04-26T13:06:00.469Z</time></trkpt><trkpt lat="46.3072323" lon="11.6988338"><ele>1452.0</ele><time>2026-04-26T13:06:01.449Z</time></trkpt><trkpt lat="46.3072115" lon="11.6990472"><ele>1452.0</ele><time>2026-04-26T13:06:02.473Z</time></trkpt><trkpt lat="46.3071961" lon="11.699279"><ele>1452.0</ele><time>2026-04-26T13:06:03.463Z</time></trkpt><trkpt lat="46.3071681" lon="11.6995253"><ele>1459.0</ele><time>2026-04-26T13:06:04.457Z</time></trkpt><trkpt lat="46.307166" lon="11.6997894"><ele>1466.0</ele><time>2026-04-26T13:06:05.472Z</time></trkpt><trkpt lat="46.3071444" lon="11.700044"><ele>1473.0</ele><time>2026-04-26T13:06:06.457Z</time></trkpt><trkpt lat="46.3071013" lon="11.7002813"><ele>1476.5</ele><time>2026-04-26T13:06:07.457Z</time></trkpt><trkpt lat="46.3070567" lon="11.7004898"><ele>1480.0</ele><time>2026-04-26T13:06:08.456Z</time></trkpt><trkpt lat="46.3070191" lon="11.7006682"><ele>1483.5</ele><time>2026-04-26T13:06:09.459Z</time></trkpt><trkpt lat="46.3069777" lon="11.7008285"><ele>1487.0</ele><time>2026-04-26T13:06:10.441Z</time></trkpt><trkpt lat="46.3069373" lon="11.7009857"><ele>1486.6</ele><time>2026-04-26T13:06:11.456Z</time></trkpt><trkpt lat="46.3069028" lon="11.70114"><ele>1486.1999999999998</ele><time>2026-04-26T13:06:12.454Z</time></trkpt><trkpt lat="46.3068731" lon="11.7012864"><ele>1485.8</ele><time>2026-04-26T13:06:13.467Z</time></trkpt><trkpt lat="46.3068421" lon="11.7014203"><ele>1485.4</ele><time>2026-04-26T13:06:14.452Z</time></trkpt><trkpt lat="46.3068131" lon="11.7015445"><ele>1485.0</ele><time>2026-04-26T13:06:15.454Z</time></trkpt><trkpt lat="46.3067835" lon="11.7016689"><ele>1485.0</ele><time>2026-04-26T13:06:16.449Z</time></trkpt><trkpt lat="46.3067554" lon="11.701808"><ele>1485.0</ele><time>2026-04-26T13:06:17.456Z</time></trkpt><trkpt lat="46.3067221" lon="11.7019542"><ele>1485.0</ele><time>2026-04-26T13:06:18.453Z</time></trkpt><trkpt lat="46.306684" lon="11.7021104"><ele>1485.0</ele><time>2026-04-26T13:06:19.46Z</time></trkpt><trkpt lat="46.3066444" lon="11.7022769"><ele>1485.0</ele><time>2026-04-26T13:06:20.452Z</time></trkpt><trkpt lat="46.3066012" lon="11.7024519"><ele>1485.5</ele><time>2026-04-26T13:06:21.451Z</time></trkpt><trkpt lat="46.3065591" lon="11.7026395"><ele>1486.0</ele><time>2026-04-26T13:06:22.454Z</time></trkpt><trkpt lat="46.3065134" lon="11.702844"><ele>1486.5</ele><time>2026-04-26T13:06:23.456Z</time></trkpt><trkpt lat="46.3064629" lon="11.7030562"><ele>1487.0</ele><time>2026-04-26T13:06:24.455Z</time></trkpt><trkpt lat="46.3064104" lon="11.7032709"><ele>1479.75</ele><time>2026-04-26T13:06:25.46Z</time></trkpt><trkpt lat="46.3063611" lon="11.7034843"><ele>1472.5</ele><time>2026-04-26T13:06:26.454Z</time></trkpt><trkpt lat="46.3063143" lon="11.7036881"><ele>1465.25</ele><time>2026-04-26T13:06:27.476Z</time></trkpt><trkpt lat="46.3062756" lon="11.7038747"><ele>1458.0</ele><time>2026-04-26T13:06:28.466Z</time></trkpt><trkpt lat="46.3062413" lon="11.704044"><ele>1458.0</ele><time>2026-04-26T13:06:29.47Z</time></trkpt><trkpt lat="46.3061912" lon="11.7041952"><ele>1458.0</ele><time>2026-04-26T13:06:30.478Z</time></trkpt><trkpt lat="46.3061533" lon="11.7043443"><ele>1458.0</ele><time>2026-04-26T13:06:31.457Z</time></trkpt><trkpt lat="46.306127" lon="11.7044923"><ele>1458.0</ele><time>2026-04-26T13:06:32.472Z</time></trkpt><trkpt lat="46.306111" lon="11.7046397"><ele>1458.0</ele><time>2026-04-26T13:06:33.467Z</time></trkpt><trkpt lat="46.3061012" lon="11.7047847"><ele>1458.2</ele><time>2026-04-26T13:06:34.454Z</time></trkpt><trkpt lat="46.3060965" lon="11.7049278"><ele>1458.4</ele><time>2026-04-26T13:06:35.457Z</time></trkpt><trkpt lat="46.3060939" lon="11.7050722"><ele>1458.6000000000001</ele><time>2026-04-26T13:06:36.464Z</time></trkpt><trkpt lat="46.3060915" lon="11.7052215"><ele>1458.8000000000002</ele><time>2026-04-26T13:06:37.449Z</time></trkpt><trkpt lat="46.3060397" lon="11.7054022"><ele>1459.0</ele><time>2026-04-26T13:06:38.474Z</time></trkpt><trkpt lat="46.3060067" lon="11.7055683"><ele>1461.0</ele><time>2026-04-26T13:06:39.472Z</time></trkpt><trkpt lat="46.3059966" lon="11.7057286"><ele>1463.0</ele><time>2026-04-26T13:06:40.461Z</time></trkpt><trkpt lat="46.3059561" lon="11.7058903"><ele>1465.0</ele><time>2026-04-26T13:06:41.464Z</time></trkpt><trkpt lat="46.3059344" lon="11.7060609"><ele>1467.0</ele><time>2026-04-26T13:06:42.463Z</time></trkpt><trkpt lat="46.3059177" lon="11.7062381"><ele>1470.75</ele><time>2026-04-26T13:06:43.459Z</time></trkpt><trkpt lat="46.3059209" lon="11.7064156"><ele>1474.5</ele><time>2026-04-26T13:06:44.467Z</time></trkpt><trkpt lat="46.3059091" lon="11.7065832"><ele>1478.25</ele><time>2026-04-26T13:06:45.461Z</time></trkpt><trkpt lat="46.3058929" lon="11.7067504"><ele>1482.0</ele><time>2026-04-26T13:06:46.443Z</time></trkpt><trkpt lat="46.3058792" lon="11.7069168"><ele>1484.5</ele><time>2026-04-26T13:06:47.477Z</time></trkpt><trkpt lat="46.3058593" lon="11.707087"><ele>1487.0</ele><time>2026-04-26T13:06:48.458Z</time></trkpt><trkpt lat="46.3058359" lon="11.7072658"><ele>1489.5</ele><time>2026-04-26T13:06:49.448Z</time></trkpt><trkpt lat="46.3057669" lon="11.7074253"><ele>1492.0</ele><time>2026-04-26T13:06:50.455Z</time></trkpt><trkpt lat="46.305721" lon="11.7075937"><ele>1491.5</ele><time>2026-04-26T13:06:51.462Z</time></trkpt><trkpt lat="46.3057242" lon="11.7077813"><ele>1491.0</ele><time>2026-04-26T13:06:52.455Z</time></trkpt><trkpt lat="46.3057161" lon="11.7079683"><ele>1490.5</ele><time>2026-04-26T13:06:53.492Z</time></trkpt><trkpt lat="46.3057032" lon="11.7081548"><ele>1490.0</ele><time>2026-04-26T13:06:54.443Z</time></trkpt><trkpt lat="46.3056774" lon="11.7083465"><ele>1490.0</ele><time>2026-04-26T13:06:55.461Z</time></trkpt><trkpt lat="46.3056438" lon="11.708544"><ele>1490.0</ele><time>2026-04-26T13:06:56.472Z</time></trkpt><trkpt lat="46.305587" lon="11.7087351"><ele>1490.0</ele><time>2026-04-26T13:06:57.468Z</time></trkpt><trkpt lat="46.3055244" lon="11.708914"><ele>1490.0</ele><time>2026-04-26T13:06:58.452Z</time></trkpt><trkpt lat="46.305498" lon="11.709099"><ele>1484.25</ele><time>2026-04-26T13:06:59.464Z</time></trkpt><trkpt lat="46.3054818" lon="11.7092866"><ele>1478.5</ele><time>2026-04-26T13:07:00.455Z</time></trkpt><trkpt lat="46.3054601" lon="11.7094748"><ele>1472.75</ele><time>2026-04-26T13:07:01.454Z</time></trkpt><trkpt lat="46.3054089" lon="11.7096464"><ele>1467.0</ele><time>2026-04-26T13:07:02.45Z</time></trkpt><trkpt lat="46.3053633" lon="11.7098208"><ele>1467.0</ele><time>2026-04-26T13:07:03.473Z</time></trkpt><trkpt lat="46.305291" lon="11.7099786"><ele>1467.0</ele><time>2026-04-26T13:07:04.455Z</time></trkpt><trkpt lat="46.3051973" lon="11.7101159"><ele>1467.0</ele><time>2026-04-26T13:07:05.464Z</time></trkpt><trkpt lat="46.3051038" lon="11.7102526"><ele>1467.0</ele><time>2026-04-26T13:07:06.459Z</time></trkpt><trkpt lat="46.3050253" lon="11.710411"><ele>1463.5</ele><time>2026-04-26T13:07:07.472Z</time></trkpt><trkpt lat="46.3049453" lon="11.7105517"><ele>1460.0</ele><time>2026-04-26T13:07:08.479Z</time></trkpt><trkpt lat="46.3048542" lon="11.7106906"><ele>1456.5</ele><time>2026-04-26T13:07:09.472Z</time></trkpt><trkpt lat="46.3047724" lon="11.710852"><ele>1453.0</ele><time>2026-04-26T13:07:10.468Z</time></trkpt><trkpt lat="46.3047188" lon="11.711025"><ele>1455.5</ele><time>2026-04-26T13:07:11.456Z</time></trkpt><trkpt lat="46.3046668" lon="11.7112128"><ele>1458.0</ele><time>2026-04-26T13:07:12.455Z</time></trkpt><trkpt lat="46.3010528" lon="11.7167159"><ele>1458.0</ele><time>2026-04-26T13:07:47.409Z</time></trkpt><trkpt lat="46.300971" lon="11.7168641"><ele>1458.0</ele><time>2026-04-26T13:07:48.478Z</time></trkpt><trkpt lat="46.300909" lon="11.7170186"><ele>1458.0</ele><time>2026-04-26T13:07:49.456Z</time></trkpt><trkpt lat="46.300867" lon="11.717186"><ele>1458.0</ele><time>2026-04-26T13:07:50.447Z</time></trkpt><trkpt lat="46.3008545" lon="11.7173563"><ele>1460.5</ele><time>2026-04-26T13:07:51.455Z</time></trkpt><trkpt lat="46.3008413" lon="11.7175277"><ele>1463.0</ele><time>2026-04-26T13:07:52.449Z</time></trkpt><trkpt lat="46.3007884" lon="11.7176702"><ele>1465.5</ele><time>2026-04-26T13:07:53.454Z</time></trkpt><trkpt lat="46.3007723" lon="11.7178348"><ele>1468.0</ele><time>2026-04-26T13:07:54.466Z</time></trkpt><trkpt lat="46.3007467" lon="11.7179902"><ele>1471.4</ele><time>2026-04-26T13:07:55.451Z</time></trkpt><trkpt lat="46.3007225" lon="11.7181453"><ele>1474.8000000000002</ele><time>2026-04-26T13:07:56.463Z</time></trkpt><trkpt lat="46.300695" lon="11.7182922"><ele>1478.2</ele><time>2026-04-26T13:07:57.452Z</time></trkpt><trkpt lat="46.3006661" lon="11.7184362"><ele>1481.6</ele><time>2026-04-26T13:07:58.461Z</time></trkpt><trkpt lat="46.3006084" lon="11.7185771"><ele>1485.0</ele><time>2026-04-26T13:07:59.456Z</time></trkpt><trkpt lat="46.3005457" lon="11.7187126"><ele>1475.5</ele><time>2026-04-26T13:08:00.452Z</time></trkpt><trkpt lat="46.3004813" lon="11.7188566"><ele>1466.0</ele><time>2026-04-26T13:08:01.457Z</time></trkpt><trkpt lat="46.3004191" lon="11.7190152"><ele>1456.5</ele><time>2026-04-26T13:08:02.458Z</time></trkpt><trkpt lat="46.3003949" lon="11.7192105"><ele>1447.0</ele><time>2026-04-26T13:08:03.455Z</time></trkpt><trkpt lat="46.3003852" lon="11.7194202"><ele>1447.0</ele><time>2026-04-26T13:08:04.463Z</time></trkpt><trkpt lat="46.3003832" lon="11.7196257"><ele>1447.0</ele><time>2026-04-26T13:08:05.456Z</time></trkpt><trkpt lat="46.3003725" lon="11.7198248"><ele>1447.0</ele><time>2026-04-26T13:08:06.472Z</time></trkpt><trkpt lat="46.3003456" lon="11.7200318"><ele>1447.0</ele><time>2026-04-26T13:08:07.458Z</time></trkpt><trkpt lat="46.3003473" lon="11.720236"><ele>1447.0</ele><time>2026-04-26T13:08:08.461Z</time></trkpt><trkpt lat="46.3003545" lon="11.7204456"><ele>1447.0</ele><time>2026-04-26T13:08:09.47Z</time></trkpt><trkpt lat="46.300336" lon="11.7206516"><ele>1447.0</ele><time>2026-04-26T13:08:10.459Z</time></trkpt><trkpt lat="46.3003175" lon="11.7208623"><ele>1447.0</ele><time>2026-04-26T13:08:11.466Z</time></trkpt><trkpt lat="46.3003073" lon="11.7210773"><ele>1447.0</ele><time>2026-04-26T13:08:12.455Z</time></trkpt><trkpt lat="46.3002913" lon="11.7212909"><ele>1447.0</ele><time>2026-04-26T13:08:13.461Z</time></trkpt><trkpt lat="46.3002778" lon="11.7215081"><ele>1447.0</ele><time>2026-04-26T13:08:14.465Z</time></trkpt><trkpt lat="46.3002433" lon="11.7217266"><ele>1447.0</ele><time>2026-04-26T13:08:15.476Z</time></trkpt><trkpt lat="46.3002304" lon="11.7219596"><ele>1447.0</ele><time>2026-04-26T13:08:16.467Z</time></trkpt><trkpt lat="46.3002218" lon="11.7222007"><ele>1447.0</ele><time>2026-04-26T13:08:17.461Z</time></trkpt><trkpt lat="46.3002185" lon="11.7224484"><ele>1449.6666666666665</ele><time>2026-04-26T13:08:18.463Z</time></trkpt><trkpt lat="46.3002174" lon="11.7227004"><ele>1452.3333333333333</ele><time>2026-04-26T13:08:19.462Z</time></trkpt><trkpt lat="46.3002141" lon="11.7229511"><ele>1455.0</ele><time>2026-04-26T13:08:20.458Z</time></trkpt><trkpt lat="46.3002225" lon="11.7232027"><ele>1455.0</ele><time>2026-04-26T13:08:21.454Z</time></trkpt><trkpt lat="46.3002355" lon="11.7234533"><ele>1455.0</ele><time>2026-04-26T13:08:22.457Z</time></trkpt><trkpt lat="46.3002617" lon="11.7236987"><ele>1455.0</ele><time>2026-04-26T13:08:23.45Z</time></trkpt><trkpt lat="46.3002911" lon="11.7239358"><ele>1455.0</ele><time>2026-04-26T13:08:24.468Z</time></trkpt><trkpt lat="46.3003167" lon="11.724166"><ele>1455.0</ele><time>2026-04-26T13:08:25.464Z</time></trkpt><trkpt lat="46.3003513" lon="11.724389"><ele>1455.0</ele><time>2026-04-26T13:08:26.451Z</time></trkpt><trkpt lat="46.3004101" lon="11.7246087"><ele>1453.6666666666667</ele><time>2026-04-26T13:08:27.463Z</time></trkpt><trkpt lat="46.3004308" lon="11.724841"><ele>1452.3333333333335</ele><time>2026-04-26T13:08:28.462Z</time></trkpt><trkpt lat="46.3004285" lon="11.7250819"><ele>1451.0</ele><time>2026-04-26T13:08:29.47Z</time></trkpt><trkpt lat="46.3004357" lon="11.7253327"><ele>1451.0</ele><time>2026-04-26T13:08:30.459Z</time></trkpt><trkpt lat="46.3004721" lon="11.7255939"><ele>1451.0</ele><time>2026-04-26T13:08:31.46Z</time></trkpt><trkpt lat="46.3005081" lon="11.7258442"><ele>1451.0</ele><time>2026-04-26T13:08:32.461Z</time></trkpt><trkpt lat="46.3005456" lon="11.7260803"><ele>1451.3333333333335</ele><time>2026-04-26T13:08:33.459Z</time></trkpt><trkpt lat="46.3005819" lon="11.7263193"><ele>1451.6666666666667</ele><time>2026-04-26T13:08:34.475Z</time></trkpt><trkpt lat="46.300602" lon="11.7265715"><ele>1452.0</ele><time>2026-04-26T13:08:35.467Z</time></trkpt><trkpt lat="46.300637" lon="11.7268148"><ele>1464.3333333333333</ele><time>2026-04-26T13:08:36.467Z</time></trkpt><trkpt lat="46.300666" lon="11.7270483"><ele>1476.6666666666665</ele><time>2026-04-26T13:08:37.461Z</time></trkpt><trkpt lat="46.3007138" lon="11.7272749"><ele>1489.0</ele><time>2026-04-26T13:08:38.45Z</time></trkpt><trkpt lat="46.300778" lon="11.7274828"><ele>1489.0</ele><time>2026-04-26T13:08:39.458Z</time></trkpt><trkpt lat="46.3008671" lon="11.7276705"><ele>1489.0</ele><time>2026-04-26T13:08:40.466Z</time></trkpt><trkpt lat="46.3009661" lon="11.7278563"><ele>1489.0</ele><time>2026-04-26T13:08:41.458Z</time></trkpt><trkpt lat="46.3010768" lon="11.7280338"><ele>1485.6666666666665</ele><time>2026-04-26T13:08:42.454Z</time></trkpt><trkpt lat="46.301147" lon="11.7282396"><ele>1482.3333333333333</ele><time>2026-04-26T13:08:43.456Z</time></trkpt><trkpt lat="46.3011925" lon="11.7284677"><ele>1479.0</ele><time>2026-04-26T13:08:44.463Z</time></trkpt><trkpt lat="46.3012567" lon="11.7286896"><ele>1473.3333333333333</ele><time>2026-04-26T13:08:45.469Z</time></trkpt><trkpt lat="46.3013134" lon="11.7289055"><ele>1467.6666666666665</ele><time>2026-04-26T13:08:46.456Z</time></trkpt><trkpt lat="46.3013938" lon="11.7291005"><ele>1462.0</ele><time>2026-04-26T13:08:47.448Z</time></trkpt><trkpt lat="46.3014646" lon="11.7292909"><ele>1463.75</ele><time>2026-04-26T13:08:48.453Z</time></trkpt><trkpt lat="46.3015841" lon="11.7294318"><ele>1465.5</ele><time>2026-04-26T13:08:49.46Z</time></trkpt><trkpt lat="46.3017038" lon="11.7295412"><ele>1467.25</ele><time>2026-04-26T13:08:50.465Z</time></trkpt><trkpt lat="46.3018289" lon="11.729615"><ele>1469.0</ele><time>2026-04-26T13:08:51.448Z</time></trkpt><trkpt lat="46.3019569" lon="11.7296932"><ele>1469.0</ele><time>2026-04-26T13:08:52.474Z</time></trkpt><trkpt lat="46.3020894" lon="11.729784"><ele>1469.0</ele><time>2026-04-26T13:08:53.464Z</time></trkpt><trkpt lat="46.3022142" lon="11.7298824"><ele>1469.0</ele><time>2026-04-26T13:08:54.461Z</time></trkpt><trkpt lat="46.3023322" lon="11.7299966"><ele>1469.0</ele><time>2026-04-26T13:08:55.467Z</time></trkpt><trkpt lat="46.3024297" lon="11.7301456"><ele>1472.25</ele><time>2026-04-26T13:08:56.457Z</time></trkpt><trkpt lat="46.3025048" lon="11.7303264"><ele>1475.5</ele><time>2026-04-26T13:08:57.469Z</time></trkpt><trkpt lat="46.3026014" lon="11.7304826"><ele>1478.75</ele><time>2026-04-26T13:08:58.458Z</time></trkpt><trkpt lat="46.3027123" lon="11.7306319"><ele>1482.0</ele><time>2026-04-26T13:08:59.455Z</time></trkpt><trkpt lat="46.3028316" lon="11.7307682"><ele>1482.0</ele><time>2026-04-26T13:09:00.462Z</time></trkpt><trkpt lat="46.3029409" lon="11.7309281"><ele>1482.0</ele><time>2026-04-26T13:09:01.473Z</time></trkpt><trkpt lat="46.3030407" lon="11.7311085"><ele>1482.0</ele><time>2026-04-26T13:09:02.471Z</time></trkpt><trkpt lat="46.3031206" lon="11.7313365"><ele>1486.3333333333333</ele><time>2026-04-26T13:09:03.476Z</time></trkpt><trkpt lat="46.3031877" lon="11.7315731"><ele>1490.6666666666665</ele><time>2026-04-26T13:09:04.457Z</time></trkpt><trkpt lat="46.3032384" lon="11.7318079"><ele>1495.0</ele><time>2026-04-26T13:09:05.45Z</time></trkpt><trkpt lat="46.3032832" lon="11.7320397"><ele>1495.0</ele><time>2026-04-26T13:09:06.465Z</time></trkpt><trkpt lat="46.3033475" lon="11.7322533"><ele>1495.0</ele><time>2026-04-26T13:09:07.455Z</time></trkpt><trkpt lat="46.303442" lon="11.7324517"><ele>1495.0</ele><time>2026-04-26T13:09:08.449Z</time></trkpt><trkpt lat="46.3035491" lon="11.7326323"><ele>1491.0</ele><time>2026-04-26T13:09:09.458Z</time></trkpt><trkpt lat="46.303668" lon="11.7327934"><ele>1487.0</ele><time>2026-04-26T13:09:10.464Z</time></trkpt><trkpt lat="46.3038001" lon="11.7329305"><ele>1483.0</ele><time>2026-04-26T13:09:11.47Z</time></trkpt><trkpt lat="46.3039415" lon="11.7330447"><ele>1489.0</ele><time>2026-04-26T13:09:12.478Z</time></trkpt><trkpt lat="46.3040789" lon="11.7331367"><ele>1495.0</ele><time>2026-04-26T13:09:13.474Z</time></trkpt><trkpt lat="46.3042119" lon="11.7332188"><ele>1501.0</ele><time>2026-04-26T13:09:14.473Z</time></trkpt><trkpt lat="46.3043308" lon="11.7333482"><ele>1507.0</ele><time>2026-04-26T13:09:15.461Z</time></trkpt><trkpt lat="46.3044364" lon="11.7335076"><ele>1505.0</ele><time>2026-04-26T13:09:16.46Z</time></trkpt><trkpt lat="46.304521" lon="11.7337039"><ele>1503.0</ele><time>2026-04-26T13:09:17.475Z</time></trkpt><trkpt lat="46.3045881" lon="11.7339228"><ele>1501.0</ele><time>2026-04-26T13:09:18.459Z</time></trkpt><trkpt lat="46.3046671" lon="11.7341392"><ele>1506.0</ele><time>2026-04-26T13:09:19.474Z</time></trkpt><trkpt lat="46.304754" lon="11.734341"><ele>1511.0</ele><time>2026-04-26T13:09:20.458Z</time></trkpt><trkpt lat="46.3048339" lon="11.7345371"><ele>1516.0</ele><time>2026-04-26T13:09:21.466Z</time></trkpt><trkpt lat="46.3048934" lon="11.7347446"><ele>1516.0</ele><time>2026-04-26T13:09:22.454Z</time></trkpt><trkpt lat="46.304898" lon="11.7349689"><ele>1516.0</ele><time>2026-04-26T13:09:23.466Z</time></trkpt><trkpt lat="46.3049043" lon="11.7351806"><ele>1516.0</ele><time>2026-04-26T13:09:24.466Z</time></trkpt><trkpt lat="46.3049456" lon="11.7353752"><ele>1516.0</ele><time>2026-04-26T13:09:25.462Z</time></trkpt><trkpt lat="46.3050346" lon="11.7355412"><ele>1513.25</ele><time>2026-04-26T13:09:26.457Z</time></trkpt><trkpt lat="46.3051194" lon="11.7357075"><ele>1510.5</ele><time>2026-04-26T13:09:27.471Z</time></trkpt><trkpt lat="46.3051983" lon="11.7358662"><ele>1507.75</ele><time>2026-04-26T13:09:28.478Z</time></trkpt><trkpt lat="46.3052541" lon="11.7360235"><ele>1505.0</ele><time>2026-04-26T13:09:29.468Z</time></trkpt><trkpt lat="46.3052949" lon="11.7361718"><ele>1504.5</ele><time>2026-04-26T13:09:30.454Z</time></trkpt><trkpt lat="46.3053832" lon="11.7362793"><ele>1504.0</ele><time>2026-04-26T13:09:31.468Z</time></trkpt><trkpt lat="46.3054784" lon="11.7363697"><ele>1503.5</ele><time>2026-04-26T13:09:32.448Z</time></trkpt><trkpt lat="46.3055884" lon="11.7363946"><ele>1503.0</ele><time>2026-04-26T13:09:33.451Z</time></trkpt><trkpt lat="46.3056997" lon="11.7363535"><ele>1506.0</ele><time>2026-04-26T13:09:34.457Z</time></trkpt><trkpt lat="46.3058093" lon="11.7363092"><ele>1509.0</ele><time>2026-04-26T13:09:35.449Z</time></trkpt><trkpt lat="46.3059185" lon="11.7362592"><ele>1512.0</ele><time>2026-04-26T13:09:36.471Z</time></trkpt><trkpt lat="46.306039" lon="11.7362925"><ele>1515.0</ele><time>2026-04-26T13:09:37.46Z</time></trkpt><trkpt lat="46.3061449" lon="11.7363613"><ele>1515.0</ele><time>2026-04-26T13:09:38.461Z</time></trkpt><trkpt lat="46.3062367" lon="11.7364841"><ele>1515.0</ele><time>2026-04-26T13:09:39.456Z</time></trkpt><trkpt lat="46.3062874" lon="11.7366597"><ele>1515.0</ele><time>2026-04-26T13:09:40.468Z</time></trkpt><trkpt lat="46.3063268" lon="11.7368519"><ele>1515.0</ele><time>2026-04-26T13:09:41.468Z</time></trkpt><trkpt lat="46.3063291" lon="11.7370752"><ele>1514.0</ele><time>2026-04-26T13:09:42.444Z</time></trkpt><trkpt lat="46.3063568" lon="11.7372937"><ele>1513.0</ele><time>2026-04-26T13:09:43.466Z</time></trkpt><trkpt lat="46.3063645" lon="11.7375158"><ele>1512.0</ele><time>2026-04-26T13:09:44.454Z</time></trkpt><trkpt lat="46.3063857" lon="11.7377425"><ele>1512.0</ele><time>2026-04-26T13:09:45.449Z</time></trkpt><trkpt lat="46.3064103" lon="11.7379752"><ele>1512.0</ele><time>2026-04-26T13:09:46.453Z</time></trkpt><trkpt lat="46.306438" lon="11.7382124"><ele>1512.0</ele><time>2026-04-26T13:09:47.455Z</time></trkpt><trkpt lat="46.306496" lon="11.7384481"><ele>1512.0</ele><time>2026-04-26T13:09:48.463Z</time></trkpt><trkpt lat="46.3065606" lon="11.7386856"><ele>1512.0</ele><time>2026-04-26T13:09:49.456Z</time></trkpt><trkpt lat="46.3066244" lon="11.7389255"><ele>1512.0</ele><time>2026-04-26T13:09:50.468Z</time></trkpt><trkpt lat="46.3066951" lon="11.7391597"><ele>1510.6666666666667</ele><time>2026-04-26T13:09:51.477Z</time></trkpt><trkpt lat="46.3067563" lon="11.7393929"><ele>1509.3333333333335</ele><time>2026-04-26T13:09:52.456Z</time></trkpt><trkpt lat="46.3068391" lon="11.7396139"><ele>1508.0</ele><time>2026-04-26T13:09:53.457Z</time></trkpt><trkpt lat="46.3069174" lon="11.7398347"><ele>1508.0</ele><time>2026-04-26T13:09:54.455Z</time></trkpt><trkpt lat="46.3070076" lon="11.7400479"><ele>1508.0</ele><time>2026-04-26T13:09:55.466Z</time></trkpt><trkpt lat="46.307109" lon="11.740252"><ele>1508.0</ele><time>2026-04-26T13:09:56.456Z</time></trkpt><trkpt lat="46.30721" lon="11.7404528"><ele>1511.3333333333335</ele><time>2026-04-26T13:09:57.446Z</time></trkpt><trkpt lat="46.307312" lon="11.7406455"><ele>1514.6666666666667</ele><time>2026-04-26T13:09:58.471Z</time></trkpt><trkpt lat="46.3074069" lon="11.7408365"><ele>1518.0</ele><time>2026-04-26T13:09:59.466Z</time></trkpt><trkpt lat="46.3074881" lon="11.7410346"><ele>1517.6666666666667</ele><time>2026-04-26T13:10:00.448Z</time></trkpt><trkpt lat="46.3075453" lon="11.741241"><ele>1517.3333333333335</ele><time>2026-04-26T13:10:01.475Z</time></trkpt><trkpt lat="46.3075801" lon="11.7414516"><ele>1517.0</ele><time>2026-04-26T13:10:02.462Z</time></trkpt><trkpt lat="46.3075598" lon="11.7416733"><ele>1516.6666666666667</ele><time>2026-04-26T13:10:03.461Z</time></trkpt><trkpt lat="46.3075344" lon="11.7419005"><ele>1516.3333333333333</ele><time>2026-04-26T13:10:04.465Z</time></trkpt><trkpt lat="46.3075297" lon="11.742147"><ele>1516.0</ele><time>2026-04-26T13:10:05.457Z</time></trkpt><trkpt lat="46.3075269" lon="11.742407"><ele>1516.0</ele><time>2026-04-26T13:10:06.461Z</time></trkpt><trkpt lat="46.307565" lon="11.7426679"><ele>1516.0</ele><time>2026-04-26T13:10:07.464Z</time></trkpt><trkpt lat="46.3076005" lon="11.7429253"><ele>1516.0</ele><time>2026-04-26T13:10:08.452Z</time></trkpt><trkpt lat="46.3076274" lon="11.7431779"><ele>1515.6666666666665</ele><time>2026-04-26T13:10:09.456Z</time></trkpt><trkpt lat="46.3076521" lon="11.7434256"><ele>1515.3333333333333</ele><time>2026-04-26T13:10:10.463Z</time></trkpt><trkpt lat="46.3076782" lon="11.7436715"><ele>1515.0</ele><time>2026-04-26T13:10:11.469Z</time></trkpt><trkpt lat="46.3077142" lon="11.7439181"><ele>1515.0</ele><time>2026-04-26T13:10:12.472Z</time></trkpt><trkpt lat="46.3077567" lon="11.7441682"><ele>1515.0</ele><time>2026-04-26T13:10:13.466Z</time></trkpt><trkpt lat="46.3078205" lon="11.7444138"><ele>1515.0</ele><time>2026-04-26T13:10:14.471Z</time></trkpt><trkpt lat="46.3078896" lon="11.7446568"><ele>1515.6666666666667</ele><time>2026-04-26T13:10:15.454Z</time></trkpt><trkpt lat="46.3079621" lon="11.7448893"><ele>1516.3333333333335</ele><time>2026-04-26T13:10:16.453Z</time></trkpt><trkpt lat="46.3080305" lon="11.7451095"><ele>1517.0</ele><time>2026-04-26T13:10:17.468Z</time></trkpt><trkpt lat="46.3081001" lon="11.7453103"><ele>1519.0</ele><time>2026-04-26T13:10:18.461Z</time></trkpt><trkpt lat="46.3081733" lon="11.7454875"><ele>1521.0</ele><time>2026-04-26T13:10:19.467Z</time></trkpt><trkpt lat="46.3082659" lon="11.7456314"><ele>1523.0</ele><time>2026-04-26T13:10:20.457Z</time></trkpt><trkpt lat="46.3083779" lon="11.7457426"><ele>1525.0</ele><time>2026-04-26T13:10:21.47Z</time></trkpt><trkpt lat="46.3085172" lon="11.7458164"><ele>1525.0</ele><time>2026-04-26T13:10:22.45Z</time></trkpt><trkpt lat="46.3086472" lon="11.7458886"><ele>1525.0</ele><time>2026-04-26T13:10:23.46Z</time></trkpt><trkpt lat="46.3087742" lon="11.745991"><ele>1525.0</ele><time>2026-04-26T13:10:24.464Z</time></trkpt><trkpt lat="46.30889" lon="11.7461179"><ele>1525.0</ele><time>2026-04-26T13:10:25.459Z</time></trkpt><trkpt lat="46.3090001" lon="11.7462502"><ele>1528.75</ele><time>2026-04-26T13:10:26.449Z</time></trkpt><trkpt lat="46.3090903" lon="11.7464038"><ele>1532.5</ele><time>2026-04-26T13:10:27.464Z</time></trkpt><trkpt lat="46.3091449" lon="11.7465815"><ele>1536.25</ele><time>2026-04-26T13:10:28.468Z</time></trkpt><trkpt lat="46.3091835" lon="11.7467653"><ele>1540.0</ele><time>2026-04-26T13:10:29.466Z</time></trkpt><trkpt lat="46.30919" lon="11.7469699"><ele>1540.0</ele><time>2026-04-26T13:10:30.478Z</time></trkpt><trkpt lat="46.3092216" lon="11.7471655"><ele>1540.0</ele><time>2026-04-26T13:10:31.479Z</time></trkpt><trkpt lat="46.3092816" lon="11.7473594"><ele>1540.0</ele><time>2026-04-26T13:10:32.452Z</time></trkpt><trkpt lat="46.3093553" lon="11.7475472"><ele>1540.0</ele><time>2026-04-26T13:10:33.455Z</time></trkpt><trkpt lat="46.3094293" lon="11.7477238"><ele>1541.5</ele><time>2026-04-26T13:10:34.449Z</time></trkpt><trkpt lat="46.309501" lon="11.7478893"><ele>1543.0</ele><time>2026-04-26T13:10:35.479Z</time></trkpt><trkpt lat="46.3095607" lon="11.7480483"><ele>1544.5</ele><time>2026-04-26T13:10:36.475Z</time></trkpt><trkpt lat="46.3096014" lon="11.7482043"><ele>1546.0</ele><time>2026-04-26T13:10:37.461Z</time></trkpt><trkpt lat="46.3096227" lon="11.7483531"><ele>1546.0</ele><time>2026-04-26T13:10:38.468Z</time></trkpt><trkpt lat="46.3095985" lon="11.7485046"><ele>1546.0</ele><time>2026-04-26T13:10:39.455Z</time></trkpt><trkpt lat="46.3095369" lon="11.7486414"><ele>1546.0</ele><time>2026-04-26T13:10:40.449Z</time></trkpt><trkpt lat="46.3094324" lon="11.7487559"><ele>1546.0</ele><time>2026-04-26T13:10:41.453Z</time></trkpt><trkpt lat="46.3093148" lon="11.7488722"><ele>1547.0</ele><time>2026-04-26T13:10:42.459Z</time></trkpt><trkpt lat="46.3091922" lon="11.7489784"><ele>1548.0</ele><time>2026-04-26T13:10:43.467Z</time></trkpt><trkpt lat="46.3090741" lon="11.7490603"><ele>1549.0</ele><time>2026-04-26T13:10:44.464Z</time></trkpt><trkpt lat="46.308974" lon="11.7491531"><ele>1550.0</ele><time>2026-04-26T13:10:45.474Z</time></trkpt><trkpt lat="46.3088977" lon="11.7492857"><ele>1552.5</ele><time>2026-04-26T13:10:46.471Z</time></trkpt><trkpt lat="46.3088261" lon="11.7494397"><ele>1555.0</ele><time>2026-04-26T13:10:47.458Z</time></trkpt><trkpt lat="46.308747" lon="11.7496014"><ele>1557.5</ele><time>2026-04-26T13:10:48.473Z</time></trkpt><trkpt lat="46.3086558" lon="11.7497537"><ele>1560.0</ele><time>2026-04-26T13:10:49.457Z</time></trkpt><trkpt lat="46.3085913" lon="11.749928"><ele>1560.0</ele><time>2026-04-26T13:10:50.46Z</time></trkpt><trkpt lat="46.3085613" lon="11.7501212"><ele>1560.0</ele><time>2026-04-26T13:10:51.464Z</time></trkpt><trkpt lat="46.3085357" lon="11.7503088"><ele>1560.0</ele><time>2026-04-26T13:10:52.473Z</time></trkpt><trkpt lat="46.308517" lon="11.7504833"><ele>1560.0</ele><time>2026-04-26T13:10:53.475Z</time></trkpt><trkpt lat="46.308472" lon="11.7506309"><ele>1559.8</ele><time>2026-04-26T13:10:54.466Z</time></trkpt><trkpt lat="46.3084392" lon="11.7507737"><ele>1559.6</ele><time>2026-04-26T13:10:55.457Z</time></trkpt><trkpt lat="46.30844" lon="11.7509311"><ele>1559.4</ele><time>2026-04-26T13:10:56.457Z</time></trkpt><trkpt lat="46.3084752" lon="11.7510827"><ele>1559.2</ele><time>2026-04-26T13:10:57.463Z</time></trkpt><trkpt lat="46.3085209" lon="11.7512412"><ele>1559.0</ele><time>2026-04-26T13:10:58.464Z</time></trkpt><trkpt lat="46.3085491" lon="11.7514191"><ele>1559.0</ele><time>2026-04-26T13:10:59.469Z</time></trkpt><trkpt lat="46.3085845" lon="11.7516041"><ele>1559.0</ele><time>2026-04-26T13:11:00.456Z</time></trkpt><trkpt lat="46.3086226" lon="11.7517945"><ele>1559.0</ele><time>2026-04-26T13:11:01.456Z</time></trkpt><trkpt lat="46.3086698" lon="11.7519823"><ele>1559.0</ele><time>2026-04-26T13:11:02.464Z</time></trkpt><trkpt lat="46.308711" lon="11.7521664"><ele>1559.25</ele><time>2026-04-26T13:11:03.449Z</time></trkpt><trkpt lat="46.3087464" lon="11.7523496"><ele>1559.5</ele><time>2026-04-26T13:11:04.452Z</time></trkpt><trkpt lat="46.3088062" lon="11.7525284"><ele>1559.75</ele><time>2026-04-26T13:11:05.463Z</time></trkpt><trkpt lat="46.3088714" lon="11.7527143"><ele>1560.0</ele><time>2026-04-26T13:11:06.459Z</time></trkpt><trkpt lat="46.3089435" lon="11.7528989"><ele>1559.0</ele><time>2026-04-26T13:11:07.471Z</time></trkpt><trkpt lat="46.3090073" lon="11.7530866"><ele>1558.0</ele><time>2026-04-26T13:11:08.449Z</time></trkpt><trkpt lat="46.3090779" lon="11.7532612"><ele>1557.0</ele><time>2026-04-26T13:11:09.462Z</time></trkpt><trkpt lat="46.3091693" lon="11.7534135"><ele>1556.0</ele><time>2026-04-26T13:11:10.446Z</time></trkpt><trkpt lat="46.3092568" lon="11.753567"><ele>1556.0</ele><time>2026-04-26T13:11:11.468Z</time></trkpt><trkpt lat="46.3093522" lon="11.7536985"><ele>1556.0</ele><time>2026-04-26T13:11:12.467Z</time></trkpt><trkpt lat="46.3094415" lon="11.7538445"><ele>1556.0</ele><time>2026-04-26T13:11:13.457Z</time></trkpt><trkpt lat="46.3095516" lon="11.753974"><ele>1556.0</ele><time>2026-04-26T13:11:14.466Z</time></trkpt><trkpt lat="46.3096309" lon="11.7541365"><ele>1556.0</ele><time>2026-04-26T13:11:15.465Z</time></trkpt><trkpt lat="46.3096651" lon="11.7543369"><ele>1556.0</ele><time>2026-04-26T13:11:16.461Z</time></trkpt><trkpt lat="46.3096831" lon="11.754543"><ele>1556.0</ele><time>2026-04-26T13:11:17.469Z</time></trkpt><trkpt lat="46.3096887" lon="11.7547518"><ele>1556.0</ele><time>2026-04-26T13:11:18.453Z</time></trkpt><trkpt lat="46.3097288" lon="11.7549483"><ele>1558.5</ele><time>2026-04-26T13:11:19.453Z</time></trkpt><trkpt lat="46.3097636" lon="11.755137"><ele>1561.0</ele><time>2026-04-26T13:11:20.449Z</time></trkpt><trkpt lat="46.3097533" lon="11.7553399"><ele>1563.5</ele><time>2026-04-26T13:11:21.457Z</time></trkpt><trkpt lat="46.3097332" lon="11.7555461"><ele>1566.0</ele><time>2026-04-26T13:11:22.461Z</time></trkpt><trkpt lat="46.3097001" lon="11.7557636"><ele>1566.0</ele><time>2026-04-26T13:11:23.469Z</time></trkpt><trkpt lat="46.3096617" lon="11.7559918"><ele>1566.0</ele><time>2026-04-26T13:11:24.46Z</time></trkpt><trkpt lat="46.3096288" lon="11.756227"><ele>1566.0</ele><time>2026-04-26T13:11:25.461Z</time></trkpt><trkpt lat="46.3095944" lon="11.756464"><ele>1567.6666666666665</ele><time>2026-04-26T13:11:26.468Z</time></trkpt><trkpt lat="46.3095569" lon="11.7566999"><ele>1569.3333333333333</ele><time>2026-04-26T13:11:27.452Z</time></trkpt><trkpt lat="46.3095248" lon="11.756932"><ele>1571.0</ele><time>2026-04-26T13:11:28.457Z</time></trkpt><trkpt lat="46.3094966" lon="11.7571496"><ele>1572.8</ele><time>2026-04-26T13:11:29.456Z</time></trkpt><trkpt lat="46.3094333" lon="11.7573163"><ele>1574.6</ele><time>2026-04-26T13:11:30.456Z</time></trkpt><trkpt lat="46.3093579" lon="11.7574229"><ele>1576.4</ele><time>2026-04-26T13:11:31.466Z</time></trkpt><trkpt lat="46.3092725" lon="11.7574738"><ele>1578.2</ele><time>2026-04-26T13:11:32.454Z</time></trkpt><trkpt lat="46.3091862" lon="11.7575037"><ele>1580.0</ele><time>2026-04-26T13:11:33.46Z</time></trkpt><trkpt lat="46.3090935" lon="11.7574792"><ele>1580.0</ele><time>2026-04-26T13:11:34.465Z</time></trkpt><trkpt lat="46.3089712" lon="11.7574809"><ele>1580.0</ele><time>2026-04-26T13:11:35.459Z</time></trkpt><trkpt lat="46.3088564" lon="11.7574984"><ele>1580.0</ele><time>2026-04-26T13:11:36.461Z</time></trkpt><trkpt lat="46.308755" lon="11.7575569"><ele>1580.0</ele><time>2026-04-26T13:11:37.454Z</time></trkpt><trkpt lat="46.3086575" lon="11.7576392"><ele>1583.5</ele><time>2026-04-26T13:11:38.469Z</time></trkpt><trkpt lat="46.3085617" lon="11.7577385"><ele>1587.0</ele><time>2026-04-26T13:11:39.451Z</time></trkpt><trkpt lat="46.3084926" lon="11.7578983"><ele>1590.5</ele><time>2026-04-26T13:11:40.467Z</time></trkpt><trkpt lat="46.3083903" lon="11.7580151"><ele>1594.0</ele><time>2026-04-26T13:11:41.465Z</time></trkpt><trkpt lat="46.308255" lon="11.7580713"><ele>1594.0</ele><time>2026-04-26T13:11:42.466Z</time></trkpt><trkpt lat="46.3081189" lon="11.7581263"><ele>1594.0</ele><time>2026-04-26T13:11:43.438Z</time></trkpt><trkpt lat="46.3079993" lon="11.7581869"><ele>1594.0</ele><time>2026-04-26T13:11:44.452Z</time></trkpt><trkpt lat="46.3078817" lon="11.7582226"><ele>1594.0</ele><time>2026-04-26T13:11:45.471Z</time></trkpt><trkpt lat="46.3077542" lon="11.7581811"><ele>1595.75</ele><time>2026-04-26T13:11:46.46Z</time></trkpt><trkpt lat="46.3076263" lon="11.7581048"><ele>1597.5</ele><time>2026-04-26T13:11:47.467Z</time></trkpt><trkpt lat="46.3074989" lon="11.7580732"><ele>1599.25</ele><time>2026-04-26T13:11:48.455Z</time></trkpt><trkpt lat="46.3073976" lon="11.7580117"><ele>1601.0</ele><time>2026-04-26T13:11:49.452Z</time></trkpt><trkpt lat="46.3072983" lon="11.7579797"><ele>1606.0</ele><time>2026-04-26T13:11:50.445Z</time></trkpt><trkpt lat="46.3071686" lon="11.7580258"><ele>1611.0</ele><time>2026-04-26T13:11:51.458Z</time></trkpt><trkpt lat="46.3070009" lon="11.7581082"><ele>1616.0</ele><time>2026-04-26T13:11:52.478Z</time></trkpt><trkpt lat="46.306836" lon="11.7581451"><ele>1616.0</ele><time>2026-04-26T13:11:53.459Z</time></trkpt><trkpt lat="46.3066589" lon="11.7581797"><ele>1616.0</ele><time>2026-04-26T13:11:54.484Z</time></trkpt><trkpt lat="46.3064693" lon="11.7581922"><ele>1616.0</ele><time>2026-04-26T13:11:55.456Z</time></trkpt><trkpt lat="46.3062763" lon="11.7581784"><ele>1620.0</ele><time>2026-04-26T13:11:56.46Z</time></trkpt><trkpt lat="46.306093" lon="11.7581642"><ele>1624.0</ele><time>2026-04-26T13:11:57.459Z</time></trkpt><trkpt lat="46.3059224" lon="11.758157"><ele>1628.0</ele><time>2026-04-26T13:11:58.452Z</time></trkpt><trkpt lat="46.3057663" lon="11.7581405"><ele>1628.0</ele><time>2026-04-26T13:11:59.465Z</time></trkpt><trkpt lat="46.3056238" lon="11.758135"><ele>1628.0</ele><time>2026-04-26T13:12:00.461Z</time></trkpt><trkpt lat="46.305496" lon="11.7581414"><ele>1628.0</ele><time>2026-04-26T13:12:01.458Z</time></trkpt><trkpt lat="46.3053808" lon="11.7581469"><ele>1628.0</ele><time>2026-04-26T13:12:02.471Z</time></trkpt><trkpt lat="46.305275" lon="11.7581446"><ele>1627.4</ele><time>2026-04-26T13:12:03.451Z</time></trkpt><trkpt lat="46.3051754" lon="11.758146"><ele>1626.8000000000002</ele><time>2026-04-26T13:12:04.455Z</time></trkpt><trkpt lat="46.3050942" lon="11.7580444"><ele>1626.2</ele><time>2026-04-26T13:12:05.481Z</time></trkpt><trkpt lat="46.3050408" lon="11.7579048"><ele>1625.6</ele><time>2026-04-26T13:12:06.468Z</time></trkpt><trkpt lat="46.3050062" lon="11.757744"><ele>1625.0</ele><time>2026-04-26T13:12:07.447Z</time></trkpt><trkpt lat="46.304974" lon="11.7575859"><ele>1625.0</ele><time>2026-04-26T13:12:08.454Z</time></trkpt><trkpt lat="46.3049285" lon="11.757445"><ele>1625.0</ele><time>2026-04-26T13:12:09.45Z</time></trkpt><trkpt lat="46.3048535" lon="11.7573588"><ele>1625.0</ele><time>2026-04-26T13:12:10.456Z</time></trkpt><trkpt lat="46.3047758" lon="11.7572796"><ele>1625.0</ele><time>2026-04-26T13:12:11.465Z</time></trkpt><trkpt lat="46.3046511" lon="11.7572559"><ele>1625.0</ele><time>2026-04-26T13:12:12.458Z</time></trkpt><trkpt lat="46.3045006" lon="11.7572837"><ele>1627.75</ele><time>2026-04-26T13:12:13.468Z</time></trkpt><trkpt lat="46.3043704" lon="11.7573266"><ele>1630.5</ele><time>2026-04-26T13:12:14.457Z</time></trkpt><trkpt lat="46.3042326" lon="11.7573734"><ele>1633.25</ele><time>2026-04-26T13:12:15.479Z</time></trkpt><trkpt lat="46.3040885" lon="11.7574215"><ele>1636.0</ele><time>2026-04-26T13:12:16.45Z</time></trkpt><trkpt lat="46.3039465" lon="11.757488"><ele>1637.3333333333335</ele><time>2026-04-26T13:12:17.486Z</time></trkpt><trkpt lat="46.3037993" lon="11.7575407"><ele>1638.6666666666665</ele><time>2026-04-26T13:12:18.478Z</time></trkpt><trkpt lat="46.3036446" lon="11.7575682"><ele>1640.0</ele><time>2026-04-26T13:12:19.457Z</time></trkpt><trkpt lat="46.3034889" lon="11.7576008"><ele>1640.0</ele><time>2026-04-26T13:12:20.46Z</time></trkpt><trkpt lat="46.3033357" lon="11.7576499"><ele>1640.0</ele><time>2026-04-26T13:12:21.461Z</time></trkpt><trkpt lat="46.3031831" lon="11.7576932"><ele>1640.0</ele><time>2026-04-26T13:12:22.47Z</time></trkpt><trkpt lat="46.3030291" lon="11.7577191"><ele>1644.75</ele><time>2026-04-26T13:12:23.46Z</time></trkpt><trkpt lat="46.3028775" lon="11.7577394"><ele>1649.5</ele><time>2026-04-26T13:12:24.46Z</time></trkpt><trkpt lat="46.3027303" lon="11.7577467"><ele>1654.25</ele><time>2026-04-26T13:12:25.463Z</time></trkpt><trkpt lat="46.3025884" lon="11.7577564"><ele>1659.0</ele><time>2026-04-26T13:12:26.459Z</time></trkpt><trkpt lat="46.3024522" lon="11.757773"><ele>1659.0</ele><time>2026-04-26T13:12:27.469Z</time></trkpt><trkpt lat="46.302326" lon="11.757759"><ele>1659.0</ele><time>2026-04-26T13:12:28.46Z</time></trkpt><trkpt lat="46.3022152" lon="11.7577079"><ele>1659.0</ele><time>2026-04-26T13:12:29.466Z</time></trkpt><trkpt lat="46.30212" lon="11.7576436"><ele>1659.0</ele><time>2026-04-26T13:12:30.461Z</time></trkpt><trkpt lat="46.3020388" lon="11.7575876"><ele>1659.0</ele><time>2026-04-26T13:12:31.468Z</time></trkpt><trkpt lat="46.3019675" lon="11.757549"><ele>1658.5</ele><time>2026-04-26T13:12:32.459Z</time></trkpt><trkpt lat="46.3018954" lon="11.7575288"><ele>1658.0</ele><time>2026-04-26T13:12:33.457Z</time></trkpt><trkpt lat="46.3018343" lon="11.7575947"><ele>1657.5</ele><time>2026-04-26T13:12:34.455Z</time></trkpt><trkpt lat="46.3018009" lon="11.7576906"><ele>1657.0</ele><time>2026-04-26T13:12:35.454Z</time></trkpt><trkpt lat="46.3018232" lon="11.7578192"><ele>1656.5</ele><time>2026-04-26T13:12:36.469Z</time></trkpt><trkpt lat="46.3019045" lon="11.7579411"><ele>1656.0</ele><time>2026-04-26T13:12:37.461Z</time></trkpt><trkpt lat="46.3020222" lon="11.7580543"><ele>1656.0</ele><time>2026-04-26T13:12:38.454Z</time></trkpt><trkpt lat="46.3021539" lon="11.7581922"><ele>1656.0</ele><time>2026-04-26T13:12:39.457Z</time></trkpt><trkpt lat="46.3023064" lon="11.7582874"><ele>1656.0</ele><time>2026-04-26T13:12:40.462Z</time></trkpt><trkpt lat="46.3024485" lon="11.7583679"><ele>1656.75</ele><time>2026-04-26T13:12:41.458Z</time></trkpt><trkpt lat="46.3025861" lon="11.7584178"><ele>1657.5</ele><time>2026-04-26T13:12:42.462Z</time></trkpt><trkpt lat="46.3027144" lon="11.7584817"><ele>1658.25</ele><time>2026-04-26T13:12:43.458Z</time></trkpt><trkpt lat="46.3028477" lon="11.7585093"><ele>1659.0</ele><time>2026-04-26T13:12:44.454Z</time></trkpt><trkpt lat="46.302959" lon="11.75863"><ele>1661.0</ele><time>2026-04-26T13:12:45.462Z</time></trkpt><trkpt lat="46.303062" lon="11.758794"><ele>1663.0</ele><time>2026-04-26T13:12:46.479Z</time></trkpt><trkpt lat="46.3031899" lon="11.7589386"><ele>1665.0</ele><time>2026-04-26T13:12:47.461Z</time></trkpt><trkpt lat="46.3033473" lon="11.7590658"><ele>1665.0</ele><time>2026-04-26T13:12:48.462Z</time></trkpt><trkpt lat="46.303526" lon="11.7591755"><ele>1665.0</ele><time>2026-04-26T13:12:49.471Z</time></trkpt><trkpt lat="46.3037071" lon="11.7592925"><ele>1665.0</ele><time>2026-04-26T13:12:50.453Z</time></trkpt><trkpt lat="46.3038876" lon="11.7594158"><ele>1668.6666666666665</ele><time>2026-04-26T13:12:51.467Z</time></trkpt><trkpt lat="46.3040592" lon="11.759531"><ele>1672.3333333333333</ele><time>2026-04-26T13:12:52.46Z</time></trkpt><trkpt lat="46.3042208" lon="11.7596142"><ele>1676.0</ele><time>2026-04-26T13:12:53.459Z</time></trkpt><trkpt lat="46.3043742" lon="11.7596889"><ele>1676.0</ele><time>2026-04-26T13:12:54.466Z</time></trkpt><trkpt lat="46.3045153" lon="11.7597502"><ele>1676.0</ele><time>2026-04-26T13:12:55.458Z</time></trkpt><trkpt lat="46.3046465" lon="11.7597835"><ele>1676.0</ele><time>2026-04-26T13:12:56.455Z</time></trkpt><trkpt lat="46.3047691" lon="11.7598374"><ele>1676.0</ele><time>2026-04-26T13:12:57.456Z</time></trkpt><trkpt lat="46.3048652" lon="11.7598863"><ele>1675.6</ele><time>2026-04-26T13:12:58.44Z</time></trkpt><trkpt lat="46.3049269" lon="11.7599704"><ele>1675.1999999999998</ele><time>2026-04-26T13:12:59.453Z</time></trkpt><trkpt lat="46.304901" lon="11.7601584"><ele>1674.8000000000002</ele><time>2026-04-26T13:13:01.46Z</time></trkpt><trkpt lat="46.3048318" lon="11.7602256"><ele>1674.4</ele><time>2026-04-26T13:13:02.459Z</time></trkpt><trkpt lat="46.3047252" lon="11.7602429"><ele>1674.0</ele><time>2026-04-26T13:13:03.466Z</time></trkpt><trkpt lat="46.3046081" lon="11.7602468"><ele>1674.6666666666665</ele><time>2026-04-26T13:13:04.458Z</time></trkpt><trkpt lat="46.3044736" lon="11.7602643"><ele>1675.3333333333333</ele><time>2026-04-26T13:13:05.461Z</time></trkpt><trkpt lat="46.3043192" lon="11.7602138"><ele>1676.0</ele><time>2026-04-26T13:13:06.453Z</time></trkpt><trkpt lat="46.3041514" lon="11.7601904"><ele>1682.0</ele><time>2026-04-26T13:13:07.462Z</time></trkpt><trkpt lat="46.3039751" lon="11.7602021"><ele>1688.0</ele><time>2026-04-26T13:13:08.466Z</time></trkpt><trkpt lat="46.3037881" lon="11.7602338"><ele>1694.0</ele><time>2026-04-26T13:13:09.465Z</time></trkpt><trkpt lat="46.303599" lon="11.7602823"><ele>1694.0</ele><time>2026-04-26T13:13:10.457Z</time></trkpt><trkpt lat="46.303419" lon="11.7603626"><ele>1694.0</ele><time>2026-04-26T13:13:11.464Z</time></trkpt><trkpt lat="46.3032311" lon="11.7604286"><ele>1694.0</ele><time>2026-04-26T13:13:12.467Z</time></trkpt><trkpt lat="46.3030398" lon="11.7605041"><ele>1695.6666666666665</ele><time>2026-04-26T13:13:13.463Z</time></trkpt><trkpt lat="46.302848" lon="11.7605881"><ele>1697.3333333333335</ele><time>2026-04-26T13:13:14.449Z</time></trkpt><trkpt lat="46.3026605" lon="11.7606847"><ele>1699.0</ele><time>2026-04-26T13:13:15.467Z</time></trkpt><trkpt lat="46.3024772" lon="11.7608008"><ele>1699.0</ele><time>2026-04-26T13:13:16.459Z</time></trkpt><trkpt lat="46.3023035" lon="11.7609217"><ele>1699.0</ele><time>2026-04-26T13:13:17.48Z</time></trkpt><trkpt lat="46.3021453" lon="11.7610692"><ele>1699.0</ele><time>2026-04-26T13:13:18.453Z</time></trkpt><trkpt lat="46.3019936" lon="11.7612103"><ele>1703.3333333333335</ele><time>2026-04-26T13:13:19.478Z</time></trkpt><trkpt lat="46.3018426" lon="11.7613587"><ele>1707.6666666666665</ele><time>2026-04-26T13:13:20.461Z</time></trkpt><trkpt lat="46.3016917" lon="11.7614891"><ele>1712.0</ele><time>2026-04-26T13:13:21.455Z</time></trkpt><trkpt lat="46.3015359" lon="11.7615797"><ele>1713.3333333333333</ele><time>2026-04-26T13:13:22.458Z</time></trkpt><trkpt lat="46.3013752" lon="11.7616359"><ele>1714.6666666666665</ele><time>2026-04-26T13:13:23.478Z</time></trkpt><trkpt lat="46.3012186" lon="11.7616711"><ele>1716.0</ele><time>2026-04-26T13:13:24.47Z</time></trkpt><trkpt lat="46.3010671" lon="11.7616624"><ele>1716.0</ele><time>2026-04-26T13:13:25.461Z</time></trkpt><trkpt lat="46.3009268" lon="11.7616157"><ele>1716.0</ele><time>2026-04-26T13:13:26.469Z</time></trkpt><trkpt lat="46.3007968" lon="11.7615424"><ele>1716.0</ele><time>2026-04-26T13:13:27.448Z</time></trkpt><trkpt lat="46.3006775" lon="11.7614826"><ele>1716.0</ele><time>2026-04-26T13:13:28.461Z</time></trkpt><trkpt lat="46.3005483" lon="11.7614305"><ele>1716.6666666666665</ele><time>2026-04-26T13:13:29.462Z</time></trkpt><trkpt lat="46.3003952" lon="11.7614826"><ele>1717.3333333333333</ele><time>2026-04-26T13:13:30.444Z</time></trkpt><trkpt lat="46.3002251" lon="11.7615568"><ele>1718.0</ele><time>2026-04-26T13:13:31.46Z</time></trkpt><trkpt lat="46.300051" lon="11.7616423"><ele>1718.0</ele><time>2026-04-26T13:13:32.463Z</time></trkpt><trkpt lat="46.2998458" lon="11.7616866"><ele>1718.0</ele><time>2026-04-26T13:13:33.478Z</time></trkpt><trkpt lat="46.2996463" lon="11.7617183"><ele>1718.0</ele><time>2026-04-26T13:13:34.465Z</time></trkpt><trkpt lat="46.2994602" lon="11.7617718"><ele>1718.6666666666665</ele><time>2026-04-26T13:13:35.462Z</time></trkpt><trkpt lat="46.2992894" lon="11.7618044"><ele>1719.3333333333335</ele><time>2026-04-26T13:13:36.445Z</time></trkpt><trkpt lat="46.299131" lon="11.7618093"><ele>1720.0</ele><time>2026-04-26T13:13:37.475Z</time></trkpt><trkpt lat="46.2989894" lon="11.7617657"><ele>1720.0</ele><time>2026-04-26T13:13:38.461Z</time></trkpt><trkpt lat="46.2988589" lon="11.7617359"><ele>1720.0</ele><time>2026-04-26T13:13:39.465Z</time></trkpt><trkpt lat="46.2987273" lon="11.761775"><ele>1720.0</ele><time>2026-04-26T13:13:40.453Z</time></trkpt><trkpt lat="46.2985835" lon="11.7618418"><ele>1720.0</ele><time>2026-04-26T13:13:41.456Z</time></trkpt><trkpt lat="46.2984286" lon="11.76194"><ele>1724.3333333333335</ele><time>2026-04-26T13:13:42.466Z</time></trkpt><trkpt lat="46.2982685" lon="11.7620242"><ele>1728.6666666666665</ele><time>2026-04-26T13:13:43.457Z</time></trkpt><trkpt lat="46.298105" lon="11.7621146"><ele>1733.0</ele><time>2026-04-26T13:13:44.46Z</time></trkpt><trkpt lat="46.2979408" lon="11.7622057"><ele>1733.0</ele><time>2026-04-26T13:13:45.472Z</time></trkpt><trkpt lat="46.2977742" lon="11.7622813"><ele>1733.0</ele><time>2026-04-26T13:13:46.467Z</time></trkpt><trkpt lat="46.297606" lon="11.7623424"><ele>1733.0</ele><time>2026-04-26T13:13:47.457Z</time></trkpt><trkpt lat="46.2974378" lon="11.7624192"><ele>1733.0</ele><time>2026-04-26T13:13:48.455Z</time></trkpt><trkpt lat="46.2972719" lon="11.7625303"><ele>1733.0</ele><time>2026-04-26T13:13:49.46Z</time></trkpt><trkpt lat="46.2971011" lon="11.7626365"><ele>1733.0</ele><time>2026-04-26T13:13:50.443Z</time></trkpt><trkpt lat="46.2969233" lon="11.7627246"><ele>1736.6666666666665</ele><time>2026-04-26T13:13:51.457Z</time></trkpt><trkpt lat="46.2967493" lon="11.7628123"><ele>1740.3333333333335</ele><time>2026-04-26T13:13:52.456Z</time></trkpt><trkpt lat="46.2965884" lon="11.7629636"><ele>1744.0</ele><time>2026-04-26T13:13:53.454Z</time></trkpt><trkpt lat="46.2964273" lon="11.7630629"><ele>1742.5</ele><time>2026-04-26T13:13:54.46Z</time></trkpt><trkpt lat="46.2962798" lon="11.7631565"><ele>1741.0</ele><time>2026-04-26T13:13:55.46Z</time></trkpt><trkpt lat="46.2961433" lon="11.7632365"><ele>1739.5</ele><time>2026-04-26T13:13:56.465Z</time></trkpt><trkpt lat="46.2960198" lon="11.7633112"><ele>1738.0</ele><time>2026-04-26T13:13:57.464Z</time></trkpt><trkpt lat="46.2959228" lon="11.7633864"><ele>1738.0</ele><time>2026-04-26T13:13:58.456Z</time></trkpt><trkpt lat="46.2958539" lon="11.7634637"><ele>1738.0000000000002</ele><time>2026-04-26T13:13:59.46Z</time></trkpt><trkpt lat="46.295816" lon="11.7635556"><ele>1738.0000000000002</ele><time>2026-04-26T13:14:00.472Z</time></trkpt><trkpt lat="46.2958851" lon="11.7636916"><ele>1738.0</ele><time>2026-04-26T13:14:02.467Z</time></trkpt><trkpt lat="46.2959758" lon="11.7637018"><ele>1738.0</ele><time>2026-04-26T13:14:03.45Z</time></trkpt><trkpt lat="46.296085" lon="11.7636119"><ele>1738.0</ele><time>2026-04-26T13:14:04.456Z</time></trkpt><trkpt lat="46.2962024" lon="11.7635078"><ele>1738.0</ele><time>2026-04-26T13:14:05.459Z</time></trkpt><trkpt lat="46.2963448" lon="11.7634177"><ele>1738.0</ele><time>2026-04-26T13:14:06.453Z</time></trkpt><trkpt lat="46.2965194" lon="11.7633597"><ele>1740.0</ele><time>2026-04-26T13:14:07.463Z</time></trkpt><trkpt lat="46.2967174" lon="11.7633773"><ele>1742.0</ele><time>2026-04-26T13:14:08.456Z</time></trkpt><trkpt lat="46.2969093" lon="11.7634288"><ele>1744.0</ele><time>2026-04-26T13:14:09.461Z</time></trkpt><trkpt lat="46.2970795" lon="11.7634686"><ele>1744.0</ele><time>2026-04-26T13:14:10.464Z</time></trkpt><trkpt lat="46.2972337" lon="11.7634309"><ele>1744.0</ele><time>2026-04-26T13:14:11.461Z</time></trkpt><trkpt lat="46.2973834" lon="11.7633834"><ele>1744.0</ele><time>2026-04-26T13:14:12.458Z</time></trkpt><trkpt lat="46.2975294" lon="11.7633424"><ele>1746.5</ele><time>2026-04-26T13:14:13.467Z</time></trkpt><trkpt lat="46.2976463" lon="11.7632662"><ele>1749.0</ele><time>2026-04-26T13:14:14.461Z</time></trkpt><trkpt lat="46.2977703" lon="11.7632316"><ele>1751.5</ele><time>2026-04-26T13:14:15.458Z</time></trkpt><trkpt lat="46.2978778" lon="11.7631662"><ele>1754.0</ele><time>2026-04-26T13:14:16.452Z</time></trkpt><trkpt lat="46.2980029" lon="11.7631855"><ele>1756.25</ele><time>2026-04-26T13:14:17.458Z</time></trkpt><trkpt lat="46.298134" lon="11.7632722"><ele>1758.5</ele><time>2026-04-26T13:14:18.471Z</time></trkpt><trkpt lat="46.2982628" lon="11.7633404"><ele>1760.75</ele><time>2026-04-26T13:14:19.469Z</time></trkpt><trkpt lat="46.2983767" lon="11.7633358"><ele>1763.0</ele><time>2026-04-26T13:14:20.474Z</time></trkpt><trkpt lat="46.2984868" lon="11.7633271"><ele>1763.0</ele><time>2026-04-26T13:14:21.462Z</time></trkpt><trkpt lat="46.2985944" lon="11.7632695"><ele>1763.0000000000002</ele><time>2026-04-26T13:14:22.455Z</time></trkpt><trkpt lat="46.2986998" lon="11.7632336"><ele>1763.0000000000002</ele><time>2026-04-26T13:14:23.457Z</time></trkpt><trkpt lat="46.2988036" lon="11.7632113"><ele>1763.0</ele><time>2026-04-26T13:14:24.469Z</time></trkpt><trkpt lat="46.2989148" lon="11.763201"><ele>1763.0</ele><time>2026-04-26T13:14:25.471Z</time></trkpt><trkpt lat="46.2990287" lon="11.7632184"><ele>1764.25</ele><time>2026-04-26T13:14:26.447Z</time></trkpt><trkpt lat="46.2991433" lon="11.7632297"><ele>1765.5</ele><time>2026-04-26T13:14:27.469Z</time></trkpt><trkpt lat="46.2992576" lon="11.7632457"><ele>1766.75</ele><time>2026-04-26T13:14:28.464Z</time></trkpt><trkpt lat="46.2993702" lon="11.7632707"><ele>1768.0</ele><time>2026-04-26T13:14:29.464Z</time></trkpt><trkpt lat="46.2994803" lon="11.7632991"><ele>1768.0</ele><time>2026-04-26T13:14:30.461Z</time></trkpt><trkpt lat="46.2995907" lon="11.7633025"><ele>1768.0000000000002</ele><time>2026-04-26T13:14:31.465Z</time></trkpt><trkpt lat="46.2996954" lon="11.7633038"><ele>1768.0000000000002</ele><time>2026-04-26T13:14:32.456Z</time></trkpt><trkpt lat="46.2997894" lon="11.7632949"><ele>1768.0</ele><time>2026-04-26T13:14:33.455Z</time></trkpt><trkpt lat="46.2998722" lon="11.763287"><ele>1768.0</ele><time>2026-04-26T13:14:34.446Z</time></trkpt><trkpt lat="46.299944" lon="11.7632877"><ele>1767.8000000000002</ele><time>2026-04-26T13:14:35.447Z</time></trkpt><trkpt lat="46.300053" lon="11.7633562"><ele>1767.6000000000001</ele><time>2026-04-26T13:14:37.459Z</time></trkpt><trkpt lat="46.3000976" lon="11.7635177"><ele>1767.3999999999999</ele><time>2026-04-26T13:14:39.473Z</time></trkpt><trkpt lat="46.300056" lon="11.7635981"><ele>1767.1999999999998</ele><time>2026-04-26T13:14:40.446Z</time></trkpt><trkpt lat="46.2999853" lon="11.7636521"><ele>1767.0</ele><time>2026-04-26T13:14:41.445Z</time></trkpt><trkpt lat="46.299901" lon="11.7636588"><ele>1771.5</ele><time>2026-04-26T13:14:42.474Z</time></trkpt><trkpt lat="46.2998087" lon="11.7636843"><ele>1776.0</ele><time>2026-04-26T13:14:43.463Z</time></trkpt><trkpt lat="46.2997041" lon="11.7637487"><ele>1780.5</ele><time>2026-04-26T13:14:44.475Z</time></trkpt><trkpt lat="46.2995751" lon="11.7638443"><ele>1785.0</ele><time>2026-04-26T13:14:45.473Z</time></trkpt><trkpt lat="46.2994366" lon="11.7639571"><ele>1785.0</ele><time>2026-04-26T13:14:46.459Z</time></trkpt><trkpt lat="46.2992961" lon="11.7640577"><ele>1785.0</ele><time>2026-04-26T13:14:47.476Z</time></trkpt><trkpt lat="46.2991482" lon="11.7641351"><ele>1785.0</ele><time>2026-04-26T13:14:48.439Z</time></trkpt><trkpt lat="46.2990083" lon="11.7641817"><ele>1783.75</ele><time>2026-04-26T13:14:49.468Z</time></trkpt><trkpt lat="46.2988825" lon="11.7641451"><ele>1782.5</ele><time>2026-04-26T13:14:50.45Z</time></trkpt><trkpt lat="46.2987507" lon="11.7641389"><ele>1781.25</ele><time>2026-04-26T13:14:51.461Z</time></trkpt><trkpt lat="46.298614" lon="11.7641576"><ele>1780.0</ele><time>2026-04-26T13:14:52.464Z</time></trkpt><trkpt lat="46.2984602" lon="11.7642126"><ele>1780.0</ele><time>2026-04-26T13:14:53.463Z</time></trkpt><trkpt lat="46.2982861" lon="11.7643255"><ele>1780.0</ele><time>2026-04-26T13:14:54.466Z</time></trkpt><trkpt lat="46.2980828" lon="11.7644308"><ele>1780.0</ele><time>2026-04-26T13:14:55.453Z</time></trkpt><trkpt lat="46.2978691" lon="11.7645742"><ele>1789.5</ele><time>2026-04-26T13:14:56.469Z</time></trkpt><trkpt lat="46.2976422" lon="11.7647091"><ele>1799.0</ele><time>2026-04-26T13:14:57.45Z</time></trkpt><trkpt lat="46.2974465" lon="11.7648724"><ele>1799.0</ele><time>2026-04-26T13:14:58.461Z</time></trkpt><trkpt lat="46.2972654" lon="11.7650204"><ele>1799.0</ele><time>2026-04-26T13:14:59.461Z</time></trkpt><trkpt lat="46.2971003" lon="11.7651482"><ele>1799.0</ele><time>2026-04-26T13:15:00.46Z</time></trkpt><trkpt lat="46.2969428" lon="11.7652626"><ele>1801.0</ele><time>2026-04-26T13:15:01.465Z</time></trkpt><trkpt lat="46.2968106" lon="11.7653788"><ele>1803.0</ele><time>2026-04-26T13:15:02.456Z</time></trkpt><trkpt lat="46.296688" lon="11.7654974"><ele>1805.0</ele><time>2026-04-26T13:15:03.47Z</time></trkpt><trkpt lat="46.2965838" lon="11.7656692"><ele>1805.0</ele><time>2026-04-26T13:15:04.455Z</time></trkpt><trkpt lat="46.2964778" lon="11.7658536"><ele>1805.0</ele><time>2026-04-26T13:15:05.441Z</time></trkpt><trkpt lat="46.2963737" lon="11.766063"><ele>1805.0</ele><time>2026-04-26T13:15:06.448Z</time></trkpt><trkpt lat="46.2962886" lon="11.7663037"><ele>1805.0</ele><time>2026-04-26T13:15:07.463Z</time></trkpt><trkpt lat="46.2961984" lon="11.7665375"><ele>1805.0</ele><time>2026-04-26T13:15:08.454Z</time></trkpt><trkpt lat="46.2961079" lon="11.7667627"><ele>1805.0</ele><time>2026-04-26T13:15:09.458Z</time></trkpt><trkpt lat="46.2960218" lon="11.7669837"><ele>1805.0</ele><time>2026-04-26T13:15:10.461Z</time></trkpt><trkpt lat="46.2959691" lon="11.767235"><ele>1805.0</ele><time>2026-04-26T13:15:11.467Z</time></trkpt><trkpt lat="46.2959584" lon="11.7675183"><ele>1805.0</ele><time>2026-04-26T13:15:12.458Z</time></trkpt><trkpt lat="46.2959403" lon="11.7678056"><ele>1807.6666666666665</ele><time>2026-04-26T13:15:13.466Z</time></trkpt><trkpt lat="46.2959077" lon="11.7680961"><ele>1810.3333333333335</ele><time>2026-04-26T13:15:14.454Z</time></trkpt><trkpt lat="46.295841" lon="11.7683926"><ele>1813.0</ele><time>2026-04-26T13:15:15.46Z</time></trkpt><trkpt lat="46.2957757" lon="11.7686936"><ele>1815.0</ele><time>2026-04-26T13:15:16.447Z</time></trkpt><trkpt lat="46.2956908" lon="11.7689879"><ele>1817.0</ele><time>2026-04-26T13:15:17.456Z</time></trkpt><trkpt lat="46.2956175" lon="11.7692684"><ele>1819.0</ele><time>2026-04-26T13:15:18.449Z</time></trkpt><trkpt lat="46.2955388" lon="11.7695216"><ele>1819.0</ele><time>2026-04-26T13:15:19.455Z</time></trkpt><trkpt lat="46.2954653" lon="11.769754"><ele>1819.0</ele><time>2026-04-26T13:15:20.449Z</time></trkpt><trkpt lat="46.2953902" lon="11.7699537"><ele>1819.0</ele><time>2026-04-26T13:15:21.459Z</time></trkpt><trkpt lat="46.2952884" lon="11.7701044"><ele>1823.6666666666667</ele><time>2026-04-26T13:15:22.454Z</time></trkpt><trkpt lat="46.2951657" lon="11.7702167"><ele>1828.3333333333335</ele><time>2026-04-26T13:15:23.455Z</time></trkpt><trkpt lat="46.2950441" lon="11.770348"><ele>1833.0</ele><time>2026-04-26T13:15:24.461Z</time></trkpt><trkpt lat="46.2949356" lon="11.7705376"><ele>1833.0</ele><time>2026-04-26T13:15:25.458Z</time></trkpt><trkpt lat="46.2948157" lon="11.7707435"><ele>1833.0</ele><time>2026-04-26T13:15:26.461Z</time></trkpt><trkpt lat="46.294717" lon="11.7709863"><ele>1833.0</ele><time>2026-04-26T13:15:27.455Z</time></trkpt><trkpt lat="46.2946395" lon="11.7712356"><ele>1833.6666666666665</ele><time>2026-04-26T13:15:28.471Z</time></trkpt><trkpt lat="46.2945696" lon="11.7714668"><ele>1834.3333333333333</ele><time>2026-04-26T13:15:29.459Z</time></trkpt><trkpt lat="46.2945017" lon="11.7716781"><ele>1835.0</ele><time>2026-04-26T13:15:30.458Z</time></trkpt><trkpt lat="46.2944388" lon="11.7718713"><ele>1835.0</ele><time>2026-04-26T13:15:31.455Z</time></trkpt><trkpt lat="46.294385" lon="11.7720432"><ele>1835.0</ele><time>2026-04-26T13:15:32.447Z</time></trkpt><trkpt lat="46.2943395" lon="11.7721889"><ele>1835.0</ele><time>2026-04-26T13:15:33.45Z</time></trkpt><trkpt lat="46.2943164" lon="11.7723143"><ele>1835.0</ele><time>2026-04-26T13:15:34.441Z</time></trkpt><trkpt lat="46.294331" lon="11.7724216"><ele>1835.0</ele><time>2026-04-26T13:15:35.468Z</time></trkpt><trkpt lat="46.2943797" lon="11.7725109"><ele>1835.0</ele><time>2026-04-26T13:15:36.45Z</time></trkpt><trkpt lat="46.294461" lon="11.7725226"><ele>1835.0</ele><time>2026-04-26T13:15:37.452Z</time></trkpt><trkpt lat="46.294545" lon="11.7724733"><ele>1835.0</ele><time>2026-04-26T13:15:38.443Z</time></trkpt><trkpt lat="46.2946069" lon="11.7723415"><ele>1835.0</ele><time>2026-04-26T13:15:39.464Z</time></trkpt><trkpt lat="46.2946794" lon="11.772182"><ele>1835.0</ele><time>2026-04-26T13:15:40.456Z</time></trkpt><trkpt lat="46.2947741" lon="11.7720064"><ele>1839.3333333333333</ele><time>2026-04-26T13:15:41.452Z</time></trkpt><trkpt lat="46.2949116" lon="11.7718481"><ele>1843.6666666666665</ele><time>2026-04-26T13:15:42.453Z</time></trkpt><trkpt lat="46.2950674" lon="11.7716966"><ele>1848.0</ele><time>2026-04-26T13:15:43.462Z</time></trkpt><trkpt lat="46.295205" lon="11.7715185"><ele>1848.0</ele><time>2026-04-26T13:15:44.47Z</time></trkpt><trkpt lat="46.2953515" lon="11.7713636"><ele>1848.0</ele><time>2026-04-26T13:15:45.452Z</time></trkpt><trkpt lat="46.295486" lon="11.7712201"><ele>1848.0</ele><time>2026-04-26T13:15:46.445Z</time></trkpt><trkpt lat="46.2956286" lon="11.7710827"><ele>1849.6666666666665</ele><time>2026-04-26T13:15:47.46Z</time></trkpt><trkpt lat="46.2957903" lon="11.7709599"><ele>1851.3333333333333</ele><time>2026-04-26T13:15:48.456Z</time></trkpt><trkpt lat="46.2959734" lon="11.7708599"><ele>1853.0</ele><time>2026-04-26T13:15:49.484Z</time></trkpt><trkpt lat="46.2961707" lon="11.7707762"><ele>1853.0</ele><time>2026-04-26T13:15:50.454Z</time></trkpt><trkpt lat="46.296363" lon="11.7706834"><ele>1853.0</ele><time>2026-04-26T13:15:51.464Z</time></trkpt><trkpt lat="46.2965556" lon="11.7705904"><ele>1853.0</ele><time>2026-04-26T13:15:52.471Z</time></trkpt><trkpt lat="46.2967453" lon="11.7705098"><ele>1856.3333333333333</ele><time>2026-04-26T13:15:53.476Z</time></trkpt><trkpt lat="46.2969274" lon="11.7704452"><ele>1859.6666666666665</ele><time>2026-04-26T13:15:54.468Z</time></trkpt><trkpt lat="46.2970993" lon="11.7703933"><ele>1863.0</ele><time>2026-04-26T13:15:55.481Z</time></trkpt><trkpt lat="46.2972449" lon="11.770339"><ele>1862.6666666666667</ele><time>2026-04-26T13:15:56.46Z</time></trkpt><trkpt lat="46.2973649" lon="11.7702954"><ele>1862.3333333333335</ele><time>2026-04-26T13:15:57.464Z</time></trkpt><trkpt lat="46.297461" lon="11.7702771"><ele>1862.0</ele><time>2026-04-26T13:15:58.459Z</time></trkpt><trkpt lat="46.2975345" lon="11.7702512"><ele>1861.6666666666667</ele><time>2026-04-26T13:15:59.46Z</time></trkpt><trkpt lat="46.2976008" lon="11.7702963"><ele>1861.3333333333335</ele><time>2026-04-26T13:16:00.471Z</time></trkpt><trkpt lat="46.2976231" lon="11.7703829"><ele>1861.0</ele><time>2026-04-26T13:16:01.48Z</time></trkpt><trkpt lat="46.2976083" lon="11.7704747"><ele>1861.0</ele><time>2026-04-26T13:16:02.479Z</time></trkpt><trkpt lat="46.2975193" lon="11.7705704"><ele>1861.0</ele><time>2026-04-26T13:16:03.501Z</time></trkpt><trkpt lat="46.2974192" lon="11.7706653"><ele>1861.0</ele><time>2026-04-26T13:16:04.478Z</time></trkpt><trkpt lat="46.2972989" lon="11.7707805"><ele>1861.0</ele><time>2026-04-26T13:16:05.477Z</time></trkpt><trkpt lat="46.2971927" lon="11.7709558"><ele>1864.6666666666667</ele><time>2026-04-26T13:16:06.482Z</time></trkpt><trkpt lat="46.2970772" lon="11.7711512"><ele>1868.3333333333335</ele><time>2026-04-26T13:16:07.476Z</time></trkpt><trkpt lat="46.296957" lon="11.7713316"><ele>1872.0</ele><time>2026-04-26T13:16:08.479Z</time></trkpt><trkpt lat="46.296813" lon="11.7714691"><ele>1872.0</ele><time>2026-04-26T13:16:09.477Z</time></trkpt><trkpt lat="46.2966666" lon="11.7715829"><ele>1872.0</ele><time>2026-04-26T13:16:10.481Z</time></trkpt><trkpt lat="46.296522" lon="11.7716569"><ele>1872.0</ele><time>2026-04-26T13:16:11.477Z</time></trkpt><trkpt lat="46.2963895" lon="11.7716913"><ele>1871.75</ele><time>2026-04-26T13:16:12.485Z</time></trkpt><trkpt lat="46.2962675" lon="11.7716803"><ele>1871.5</ele><time>2026-04-26T13:16:13.472Z</time></trkpt><trkpt lat="46.2961538" lon="11.7717103"><ele>1871.25</ele><time>2026-04-26T13:16:14.489Z</time></trkpt><trkpt lat="46.2960416" lon="11.771745"><ele>1871.0</ele><time>2026-04-26T13:16:15.476Z</time></trkpt><trkpt lat="46.2959465" lon="11.7718851"><ele>1873.3333333333333</ele><time>2026-04-26T13:16:16.475Z</time></trkpt><trkpt lat="46.295852" lon="11.7720572"><ele>1875.6666666666665</ele><time>2026-04-26T13:16:17.478Z</time></trkpt><trkpt lat="46.2957721" lon="11.7722609"><ele>1878.0</ele><time>2026-04-26T13:16:18.443Z</time></trkpt><trkpt lat="46.2957218" lon="11.772487"><ele>1879.3333333333335</ele><time>2026-04-26T13:16:19.454Z</time></trkpt><trkpt lat="46.2956787" lon="11.7727144"><ele>1880.6666666666667</ele><time>2026-04-26T13:16:20.464Z</time></trkpt><trkpt lat="46.2956403" lon="11.7729532"><ele>1882.0</ele><time>2026-04-26T13:16:21.451Z</time></trkpt><trkpt lat="46.2956407" lon="11.7732239"><ele>1882.0</ele><time>2026-04-26T13:16:22.46Z</time></trkpt><trkpt lat="46.295658" lon="11.7735159"><ele>1882.0</ele><time>2026-04-26T13:16:23.468Z</time></trkpt><trkpt lat="46.2957091" lon="11.7738311"><ele>1882.0</ele><time>2026-04-26T13:16:24.46Z</time></trkpt><trkpt lat="46.2957364" lon="11.7741773"><ele>1886.0</ele><time>2026-04-26T13:16:25.471Z</time></trkpt><trkpt lat="46.2957578" lon="11.7745512"><ele>1890.0</ele><time>2026-04-26T13:16:26.464Z</time></trkpt><trkpt lat="46.2957736" lon="11.7749472"><ele>1893.0</ele><time>2026-04-26T13:16:27.467Z</time></trkpt><trkpt lat="46.2957822" lon="11.775364"><ele>1896.0</ele><time>2026-04-26T13:16:28.465Z</time></trkpt><trkpt lat="46.2957929" lon="11.7757898"><ele>1897.0</ele><time>2026-04-26T13:16:29.469Z</time></trkpt><trkpt lat="46.2958022" lon="11.7762041"><ele>1898.0</ele><time>2026-04-26T13:16:30.463Z</time></trkpt><trkpt lat="46.2958098" lon="11.7765873"><ele>1899.5</ele><time>2026-04-26T13:16:31.479Z</time></trkpt><trkpt lat="46.2958175" lon="11.7769368"><ele>1901.0</ele><time>2026-04-26T13:16:32.453Z</time></trkpt><trkpt lat="46.2958265" lon="11.7772589"><ele>1901.0</ele><time>2026-04-26T13:16:33.458Z</time></trkpt><trkpt lat="46.2958361" lon="11.7775589"><ele>1901.0</ele><time>2026-04-26T13:16:34.457Z</time></trkpt><trkpt lat="46.2958484" lon="11.7778344"><ele>1901.0</ele><time>2026-04-26T13:16:35.468Z</time></trkpt><trkpt lat="46.2958516" lon="11.7780957"><ele>1902.6666666666665</ele><time>2026-04-26T13:16:36.457Z</time></trkpt><trkpt lat="46.2958423" lon="11.7783548"><ele>1904.3333333333335</ele><time>2026-04-26T13:16:37.457Z</time></trkpt><trkpt lat="46.2958144" lon="11.7786136"><ele>1906.0</ele><time>2026-04-26T13:16:38.468Z</time></trkpt><trkpt lat="46.2957516" lon="11.7788566"><ele>1907.5</ele><time>2026-04-26T13:16:39.46Z</time></trkpt><trkpt lat="46.2956956" lon="11.7790845"><ele>1909.0</ele><time>2026-04-26T13:16:40.465Z</time></trkpt><trkpt lat="46.2956491" lon="11.7792823"><ele>1910.5</ele><time>2026-04-26T13:16:41.476Z</time></trkpt><trkpt lat="46.2955982" lon="11.7794426"><ele>1912.0</ele><time>2026-04-26T13:16:42.466Z</time></trkpt><trkpt lat="46.2955212" lon="11.7795486"><ele>1912.0000000000002</ele><time>2026-04-26T13:16:43.469Z</time></trkpt><trkpt lat="46.2954528" lon="11.7796252"><ele>1912.0</ele><time>2026-04-26T13:16:44.462Z</time></trkpt><trkpt lat="46.2954036" lon="11.7797082"><ele>1912.0</ele><time>2026-04-26T13:16:45.46Z</time></trkpt><trkpt lat="46.2953886" lon="11.7798049"><ele>1912.0</ele><time>2026-04-26T13:16:46.466Z</time></trkpt><trkpt lat="46.2954106" lon="11.7798952"><ele>1912.0000000000002</ele><time>2026-04-26T13:16:47.476Z</time></trkpt><trkpt lat="46.2954758" lon="11.7799493"><ele>1912.0</ele><time>2026-04-26T13:16:48.449Z</time></trkpt><trkpt lat="46.2955693" lon="11.7799488"><ele>1915.75</ele><time>2026-04-26T13:16:49.453Z</time></trkpt><trkpt lat="46.2956804" lon="11.7798715"><ele>1919.5</ele><time>2026-04-26T13:16:50.46Z</time></trkpt><trkpt lat="46.2957955" lon="11.7797466"><ele>1923.25</ele><time>2026-04-26T13:16:51.455Z</time></trkpt><trkpt lat="46.2959209" lon="11.7796533"><ele>1927.0</ele><time>2026-04-26T13:16:52.446Z</time></trkpt><trkpt lat="46.296046" lon="11.7795805"><ele>1927.0</ele><time>2026-04-26T13:16:53.448Z</time></trkpt><trkpt lat="46.2961787" lon="11.7795292"><ele>1927.0</ele><time>2026-04-26T13:16:54.459Z</time></trkpt><trkpt lat="46.2963051" lon="11.7794623"><ele>1927.0</ele><time>2026-04-26T13:16:55.479Z</time></trkpt><trkpt lat="46.2964322" lon="11.7794055"><ele>1927.0</ele><time>2026-04-26T13:16:56.461Z</time></trkpt><trkpt lat="46.2965637" lon="11.7793902"><ele>1929.0</ele><time>2026-04-26T13:16:57.456Z</time></trkpt><trkpt lat="46.2966963" lon="11.7794144"><ele>1931.0</ele><time>2026-04-26T13:16:58.467Z</time></trkpt><trkpt lat="46.296819" lon="11.7794984"><ele>1933.0</ele><time>2026-04-26T13:16:59.465Z</time></trkpt><trkpt lat="46.296936" lon="11.7795305"><ele>1935.0</ele><time>2026-04-26T13:17:00.474Z</time></trkpt><trkpt lat="46.2970388" lon="11.7795885"><ele>1935.0</ele><time>2026-04-26T13:17:01.452Z</time></trkpt><trkpt lat="46.2971377" lon="11.7795793"><ele>1935.0</ele><time>2026-04-26T13:17:02.462Z</time></trkpt><trkpt lat="46.2972232" lon="11.7795682"><ele>1935.0</ele><time>2026-04-26T13:17:03.458Z</time></trkpt><trkpt lat="46.2972958" lon="11.7795856"><ele>1935.0</ele><time>2026-04-26T13:17:04.476Z</time></trkpt><trkpt lat="46.2973547" lon="11.7796198"><ele>1935.0</ele><time>2026-04-26T13:17:05.453Z</time></trkpt><trkpt lat="46.2973498" lon="11.7797884"><ele>1935.0</ele><time>2026-04-26T13:17:07.458Z</time></trkpt><trkpt lat="46.2972814" lon="11.7798505"><ele>1935.0</ele><time>2026-04-26T13:17:08.454Z</time></trkpt><trkpt lat="46.2972024" lon="11.7799389"><ele>1935.0</ele><time>2026-04-26T13:17:09.45Z</time></trkpt><trkpt lat="46.2971125" lon="11.7799898"><ele>1935.0</ele><time>2026-04-26T13:17:10.458Z</time></trkpt><trkpt lat="46.2970239" lon="11.780019"><ele>1935.0</ele><time>2026-04-26T13:17:11.443Z</time></trkpt><trkpt lat="46.2969345" lon="11.7800375"><ele>1935.0</ele><time>2026-04-26T13:17:12.448Z</time></trkpt><trkpt lat="46.2968414" lon="11.7800547"><ele>1935.0</ele><time>2026-04-26T13:17:13.46Z</time></trkpt><trkpt lat="46.2967478" lon="11.7800812"><ele>1935.0</ele><time>2026-04-26T13:17:14.45Z</time></trkpt><trkpt lat="46.2966496" lon="11.7801053"><ele>1935.0</ele><time>2026-04-26T13:17:15.47Z</time></trkpt><trkpt lat="46.2965564" lon="11.7801733"><ele>1935.0</ele><time>2026-04-26T13:17:16.458Z</time></trkpt><trkpt lat="46.2964698" lon="11.78027"><ele>1935.0</ele><time>2026-04-26T13:17:17.454Z</time></trkpt><trkpt lat="46.2963873" lon="11.7803858"><ele>1936.0</ele><time>2026-04-26T13:17:18.455Z</time></trkpt><trkpt lat="46.2963099" lon="11.7805136"><ele>1937.0</ele><time>2026-04-26T13:17:19.457Z</time></trkpt><trkpt lat="46.2962542" lon="11.7806802"><ele>1938.0</ele><time>2026-04-26T13:17:20.447Z</time></trkpt><trkpt lat="46.2962034" lon="11.780838"><ele>1939.0</ele><time>2026-04-26T13:17:21.476Z</time></trkpt><trkpt lat="46.2961648" lon="11.7810012"><ele>1941.0</ele><time>2026-04-26T13:17:22.456Z</time></trkpt><trkpt lat="46.2961408" lon="11.7811711"><ele>1943.0</ele><time>2026-04-26T13:17:23.459Z</time></trkpt><trkpt lat="46.2961317" lon="11.7813435"><ele>1945.0</ele><time>2026-04-26T13:17:24.466Z</time></trkpt><trkpt lat="46.2961271" lon="11.7815147"><ele>1947.0</ele><time>2026-04-26T13:17:25.461Z</time></trkpt><trkpt lat="46.2961343" lon="11.7816875"><ele>1949.0</ele><time>2026-04-26T13:17:26.461Z</time></trkpt><trkpt lat="46.2961631" lon="11.7818607"><ele>1951.0</ele><time>2026-04-26T13:17:27.465Z</time></trkpt><trkpt lat="46.296155" lon="11.7820365"><ele>1953.0</ele><time>2026-04-26T13:17:28.456Z</time></trkpt><trkpt lat="46.2961838" lon="11.7822091"><ele>1955.0</ele><time>2026-04-26T13:17:29.457Z</time></trkpt><trkpt lat="46.2962199" lon="11.7823824"><ele>1955.0</ele><time>2026-04-26T13:17:30.469Z</time></trkpt><trkpt lat="46.296264" lon="11.782554"><ele>1955.0</ele><time>2026-04-26T13:17:31.456Z</time></trkpt><trkpt lat="46.2962967" lon="11.7827286"><ele>1955.0</ele><time>2026-04-26T13:17:32.457Z</time></trkpt><trkpt lat="46.296341" lon="11.7829015"><ele>1955.0</ele><time>2026-04-26T13:17:33.462Z</time></trkpt><trkpt lat="46.2963727" lon="11.7830767"><ele>1957.0</ele><time>2026-04-26T13:17:34.467Z</time></trkpt><trkpt lat="46.2964027" lon="11.7832484"><ele>1959.0</ele><time>2026-04-26T13:17:35.459Z</time></trkpt><trkpt lat="46.2964346" lon="11.7834178"><ele>1961.0</ele><time>2026-04-26T13:17:36.466Z</time></trkpt><trkpt lat="46.296445" lon="11.7835886"><ele>1963.0</ele><time>2026-04-26T13:17:37.46Z</time></trkpt><trkpt lat="46.296444" lon="11.7837538"><ele>1964.1666666666667</ele><time>2026-04-26T13:17:38.46Z</time></trkpt><trkpt lat="46.2964387" lon="11.7839063"><ele>1965.3333333333335</ele><time>2026-04-26T13:17:39.466Z</time></trkpt><trkpt lat="46.2964324" lon="11.7840405"><ele>1966.5</ele><time>2026-04-26T13:17:40.469Z</time></trkpt><trkpt lat="46.2964249" lon="11.7841625"><ele>1967.6666666666665</ele><time>2026-04-26T13:17:41.468Z</time></trkpt><trkpt lat="46.2964219" lon="11.7842795"><ele>1968.8333333333333</ele><time>2026-04-26T13:17:42.469Z</time></trkpt><trkpt lat="46.2964181" lon="11.7843886"><ele>1970.0</ele><time>2026-04-26T13:17:43.459Z</time></trkpt><trkpt lat="46.2964155" lon="11.784487"><ele>1970.0</ele><time>2026-04-26T13:17:44.466Z</time></trkpt><trkpt lat="46.2964092" lon="11.7846542"><ele>1970.0</ele><time>2026-04-26T13:17:46.454Z</time></trkpt><trkpt lat="46.2963773" lon="11.784761"><ele>1970.0</ele><time>2026-04-26T13:17:48.449Z</time></trkpt><trkpt lat="46.2962785" lon="11.7847862"><ele>1970.0</ele><time>2026-04-26T13:17:57.465Z</time></trkpt><trkpt lat="46.2962196" lon="11.7848348"><ele>1970.0</ele><time>2026-04-26T13:17:58.453Z</time></trkpt><trkpt lat="46.2961896" lon="11.7849653"><ele>1969.9999999999998</ele><time>2026-04-26T13:21:14.447Z</time></trkpt><trkpt lat="46.2962139" lon="11.7850824"><ele>1970.0</ele><time>2026-04-26T13:22:39.468Z</time></trkpt><trkpt lat="46.296262" lon="11.7851721"><ele>1970.0</ele><time>2026-04-26T13:22:43.458Z</time></trkpt><trkpt lat="46.2963131" lon="11.7852755"><ele>1970.0</ele><time>2026-04-26T13:22:46.454Z</time></trkpt><trkpt lat="46.2963664" lon="11.7853846"><ele>1969.9999999999998</ele><time>2026-04-26T13:22:49.46Z</time></trkpt><trkpt lat="46.296386" lon="11.7854927"><ele>1970.0</ele><time>2026-04-26T13:22:51.469Z</time></trkpt><trkpt lat="46.2963726" lon="11.7856579"><ele>1971.0</ele><time>2026-04-26T13:22:53.459Z</time></trkpt><trkpt lat="46.2963561" lon="11.7858362"><ele>1972.0</ele><time>2026-04-26T13:22:55.456Z</time></trkpt><trkpt lat="46.2963456" lon="11.7859295"><ele>1973.0</ele><time>2026-04-26T13:22:56.455Z</time></trkpt><trkpt lat="46.296335" lon="11.7860225"><ele>1974.0</ele><time>2026-04-26T13:22:57.462Z</time></trkpt><trkpt lat="46.2963174" lon="11.7862044"><ele>1975.0</ele><time>2026-04-26T13:22:59.456Z</time></trkpt><trkpt lat="46.2963058" lon="11.7863665"><ele>1975.3333333333335</ele><time>2026-04-26T13:23:01.476Z</time></trkpt><trkpt lat="46.296293" lon="11.7865377"><ele>1975.6666666666667</ele><time>2026-04-26T13:23:03.464Z</time></trkpt><trkpt lat="46.2962867" lon="11.7866284"><ele>1976.0</ele><time>2026-04-26T13:23:04.454Z</time></trkpt><trkpt lat="46.2962791" lon="11.7867267"><ele>1976.3333333333335</ele><time>2026-04-26T13:23:05.46Z</time></trkpt><trkpt lat="46.2962742" lon="11.7868362"><ele>1976.6666666666667</ele><time>2026-04-26T13:23:06.463Z</time></trkpt><trkpt lat="46.2962718" lon="11.7869531"><ele>1977.0</ele><time>2026-04-26T13:23:07.462Z</time></trkpt><trkpt lat="46.2962716" lon="11.7870734"><ele>1977.0</ele><time>2026-04-26T13:23:08.454Z</time></trkpt><trkpt lat="46.2962647" lon="11.7871938"><ele>1977.0</ele><time>2026-04-26T13:23:09.462Z</time></trkpt><trkpt lat="46.2962611" lon="11.7873145"><ele>1977.0</ele><time>2026-04-26T13:23:10.467Z</time></trkpt><trkpt lat="46.2962567" lon="11.7874341"><ele>1977.0</ele><time>2026-04-26T13:23:11.465Z</time></trkpt><trkpt lat="46.2962609" lon="11.787554"><ele>1977.0</ele><time>2026-04-26T13:23:12.451Z</time></trkpt><trkpt lat="46.2962636" lon="11.7876704"><ele>1977.0</ele><time>2026-04-26T13:23:13.463Z</time></trkpt><trkpt lat="46.2962643" lon="11.7877834"><ele>1976.6666666666667</ele><time>2026-04-26T13:23:14.468Z</time></trkpt><trkpt lat="46.2962626" lon="11.7878977"><ele>1976.3333333333335</ele><time>2026-04-26T13:23:15.455Z</time></trkpt><trkpt lat="46.2962455" lon="11.7880095"><ele>1976.0</ele><time>2026-04-26T13:23:16.46Z</time></trkpt><trkpt lat="46.2962301" lon="11.7881199"><ele>1975.6666666666667</ele><time>2026-04-26T13:23:17.463Z</time></trkpt><trkpt lat="46.2962509" lon="11.7882351"><ele>1975.3333333333335</ele><time>2026-04-26T13:23:18.454Z</time></trkpt><trkpt lat="46.2962672" lon="11.7883502"><ele>1975.0</ele><time>2026-04-26T13:23:19.468Z</time></trkpt><trkpt lat="46.2962563" lon="11.7884486"><ele>1972.8333333333335</ele><time>2026-04-26T13:23:20.454Z</time></trkpt><trkpt lat="46.2963068" lon="11.7886122"><ele>1970.6666666666667</ele><time>2026-04-26T13:23:22.458Z</time></trkpt><trkpt lat="46.2963494" lon="11.7886899"><ele>1968.5</ele><time>2026-04-26T13:23:23.456Z</time></trkpt><trkpt lat="46.2964182" lon="11.7887362"><ele>1966.3333333333335</ele><time>2026-04-26T13:23:24.469Z</time></trkpt><trkpt lat="46.2964878" lon="11.7887861"><ele>1964.1666666666667</ele><time>2026-04-26T13:23:25.45Z</time></trkpt><trkpt lat="46.2965637" lon="11.788822"><ele>1962.0</ele><time>2026-04-26T13:23:26.469Z</time></trkpt><trkpt lat="46.296642" lon="11.788862"><ele>1961.1999999999998</ele><time>2026-04-26T13:23:27.455Z</time></trkpt><trkpt lat="46.2967305" lon="11.7888931"><ele>1960.3999999999999</ele><time>2026-04-26T13:23:28.463Z</time></trkpt><trkpt lat="46.2968296" lon="11.7889069"><ele>1959.6000000000001</ele><time>2026-04-26T13:23:29.461Z</time></trkpt><trkpt lat="46.2969379" lon="11.7889199"><ele>1958.8000000000002</ele><time>2026-04-26T13:23:30.455Z</time></trkpt><trkpt lat="46.2970525" lon="11.7888927"><ele>1958.0</ele><time>2026-04-26T13:23:31.465Z</time></trkpt><trkpt lat="46.2971684" lon="11.7888689"><ele>1957.6000000000001</ele><time>2026-04-26T13:23:32.48Z</time></trkpt><trkpt lat="46.2972829" lon="11.7888563"><ele>1957.2000000000003</ele><time>2026-04-26T13:23:33.464Z</time></trkpt><trkpt lat="46.297398" lon="11.7888527"><ele>1956.8</ele><time>2026-04-26T13:23:34.467Z</time></trkpt><trkpt lat="46.297503" lon="11.7888427"><ele>1956.4</ele><time>2026-04-26T13:23:35.47Z</time></trkpt><trkpt lat="46.2975929" lon="11.7888294"><ele>1956.0</ele><time>2026-04-26T13:23:36.462Z</time></trkpt><trkpt lat="46.2976651" lon="11.7888225"><ele>1956.0</ele><time>2026-04-26T13:23:37.485Z</time></trkpt><trkpt lat="46.29773" lon="11.7888372"><ele>1956.0</ele><time>2026-04-26T13:23:38.466Z</time></trkpt><trkpt lat="46.2977944" lon="11.7888472"><ele>1956.0</ele><time>2026-04-26T13:23:39.461Z</time></trkpt><trkpt lat="46.2978535" lon="11.7888922"><ele>1956.0</ele><time>2026-04-26T13:23:40.463Z</time></trkpt><trkpt lat="46.2978995" lon="11.7889633"><ele>1956.0</ele><time>2026-04-26T13:23:41.458Z</time></trkpt><trkpt lat="46.2979275" lon="11.7890455"><ele>1956.0</ele><time>2026-04-26T13:23:42.464Z</time></trkpt><trkpt lat="46.2979283" lon="11.7892216"><ele>1957.1666666666667</ele><time>2026-04-26T13:23:44.462Z</time></trkpt><trkpt lat="46.2978571" lon="11.7893641"><ele>1958.3333333333335</ele><time>2026-04-26T13:23:46.458Z</time></trkpt><trkpt lat="46.2977926" lon="11.7893998"><ele>1959.5</ele><time>2026-04-26T13:23:47.459Z</time></trkpt><trkpt lat="46.2977209" lon="11.789417"><ele>1960.6666666666667</ele><time>2026-04-26T13:23:48.458Z</time></trkpt><trkpt lat="46.2976416" lon="11.789411"><ele>1961.8333333333335</ele><time>2026-04-26T13:23:49.455Z</time></trkpt><trkpt lat="46.297554" lon="11.7894113"><ele>1963.0</ele><time>2026-04-26T13:23:50.467Z</time></trkpt><trkpt lat="46.2974588" lon="11.7893987"><ele>1963.0</ele><time>2026-04-26T13:23:51.457Z</time></trkpt><trkpt lat="46.2973547" lon="11.7893805"><ele>1963.0000000000002</ele><time>2026-04-26T13:23:52.477Z</time></trkpt><trkpt lat="46.2972474" lon="11.7893637"><ele>1963.0000000000002</ele><time>2026-04-26T13:23:53.453Z</time></trkpt><trkpt lat="46.2971365" lon="11.7893567"><ele>1963.0</ele><time>2026-04-26T13:23:54.459Z</time></trkpt><trkpt lat="46.2970237" lon="11.7893657"><ele>1963.0</ele><time>2026-04-26T13:23:55.463Z</time></trkpt><trkpt lat="46.2969108" lon="11.7893969"><ele>1958.25</ele><time>2026-04-26T13:23:56.483Z</time></trkpt><trkpt lat="46.2967988" lon="11.7894355"><ele>1953.5</ele><time>2026-04-26T13:23:57.471Z</time></trkpt><trkpt lat="46.2966839" lon="11.7894859"><ele>1948.75</ele><time>2026-04-26T13:23:58.455Z</time></trkpt><trkpt lat="46.2965708" lon="11.7895662"><ele>1944.0</ele><time>2026-04-26T13:23:59.46Z</time></trkpt><trkpt lat="46.296461" lon="11.7896664"><ele>1943.0</ele><time>2026-04-26T13:24:00.45Z</time></trkpt><trkpt lat="46.2963433" lon="11.7897563"><ele>1942.0</ele><time>2026-04-26T13:24:01.473Z</time></trkpt><trkpt lat="46.296239" lon="11.7898783"><ele>1941.0</ele><time>2026-04-26T13:24:02.454Z</time></trkpt><trkpt lat="46.2961295" lon="11.7899994"><ele>1940.0</ele><time>2026-04-26T13:24:03.458Z</time></trkpt><trkpt lat="46.2959959" lon="11.7900813"><ele>1940.0</ele><time>2026-04-26T13:24:04.456Z</time></trkpt><trkpt lat="46.2958578" lon="11.7901747"><ele>1940.0</ele><time>2026-04-26T13:24:05.455Z</time></trkpt><trkpt lat="46.2957215" lon="11.7902718"><ele>1940.0</ele><time>2026-04-26T13:24:06.458Z</time></trkpt><trkpt lat="46.2955733" lon="11.7903648"><ele>1936.0</ele><time>2026-04-26T13:24:07.467Z</time></trkpt><trkpt lat="46.2954202" lon="11.7904431"><ele>1932.0</ele><time>2026-04-26T13:24:08.462Z</time></trkpt><trkpt lat="46.2952621" lon="11.7904921"><ele>1928.0</ele><time>2026-04-26T13:24:09.458Z</time></trkpt><trkpt lat="46.2950955" lon="11.7905203"><ele>1928.0</ele><time>2026-04-26T13:24:10.458Z</time></trkpt><trkpt lat="46.2949192" lon="11.7905316"><ele>1928.0</ele><time>2026-04-26T13:24:11.474Z</time></trkpt><trkpt lat="46.294741" lon="11.7905264"><ele>1928.0</ele><time>2026-04-26T13:24:12.46Z</time></trkpt><trkpt lat="46.2945669" lon="11.7905147"><ele>1928.6666666666665</ele><time>2026-04-26T13:24:13.455Z</time></trkpt><trkpt lat="46.2943947" lon="11.7905151"><ele>1929.3333333333335</ele><time>2026-04-26T13:24:14.459Z</time></trkpt><trkpt lat="46.2942256" lon="11.7905266"><ele>1930.0</ele><time>2026-04-26T13:24:15.456Z</time></trkpt><trkpt lat="46.2940672" lon="11.7905852"><ele>1932.3333333333335</ele><time>2026-04-26T13:24:16.461Z</time></trkpt><trkpt lat="46.2939196" lon="11.7906728"><ele>1934.6666666666665</ele><time>2026-04-26T13:24:17.46Z</time></trkpt><trkpt lat="46.2937827" lon="11.7907846"><ele>1937.0</ele><time>2026-04-26T13:24:18.452Z</time></trkpt><trkpt lat="46.2936519" lon="11.790913"><ele>1932.3333333333333</ele><time>2026-04-26T13:24:19.472Z</time></trkpt><trkpt lat="46.293521" lon="11.7910448"><ele>1927.6666666666665</ele><time>2026-04-26T13:24:20.459Z</time></trkpt><trkpt lat="46.2933895" lon="11.7911777"><ele>1923.0</ele><time>2026-04-26T13:24:21.46Z</time></trkpt><trkpt lat="46.293258" lon="11.7913156"><ele>1923.0</ele><time>2026-04-26T13:24:22.459Z</time></trkpt><trkpt lat="46.293124" lon="11.7914593"><ele>1923.0</ele><time>2026-04-26T13:24:23.464Z</time></trkpt><trkpt lat="46.2929896" lon="11.7915957"><ele>1923.0</ele><time>2026-04-26T13:24:24.473Z</time></trkpt><trkpt lat="46.2928551" lon="11.7917431"><ele>1920.6666666666665</ele><time>2026-04-26T13:24:25.468Z</time></trkpt><trkpt lat="46.2927206" lon="11.7918891"><ele>1918.3333333333333</ele><time>2026-04-26T13:24:26.47Z</time></trkpt><trkpt lat="46.2925953" lon="11.7920472"><ele>1916.0</ele><time>2026-04-26T13:24:27.453Z</time></trkpt><trkpt lat="46.2924606" lon="11.7922034"><ele>1916.0</ele><time>2026-04-26T13:24:28.451Z</time></trkpt><trkpt lat="46.2922949" lon="11.7923015"><ele>1916.0</ele><time>2026-04-26T13:24:29.454Z</time></trkpt><trkpt lat="46.2921284" lon="11.7923926"><ele>1916.0</ele><time>2026-04-26T13:24:30.452Z</time></trkpt><trkpt lat="46.2919615" lon="11.792489"><ele>1912.6666666666665</ele><time>2026-04-26T13:24:31.46Z</time></trkpt><trkpt lat="46.2917902" lon="11.792538"><ele>1909.3333333333335</ele><time>2026-04-26T13:24:32.461Z</time></trkpt><trkpt lat="46.2916108" lon="11.7925885"><ele>1906.0</ele><time>2026-04-26T13:24:33.451Z</time></trkpt><trkpt lat="46.291435" lon="11.7926455"><ele>1904.0</ele><time>2026-04-26T13:24:34.473Z</time></trkpt><trkpt lat="46.2912545" lon="11.7926736"><ele>1902.0</ele><time>2026-04-26T13:24:35.474Z</time></trkpt><trkpt lat="46.2910829" lon="11.7927527"><ele>1900.0</ele><time>2026-04-26T13:24:36.462Z</time></trkpt><trkpt lat="46.2909163" lon="11.7928707"><ele>1900.0</ele><time>2026-04-26T13:24:37.455Z</time></trkpt><trkpt lat="46.2907655" lon="11.7930136"><ele>1900.0</ele><time>2026-04-26T13:24:38.475Z</time></trkpt><trkpt lat="46.2906229" lon="11.7931871"><ele>1900.0</ele><time>2026-04-26T13:24:39.456Z</time></trkpt><trkpt lat="46.2904816" lon="11.7933544"><ele>1896.6666666666667</ele><time>2026-04-26T13:24:40.467Z</time></trkpt><trkpt lat="46.2903366" lon="11.7935115"><ele>1893.3333333333335</ele><time>2026-04-26T13:24:41.458Z</time></trkpt><trkpt lat="46.2901927" lon="11.7936717"><ele>1890.0</ele><time>2026-04-26T13:24:42.463Z</time></trkpt><trkpt lat="46.2900375" lon="11.7937851"><ele>1890.0</ele><time>2026-04-26T13:24:43.479Z</time></trkpt><trkpt lat="46.2898718" lon="11.7938448"><ele>1890.0</ele><time>2026-04-26T13:24:44.476Z</time></trkpt><trkpt lat="46.2897041" lon="11.7938692"><ele>1890.0</ele><time>2026-04-26T13:24:45.487Z</time></trkpt><trkpt lat="46.2895387" lon="11.7938703"><ele>1891.6666666666665</ele><time>2026-04-26T13:24:46.46Z</time></trkpt><trkpt lat="46.2893756" lon="11.7938722"><ele>1893.3333333333333</ele><time>2026-04-26T13:24:47.454Z</time></trkpt><trkpt lat="46.289214" lon="11.7938834"><ele>1895.0</ele><time>2026-04-26T13:24:48.456Z</time></trkpt><trkpt lat="46.2890537" lon="11.7939108"><ele>1892.6666666666665</ele><time>2026-04-26T13:24:49.465Z</time></trkpt><trkpt lat="46.2888934" lon="11.7939654"><ele>1890.3333333333335</ele><time>2026-04-26T13:24:50.456Z</time></trkpt><trkpt lat="46.2887431" lon="11.79406"><ele>1888.0</ele><time>2026-04-26T13:24:51.481Z</time></trkpt><trkpt lat="46.2886028" lon="11.79418"><ele>1888.0</ele><time>2026-04-26T13:24:52.466Z</time></trkpt><trkpt lat="46.2884817" lon="11.7943342"><ele>1888.0</ele><time>2026-04-26T13:24:53.477Z</time></trkpt><trkpt lat="46.2883875" lon="11.7945194"><ele>1888.0</ele><time>2026-04-26T13:24:54.469Z</time></trkpt><trkpt lat="46.2883244" lon="11.7947295"><ele>1893.6666666666667</ele><time>2026-04-26T13:24:55.459Z</time></trkpt><trkpt lat="46.2882978" lon="11.7949582"><ele>1899.3333333333335</ele><time>2026-04-26T13:24:56.458Z</time></trkpt><trkpt lat="46.2882819" lon="11.7951766"><ele>1905.0</ele><time>2026-04-26T13:24:57.464Z</time></trkpt><trkpt lat="46.2882682" lon="11.7953761"><ele>1905.8</ele><time>2026-04-26T13:24:58.461Z</time></trkpt><trkpt lat="46.288251" lon="11.7955564"><ele>1906.6</ele><time>2026-04-26T13:24:59.469Z</time></trkpt><trkpt lat="46.2882302" lon="11.7957136"><ele>1907.4</ele><time>2026-04-26T13:25:00.461Z</time></trkpt><trkpt lat="46.2881952" lon="11.7958464"><ele>1908.2</ele><time>2026-04-26T13:25:01.468Z</time></trkpt><trkpt lat="46.2881398" lon="11.7959598"><ele>1909.0</ele><time>2026-04-26T13:25:02.459Z</time></trkpt><trkpt lat="46.2880508" lon="11.7960233"><ele>1909.75</ele><time>2026-04-26T13:25:03.448Z</time></trkpt><trkpt lat="46.2879602" lon="11.7960641"><ele>1910.5</ele><time>2026-04-26T13:25:04.471Z</time></trkpt><trkpt lat="46.2878509" lon="11.7960619"><ele>1911.25</ele><time>2026-04-26T13:25:05.46Z</time></trkpt><trkpt lat="46.2877393" lon="11.7960226"><ele>1912.0</ele><time>2026-04-26T13:25:06.454Z</time></trkpt><trkpt lat="46.2876147" lon="11.7959502"><ele>1909.3333333333335</ele><time>2026-04-26T13:25:07.471Z</time></trkpt><trkpt lat="46.2874882" lon="11.7958398"><ele>1906.6666666666665</ele><time>2026-04-26T13:25:08.467Z</time></trkpt><trkpt lat="46.2873668" lon="11.7957067"><ele>1904.0</ele><time>2026-04-26T13:25:09.462Z</time></trkpt><trkpt lat="46.287242" lon="11.7955664"><ele>1904.0</ele><time>2026-04-26T13:25:10.458Z</time></trkpt><trkpt lat="46.2871347" lon="11.7954335"><ele>1904.0</ele><time>2026-04-26T13:25:11.448Z</time></trkpt><trkpt lat="46.2870438" lon="11.7953255"><ele>1904.0</ele><time>2026-04-26T13:25:12.447Z</time></trkpt><trkpt lat="46.2869459" lon="11.7952718"><ele>1904.0</ele><time>2026-04-26T13:25:13.451Z</time></trkpt><trkpt lat="46.2868429" lon="11.7952579"><ele>1904.0</ele><time>2026-04-26T13:25:14.462Z</time></trkpt><trkpt lat="46.2867241" lon="11.7953056"><ele>1904.0</ele><time>2026-04-26T13:25:15.458Z</time></trkpt><trkpt lat="46.2865985" lon="11.7953553"><ele>1904.0</ele><time>2026-04-26T13:25:16.459Z</time></trkpt><trkpt lat="46.2864825" lon="11.7954273"><ele>1904.0</ele><time>2026-04-26T13:25:17.47Z</time></trkpt><trkpt lat="46.2863666" lon="11.7955306"><ele>1898.6666666666665</ele><time>2026-04-26T13:25:18.465Z</time></trkpt><trkpt lat="46.2862588" lon="11.7956852"><ele>1893.3333333333335</ele><time>2026-04-26T13:25:19.455Z</time></trkpt><trkpt lat="46.2861385" lon="11.7958382"><ele>1888.0</ele><time>2026-04-26T13:25:20.455Z</time></trkpt><trkpt lat="46.286011" lon="11.7959948"><ele>1890.6666666666667</ele><time>2026-04-26T13:25:21.46Z</time></trkpt><trkpt lat="46.2858898" lon="11.7961579"><ele>1893.3333333333335</ele><time>2026-04-26T13:25:22.453Z</time></trkpt><trkpt lat="46.2857512" lon="11.7962829"><ele>1896.0</ele><time>2026-04-26T13:25:23.466Z</time></trkpt><trkpt lat="46.2856035" lon="11.7963866"><ele>1891.3333333333335</ele><time>2026-04-26T13:25:24.456Z</time></trkpt><trkpt lat="46.2854626" lon="11.7965123"><ele>1886.6666666666667</ele><time>2026-04-26T13:25:25.454Z</time></trkpt><trkpt lat="46.2853263" lon="11.796638"><ele>1882.0</ele><time>2026-04-26T13:25:26.455Z</time></trkpt><trkpt lat="46.285199" lon="11.7967768"><ele>1883.25</ele><time>2026-04-26T13:25:27.459Z</time></trkpt><trkpt lat="46.2850738" lon="11.7968955"><ele>1884.5</ele><time>2026-04-26T13:25:28.47Z</time></trkpt><trkpt lat="46.2849493" lon="11.7969966"><ele>1885.75</ele><time>2026-04-26T13:25:29.46Z</time></trkpt><trkpt lat="46.2848236" lon="11.7970702"><ele>1887.0</ele><time>2026-04-26T13:25:30.464Z</time></trkpt><trkpt lat="46.2847111" lon="11.7971544"><ele>1884.1999999999998</ele><time>2026-04-26T13:25:31.468Z</time></trkpt><trkpt lat="46.2846136" lon="11.7972479"><ele>1881.3999999999999</ele><time>2026-04-26T13:25:32.453Z</time></trkpt><trkpt lat="46.2845266" lon="11.7973404"><ele>1878.6000000000001</ele><time>2026-04-26T13:25:33.46Z</time></trkpt><trkpt lat="46.2844853" lon="11.7974752"><ele>1875.8000000000002</ele><time>2026-04-26T13:25:34.467Z</time></trkpt><trkpt lat="46.284458" lon="11.7976066"><ele>1873.0</ele><time>2026-04-26T13:25:35.45Z</time></trkpt><trkpt lat="46.2844886" lon="11.7977394"><ele>1868.0</ele><time>2026-04-26T13:25:36.459Z</time></trkpt><trkpt lat="46.2845764" lon="11.7978511"><ele>1863.0</ele><time>2026-04-26T13:25:37.455Z</time></trkpt><trkpt lat="46.2847179" lon="11.7978734"><ele>1858.0</ele><time>2026-04-26T13:25:38.451Z</time></trkpt><trkpt lat="46.284843" lon="11.79792"><ele>1853.0</ele><time>2026-04-26T13:25:39.451Z</time></trkpt><trkpt lat="46.2849531" lon="11.7980093"><ele>1853.0</ele><time>2026-04-26T13:25:40.467Z</time></trkpt><trkpt lat="46.28506" lon="11.7980952"><ele>1853.0</ele><time>2026-04-26T13:25:41.457Z</time></trkpt><trkpt lat="46.2851698" lon="11.7981576"><ele>1853.0</ele><time>2026-04-26T13:25:42.451Z</time></trkpt><trkpt lat="46.2852887" lon="11.7982059"><ele>1853.0</ele><time>2026-04-26T13:25:43.466Z</time></trkpt><trkpt lat="46.2854087" lon="11.7982233"><ele>1853.0</ele><time>2026-04-26T13:25:44.452Z</time></trkpt><trkpt lat="46.2855252" lon="11.7982442"><ele>1853.0</ele><time>2026-04-26T13:25:45.453Z</time></trkpt><trkpt lat="46.2856433" lon="11.7982654"><ele>1853.0</ele><time>2026-04-26T13:25:46.46Z</time></trkpt><trkpt lat="46.2857607" lon="11.7982775"><ele>1853.0</ele><time>2026-04-26T13:25:47.463Z</time></trkpt><trkpt lat="46.2858729" lon="11.7982897"><ele>1852.6666666666665</ele><time>2026-04-26T13:25:48.465Z</time></trkpt><trkpt lat="46.2859787" lon="11.7982967"><ele>1852.3333333333333</ele><time>2026-04-26T13:25:49.459Z</time></trkpt><trkpt lat="46.2860743" lon="11.798328"><ele>1852.0</ele><time>2026-04-26T13:25:50.459Z</time></trkpt><trkpt lat="46.286146" lon="11.7983942"><ele>1851.6666666666665</ele><time>2026-04-26T13:25:51.469Z</time></trkpt><trkpt lat="46.2861903" lon="11.7984866"><ele>1851.3333333333333</ele><time>2026-04-26T13:25:52.454Z</time></trkpt><trkpt lat="46.2862017" lon="11.7985799"><ele>1851.0</ele><time>2026-04-26T13:25:53.46Z</time></trkpt><trkpt lat="46.2861668" lon="11.7986664"><ele>1851.0</ele><time>2026-04-26T13:25:54.477Z</time></trkpt><trkpt lat="46.2860879" lon="11.7987301"><ele>1851.0</ele><time>2026-04-26T13:25:55.463Z</time></trkpt><trkpt lat="46.2860184" lon="11.7988101"><ele>1851.0</ele><time>2026-04-26T13:25:56.464Z</time></trkpt><trkpt lat="46.2859474" lon="11.7989196"><ele>1851.0</ele><time>2026-04-26T13:25:57.469Z</time></trkpt><trkpt lat="46.2858813" lon="11.799049"><ele>1851.0</ele><time>2026-04-26T13:25:58.47Z</time></trkpt><trkpt lat="46.2858021" lon="11.7991861"><ele>1851.0</ele><time>2026-04-26T13:25:59.452Z</time></trkpt><trkpt lat="46.2857106" lon="11.7993147"><ele>1851.0</ele><time>2026-04-26T13:26:00.474Z</time></trkpt><trkpt lat="46.2856337" lon="11.7994542"><ele>1851.0</ele><time>2026-04-26T13:26:01.451Z</time></trkpt><trkpt lat="46.2855534" lon="11.7995781"><ele>1851.0</ele><time>2026-04-26T13:26:02.453Z</time></trkpt><trkpt lat="46.2854739" lon="11.7996995"><ele>1848.1999999999998</ele><time>2026-04-26T13:26:03.452Z</time></trkpt><trkpt lat="46.2854" lon="11.7998155"><ele>1845.3999999999999</ele><time>2026-04-26T13:26:04.456Z</time></trkpt><trkpt lat="46.2853449" lon="11.7999353"><ele>1842.6</ele><time>2026-04-26T13:26:05.46Z</time></trkpt><trkpt lat="46.2853229" lon="11.8000552"><ele>1839.8</ele><time>2026-04-26T13:26:06.469Z</time></trkpt><trkpt lat="46.2853055" lon="11.8001536"><ele>1837.0</ele><time>2026-04-26T13:26:07.469Z</time></trkpt><trkpt lat="46.2852883" lon="11.8003068"><ele>1837.0000000000002</ele><time>2026-04-26T13:26:09.46Z</time></trkpt><trkpt lat="46.2852131" lon="11.8002908"><ele>1837.0</ele><time>2026-04-26T13:26:12.478Z</time></trkpt><trkpt lat="46.2852356" lon="11.8001297"><ele>1837.0</ele><time>2026-04-26T13:26:14.462Z</time></trkpt><trkpt lat="46.2852708" lon="11.8000344"><ele>1837.0</ele><time>2026-04-26T13:26:15.474Z</time></trkpt><trkpt lat="46.2853025" lon="11.7999318"><ele>1837.0000000000002</ele><time>2026-04-26T13:26:16.453Z</time></trkpt><trkpt lat="46.2853415" lon="11.7998267"><ele>1837.0</ele><time>2026-04-26T13:26:17.47Z</time></trkpt><trkpt lat="46.2853817" lon="11.7997184"><ele>1837.0000000000002</ele><time>2026-04-26T13:26:18.465Z</time></trkpt><trkpt lat="46.2854178" lon="11.7996052"><ele>1837.0</ele><time>2026-04-26T13:26:19.46Z</time></trkpt><trkpt lat="46.2854598" lon="11.799493"><ele>1837.0</ele><time>2026-04-26T13:26:20.454Z</time></trkpt><trkpt lat="46.2855047" lon="11.799387"><ele>1837.0</ele><time>2026-04-26T13:26:21.459Z</time></trkpt><trkpt lat="46.2855459" lon="11.7992897"><ele>1837.0000000000002</ele><time>2026-04-26T13:26:22.459Z</time></trkpt><trkpt lat="46.2855821" lon="11.7992065"><ele>1837.0</ele><time>2026-04-26T13:26:23.467Z</time></trkpt><trkpt lat="46.2855898" lon="11.7991135"><ele>1837.0</ele><time>2026-04-26T13:26:24.453Z</time></trkpt><trkpt lat="46.2855586" lon="11.7990244"><ele>1836.9999999999998</ele><time>2026-04-26T13:26:25.469Z</time></trkpt><trkpt lat="46.2854532" lon="11.799002"><ele>1836.9999999999998</ele><time>2026-04-26T13:26:27.453Z</time></trkpt><trkpt lat="46.2854018" lon="11.7991065"><ele>1837.0</ele><time>2026-04-26T13:26:29.456Z</time></trkpt><trkpt lat="46.285369" lon="11.7992672"><ele>1837.0</ele><time>2026-04-26T13:26:31.453Z</time></trkpt><trkpt lat="46.2853444" lon="11.7993701"><ele>1837.0000000000002</ele><time>2026-04-26T13:26:32.459Z</time></trkpt><trkpt lat="46.2853152" lon="11.7994653"><ele>1837.0</ele><time>2026-04-26T13:26:33.45Z</time></trkpt><trkpt lat="46.2852755" lon="11.799552"><ele>1837.0</ele><time>2026-04-26T13:26:34.451Z</time></trkpt><trkpt lat="46.2852473" lon="11.7996618"><ele>1837.0</ele><time>2026-04-26T13:26:35.464Z</time></trkpt><trkpt lat="46.2852183" lon="11.7997658"><ele>1837.0000000000002</ele><time>2026-04-26T13:26:36.447Z</time></trkpt><trkpt lat="46.2851806" lon="11.7998627"><ele>1837.0</ele><time>2026-04-26T13:26:37.468Z</time></trkpt><trkpt lat="46.2851416" lon="11.7999576"><ele>1837.0000000000002</ele><time>2026-04-26T13:26:38.466Z</time></trkpt><trkpt lat="46.2851031" lon="11.8000551"><ele>1837.0</ele><time>2026-04-26T13:26:39.466Z</time></trkpt><trkpt lat="46.2850678" lon="11.8001569"><ele>1837.0</ele><time>2026-04-26T13:26:40.463Z</time></trkpt><trkpt lat="46.2850614" lon="11.8002743"><ele>1837.0</ele><time>2026-04-26T13:26:41.451Z</time></trkpt><trkpt lat="46.2850581" lon="11.8003721"><ele>1837.0000000000002</ele><time>2026-04-26T13:26:42.447Z</time></trkpt><trkpt lat="46.2850655" lon="11.8005273"><ele>1837.0</ele><time>2026-04-26T13:26:44.455Z</time></trkpt><trkpt lat="46.2849644" lon="11.8005597"><ele>1837.0000000000002</ele><time>2026-04-26T13:26:46.462Z</time></trkpt><trkpt lat="46.2849049" lon="11.8004538"><ele>1837.0</ele><time>2026-04-26T13:26:48.449Z</time></trkpt><trkpt lat="46.2849239" lon="11.8003595"><ele>1837.0</ele><time>2026-04-26T13:26:49.461Z</time></trkpt><trkpt lat="46.2849501" lon="11.8002466"><ele>1837.0</ele><time>2026-04-26T13:26:50.451Z</time></trkpt><trkpt lat="46.2849724" lon="11.8001201"><ele>1837.0000000000002</ele><time>2026-04-26T13:26:51.463Z</time></trkpt><trkpt lat="46.2849764" lon="11.7999735"><ele>1837.0</ele><time>2026-04-26T13:26:52.47Z</time></trkpt><trkpt lat="46.2849943" lon="11.7998343"><ele>1837.0000000000002</ele><time>2026-04-26T13:26:53.464Z</time></trkpt><trkpt lat="46.285007" lon="11.7997184"><ele>1837.0</ele><time>2026-04-26T13:26:54.47Z</time></trkpt><trkpt lat="46.2850204" lon="11.7996124"><ele>1837.0</ele><time>2026-04-26T13:26:55.459Z</time></trkpt><trkpt lat="46.285018" lon="11.7995198"><ele>1837.0</ele><time>2026-04-26T13:26:56.469Z</time></trkpt><trkpt lat="46.2849673" lon="11.7994623"><ele>1837.0000000000002</ele><time>2026-04-26T13:26:57.453Z</time></trkpt><trkpt lat="46.2848564" lon="11.7994957"><ele>1837.0</ele><time>2026-04-26T13:26:59.451Z</time></trkpt><trkpt lat="46.2848241" lon="11.799606"><ele>1837.0</ele><time>2026-04-26T13:27:00.447Z</time></trkpt><trkpt lat="46.2848025" lon="11.7997317"><ele>1836.9999999999998</ele><time>2026-04-26T13:27:01.466Z</time></trkpt><trkpt lat="46.2847766" lon="11.7998908"><ele>1836.9999999999998</ele><time>2026-04-26T13:27:02.469Z</time></trkpt><trkpt lat="46.2847453" lon="11.8000512"><ele>1837.0</ele><time>2026-04-26T13:27:03.454Z</time></trkpt><trkpt lat="46.2847039" lon="11.8001924"><ele>1837.0</ele><time>2026-04-26T13:27:04.47Z</time></trkpt><trkpt lat="46.2846798" lon="11.8003325"><ele>1830.0</ele><time>2026-04-26T13:27:05.46Z</time></trkpt><trkpt lat="46.2846414" lon="11.8004602"><ele>1822.9999999999998</ele><time>2026-04-26T13:27:06.459Z</time></trkpt><trkpt lat="46.2846161" lon="11.8005904"><ele>1815.9999999999998</ele><time>2026-04-26T13:27:07.47Z</time></trkpt><trkpt lat="46.2846028" lon="11.8007125"><ele>1809.0</ele><time>2026-04-26T13:27:08.451Z</time></trkpt><trkpt lat="46.2846394" lon="11.8008259"><ele>1802.0</ele><time>2026-04-26T13:27:09.463Z</time></trkpt><trkpt lat="46.2847028" lon="11.8009168"><ele>1805.6</ele><time>2026-04-26T13:27:10.46Z</time></trkpt><trkpt lat="46.2848143" lon="11.8009424"><ele>1809.1999999999998</ele><time>2026-04-26T13:27:11.45Z</time></trkpt><trkpt lat="46.2848995" lon="11.8009702"><ele>1812.8</ele><time>2026-04-26T13:27:12.459Z</time></trkpt><trkpt lat="46.2849954" lon="11.8010007"><ele>1816.4</ele><time>2026-04-26T13:27:13.461Z</time></trkpt><trkpt lat="46.2850688" lon="11.8010729"><ele>1820.0</ele><time>2026-04-26T13:27:14.457Z</time></trkpt><trkpt lat="46.2851244" lon="11.8011608"><ele>1820.0</ele><time>2026-04-26T13:27:15.46Z</time></trkpt><trkpt lat="46.2851431" lon="11.8012807"><ele>1820.0</ele><time>2026-04-26T13:27:16.458Z</time></trkpt><trkpt lat="46.2850994" lon="11.8013957"><ele>1820.0</ele><time>2026-04-26T13:27:17.456Z</time></trkpt><trkpt lat="46.2850077" lon="11.8014604"><ele>1820.0</ele><time>2026-04-26T13:27:18.456Z</time></trkpt><trkpt lat="46.2848994" lon="11.8015295"><ele>1820.0</ele><time>2026-04-26T13:27:19.459Z</time></trkpt><trkpt lat="46.2847613" lon="11.8015837"><ele>1816.6666666666665</ele><time>2026-04-26T13:27:20.468Z</time></trkpt><trkpt lat="46.2845995" lon="11.8016157"><ele>1813.3333333333335</ele><time>2026-04-26T13:27:21.45Z</time></trkpt><trkpt lat="46.2844216" lon="11.8016716"><ele>1810.0</ele><time>2026-04-26T13:27:22.485Z</time></trkpt><trkpt lat="46.2842436" lon="11.8017575"><ele>1810.0</ele><time>2026-04-26T13:27:23.455Z</time></trkpt><trkpt lat="46.2840566" lon="11.8018032"><ele>1810.0</ele><time>2026-04-26T13:27:24.451Z</time></trkpt><trkpt lat="46.2838612" lon="11.8018039"><ele>1810.0</ele><time>2026-04-26T13:27:25.458Z</time></trkpt><trkpt lat="46.2836689" lon="11.8017808"><ele>1809.6666666666667</ele><time>2026-04-26T13:27:26.459Z</time></trkpt><trkpt lat="46.2834864" lon="11.8017837"><ele>1809.3333333333335</ele><time>2026-04-26T13:27:27.457Z</time></trkpt><trkpt lat="46.2832969" lon="11.8017912"><ele>1809.0</ele><time>2026-04-26T13:27:28.45Z</time></trkpt><trkpt lat="46.2831079" lon="11.801802"><ele>1806.6666666666665</ele><time>2026-04-26T13:27:29.485Z</time></trkpt><trkpt lat="46.282918" lon="11.8018268"><ele>1804.3333333333333</ele><time>2026-04-26T13:27:30.45Z</time></trkpt><trkpt lat="46.2827327" lon="11.8018717"><ele>1802.0</ele><time>2026-04-26T13:27:31.462Z</time></trkpt><trkpt lat="46.2825503" lon="11.8018941"><ele>1803.75</ele><time>2026-04-26T13:27:32.465Z</time></trkpt><trkpt lat="46.2823784" lon="11.8019147"><ele>1805.5</ele><time>2026-04-26T13:27:33.457Z</time></trkpt><trkpt lat="46.2822335" lon="11.8019453"><ele>1807.25</ele><time>2026-04-26T13:27:34.476Z</time></trkpt><trkpt lat="46.2821287" lon="11.8019509"><ele>1809.0</ele><time>2026-04-26T13:27:35.468Z</time></trkpt><trkpt lat="46.2820611" lon="11.8019697"><ele>1809.0</ele><time>2026-04-26T13:27:36.457Z</time></trkpt><trkpt lat="46.2819762" lon="11.8019379"><ele>1809.0</ele><time>2026-04-26T13:27:38.464Z</time></trkpt><trkpt lat="46.282003" lon="11.8017976"><ele>1809.0</ele><time>2026-04-26T13:27:40.453Z</time></trkpt><trkpt lat="46.2820719" lon="11.8017473"><ele>1809.0</ele><time>2026-04-26T13:27:41.452Z</time></trkpt><trkpt lat="46.2821589" lon="11.8016898"><ele>1809.0</ele><time>2026-04-26T13:27:42.464Z</time></trkpt><trkpt lat="46.2822677" lon="11.8016486"><ele>1807.6</ele><time>2026-04-26T13:27:43.453Z</time></trkpt><trkpt lat="46.282378" lon="11.8015861"><ele>1806.2</ele><time>2026-04-26T13:27:44.455Z</time></trkpt><trkpt lat="46.282473" lon="11.8015316"><ele>1804.7999999999997</ele><time>2026-04-26T13:27:45.461Z</time></trkpt><trkpt lat="46.2825504" lon="11.8014622"><ele>1803.3999999999999</ele><time>2026-04-26T13:27:46.466Z</time></trkpt><trkpt lat="46.2826056" lon="11.8014042"><ele>1802.0</ele><time>2026-04-26T13:27:47.453Z</time></trkpt><trkpt lat="46.2827166" lon="11.8013591"><ele>1802.0</ele><time>2026-04-26T13:27:49.458Z</time></trkpt><trkpt lat="46.2827353" lon="11.8012244"><ele>1801.9999999999998</ele><time>2026-04-26T13:27:51.457Z</time></trkpt><trkpt lat="46.28268" lon="11.8011572"><ele>1801.9999999999998</ele><time>2026-04-26T13:27:52.465Z</time></trkpt><trkpt lat="46.2826032" lon="11.8011678"><ele>1802.0</ele><time>2026-04-26T13:27:53.466Z</time></trkpt><trkpt lat="46.2825095" lon="11.8012344"><ele>1802.0</ele><time>2026-04-26T13:27:54.457Z</time></trkpt><trkpt lat="46.2823823" lon="11.8012235"><ele>1799.75</ele><time>2026-04-26T13:27:55.459Z</time></trkpt><trkpt lat="46.2822586" lon="11.8012776"><ele>1797.5</ele><time>2026-04-26T13:27:56.484Z</time></trkpt><trkpt lat="46.2821282" lon="11.801321"><ele>1795.25</ele><time>2026-04-26T13:27:57.455Z</time></trkpt><trkpt lat="46.2819921" lon="11.8013439"><ele>1793.0</ele><time>2026-04-26T13:27:58.466Z</time></trkpt><trkpt lat="46.2818516" lon="11.8013735"><ele>1793.0</ele><time>2026-04-26T13:27:59.473Z</time></trkpt><trkpt lat="46.281711" lon="11.8013499"><ele>1793.0</ele><time>2026-04-26T13:28:00.469Z</time></trkpt><trkpt lat="46.2815627" lon="11.8012974"><ele>1793.0</ele><time>2026-04-26T13:28:01.46Z</time></trkpt><trkpt lat="46.2814233" lon="11.8013135"><ele>1793.0</ele><time>2026-04-26T13:28:02.47Z</time></trkpt><trkpt lat="46.2812823" lon="11.8012793"><ele>1790.25</ele><time>2026-04-26T13:28:03.47Z</time></trkpt><trkpt lat="46.2811416" lon="11.8012701"><ele>1787.5</ele><time>2026-04-26T13:28:04.461Z</time></trkpt><trkpt lat="46.2810069" lon="11.8012995"><ele>1784.75</ele><time>2026-04-26T13:28:05.46Z</time></trkpt><trkpt lat="46.2808785" lon="11.8013506"><ele>1782.0</ele><time>2026-04-26T13:28:06.458Z</time></trkpt><trkpt lat="46.2807576" lon="11.8014028"><ele>1782.0</ele><time>2026-04-26T13:28:07.457Z</time></trkpt><trkpt lat="46.2806342" lon="11.8014397"><ele>1782.0</ele><time>2026-04-26T13:28:08.469Z</time></trkpt><trkpt lat="46.280535" lon="11.8015386"><ele>1782.0</ele><time>2026-04-26T13:28:09.458Z</time></trkpt><trkpt lat="46.2804471" lon="11.8016503"><ele>1782.0</ele><time>2026-04-26T13:28:10.463Z</time></trkpt><trkpt lat="46.2803622" lon="11.8017557"><ele>1779.8</ele><time>2026-04-26T13:28:11.474Z</time></trkpt><trkpt lat="46.2802727" lon="11.8018573"><ele>1777.6</ele><time>2026-04-26T13:28:12.467Z</time></trkpt><trkpt lat="46.280171" lon="11.8019345"><ele>1775.3999999999999</ele><time>2026-04-26T13:28:13.475Z</time></trkpt><trkpt lat="46.2800629" lon="11.8019819"><ele>1773.1999999999998</ele><time>2026-04-26T13:28:14.467Z</time></trkpt><trkpt lat="46.2799611" lon="11.8020239"><ele>1771.0</ele><time>2026-04-26T13:28:15.472Z</time></trkpt><trkpt lat="46.2798695" lon="11.8021031"><ele>1771.0</ele><time>2026-04-26T13:28:16.459Z</time></trkpt><trkpt lat="46.2797753" lon="11.8021711"><ele>1771.0</ele><time>2026-04-26T13:28:17.461Z</time></trkpt><trkpt lat="46.2797299" lon="11.8023063"><ele>1771.0</ele><time>2026-04-26T13:28:18.455Z</time></trkpt><trkpt lat="46.2796795" lon="11.8024229"><ele>1771.0</ele><time>2026-04-26T13:28:19.478Z</time></trkpt><trkpt lat="46.2796552" lon="11.8025452"><ele>1771.0</ele><time>2026-04-26T13:28:20.45Z</time></trkpt><trkpt lat="46.2796422" lon="11.8026764"><ele>1768.6666666666667</ele><time>2026-04-26T13:28:21.46Z</time></trkpt><trkpt lat="46.2796258" lon="11.8027986"><ele>1766.3333333333335</ele><time>2026-04-26T13:28:22.465Z</time></trkpt><trkpt lat="46.2796288" lon="11.8029184"><ele>1764.0</ele><time>2026-04-26T13:28:23.464Z</time></trkpt><trkpt lat="46.2795926" lon="11.8029988"><ele>1761.6666666666665</ele><time>2026-04-26T13:28:24.466Z</time></trkpt><trkpt lat="46.2795106" lon="11.803089"><ele>1759.3333333333333</ele><time>2026-04-26T13:28:26.446Z</time></trkpt><trkpt lat="46.2794718" lon="11.8029931"><ele>1757.0</ele><time>2026-04-26T13:28:27.459Z</time></trkpt><trkpt lat="46.2794702" lon="11.802867"><ele>1757.0</ele><time>2026-04-26T13:28:28.445Z</time></trkpt><trkpt lat="46.2794977" lon="11.8027441"><ele>1756.9999999999998</ele><time>2026-04-26T13:28:29.439Z</time></trkpt><trkpt lat="46.2795169" lon="11.8025836"><ele>1756.9999999999998</ele><time>2026-04-26T13:28:30.431Z</time></trkpt><trkpt lat="46.2795325" lon="11.8024078"><ele>1757.0</ele><time>2026-04-26T13:28:31.461Z</time></trkpt><trkpt lat="46.2795508" lon="11.8022318"><ele>1757.0</ele><time>2026-04-26T13:28:32.449Z</time></trkpt><trkpt lat="46.279567" lon="11.802068"><ele>1755.5</ele><time>2026-04-26T13:28:33.447Z</time></trkpt><trkpt lat="46.279597" lon="11.8019099"><ele>1754.0</ele><time>2026-04-26T13:28:34.466Z</time></trkpt><trkpt lat="46.2796412" lon="11.8017556"><ele>1752.5</ele><time>2026-04-26T13:28:35.466Z</time></trkpt><trkpt lat="46.2796866" lon="11.8016012"><ele>1751.0</ele><time>2026-04-26T13:28:36.466Z</time></trkpt><trkpt lat="46.2797384" lon="11.8014504"><ele>1751.5</ele><time>2026-04-26T13:28:37.486Z</time></trkpt><trkpt lat="46.2797971" lon="11.8013032"><ele>1752.0</ele><time>2026-04-26T13:28:38.451Z</time></trkpt><trkpt lat="46.2798705" lon="11.8011655"><ele>1752.5</ele><time>2026-04-26T13:28:39.464Z</time></trkpt><trkpt lat="46.2799533" lon="11.8010278"><ele>1753.0</ele><time>2026-04-26T13:28:40.464Z</time></trkpt><trkpt lat="46.2799954" lon="11.8008546"><ele>1753.0</ele><time>2026-04-26T13:28:41.474Z</time></trkpt><trkpt lat="46.2800492" lon="11.8006877"><ele>1753.0</ele><time>2026-04-26T13:28:42.46Z</time></trkpt><trkpt lat="46.2801093" lon="11.800516"><ele>1753.0</ele><time>2026-04-26T13:28:43.466Z</time></trkpt><trkpt lat="46.2801819" lon="11.8003458"><ele>1753.0</ele><time>2026-04-26T13:28:44.466Z</time></trkpt><trkpt lat="46.2802804" lon="11.8001943"><ele>1753.75</ele><time>2026-04-26T13:28:45.459Z</time></trkpt><trkpt lat="46.2803546" lon="11.800019"><ele>1754.5</ele><time>2026-04-26T13:28:46.478Z</time></trkpt><trkpt lat="46.2804389" lon="11.7998759"><ele>1755.25</ele><time>2026-04-26T13:28:47.471Z</time></trkpt><trkpt lat="46.2805298" lon="11.7997448"><ele>1756.0</ele><time>2026-04-26T13:28:48.461Z</time></trkpt><trkpt lat="46.2806334" lon="11.7996508"><ele>1756.0</ele><time>2026-04-26T13:28:49.462Z</time></trkpt><trkpt lat="46.2807672" lon="11.7996441"><ele>1756.0</ele><time>2026-04-26T13:28:50.454Z</time></trkpt><trkpt lat="46.2808707" lon="11.7996015"><ele>1756.0</ele><time>2026-04-26T13:28:51.465Z</time></trkpt><trkpt lat="46.2809438" lon="11.7995272"><ele>1756.0</ele><time>2026-04-26T13:28:52.455Z</time></trkpt><trkpt lat="46.2809972" lon="11.799449"><ele>1756.0</ele><time>2026-04-26T13:28:53.467Z</time></trkpt><trkpt lat="46.2810349" lon="11.7993624"><ele>1752.4</ele><time>2026-04-26T13:28:54.474Z</time></trkpt><trkpt lat="46.2809884" lon="11.799263"><ele>1748.8</ele><time>2026-04-26T13:28:55.461Z</time></trkpt><trkpt lat="46.2809229" lon="11.7991883"><ele>1745.2000000000003</ele><time>2026-04-26T13:28:56.471Z</time></trkpt><trkpt lat="46.2808271" lon="11.7991901"><ele>1741.6000000000001</ele><time>2026-04-26T13:28:57.454Z</time></trkpt><trkpt lat="46.2807219" lon="11.7992398"><ele>1738.0</ele><time>2026-04-26T13:28:58.451Z</time></trkpt><trkpt lat="46.2806082" lon="11.799288"><ele>1739.25</ele><time>2026-04-26T13:28:59.453Z</time></trkpt><trkpt lat="46.2804837" lon="11.7993168"><ele>1740.5</ele><time>2026-04-26T13:29:00.448Z</time></trkpt><trkpt lat="46.2803515" lon="11.7993578"><ele>1741.75</ele><time>2026-04-26T13:29:01.485Z</time></trkpt><trkpt lat="46.2802126" lon="11.7994068"><ele>1743.0</ele><time>2026-04-26T13:29:02.463Z</time></trkpt><trkpt lat="46.2800664" lon="11.7994606"><ele>1743.0</ele><time>2026-04-26T13:29:03.471Z</time></trkpt><trkpt lat="46.2799171" lon="11.7995317"><ele>1743.0</ele><time>2026-04-26T13:29:04.462Z</time></trkpt><trkpt lat="46.2797713" lon="11.7996031"><ele>1743.0</ele><time>2026-04-26T13:29:05.463Z</time></trkpt><trkpt lat="46.2796251" lon="11.7996779"><ele>1739.0</ele><time>2026-04-26T13:29:06.461Z</time></trkpt><trkpt lat="46.2794769" lon="11.7997565"><ele>1735.0</ele><time>2026-04-26T13:29:07.473Z</time></trkpt><trkpt lat="46.2793368" lon="11.7998548"><ele>1731.0</ele><time>2026-04-26T13:29:08.454Z</time></trkpt><trkpt lat="46.2791943" lon="11.7999436"><ele>1731.0</ele><time>2026-04-26T13:29:09.491Z</time></trkpt><trkpt lat="46.2790431" lon="11.8000263"><ele>1731.0</ele><time>2026-04-26T13:29:10.467Z</time></trkpt><trkpt lat="46.2789058" lon="11.8001464"><ele>1731.0</ele><time>2026-04-26T13:29:11.467Z</time></trkpt><trkpt lat="46.2787739" lon="11.8002816"><ele>1726.6666666666665</ele><time>2026-04-26T13:29:12.472Z</time></trkpt><trkpt lat="46.2786421" lon="11.8004118"><ele>1722.3333333333333</ele><time>2026-04-26T13:29:13.457Z</time></trkpt><trkpt lat="46.2785122" lon="11.8005398"><ele>1718.0</ele><time>2026-04-26T13:29:14.474Z</time></trkpt><trkpt lat="46.2783986" lon="11.8006816"><ele>1718.0</ele><time>2026-04-26T13:29:15.461Z</time></trkpt><trkpt lat="46.2782892" lon="11.8008315"><ele>1718.0</ele><time>2026-04-26T13:29:16.46Z</time></trkpt><trkpt lat="46.278191" lon="11.8009888"><ele>1718.0</ele><time>2026-04-26T13:29:17.486Z</time></trkpt><trkpt lat="46.2781054" lon="11.8011523"><ele>1718.0</ele><time>2026-04-26T13:29:18.458Z</time></trkpt><trkpt lat="46.2780497" lon="11.8013349"><ele>1715.25</ele><time>2026-04-26T13:29:19.469Z</time></trkpt><trkpt lat="46.2779915" lon="11.8015098"><ele>1712.5</ele><time>2026-04-26T13:29:20.46Z</time></trkpt><trkpt lat="46.2779384" lon="11.8016777"><ele>1709.75</ele><time>2026-04-26T13:29:21.478Z</time></trkpt><trkpt lat="46.2779005" lon="11.8018392"><ele>1707.0</ele><time>2026-04-26T13:29:22.458Z</time></trkpt><trkpt lat="46.2778669" lon="11.8019931"><ele>1706.8333333333333</ele><time>2026-04-26T13:29:23.464Z</time></trkpt><trkpt lat="46.2778265" lon="11.8021169"><ele>1706.6666666666665</ele><time>2026-04-26T13:29:24.465Z</time></trkpt><trkpt lat="46.2778153" lon="11.8022286"><ele>1706.5</ele><time>2026-04-26T13:29:25.471Z</time></trkpt><trkpt lat="46.2777599" lon="11.8022989"><ele>1706.3333333333333</ele><time>2026-04-26T13:29:26.458Z</time></trkpt><trkpt lat="46.2777066" lon="11.8023538"><ele>1706.1666666666665</ele><time>2026-04-26T13:29:27.466Z</time></trkpt><trkpt lat="46.2776113" lon="11.8023652"><ele>1706.0</ele><time>2026-04-26T13:29:29.463Z</time></trkpt><trkpt lat="46.2775643" lon="11.8021875"><ele>1706.0</ele><time>2026-04-26T13:29:31.464Z</time></trkpt><trkpt lat="46.2775609" lon="11.8020557"><ele>1706.0</ele><time>2026-04-26T13:29:32.463Z</time></trkpt><trkpt lat="46.2775742" lon="11.8018812"><ele>1706.0</ele><time>2026-04-26T13:29:33.467Z</time></trkpt><trkpt lat="46.277589" lon="11.8016934"><ele>1706.0</ele><time>2026-04-26T13:29:34.461Z</time></trkpt><trkpt lat="46.2775855" lon="11.801513"><ele>1706.25</ele><time>2026-04-26T13:29:35.453Z</time></trkpt><trkpt lat="46.27759" lon="11.801342"><ele>1706.5</ele><time>2026-04-26T13:29:36.474Z</time></trkpt><trkpt lat="46.2775781" lon="11.8011799"><ele>1706.75</ele><time>2026-04-26T13:29:37.466Z</time></trkpt><trkpt lat="46.2775564" lon="11.8010269"><ele>1707.0</ele><time>2026-04-26T13:29:38.469Z</time></trkpt><trkpt lat="46.277516" lon="11.8008742"><ele>1706.5</ele><time>2026-04-26T13:29:39.467Z</time></trkpt><trkpt lat="46.2774394" lon="11.8007396"><ele>1706.0</ele><time>2026-04-26T13:29:40.47Z</time></trkpt><trkpt lat="46.2774139" lon="11.8005613"><ele>1705.5</ele><time>2026-04-26T13:29:41.469Z</time></trkpt><trkpt lat="46.2774003" lon="11.8003763"><ele>1705.0</ele><time>2026-04-26T13:29:42.465Z</time></trkpt><trkpt lat="46.2773963" lon="11.8001824"><ele>1703.75</ele><time>2026-04-26T13:29:43.459Z</time></trkpt><trkpt lat="46.2774249" lon="11.7999923"><ele>1702.5</ele><time>2026-04-26T13:29:44.464Z</time></trkpt><trkpt lat="46.277468" lon="11.7997948"><ele>1701.25</ele><time>2026-04-26T13:29:45.473Z</time></trkpt><trkpt lat="46.2775239" lon="11.7996049"><ele>1700.0</ele><time>2026-04-26T13:29:46.464Z</time></trkpt><trkpt lat="46.2775766" lon="11.7994221"><ele>1699.25</ele><time>2026-04-26T13:29:47.456Z</time></trkpt><trkpt lat="46.2776327" lon="11.7992517"><ele>1698.5</ele><time>2026-04-26T13:29:48.455Z</time></trkpt><trkpt lat="46.2776885" lon="11.799084"><ele>1697.75</ele><time>2026-04-26T13:29:49.466Z</time></trkpt><trkpt lat="46.2777517" lon="11.7989287"><ele>1697.0</ele><time>2026-04-26T13:29:50.465Z</time></trkpt><trkpt lat="46.2778188" lon="11.7988028"><ele>1696.9999999999998</ele><time>2026-04-26T13:29:51.454Z</time></trkpt><trkpt lat="46.2778739" lon="11.7987049"><ele>1697.0</ele><time>2026-04-26T13:29:52.467Z</time></trkpt><trkpt lat="46.2779036" lon="11.7986104"><ele>1697.0</ele><time>2026-04-26T13:29:53.464Z</time></trkpt><trkpt lat="46.2779181" lon="11.7985119"><ele>1697.0</ele><time>2026-04-26T13:29:54.474Z</time></trkpt><trkpt lat="46.2778824" lon="11.798428"><ele>1696.9999999999998</ele><time>2026-04-26T13:29:55.469Z</time></trkpt><trkpt lat="46.2778218" lon="11.7983884"><ele>1697.0</ele><time>2026-04-26T13:29:56.464Z</time></trkpt><trkpt lat="46.2777198" lon="11.7984523"><ele>1697.0</ele><time>2026-04-26T13:29:57.471Z</time></trkpt><trkpt lat="46.2776217" lon="11.7985133"><ele>1697.0</ele><time>2026-04-26T13:29:58.464Z</time></trkpt><trkpt lat="46.2775157" lon="11.7985779"><ele>1697.0</ele><time>2026-04-26T13:29:59.466Z</time></trkpt><trkpt lat="46.2774037" lon="11.7986393"><ele>1697.0</ele><time>2026-04-26T13:30:00.472Z</time></trkpt><trkpt lat="46.2772972" lon="11.7986954"><ele>1693.25</ele><time>2026-04-26T13:30:01.474Z</time></trkpt><trkpt lat="46.2771874" lon="11.7987561"><ele>1689.5</ele><time>2026-04-26T13:30:02.463Z</time></trkpt><trkpt lat="46.2770791" lon="11.7988269"><ele>1685.75</ele><time>2026-04-26T13:30:03.469Z</time></trkpt><trkpt lat="46.2769738" lon="11.7988958"><ele>1682.0</ele><time>2026-04-26T13:30:04.462Z</time></trkpt><trkpt lat="46.2768782" lon="11.7989961"><ele>1682.0</ele><time>2026-04-26T13:30:05.462Z</time></trkpt><trkpt lat="46.2767992" lon="11.7991166"><ele>1682.0</ele><time>2026-04-26T13:30:06.467Z</time></trkpt><trkpt lat="46.2767245" lon="11.79924"><ele>1682.0</ele><time>2026-04-26T13:30:07.475Z</time></trkpt><trkpt lat="46.2766319" lon="11.7993669"><ele>1682.0</ele><time>2026-04-26T13:30:08.477Z</time></trkpt><trkpt lat="46.2765214" lon="11.7994877"><ele>1679.0</ele><time>2026-04-26T13:30:09.465Z</time></trkpt><trkpt lat="46.2763573" lon="11.7995598"><ele>1676.0</ele><time>2026-04-26T13:30:10.484Z</time></trkpt><trkpt lat="46.2762274" lon="11.7996545"><ele>1673.0</ele><time>2026-04-26T13:30:11.466Z</time></trkpt><trkpt lat="46.2761056" lon="11.7997591"><ele>1673.0</ele><time>2026-04-26T13:30:12.462Z</time></trkpt><trkpt lat="46.2759803" lon="11.7998763"><ele>1673.0</ele><time>2026-04-26T13:30:13.453Z</time></trkpt><trkpt lat="46.2758609" lon="11.8000078"><ele>1673.0</ele><time>2026-04-26T13:30:14.461Z</time></trkpt><trkpt lat="46.2757527" lon="11.8001485"><ele>1673.0</ele><time>2026-04-26T13:30:15.462Z</time></trkpt><trkpt lat="46.2756511" lon="11.8002883"><ele>1669.25</ele><time>2026-04-26T13:30:16.465Z</time></trkpt><trkpt lat="46.2755546" lon="11.8004217"><ele>1665.5</ele><time>2026-04-26T13:30:17.476Z</time></trkpt><trkpt lat="46.2754619" lon="11.8005487"><ele>1661.75</ele><time>2026-04-26T13:30:18.481Z</time></trkpt><trkpt lat="46.275377" lon="11.8006766"><ele>1658.0</ele><time>2026-04-26T13:30:19.473Z</time></trkpt><trkpt lat="46.2753073" lon="11.800796"><ele>1657.9999999999998</ele><time>2026-04-26T13:30:20.473Z</time></trkpt><trkpt lat="46.2752523" lon="11.8008935"><ele>1658.0</ele><time>2026-04-26T13:30:21.467Z</time></trkpt><trkpt lat="46.2752026" lon="11.8009517"><ele>1658.0</ele><time>2026-04-26T13:30:22.465Z</time></trkpt><trkpt lat="46.2750935" lon="11.8009596"><ele>1658.0</ele><time>2026-04-26T13:30:24.469Z</time></trkpt><trkpt lat="46.2750556" lon="11.8008846"><ele>1657.9999999999998</ele><time>2026-04-26T13:30:25.485Z</time></trkpt><trkpt lat="46.2750678" lon="11.8007486"><ele>1658.0</ele><time>2026-04-26T13:30:26.457Z</time></trkpt><trkpt lat="46.2750976" lon="11.8005515"><ele>1658.0</ele><time>2026-04-26T13:30:27.482Z</time></trkpt><trkpt lat="46.2751081" lon="11.8002929"><ele>1658.0</ele><time>2026-04-26T13:30:28.459Z</time></trkpt><trkpt lat="46.2751385" lon="11.8000079"><ele>1658.0</ele><time>2026-04-26T13:30:29.464Z</time></trkpt><trkpt lat="46.2751446" lon="11.7997312"><ele>1658.3333333333333</ele><time>2026-04-26T13:30:30.464Z</time></trkpt><trkpt lat="46.2751503" lon="11.7994695"><ele>1658.6666666666665</ele><time>2026-04-26T13:30:31.47Z</time></trkpt><trkpt lat="46.2751578" lon="11.7992174"><ele>1659.0</ele><time>2026-04-26T13:30:32.465Z</time></trkpt><trkpt lat="46.2751579" lon="11.7989769"><ele>1659.0</ele><time>2026-04-26T13:30:33.469Z</time></trkpt><trkpt lat="46.2751342" lon="11.7987399"><ele>1659.0</ele><time>2026-04-26T13:30:34.467Z</time></trkpt><trkpt lat="46.2751288" lon="11.7985128"><ele>1659.0</ele><time>2026-04-26T13:30:35.46Z</time></trkpt><trkpt lat="46.2751384" lon="11.7982973"><ele>1659.2</ele><time>2026-04-26T13:30:36.46Z</time></trkpt><trkpt lat="46.2751546" lon="11.798096"><ele>1659.4</ele><time>2026-04-26T13:30:37.465Z</time></trkpt><trkpt lat="46.2751609" lon="11.7979252"><ele>1659.6</ele><time>2026-04-26T13:30:38.461Z</time></trkpt><trkpt lat="46.2751615" lon="11.7977965"><ele>1659.8</ele><time>2026-04-26T13:30:39.46Z</time></trkpt><trkpt lat="46.2751836" lon="11.7976968"><ele>1660.0</ele><time>2026-04-26T13:30:40.462Z</time></trkpt><trkpt lat="46.2751127" lon="11.7975506"><ele>1660.0</ele><time>2026-04-26T13:30:42.464Z</time></trkpt><trkpt lat="46.2750394" lon="11.7975233"><ele>1660.0</ele><time>2026-04-26T13:30:43.476Z</time></trkpt><trkpt lat="46.274958" lon="11.7975727"><ele>1660.0</ele><time>2026-04-26T13:30:44.455Z</time></trkpt><trkpt lat="46.2748686" lon="11.7976561"><ele>1660.0</ele><time>2026-04-26T13:30:45.474Z</time></trkpt><trkpt lat="46.2747731" lon="11.7977568"><ele>1660.0</ele><time>2026-04-26T13:30:46.453Z</time></trkpt><trkpt lat="46.2746666" lon="11.797863"><ele>1656.0</ele><time>2026-04-26T13:30:47.457Z</time></trkpt><trkpt lat="46.274554" lon="11.7979774"><ele>1652.0</ele><time>2026-04-26T13:30:48.46Z</time></trkpt><trkpt lat="46.2744431" lon="11.7980987"><ele>1648.0</ele><time>2026-04-26T13:30:49.472Z</time></trkpt><trkpt lat="46.2743316" lon="11.798221"><ele>1644.0</ele><time>2026-04-26T13:30:50.476Z</time></trkpt><trkpt lat="46.2742184" lon="11.7983502"><ele>1644.0</ele><time>2026-04-26T13:30:51.46Z</time></trkpt><trkpt lat="46.2741103" lon="11.7984826"><ele>1644.0</ele><time>2026-04-26T13:30:52.465Z</time></trkpt><trkpt lat="46.2739975" lon="11.7986183"><ele>1644.0</ele><time>2026-04-26T13:30:53.466Z</time></trkpt><trkpt lat="46.2739017" lon="11.7987754"><ele>1644.0</ele><time>2026-04-26T13:30:54.463Z</time></trkpt><trkpt lat="46.2738154" lon="11.7989406"><ele>1641.75</ele><time>2026-04-26T13:30:55.481Z</time></trkpt><trkpt lat="46.2737288" lon="11.7990993"><ele>1639.5</ele><time>2026-04-26T13:30:56.47Z</time></trkpt><trkpt lat="46.2736499" lon="11.7992712"><ele>1637.25</ele><time>2026-04-26T13:30:57.457Z</time></trkpt><trkpt lat="46.2735844" lon="11.7994476"><ele>1635.0</ele><time>2026-04-26T13:30:58.459Z</time></trkpt><trkpt lat="46.2735105" lon="11.7995928"><ele>1635.0</ele><time>2026-04-26T13:30:59.468Z</time></trkpt><trkpt lat="46.2734649" lon="11.7997108"><ele>1635.0</ele><time>2026-04-26T13:31:00.455Z</time></trkpt><trkpt lat="46.2734262" lon="11.7997908"><ele>1635.0</ele><time>2026-04-26T13:31:01.472Z</time></trkpt><trkpt lat="46.2733457" lon="11.799886"><ele>1635.0</ele><time>2026-04-26T13:31:03.452Z</time></trkpt><trkpt lat="46.2732361" lon="11.7997994"><ele>1635.0</ele><time>2026-04-26T13:31:05.456Z</time></trkpt><trkpt lat="46.2732023" lon="11.7996728"><ele>1635.0</ele><time>2026-04-26T13:31:06.47Z</time></trkpt><trkpt lat="46.2731789" lon="11.7995118"><ele>1635.0</ele><time>2026-04-26T13:31:07.453Z</time></trkpt><trkpt lat="46.2731373" lon="11.7993352"><ele>1635.0</ele><time>2026-04-26T13:31:08.447Z</time></trkpt><trkpt lat="46.273111" lon="11.7991918"><ele>1635.0</ele><time>2026-04-26T13:31:09.463Z</time></trkpt><trkpt lat="46.2730822" lon="11.7990521"><ele>1635.0</ele><time>2026-04-26T13:31:10.46Z</time></trkpt><trkpt lat="46.2730567" lon="11.7988989"><ele>1632.4</ele><time>2026-04-26T13:31:11.46Z</time></trkpt><trkpt lat="46.2730655" lon="11.7987615"><ele>1629.8</ele><time>2026-04-26T13:31:12.485Z</time></trkpt><trkpt lat="46.2730823" lon="11.7986569"><ele>1627.1999999999998</ele><time>2026-04-26T13:31:13.47Z</time></trkpt><trkpt lat="46.273059" lon="11.7984946"><ele>1624.6</ele><time>2026-04-26T13:31:15.46Z</time></trkpt><trkpt lat="46.2729742" lon="11.7984039"><ele>1622.0</ele><time>2026-04-26T13:31:17.457Z</time></trkpt><trkpt lat="46.2729035" lon="11.7985403"><ele>1622.0</ele><time>2026-04-26T13:31:19.475Z</time></trkpt><trkpt lat="46.2728643" lon="11.7986221"><ele>1622.0</ele><time>2026-04-26T13:31:20.459Z</time></trkpt><trkpt lat="46.2728018" lon="11.798712"><ele>1622.0</ele><time>2026-04-26T13:31:21.456Z</time></trkpt><trkpt lat="46.2727224" lon="11.7987982"><ele>1622.0</ele><time>2026-04-26T13:31:22.445Z</time></trkpt><trkpt lat="46.2726451" lon="11.7988896"><ele>1622.0</ele><time>2026-04-26T13:31:23.463Z</time></trkpt><trkpt lat="46.272576" lon="11.7990048"><ele>1622.0</ele><time>2026-04-26T13:31:24.46Z</time></trkpt><trkpt lat="46.2725158" lon="11.7991454"><ele>1622.0</ele><time>2026-04-26T13:31:25.478Z</time></trkpt><trkpt lat="46.2724745" lon="11.799323"><ele>1622.0</ele><time>2026-04-26T13:31:26.471Z</time></trkpt><trkpt lat="46.2724577" lon="11.799516"><ele>1622.0</ele><time>2026-04-26T13:31:27.455Z</time></trkpt><trkpt lat="46.2724207" lon="11.799707"><ele>1621.75</ele><time>2026-04-26T13:31:28.46Z</time></trkpt><trkpt lat="46.2723972" lon="11.7999034"><ele>1621.5</ele><time>2026-04-26T13:31:29.46Z</time></trkpt><trkpt lat="46.2723758" lon="11.8000927"><ele>1621.25</ele><time>2026-04-26T13:31:30.468Z</time></trkpt><trkpt lat="46.2723394" lon="11.8002772"><ele>1621.0</ele><time>2026-04-26T13:31:31.475Z</time></trkpt><trkpt lat="46.2723129" lon="11.8004589"><ele>1622.1999999999998</ele><time>2026-04-26T13:31:32.457Z</time></trkpt><trkpt lat="46.2722988" lon="11.8006333"><ele>1623.3999999999999</ele><time>2026-04-26T13:31:33.465Z</time></trkpt><trkpt lat="46.2722732" lon="11.8007854"><ele>1624.6</ele><time>2026-04-26T13:31:34.47Z</time></trkpt><trkpt lat="46.2722602" lon="11.8009257"><ele>1625.8</ele><time>2026-04-26T13:31:35.47Z</time></trkpt><trkpt lat="46.2721936" lon="11.8010133"><ele>1627.0</ele><time>2026-04-26T13:31:36.477Z</time></trkpt><trkpt lat="46.2720968" lon="11.8010358"><ele>1624.6</ele><time>2026-04-26T13:31:37.463Z</time></trkpt><trkpt lat="46.2719978" lon="11.801061"><ele>1622.1999999999998</ele><time>2026-04-26T13:31:38.485Z</time></trkpt><trkpt lat="46.2719039" lon="11.8010997"><ele>1619.8</ele><time>2026-04-26T13:31:39.466Z</time></trkpt><trkpt lat="46.2718181" lon="11.8012008"><ele>1617.4</ele><time>2026-04-26T13:31:40.456Z</time></trkpt><trkpt lat="46.2717418" lon="11.8013429"><ele>1615.0</ele><time>2026-04-26T13:31:41.457Z</time></trkpt><trkpt lat="46.2716534" lon="11.8014872"><ele>1615.0</ele><time>2026-04-26T13:31:42.457Z</time></trkpt><trkpt lat="46.2715824" lon="11.8016533"><ele>1615.0</ele><time>2026-04-26T13:31:43.472Z</time></trkpt><trkpt lat="46.2714967" lon="11.801816"><ele>1615.0</ele><time>2026-04-26T13:31:44.457Z</time></trkpt><trkpt lat="46.2713812" lon="11.8019443"><ele>1615.0</ele><time>2026-04-26T13:31:45.452Z</time></trkpt><trkpt lat="46.27128" lon="11.8020783"><ele>1614.25</ele><time>2026-04-26T13:31:46.46Z</time></trkpt><trkpt lat="46.271166" lon="11.8021907"><ele>1613.5</ele><time>2026-04-26T13:31:47.455Z</time></trkpt><trkpt lat="46.2710457" lon="11.8022954"><ele>1612.75</ele><time>2026-04-26T13:31:48.459Z</time></trkpt><trkpt lat="46.2709193" lon="11.8023892"><ele>1612.0</ele><time>2026-04-26T13:31:49.464Z</time></trkpt><trkpt lat="46.2707926" lon="11.8024878"><ele>1612.0</ele><time>2026-04-26T13:31:50.449Z</time></trkpt><trkpt lat="46.2706659" lon="11.8025946"><ele>1612.0</ele><time>2026-04-26T13:31:51.458Z</time></trkpt><trkpt lat="46.2705322" lon="11.8027167"><ele>1612.0</ele><time>2026-04-26T13:31:52.46Z</time></trkpt><trkpt lat="46.270395" lon="11.8029"><ele>1609.3333333333335</ele><time>2026-04-26T13:31:53.47Z</time></trkpt><trkpt lat="46.2702395" lon="11.8030921"><ele>1606.6666666666665</ele><time>2026-04-26T13:31:54.479Z</time></trkpt><trkpt lat="46.2700736" lon="11.8032818"><ele>1604.0</ele><time>2026-04-26T13:31:55.455Z</time></trkpt><trkpt lat="46.2699017" lon="11.8034636"><ele>1601.3333333333333</ele><time>2026-04-26T13:31:56.47Z</time></trkpt><trkpt lat="46.269707" lon="11.8035921"><ele>1598.6666666666665</ele><time>2026-04-26T13:31:57.472Z</time></trkpt><trkpt lat="46.2695527" lon="11.8037843"><ele>1596.0</ele><time>2026-04-26T13:31:58.466Z</time></trkpt><trkpt lat="46.2693798" lon="11.8039344"><ele>1596.0</ele><time>2026-04-26T13:31:59.458Z</time></trkpt><trkpt lat="46.269242" lon="11.8041181"><ele>1596.0</ele><time>2026-04-26T13:32:00.461Z</time></trkpt><trkpt lat="46.2690901" lon="11.804236"><ele>1596.0</ele><time>2026-04-26T13:32:01.476Z</time></trkpt><trkpt lat="46.2689577" lon="11.8043331"><ele>1598.3333333333335</ele><time>2026-04-26T13:32:02.478Z</time></trkpt><trkpt lat="46.2688195" lon="11.8043891"><ele>1600.6666666666667</ele><time>2026-04-26T13:32:03.471Z</time></trkpt><trkpt lat="46.2686652" lon="11.8043936"><ele>1603.0</ele><time>2026-04-26T13:32:04.461Z</time></trkpt><trkpt lat="46.2685071" lon="11.8043438"><ele>1603.0</ele><time>2026-04-26T13:32:05.461Z</time></trkpt><trkpt lat="46.2683321" lon="11.8043404"><ele>1603.0</ele><time>2026-04-26T13:32:06.454Z</time></trkpt><trkpt lat="46.2681546" lon="11.8043446"><ele>1603.0</ele><time>2026-04-26T13:32:07.457Z</time></trkpt><trkpt lat="46.2679697" lon="11.804351"><ele>1604.0</ele><time>2026-04-26T13:32:08.449Z</time></trkpt><trkpt lat="46.267779" lon="11.8043791"><ele>1605.0</ele><time>2026-04-26T13:32:09.455Z</time></trkpt><trkpt lat="46.2675863" lon="11.804409"><ele>1606.0</ele><time>2026-04-26T13:32:10.453Z</time></trkpt><trkpt lat="46.2673987" lon="11.8044572"><ele>1600.0</ele><time>2026-04-26T13:32:11.459Z</time></trkpt><trkpt lat="46.2672111" lon="11.8044781"><ele>1594.0</ele><time>2026-04-26T13:32:12.454Z</time></trkpt><trkpt lat="46.2670324" lon="11.8045217"><ele>1588.0</ele><time>2026-04-26T13:32:13.459Z</time></trkpt><trkpt lat="46.2668593" lon="11.8045336"><ele>1588.0</ele><time>2026-04-26T13:32:14.462Z</time></trkpt><trkpt lat="46.2666907" lon="11.8045103"><ele>1588.0</ele><time>2026-04-26T13:32:15.485Z</time></trkpt><trkpt lat="46.2665387" lon="11.8044828"><ele>1588.0</ele><time>2026-04-26T13:32:16.481Z</time></trkpt><trkpt lat="46.266421" lon="11.8044602"><ele>1588.0</ele><time>2026-04-26T13:32:17.474Z</time></trkpt><trkpt lat="46.2663299" lon="11.8044696"><ele>1580.6000000000001</ele><time>2026-04-26T13:32:18.464Z</time></trkpt><trkpt lat="46.2662605" lon="11.8045267"><ele>1573.2</ele><time>2026-04-26T13:32:19.463Z</time></trkpt><trkpt lat="46.266196" lon="11.8046052"><ele>1565.8</ele><time>2026-04-26T13:32:20.474Z</time></trkpt><trkpt lat="46.2661825" lon="11.8047592"><ele>1558.4</ele><time>2026-04-26T13:32:21.472Z</time></trkpt><trkpt lat="46.2661907" lon="11.8049463"><ele>1551.0</ele><time>2026-04-26T13:32:22.456Z</time></trkpt><trkpt lat="46.2662075" lon="11.8051421"><ele>1550.8</ele><time>2026-04-26T13:32:23.475Z</time></trkpt><trkpt lat="46.2662092" lon="11.8053356"><ele>1550.6</ele><time>2026-04-26T13:32:24.453Z</time></trkpt><trkpt lat="46.2662035" lon="11.8055174"><ele>1550.4</ele><time>2026-04-26T13:32:25.476Z</time></trkpt><trkpt lat="46.2661732" lon="11.8056419"><ele>1550.2</ele><time>2026-04-26T13:32:26.454Z</time></trkpt><trkpt lat="46.266116" lon="11.8057497"><ele>1550.0</ele><time>2026-04-26T13:32:27.453Z</time></trkpt><trkpt lat="46.266097" lon="11.8058948"><ele>1550.8</ele><time>2026-04-26T13:32:28.451Z</time></trkpt><trkpt lat="46.2660723" lon="11.8060483"><ele>1551.6</ele><time>2026-04-26T13:32:29.452Z</time></trkpt><trkpt lat="46.2661216" lon="11.806199"><ele>1552.4</ele><time>2026-04-26T13:32:30.453Z</time></trkpt><trkpt lat="46.2661642" lon="11.8063269"><ele>1553.2</ele><time>2026-04-26T13:32:31.459Z</time></trkpt><trkpt lat="46.2662194" lon="11.8064149"><ele>1554.0</ele><time>2026-04-26T13:32:32.457Z</time></trkpt><trkpt lat="46.2662532" lon="11.8065559"><ele>1554.0</ele><time>2026-04-26T13:32:34.45Z</time></trkpt><trkpt lat="46.2661741" lon="11.806594"><ele>1554.0</ele><time>2026-04-26T13:32:36.459Z</time></trkpt><trkpt lat="46.2661155" lon="11.8063896"><ele>1554.0</ele><time>2026-04-26T13:32:38.466Z</time></trkpt><trkpt lat="46.266079" lon="11.8062275"><ele>1554.0</ele><time>2026-04-26T13:32:39.453Z</time></trkpt><trkpt lat="46.2660415" lon="11.8060498"><ele>1553.0</ele><time>2026-04-26T13:32:40.463Z</time></trkpt><trkpt lat="46.2659995" lon="11.8058776"><ele>1552.0</ele><time>2026-04-26T13:32:41.453Z</time></trkpt><trkpt lat="46.2659974" lon="11.8056766"><ele>1551.0</ele><time>2026-04-26T13:32:42.477Z</time></trkpt><trkpt lat="46.2660065" lon="11.8054766"><ele>1550.0</ele><time>2026-04-26T13:32:43.494Z</time></trkpt><trkpt lat="46.2660172" lon="11.805283"><ele>1550.25</ele><time>2026-04-26T13:32:44.453Z</time></trkpt><trkpt lat="46.2660016" lon="11.805089"><ele>1550.5</ele><time>2026-04-26T13:32:45.474Z</time></trkpt><trkpt lat="46.2659573" lon="11.804888"><ele>1550.75</ele><time>2026-04-26T13:32:46.465Z</time></trkpt><trkpt lat="46.2658777" lon="11.8046915"><ele>1551.0</ele><time>2026-04-26T13:32:47.459Z</time></trkpt><trkpt lat="46.2658037" lon="11.8044876"><ele>1550.75</ele><time>2026-04-26T13:32:48.467Z</time></trkpt><trkpt lat="46.265754" lon="11.8042936"><ele>1550.5</ele><time>2026-04-26T13:32:49.484Z</time></trkpt><trkpt lat="46.2657124" lon="11.8041224"><ele>1550.25</ele><time>2026-04-26T13:32:50.471Z</time></trkpt><trkpt lat="46.2656803" lon="11.8039723"><ele>1550.0</ele><time>2026-04-26T13:32:51.48Z</time></trkpt><trkpt lat="46.2656979" lon="11.8038281"><ele>1550.0</ele><time>2026-04-26T13:32:52.474Z</time></trkpt><trkpt lat="46.2657549" lon="11.8037115"><ele>1550.0</ele><time>2026-04-26T13:32:53.449Z</time></trkpt><trkpt lat="46.2658419" lon="11.8036279"><ele>1550.0</ele><time>2026-04-26T13:32:54.467Z</time></trkpt><trkpt lat="46.2659689" lon="11.8035801"><ele>1550.0</ele><time>2026-04-26T13:32:55.462Z</time></trkpt><trkpt lat="46.2660945" lon="11.8035196"><ele>1551.75</ele><time>2026-04-26T13:32:56.474Z</time></trkpt><trkpt lat="46.2662292" lon="11.8034647"><ele>1553.5</ele><time>2026-04-26T13:32:57.461Z</time></trkpt><trkpt lat="46.2663533" lon="11.8034198"><ele>1555.25</ele><time>2026-04-26T13:32:58.464Z</time></trkpt><trkpt lat="46.2664568" lon="11.803367"><ele>1557.0</ele><time>2026-04-26T13:32:59.469Z</time></trkpt><trkpt lat="46.2665527" lon="11.8033109"><ele>1557.0</ele><time>2026-04-26T13:33:00.467Z</time></trkpt><trkpt lat="46.2666074" lon="11.8031954"><ele>1557.0</ele><time>2026-04-26T13:33:01.459Z</time></trkpt><trkpt lat="46.2666518" lon="11.80307"><ele>1557.0</ele><time>2026-04-26T13:33:02.465Z</time></trkpt><trkpt lat="46.2666348" lon="11.8029164"><ele>1557.0</ele><time>2026-04-26T13:33:03.455Z</time></trkpt><trkpt lat="46.2666274" lon="11.8027557"><ele>1557.0</ele><time>2026-04-26T13:33:04.467Z</time></trkpt><trkpt lat="46.2666191" lon="11.8026062"><ele>1553.1666666666667</ele><time>2026-04-26T13:33:05.475Z</time></trkpt><trkpt lat="46.2666018" lon="11.8024862"><ele>1549.3333333333333</ele><time>2026-04-26T13:33:06.462Z</time></trkpt><trkpt lat="46.2665711" lon="11.8023913"><ele>1545.5</ele><time>2026-04-26T13:33:07.468Z</time></trkpt><trkpt lat="46.2664814" lon="11.8022985"><ele>1541.6666666666665</ele><time>2026-04-26T13:33:09.471Z</time></trkpt><trkpt lat="46.2664206" lon="11.8023247"><ele>1537.8333333333333</ele><time>2026-04-26T13:33:10.449Z</time></trkpt><trkpt lat="46.2663813" lon="11.8024099"><ele>1534.0</ele><time>2026-04-26T13:33:11.451Z</time></trkpt><trkpt lat="46.2663701" lon="11.8025164"><ele>1532.8333333333333</ele><time>2026-04-26T13:33:12.48Z</time></trkpt><trkpt lat="46.2663713" lon="11.8026469"><ele>1531.6666666666665</ele><time>2026-04-26T13:33:13.472Z</time></trkpt><trkpt lat="46.2663667" lon="11.8027801"><ele>1530.5</ele><time>2026-04-26T13:33:14.485Z</time></trkpt><trkpt lat="46.2663559" lon="11.802903"><ele>1529.3333333333333</ele><time>2026-04-26T13:33:15.465Z</time></trkpt><trkpt lat="46.2663526" lon="11.80302"><ele>1528.1666666666667</ele><time>2026-04-26T13:33:16.47Z</time></trkpt><trkpt lat="46.2662949" lon="11.8031172"><ele>1527.0</ele><time>2026-04-26T13:33:17.474Z</time></trkpt><trkpt lat="46.2661935" lon="11.8031723"><ele>1527.0</ele><time>2026-04-26T13:33:18.452Z</time></trkpt><trkpt lat="46.2660553" lon="11.803191"><ele>1527.0</ele><time>2026-04-26T13:33:19.457Z</time></trkpt><trkpt lat="46.2659176" lon="11.8031977"><ele>1527.0</ele><time>2026-04-26T13:33:20.469Z</time></trkpt><trkpt lat="46.2657713" lon="11.8032096"><ele>1527.0</ele><time>2026-04-26T13:33:21.452Z</time></trkpt><trkpt lat="46.2656286" lon="11.8032502"><ele>1524.5</ele><time>2026-04-26T13:33:22.463Z</time></trkpt><trkpt lat="46.2654955" lon="11.8032928"><ele>1522.0</ele><time>2026-04-26T13:33:23.451Z</time></trkpt><trkpt lat="46.2653704" lon="11.8033451"><ele>1519.5</ele><time>2026-04-26T13:33:24.45Z</time></trkpt><trkpt lat="46.2652587" lon="11.8034587"><ele>1517.0</ele><time>2026-04-26T13:33:25.464Z</time></trkpt><trkpt lat="46.2651635" lon="11.8036101"><ele>1517.0</ele><time>2026-04-26T13:33:26.461Z</time></trkpt><trkpt lat="46.2650937" lon="11.8037771"><ele>1517.0</ele><time>2026-04-26T13:33:27.474Z</time></trkpt><trkpt lat="46.2650347" lon="11.8039291"><ele>1517.0</ele><time>2026-04-26T13:33:28.471Z</time></trkpt><trkpt lat="46.2649976" lon="11.804092"><ele>1517.0</ele><time>2026-04-26T13:33:29.456Z</time></trkpt><trkpt lat="46.2649693" lon="11.8042532"><ele>1517.6</ele><time>2026-04-26T13:33:30.474Z</time></trkpt><trkpt lat="46.2649126" lon="11.8043906"><ele>1518.1999999999998</ele><time>2026-04-26T13:33:31.448Z</time></trkpt><trkpt lat="46.2648405" lon="11.8044916"><ele>1518.8</ele><time>2026-04-26T13:33:32.47Z</time></trkpt><trkpt lat="46.2647643" lon="11.8045413"><ele>1519.4</ele><time>2026-04-26T13:33:33.459Z</time></trkpt><trkpt lat="46.2646988" lon="11.8045833"><ele>1520.0</ele><time>2026-04-26T13:33:34.456Z</time></trkpt><trkpt lat="46.2646077" lon="11.8045087"><ele>1519.5</ele><time>2026-04-26T13:33:36.455Z</time></trkpt><trkpt lat="46.2646066" lon="11.8043604"><ele>1519.0</ele><time>2026-04-26T13:33:38.455Z</time></trkpt><trkpt lat="46.2646413" lon="11.8042787"><ele>1518.5</ele><time>2026-04-26T13:33:39.476Z</time></trkpt><trkpt lat="46.2646878" lon="11.8041774"><ele>1518.0</ele><time>2026-04-26T13:33:40.47Z</time></trkpt><trkpt lat="46.264733" lon="11.8040644"><ele>1517.5</ele><time>2026-04-26T13:33:41.475Z</time></trkpt><trkpt lat="46.264785" lon="11.8039602"><ele>1517.0</ele><time>2026-04-26T13:33:42.452Z</time></trkpt><trkpt lat="46.2648343" lon="11.8038571"><ele>1517.0</ele><time>2026-04-26T13:33:43.459Z</time></trkpt><trkpt lat="46.2648857" lon="11.8037553"><ele>1517.0</ele><time>2026-04-26T13:33:44.465Z</time></trkpt><trkpt lat="46.2649359" lon="11.8036562"><ele>1517.0</ele><time>2026-04-26T13:33:45.464Z</time></trkpt><trkpt lat="46.2649702" lon="11.8035513"><ele>1517.0</ele><time>2026-04-26T13:33:46.46Z</time></trkpt><trkpt lat="46.2650029" lon="11.8034406"><ele>1517.0</ele><time>2026-04-26T13:33:47.461Z</time></trkpt><trkpt lat="46.2649986" lon="11.8033319"><ele>1517.0</ele><time>2026-04-26T13:33:48.453Z</time></trkpt><trkpt lat="46.2649501" lon="11.8032367"><ele>1515.1666666666667</ele><time>2026-04-26T13:33:49.486Z</time></trkpt><trkpt lat="46.2648946" lon="11.803163"><ele>1513.3333333333335</ele><time>2026-04-26T13:33:50.471Z</time></trkpt><trkpt lat="46.2648387" lon="11.8030882"><ele>1511.5</ele><time>2026-04-26T13:33:51.469Z</time></trkpt><trkpt lat="46.2647781" lon="11.8030188"><ele>1509.6666666666667</ele><time>2026-04-26T13:33:52.46Z</time></trkpt><trkpt lat="46.2647281" lon="11.8029276"><ele>1507.8333333333333</ele><time>2026-04-26T13:33:53.459Z</time></trkpt><trkpt lat="46.2646702" lon="11.8028459"><ele>1506.0</ele><time>2026-04-26T13:33:54.461Z</time></trkpt><trkpt lat="46.2646398" lon="11.8027354"><ele>1503.5</ele><time>2026-04-26T13:33:55.454Z</time></trkpt><trkpt lat="46.2646168" lon="11.8026267"><ele>1501.0</ele><time>2026-04-26T13:33:56.458Z</time></trkpt><trkpt lat="46.2646031" lon="11.802516"><ele>1498.5</ele><time>2026-04-26T13:33:57.448Z</time></trkpt><trkpt lat="46.2645936" lon="11.8024047"><ele>1496.0</ele><time>2026-04-26T13:33:58.47Z</time></trkpt><trkpt lat="46.2645761" lon="11.8022971"><ele>1493.5</ele><time>2026-04-26T13:33:59.482Z</time></trkpt><trkpt lat="46.2645359" lon="11.8021893"><ele>1491.0</ele><time>2026-04-26T13:34:00.46Z</time></trkpt><trkpt lat="46.264489" lon="11.8020897"><ele>1491.0</ele><time>2026-04-26T13:34:01.47Z</time></trkpt><trkpt lat="46.2644403" lon="11.8019984"><ele>1491.0</ele><time>2026-04-26T13:34:02.449Z</time></trkpt><trkpt lat="46.2643905" lon="11.801904"><ele>1491.0</ele><time>2026-04-26T13:34:03.455Z</time></trkpt><trkpt lat="46.2643358" lon="11.8018171"><ele>1491.0</ele><time>2026-04-26T13:34:04.457Z</time></trkpt><trkpt lat="46.2642866" lon="11.8017233"><ele>1491.0</ele><time>2026-04-26T13:34:05.459Z</time></trkpt><trkpt lat="46.2642386" lon="11.8016247"><ele>1491.0</ele><time>2026-04-26T13:34:06.452Z</time></trkpt><trkpt lat="46.2641892" lon="11.8015268"><ele>1491.1999999999998</ele><time>2026-04-26T13:34:07.464Z</time></trkpt><trkpt lat="46.2641416" lon="11.8014318"><ele>1491.3999999999999</ele><time>2026-04-26T13:34:08.466Z</time></trkpt><trkpt lat="46.2641003" lon="11.8013508"><ele>1491.6</ele><time>2026-04-26T13:34:09.479Z</time></trkpt><trkpt lat="46.2640208" lon="11.8012358"><ele>1491.8</ele><time>2026-04-26T13:34:11.47Z</time></trkpt><trkpt lat="46.263927" lon="11.8012036"><ele>1492.0</ele><time>2026-04-26T13:34:13.455Z</time></trkpt><trkpt lat="46.2638777" lon="11.8013557"><ele>1492.0</ele><time>2026-04-26T13:34:16.462Z</time></trkpt><trkpt lat="46.2639173" lon="11.8015065"><ele>1492.0</ele><time>2026-04-26T13:34:18.47Z</time></trkpt><trkpt lat="46.2639531" lon="11.8016515"><ele>1492.0</ele><time>2026-04-26T13:34:20.453Z</time></trkpt><trkpt lat="46.2639606" lon="11.8017995"><ele>1492.0</ele><time>2026-04-26T13:34:22.464Z</time></trkpt><trkpt lat="46.2638806" lon="11.801951"><ele>1490.3333333333333</ele><time>2026-04-26T13:34:24.47Z</time></trkpt><trkpt lat="46.263813" lon="11.8019753"><ele>1488.6666666666665</ele><time>2026-04-26T13:34:25.456Z</time></trkpt><trkpt lat="46.2637749" lon="11.8020551"><ele>1487.0</ele><time>2026-04-26T13:34:26.449Z</time></trkpt><trkpt lat="46.2637085" lon="11.8021323"><ele>1485.3333333333333</ele><time>2026-04-26T13:34:27.461Z</time></trkpt><trkpt lat="46.2636549" lon="11.8022415"><ele>1483.6666666666667</ele><time>2026-04-26T13:34:28.469Z</time></trkpt><trkpt lat="46.2635887" lon="11.8023369"><ele>1482.0</ele><time>2026-04-26T13:34:29.466Z</time></trkpt><trkpt lat="46.263517" lon="11.8024313"><ele>1482.0</ele><time>2026-04-26T13:34:30.454Z</time></trkpt><trkpt lat="46.2634458" lon="11.8025409"><ele>1482.0</ele><time>2026-04-26T13:34:31.468Z</time></trkpt><trkpt lat="46.2633585" lon="11.8026356"><ele>1482.0</ele><time>2026-04-26T13:34:32.474Z</time></trkpt><trkpt lat="46.2632693" lon="11.8027345"><ele>1482.0</ele><time>2026-04-26T13:34:33.465Z</time></trkpt><trkpt lat="46.2631877" lon="11.8028378"><ele>1482.0</ele><time>2026-04-26T13:34:34.466Z</time></trkpt><trkpt lat="46.2631151" lon="11.8029497"><ele>1480.6666666666667</ele><time>2026-04-26T13:34:35.452Z</time></trkpt><trkpt lat="46.2630437" lon="11.8030434"><ele>1479.3333333333333</ele><time>2026-04-26T13:34:36.464Z</time></trkpt><trkpt lat="46.2630027" lon="11.8031452"><ele>1478.0</ele><time>2026-04-26T13:34:37.466Z</time></trkpt><trkpt lat="46.2629777" lon="11.8032303"><ele>1476.6666666666665</ele><time>2026-04-26T13:34:38.465Z</time></trkpt><trkpt lat="46.2629526" lon="11.8033424"><ele>1475.3333333333333</ele><time>2026-04-26T13:34:40.459Z</time></trkpt><trkpt lat="46.2629262" lon="11.8034293"><ele>1474.0</ele><time>2026-04-26T13:34:42.458Z</time></trkpt><trkpt lat="46.262867" lon="11.8034801"><ele>1474.0</ele><time>2026-04-26T13:34:45.479Z</time></trkpt><trkpt lat="46.2628" lon="11.8035448"><ele>1474.0</ele><time>2026-04-26T13:34:47.478Z</time></trkpt><trkpt lat="46.2627661" lon="11.8036271"><ele>1474.0</ele><time>2026-04-26T13:34:48.477Z</time></trkpt><trkpt lat="46.2627273" lon="11.80373"><ele>1474.0</ele><time>2026-04-26T13:34:49.457Z</time></trkpt><trkpt lat="46.2626764" lon="11.8038448"><ele>1474.0</ele><time>2026-04-26T13:34:50.461Z</time></trkpt><trkpt lat="46.2626054" lon="11.8039715"><ele>1474.0</ele><time>2026-04-26T13:34:51.453Z</time></trkpt><trkpt lat="46.2625224" lon="11.8041156"><ele>1474.0</ele><time>2026-04-26T13:34:52.454Z</time></trkpt><trkpt lat="46.2624362" lon="11.8042341"><ele>1474.0</ele><time>2026-04-26T13:34:53.467Z</time></trkpt><trkpt lat="46.2623495" lon="11.8043471"><ele>1474.0</ele><time>2026-04-26T13:34:54.455Z</time></trkpt><trkpt lat="46.2622609" lon="11.8044549"><ele>1474.0</ele><time>2026-04-26T13:34:55.461Z</time></trkpt><trkpt lat="46.2621786" lon="11.8045624"><ele>1474.0</ele><time>2026-04-26T13:34:56.463Z</time></trkpt><trkpt lat="46.2620835" lon="11.8046635"><ele>1474.0</ele><time>2026-04-26T13:34:57.474Z</time></trkpt><trkpt lat="46.2619899" lon="11.8047595"><ele>1474.0</ele><time>2026-04-26T13:34:58.458Z</time></trkpt><trkpt lat="46.2618957" lon="11.8048626"><ele>1474.0</ele><time>2026-04-26T13:34:59.467Z</time></trkpt><trkpt lat="46.2618172" lon="11.8049919"><ele>1474.0</ele><time>2026-04-26T13:35:00.472Z</time></trkpt><trkpt lat="46.2617598" lon="11.8051349"><ele>1474.0</ele><time>2026-04-26T13:35:01.463Z</time></trkpt><trkpt lat="46.2617144" lon="11.8052714"><ele>1474.0</ele><time>2026-04-26T13:35:02.459Z</time></trkpt><trkpt lat="46.2617" lon="11.8054139"><ele>1474.0</ele><time>2026-04-26T13:35:03.456Z</time></trkpt><trkpt lat="46.2616888" lon="11.8055438"><ele>1474.0</ele><time>2026-04-26T13:35:04.467Z</time></trkpt><trkpt lat="46.2616761" lon="11.8056644"><ele>1474.5</ele><time>2026-04-26T13:35:05.478Z</time></trkpt><trkpt lat="46.2616325" lon="11.8057622"><ele>1475.0</ele><time>2026-04-26T13:35:06.464Z</time></trkpt><trkpt lat="46.2615838" lon="11.8058551"><ele>1475.5</ele><time>2026-04-26T13:35:07.481Z</time></trkpt><trkpt lat="46.2615219" lon="11.8059316"><ele>1476.0</ele><time>2026-04-26T13:35:08.457Z</time></trkpt><trkpt lat="46.261455" lon="11.8059989"><ele>1476.5</ele><time>2026-04-26T13:35:09.467Z</time></trkpt><trkpt lat="46.2613868" lon="11.8060647"><ele>1477.0</ele><time>2026-04-26T13:35:10.461Z</time></trkpt><trkpt lat="46.2613234" lon="11.8061365"><ele>1475.5</ele><time>2026-04-26T13:35:11.469Z</time></trkpt><trkpt lat="46.2612704" lon="11.8062178"><ele>1474.0</ele><time>2026-04-26T13:35:12.455Z</time></trkpt><trkpt lat="46.2612254" lon="11.8063018"><ele>1472.5</ele><time>2026-04-26T13:35:13.468Z</time></trkpt><trkpt lat="46.261188" lon="11.8063892"><ele>1471.0</ele><time>2026-04-26T13:35:14.456Z</time></trkpt><trkpt lat="46.2611521" lon="11.8064833"><ele>1469.5</ele><time>2026-04-26T13:35:15.46Z</time></trkpt><trkpt lat="46.261114" lon="11.8065883"><ele>1468.0</ele><time>2026-04-26T13:35:16.463Z</time></trkpt><trkpt lat="46.2610774" lon="11.8067103"><ele>1468.0</ele><time>2026-04-26T13:35:17.459Z</time></trkpt><trkpt lat="46.2610434" lon="11.8068474"><ele>1468.0</ele><time>2026-04-26T13:35:18.474Z</time></trkpt><trkpt lat="46.2610047" lon="11.8069873"><ele>1468.0</ele><time>2026-04-26T13:35:19.479Z</time></trkpt><trkpt lat="46.2609713" lon="11.8071261"><ele>1468.0</ele><time>2026-04-26T13:35:20.478Z</time></trkpt><trkpt lat="46.2609525" lon="11.8072632"><ele>1468.0</ele><time>2026-04-26T13:35:21.481Z</time></trkpt><trkpt lat="46.2609367" lon="11.8073916"><ele>1468.0</ele><time>2026-04-26T13:35:22.451Z</time></trkpt><trkpt lat="46.2609239" lon="11.8075119"><ele>1468.0</ele><time>2026-04-26T13:35:23.445Z</time></trkpt><trkpt lat="46.2609075" lon="11.8076262"><ele>1468.0</ele><time>2026-04-26T13:35:24.448Z</time></trkpt><trkpt lat="46.2609061" lon="11.8077383"><ele>1468.0</ele><time>2026-04-26T13:35:25.458Z</time></trkpt><trkpt lat="46.2609123" lon="11.807845"><ele>1468.0</ele><time>2026-04-26T13:35:26.457Z</time></trkpt><trkpt lat="46.2609242" lon="11.8079467"><ele>1468.0</ele><time>2026-04-26T13:35:27.46Z</time></trkpt><trkpt lat="46.2609256" lon="11.808048"><ele>1468.3333333333333</ele><time>2026-04-26T13:35:28.453Z</time></trkpt><trkpt lat="46.2609297" lon="11.80815"><ele>1468.6666666666665</ele><time>2026-04-26T13:35:29.464Z</time></trkpt><trkpt lat="46.2609218" lon="11.8082503"><ele>1469.0</ele><time>2026-04-26T13:35:30.447Z</time></trkpt><trkpt lat="46.2608997" lon="11.8083514"><ele>1469.3333333333333</ele><time>2026-04-26T13:35:31.464Z</time></trkpt><trkpt lat="46.2608554" lon="11.8084483"><ele>1469.6666666666667</ele><time>2026-04-26T13:35:32.454Z</time></trkpt><trkpt lat="46.2607983" lon="11.8085348"><ele>1470.0</ele><time>2026-04-26T13:35:33.458Z</time></trkpt><trkpt lat="46.260745" lon="11.8086156"><ele>1470.4285714285713</ele><time>2026-04-26T13:35:34.468Z</time></trkpt><trkpt lat="46.2606938" lon="11.8086959"><ele>1470.857142857143</ele><time>2026-04-26T13:35:35.479Z</time></trkpt><trkpt lat="46.2606249" lon="11.8087569"><ele>1471.2857142857142</ele><time>2026-04-26T13:35:36.467Z</time></trkpt><trkpt lat="46.260552" lon="11.8088054"><ele>1471.7142857142858</ele><time>2026-04-26T13:35:37.459Z</time></trkpt><trkpt lat="46.260484" lon="11.8088496"><ele>1472.142857142857</ele><time>2026-04-26T13:35:38.463Z</time></trkpt><trkpt lat="46.2604226" lon="11.8088963"><ele>1472.5714285714284</ele><time>2026-04-26T13:35:39.471Z</time></trkpt><trkpt lat="46.2603658" lon="11.8089398"><ele>1473.0</ele><time>2026-04-26T13:35:40.465Z</time></trkpt><trkpt lat="46.2602654" lon="11.808987"><ele>1470.6000000000001</ele><time>2026-04-26T13:35:42.464Z</time></trkpt><trkpt lat="46.2601735" lon="11.8089459"><ele>1468.2</ele><time>2026-04-26T13:35:44.457Z</time></trkpt><trkpt lat="46.2601015" lon="11.8088146"><ele>1465.8</ele><time>2026-04-26T13:35:46.464Z</time></trkpt><trkpt lat="46.2600312" lon="11.8086748"><ele>1463.4</ele><time>2026-04-26T13:35:48.474Z</time></trkpt><trkpt lat="46.2599479" lon="11.8085944"><ele>1461.0</ele><time>2026-04-26T13:35:50.469Z</time></trkpt><trkpt lat="46.2598396" lon="11.8085784"><ele>1460.6666666666667</ele><time>2026-04-26T13:35:52.478Z</time></trkpt><trkpt lat="46.2597776" lon="11.808598"><ele>1460.3333333333333</ele><time>2026-04-26T13:35:53.453Z</time></trkpt><trkpt lat="46.2597067" lon="11.8086774"><ele>1460.0</ele><time>2026-04-26T13:35:54.464Z</time></trkpt><trkpt lat="46.2596269" lon="11.8087608"><ele>1459.6666666666665</ele><time>2026-04-26T13:35:55.456Z</time></trkpt><trkpt lat="46.2595433" lon="11.8088394"><ele>1459.3333333333333</ele><time>2026-04-26T13:35:56.453Z</time></trkpt><trkpt lat="46.2594605" lon="11.8089012"><ele>1459.0</ele><time>2026-04-26T13:35:57.47Z</time></trkpt><trkpt lat="46.2593805" lon="11.8089529"><ele>1459.0</ele><time>2026-04-26T13:35:58.453Z</time></trkpt><trkpt lat="46.259305" lon="11.809002"><ele>1459.0</ele><time>2026-04-26T13:35:59.452Z</time></trkpt><trkpt lat="46.2592355" lon="11.8090391"><ele>1459.0</ele><time>2026-04-26T13:36:00.45Z</time></trkpt><trkpt lat="46.259167" lon="11.8090457"><ele>1459.0</ele><time>2026-04-26T13:36:01.458Z</time></trkpt><trkpt lat="46.2590999" lon="11.8090077"><ele>1459.0</ele><time>2026-04-26T13:36:02.452Z</time></trkpt><trkpt lat="46.2590345" lon="11.8089271"><ele>1459.0</ele><time>2026-04-26T13:36:03.474Z</time></trkpt><trkpt lat="46.2589748" lon="11.8088052"><ele>1458.75</ele><time>2026-04-26T13:36:04.467Z</time></trkpt><trkpt lat="46.2589171" lon="11.8086614"><ele>1458.5</ele><time>2026-04-26T13:36:05.473Z</time></trkpt><trkpt lat="46.2588551" lon="11.808511"><ele>1458.25</ele><time>2026-04-26T13:36:06.466Z</time></trkpt><trkpt lat="46.2587954" lon="11.8083505"><ele>1458.0</ele><time>2026-04-26T13:36:07.469Z</time></trkpt><trkpt lat="46.2587295" lon="11.8081966"><ele>1457.4</ele><time>2026-04-26T13:36:08.469Z</time></trkpt><trkpt lat="46.2586614" lon="11.808047"><ele>1456.8000000000002</ele><time>2026-04-26T13:36:09.461Z</time></trkpt><trkpt lat="46.2585963" lon="11.8079133"><ele>1456.2</ele><time>2026-04-26T13:36:10.463Z</time></trkpt><trkpt lat="46.2585695" lon="11.8077781"><ele>1455.6</ele><time>2026-04-26T13:36:11.457Z</time></trkpt><trkpt lat="46.2585793" lon="11.8076425"><ele>1455.0</ele><time>2026-04-26T13:36:12.454Z</time></trkpt><trkpt lat="46.2586199" lon="11.8075181"><ele>1453.0</ele><time>2026-04-26T13:36:13.46Z</time></trkpt><trkpt lat="46.258694" lon="11.8074335"><ele>1451.0</ele><time>2026-04-26T13:36:14.45Z</time></trkpt><trkpt lat="46.2587939" lon="11.8073945"><ele>1449.0</ele><time>2026-04-26T13:36:15.461Z</time></trkpt><trkpt lat="46.2589057" lon="11.8073749"><ele>1447.0</ele><time>2026-04-26T13:36:16.456Z</time></trkpt><trkpt lat="46.2590159" lon="11.8073543"><ele>1445.0</ele><time>2026-04-26T13:36:17.454Z</time></trkpt><trkpt lat="46.2591168" lon="11.8073361"><ele>1445.0</ele><time>2026-04-26T13:36:18.477Z</time></trkpt><trkpt lat="46.2592012" lon="11.8073261"><ele>1445.0</ele><time>2026-04-26T13:36:19.461Z</time></trkpt><trkpt lat="46.2592687" lon="11.8072945"><ele>1445.0</ele><time>2026-04-26T13:36:20.469Z</time></trkpt><trkpt lat="46.2593725" lon="11.8072213"><ele>1445.0</ele><time>2026-04-26T13:36:22.465Z</time></trkpt><trkpt lat="46.259397" lon="11.8070428"><ele>1445.0</ele><time>2026-04-26T13:36:24.462Z</time></trkpt><trkpt lat="46.2593744" lon="11.8069482"><ele>1444.9999999999998</ele><time>2026-04-26T13:36:25.47Z</time></trkpt><trkpt lat="46.2593332" lon="11.8068657"><ele>1445.0</ele><time>2026-04-26T13:36:26.473Z</time></trkpt><trkpt lat="46.2592679" lon="11.8068117"><ele>1445.0</ele><time>2026-04-26T13:36:27.449Z</time></trkpt><trkpt lat="46.2591998" lon="11.8067663"><ele>1445.0</ele><time>2026-04-26T13:36:28.469Z</time></trkpt><trkpt lat="46.2591306" lon="11.8067178"><ele>1445.0</ele><time>2026-04-26T13:36:29.473Z</time></trkpt><trkpt lat="46.2590736" lon="11.80665"><ele>1444.9999999999998</ele><time>2026-04-26T13:36:30.468Z</time></trkpt><trkpt lat="46.2590261" lon="11.8065751"><ele>1445.0</ele><time>2026-04-26T13:36:31.474Z</time></trkpt><trkpt lat="46.259001" lon="11.8064825"><ele>1444.2</ele><time>2026-04-26T13:36:32.46Z</time></trkpt><trkpt lat="46.2589919" lon="11.8063759"><ele>1443.4</ele><time>2026-04-26T13:36:33.467Z</time></trkpt><trkpt lat="46.2589933" lon="11.8062558"><ele>1442.6</ele><time>2026-04-26T13:36:34.454Z</time></trkpt><trkpt lat="46.2589929" lon="11.8061238"><ele>1441.8</ele><time>2026-04-26T13:36:35.464Z</time></trkpt><trkpt lat="46.2590187" lon="11.8059784"><ele>1441.0</ele><time>2026-04-26T13:36:36.47Z</time></trkpt><trkpt lat="46.2590466" lon="11.8058226"><ele>1441.0</ele><time>2026-04-26T13:36:37.45Z</time></trkpt><trkpt lat="46.2590717" lon="11.805662"><ele>1441.0</ele><time>2026-04-26T13:36:38.469Z</time></trkpt><trkpt lat="46.2591048" lon="11.8055001"><ele>1441.0</ele><time>2026-04-26T13:36:39.462Z</time></trkpt><trkpt lat="46.2591388" lon="11.8053473"><ele>1441.0</ele><time>2026-04-26T13:36:40.478Z</time></trkpt><trkpt lat="46.2591734" lon="11.8052116"><ele>1441.0</ele><time>2026-04-26T13:36:41.453Z</time></trkpt><trkpt lat="46.2592117" lon="11.8050924"><ele>1440.5</ele><time>2026-04-26T13:36:42.471Z</time></trkpt><trkpt lat="46.2592364" lon="11.804984"><ele>1440.0</ele><time>2026-04-26T13:36:43.458Z</time></trkpt><trkpt lat="46.2592565" lon="11.8048867"><ele>1439.5</ele><time>2026-04-26T13:36:44.452Z</time></trkpt><trkpt lat="46.259259" lon="11.8047829"><ele>1439.0</ele><time>2026-04-26T13:36:45.459Z</time></trkpt><trkpt lat="46.259243" lon="11.8046679"><ele>1438.5</ele><time>2026-04-26T13:36:46.458Z</time></trkpt><trkpt lat="46.2592384" lon="11.8045287"><ele>1438.0</ele><time>2026-04-26T13:36:47.46Z</time></trkpt><trkpt lat="46.2592409" lon="11.8043784"><ele>1437.75</ele><time>2026-04-26T13:36:48.452Z</time></trkpt><trkpt lat="46.2592432" lon="11.8042166"><ele>1437.5</ele><time>2026-04-26T13:36:49.461Z</time></trkpt><trkpt lat="46.2592607" lon="11.8040446"><ele>1437.25</ele><time>2026-04-26T13:36:50.45Z</time></trkpt><trkpt lat="46.2592847" lon="11.8038736"><ele>1437.0</ele><time>2026-04-26T13:36:51.466Z</time></trkpt><trkpt lat="46.2593041" lon="11.8037084"><ele>1437.0</ele><time>2026-04-26T13:36:52.455Z</time></trkpt><trkpt lat="46.259324" lon="11.803552"><ele>1437.0</ele><time>2026-04-26T13:36:53.459Z</time></trkpt><trkpt lat="46.2593522" lon="11.8034072"><ele>1437.0</ele><time>2026-04-26T13:36:54.459Z</time></trkpt><trkpt lat="46.259367" lon="11.8032655"><ele>1437.0</ele><time>2026-04-26T13:36:55.452Z</time></trkpt><trkpt lat="46.2593695" lon="11.803128"><ele>1437.0</ele><time>2026-04-26T13:36:56.458Z</time></trkpt><trkpt lat="46.2593297" lon="11.8029898"><ele>1436.6666666666667</ele><time>2026-04-26T13:36:57.463Z</time></trkpt><trkpt lat="46.2592707" lon="11.8028695"><ele>1436.3333333333333</ele><time>2026-04-26T13:36:58.463Z</time></trkpt><trkpt lat="46.2592143" lon="11.8027696"><ele>1436.0</ele><time>2026-04-26T13:36:59.466Z</time></trkpt><trkpt lat="46.2591641" lon="11.8026977"><ele>1435.6666666666665</ele><time>2026-04-26T13:37:00.456Z</time></trkpt><trkpt lat="46.2590858" lon="11.8026214"><ele>1435.3333333333333</ele><time>2026-04-26T13:37:02.458Z</time></trkpt><trkpt lat="46.2590309" lon="11.802538"><ele>1435.0</ele><time>2026-04-26T13:37:05.483Z</time></trkpt><trkpt lat="46.2589416" lon="11.8024862"><ele>1436.4</ele><time>2026-04-26T13:37:07.468Z</time></trkpt><trkpt lat="46.2588591" lon="11.8024732"><ele>1437.8</ele><time>2026-04-26T13:37:08.461Z</time></trkpt><trkpt lat="46.2587541" lon="11.8024893"><ele>1439.1999999999998</ele><time>2026-04-26T13:37:09.459Z</time></trkpt><trkpt lat="46.2586335" lon="11.8025141"><ele>1440.6</ele><time>2026-04-26T13:37:10.475Z</time></trkpt><trkpt lat="46.2584966" lon="11.802537"><ele>1442.0</ele><time>2026-04-26T13:37:11.472Z</time></trkpt><trkpt lat="46.258352" lon="11.8025511"><ele>1442.0</ele><time>2026-04-26T13:37:12.464Z</time></trkpt><trkpt lat="46.2581971" lon="11.8025497"><ele>1442.0</ele><time>2026-04-26T13:37:13.454Z</time></trkpt><trkpt lat="46.2580382" lon="11.8025435"><ele>1442.0</ele><time>2026-04-26T13:37:14.457Z</time></trkpt><trkpt lat="46.2578856" lon="11.8025302"><ele>1440.75</ele><time>2026-04-26T13:37:15.459Z</time></trkpt><trkpt lat="46.2577375" lon="11.8025247"><ele>1439.5</ele><time>2026-04-26T13:37:16.459Z</time></trkpt><trkpt lat="46.2576004" lon="11.8024795"><ele>1438.25</ele><time>2026-04-26T13:37:17.454Z</time></trkpt><trkpt lat="46.2574671" lon="11.8024172"><ele>1437.0</ele><time>2026-04-26T13:37:18.471Z</time></trkpt><trkpt lat="46.2573476" lon="11.8023436"><ele>1436.3999999999999</ele><time>2026-04-26T13:37:19.473Z</time></trkpt><trkpt lat="46.2572425" lon="11.8022662"><ele>1435.8</ele><time>2026-04-26T13:37:20.463Z</time></trkpt><trkpt lat="46.2571505" lon="11.8022018"><ele>1435.2</ele><time>2026-04-26T13:37:21.457Z</time></trkpt><trkpt lat="46.2570636" lon="11.8021721"><ele>1434.6</ele><time>2026-04-26T13:37:22.456Z</time></trkpt><trkpt lat="46.2569798" lon="11.8021578"><ele>1434.0</ele><time>2026-04-26T13:37:23.459Z</time></trkpt><trkpt lat="46.2568989" lon="11.8021629"><ele>1434.0</ele><time>2026-04-26T13:37:24.461Z</time></trkpt><trkpt lat="46.2568224" lon="11.8022035"><ele>1434.0</ele><time>2026-04-26T13:37:25.47Z</time></trkpt><trkpt lat="46.2567737" lon="11.8023115"><ele>1434.0</ele><time>2026-04-26T13:37:26.448Z</time></trkpt><trkpt lat="46.2567665" lon="11.8024418"><ele>1434.0</ele><time>2026-04-26T13:37:27.479Z</time></trkpt><trkpt lat="46.2568033" lon="11.8025804"><ele>1434.0</ele><time>2026-04-26T13:37:28.47Z</time></trkpt><trkpt lat="46.2568667" lon="11.8027022"><ele>1432.3333333333333</ele><time>2026-04-26T13:37:29.455Z</time></trkpt><trkpt lat="46.2569155" lon="11.802826"><ele>1430.6666666666667</ele><time>2026-04-26T13:37:30.462Z</time></trkpt><trkpt lat="46.2569547" lon="11.8029429"><ele>1429.0</ele><time>2026-04-26T13:37:31.456Z</time></trkpt><trkpt lat="46.256968" lon="11.8030536"><ele>1427.3333333333335</ele><time>2026-04-26T13:37:32.466Z</time></trkpt><trkpt lat="46.2569443" lon="11.8031546"><ele>1425.6666666666667</ele><time>2026-04-26T13:37:33.46Z</time></trkpt><trkpt lat="46.2568924" lon="11.803222"><ele>1424.0</ele><time>2026-04-26T13:37:34.465Z</time></trkpt><trkpt lat="46.2568105" lon="11.8032188"><ele>1424.0</ele><time>2026-04-26T13:37:35.463Z</time></trkpt><trkpt lat="46.2567184" lon="11.8031708"><ele>1424.0</ele><time>2026-04-26T13:37:36.454Z</time></trkpt><trkpt lat="46.2566256" lon="11.8031156"><ele>1424.0</ele><time>2026-04-26T13:37:37.462Z</time></trkpt><trkpt lat="46.2565344" lon="11.8030363"><ele>1424.0</ele><time>2026-04-26T13:37:38.447Z</time></trkpt><trkpt lat="46.2564385" lon="11.8029538"><ele>1424.0</ele><time>2026-04-26T13:37:39.477Z</time></trkpt><trkpt lat="46.2563429" lon="11.8028771"><ele>1422.25</ele><time>2026-04-26T13:37:40.478Z</time></trkpt><trkpt lat="46.2562556" lon="11.8027649"><ele>1420.5</ele><time>2026-04-26T13:37:41.469Z</time></trkpt><trkpt lat="46.2561853" lon="11.8026229"><ele>1418.75</ele><time>2026-04-26T13:37:42.455Z</time></trkpt><trkpt lat="46.2561165" lon="11.8024726"><ele>1417.0</ele><time>2026-04-26T13:37:43.449Z</time></trkpt><trkpt lat="46.2560491" lon="11.8023225"><ele>1417.0</ele><time>2026-04-26T13:37:44.448Z</time></trkpt><trkpt lat="46.2559776" lon="11.8021739"><ele>1417.0</ele><time>2026-04-26T13:37:45.448Z</time></trkpt><trkpt lat="46.2559079" lon="11.8020141"><ele>1417.0</ele><time>2026-04-26T13:37:46.446Z</time></trkpt><trkpt lat="46.2558458" lon="11.8018397"><ele>1417.0</ele><time>2026-04-26T13:37:47.459Z</time></trkpt><trkpt lat="46.2557979" lon="11.8016543"><ele>1419.0</ele><time>2026-04-26T13:37:48.454Z</time></trkpt><trkpt lat="46.2557522" lon="11.8014681"><ele>1421.0</ele><time>2026-04-26T13:37:49.451Z</time></trkpt><trkpt lat="46.255707" lon="11.8012806"><ele>1423.0</ele><time>2026-04-26T13:37:50.468Z</time></trkpt><trkpt lat="46.2556675" lon="11.8010942"><ele>1425.0</ele><time>2026-04-26T13:37:51.455Z</time></trkpt><trkpt lat="46.255647" lon="11.8008927"><ele>1428.25</ele><time>2026-04-26T13:37:52.451Z</time></trkpt><trkpt lat="46.2556304" lon="11.8006942"><ele>1431.5</ele><time>2026-04-26T13:37:53.466Z</time></trkpt><trkpt lat="46.2556248" lon="11.8005113"><ele>1434.75</ele><time>2026-04-26T13:37:54.465Z</time></trkpt><trkpt lat="46.2556108" lon="11.8003476"><ele>1438.0</ele><time>2026-04-26T13:37:55.463Z</time></trkpt><trkpt lat="46.2555889" lon="11.8001988"><ele>1430.2</ele><time>2026-04-26T13:37:56.463Z</time></trkpt><trkpt lat="46.2555337" lon="11.8000597"><ele>1422.4</ele><time>2026-04-26T13:37:57.459Z</time></trkpt><trkpt lat="46.2554563" lon="11.799936"><ele>1414.6000000000001</ele><time>2026-04-26T13:37:58.472Z</time></trkpt><trkpt lat="46.2553779" lon="11.7998229"><ele>1406.8000000000002</ele><time>2026-04-26T13:37:59.464Z</time></trkpt><trkpt lat="46.2553035" lon="11.7997101"><ele>1399.0</ele><time>2026-04-26T13:38:00.453Z</time></trkpt><trkpt lat="46.2552282" lon="11.7996084"><ele>1399.0</ele><time>2026-04-26T13:38:01.452Z</time></trkpt><trkpt lat="46.2551464" lon="11.7995346"><ele>1399.0</ele><time>2026-04-26T13:38:02.452Z</time></trkpt><trkpt lat="46.2550569" lon="11.7994986"><ele>1399.0</ele><time>2026-04-26T13:38:03.458Z</time></trkpt><trkpt lat="46.2549585" lon="11.7995184"><ele>1399.0</ele><time>2026-04-26T13:38:04.485Z</time></trkpt><trkpt lat="46.254868" lon="11.7995741"><ele>1399.0</ele><time>2026-04-26T13:38:05.46Z</time></trkpt><trkpt lat="46.2547951" lon="11.7996742"><ele>1400.25</ele><time>2026-04-26T13:38:06.46Z</time></trkpt><trkpt lat="46.2547356" lon="11.7998008"><ele>1401.5</ele><time>2026-04-26T13:38:07.464Z</time></trkpt><trkpt lat="46.2547083" lon="11.7999641"><ele>1402.75</ele><time>2026-04-26T13:38:08.448Z</time></trkpt><trkpt lat="46.2546974" lon="11.8001437"><ele>1404.0</ele><time>2026-04-26T13:38:09.484Z</time></trkpt><trkpt lat="46.2546785" lon="11.8003282"><ele>1404.0</ele><time>2026-04-26T13:38:10.454Z</time></trkpt><trkpt lat="46.2546723" lon="11.8005211"><ele>1404.0</ele><time>2026-04-26T13:38:11.45Z</time></trkpt><trkpt lat="46.2546668" lon="11.8007165"><ele>1404.0</ele><time>2026-04-26T13:38:12.452Z</time></trkpt><trkpt lat="46.2546566" lon="11.8009086"><ele>1404.0</ele><time>2026-04-26T13:38:13.455Z</time></trkpt><trkpt lat="46.2546607" lon="11.8011053"><ele>1402.5</ele><time>2026-04-26T13:38:14.474Z</time></trkpt><trkpt lat="46.2546442" lon="11.801294"><ele>1401.0</ele><time>2026-04-26T13:38:15.458Z</time></trkpt><trkpt lat="46.2546012" lon="11.80147"><ele>1399.5</ele><time>2026-04-26T13:38:16.477Z</time></trkpt><trkpt lat="46.2545394" lon="11.8016358"><ele>1398.0</ele><time>2026-04-26T13:38:17.469Z</time></trkpt><trkpt lat="46.254421" lon="11.8017483"><ele>1396.25</ele><time>2026-04-26T13:38:18.46Z</time></trkpt><trkpt lat="46.254328" lon="11.8018819"><ele>1394.5</ele><time>2026-04-26T13:38:19.451Z</time></trkpt><trkpt lat="46.2542696" lon="11.8020553"><ele>1392.75</ele><time>2026-04-26T13:38:20.474Z</time></trkpt><trkpt lat="46.2542412" lon="11.8022485"><ele>1391.0</ele><time>2026-04-26T13:38:21.45Z</time></trkpt><trkpt lat="46.2542081" lon="11.8024264"><ele>1391.0</ele><time>2026-04-26T13:38:22.464Z</time></trkpt><trkpt lat="46.2541476" lon="11.802564"><ele>1391.0</ele><time>2026-04-26T13:38:23.466Z</time></trkpt><trkpt lat="46.2540668" lon="11.8026532"><ele>1391.0</ele><time>2026-04-26T13:38:24.452Z</time></trkpt><trkpt lat="46.2539693" lon="11.8026841"><ele>1391.0</ele><time>2026-04-26T13:38:25.459Z</time></trkpt><trkpt lat="46.2538633" lon="11.8026674"><ele>1391.0</ele><time>2026-04-26T13:38:26.45Z</time></trkpt><trkpt lat="46.2537356" lon="11.8026375"><ele>1388.6666666666667</ele><time>2026-04-26T13:38:27.464Z</time></trkpt><trkpt lat="46.2535889" lon="11.8025977"><ele>1386.3333333333333</ele><time>2026-04-26T13:38:28.466Z</time></trkpt><trkpt lat="46.2534342" lon="11.802576"><ele>1384.0</ele><time>2026-04-26T13:38:29.469Z</time></trkpt><trkpt lat="46.2532788" lon="11.8025539"><ele>1384.0</ele><time>2026-04-26T13:38:30.456Z</time></trkpt><trkpt lat="46.2531238" lon="11.8025391"><ele>1384.0</ele><time>2026-04-26T13:38:31.47Z</time></trkpt><trkpt lat="46.2529631" lon="11.8025081"><ele>1384.0</ele><time>2026-04-26T13:38:32.473Z</time></trkpt><trkpt lat="46.2527977" lon="11.8024837"><ele>1381.0</ele><time>2026-04-26T13:38:33.46Z</time></trkpt><trkpt lat="46.2526349" lon="11.8024607"><ele>1378.0</ele><time>2026-04-26T13:38:34.462Z</time></trkpt><trkpt lat="46.2524738" lon="11.8024414"><ele>1375.0</ele><time>2026-04-26T13:38:35.471Z</time></trkpt><trkpt lat="46.2523133" lon="11.8024235"><ele>1374.3333333333333</ele><time>2026-04-26T13:38:36.465Z</time></trkpt><trkpt lat="46.2521558" lon="11.8023961"><ele>1373.6666666666667</ele><time>2026-04-26T13:38:37.465Z</time></trkpt><trkpt lat="46.2519999" lon="11.8023725"><ele>1373.0</ele><time>2026-04-26T13:38:38.473Z</time></trkpt><trkpt lat="46.2518407" lon="11.802337"><ele>1373.0</ele><time>2026-04-26T13:38:39.457Z</time></trkpt><trkpt lat="46.2516819" lon="11.8023118"><ele>1373.0</ele><time>2026-04-26T13:38:40.464Z</time></trkpt><trkpt lat="46.2515231" lon="11.8022665"><ele>1373.0</ele><time>2026-04-26T13:38:41.477Z</time></trkpt><trkpt lat="46.2513607" lon="11.8022567"><ele>1371.3333333333335</ele><time>2026-04-26T13:38:42.459Z</time></trkpt><trkpt lat="46.251198" lon="11.802243"><ele>1369.6666666666667</ele><time>2026-04-26T13:38:43.464Z</time></trkpt><trkpt lat="46.2510362" lon="11.8022433"><ele>1368.0</ele><time>2026-04-26T13:38:44.456Z</time></trkpt><trkpt lat="46.2508712" lon="11.8022323"><ele>1368.0</ele><time>2026-04-26T13:38:45.472Z</time></trkpt><trkpt lat="46.2507046" lon="11.8022374"><ele>1368.0</ele><time>2026-04-26T13:38:46.467Z</time></trkpt><trkpt lat="46.2505471" lon="11.8022082"><ele>1368.0</ele><time>2026-04-26T13:38:47.461Z</time></trkpt><trkpt lat="46.2503853" lon="11.8021685"><ele>1366.0</ele><time>2026-04-26T13:38:48.464Z</time></trkpt><trkpt lat="46.2502177" lon="11.802166"><ele>1364.0</ele><time>2026-04-26T13:38:49.48Z</time></trkpt><trkpt lat="46.2500625" lon="11.8021741"><ele>1362.0</ele><time>2026-04-26T13:38:50.461Z</time></trkpt><trkpt lat="46.249914" lon="11.8022091"><ele>1364.0</ele><time>2026-04-26T13:38:51.457Z</time></trkpt><trkpt lat="46.249767" lon="11.8022118"><ele>1366.0</ele><time>2026-04-26T13:38:52.451Z</time></trkpt><trkpt lat="46.2496244" lon="11.8021974"><ele>1368.0</ele><time>2026-04-26T13:38:53.456Z</time></trkpt><trkpt lat="46.2494741" lon="11.8022374"><ele>1370.0</ele><time>2026-04-26T13:38:54.463Z</time></trkpt><trkpt lat="46.2493341" lon="11.8023308"><ele>1370.0</ele><time>2026-04-26T13:38:55.465Z</time></trkpt><trkpt lat="46.2491963" lon="11.8024223"><ele>1370.0</ele><time>2026-04-26T13:38:56.484Z</time></trkpt><trkpt lat="46.2490552" lon="11.8025042"><ele>1370.0</ele><time>2026-04-26T13:38:57.479Z</time></trkpt><trkpt lat="46.2489211" lon="11.8026059"><ele>1363.5</ele><time>2026-04-26T13:38:58.453Z</time></trkpt><trkpt lat="46.2487866" lon="11.8026849"><ele>1357.0</ele><time>2026-04-26T13:38:59.463Z</time></trkpt><trkpt lat="46.2486543" lon="11.802765"><ele>1350.5</ele><time>2026-04-26T13:39:00.458Z</time></trkpt><trkpt lat="46.2485286" lon="11.8028587"><ele>1344.0</ele><time>2026-04-26T13:39:01.474Z</time></trkpt><trkpt lat="46.2484161" lon="11.8029669"><ele>1344.0</ele><time>2026-04-26T13:39:02.469Z</time></trkpt><trkpt lat="46.2482885" lon="11.8030529"><ele>1344.0</ele><time>2026-04-26T13:39:03.482Z</time></trkpt><trkpt lat="46.2481534" lon="11.803122"><ele>1344.0</ele><time>2026-04-26T13:39:04.466Z</time></trkpt><trkpt lat="46.2480212" lon="11.8031768"><ele>1344.0</ele><time>2026-04-26T13:39:05.462Z</time></trkpt><trkpt lat="46.2478804" lon="11.8031851"><ele>1345.25</ele><time>2026-04-26T13:39:06.465Z</time></trkpt><trkpt lat="46.2477396" lon="11.8031802"><ele>1346.5</ele><time>2026-04-26T13:39:07.47Z</time></trkpt><trkpt lat="46.2476013" lon="11.8031917"><ele>1347.75</ele><time>2026-04-26T13:39:08.475Z</time></trkpt><trkpt lat="46.2474714" lon="11.8032156"><ele>1349.0</ele><time>2026-04-26T13:39:09.511Z</time></trkpt><trkpt lat="46.2473588" lon="11.8032745"><ele>1350.0</ele><time>2026-04-26T13:39:10.463Z</time></trkpt><trkpt lat="46.2472675" lon="11.8033544"><ele>1351.0</ele><time>2026-04-26T13:39:11.461Z</time></trkpt><trkpt lat="46.2471686" lon="11.8033966"><ele>1352.0</ele><time>2026-04-26T13:39:12.465Z</time></trkpt><trkpt lat="46.247069" lon="11.8034357"><ele>1353.0</ele><time>2026-04-26T13:39:13.451Z</time></trkpt><trkpt lat="46.2469739" lon="11.8033898"><ele>1354.0</ele><time>2026-04-26T13:39:14.468Z</time></trkpt><trkpt lat="46.2468966" lon="11.8032992"><ele>1354.0</ele><time>2026-04-26T13:39:15.475Z</time></trkpt><trkpt lat="46.2468148" lon="11.8032433"><ele>1354.0</ele><time>2026-04-26T13:39:16.46Z</time></trkpt><trkpt lat="46.2467149" lon="11.8032112"><ele>1354.0</ele><time>2026-04-26T13:39:17.482Z</time></trkpt><trkpt lat="46.246601" lon="11.8032577"><ele>1354.0</ele><time>2026-04-26T13:39:18.471Z</time></trkpt><trkpt lat="46.2464974" lon="11.8033664"><ele>1354.0</ele><time>2026-04-26T13:39:19.459Z</time></trkpt><trkpt lat="46.2464061" lon="11.8034841"><ele>1347.0</ele><time>2026-04-26T13:39:20.466Z</time></trkpt><trkpt lat="46.2463149" lon="11.8035694"><ele>1340.0</ele><time>2026-04-26T13:39:21.474Z</time></trkpt><trkpt lat="46.2462081" lon="11.8036249"><ele>1333.0</ele><time>2026-04-26T13:39:22.456Z</time></trkpt><trkpt lat="46.2460867" lon="11.8036609"><ele>1326.0</ele><time>2026-04-26T13:39:23.466Z</time></trkpt><trkpt lat="46.2459603" lon="11.8037092"><ele>1326.0</ele><time>2026-04-26T13:39:24.461Z</time></trkpt><trkpt lat="46.2458319" lon="11.8037838"><ele>1326.0</ele><time>2026-04-26T13:39:25.455Z</time></trkpt><trkpt lat="46.2457141" lon="11.8038973"><ele>1326.0</ele><time>2026-04-26T13:39:26.457Z</time></trkpt><trkpt lat="46.2456041" lon="11.8040019"><ele>1326.0</ele><time>2026-04-26T13:39:27.471Z</time></trkpt><trkpt lat="46.2454859" lon="11.8040767"><ele>1327.3333333333333</ele><time>2026-04-26T13:39:28.465Z</time></trkpt><trkpt lat="46.2453547" lon="11.8041511"><ele>1328.6666666666665</ele><time>2026-04-26T13:39:29.469Z</time></trkpt><trkpt lat="46.2452049" lon="11.8041927"><ele>1330.0</ele><time>2026-04-26T13:39:30.461Z</time></trkpt><trkpt lat="46.2450489" lon="11.8042538"><ele>1330.0</ele><time>2026-04-26T13:39:31.465Z</time></trkpt><trkpt lat="46.2448816" lon="11.8043256"><ele>1330.0</ele><time>2026-04-26T13:39:32.461Z</time></trkpt><trkpt lat="46.2447094" lon="11.8044204"><ele>1330.0</ele><time>2026-04-26T13:39:33.459Z</time></trkpt><trkpt lat="46.2445293" lon="11.8045192"><ele>1320.6666666666665</ele><time>2026-04-26T13:39:34.466Z</time></trkpt><trkpt lat="46.2443477" lon="11.8045964"><ele>1311.3333333333333</ele><time>2026-04-26T13:39:35.459Z</time></trkpt><trkpt lat="46.2441694" lon="11.8046851"><ele>1302.0</ele><time>2026-04-26T13:39:36.456Z</time></trkpt><trkpt lat="46.2439935" lon="11.8047793"><ele>1312.0</ele><time>2026-04-26T13:39:37.465Z</time></trkpt><trkpt lat="46.2438116" lon="11.8048178"><ele>1322.0</ele><time>2026-04-26T13:39:38.478Z</time></trkpt><trkpt lat="46.2436416" lon="11.8048791"><ele>1332.0</ele><time>2026-04-26T13:39:39.464Z</time></trkpt><trkpt lat="46.2434799" lon="11.8048976"><ele>1332.0</ele><time>2026-04-26T13:39:40.463Z</time></trkpt><trkpt lat="46.2433404" lon="11.8049057"><ele>1332.0</ele><time>2026-04-26T13:39:41.484Z</time></trkpt><trkpt lat="46.2432148" lon="11.8048879"><ele>1332.0</ele><time>2026-04-26T13:39:42.463Z</time></trkpt><trkpt lat="46.2430917" lon="11.8049333"><ele>1332.0</ele><time>2026-04-26T13:39:43.465Z</time></trkpt><trkpt lat="46.2429799" lon="11.8050398"><ele>1333.5</ele><time>2026-04-26T13:39:44.462Z</time></trkpt><trkpt lat="46.2428836" lon="11.8051451"><ele>1335.0</ele><time>2026-04-26T13:39:45.481Z</time></trkpt><trkpt lat="46.242779" lon="11.8052267"><ele>1336.5</ele><time>2026-04-26T13:39:46.456Z</time></trkpt><trkpt lat="46.242656" lon="11.805307"><ele>1338.0</ele><time>2026-04-26T13:39:47.448Z</time></trkpt><trkpt lat="46.2425268" lon="11.8052526"><ele>1334.5</ele><time>2026-04-26T13:39:48.47Z</time></trkpt><trkpt lat="46.2423998" lon="11.805184"><ele>1331.0</ele><time>2026-04-26T13:39:49.475Z</time></trkpt><trkpt lat="46.2422743" lon="11.8050942"><ele>1327.5</ele><time>2026-04-26T13:39:50.446Z</time></trkpt><trkpt lat="46.2421425" lon="11.8050348"><ele>1324.0</ele><time>2026-04-26T13:39:51.48Z</time></trkpt><trkpt lat="46.2420053" lon="11.8049994"><ele>1324.0</ele><time>2026-04-26T13:39:52.462Z</time></trkpt><trkpt lat="46.2418808" lon="11.8050812"><ele>1324.0</ele><time>2026-04-26T13:39:53.478Z</time></trkpt><trkpt lat="46.2417568" lon="11.8051856"><ele>1324.0</ele><time>2026-04-26T13:39:54.45Z</time></trkpt><trkpt lat="46.2416154" lon="11.8052595"><ele>1324.0</ele><time>2026-04-26T13:39:55.455Z</time></trkpt><trkpt lat="46.2414628" lon="11.8052982"><ele>1312.3333333333333</ele><time>2026-04-26T13:39:56.455Z</time></trkpt><trkpt lat="46.2413123" lon="11.8053491"><ele>1300.6666666666667</ele><time>2026-04-26T13:39:57.462Z</time></trkpt><trkpt lat="46.2411689" lon="11.8054239"><ele>1289.0</ele><time>2026-04-26T13:39:58.459Z</time></trkpt><trkpt lat="46.2410395" lon="11.805528"><ele>1289.0</ele><time>2026-04-26T13:39:59.464Z</time></trkpt><trkpt lat="46.2409251" lon="11.8056374"><ele>1289.0</ele><time>2026-04-26T13:40:00.468Z</time></trkpt><trkpt lat="46.2408166" lon="11.8057256"><ele>1289.0</ele><time>2026-04-26T13:40:01.453Z</time></trkpt><trkpt lat="46.2406968" lon="11.8057623"><ele>1289.0</ele><time>2026-04-26T13:40:02.455Z</time></trkpt><trkpt lat="46.2405764" lon="11.8057557"><ele>1288.5</ele><time>2026-04-26T13:40:03.476Z</time></trkpt><trkpt lat="46.2404648" lon="11.8057316"><ele>1288.0</ele><time>2026-04-26T13:40:04.461Z</time></trkpt><trkpt lat="46.240367" lon="11.8056962"><ele>1287.5</ele><time>2026-04-26T13:40:05.474Z</time></trkpt><trkpt lat="46.240283" lon="11.8056738"><ele>1287.0</ele><time>2026-04-26T13:40:06.453Z</time></trkpt><trkpt lat="46.2402125" lon="11.8056907"><ele>1286.5</ele><time>2026-04-26T13:40:07.458Z</time></trkpt><trkpt lat="46.2401564" lon="11.8057637"><ele>1286.0</ele><time>2026-04-26T13:40:08.459Z</time></trkpt><trkpt lat="46.2401352" lon="11.8058774"><ele>1286.0</ele><time>2026-04-26T13:40:09.472Z</time></trkpt><trkpt lat="46.2401519" lon="11.8059676"><ele>1286.0</ele><time>2026-04-26T13:40:10.448Z</time></trkpt><trkpt lat="46.2402133" lon="11.8060263"><ele>1286.0</ele><time>2026-04-26T13:40:11.462Z</time></trkpt><trkpt lat="46.2403291" lon="11.8060368"><ele>1286.0</ele><time>2026-04-26T13:40:12.463Z</time></trkpt><trkpt lat="46.2404484" lon="11.8060379"><ele>1286.0</ele><time>2026-04-26T13:40:13.456Z</time></trkpt><trkpt lat="46.2405752" lon="11.8060613"><ele>1286.75</ele><time>2026-04-26T13:40:14.456Z</time></trkpt><trkpt lat="46.2406916" lon="11.8060884"><ele>1287.5</ele><time>2026-04-26T13:40:15.453Z</time></trkpt><trkpt lat="46.2408102" lon="11.8060745"><ele>1288.25</ele><time>2026-04-26T13:40:16.473Z</time></trkpt><trkpt lat="46.2409435" lon="11.8060429"><ele>1289.0</ele><time>2026-04-26T13:40:17.485Z</time></trkpt><trkpt lat="46.2410918" lon="11.8059914"><ele>1289.0</ele><time>2026-04-26T13:40:18.466Z</time></trkpt><trkpt lat="46.2412449" lon="11.8059418"><ele>1289.0</ele><time>2026-04-26T13:40:19.462Z</time></trkpt><trkpt lat="46.2413973" lon="11.8059235"><ele>1289.0</ele><time>2026-04-26T13:40:20.455Z</time></trkpt><trkpt lat="46.241537" lon="11.805917"><ele>1289.8000000000002</ele><time>2026-04-26T13:40:21.459Z</time></trkpt><trkpt lat="46.2416701" lon="11.8059095"><ele>1290.6000000000001</ele><time>2026-04-26T13:40:22.482Z</time></trkpt><trkpt lat="46.2417921" lon="11.8058996"><ele>1291.4</ele><time>2026-04-26T13:40:23.461Z</time></trkpt><trkpt lat="46.2418883" lon="11.8058785"><ele>1292.2</ele><time>2026-04-26T13:40:24.461Z</time></trkpt><trkpt lat="46.2419645" lon="11.8058452"><ele>1293.0</ele><time>2026-04-26T13:40:25.454Z</time></trkpt><trkpt lat="46.242023" lon="11.8057994"><ele>1293.0</ele><time>2026-04-26T13:40:26.468Z</time></trkpt><trkpt lat="46.2421129" lon="11.8057279"><ele>1293.0</ele><time>2026-04-26T13:40:28.471Z</time></trkpt><trkpt lat="46.2421931" lon="11.805738"><ele>1293.0</ele><time>2026-04-26T13:40:30.458Z</time></trkpt><trkpt lat="46.2422587" lon="11.8057707"><ele>1293.0</ele><time>2026-04-26T13:40:32.452Z</time></trkpt><trkpt lat="46.2421778" lon="11.8058745"><ele>1293.0</ele><time>2026-04-26T13:40:34.462Z</time></trkpt><trkpt lat="46.2420728" lon="11.8059286"><ele>1293.0</ele><time>2026-04-26T13:40:35.456Z</time></trkpt><trkpt lat="46.2419537" lon="11.8059636"><ele>1293.0</ele><time>2026-04-26T13:40:36.443Z</time></trkpt><trkpt lat="46.2418364" lon="11.8060134"><ele>1293.0</ele><time>2026-04-26T13:40:37.465Z</time></trkpt><trkpt lat="46.2417132" lon="11.80607"><ele>1293.0</ele><time>2026-04-26T13:40:38.448Z</time></trkpt><trkpt lat="46.2415873" lon="11.8061736"><ele>1281.0</ele><time>2026-04-26T13:40:39.456Z</time></trkpt><trkpt lat="46.241442" lon="11.8062468"><ele>1269.0</ele><time>2026-04-26T13:40:40.459Z</time></trkpt><trkpt lat="46.241283" lon="11.8062952"><ele>1257.0</ele><time>2026-04-26T13:40:41.459Z</time></trkpt><trkpt lat="46.2411167" lon="11.8063265"><ele>1257.0</ele><time>2026-04-26T13:40:42.467Z</time></trkpt><trkpt lat="46.2409588" lon="11.8063938"><ele>1257.0</ele><time>2026-04-26T13:40:43.475Z</time></trkpt><trkpt lat="46.2408178" lon="11.8064804"><ele>1257.0</ele><time>2026-04-26T13:40:44.462Z</time></trkpt><trkpt lat="46.2406876" lon="11.8065621"><ele>1256.0</ele><time>2026-04-26T13:40:45.464Z</time></trkpt><trkpt lat="46.2405641" lon="11.8065852"><ele>1255.0</ele><time>2026-04-26T13:40:46.455Z</time></trkpt><trkpt lat="46.2404499" lon="11.8065674"><ele>1254.0</ele><time>2026-04-26T13:40:47.464Z</time></trkpt><trkpt lat="46.2403361" lon="11.8065148"><ele>1253.0</ele><time>2026-04-26T13:40:48.454Z</time></trkpt><trkpt lat="46.2402047" lon="11.8064401"><ele>1253.0</ele><time>2026-04-26T13:40:49.483Z</time></trkpt><trkpt lat="46.2400447" lon="11.8063944"><ele>1253.0</ele><time>2026-04-26T13:40:50.467Z</time></trkpt><trkpt lat="46.2398697" lon="11.8063779"><ele>1253.0</ele><time>2026-04-26T13:40:51.457Z</time></trkpt><trkpt lat="46.2396934" lon="11.8063651"><ele>1250.6666666666667</ele><time>2026-04-26T13:40:52.461Z</time></trkpt><trkpt lat="46.2395265" lon="11.8063547"><ele>1248.3333333333333</ele><time>2026-04-26T13:40:53.454Z</time></trkpt><trkpt lat="46.2393651" lon="11.8063346"><ele>1246.0</ele><time>2026-04-26T13:40:54.458Z</time></trkpt><trkpt lat="46.2392043" lon="11.806341"><ele>1246.0</ele><time>2026-04-26T13:40:55.466Z</time></trkpt><trkpt lat="46.2390519" lon="11.8063922"><ele>1246.0</ele><time>2026-04-26T13:40:56.489Z</time></trkpt><trkpt lat="46.2389114" lon="11.8064269"><ele>1246.0</ele><time>2026-04-26T13:40:57.47Z</time></trkpt><trkpt lat="46.2387799" lon="11.8064117"><ele>1246.0</ele><time>2026-04-26T13:40:58.457Z</time></trkpt><trkpt lat="46.2386702" lon="11.8063854"><ele>1246.8</ele><time>2026-04-26T13:40:59.478Z</time></trkpt><trkpt lat="46.23858" lon="11.8063104"><ele>1247.6</ele><time>2026-04-26T13:41:00.457Z</time></trkpt><trkpt lat="46.2384818" lon="11.8063232"><ele>1248.4</ele><time>2026-04-26T13:41:01.485Z</time></trkpt><trkpt lat="46.2383814" lon="11.806421"><ele>1249.2</ele><time>2026-04-26T13:41:02.467Z</time></trkpt><trkpt lat="46.2382785" lon="11.806524"><ele>1250.0</ele><time>2026-04-26T13:41:03.46Z</time></trkpt><trkpt lat="46.2381823" lon="11.8066318"><ele>1250.2</ele><time>2026-04-26T13:41:04.464Z</time></trkpt><trkpt lat="46.2380951" lon="11.8067237"><ele>1250.4</ele><time>2026-04-26T13:41:05.46Z</time></trkpt><trkpt lat="46.238018" lon="11.8067934"><ele>1250.6</ele><time>2026-04-26T13:41:06.457Z</time></trkpt><trkpt lat="46.2379487" lon="11.8068428"><ele>1250.8</ele><time>2026-04-26T13:41:07.458Z</time></trkpt><trkpt lat="46.2378601" lon="11.8068394"><ele>1251.0</ele><time>2026-04-26T13:41:08.462Z</time></trkpt><trkpt lat="46.2377525" lon="11.8067918"><ele>1251.0</ele><time>2026-04-26T13:41:09.475Z</time></trkpt><trkpt lat="46.2376492" lon="11.80671"><ele>1251.0</ele><time>2026-04-26T13:41:10.459Z</time></trkpt><trkpt lat="46.2375138" lon="11.8066647"><ele>1251.0</ele><time>2026-04-26T13:41:11.465Z</time></trkpt><trkpt lat="46.2373909" lon="11.8066245"><ele>1251.0</ele><time>2026-04-26T13:41:12.493Z</time></trkpt><trkpt lat="46.2372775" lon="11.806537"><ele>1250.25</ele><time>2026-04-26T13:41:13.46Z</time></trkpt><trkpt lat="46.2371492" lon="11.8065252"><ele>1249.5</ele><time>2026-04-26T13:41:14.478Z</time></trkpt><trkpt lat="46.2370288" lon="11.8065885"><ele>1248.75</ele><time>2026-04-26T13:41:15.477Z</time></trkpt><trkpt lat="46.2369254" lon="11.8067021"><ele>1248.0</ele><time>2026-04-26T13:41:16.454Z</time></trkpt><trkpt lat="46.2368249" lon="11.8068474"><ele>1238.5</ele><time>2026-04-26T13:41:17.455Z</time></trkpt><trkpt lat="46.2367183" lon="11.8069797"><ele>1229.0</ele><time>2026-04-26T13:41:18.46Z</time></trkpt><trkpt lat="46.2366187" lon="11.8070955"><ele>1219.5</ele><time>2026-04-26T13:41:19.474Z</time></trkpt><trkpt lat="46.236512" lon="11.8071913"><ele>1210.0</ele><time>2026-04-26T13:41:20.449Z</time></trkpt><trkpt lat="46.2363965" lon="11.8072521"><ele>1210.0</ele><time>2026-04-26T13:41:21.465Z</time></trkpt><trkpt lat="46.2362651" lon="11.8072591"><ele>1210.0</ele><time>2026-04-26T13:41:22.464Z</time></trkpt><trkpt lat="46.2361215" lon="11.8072301"><ele>1210.0</ele><time>2026-04-26T13:41:23.456Z</time></trkpt><trkpt lat="46.235971" lon="11.8071895"><ele>1210.0</ele><time>2026-04-26T13:41:24.456Z</time></trkpt><trkpt lat="46.2358146" lon="11.8071556"><ele>1210.0</ele><time>2026-04-26T13:41:25.468Z</time></trkpt><trkpt lat="46.2356574" lon="11.807135"><ele>1210.0</ele><time>2026-04-26T13:41:26.453Z</time></trkpt><trkpt lat="46.2354961" lon="11.8071319"><ele>1210.0</ele><time>2026-04-26T13:41:27.456Z</time></trkpt><trkpt lat="46.2353329" lon="11.8071297"><ele>1208.6666666666665</ele><time>2026-04-26T13:41:28.451Z</time></trkpt><trkpt lat="46.2351707" lon="11.8071295"><ele>1207.3333333333333</ele><time>2026-04-26T13:41:29.456Z</time></trkpt><trkpt lat="46.2350108" lon="11.8071143"><ele>1206.0</ele><time>2026-04-26T13:41:30.459Z</time></trkpt><trkpt lat="46.2348579" lon="11.8071194"><ele>1204.6</ele><time>2026-04-26T13:41:31.461Z</time></trkpt><trkpt lat="46.2347245" lon="11.807117"><ele>1203.1999999999998</ele><time>2026-04-26T13:41:32.461Z</time></trkpt><trkpt lat="46.2346166" lon="11.8071021"><ele>1201.8000000000002</ele><time>2026-04-26T13:41:33.465Z</time></trkpt><trkpt lat="46.2345326" lon="11.8070919"><ele>1200.4</ele><time>2026-04-26T13:41:34.461Z</time></trkpt><trkpt lat="46.2344679" lon="11.8071281"><ele>1199.0</ele><time>2026-04-26T13:41:35.454Z</time></trkpt><trkpt lat="46.234417" lon="11.807183"><ele>1199.0</ele><time>2026-04-26T13:41:36.451Z</time></trkpt><trkpt lat="46.2344357" lon="11.8073513"><ele>1199.0</ele><time>2026-04-26T13:41:38.46Z</time></trkpt><trkpt lat="46.2345039" lon="11.8073821"><ele>1199.0</ele><time>2026-04-26T13:41:39.456Z</time></trkpt><trkpt lat="46.2345883" lon="11.8073559"><ele>1199.0</ele><time>2026-04-26T13:41:40.47Z</time></trkpt><trkpt lat="46.2346872" lon="11.8072947"><ele>1199.0</ele><time>2026-04-26T13:41:41.46Z</time></trkpt><trkpt lat="46.2348154" lon="11.8072716"><ele>1201.3333333333335</ele><time>2026-04-26T13:41:42.458Z</time></trkpt><trkpt lat="46.2349652" lon="11.8072812"><ele>1203.6666666666667</ele><time>2026-04-26T13:41:43.458Z</time></trkpt><trkpt lat="46.2351213" lon="11.8073144"><ele>1206.0</ele><time>2026-04-26T13:41:44.453Z</time></trkpt><trkpt lat="46.235273" lon="11.8073767"><ele>1206.0</ele><time>2026-04-26T13:41:45.47Z</time></trkpt><trkpt lat="46.2354063" lon="11.8074576"><ele>1206.0</ele><time>2026-04-26T13:41:46.483Z</time></trkpt><trkpt lat="46.2355155" lon="11.8074945"><ele>1206.0</ele><time>2026-04-26T13:41:47.462Z</time></trkpt><trkpt lat="46.2356037" lon="11.8075135"><ele>1206.0</ele><time>2026-04-26T13:41:48.468Z</time></trkpt><trkpt lat="46.2356723" lon="11.8075213"><ele>1206.0</ele><time>2026-04-26T13:41:49.464Z</time></trkpt><trkpt lat="46.2357563" lon="11.8076609"><ele>1198.0</ele><time>2026-04-26T13:41:52.45Z</time></trkpt><trkpt lat="46.2356445" lon="11.8077746"><ele>1190.0</ele><time>2026-04-26T13:41:54.493Z</time></trkpt><trkpt lat="46.2355672" lon="11.8077601"><ele>1182.0</ele><time>2026-04-26T13:41:55.46Z</time></trkpt><trkpt lat="46.2354557" lon="11.8077289"><ele>1174.0</ele><time>2026-04-26T13:41:56.459Z</time></trkpt><trkpt lat="46.2353225" lon="11.8076904"><ele>1171.3333333333333</ele><time>2026-04-26T13:41:57.474Z</time></trkpt><trkpt lat="46.2351542" lon="11.8076735"><ele>1168.6666666666667</ele><time>2026-04-26T13:41:58.46Z</time></trkpt><trkpt lat="46.2349792" lon="11.8076898"><ele>1166.0</ele><time>2026-04-26T13:41:59.459Z</time></trkpt><trkpt lat="46.2348103" lon="11.8077109"><ele>1163.3333333333335</ele><time>2026-04-26T13:42:00.483Z</time></trkpt><trkpt lat="46.234649" lon="11.8077277"><ele>1160.6666666666667</ele><time>2026-04-26T13:42:01.457Z</time></trkpt><trkpt lat="46.2344875" lon="11.8077414"><ele>1158.0</ele><time>2026-04-26T13:42:02.462Z</time></trkpt><trkpt lat="46.2343142" lon="11.8077278"><ele>1158.0</ele><time>2026-04-26T13:42:03.46Z</time></trkpt><trkpt lat="46.234133" lon="11.8077061"><ele>1158.0</ele><time>2026-04-26T13:42:04.48Z</time></trkpt><trkpt lat="46.233957" lon="11.8076995"><ele>1158.0</ele><time>2026-04-26T13:42:05.479Z</time></trkpt><trkpt lat="46.2337897" lon="11.8076711"><ele>1171.3333333333333</ele><time>2026-04-26T13:42:06.471Z</time></trkpt><trkpt lat="46.2336251" lon="11.8076246"><ele>1184.6666666666665</ele><time>2026-04-26T13:42:07.466Z</time></trkpt><trkpt lat="46.2334555" lon="11.8075926"><ele>1198.0</ele><time>2026-04-26T13:42:08.483Z</time></trkpt><trkpt lat="46.233279" lon="11.8076018"><ele>1195.3333333333333</ele><time>2026-04-26T13:42:09.467Z</time></trkpt><trkpt lat="46.2331096" lon="11.8076599"><ele>1192.6666666666667</ele><time>2026-04-26T13:42:10.453Z</time></trkpt><trkpt lat="46.2329477" lon="11.8076919"><ele>1190.0</ele><time>2026-04-26T13:42:11.465Z</time></trkpt><trkpt lat="46.2327894" lon="11.8077388"><ele>1180.75</ele><time>2026-04-26T13:42:12.469Z</time></trkpt><trkpt lat="46.2326387" lon="11.8077768"><ele>1171.5</ele><time>2026-04-26T13:42:13.473Z</time></trkpt><trkpt lat="46.232493" lon="11.807778"><ele>1162.25</ele><time>2026-04-26T13:42:14.477Z</time></trkpt><trkpt lat="46.2323472" lon="11.8077614"><ele>1153.0</ele><time>2026-04-26T13:42:15.481Z</time></trkpt><trkpt lat="46.2322025" lon="11.8077088"><ele>1162.0</ele><time>2026-04-26T13:42:16.457Z</time></trkpt><trkpt lat="46.2320697" lon="11.8076223"><ele>1171.0</ele><time>2026-04-26T13:42:17.469Z</time></trkpt><trkpt lat="46.2319504" lon="11.8075238"><ele>1180.0</ele><time>2026-04-26T13:42:18.472Z</time></trkpt><trkpt lat="46.2318462" lon="11.8074338"><ele>1189.0</ele><time>2026-04-26T13:42:19.46Z</time></trkpt><trkpt lat="46.2317576" lon="11.8073759"><ele>1189.0</ele><time>2026-04-26T13:42:20.468Z</time></trkpt><trkpt lat="46.2316677" lon="11.8073703"><ele>1189.0</ele><time>2026-04-26T13:42:21.464Z</time></trkpt><trkpt lat="46.231584" lon="11.8074561"><ele>1189.0</ele><time>2026-04-26T13:42:22.457Z</time></trkpt><trkpt lat="46.2315146" lon="11.8076211"><ele>1189.0</ele><time>2026-04-26T13:42:23.46Z</time></trkpt><trkpt lat="46.2314543" lon="11.8078289"><ele>1184.3333333333333</ele><time>2026-04-26T13:42:24.461Z</time></trkpt><trkpt lat="46.2313734" lon="11.8080162"><ele>1179.6666666666667</ele><time>2026-04-26T13:42:25.485Z</time></trkpt><trkpt lat="46.2312935" lon="11.8082028"><ele>1175.0</ele><time>2026-04-26T13:42:26.48Z</time></trkpt><trkpt lat="46.231203" lon="11.8083711"><ele>1166.5</ele><time>2026-04-26T13:42:27.467Z</time></trkpt><trkpt lat="46.2311018" lon="11.8085294"><ele>1158.0</ele><time>2026-04-26T13:42:28.47Z</time></trkpt><trkpt lat="46.2309717" lon="11.808632"><ele>1149.5</ele><time>2026-04-26T13:42:29.471Z</time></trkpt><trkpt lat="46.230827" lon="11.8086971"><ele>1141.0</ele><time>2026-04-26T13:42:30.457Z</time></trkpt><trkpt lat="46.2306702" lon="11.8087295"><ele>1143.3333333333333</ele><time>2026-04-26T13:42:31.467Z</time></trkpt><trkpt lat="46.2304975" lon="11.8087318"><ele>1145.6666666666667</ele><time>2026-04-26T13:42:32.448Z</time></trkpt><trkpt lat="46.2303136" lon="11.808734"><ele>1148.0</ele><time>2026-04-26T13:42:33.47Z</time></trkpt><trkpt lat="46.2301323" lon="11.8087232"><ele>1148.0</ele><time>2026-04-26T13:42:34.454Z</time></trkpt><trkpt lat="46.2299642" lon="11.8087284"><ele>1148.0</ele><time>2026-04-26T13:42:35.473Z</time></trkpt><trkpt lat="46.2297938" lon="11.8087413"><ele>1148.0</ele><time>2026-04-26T13:42:36.482Z</time></trkpt><trkpt lat="46.229624" lon="11.808742"><ele>1148.3333333333335</ele><time>2026-04-26T13:42:37.463Z</time></trkpt><trkpt lat="46.2294575" lon="11.8087287"><ele>1148.6666666666667</ele><time>2026-04-26T13:42:38.474Z</time></trkpt><trkpt lat="46.229292" lon="11.8087495"><ele>1149.0</ele><time>2026-04-26T13:42:39.478Z</time></trkpt><trkpt lat="46.2291313" lon="11.8087713"><ele>1144.0</ele><time>2026-04-26T13:42:40.459Z</time></trkpt><trkpt lat="46.2289734" lon="11.8088089"><ele>1139.0</ele><time>2026-04-26T13:42:41.464Z</time></trkpt><trkpt lat="46.2288157" lon="11.8088499"><ele>1134.0</ele><time>2026-04-26T13:42:42.47Z</time></trkpt><trkpt lat="46.2286545" lon="11.8088827"><ele>1134.0</ele><time>2026-04-26T13:42:43.46Z</time></trkpt><trkpt lat="46.2284904" lon="11.808907"><ele>1134.0</ele><time>2026-04-26T13:42:44.459Z</time></trkpt><trkpt lat="46.2283329" lon="11.8088804"><ele>1134.0</ele><time>2026-04-26T13:42:45.479Z</time></trkpt><trkpt lat="46.2281906" lon="11.8088186"><ele>1130.75</ele><time>2026-04-26T13:42:46.48Z</time></trkpt><trkpt lat="46.2280719" lon="11.8087317"><ele>1127.5</ele><time>2026-04-26T13:42:47.474Z</time></trkpt><trkpt lat="46.2279794" lon="11.8086248"><ele>1124.25</ele><time>2026-04-26T13:42:48.455Z</time></trkpt><trkpt lat="46.2278868" lon="11.8085414"><ele>1121.0</ele><time>2026-04-26T13:42:49.459Z</time></trkpt><trkpt lat="46.2277843" lon="11.8084951"><ele>1121.0</ele><time>2026-04-26T13:42:50.453Z</time></trkpt><trkpt lat="46.2276733" lon="11.808492"><ele>1121.0</ele><time>2026-04-26T13:42:51.471Z</time></trkpt><trkpt lat="46.2275527" lon="11.8085285"><ele>1121.0</ele><time>2026-04-26T13:42:52.464Z</time></trkpt><trkpt lat="46.2274336" lon="11.8086167"><ele>1121.0</ele><time>2026-04-26T13:42:53.461Z</time></trkpt><trkpt lat="46.2273147" lon="11.80872"><ele>1119.25</ele><time>2026-04-26T13:42:54.463Z</time></trkpt><trkpt lat="46.2272018" lon="11.8088216"><ele>1117.5</ele><time>2026-04-26T13:42:55.456Z</time></trkpt><trkpt lat="46.2270993" lon="11.8089224"><ele>1115.75</ele><time>2026-04-26T13:42:56.464Z</time></trkpt><trkpt lat="46.2269982" lon="11.809012"><ele>1114.0</ele><time>2026-04-26T13:42:57.47Z</time></trkpt><trkpt lat="46.2268805" lon="11.8090623"><ele>1114.0</ele><time>2026-04-26T13:42:58.487Z</time></trkpt><trkpt lat="46.2267576" lon="11.8090958"><ele>1114.0</ele><time>2026-04-26T13:42:59.476Z</time></trkpt><trkpt lat="46.2266429" lon="11.8090928"><ele>1114.0</ele><time>2026-04-26T13:43:00.47Z</time></trkpt><trkpt lat="46.226532" lon="11.8090628"><ele>1114.0</ele><time>2026-04-26T13:43:01.469Z</time></trkpt><trkpt lat="46.2264265" lon="11.8090162"><ele>1108.25</ele><time>2026-04-26T13:43:02.471Z</time></trkpt><trkpt lat="46.2263282" lon="11.808952"><ele>1102.5</ele><time>2026-04-26T13:43:03.481Z</time></trkpt><trkpt lat="46.2262526" lon="11.8088357"><ele>1096.75</ele><time>2026-04-26T13:43:04.468Z</time></trkpt><trkpt lat="46.2261925" lon="11.8086935"><ele>1091.0</ele><time>2026-04-26T13:43:05.47Z</time></trkpt><trkpt lat="46.226162" lon="11.8085299"><ele>1094.6</ele><time>2026-04-26T13:43:06.454Z</time></trkpt><trkpt lat="46.2261403" lon="11.8083672"><ele>1098.1999999999998</ele><time>2026-04-26T13:43:07.451Z</time></trkpt><trkpt lat="46.2261133" lon="11.808207"><ele>1101.8000000000002</ele><time>2026-04-26T13:43:08.469Z</time></trkpt><trkpt lat="46.2260777" lon="11.8080582"><ele>1105.4</ele><time>2026-04-26T13:43:09.474Z</time></trkpt><trkpt lat="46.2260444" lon="11.80792"><ele>1109.0</ele><time>2026-04-26T13:43:10.477Z</time></trkpt><trkpt lat="46.2260044" lon="11.8077836"><ele>1111.4</ele><time>2026-04-26T13:43:11.469Z</time></trkpt><trkpt lat="46.2259698" lon="11.8076459"><ele>1113.8000000000002</ele><time>2026-04-26T13:43:12.463Z</time></trkpt><trkpt lat="46.2259325" lon="11.8075146"><ele>1116.1999999999998</ele><time>2026-04-26T13:43:13.471Z</time></trkpt><trkpt lat="46.2259074" lon="11.8073855"><ele>1118.6</ele><time>2026-04-26T13:43:14.451Z</time></trkpt><trkpt lat="46.2258835" lon="11.8072629"><ele>1121.0</ele><time>2026-04-26T13:43:15.47Z</time></trkpt><trkpt lat="46.2258555" lon="11.8071416"><ele>1121.0</ele><time>2026-04-26T13:43:16.457Z</time></trkpt><trkpt lat="46.2258168" lon="11.8070334"><ele>1121.0</ele><time>2026-04-26T13:43:17.454Z</time></trkpt><trkpt lat="46.2257686" lon="11.8069442"><ele>1121.0</ele><time>2026-04-26T13:43:18.456Z</time></trkpt><trkpt lat="46.2256991" lon="11.8068825"><ele>1121.0</ele><time>2026-04-26T13:43:19.49Z</time></trkpt><trkpt lat="46.2256271" lon="11.8068177"><ele>1121.0</ele><time>2026-04-26T13:43:20.458Z</time></trkpt><trkpt lat="46.2255314" lon="11.8068116"><ele>1121.0</ele><time>2026-04-26T13:43:21.466Z</time></trkpt><trkpt lat="46.2254403" lon="11.8068118"><ele>1122.0</ele><time>2026-04-26T13:43:22.464Z</time></trkpt><trkpt lat="46.2253547" lon="11.8068848"><ele>1123.0</ele><time>2026-04-26T13:43:23.461Z</time></trkpt><trkpt lat="46.2252773" lon="11.8069602"><ele>1124.0</ele><time>2026-04-26T13:43:24.459Z</time></trkpt><trkpt lat="46.225203" lon="11.807051"><ele>1125.0</ele><time>2026-04-26T13:43:25.456Z</time></trkpt><trkpt lat="46.2251302" lon="11.8071447"><ele>1126.0</ele><time>2026-04-26T13:43:26.457Z</time></trkpt><trkpt lat="46.2250574" lon="11.8072332"><ele>1126.0</ele><time>2026-04-26T13:43:27.457Z</time></trkpt><trkpt lat="46.2249868" lon="11.8073215"><ele>1126.0</ele><time>2026-04-26T13:43:28.479Z</time></trkpt><trkpt lat="46.2249149" lon="11.8074109"><ele>1126.0</ele><time>2026-04-26T13:43:29.467Z</time></trkpt><trkpt lat="46.2248524" lon="11.8075075"><ele>1126.0</ele><time>2026-04-26T13:43:30.474Z</time></trkpt><trkpt lat="46.2247929" lon="11.807609"><ele>1126.0</ele><time>2026-04-26T13:43:31.461Z</time></trkpt><trkpt lat="46.2247443" lon="11.8077257"><ele>1122.6666666666665</ele><time>2026-04-26T13:43:32.478Z</time></trkpt><trkpt lat="46.2246896" lon="11.8078237"><ele>1119.3333333333333</ele><time>2026-04-26T13:43:33.463Z</time></trkpt><trkpt lat="46.2246172" lon="11.8078767"><ele>1116.0</ele><time>2026-04-26T13:43:34.453Z</time></trkpt><trkpt lat="46.2245396" lon="11.8078759"><ele>1112.6666666666667</ele><time>2026-04-26T13:43:35.486Z</time></trkpt><trkpt lat="46.2244739" lon="11.8078272"><ele>1109.3333333333335</ele><time>2026-04-26T13:43:36.46Z</time></trkpt><trkpt lat="46.2244252" lon="11.8077456"><ele>1106.0</ele><time>2026-04-26T13:43:37.463Z</time></trkpt><trkpt lat="46.2244033" lon="11.8076454"><ele>1106.0</ele><time>2026-04-26T13:43:38.468Z</time></trkpt><trkpt lat="46.2243987" lon="11.8075254"><ele>1106.0</ele><time>2026-04-26T13:43:39.467Z</time></trkpt><trkpt lat="46.2244157" lon="11.8074029"><ele>1106.0</ele><time>2026-04-26T13:43:40.458Z</time></trkpt><trkpt lat="46.2244228" lon="11.8072773"><ele>1106.0</ele><time>2026-04-26T13:43:41.445Z</time></trkpt><trkpt lat="46.2244345" lon="11.8071543"><ele>1106.0</ele><time>2026-04-26T13:43:42.457Z</time></trkpt><trkpt lat="46.224447" lon="11.8070351"><ele>1106.0</ele><time>2026-04-26T13:43:43.464Z</time></trkpt><trkpt lat="46.2244521" lon="11.8069248"><ele>1109.3333333333335</ele><time>2026-04-26T13:43:44.47Z</time></trkpt><trkpt lat="46.2244116" lon="11.8068104"><ele>1112.6666666666667</ele><time>2026-04-26T13:43:45.455Z</time></trkpt><trkpt lat="46.2243425" lon="11.8067149"><ele>1116.0</ele><time>2026-04-26T13:43:46.476Z</time></trkpt><trkpt lat="46.2242684" lon="11.8066153"><ele>1119.3333333333333</ele><time>2026-04-26T13:43:47.467Z</time></trkpt><trkpt lat="46.2242075" lon="11.8065579"><ele>1122.6666666666665</ele><time>2026-04-26T13:43:48.471Z</time></trkpt><trkpt lat="46.2241276" lon="11.8065703"><ele>1126.0</ele><time>2026-04-26T13:43:49.46Z</time></trkpt><trkpt lat="46.2240408" lon="11.8065859"><ele>1127.3999999999999</ele><time>2026-04-26T13:43:50.46Z</time></trkpt><trkpt lat="46.2239571" lon="11.8066576"><ele>1128.8</ele><time>2026-04-26T13:43:51.476Z</time></trkpt><trkpt lat="46.2238728" lon="11.8067454"><ele>1130.1999999999998</ele><time>2026-04-26T13:43:52.468Z</time></trkpt><trkpt lat="46.2237761" lon="11.8068314"><ele>1131.6</ele><time>2026-04-26T13:43:53.472Z</time></trkpt><trkpt lat="46.2236609" lon="11.8068999"><ele>1133.0</ele><time>2026-04-26T13:43:54.477Z</time></trkpt><trkpt lat="46.2235407" lon="11.8069178"><ele>1137.8</ele><time>2026-04-26T13:43:55.478Z</time></trkpt><trkpt lat="46.2234222" lon="11.8069338"><ele>1142.6</ele><time>2026-04-26T13:43:56.48Z</time></trkpt><trkpt lat="46.223309" lon="11.8069507"><ele>1147.4</ele><time>2026-04-26T13:43:57.465Z</time></trkpt><trkpt lat="46.2232017" lon="11.8069804"><ele>1152.2</ele><time>2026-04-26T13:43:58.458Z</time></trkpt><trkpt lat="46.2231025" lon="11.8070298"><ele>1157.0</ele><time>2026-04-26T13:43:59.465Z</time></trkpt><trkpt lat="46.2230306" lon="11.807151"><ele>1157.0</ele><time>2026-04-26T13:44:00.462Z</time></trkpt><trkpt lat="46.222972" lon="11.8073046"><ele>1157.0</ele><time>2026-04-26T13:44:01.459Z</time></trkpt><trkpt lat="46.2229364" lon="11.8075032"><ele>1157.0</ele><time>2026-04-26T13:44:02.482Z</time></trkpt><trkpt lat="46.2229283" lon="11.8077343"><ele>1157.0</ele><time>2026-04-26T13:44:03.466Z</time></trkpt><trkpt lat="46.2229077" lon="11.8079571"><ele>1150.6666666666667</ele><time>2026-04-26T13:44:04.473Z</time></trkpt><trkpt lat="46.2228869" lon="11.8081742"><ele>1144.3333333333333</ele><time>2026-04-26T13:44:05.476Z</time></trkpt><trkpt lat="46.2228497" lon="11.8083969"><ele>1138.0</ele><time>2026-04-26T13:44:06.459Z</time></trkpt><trkpt lat="46.2228288" lon="11.808617"><ele>1134.0</ele><time>2026-04-26T13:44:07.461Z</time></trkpt><trkpt lat="46.2228003" lon="11.8088273"><ele>1130.0</ele><time>2026-04-26T13:44:08.454Z</time></trkpt><trkpt lat="46.2227856" lon="11.8090335"><ele>1126.0</ele><time>2026-04-26T13:44:09.476Z</time></trkpt><trkpt lat="46.2227771" lon="11.809216"><ele>1122.0</ele><time>2026-04-26T13:44:10.462Z</time></trkpt><trkpt lat="46.2227678" lon="11.8093647"><ele>1118.1666666666667</ele><time>2026-04-26T13:44:11.469Z</time></trkpt><trkpt lat="46.2227595" lon="11.8094848"><ele>1114.3333333333333</ele><time>2026-04-26T13:44:12.465Z</time></trkpt><trkpt lat="46.2227572" lon="11.8095864"><ele>1110.5</ele><time>2026-04-26T13:44:13.479Z</time></trkpt><trkpt lat="46.2227358" lon="11.8096816"><ele>1106.6666666666665</ele><time>2026-04-26T13:44:14.459Z</time></trkpt><trkpt lat="46.2227213" lon="11.80978"><ele>1102.8333333333333</ele><time>2026-04-26T13:44:15.484Z</time></trkpt><trkpt lat="46.222686" lon="11.8098732"><ele>1099.0</ele><time>2026-04-26T13:44:16.461Z</time></trkpt><trkpt lat="46.2226234" lon="11.8099541"><ele>1099.0</ele><time>2026-04-26T13:44:17.461Z</time></trkpt><trkpt lat="46.2225512" lon="11.8100113"><ele>1099.0</ele><time>2026-04-26T13:44:18.477Z</time></trkpt><trkpt lat="46.2224676" lon="11.8100765"><ele>1099.0</ele><time>2026-04-26T13:44:19.462Z</time></trkpt><trkpt lat="46.2223943" lon="11.8101825"><ele>1099.0</ele><time>2026-04-26T13:44:20.456Z</time></trkpt><trkpt lat="46.2223055" lon="11.8102647"><ele>1099.0</ele><time>2026-04-26T13:44:21.45Z</time></trkpt><trkpt lat="46.222211" lon="11.8103388"><ele>1096.0</ele><time>2026-04-26T13:44:22.477Z</time></trkpt><trkpt lat="46.2221145" lon="11.8104173"><ele>1093.0</ele><time>2026-04-26T13:44:23.473Z</time></trkpt><trkpt lat="46.222027" lon="11.8105164"><ele>1090.0</ele><time>2026-04-26T13:44:24.463Z</time></trkpt><trkpt lat="46.221927" lon="11.8106004"><ele>1087.0</ele><time>2026-04-26T13:44:25.465Z</time></trkpt><trkpt lat="46.2218261" lon="11.8106991"><ele>1087.0</ele><time>2026-04-26T13:44:26.468Z</time></trkpt><trkpt lat="46.2217291" lon="11.810803"><ele>1087.0</ele><time>2026-04-26T13:44:27.454Z</time></trkpt><trkpt lat="46.2216302" lon="11.8108968"><ele>1087.0</ele><time>2026-04-26T13:44:28.47Z</time></trkpt><trkpt lat="46.2215306" lon="11.810981"><ele>1087.0</ele><time>2026-04-26T13:44:29.479Z</time></trkpt><trkpt lat="46.2214257" lon="11.8110669"><ele>1081.6</ele><time>2026-04-26T13:44:30.463Z</time></trkpt><trkpt lat="46.2213199" lon="11.8111419"><ele>1076.2</ele><time>2026-04-26T13:44:31.468Z</time></trkpt><trkpt lat="46.2212163" lon="11.8112105"><ele>1070.8</ele><time>2026-04-26T13:44:32.484Z</time></trkpt><trkpt lat="46.2211157" lon="11.8112751"><ele>1065.4</ele><time>2026-04-26T13:44:33.48Z</time></trkpt><trkpt lat="46.2210117" lon="11.8112989"><ele>1060.0</ele><time>2026-04-26T13:44:34.461Z</time></trkpt><trkpt lat="46.2209224" lon="11.811304"><ele>1059.9999999999998</ele><time>2026-04-26T13:44:35.463Z</time></trkpt><trkpt lat="46.2208395" lon="11.8112865"><ele>1060.0</ele><time>2026-04-26T13:44:36.464Z</time></trkpt><trkpt lat="46.2207686" lon="11.8112316"><ele>1060.0</ele><time>2026-04-26T13:44:37.477Z</time></trkpt><trkpt lat="46.2207012" lon="11.8111843"><ele>1060.0</ele><time>2026-04-26T13:44:38.466Z</time></trkpt><trkpt lat="46.2206408" lon="11.8111387"><ele>1060.0</ele><time>2026-04-26T13:44:39.468Z</time></trkpt><trkpt lat="46.2205778" lon="11.8111119"><ele>1059.9999999999998</ele><time>2026-04-26T13:44:40.472Z</time></trkpt><trkpt lat="46.2205165" lon="11.8110902"><ele>1060.0</ele><time>2026-04-26T13:44:41.472Z</time></trkpt><trkpt lat="46.2204476" lon="11.8111022"><ele>1063.6</ele><time>2026-04-26T13:44:42.465Z</time></trkpt><trkpt lat="46.2203823" lon="11.8111405"><ele>1067.2</ele><time>2026-04-26T13:44:43.473Z</time></trkpt><trkpt lat="46.2202763" lon="11.8112237"><ele>1070.8</ele><time>2026-04-26T13:44:45.453Z</time></trkpt><trkpt lat="46.2201977" lon="11.8112835"><ele>1074.4</ele><time>2026-04-26T13:44:46.451Z</time></trkpt><trkpt lat="46.2201165" lon="11.8113443"><ele>1078.0</ele><time>2026-04-26T13:44:47.456Z</time></trkpt><trkpt lat="46.2200401" lon="11.8114209"><ele>1078.0</ele><time>2026-04-26T13:44:48.481Z</time></trkpt><trkpt lat="46.2199718" lon="11.811515"><ele>1078.0</ele><time>2026-04-26T13:44:49.469Z</time></trkpt><trkpt lat="46.2199207" lon="11.8116254"><ele>1078.0</ele><time>2026-04-26T13:44:50.459Z</time></trkpt><trkpt lat="46.2198689" lon="11.8117377"><ele>1078.0</ele><time>2026-04-26T13:44:51.46Z</time></trkpt><trkpt lat="46.2198032" lon="11.8118314"><ele>1078.0</ele><time>2026-04-26T13:44:52.473Z</time></trkpt><trkpt lat="46.2197446" lon="11.8119119"><ele>1073.0</ele><time>2026-04-26T13:44:53.459Z</time></trkpt><trkpt lat="46.2196895" lon="11.8119781"><ele>1068.0</ele><time>2026-04-26T13:44:54.465Z</time></trkpt><trkpt lat="46.2196261" lon="11.8120177"><ele>1063.0</ele><time>2026-04-26T13:44:55.467Z</time></trkpt><trkpt lat="46.2195526" lon="11.8120152"><ele>1058.0</ele><time>2026-04-26T13:44:56.466Z</time></trkpt><trkpt lat="46.2194821" lon="11.8119764"><ele>1053.0</ele><time>2026-04-26T13:44:57.468Z</time></trkpt><trkpt lat="46.2194091" lon="11.8119234"><ele>1048.0</ele><time>2026-04-26T13:44:58.463Z</time></trkpt><trkpt lat="46.2193195" lon="11.8118857"><ele>1048.0</ele><time>2026-04-26T13:44:59.453Z</time></trkpt><trkpt lat="46.2192133" lon="11.8119005"><ele>1048.0</ele><time>2026-04-26T13:45:00.456Z</time></trkpt><trkpt lat="46.2191011" lon="11.8119448"><ele>1048.0</ele><time>2026-04-26T13:45:01.46Z</time></trkpt><trkpt lat="46.2189903" lon="11.812018"><ele>1048.0</ele><time>2026-04-26T13:45:02.465Z</time></trkpt><trkpt lat="46.218885" lon="11.8121034"><ele>1051.75</ele><time>2026-04-26T13:45:03.466Z</time></trkpt><trkpt lat="46.2187845" lon="11.8122088"><ele>1055.5</ele><time>2026-04-26T13:45:04.456Z</time></trkpt><trkpt lat="46.2186786" lon="11.8122999"><ele>1059.25</ele><time>2026-04-26T13:45:05.451Z</time></trkpt><trkpt lat="46.218574" lon="11.8123985"><ele>1063.0</ele><time>2026-04-26T13:45:06.456Z</time></trkpt><trkpt lat="46.2184556" lon="11.8124902"><ele>1063.0</ele><time>2026-04-26T13:45:07.462Z</time></trkpt><trkpt lat="46.2183197" lon="11.8125709"><ele>1063.0</ele><time>2026-04-26T13:45:08.457Z</time></trkpt><trkpt lat="46.2181629" lon="11.8126367"><ele>1063.0</ele><time>2026-04-26T13:45:09.472Z</time></trkpt><trkpt lat="46.2179901" lon="11.812735"><ele>1059.3333333333333</ele><time>2026-04-26T13:45:10.445Z</time></trkpt><trkpt lat="46.2178127" lon="11.8128644"><ele>1055.6666666666667</ele><time>2026-04-26T13:45:11.455Z</time></trkpt><trkpt lat="46.2176361" lon="11.8130078"><ele>1052.0</ele><time>2026-04-26T13:45:12.452Z</time></trkpt><trkpt lat="46.2174627" lon="11.8131618"><ele>1056.0</ele><time>2026-04-26T13:45:13.452Z</time></trkpt><trkpt lat="46.2172884" lon="11.8133065"><ele>1060.0</ele><time>2026-04-26T13:45:14.456Z</time></trkpt><trkpt lat="46.2171183" lon="11.8134218"><ele>1064.0</ele><time>2026-04-26T13:45:15.449Z</time></trkpt><trkpt lat="46.2169625" lon="11.8135586"><ele>1055.0</ele><time>2026-04-26T13:45:16.443Z</time></trkpt><trkpt lat="46.216813" lon="11.81369"><ele>1046.0</ele><time>2026-04-26T13:45:17.46Z</time></trkpt><trkpt lat="46.2166773" lon="11.8137991"><ele>1037.0</ele><time>2026-04-26T13:45:18.468Z</time></trkpt><trkpt lat="46.2165533" lon="11.8138964"><ele>1038.75</ele><time>2026-04-26T13:45:19.471Z</time></trkpt><trkpt lat="46.2164345" lon="11.8139928"><ele>1040.5</ele><time>2026-04-26T13:45:20.462Z</time></trkpt><trkpt lat="46.2163392" lon="11.8141135"><ele>1042.25</ele><time>2026-04-26T13:45:21.458Z</time></trkpt><trkpt lat="46.2162382" lon="11.8141973"><ele>1044.0</ele><time>2026-04-26T13:45:22.453Z</time></trkpt><trkpt lat="46.2161406" lon="11.8142589"><ele>1044.0</ele><time>2026-04-26T13:45:23.459Z</time></trkpt><trkpt lat="46.2160427" lon="11.814295"><ele>1044.0</ele><time>2026-04-26T13:45:24.464Z</time></trkpt><trkpt lat="46.2159462" lon="11.814339"><ele>1044.0</ele><time>2026-04-26T13:45:25.45Z</time></trkpt><trkpt lat="46.215862" lon="11.8144139"><ele>1044.0</ele><time>2026-04-26T13:45:26.448Z</time></trkpt><trkpt lat="46.2157841" lon="11.8145074"><ele>1044.0</ele><time>2026-04-26T13:45:27.443Z</time></trkpt><trkpt lat="46.2156943" lon="11.8145798"><ele>1039.0</ele><time>2026-04-26T13:45:28.463Z</time></trkpt><trkpt lat="46.2155982" lon="11.8146362"><ele>1034.0</ele><time>2026-04-26T13:45:29.468Z</time></trkpt><trkpt lat="46.2154902" lon="11.8146365"><ele>1029.0</ele><time>2026-04-26T13:45:30.467Z</time></trkpt><trkpt lat="46.2153861" lon="11.8146473"><ele>1024.0</ele><time>2026-04-26T13:45:31.454Z</time></trkpt><trkpt lat="46.2152908" lon="11.8146761"><ele>1019.0</ele><time>2026-04-26T13:45:32.446Z</time></trkpt><trkpt lat="46.2152064" lon="11.8147201"><ele>1019.0000000000001</ele><time>2026-04-26T13:45:33.46Z</time></trkpt><trkpt lat="46.2151223" lon="11.8147703"><ele>1019.0</ele><time>2026-04-26T13:45:34.455Z</time></trkpt><trkpt lat="46.2150361" lon="11.8147997"><ele>1019.0</ele><time>2026-04-26T13:45:35.457Z</time></trkpt><trkpt lat="46.2149506" lon="11.8148025"><ele>1019.0</ele><time>2026-04-26T13:45:36.455Z</time></trkpt><trkpt lat="46.2148675" lon="11.8147911"><ele>1019.0000000000001</ele><time>2026-04-26T13:45:37.473Z</time></trkpt><trkpt lat="46.2147768" lon="11.8148011"><ele>1019.0</ele><time>2026-04-26T13:45:38.456Z</time></trkpt><trkpt lat="46.2146835" lon="11.8148115"><ele>1021.0</ele><time>2026-04-26T13:45:39.457Z</time></trkpt><trkpt lat="46.2145892" lon="11.8148365"><ele>1023.0000000000001</ele><time>2026-04-26T13:45:40.459Z</time></trkpt><trkpt lat="46.2144967" lon="11.8148772"><ele>1025.0</ele><time>2026-04-26T13:45:41.464Z</time></trkpt><trkpt lat="46.2144092" lon="11.8149219"><ele>1027.0</ele><time>2026-04-26T13:45:42.461Z</time></trkpt><trkpt lat="46.2143316" lon="11.815"><ele>1029.0</ele><time>2026-04-26T13:45:43.465Z</time></trkpt><trkpt lat="46.2142497" lon="11.8150853"><ele>1029.0</ele><time>2026-04-26T13:45:44.46Z</time></trkpt><trkpt lat="46.2141499" lon="11.8151476"><ele>1029.0</ele><time>2026-04-26T13:45:45.461Z</time></trkpt><trkpt lat="46.2140369" lon="11.8151943"><ele>1029.0</ele><time>2026-04-26T13:45:46.449Z</time></trkpt><trkpt lat="46.2139165" lon="11.8152249"><ele>1029.0</ele><time>2026-04-26T13:45:47.454Z</time></trkpt><trkpt lat="46.2137943" lon="11.8152568"><ele>1021.25</ele><time>2026-04-26T13:45:48.467Z</time></trkpt><trkpt lat="46.2136723" lon="11.8152919"><ele>1013.5</ele><time>2026-04-26T13:45:49.469Z</time></trkpt><trkpt lat="46.2135552" lon="11.8153294"><ele>1005.75</ele><time>2026-04-26T13:45:50.469Z</time></trkpt><trkpt lat="46.2134428" lon="11.8153851"><ele>998.0</ele><time>2026-04-26T13:45:51.45Z</time></trkpt><trkpt lat="46.2133421" lon="11.8154714"><ele>998.0</ele><time>2026-04-26T13:45:52.469Z</time></trkpt><trkpt lat="46.2132551" lon="11.8155613"><ele>998.0</ele><time>2026-04-26T13:45:53.46Z</time></trkpt><trkpt lat="46.2131793" lon="11.8156476"><ele>998.0</ele><time>2026-04-26T13:45:54.448Z</time></trkpt><trkpt lat="46.2130925" lon="11.815705"><ele>998.0</ele><time>2026-04-26T13:45:55.457Z</time></trkpt><trkpt lat="46.2129966" lon="11.8157431"><ele>998.0</ele><time>2026-04-26T13:45:56.443Z</time></trkpt><trkpt lat="46.2128889" lon="11.8157677"><ele>1001.0</ele><time>2026-04-26T13:45:57.459Z</time></trkpt><trkpt lat="46.2127727" lon="11.8158074"><ele>1004.0</ele><time>2026-04-26T13:45:58.452Z</time></trkpt><trkpt lat="46.2126532" lon="11.8158584"><ele>1007.0</ele><time>2026-04-26T13:45:59.449Z</time></trkpt><trkpt lat="46.2125339" lon="11.815916"><ele>1010.0</ele><time>2026-04-26T13:46:00.47Z</time></trkpt><trkpt lat="46.2124173" lon="11.8159683"><ele>1004.6</ele><time>2026-04-26T13:46:01.46Z</time></trkpt><trkpt lat="46.21231" lon="11.8160141"><ele>999.2</ele><time>2026-04-26T13:46:02.445Z</time></trkpt><trkpt lat="46.2122157" lon="11.8160613"><ele>993.8</ele><time>2026-04-26T13:46:03.465Z</time></trkpt><trkpt lat="46.2121274" lon="11.8161006"><ele>988.4</ele><time>2026-04-26T13:46:04.455Z</time></trkpt><trkpt lat="46.2120382" lon="11.8161448"><ele>983.0</ele><time>2026-04-26T13:46:05.468Z</time></trkpt><trkpt lat="46.2119372" lon="11.8161783"><ele>983.0</ele><time>2026-04-26T13:46:06.472Z</time></trkpt><trkpt lat="46.2118266" lon="11.8162139"><ele>983.0</ele><time>2026-04-26T13:46:07.488Z</time></trkpt><trkpt lat="46.211711" lon="11.8162749"><ele>983.0</ele><time>2026-04-26T13:46:08.445Z</time></trkpt><trkpt lat="46.2115935" lon="11.8163435"><ele>983.0</ele><time>2026-04-26T13:46:09.459Z</time></trkpt><trkpt lat="46.2114746" lon="11.8164217"><ele>985.5</ele><time>2026-04-26T13:46:10.45Z</time></trkpt><trkpt lat="46.2113541" lon="11.8165096"><ele>988.0</ele><time>2026-04-26T13:46:11.459Z</time></trkpt><trkpt lat="46.2112316" lon="11.816604"><ele>990.5</ele><time>2026-04-26T13:46:12.463Z</time></trkpt><trkpt lat="46.2111043" lon="11.8167078"><ele>993.0</ele><time>2026-04-26T13:46:13.468Z</time></trkpt><trkpt lat="46.2110053" lon="11.8168494"><ele>987.75</ele><time>2026-04-26T13:46:14.445Z</time></trkpt><trkpt lat="46.2109139" lon="11.8169829"><ele>982.5</ele><time>2026-04-26T13:46:15.456Z</time></trkpt><trkpt lat="46.2108311" lon="11.8171118"><ele>977.25</ele><time>2026-04-26T13:46:16.446Z</time></trkpt><trkpt lat="46.2107454" lon="11.8172304"><ele>972.0</ele><time>2026-04-26T13:46:17.457Z</time></trkpt><trkpt lat="46.2106459" lon="11.8173255"><ele>972.0</ele><time>2026-04-26T13:46:18.452Z</time></trkpt><trkpt lat="46.2105315" lon="11.8173892"><ele>972.0</ele><time>2026-04-26T13:46:19.46Z</time></trkpt><trkpt lat="46.2104103" lon="11.8174117"><ele>972.0</ele><time>2026-04-26T13:46:20.445Z</time></trkpt><trkpt lat="46.2102902" lon="11.8173971"><ele>972.0</ele><time>2026-04-26T13:46:21.467Z</time></trkpt><trkpt lat="46.2101783" lon="11.8173453"><ele>972.0</ele><time>2026-04-26T13:46:22.443Z</time></trkpt><trkpt lat="46.2100818" lon="11.8172783"><ele>972.0</ele><time>2026-04-26T13:46:23.468Z</time></trkpt><trkpt lat="46.2099977" lon="11.817198"><ele>972.0</ele><time>2026-04-26T13:46:24.458Z</time></trkpt><trkpt lat="46.2099191" lon="11.817143"><ele>972.0</ele><time>2026-04-26T13:46:25.462Z</time></trkpt><trkpt lat="46.209823" lon="11.8171252"><ele>972.0</ele><time>2026-04-26T13:46:26.462Z</time></trkpt><trkpt lat="46.20971" lon="11.8171207"><ele>973.5</ele><time>2026-04-26T13:46:27.458Z</time></trkpt><trkpt lat="46.2095954" lon="11.8171989"><ele>975.0</ele><time>2026-04-26T13:46:28.445Z</time></trkpt><trkpt lat="46.2094917" lon="11.8172978"><ele>976.5</ele><time>2026-04-26T13:46:29.459Z</time></trkpt><trkpt lat="46.2093835" lon="11.8173589"><ele>978.0</ele><time>2026-04-26T13:46:30.46Z</time></trkpt><trkpt lat="46.2092698" lon="11.8174024"><ele>978.0</ele><time>2026-04-26T13:46:31.45Z</time></trkpt><trkpt lat="46.2091473" lon="11.8174112"><ele>978.0</ele><time>2026-04-26T13:46:32.464Z</time></trkpt><trkpt lat="46.2090296" lon="11.8174182"><ele>978.0</ele><time>2026-04-26T13:46:33.451Z</time></trkpt><trkpt lat="46.2089168" lon="11.8174109"><ele>978.0</ele><time>2026-04-26T13:46:34.457Z</time></trkpt><trkpt lat="46.2088041" lon="11.8173838"><ele>974.75</ele><time>2026-04-26T13:46:35.465Z</time></trkpt><trkpt lat="46.2086913" lon="11.8173301"><ele>971.5</ele><time>2026-04-26T13:46:36.452Z</time></trkpt><trkpt lat="46.2085708" lon="11.8172786"><ele>968.25</ele><time>2026-04-26T13:46:37.459Z</time></trkpt><trkpt lat="46.2084395" lon="11.8172357"><ele>965.0</ele><time>2026-04-26T13:46:38.459Z</time></trkpt><trkpt lat="46.208303" lon="11.8172097"><ele>965.0</ele><time>2026-04-26T13:46:39.458Z</time></trkpt><trkpt lat="46.2081659" lon="11.8171969"><ele>965.0</ele><time>2026-04-26T13:46:40.45Z</time></trkpt><trkpt lat="46.2080301" lon="11.817178"><ele>965.0</ele><time>2026-04-26T13:46:41.454Z</time></trkpt><trkpt lat="46.2078942" lon="11.8171747"><ele>965.0</ele><time>2026-04-26T13:46:42.447Z</time></trkpt><trkpt lat="46.2077587" lon="11.8171842"><ele>965.0</ele><time>2026-04-26T13:46:43.462Z</time></trkpt><trkpt lat="46.2076234" lon="11.8172194"><ele>965.0</ele><time>2026-04-26T13:46:44.452Z</time></trkpt><trkpt lat="46.2074917" lon="11.8172665"><ele>965.0</ele><time>2026-04-26T13:46:45.464Z</time></trkpt><trkpt lat="46.2073661" lon="11.8173161"><ele>965.0</ele><time>2026-04-26T13:46:46.449Z</time></trkpt><trkpt lat="46.2072486" lon="11.8173691"><ele>965.0</ele><time>2026-04-26T13:46:47.449Z</time></trkpt><trkpt lat="46.2071336" lon="11.8174066"><ele>965.0</ele><time>2026-04-26T13:46:48.47Z</time></trkpt><trkpt lat="46.2070226" lon="11.8174191"><ele>965.0</ele><time>2026-04-26T13:46:49.458Z</time></trkpt><trkpt lat="46.2069249" lon="11.8173465"><ele>965.0</ele><time>2026-04-26T13:46:50.445Z</time></trkpt><trkpt lat="46.2068678" lon="11.8172126"><ele>965.0</ele><time>2026-04-26T13:46:51.447Z</time></trkpt><trkpt lat="46.2068304" lon="11.8170813"><ele>965.0000000000001</ele><time>2026-04-26T13:46:52.449Z</time></trkpt><trkpt lat="46.2067897" lon="11.8169678"><ele>965.0</ele><time>2026-04-26T13:46:53.44Z</time></trkpt><trkpt lat="46.2067356" lon="11.8168693"><ele>965.0</ele><time>2026-04-26T13:46:54.446Z</time></trkpt><trkpt lat="46.2066611" lon="11.8168125"><ele>965.0</ele><time>2026-04-26T13:46:55.451Z</time></trkpt><trkpt lat="46.2065769" lon="11.8167928"><ele>965.0000000000001</ele><time>2026-04-26T13:46:56.444Z</time></trkpt><trkpt lat="46.2064895" lon="11.8168002"><ele>965.0</ele><time>2026-04-26T13:46:57.477Z</time></trkpt><trkpt lat="46.206411" lon="11.8168429"><ele>970.2</ele><time>2026-04-26T13:46:58.443Z</time></trkpt><trkpt lat="46.2063477" lon="11.8169502"><ele>975.4</ele><time>2026-04-26T13:46:59.453Z</time></trkpt><trkpt lat="46.2063068" lon="11.8170994"><ele>980.5999999999999</ele><time>2026-04-26T13:47:00.455Z</time></trkpt><trkpt lat="46.2063021" lon="11.8172625"><ele>985.8</ele><time>2026-04-26T13:47:01.46Z</time></trkpt><trkpt lat="46.2063105" lon="11.8174189"><ele>991.0</ele><time>2026-04-26T13:47:02.451Z</time></trkpt><trkpt lat="46.2063084" lon="11.8175719"><ele>983.5999999999999</ele><time>2026-04-26T13:47:03.459Z</time></trkpt><trkpt lat="46.2062734" lon="11.8177291"><ele>976.1999999999999</ele><time>2026-04-26T13:47:04.473Z</time></trkpt><trkpt lat="46.2062172" lon="11.8178708"><ele>968.8000000000001</ele><time>2026-04-26T13:47:05.443Z</time></trkpt><trkpt lat="46.2061586" lon="11.81801"><ele>961.4000000000001</ele><time>2026-04-26T13:47:06.467Z</time></trkpt><trkpt lat="46.2061009" lon="11.8181384"><ele>954.0</ele><time>2026-04-26T13:47:07.452Z</time></trkpt><trkpt lat="46.206027" lon="11.8182403"><ele>954.0</ele><time>2026-04-26T13:47:08.451Z</time></trkpt><trkpt lat="46.20593" lon="11.818297"><ele>954.0</ele><time>2026-04-26T13:47:09.451Z</time></trkpt><trkpt lat="46.2058108" lon="11.8183178"><ele>954.0</ele><time>2026-04-26T13:47:10.468Z</time></trkpt><trkpt lat="46.205692" lon="11.8183462"><ele>954.0</ele><time>2026-04-26T13:47:11.461Z</time></trkpt><trkpt lat="46.2055735" lon="11.8183727"><ele>956.0</ele><time>2026-04-26T13:47:12.456Z</time></trkpt><trkpt lat="46.2054586" lon="11.8184108"><ele>958.0000000000001</ele><time>2026-04-26T13:47:13.466Z</time></trkpt><trkpt lat="46.2053459" lon="11.8184571"><ele>960.0000000000001</ele><time>2026-04-26T13:47:14.472Z</time></trkpt><trkpt lat="46.2052452" lon="11.8185249"><ele>962.0</ele><time>2026-04-26T13:47:15.474Z</time></trkpt><trkpt lat="46.2051682" lon="11.8186216"><ele>964.0</ele><time>2026-04-26T13:47:16.478Z</time></trkpt><trkpt lat="46.2051183" lon="11.818696"><ele>958.9999999999999</ele><time>2026-04-26T13:47:17.474Z</time></trkpt><trkpt lat="46.2050802" lon="11.8187764"><ele>954.0</ele><time>2026-04-26T13:47:19.442Z</time></trkpt><trkpt lat="46.205073" lon="11.818878"><ele>949.0</ele><time>2026-04-26T13:47:23.448Z</time></trkpt><trkpt lat="46.20505" lon="11.8189627"><ele>944.0</ele><time>2026-04-26T13:47:25.463Z</time></trkpt><trkpt lat="46.2049753" lon="11.8190213"><ele>938.9999999999999</ele><time>2026-04-26T13:47:27.447Z</time></trkpt><trkpt lat="46.2048677" lon="11.8189719"><ele>934.0</ele><time>2026-04-26T13:47:29.466Z</time></trkpt><trkpt lat="46.2047998" lon="11.8189025"><ele>933.9999999999999</ele><time>2026-04-26T13:47:30.477Z</time></trkpt><trkpt lat="46.2047319" lon="11.8188284"><ele>934.0</ele><time>2026-04-26T13:47:31.467Z</time></trkpt><trkpt lat="46.2046651" lon="11.8187514"><ele>934.0</ele><time>2026-04-26T13:47:32.465Z</time></trkpt><trkpt lat="46.204598" lon="11.8186776"><ele>934.0</ele><time>2026-04-26T13:47:33.465Z</time></trkpt><trkpt lat="46.2045372" lon="11.818611"><ele>933.9999999999999</ele><time>2026-04-26T13:47:34.461Z</time></trkpt><trkpt lat="46.2044794" lon="11.8185675"><ele>934.0</ele><time>2026-04-26T13:47:35.46Z</time></trkpt><trkpt lat="46.2044144" lon="11.8185564"><ele>933.9999999999999</ele><time>2026-04-26T13:47:36.471Z</time></trkpt><trkpt lat="46.204347" lon="11.8186006"><ele>934.0</ele><time>2026-04-26T13:47:37.449Z</time></trkpt><trkpt lat="46.2042885" lon="11.8186794"><ele>934.0</ele><time>2026-04-26T13:47:38.458Z</time></trkpt><trkpt lat="46.2042326" lon="11.8187705"><ele>934.0</ele><time>2026-04-26T13:47:39.45Z</time></trkpt><trkpt lat="46.2041755" lon="11.8188707"><ele>933.9999999999999</ele><time>2026-04-26T13:47:40.457Z</time></trkpt><trkpt lat="46.2041209" lon="11.8189753"><ele>934.0</ele><time>2026-04-26T13:47:41.467Z</time></trkpt><trkpt lat="46.204071" lon="11.8191033"><ele>934.0</ele><time>2026-04-26T13:47:42.461Z</time></trkpt><trkpt lat="46.2040497" lon="11.8192623"><ele>934.0000000000001</ele><time>2026-04-26T13:47:43.455Z</time></trkpt><trkpt lat="46.2040241" lon="11.8194183"><ele>934.0000000000001</ele><time>2026-04-26T13:47:44.46Z</time></trkpt><trkpt lat="46.203986" lon="11.8195476"><ele>934.0</ele><time>2026-04-26T13:47:45.454Z</time></trkpt><trkpt lat="46.2039348" lon="11.8196494"><ele>934.0</ele><time>2026-04-26T13:47:46.466Z</time></trkpt><trkpt lat="46.2038608" lon="11.819722"><ele>931.25</ele><time>2026-04-26T13:47:47.464Z</time></trkpt><trkpt lat="46.2037594" lon="11.8197709"><ele>928.5</ele><time>2026-04-26T13:47:48.462Z</time></trkpt><trkpt lat="46.2036359" lon="11.8198152"><ele>925.75</ele><time>2026-04-26T13:47:49.454Z</time></trkpt><trkpt lat="46.2034875" lon="11.819869"><ele>923.0</ele><time>2026-04-26T13:47:50.463Z</time></trkpt><trkpt lat="46.2033193" lon="11.81994"><ele>924.0</ele><time>2026-04-26T13:47:51.488Z</time></trkpt><trkpt lat="46.2031325" lon="11.8200035"><ele>925.0</ele><time>2026-04-26T13:47:52.461Z</time></trkpt><trkpt lat="46.2029558" lon="11.8200472"><ele>926.0</ele><time>2026-04-26T13:47:53.465Z</time></trkpt><trkpt lat="46.2027902" lon="11.8200699"><ele>926.0</ele><time>2026-04-26T13:47:54.47Z</time></trkpt><trkpt lat="46.2026331" lon="11.8200845"><ele>926.0</ele><time>2026-04-26T13:47:55.461Z</time></trkpt><trkpt lat="46.2024892" lon="11.8200967"><ele>926.0</ele><time>2026-04-26T13:47:56.485Z</time></trkpt><trkpt lat="46.2023633" lon="11.8201174"><ele>926.0</ele><time>2026-04-26T13:47:57.471Z</time></trkpt><trkpt lat="46.2022544" lon="11.8201349"><ele>920.4</ele><time>2026-04-26T13:47:58.458Z</time></trkpt><trkpt lat="46.2021573" lon="11.8201619"><ele>914.8</ele><time>2026-04-26T13:47:59.467Z</time></trkpt><trkpt lat="46.2020739" lon="11.8202239"><ele>909.1999999999999</ele><time>2026-04-26T13:48:00.454Z</time></trkpt><trkpt lat="46.2019931" lon="11.8202822"><ele>903.5999999999999</ele><time>2026-04-26T13:48:01.465Z</time></trkpt><trkpt lat="46.2019159" lon="11.8203446"><ele>898.0</ele><time>2026-04-26T13:48:02.471Z</time></trkpt><trkpt lat="46.201839" lon="11.8203988"><ele>897.9999999999999</ele><time>2026-04-26T13:48:03.457Z</time></trkpt><trkpt lat="46.2017606" lon="11.8204325"><ele>898.0</ele><time>2026-04-26T13:48:04.451Z</time></trkpt><trkpt lat="46.201684" lon="11.8204587"><ele>898.0</ele><time>2026-04-26T13:48:05.459Z</time></trkpt><trkpt lat="46.2016041" lon="11.8204855"><ele>898.0</ele><time>2026-04-26T13:48:06.452Z</time></trkpt><trkpt lat="46.2015209" lon="11.8204905"><ele>897.9999999999999</ele><time>2026-04-26T13:48:07.465Z</time></trkpt><trkpt lat="46.2014472" lon="11.8204932"><ele>898.0</ele><time>2026-04-26T13:48:08.455Z</time></trkpt><trkpt lat="46.2013758" lon="11.8204778"><ele>896.8333333333333</ele><time>2026-04-26T13:48:09.466Z</time></trkpt><trkpt lat="46.2013089" lon="11.820431"><ele>895.6666666666666</ele><time>2026-04-26T13:48:10.463Z</time></trkpt><trkpt lat="46.2012355" lon="11.8203862"><ele>894.5</ele><time>2026-04-26T13:48:11.465Z</time></trkpt><trkpt lat="46.2011572" lon="11.8203351"><ele>893.3333333333333</ele><time>2026-04-26T13:48:12.446Z</time></trkpt><trkpt lat="46.2010649" lon="11.8203123"><ele>892.1666666666666</ele><time>2026-04-26T13:48:13.452Z</time></trkpt><trkpt lat="46.2009605" lon="11.8203179"><ele>891.0</ele><time>2026-04-26T13:48:14.449Z</time></trkpt><trkpt lat="46.2008517" lon="11.8203366"><ele>891.0</ele><time>2026-04-26T13:48:15.454Z</time></trkpt><trkpt lat="46.2007437" lon="11.8203652"><ele>890.9999999999999</ele><time>2026-04-26T13:48:16.454Z</time></trkpt><trkpt lat="46.2006375" lon="11.8203665"><ele>890.9999999999999</ele><time>2026-04-26T13:48:17.462Z</time></trkpt><trkpt lat="46.2005328" lon="11.8203574"><ele>891.0</ele><time>2026-04-26T13:48:18.458Z</time></trkpt><trkpt lat="46.2004241" lon="11.8203675"><ele>891.0</ele><time>2026-04-26T13:48:19.469Z</time></trkpt><trkpt lat="46.2003169" lon="11.8203975"><ele>892.25</ele><time>2026-04-26T13:48:20.466Z</time></trkpt><trkpt lat="46.2002123" lon="11.8204614"><ele>893.5</ele><time>2026-04-26T13:48:21.457Z</time></trkpt><trkpt lat="46.2001051" lon="11.820537"><ele>894.75</ele><time>2026-04-26T13:48:22.461Z</time></trkpt><trkpt lat="46.199984" lon="11.8205919"><ele>896.0</ele><time>2026-04-26T13:48:23.461Z</time></trkpt><trkpt lat="46.1998516" lon="11.8206426"><ele>895.5</ele><time>2026-04-26T13:48:24.454Z</time></trkpt><trkpt lat="46.1997158" lon="11.8206959"><ele>895.0</ele><time>2026-04-26T13:48:25.45Z</time></trkpt><trkpt lat="46.1995812" lon="11.8207466"><ele>894.5</ele><time>2026-04-26T13:48:26.454Z</time></trkpt><trkpt lat="46.1994488" lon="11.8208051"><ele>894.0</ele><time>2026-04-26T13:48:27.472Z</time></trkpt><trkpt lat="46.1993153" lon="11.8208566"><ele>894.0</ele><time>2026-04-26T13:48:28.452Z</time></trkpt><trkpt lat="46.1991816" lon="11.8209051"><ele>894.0</ele><time>2026-04-26T13:48:29.477Z</time></trkpt><trkpt lat="46.1990481" lon="11.8209533"><ele>894.0</ele><time>2026-04-26T13:48:30.455Z</time></trkpt><trkpt lat="46.1989153" lon="11.8210004"><ele>894.0</ele><time>2026-04-26T13:48:31.466Z</time></trkpt><trkpt lat="46.1987815" lon="11.8210371"><ele>888.5</ele><time>2026-04-26T13:48:32.45Z</time></trkpt><trkpt lat="46.198657" lon="11.8210968"><ele>883.0</ele><time>2026-04-26T13:48:33.456Z</time></trkpt><trkpt lat="46.1985458" lon="11.8211671"><ele>877.5</ele><time>2026-04-26T13:48:34.46Z</time></trkpt><trkpt lat="46.19844" lon="11.8212246"><ele>872.0</ele><time>2026-04-26T13:48:35.479Z</time></trkpt><trkpt lat="46.198335" lon="11.8212774"><ele>872.0</ele><time>2026-04-26T13:48:36.461Z</time></trkpt><trkpt lat="46.1982161" lon="11.8212689"><ele>872.0</ele><time>2026-04-26T13:48:37.456Z</time></trkpt><trkpt lat="46.1980963" lon="11.8212351"><ele>872.0</ele><time>2026-04-26T13:48:38.468Z</time></trkpt><trkpt lat="46.1979789" lon="11.8211888"><ele>872.0</ele><time>2026-04-26T13:48:39.456Z</time></trkpt><trkpt lat="46.1978593" lon="11.8211324"><ele>871.0</ele><time>2026-04-26T13:48:40.454Z</time></trkpt><trkpt lat="46.1977386" lon="11.8211175"><ele>870.0</ele><time>2026-04-26T13:48:41.462Z</time></trkpt><trkpt lat="46.1976214" lon="11.8210856"><ele>869.0</ele><time>2026-04-26T13:48:42.458Z</time></trkpt><trkpt lat="46.1975059" lon="11.8210621"><ele>868.0</ele><time>2026-04-26T13:48:43.463Z</time></trkpt><trkpt lat="46.1973987" lon="11.8210347"><ele>869.3333333333333</ele><time>2026-04-26T13:48:44.449Z</time></trkpt><trkpt lat="46.1972996" lon="11.8210208"><ele>870.6666666666666</ele><time>2026-04-26T13:48:45.458Z</time></trkpt><trkpt lat="46.1972158" lon="11.82098"><ele>872.0</ele><time>2026-04-26T13:48:46.471Z</time></trkpt><trkpt lat="46.1971299" lon="11.8209711"><ele>873.3333333333333</ele><time>2026-04-26T13:48:47.47Z</time></trkpt><trkpt lat="46.1970483" lon="11.8209357"><ele>874.6666666666666</ele><time>2026-04-26T13:48:48.457Z</time></trkpt><trkpt lat="46.1969654" lon="11.82094"><ele>876.0</ele><time>2026-04-26T13:48:49.457Z</time></trkpt><trkpt lat="46.1968879" lon="11.8209757"><ele>876.0</ele><time>2026-04-26T13:48:50.455Z</time></trkpt><trkpt lat="46.1968201" lon="11.8210346"><ele>876.0</ele><time>2026-04-26T13:48:51.47Z</time></trkpt><trkpt lat="46.1967685" lon="11.8211305"><ele>876.0</ele><time>2026-04-26T13:48:52.46Z</time></trkpt><trkpt lat="46.1967319" lon="11.8212281"><ele>876.0</ele><time>2026-04-26T13:48:53.481Z</time></trkpt><trkpt lat="46.1967231" lon="11.8213448"><ele>876.0</ele><time>2026-04-26T13:48:54.463Z</time></trkpt><trkpt lat="46.1967236" lon="11.8214636"><ele>876.0</ele><time>2026-04-26T13:48:55.471Z</time></trkpt><trkpt lat="46.1967182" lon="11.8215873"><ele>876.0</ele><time>2026-04-26T13:48:56.457Z</time></trkpt><trkpt lat="46.1967049" lon="11.8217195"><ele>875.9999999999999</ele><time>2026-04-26T13:48:57.468Z</time></trkpt><trkpt lat="46.1966668" lon="11.8218496"><ele>875.9999999999999</ele><time>2026-04-26T13:48:58.453Z</time></trkpt><trkpt lat="46.1966245" lon="11.8219744"><ele>876.0</ele><time>2026-04-26T13:48:59.47Z</time></trkpt><trkpt lat="46.196553" lon="11.8220957"><ele>876.0</ele><time>2026-04-26T13:49:00.447Z</time></trkpt><trkpt lat="46.196446" lon="11.8222003"><ele>874.75</ele><time>2026-04-26T13:49:01.452Z</time></trkpt><trkpt lat="46.1963567" lon="11.8223147"><ele>873.5</ele><time>2026-04-26T13:49:02.46Z</time></trkpt><trkpt lat="46.1962715" lon="11.8224315"><ele>872.25</ele><time>2026-04-26T13:49:03.444Z</time></trkpt><trkpt lat="46.1961805" lon="11.8225357"><ele>871.0</ele><time>2026-04-26T13:49:04.454Z</time></trkpt><trkpt lat="46.1960896" lon="11.8226355"><ele>863.0</ele><time>2026-04-26T13:49:05.458Z</time></trkpt><trkpt lat="46.1959989" lon="11.8227372"><ele>855.0</ele><time>2026-04-26T13:49:06.463Z</time></trkpt><trkpt lat="46.1959035" lon="11.8228326"><ele>847.0</ele><time>2026-04-26T13:49:07.462Z</time></trkpt><trkpt lat="46.1958035" lon="11.8229195"><ele>839.0</ele><time>2026-04-26T13:49:08.447Z</time></trkpt><trkpt lat="46.1956942" lon="11.8229956"><ele>842.0</ele><time>2026-04-26T13:49:09.448Z</time></trkpt><trkpt lat="46.1955694" lon="11.8230388"><ele>845.0</ele><time>2026-04-26T13:49:10.451Z</time></trkpt><trkpt lat="46.195449" lon="11.8230841"><ele>848.0</ele><time>2026-04-26T13:49:11.453Z</time></trkpt><trkpt lat="46.1953341" lon="11.8231331"><ele>851.0</ele><time>2026-04-26T13:49:12.456Z</time></trkpt><trkpt lat="46.195224" lon="11.8231963"><ele>851.0</ele><time>2026-04-26T13:49:13.467Z</time></trkpt><trkpt lat="46.1951187" lon="11.8232707"><ele>851.0</ele><time>2026-04-26T13:49:14.46Z</time></trkpt><trkpt lat="46.1950132" lon="11.823348"><ele>851.0</ele><time>2026-04-26T13:49:15.449Z</time></trkpt><trkpt lat="46.1949068" lon="11.8234138"><ele>851.0</ele><time>2026-04-26T13:49:16.458Z</time></trkpt><trkpt lat="46.194805" lon="11.8234747"><ele>850.1999999999999</ele><time>2026-04-26T13:49:17.447Z</time></trkpt><trkpt lat="46.1947073" lon="11.8235223"><ele>849.4</ele><time>2026-04-26T13:49:18.464Z</time></trkpt><trkpt lat="46.1946105" lon="11.823549"><ele>848.6</ele><time>2026-04-26T13:49:19.459Z</time></trkpt><trkpt lat="46.1945173" lon="11.8235718"><ele>847.8</ele><time>2026-04-26T13:49:20.459Z</time></trkpt><trkpt lat="46.1944315" lon="11.8235388"><ele>847.0</ele><time>2026-04-26T13:49:21.454Z</time></trkpt><trkpt lat="46.1943797" lon="11.8234312"><ele>847.0</ele><time>2026-04-26T13:49:22.46Z</time></trkpt><trkpt lat="46.194338" lon="11.8233208"><ele>847.0</ele><time>2026-04-26T13:49:23.483Z</time></trkpt><trkpt lat="46.1942969" lon="11.8232114"><ele>847.0</ele><time>2026-04-26T13:49:24.447Z</time></trkpt><trkpt lat="46.1942611" lon="11.8230828"><ele>847.0</ele><time>2026-04-26T13:49:25.453Z</time></trkpt><trkpt lat="46.1942185" lon="11.8229604"><ele>847.0</ele><time>2026-04-26T13:49:26.456Z</time></trkpt><trkpt lat="46.1941765" lon="11.8228409"><ele>847.0</ele><time>2026-04-26T13:49:27.446Z</time></trkpt><trkpt lat="46.1941309" lon="11.8227267"><ele>847.0</ele><time>2026-04-26T13:49:28.448Z</time></trkpt><trkpt lat="46.1940767" lon="11.8226157"><ele>847.0</ele><time>2026-04-26T13:49:29.46Z</time></trkpt><trkpt lat="46.1940105" lon="11.822514"><ele>847.0</ele><time>2026-04-26T13:49:30.453Z</time></trkpt><trkpt lat="46.1939251" lon="11.8224328"><ele>847.0</ele><time>2026-04-26T13:49:31.45Z</time></trkpt><trkpt lat="46.1938215" lon="11.8223991"><ele>845.75</ele><time>2026-04-26T13:49:32.454Z</time></trkpt><trkpt lat="46.1937121" lon="11.8224037"><ele>844.5</ele><time>2026-04-26T13:49:33.453Z</time></trkpt><trkpt lat="46.193611" lon="11.8224573"><ele>843.25</ele><time>2026-04-26T13:49:34.452Z</time></trkpt><trkpt lat="46.1935263" lon="11.822562"><ele>842.0</ele><time>2026-04-26T13:49:35.453Z</time></trkpt><trkpt lat="46.1934733" lon="11.8227203"><ele>842.0</ele><time>2026-04-26T13:49:36.45Z</time></trkpt><trkpt lat="46.1934515" lon="11.8228904"><ele>842.0</ele><time>2026-04-26T13:49:37.448Z</time></trkpt><trkpt lat="46.1934421" lon="11.8230633"><ele>842.0</ele><time>2026-04-26T13:49:38.446Z</time></trkpt><trkpt lat="46.1934352" lon="11.8232415"><ele>842.0</ele><time>2026-04-26T13:49:39.467Z</time></trkpt><trkpt lat="46.1934393" lon="11.8234126"><ele>839.2</ele><time>2026-04-26T13:49:40.455Z</time></trkpt><trkpt lat="46.1934451" lon="11.8235761"><ele>836.4000000000001</ele><time>2026-04-26T13:49:41.456Z</time></trkpt><trkpt lat="46.1934441" lon="11.8237267"><ele>833.5999999999999</ele><time>2026-04-26T13:49:42.445Z</time></trkpt><trkpt lat="46.1934437" lon="11.8238666"><ele>830.8</ele><time>2026-04-26T13:49:43.45Z</time></trkpt><trkpt lat="46.1934104" lon="11.8239924"><ele>828.0</ele><time>2026-04-26T13:49:44.447Z</time></trkpt><trkpt lat="46.1933414" lon="11.8240893"><ele>828.0</ele><time>2026-04-26T13:49:45.456Z</time></trkpt><trkpt lat="46.1932627" lon="11.8241832"><ele>828.0</ele><time>2026-04-26T13:49:46.454Z</time></trkpt><trkpt lat="46.193177" lon="11.8242644"><ele>828.0</ele><time>2026-04-26T13:49:47.462Z</time></trkpt><trkpt lat="46.1930882" lon="11.8243586"><ele>828.0</ele><time>2026-04-26T13:49:48.474Z</time></trkpt><trkpt lat="46.1929937" lon="11.8244533"><ele>828.0</ele><time>2026-04-26T13:49:49.456Z</time></trkpt><trkpt lat="46.1928885" lon="11.8245348"><ele>825.25</ele><time>2026-04-26T13:49:50.448Z</time></trkpt><trkpt lat="46.1927774" lon="11.8246215"><ele>822.5</ele><time>2026-04-26T13:49:51.452Z</time></trkpt><trkpt lat="46.1926519" lon="11.8246985"><ele>819.75</ele><time>2026-04-26T13:49:52.453Z</time></trkpt><trkpt lat="46.1925151" lon="11.8247647"><ele>817.0</ele><time>2026-04-26T13:49:53.466Z</time></trkpt><trkpt lat="46.1923752" lon="11.8248153"><ele>817.5</ele><time>2026-04-26T13:49:54.462Z</time></trkpt><trkpt lat="46.1922378" lon="11.8248601"><ele>818.0</ele><time>2026-04-26T13:49:55.465Z</time></trkpt><trkpt lat="46.1921032" lon="11.8249071"><ele>818.5</ele><time>2026-04-26T13:49:56.45Z</time></trkpt><trkpt lat="46.191968" lon="11.8249518"><ele>819.0</ele><time>2026-04-26T13:49:57.459Z</time></trkpt><trkpt lat="46.1918303" lon="11.8249867"><ele>819.0</ele><time>2026-04-26T13:49:58.452Z</time></trkpt><trkpt lat="46.1916911" lon="11.8250139"><ele>819.0</ele><time>2026-04-26T13:49:59.448Z</time></trkpt><trkpt lat="46.1915504" lon="11.8250135"><ele>819.0</ele><time>2026-04-26T13:50:00.451Z</time></trkpt><trkpt lat="46.1914096" lon="11.8250083"><ele>819.0</ele><time>2026-04-26T13:50:01.456Z</time></trkpt><trkpt lat="46.1912705" lon="11.8250142"><ele>817.0</ele><time>2026-04-26T13:50:02.48Z</time></trkpt><trkpt lat="46.1911346" lon="11.8250121"><ele>815.0</ele><time>2026-04-26T13:50:03.474Z</time></trkpt><trkpt lat="46.191" lon="11.8249852"><ele>813.0</ele><time>2026-04-26T13:50:04.471Z</time></trkpt><trkpt lat="46.1908584" lon="11.8249287"><ele>811.0</ele><time>2026-04-26T13:50:05.45Z</time></trkpt><trkpt lat="46.1907106" lon="11.8248533"><ele>808.3333333333333</ele><time>2026-04-26T13:50:06.456Z</time></trkpt><trkpt lat="46.1905614" lon="11.8247619"><ele>805.6666666666667</ele><time>2026-04-26T13:50:07.465Z</time></trkpt><trkpt lat="46.190412" lon="11.8246828"><ele>803.0</ele><time>2026-04-26T13:50:08.461Z</time></trkpt><trkpt lat="46.1902681" lon="11.8246047"><ele>803.0</ele><time>2026-04-26T13:50:09.453Z</time></trkpt><trkpt lat="46.190126" lon="11.8245286"><ele>803.0</ele><time>2026-04-26T13:50:10.451Z</time></trkpt><trkpt lat="46.1899876" lon="11.8244629"><ele>803.0</ele><time>2026-04-26T13:50:11.468Z</time></trkpt><trkpt lat="46.1898529" lon="11.824396"><ele>803.0</ele><time>2026-04-26T13:50:12.454Z</time></trkpt><trkpt lat="46.1897279" lon="11.8243394"><ele>804.75</ele><time>2026-04-26T13:50:13.463Z</time></trkpt><trkpt lat="46.1896145" lon="11.8243142"><ele>806.5</ele><time>2026-04-26T13:50:14.461Z</time></trkpt><trkpt lat="46.1894989" lon="11.8243429"><ele>808.25</ele><time>2026-04-26T13:50:15.456Z</time></trkpt><trkpt lat="46.1893961" lon="11.8244247"><ele>810.0</ele><time>2026-04-26T13:50:16.467Z</time></trkpt><trkpt lat="46.1893274" lon="11.824549"><ele>810.0</ele><time>2026-04-26T13:50:17.468Z</time></trkpt><trkpt lat="46.1892762" lon="11.8246919"><ele>810.0</ele><time>2026-04-26T13:50:18.449Z</time></trkpt><trkpt lat="46.1892269" lon="11.8248336"><ele>810.0</ele><time>2026-04-26T13:50:19.463Z</time></trkpt><trkpt lat="46.1892199" lon="11.8249983"><ele>810.0</ele><time>2026-04-26T13:50:20.463Z</time></trkpt><trkpt lat="46.1892225" lon="11.8251546"><ele>810.0</ele><time>2026-04-26T13:50:21.446Z</time></trkpt><trkpt lat="46.1892315" lon="11.825298"><ele>810.8333333333334</ele><time>2026-04-26T13:50:22.456Z</time></trkpt><trkpt lat="46.1892224" lon="11.8254196"><ele>811.6666666666667</ele><time>2026-04-26T13:50:23.463Z</time></trkpt><trkpt lat="46.1892106" lon="11.8255248"><ele>812.5</ele><time>2026-04-26T13:50:24.445Z</time></trkpt><trkpt lat="46.1892033" lon="11.8256211"><ele>813.3333333333334</ele><time>2026-04-26T13:50:25.455Z</time></trkpt><trkpt lat="46.1891496" lon="11.8256893"><ele>814.1666666666667</ele><time>2026-04-26T13:50:26.447Z</time></trkpt><trkpt lat="46.1890667" lon="11.8257469"><ele>815.0</ele><time>2026-04-26T13:50:27.467Z</time></trkpt><trkpt lat="46.1889889" lon="11.8258287"><ele>815.0</ele><time>2026-04-26T13:50:28.452Z</time></trkpt><trkpt lat="46.1889129" lon="11.8259193"><ele>815.0</ele><time>2026-04-26T13:50:29.458Z</time></trkpt><trkpt lat="46.1888361" lon="11.8260105"><ele>815.0</ele><time>2026-04-26T13:50:30.456Z</time></trkpt><trkpt lat="46.1887596" lon="11.8260989"><ele>815.0</ele><time>2026-04-26T13:50:31.452Z</time></trkpt><trkpt lat="46.1886872" lon="11.826183"><ele>815.0</ele><time>2026-04-26T13:50:32.456Z</time></trkpt><trkpt lat="46.1886167" lon="11.8262631"><ele>810.0</ele><time>2026-04-26T13:50:33.455Z</time></trkpt><trkpt lat="46.1885522" lon="11.826339"><ele>805.0</ele><time>2026-04-26T13:50:34.452Z</time></trkpt><trkpt lat="46.188496" lon="11.8264007"><ele>800.0</ele><time>2026-04-26T13:50:35.468Z</time></trkpt><trkpt lat="46.1884513" lon="11.8264676"><ele>795.0</ele><time>2026-04-26T13:50:36.455Z</time></trkpt><trkpt lat="46.1884371" lon="11.8266308"><ele>790.0</ele><time>2026-04-26T13:50:38.45Z</time></trkpt><trkpt lat="46.1885515" lon="11.8266935"><ele>789.9999999999999</ele><time>2026-04-26T13:50:40.458Z</time></trkpt><trkpt lat="46.1886261" lon="11.8266422"><ele>790.0</ele><time>2026-04-26T13:50:41.455Z</time></trkpt><trkpt lat="46.188705" lon="11.8265761"><ele>790.0</ele><time>2026-04-26T13:50:42.469Z</time></trkpt><trkpt lat="46.1887898" lon="11.8265183"><ele>790.0</ele><time>2026-04-26T13:50:43.468Z</time></trkpt><trkpt lat="46.188869" lon="11.8264546"><ele>789.9999999999999</ele><time>2026-04-26T13:50:44.465Z</time></trkpt><trkpt lat="46.1889417" lon="11.826392"><ele>790.0</ele><time>2026-04-26T13:50:45.465Z</time></trkpt><trkpt lat="46.1890182" lon="11.826343"><ele>790.3333333333333</ele><time>2026-04-26T13:50:46.47Z</time></trkpt><trkpt lat="46.18909" lon="11.8262898"><ele>790.6666666666666</ele><time>2026-04-26T13:50:47.471Z</time></trkpt><trkpt lat="46.1891543" lon="11.8262316"><ele>791.0</ele><time>2026-04-26T13:50:48.451Z</time></trkpt><trkpt lat="46.1892155" lon="11.8261708"><ele>791.3333333333333</ele><time>2026-04-26T13:50:49.472Z</time></trkpt><trkpt lat="46.1892698" lon="11.8260955"><ele>791.6666666666666</ele><time>2026-04-26T13:50:50.462Z</time></trkpt><trkpt lat="46.1893148" lon="11.8260085"><ele>792.0</ele><time>2026-04-26T13:50:51.454Z</time></trkpt><trkpt lat="46.1893366" lon="11.8258976"><ele>792.0</ele><time>2026-04-26T13:50:52.456Z</time></trkpt><trkpt lat="46.1893597" lon="11.8257854"><ele>792.0</ele><time>2026-04-26T13:50:53.462Z</time></trkpt><trkpt lat="46.1894088" lon="11.8256898"><ele>792.0</ele><time>2026-04-26T13:50:54.454Z</time></trkpt><trkpt lat="46.1894403" lon="11.8255938"><ele>792.0</ele><time>2026-04-26T13:50:55.469Z</time></trkpt><trkpt lat="46.1895023" lon="11.8255359"><ele>792.0</ele><time>2026-04-26T13:50:56.458Z</time></trkpt><trkpt lat="46.1895893" lon="11.8255045"><ele>792.0</ele><time>2026-04-26T13:50:57.453Z</time></trkpt><trkpt lat="46.1896707" lon="11.8254686"><ele>792.0</ele><time>2026-04-26T13:50:58.457Z</time></trkpt><trkpt lat="46.1897583" lon="11.8254424"><ele>792.0</ele><time>2026-04-26T13:50:59.463Z</time></trkpt><trkpt lat="46.1898532" lon="11.8253986"><ele>792.0</ele><time>2026-04-26T13:51:00.458Z</time></trkpt><trkpt lat="46.1899537" lon="11.8253462"><ele>792.0</ele><time>2026-04-26T13:51:01.468Z</time></trkpt><trkpt lat="46.1900613" lon="11.8253325"><ele>792.0</ele><time>2026-04-26T13:51:02.489Z</time></trkpt><trkpt lat="46.1901773" lon="11.8253459"><ele>789.0</ele><time>2026-04-26T13:51:03.467Z</time></trkpt><trkpt lat="46.1903013" lon="11.8254029"><ele>786.0</ele><time>2026-04-26T13:51:04.481Z</time></trkpt><trkpt lat="46.1904218" lon="11.8254662"><ele>783.0</ele><time>2026-04-26T13:51:05.467Z</time></trkpt><trkpt lat="46.1905358" lon="11.8255335"><ele>780.0</ele><time>2026-04-26T13:51:06.463Z</time></trkpt><trkpt lat="46.1906435" lon="11.8255938"><ele>780.6666666666666</ele><time>2026-04-26T13:51:07.47Z</time></trkpt><trkpt lat="46.1907359" lon="11.8256565"><ele>781.3333333333333</ele><time>2026-04-26T13:51:08.465Z</time></trkpt><trkpt lat="46.1908056" lon="11.825715"><ele>782.0</ele><time>2026-04-26T13:51:09.476Z</time></trkpt><trkpt lat="46.1908584" lon="11.8257751"><ele>782.6666666666666</ele><time>2026-04-26T13:51:10.489Z</time></trkpt><trkpt lat="46.1908868" lon="11.8258652"><ele>783.3333333333333</ele><time>2026-04-26T13:51:11.457Z</time></trkpt><trkpt lat="46.190857" lon="11.8260346"><ele>784.0</ele><time>2026-04-26T13:51:13.451Z</time></trkpt><trkpt lat="46.1907834" lon="11.8260613"><ele>781.1666666666666</ele><time>2026-04-26T13:51:14.46Z</time></trkpt><trkpt lat="46.1907058" lon="11.8260633"><ele>778.3333333333333</ele><time>2026-04-26T13:51:15.462Z</time></trkpt><trkpt lat="46.1906303" lon="11.8260779"><ele>775.5</ele><time>2026-04-26T13:51:16.462Z</time></trkpt><trkpt lat="46.1905505" lon="11.8260774"><ele>772.6666666666666</ele><time>2026-04-26T13:51:17.461Z</time></trkpt><trkpt lat="46.1904698" lon="11.8260664"><ele>769.8333333333333</ele><time>2026-04-26T13:51:18.463Z</time></trkpt><trkpt lat="46.1903914" lon="11.8260695"><ele>767.0</ele><time>2026-04-26T13:51:19.454Z</time></trkpt><trkpt lat="46.1903115" lon="11.8261019"><ele>767.0</ele><time>2026-04-26T13:51:20.45Z</time></trkpt><trkpt lat="46.1902416" lon="11.8261722"><ele>767.0</ele><time>2026-04-26T13:51:21.45Z</time></trkpt><trkpt lat="46.1901862" lon="11.8262711"><ele>767.0</ele><time>2026-04-26T13:51:22.453Z</time></trkpt><trkpt lat="46.1901584" lon="11.8263983"><ele>767.0</ele><time>2026-04-26T13:51:23.454Z</time></trkpt><trkpt lat="46.1901617" lon="11.8265428"><ele>767.0</ele><time>2026-04-26T13:51:24.45Z</time></trkpt><trkpt lat="46.190188" lon="11.8266985"><ele>766.0</ele><time>2026-04-26T13:51:25.456Z</time></trkpt><trkpt lat="46.1902425" lon="11.826849"><ele>765.0</ele><time>2026-04-26T13:51:26.456Z</time></trkpt><trkpt lat="46.1903043" lon="11.826994"><ele>764.0</ele><time>2026-04-26T13:51:27.465Z</time></trkpt><trkpt lat="46.1903459" lon="11.8271425"><ele>763.0</ele><time>2026-04-26T13:51:28.46Z</time></trkpt><trkpt lat="46.1903577" lon="11.8272884"><ele>762.0</ele><time>2026-04-26T13:51:29.471Z</time></trkpt><trkpt lat="46.1903433" lon="11.8274312"><ele>762.0</ele><time>2026-04-26T13:51:30.455Z</time></trkpt><trkpt lat="46.1903261" lon="11.8275712"><ele>762.0</ele><time>2026-04-26T13:51:31.469Z</time></trkpt><trkpt lat="46.1903021" lon="11.8277096"><ele>762.0</ele><time>2026-04-26T13:51:32.45Z</time></trkpt><trkpt lat="46.1902694" lon="11.8278486"><ele>762.0</ele><time>2026-04-26T13:51:33.453Z</time></trkpt><trkpt lat="46.1902304" lon="11.8279847"><ele>762.0</ele><time>2026-04-26T13:51:34.466Z</time></trkpt><trkpt lat="46.1901956" lon="11.82812"><ele>761.4000000000001</ele><time>2026-04-26T13:51:35.458Z</time></trkpt><trkpt lat="46.1901626" lon="11.8282543"><ele>760.8000000000001</ele><time>2026-04-26T13:51:36.449Z</time></trkpt><trkpt lat="46.1901288" lon="11.8283848"><ele>760.2</ele><time>2026-04-26T13:51:37.457Z</time></trkpt><trkpt lat="46.1900946" lon="11.8285127"><ele>759.6</ele><time>2026-04-26T13:51:38.451Z</time></trkpt><trkpt lat="46.1900473" lon="11.8286324"><ele>759.0</ele><time>2026-04-26T13:51:39.454Z</time></trkpt><trkpt lat="46.1899963" lon="11.8287419"><ele>759.0</ele><time>2026-04-26T13:51:40.465Z</time></trkpt><trkpt lat="46.1899296" lon="11.8288256"><ele>759.0</ele><time>2026-04-26T13:51:41.468Z</time></trkpt><trkpt lat="46.1898595" lon="11.8289008"><ele>759.0</ele><time>2026-04-26T13:51:42.464Z</time></trkpt><trkpt lat="46.1897774" lon="11.8289709"><ele>759.0</ele><time>2026-04-26T13:51:43.459Z</time></trkpt><trkpt lat="46.1896962" lon="11.8290506"><ele>759.0</ele><time>2026-04-26T13:51:44.444Z</time></trkpt><trkpt lat="46.1896111" lon="11.8291254"><ele>759.0</ele><time>2026-04-26T13:51:45.455Z</time></trkpt><trkpt lat="46.1895298" lon="11.8292139"><ele>759.0</ele><time>2026-04-26T13:51:46.466Z</time></trkpt><trkpt lat="46.1894326" lon="11.8292613"><ele>759.0</ele><time>2026-04-26T13:51:47.447Z</time></trkpt><trkpt lat="46.1893421" lon="11.8293237"><ele>759.0</ele><time>2026-04-26T13:51:48.469Z</time></trkpt><trkpt lat="46.1892432" lon="11.8293925"><ele>759.0</ele><time>2026-04-26T13:51:49.458Z</time></trkpt><trkpt lat="46.1891408" lon="11.8294516"><ele>758.8000000000001</ele><time>2026-04-26T13:51:50.461Z</time></trkpt><trkpt lat="46.1890371" lon="11.8295049"><ele>758.6</ele><time>2026-04-26T13:51:51.451Z</time></trkpt><trkpt lat="46.1889333" lon="11.8295482"><ele>758.4</ele><time>2026-04-26T13:51:52.464Z</time></trkpt><trkpt lat="46.1888286" lon="11.8295775"><ele>758.2</ele><time>2026-04-26T13:51:53.463Z</time></trkpt><trkpt lat="46.1887241" lon="11.829618"><ele>758.0</ele><time>2026-04-26T13:51:54.454Z</time></trkpt><trkpt lat="46.1886225" lon="11.8296817"><ele>758.0</ele><time>2026-04-26T13:51:55.46Z</time></trkpt><trkpt lat="46.188511" lon="11.8297424"><ele>758.0</ele><time>2026-04-26T13:51:56.464Z</time></trkpt><trkpt lat="46.1883973" lon="11.8298075"><ele>758.0</ele><time>2026-04-26T13:51:57.448Z</time></trkpt><trkpt lat="46.1882834" lon="11.8298707"><ele>758.0</ele><time>2026-04-26T13:51:58.471Z</time></trkpt><trkpt lat="46.188169" lon="11.829927"><ele>758.75</ele><time>2026-04-26T13:51:59.464Z</time></trkpt><trkpt lat="46.1880538" lon="11.8299924"><ele>759.5</ele><time>2026-04-26T13:52:00.46Z</time></trkpt><trkpt lat="46.1879266" lon="11.8300281"><ele>760.25</ele><time>2026-04-26T13:52:01.454Z</time></trkpt><trkpt lat="46.1878085" lon="11.830083"><ele>761.0</ele><time>2026-04-26T13:52:02.445Z</time></trkpt><trkpt lat="46.1877081" lon="11.8301898"><ele>761.0</ele><time>2026-04-26T13:52:03.45Z</time></trkpt><trkpt lat="46.1876008" lon="11.8302654"><ele>761.0</ele><time>2026-04-26T13:52:04.477Z</time></trkpt><trkpt lat="46.1874837" lon="11.8303155"><ele>761.0</ele><time>2026-04-26T13:52:05.463Z</time></trkpt><trkpt lat="46.1873708" lon="11.8304014"><ele>761.0</ele><time>2026-04-26T13:52:06.464Z</time></trkpt><trkpt lat="46.1872501" lon="11.8304626"><ele>758.5</ele><time>2026-04-26T13:52:07.462Z</time></trkpt><trkpt lat="46.187113" lon="11.8304651"><ele>756.0</ele><time>2026-04-26T13:52:08.459Z</time></trkpt><trkpt lat="46.1869784" lon="11.8305155"><ele>753.5</ele><time>2026-04-26T13:52:09.471Z</time></trkpt><trkpt lat="46.186834" lon="11.8305565"><ele>751.0</ele><time>2026-04-26T13:52:10.461Z</time></trkpt><trkpt lat="46.1866774" lon="11.8306018"><ele>751.0</ele><time>2026-04-26T13:52:11.466Z</time></trkpt><trkpt lat="46.1865132" lon="11.8306567"><ele>751.0</ele><time>2026-04-26T13:52:12.476Z</time></trkpt><trkpt lat="46.1863432" lon="11.8307075"><ele>751.0</ele><time>2026-04-26T13:52:13.462Z</time></trkpt><trkpt lat="46.1861649" lon="11.830731"><ele>749.6666666666667</ele><time>2026-04-26T13:52:14.454Z</time></trkpt><trkpt lat="46.1859897" lon="11.8307669"><ele>748.3333333333334</ele><time>2026-04-26T13:52:15.457Z</time></trkpt><trkpt lat="46.1858166" lon="11.8308122"><ele>747.0</ele><time>2026-04-26T13:52:16.465Z</time></trkpt><trkpt lat="46.1856452" lon="11.8308506"><ele>745.0</ele><time>2026-04-26T13:52:17.455Z</time></trkpt><trkpt lat="46.1854738" lon="11.8308967"><ele>743.0</ele><time>2026-04-26T13:52:18.469Z</time></trkpt><trkpt lat="46.1853035" lon="11.8309353"><ele>741.0</ele><time>2026-04-26T13:52:19.467Z</time></trkpt><trkpt lat="46.1851361" lon="11.8309739"><ele>742.3333333333334</ele><time>2026-04-26T13:52:20.466Z</time></trkpt><trkpt lat="46.1849744" lon="11.8310524"><ele>743.6666666666667</ele><time>2026-04-26T13:52:21.469Z</time></trkpt><trkpt lat="46.1848112" lon="11.8311083"><ele>745.0</ele><time>2026-04-26T13:52:22.473Z</time></trkpt><trkpt lat="46.1846497" lon="11.8311574"><ele>745.0</ele><time>2026-04-26T13:52:23.463Z</time></trkpt><trkpt lat="46.1844906" lon="11.8311994"><ele>745.0</ele><time>2026-04-26T13:52:24.465Z</time></trkpt><trkpt lat="46.184332" lon="11.8312251"><ele>745.0</ele><time>2026-04-26T13:52:25.46Z</time></trkpt><trkpt lat="46.1841773" lon="11.8312817"><ele>745.0</ele><time>2026-04-26T13:52:26.465Z</time></trkpt><trkpt lat="46.1840242" lon="11.8313242"><ele>745.0</ele><time>2026-04-26T13:52:27.484Z</time></trkpt><trkpt lat="46.1838756" lon="11.8313484"><ele>745.0</ele><time>2026-04-26T13:52:28.458Z</time></trkpt><trkpt lat="46.1837266" lon="11.8313609"><ele>744.75</ele><time>2026-04-26T13:52:29.482Z</time></trkpt><trkpt lat="46.1835899" lon="11.8314133"><ele>744.5</ele><time>2026-04-26T13:52:30.456Z</time></trkpt><trkpt lat="46.1834554" lon="11.8314699"><ele>744.25</ele><time>2026-04-26T13:52:31.46Z</time></trkpt><trkpt lat="46.1833193" lon="11.831487"><ele>744.0</ele><time>2026-04-26T13:52:32.461Z</time></trkpt><trkpt lat="46.183189" lon="11.8315284"><ele>742.25</ele><time>2026-04-26T13:52:33.477Z</time></trkpt><trkpt lat="46.1830587" lon="11.8315687"><ele>740.5</ele><time>2026-04-26T13:52:34.464Z</time></trkpt><trkpt lat="46.1829233" lon="11.8315788"><ele>738.75</ele><time>2026-04-26T13:52:35.457Z</time></trkpt><trkpt lat="46.1827911" lon="11.8316123"><ele>737.0</ele><time>2026-04-26T13:52:36.457Z</time></trkpt><trkpt lat="46.1826618" lon="11.8316683"><ele>737.0</ele><time>2026-04-26T13:52:37.458Z</time></trkpt><trkpt lat="46.1825248" lon="11.8316892"><ele>737.0</ele><time>2026-04-26T13:52:38.453Z</time></trkpt><trkpt lat="46.1823862" lon="11.8317334"><ele>737.0</ele><time>2026-04-26T13:52:39.455Z</time></trkpt><trkpt lat="46.182236" lon="11.8317841"><ele>737.0</ele><time>2026-04-26T13:52:40.466Z</time></trkpt><trkpt lat="46.1820674" lon="11.8318368"><ele>735.3333333333333</ele><time>2026-04-26T13:52:41.448Z</time></trkpt><trkpt lat="46.1818836" lon="11.8318942"><ele>733.6666666666666</ele><time>2026-04-26T13:52:42.464Z</time></trkpt><trkpt lat="46.1816856" lon="11.8319583"><ele>732.0</ele><time>2026-04-26T13:52:43.458Z</time></trkpt><trkpt lat="46.1814865" lon="11.8320005"><ele>732.0</ele><time>2026-04-26T13:52:44.447Z</time></trkpt><trkpt lat="46.1812902" lon="11.8320291"><ele>732.0</ele><time>2026-04-26T13:52:45.455Z</time></trkpt><trkpt lat="46.1810936" lon="11.8320625"><ele>732.0</ele><time>2026-04-26T13:52:46.463Z</time></trkpt><trkpt lat="46.1809025" lon="11.8321086"><ele>732.0</ele><time>2026-04-26T13:52:47.463Z</time></trkpt><trkpt lat="46.1807165" lon="11.8321595"><ele>732.0</ele><time>2026-04-26T13:52:48.458Z</time></trkpt><trkpt lat="46.1805374" lon="11.8322078"><ele>732.0</ele><time>2026-04-26T13:52:49.47Z</time></trkpt><trkpt lat="46.180367" lon="11.8322566"><ele>731.3333333333334</ele><time>2026-04-26T13:52:50.465Z</time></trkpt><trkpt lat="46.1801983" lon="11.8322983"><ele>730.6666666666667</ele><time>2026-04-26T13:52:51.475Z</time></trkpt><trkpt lat="46.1800361" lon="11.8323587"><ele>730.0</ele><time>2026-04-26T13:52:52.456Z</time></trkpt><trkpt lat="46.1798781" lon="11.8323864"><ele>728.5</ele><time>2026-04-26T13:52:53.456Z</time></trkpt><trkpt lat="46.1797258" lon="11.8324323"><ele>727.0</ele><time>2026-04-26T13:52:54.449Z</time></trkpt><trkpt lat="46.1795797" lon="11.8324733"><ele>725.5</ele><time>2026-04-26T13:52:55.482Z</time></trkpt><trkpt lat="46.1794446" lon="11.8324862"><ele>724.0</ele><time>2026-04-26T13:52:56.454Z</time></trkpt><trkpt lat="46.1793291" lon="11.8325227"><ele>724.0</ele><time>2026-04-26T13:52:57.452Z</time></trkpt><trkpt lat="46.1792253" lon="11.8325309"><ele>724.0</ele><time>2026-04-26T13:52:58.447Z</time></trkpt><trkpt lat="46.1791322" lon="11.8325377"><ele>724.0</ele><time>2026-04-26T13:52:59.451Z</time></trkpt><trkpt lat="46.1790493" lon="11.8325373"><ele>724.0</ele><time>2026-04-26T13:53:00.461Z</time></trkpt><trkpt lat="46.1789781" lon="11.8325213"><ele>724.0</ele><time>2026-04-26T13:53:01.456Z</time></trkpt><trkpt lat="46.1788762" lon="11.83251"><ele>723.75</ele><time>2026-04-26T13:53:03.465Z</time></trkpt><trkpt lat="46.1788216" lon="11.8326524"><ele>723.5</ele><time>2026-04-26T13:53:56.451Z</time></trkpt><trkpt lat="46.1787998" lon="11.8328498"><ele>723.25</ele><time>2026-04-26T13:53:58.457Z</time></trkpt><trkpt lat="46.1787488" lon="11.8329777"><ele>723.0</ele><time>2026-04-26T13:53:59.448Z</time></trkpt><trkpt lat="46.1787374" lon="11.8331196"><ele>723.0</ele><time>2026-04-26T13:54:00.455Z</time></trkpt><trkpt lat="46.1787269" lon="11.8332567"><ele>723.0</ele><time>2026-04-26T13:54:01.448Z</time></trkpt><trkpt lat="46.178739" lon="11.8334052"><ele>723.0</ele><time>2026-04-26T13:54:02.457Z</time></trkpt><trkpt lat="46.1787765" lon="11.8335549"><ele>723.0</ele><time>2026-04-26T13:54:03.449Z</time></trkpt><trkpt lat="46.1788373" lon="11.8337102"><ele>723.0</ele><time>2026-04-26T13:54:04.471Z</time></trkpt><trkpt lat="46.178903" lon="11.8338587"><ele>723.0</ele><time>2026-04-26T13:54:05.464Z</time></trkpt><trkpt lat="46.17898" lon="11.8340061"><ele>723.0</ele><time>2026-04-26T13:54:06.456Z</time></trkpt><trkpt lat="46.179048" lon="11.8341528"><ele>723.0</ele><time>2026-04-26T13:54:07.444Z</time></trkpt><trkpt lat="46.1791147" lon="11.8342919"><ele>723.0</ele><time>2026-04-26T13:54:08.442Z</time></trkpt><trkpt lat="46.1791771" lon="11.8344233"><ele>723.0</ele><time>2026-04-26T13:54:09.465Z</time></trkpt><trkpt lat="46.1792375" lon="11.8345513"><ele>723.0</ele><time>2026-04-26T13:54:10.47Z</time></trkpt><trkpt lat="46.1792911" lon="11.8346843"><ele>723.0</ele><time>2026-04-26T13:54:11.446Z</time></trkpt><trkpt lat="46.1793343" lon="11.8348295"><ele>723.0</ele><time>2026-04-26T13:54:12.45Z</time></trkpt><trkpt lat="46.1793698" lon="11.8349873"><ele>723.0</ele><time>2026-04-26T13:54:13.459Z</time></trkpt><trkpt lat="46.1794089" lon="11.835147"><ele>723.0</ele><time>2026-04-26T13:54:14.455Z</time></trkpt><trkpt lat="46.1794484" lon="11.8353043"><ele>723.0</ele><time>2026-04-26T13:54:15.464Z</time></trkpt><trkpt lat="46.1794904" lon="11.8354526"><ele>723.0</ele><time>2026-04-26T13:54:16.452Z</time></trkpt><trkpt lat="46.1795287" lon="11.8355969"><ele>723.0</ele><time>2026-04-26T13:54:17.446Z</time></trkpt><trkpt lat="46.1795677" lon="11.8357364"><ele>723.0</ele><time>2026-04-26T13:54:18.446Z</time></trkpt><trkpt lat="46.1796068" lon="11.8358698"><ele>723.5</ele><time>2026-04-26T13:54:19.456Z</time></trkpt><trkpt lat="46.179646" lon="11.8359952"><ele>724.0</ele><time>2026-04-26T13:54:20.449Z</time></trkpt><trkpt lat="46.1796887" lon="11.8361121"><ele>724.5</ele><time>2026-04-26T13:54:21.456Z</time></trkpt><trkpt lat="46.1797371" lon="11.8362143"><ele>725.0</ele><time>2026-04-26T13:54:22.454Z</time></trkpt><trkpt lat="46.1797744" lon="11.8363127"><ele>725.5</ele><time>2026-04-26T13:54:23.44Z</time></trkpt><trkpt lat="46.1798015" lon="11.8364106"><ele>726.0</ele><time>2026-04-26T13:54:24.452Z</time></trkpt><trkpt lat="46.1798339" lon="11.8364891"><ele>727.4</ele><time>2026-04-26T13:54:25.448Z</time></trkpt><trkpt lat="46.1798716" lon="11.8366279"><ele>728.8</ele><time>2026-04-26T13:54:27.46Z</time></trkpt><trkpt lat="46.1799144" lon="11.8367301"><ele>730.1999999999999</ele><time>2026-04-26T13:54:29.447Z</time></trkpt><trkpt lat="46.1799593" lon="11.8368304"><ele>731.5999999999999</ele><time>2026-04-26T13:54:31.465Z</time></trkpt><trkpt lat="46.1800079" lon="11.8369404"><ele>733.0</ele><time>2026-04-26T13:54:33.444Z</time></trkpt><trkpt lat="46.1800663" lon="11.8370864"><ele>733.0</ele><time>2026-04-26T13:54:35.467Z</time></trkpt><trkpt lat="46.1801272" lon="11.8372459"><ele>733.0</ele><time>2026-04-26T13:54:37.46Z</time></trkpt><trkpt lat="46.1801519" lon="11.8373379"><ele>733.0</ele><time>2026-04-26T13:54:38.456Z</time></trkpt><trkpt lat="46.1801828" lon="11.8374285"><ele>733.0</ele><time>2026-04-26T13:54:39.469Z</time></trkpt><trkpt lat="46.1801962" lon="11.8375374"><ele>733.0</ele><time>2026-04-26T13:54:40.458Z</time></trkpt><trkpt lat="46.1802261" lon="11.8376352"><ele>733.0</ele><time>2026-04-26T13:54:41.466Z</time></trkpt><trkpt lat="46.1802683" lon="11.8377197"><ele>733.1428571428571</ele><time>2026-04-26T13:54:42.444Z</time></trkpt><trkpt lat="46.1802968" lon="11.8378112"><ele>733.2857142857142</ele><time>2026-04-26T13:54:43.451Z</time></trkpt><trkpt lat="46.1803217" lon="11.8379004"><ele>733.4285714285713</ele><time>2026-04-26T13:54:44.445Z</time></trkpt><trkpt lat="46.1803403" lon="11.837999"><ele>733.5714285714286</ele><time>2026-04-26T13:54:45.452Z</time></trkpt><trkpt lat="46.1803676" lon="11.8380973"><ele>733.7142857142858</ele><time>2026-04-26T13:54:46.463Z</time></trkpt><trkpt lat="46.1803899" lon="11.8382112"><ele>733.8571428571428</ele><time>2026-04-26T13:54:47.448Z</time></trkpt><trkpt lat="46.1804256" lon="11.8383244"><ele>734.0</ele><time>2026-04-26T13:54:48.449Z</time></trkpt><trkpt lat="46.180449" lon="11.8384481"><ele>734.6</ele><time>2026-04-26T13:54:49.451Z</time></trkpt><trkpt lat="46.1804775" lon="11.8385825"><ele>735.2</ele><time>2026-04-26T13:54:50.447Z</time></trkpt><trkpt lat="46.1805161" lon="11.8387206"><ele>735.8000000000001</ele><time>2026-04-26T13:54:51.446Z</time></trkpt><trkpt lat="46.180548" lon="11.8388675"><ele>736.4000000000001</ele><time>2026-04-26T13:54:52.463Z</time></trkpt><trkpt lat="46.1805867" lon="11.8390096"><ele>737.0</ele><time>2026-04-26T13:54:53.454Z</time></trkpt><trkpt lat="46.1806169" lon="11.8391479"><ele>737.0</ele><time>2026-04-26T13:54:54.463Z</time></trkpt><trkpt lat="46.1806465" lon="11.8392834"><ele>737.0</ele><time>2026-04-26T13:54:55.453Z</time></trkpt><trkpt lat="46.180675" lon="11.8394215"><ele>737.0</ele><time>2026-04-26T13:54:56.441Z</time></trkpt><trkpt lat="46.1807068" lon="11.8395614"><ele>737.0</ele><time>2026-04-26T13:54:57.45Z</time></trkpt><trkpt lat="46.1807427" lon="11.8397031"><ele>737.0</ele><time>2026-04-26T13:54:58.454Z</time></trkpt><trkpt lat="46.1807804" lon="11.8398503"><ele>738.25</ele><time>2026-04-26T13:54:59.441Z</time></trkpt><trkpt lat="46.1808151" lon="11.8400029"><ele>739.5</ele><time>2026-04-26T13:55:00.462Z</time></trkpt><trkpt lat="46.1808515" lon="11.8401593"><ele>740.75</ele><time>2026-04-26T13:55:01.473Z</time></trkpt><trkpt lat="46.1808902" lon="11.8403184"><ele>742.0</ele><time>2026-04-26T13:55:02.463Z</time></trkpt><trkpt lat="46.1809317" lon="11.8404793"><ele>742.25</ele><time>2026-04-26T13:55:03.462Z</time></trkpt><trkpt lat="46.1809796" lon="11.8406382"><ele>742.5</ele><time>2026-04-26T13:55:04.447Z</time></trkpt><trkpt lat="46.1810369" lon="11.8407906"><ele>742.75</ele><time>2026-04-26T13:55:05.449Z</time></trkpt><trkpt lat="46.1811" lon="11.8409376"><ele>743.0</ele><time>2026-04-26T13:55:06.454Z</time></trkpt><trkpt lat="46.1811648" lon="11.84108"><ele>744.25</ele><time>2026-04-26T13:55:07.458Z</time></trkpt><trkpt lat="46.1812304" lon="11.8412232"><ele>745.5</ele><time>2026-04-26T13:55:08.449Z</time></trkpt><trkpt lat="46.1813038" lon="11.8413613"><ele>746.75</ele><time>2026-04-26T13:55:09.447Z</time></trkpt><trkpt lat="46.181384" lon="11.8415012"><ele>748.0</ele><time>2026-04-26T13:55:10.462Z</time></trkpt><trkpt lat="46.1814746" lon="11.8416491"><ele>748.0</ele><time>2026-04-26T13:55:11.443Z</time></trkpt><trkpt lat="46.1815805" lon="11.8418001"><ele>748.0</ele><time>2026-04-26T13:55:12.447Z</time></trkpt><trkpt lat="46.1816942" lon="11.8419537"><ele>748.0</ele><time>2026-04-26T13:55:13.451Z</time></trkpt><trkpt lat="46.1818178" lon="11.8421108"><ele>748.0</ele><time>2026-04-26T13:55:14.451Z</time></trkpt><trkpt lat="46.1819548" lon="11.8422718"><ele>748.0</ele><time>2026-04-26T13:55:15.451Z</time></trkpt><trkpt lat="46.1821005" lon="11.842455"><ele>748.0</ele><time>2026-04-26T13:55:16.46Z</time></trkpt><trkpt lat="46.1822431" lon="11.8426479"><ele>749.3333333333334</ele><time>2026-04-26T13:55:17.457Z</time></trkpt><trkpt lat="46.1823798" lon="11.8428429"><ele>750.6666666666666</ele><time>2026-04-26T13:55:18.491Z</time></trkpt><trkpt lat="46.182516" lon="11.8430311"><ele>752.0</ele><time>2026-04-26T13:55:19.439Z</time></trkpt><trkpt lat="46.1826571" lon="11.8432069"><ele>752.0</ele><time>2026-04-26T13:55:20.448Z</time></trkpt><trkpt lat="46.1827899" lon="11.8433903"><ele>752.0</ele><time>2026-04-26T13:55:21.451Z</time></trkpt><trkpt lat="46.1829241" lon="11.8435694"><ele>752.0</ele><time>2026-04-26T13:55:22.45Z</time></trkpt><trkpt lat="46.1830521" lon="11.8437574"><ele>754.3333333333333</ele><time>2026-04-26T13:55:23.451Z</time></trkpt><trkpt lat="46.1831858" lon="11.843933"><ele>756.6666666666666</ele><time>2026-04-26T13:55:24.456Z</time></trkpt><trkpt lat="46.1833152" lon="11.8441054"><ele>759.0</ele><time>2026-04-26T13:55:25.458Z</time></trkpt><trkpt lat="46.1834434" lon="11.8442676"><ele>761.0</ele><time>2026-04-26T13:55:26.448Z</time></trkpt><trkpt lat="46.1835676" lon="11.8444282"><ele>763.0</ele><time>2026-04-26T13:55:27.461Z</time></trkpt><trkpt lat="46.1836936" lon="11.8445744"><ele>765.0</ele><time>2026-04-26T13:55:28.458Z</time></trkpt><trkpt lat="46.1838179" lon="11.844706"><ele>765.0</ele><time>2026-04-26T13:55:29.453Z</time></trkpt><trkpt lat="46.1839428" lon="11.8448214"><ele>765.0</ele><time>2026-04-26T13:55:30.455Z</time></trkpt><trkpt lat="46.1840697" lon="11.8449228"><ele>765.0</ele><time>2026-04-26T13:55:31.468Z</time></trkpt><trkpt lat="46.1841921" lon="11.8450224"><ele>765.0</ele><time>2026-04-26T13:55:32.452Z</time></trkpt><trkpt lat="46.1843077" lon="11.845123"><ele>765.5</ele><time>2026-04-26T13:55:33.458Z</time></trkpt><trkpt lat="46.184418" lon="11.8452187"><ele>766.0</ele><time>2026-04-26T13:55:34.449Z</time></trkpt><trkpt lat="46.1845241" lon="11.8453092"><ele>766.5</ele><time>2026-04-26T13:55:35.458Z</time></trkpt><trkpt lat="46.1846312" lon="11.8453717"><ele>767.0</ele><time>2026-04-26T13:55:36.453Z</time></trkpt><trkpt lat="46.184725" lon="11.845437"><ele>767.0</ele><time>2026-04-26T13:55:37.464Z</time></trkpt><trkpt lat="46.1848101" lon="11.8455009"><ele>767.0</ele><time>2026-04-26T13:55:38.454Z</time></trkpt><trkpt lat="46.1848889" lon="11.8455614"><ele>767.0</ele><time>2026-04-26T13:55:39.454Z</time></trkpt><trkpt lat="46.1849547" lon="11.8456464"><ele>767.0</ele><time>2026-04-26T13:55:40.465Z</time></trkpt><trkpt lat="46.1850209" lon="11.8457327"><ele>767.0</ele><time>2026-04-26T13:55:41.442Z</time></trkpt><trkpt lat="46.1850849" lon="11.8458294"><ele>769.0</ele><time>2026-04-26T13:55:42.448Z</time></trkpt><trkpt lat="46.1851402" lon="11.8459449"><ele>771.0</ele><time>2026-04-26T13:55:43.446Z</time></trkpt><trkpt lat="46.1851906" lon="11.8460707"><ele>773.0</ele><time>2026-04-26T13:55:44.45Z</time></trkpt><trkpt lat="46.1852172" lon="11.8462155"><ele>775.0</ele><time>2026-04-26T13:55:45.445Z</time></trkpt><trkpt lat="46.1852451" lon="11.846362"><ele>777.0</ele><time>2026-04-26T13:55:46.45Z</time></trkpt><trkpt lat="46.1852593" lon="11.8465157"><ele>777.0</ele><time>2026-04-26T13:55:47.458Z</time></trkpt><trkpt lat="46.1852794" lon="11.8466671"><ele>777.0</ele><time>2026-04-26T13:55:48.466Z</time></trkpt><trkpt lat="46.1852982" lon="11.8468184"><ele>777.0</ele><time>2026-04-26T13:55:49.464Z</time></trkpt><trkpt lat="46.1853174" lon="11.8469715"><ele>777.0</ele><time>2026-04-26T13:55:50.449Z</time></trkpt><trkpt lat="46.1853562" lon="11.8471231"><ele>777.0</ele><time>2026-04-26T13:55:51.448Z</time></trkpt><trkpt lat="46.1853825" lon="11.8472833"><ele>777.2</ele><time>2026-04-26T13:55:52.448Z</time></trkpt><trkpt lat="46.1854111" lon="11.8474405"><ele>777.4000000000001</ele><time>2026-04-26T13:55:53.459Z</time></trkpt><trkpt lat="46.1854431" lon="11.8475973"><ele>777.5999999999999</ele><time>2026-04-26T13:55:54.45Z</time></trkpt><trkpt lat="46.1854701" lon="11.8477532"><ele>777.8</ele><time>2026-04-26T13:55:55.465Z</time></trkpt><trkpt lat="46.1854938" lon="11.8479097"><ele>778.0</ele><time>2026-04-26T13:55:56.447Z</time></trkpt><trkpt lat="46.1855101" lon="11.8480635"><ele>778.2</ele><time>2026-04-26T13:55:57.455Z</time></trkpt><trkpt lat="46.1855258" lon="11.8482123"><ele>778.4</ele><time>2026-04-26T13:55:58.447Z</time></trkpt><trkpt lat="46.1855515" lon="11.8483572"><ele>778.6</ele><time>2026-04-26T13:55:59.463Z</time></trkpt><trkpt lat="46.1855777" lon="11.8484987"><ele>778.8000000000001</ele><time>2026-04-26T13:56:00.445Z</time></trkpt><trkpt lat="46.1856005" lon="11.8486373"><ele>779.0</ele><time>2026-04-26T13:56:01.455Z</time></trkpt><trkpt lat="46.1856164" lon="11.8487696"><ele>782.0</ele><time>2026-04-26T13:56:02.455Z</time></trkpt><trkpt lat="46.1856414" lon="11.8488977"><ele>785.0</ele><time>2026-04-26T13:56:03.452Z</time></trkpt><trkpt lat="46.1856798" lon="11.8490246"><ele>788.0</ele><time>2026-04-26T13:56:04.466Z</time></trkpt><trkpt lat="46.1857359" lon="11.8491442"><ele>791.0</ele><time>2026-04-26T13:56:05.461Z</time></trkpt><trkpt lat="46.1858096" lon="11.8492483"><ele>794.0</ele><time>2026-04-26T13:56:06.463Z</time></trkpt><trkpt lat="46.185893" lon="11.8493401"><ele>794.0</ele><time>2026-04-26T13:56:07.459Z</time></trkpt><trkpt lat="46.1859742" lon="11.8494379"><ele>794.0</ele><time>2026-04-26T13:56:08.468Z</time></trkpt><trkpt lat="46.1860476" lon="11.8495497"><ele>794.0</ele><time>2026-04-26T13:56:09.453Z</time></trkpt><trkpt lat="46.1861205" lon="11.8496673"><ele>794.0</ele><time>2026-04-26T13:56:10.454Z</time></trkpt><trkpt lat="46.1861914" lon="11.8497847"><ele>794.0</ele><time>2026-04-26T13:56:11.463Z</time></trkpt><trkpt lat="46.1862358" lon="11.8499254"><ele>794.0</ele><time>2026-04-26T13:56:12.449Z</time></trkpt><trkpt lat="46.1862858" lon="11.8500525"><ele>794.0</ele><time>2026-04-26T13:56:13.448Z</time></trkpt><trkpt lat="46.1863375" lon="11.8501702"><ele>794.0</ele><time>2026-04-26T13:56:14.472Z</time></trkpt><trkpt lat="46.186411" lon="11.8502564"><ele>794.0</ele><time>2026-04-26T13:56:15.452Z</time></trkpt><trkpt lat="46.1864753" lon="11.8503526"><ele>794.0</ele><time>2026-04-26T13:56:16.448Z</time></trkpt><trkpt lat="46.1865306" lon="11.8504579"><ele>796.0</ele><time>2026-04-26T13:56:17.452Z</time></trkpt><trkpt lat="46.1865813" lon="11.8505731"><ele>798.0</ele><time>2026-04-26T13:56:18.458Z</time></trkpt><trkpt lat="46.1866352" lon="11.8506863"><ele>800.0</ele><time>2026-04-26T13:56:19.454Z</time></trkpt><trkpt lat="46.1866601" lon="11.8508234"><ele>802.0</ele><time>2026-04-26T13:56:20.45Z</time></trkpt><trkpt lat="46.1866684" lon="11.8509632"><ele>804.0</ele><time>2026-04-26T13:56:21.461Z</time></trkpt><trkpt lat="46.1866661" lon="11.8511014"><ele>804.0</ele><time>2026-04-26T13:56:22.462Z</time></trkpt><trkpt lat="46.1866358" lon="11.8512264"><ele>804.0</ele><time>2026-04-26T13:56:23.466Z</time></trkpt><trkpt lat="46.1866073" lon="11.8513381"><ele>804.0</ele><time>2026-04-26T13:56:24.459Z</time></trkpt><trkpt lat="46.18656" lon="11.8514241"><ele>804.0</ele><time>2026-04-26T13:56:25.448Z</time></trkpt><trkpt lat="46.1865179" lon="11.8514999"><ele>804.0</ele><time>2026-04-26T13:56:26.45Z</time></trkpt><trkpt lat="46.1864636" lon="11.8515476"><ele>804.0</ele><time>2026-04-26T13:56:27.456Z</time></trkpt><trkpt lat="46.1864075" lon="11.8515928"><ele>804.0</ele><time>2026-04-26T13:56:28.444Z</time></trkpt><trkpt lat="46.186341" lon="11.8516106"><ele>808.0</ele><time>2026-04-26T13:56:29.448Z</time></trkpt><trkpt lat="46.1862679" lon="11.8515342"><ele>812.0</ele><time>2026-04-26T13:56:30.461Z</time></trkpt><trkpt lat="46.1861899" lon="11.8514683"><ele>816.0</ele><time>2026-04-26T13:56:31.46Z</time></trkpt><trkpt lat="46.1861205" lon="11.8513744"><ele>820.0</ele><time>2026-04-26T13:56:32.446Z</time></trkpt><trkpt lat="46.1860435" lon="11.851295"><ele>824.0</ele><time>2026-04-26T13:56:33.471Z</time></trkpt><trkpt lat="46.185967" lon="11.8512139"><ele>824.0000000000001</ele><time>2026-04-26T13:56:34.46Z</time></trkpt><trkpt lat="46.1859039" lon="11.8511068"><ele>824.0</ele><time>2026-04-26T13:56:35.463Z</time></trkpt><trkpt lat="46.185841" lon="11.8510112"><ele>824.0</ele><time>2026-04-26T13:56:36.465Z</time></trkpt><trkpt lat="46.1857813" lon="11.8509417"><ele>824.0</ele><time>2026-04-26T13:56:37.476Z</time></trkpt><trkpt lat="46.1857288" lon="11.8508887"><ele>824.0000000000001</ele><time>2026-04-26T13:56:38.445Z</time></trkpt><trkpt lat="46.1856433" lon="11.8508254"><ele>824.0</ele><time>2026-04-26T13:56:40.453Z</time></trkpt><trkpt lat="46.1855466" lon="11.8508573"><ele>824.0</ele><time>2026-04-26T13:56:42.461Z</time></trkpt><trkpt lat="46.1854981" lon="11.8509554"><ele>824.0</ele><time>2026-04-26T13:56:44.474Z</time></trkpt><trkpt lat="46.1855518" lon="11.851132"><ele>824.0</ele><time>2026-04-26T13:56:46.45Z</time></trkpt><trkpt lat="46.1856254" lon="11.851247"><ele>824.0</ele><time>2026-04-26T13:56:47.473Z</time></trkpt><trkpt lat="46.1856808" lon="11.8513614"><ele>824.0</ele><time>2026-04-26T13:56:48.459Z</time></trkpt><trkpt lat="46.1857273" lon="11.851494"><ele>824.0</ele><time>2026-04-26T13:56:49.448Z</time></trkpt><trkpt lat="46.1857765" lon="11.8516416"><ele>824.0</ele><time>2026-04-26T13:56:50.46Z</time></trkpt><trkpt lat="46.1858223" lon="11.8517927"><ele>824.0</ele><time>2026-04-26T13:56:51.451Z</time></trkpt><trkpt lat="46.1858642" lon="11.8519337"><ele>824.0</ele><time>2026-04-26T13:56:52.454Z</time></trkpt><trkpt lat="46.1858916" lon="11.8520628"><ele>824.0</ele><time>2026-04-26T13:56:53.454Z</time></trkpt><trkpt lat="46.1859182" lon="11.8521871"><ele>826.8000000000001</ele><time>2026-04-26T13:56:54.442Z</time></trkpt><trkpt lat="46.1859384" lon="11.8523173"><ele>829.6</ele><time>2026-04-26T13:56:55.443Z</time></trkpt><trkpt lat="46.1859797" lon="11.8524381"><ele>832.4</ele><time>2026-04-26T13:56:56.449Z</time></trkpt><trkpt lat="46.1860133" lon="11.8525501"><ele>835.2</ele><time>2026-04-26T13:56:57.455Z</time></trkpt><trkpt lat="46.1860376" lon="11.8526462"><ele>838.0</ele><time>2026-04-26T13:56:58.451Z</time></trkpt><trkpt lat="46.1860926" lon="11.8527826"><ele>842.5999999999999</ele><time>2026-04-26T13:57:00.45Z</time></trkpt><trkpt lat="46.1861293" lon="11.8529156"><ele>847.1999999999999</ele><time>2026-04-26T13:57:02.461Z</time></trkpt><trkpt lat="46.1860536" lon="11.8529875"><ele>851.8</ele><time>2026-04-26T13:57:04.464Z</time></trkpt><trkpt lat="46.1859468" lon="11.8529"><ele>856.4</ele><time>2026-04-26T13:57:06.47Z</time></trkpt><trkpt lat="46.1858883" lon="11.8528306"><ele>861.0</ele><time>2026-04-26T13:57:07.449Z</time></trkpt><trkpt lat="46.1858225" lon="11.8527801"><ele>861.0</ele><time>2026-04-26T13:57:08.455Z</time></trkpt><trkpt lat="46.185761" lon="11.8526921"><ele>861.0</ele><time>2026-04-26T13:57:09.485Z</time></trkpt><trkpt lat="46.1856859" lon="11.852604"><ele>861.0</ele><time>2026-04-26T13:57:10.453Z</time></trkpt><trkpt lat="46.1856293" lon="11.8525315"><ele>861.0</ele><time>2026-04-26T13:57:11.467Z</time></trkpt><trkpt lat="46.1855777" lon="11.8524691"><ele>861.0</ele><time>2026-04-26T13:57:12.459Z</time></trkpt><trkpt lat="46.1855346" lon="11.8523908"><ele>861.0</ele><time>2026-04-26T13:57:13.451Z</time></trkpt><trkpt lat="46.1854508" lon="11.8522949"><ele>862.1999999999999</ele><time>2026-04-26T13:57:15.467Z</time></trkpt><trkpt lat="46.1853622" lon="11.8523722"><ele>863.3999999999999</ele><time>2026-04-26T13:57:17.456Z</time></trkpt><trkpt lat="46.1853444" lon="11.8525331"><ele>864.6</ele><time>2026-04-26T13:57:19.465Z</time></trkpt><trkpt lat="46.1853931" lon="11.8526464"><ele>865.8</ele><time>2026-04-26T13:57:20.449Z</time></trkpt><trkpt lat="46.1854818" lon="11.8527974"><ele>867.0</ele><time>2026-04-26T13:57:21.457Z</time></trkpt><trkpt lat="46.1855845" lon="11.8529905"><ele>865.0</ele><time>2026-04-26T13:57:22.45Z</time></trkpt><trkpt lat="46.1856875" lon="11.8532182"><ele>863.0</ele><time>2026-04-26T13:57:23.451Z</time></trkpt><trkpt lat="46.185796" lon="11.8534545"><ele>861.0</ele><time>2026-04-26T13:57:24.458Z</time></trkpt><trkpt lat="46.1859301" lon="11.8536821"><ele>871.3333333333333</ele><time>2026-04-26T13:57:25.455Z</time></trkpt><trkpt lat="46.1860648" lon="11.8538923"><ele>881.6666666666666</ele><time>2026-04-26T13:57:26.466Z</time></trkpt><trkpt lat="46.1862159" lon="11.854089"><ele>892.0</ele><time>2026-04-26T13:57:27.453Z</time></trkpt><trkpt lat="46.1863729" lon="11.85427"><ele>892.6666666666666</ele><time>2026-04-26T13:57:28.456Z</time></trkpt><trkpt lat="46.1865283" lon="11.8544316"><ele>893.3333333333333</ele><time>2026-04-26T13:57:29.459Z</time></trkpt><trkpt lat="46.1866686" lon="11.8545863"><ele>894.0</ele><time>2026-04-26T13:57:30.459Z</time></trkpt><trkpt lat="46.1867978" lon="11.8547373"><ele>894.0</ele><time>2026-04-26T13:57:31.456Z</time></trkpt><trkpt lat="46.1869203" lon="11.8548839"><ele>894.0</ele><time>2026-04-26T13:57:32.479Z</time></trkpt><trkpt lat="46.187008" lon="11.8550816"><ele>894.0</ele><time>2026-04-26T13:57:33.469Z</time></trkpt><trkpt lat="46.1870721" lon="11.8553098"><ele>905.0</ele><time>2026-04-26T13:57:34.463Z</time></trkpt><trkpt lat="46.1871337" lon="11.8555356"><ele>916.0</ele><time>2026-04-26T13:57:35.458Z</time></trkpt><trkpt lat="46.1871821" lon="11.8557565"><ele>927.0</ele><time>2026-04-26T13:57:36.454Z</time></trkpt><trkpt lat="46.187231" lon="11.8559473"><ele>933.25</ele><time>2026-04-26T13:57:37.465Z</time></trkpt><trkpt lat="46.1872851" lon="11.8561147"><ele>939.5</ele><time>2026-04-26T13:57:38.464Z</time></trkpt><trkpt lat="46.1873233" lon="11.8562886"><ele>945.75</ele><time>2026-04-26T13:57:39.451Z</time></trkpt><trkpt lat="46.1873352" lon="11.8564842"><ele>952.0</ele><time>2026-04-26T13:57:40.456Z</time></trkpt><trkpt lat="46.1873232" lon="11.8567009"><ele>955.6666666666666</ele><time>2026-04-26T13:57:41.457Z</time></trkpt><trkpt lat="46.1873048" lon="11.8569422"><ele>959.3333333333333</ele><time>2026-04-26T13:57:42.451Z</time></trkpt><trkpt lat="46.187276" lon="11.8572181"><ele>963.0</ele><time>2026-04-26T13:57:43.456Z</time></trkpt><trkpt lat="46.1872628" lon="11.85749"><ele>962.6666666666667</ele><time>2026-04-26T13:57:44.458Z</time></trkpt><trkpt lat="46.1872469" lon="11.8577374"><ele>962.3333333333334</ele><time>2026-04-26T13:57:45.451Z</time></trkpt><trkpt lat="46.1872347" lon="11.8579582"><ele>962.0</ele><time>2026-04-26T13:57:46.474Z</time></trkpt><trkpt lat="46.1872097" lon="11.8581651"><ele>962.0</ele><time>2026-04-26T13:57:47.447Z</time></trkpt><trkpt lat="46.1871617" lon="11.8583618"><ele>962.0</ele><time>2026-04-26T13:57:48.452Z</time></trkpt><trkpt lat="46.1870964" lon="11.8585518"><ele>962.0</ele><time>2026-04-26T13:57:49.448Z</time></trkpt><trkpt lat="46.1869934" lon="11.858731"><ele>955.3333333333334</ele><time>2026-04-26T13:57:50.451Z</time></trkpt><trkpt lat="46.1868642" lon="11.8588888"><ele>948.6666666666667</ele><time>2026-04-26T13:57:51.451Z</time></trkpt><trkpt lat="46.1867478" lon="11.8590462"><ele>942.0</ele><time>2026-04-26T13:57:52.458Z</time></trkpt><trkpt lat="46.1866466" lon="11.8591958"><ele>940.75</ele><time>2026-04-26T13:57:53.467Z</time></trkpt><trkpt lat="46.1865692" lon="11.8593665"><ele>939.5</ele><time>2026-04-26T13:57:54.458Z</time></trkpt><trkpt lat="46.1865058" lon="11.8595324"><ele>938.25</ele><time>2026-04-26T13:57:55.451Z</time></trkpt><trkpt lat="46.1864561" lon="11.8596875"><ele>937.0</ele><time>2026-04-26T13:57:56.455Z</time></trkpt><trkpt lat="46.1864255" lon="11.8598461"><ele>939.5</ele><time>2026-04-26T13:57:57.462Z</time></trkpt><trkpt lat="46.1864282" lon="11.8600192"><ele>942.0</ele><time>2026-04-26T13:57:58.446Z</time></trkpt><trkpt lat="46.1864505" lon="11.8601902"><ele>944.5</ele><time>2026-04-26T13:57:59.447Z</time></trkpt><trkpt lat="46.1865046" lon="11.8603363"><ele>947.0</ele><time>2026-04-26T13:58:00.455Z</time></trkpt><trkpt lat="46.1865804" lon="11.8604552"><ele>947.0</ele><time>2026-04-26T13:58:01.471Z</time></trkpt><trkpt lat="46.1866761" lon="11.8605488"><ele>947.0</ele><time>2026-04-26T13:58:02.449Z</time></trkpt><trkpt lat="46.1867821" lon="11.8606372"><ele>947.0</ele><time>2026-04-26T13:58:03.461Z</time></trkpt><trkpt lat="46.1869082" lon="11.8606906"><ele>947.0</ele><time>2026-04-26T13:58:04.452Z</time></trkpt><trkpt lat="46.1871171" lon="11.8607043"><ele>947.0</ele><time>2026-04-26T13:58:05.463Z</time></trkpt><trkpt lat="46.1872618" lon="11.8606764"><ele>947.0</ele><time>2026-04-26T13:58:06.445Z</time></trkpt><trkpt lat="46.1873921" lon="11.8605914"><ele>947.0</ele><time>2026-04-26T13:58:07.445Z</time></trkpt><trkpt lat="46.1874948" lon="11.860438"><ele>947.0</ele><time>2026-04-26T13:58:08.457Z</time></trkpt><trkpt lat="46.18759" lon="11.8603023"><ele>945.8</ele><time>2026-04-26T13:58:09.442Z</time></trkpt><trkpt lat="46.1876982" lon="11.8602209"><ele>944.6</ele><time>2026-04-26T13:58:10.452Z</time></trkpt><trkpt lat="46.1878191" lon="11.8601801"><ele>943.3999999999999</ele><time>2026-04-26T13:58:11.444Z</time></trkpt><trkpt lat="46.1879185" lon="11.8601566"><ele>942.1999999999999</ele><time>2026-04-26T13:58:12.452Z</time></trkpt><trkpt lat="46.187994" lon="11.8601271"><ele>941.0</ele><time>2026-04-26T13:58:13.452Z</time></trkpt><trkpt lat="46.1880645" lon="11.8601039"><ele>946.0</ele><time>2026-04-26T13:58:14.468Z</time></trkpt><trkpt lat="46.1881736" lon="11.8602074"><ele>951.0</ele><time>2026-04-26T13:58:16.461Z</time></trkpt><trkpt lat="46.1882221" lon="11.8603277"><ele>956.0</ele><time>2026-04-26T13:58:17.441Z</time></trkpt><trkpt lat="46.1882782" lon="11.8604607"><ele>961.0</ele><time>2026-04-26T13:58:18.487Z</time></trkpt><trkpt lat="46.1883561" lon="11.8605851"><ele>964.0</ele><time>2026-04-26T13:58:19.472Z</time></trkpt><trkpt lat="46.1884425" lon="11.8606853"><ele>966.9999999999999</ele><time>2026-04-26T13:58:20.458Z</time></trkpt><trkpt lat="46.1885553" lon="11.8607225"><ele>969.9999999999999</ele><time>2026-04-26T13:58:21.46Z</time></trkpt><trkpt lat="46.188665" lon="11.8607599"><ele>973.0</ele><time>2026-04-26T13:58:22.461Z</time></trkpt><trkpt lat="46.1887664" lon="11.8607759"><ele>976.0</ele><time>2026-04-26T13:58:23.464Z</time></trkpt><trkpt lat="46.1888493" lon="11.8607585"><ele>976.0</ele><time>2026-04-26T13:58:24.453Z</time></trkpt><trkpt lat="46.1889223" lon="11.8607288"><ele>975.9999999999999</ele><time>2026-04-26T13:58:25.448Z</time></trkpt><trkpt lat="46.1889967" lon="11.8607449"><ele>975.9999999999999</ele><time>2026-04-26T13:58:26.453Z</time></trkpt><trkpt lat="46.1890919" lon="11.860791"><ele>976.0</ele><time>2026-04-26T13:58:27.45Z</time></trkpt><trkpt lat="46.1891902" lon="11.8608702"><ele>976.0</ele><time>2026-04-26T13:58:28.449Z</time></trkpt><trkpt lat="46.1892919" lon="11.8609761"><ele>979.25</ele><time>2026-04-26T13:58:29.461Z</time></trkpt><trkpt lat="46.1893935" lon="11.8610822"><ele>982.5</ele><time>2026-04-26T13:58:30.458Z</time></trkpt><trkpt lat="46.1894949" lon="11.8611684"><ele>985.75</ele><time>2026-04-26T13:58:31.463Z</time></trkpt><trkpt lat="46.1896095" lon="11.8612336"><ele>989.0</ele><time>2026-04-26T13:58:32.458Z</time></trkpt><trkpt lat="46.1897006" lon="11.8612669"><ele>989.0</ele><time>2026-04-26T13:58:33.461Z</time></trkpt><trkpt lat="46.1897855" lon="11.8612688"><ele>989.0000000000001</ele><time>2026-04-26T13:58:34.455Z</time></trkpt><trkpt lat="46.1898838" lon="11.8613639"><ele>989.0000000000001</ele><time>2026-04-26T13:58:36.453Z</time></trkpt><trkpt lat="46.1898539" lon="11.8615193"><ele>989.0</ele><time>2026-04-26T13:58:38.455Z</time></trkpt><trkpt lat="46.1897848" lon="11.8615646"><ele>989.0</ele><time>2026-04-26T13:58:39.464Z</time></trkpt><trkpt lat="46.189702" lon="11.8615897"><ele>989.0</ele><time>2026-04-26T13:58:40.448Z</time></trkpt><trkpt lat="46.1895897" lon="11.8615796"><ele>989.0</ele><time>2026-04-26T13:58:41.467Z</time></trkpt><trkpt lat="46.1894667" lon="11.8615566"><ele>989.0</ele><time>2026-04-26T13:58:42.45Z</time></trkpt><trkpt lat="46.1893442" lon="11.8615252"><ele>989.0</ele><time>2026-04-26T13:58:43.464Z</time></trkpt><trkpt lat="46.1892179" lon="11.861571"><ele>989.0</ele><time>2026-04-26T13:58:44.442Z</time></trkpt><trkpt lat="46.1890928" lon="11.8616416"><ele>989.0</ele><time>2026-04-26T13:58:45.47Z</time></trkpt><trkpt lat="46.1889919" lon="11.8618116"><ele>989.0</ele><time>2026-04-26T13:58:46.468Z</time></trkpt><trkpt lat="46.1888926" lon="11.8619561"><ele>989.0</ele><time>2026-04-26T13:58:47.466Z</time></trkpt><trkpt lat="46.1888559" lon="11.8621699"><ele>988.3333333333334</ele><time>2026-04-26T13:58:48.451Z</time></trkpt><trkpt lat="46.1888689" lon="11.8624066"><ele>987.6666666666667</ele><time>2026-04-26T13:58:49.459Z</time></trkpt><trkpt lat="46.1888953" lon="11.8626339"><ele>987.0</ele><time>2026-04-26T13:58:50.449Z</time></trkpt><trkpt lat="46.1889291" lon="11.8628663"><ele>991.25</ele><time>2026-04-26T13:58:51.466Z</time></trkpt><trkpt lat="46.1889581" lon="11.8630754"><ele>995.5</ele><time>2026-04-26T13:58:52.445Z</time></trkpt><trkpt lat="46.1889433" lon="11.8632754"><ele>999.75</ele><time>2026-04-26T13:58:53.454Z</time></trkpt><trkpt lat="46.1888825" lon="11.8634366"><ele>1004.0</ele><time>2026-04-26T13:58:54.459Z</time></trkpt><trkpt lat="46.1888211" lon="11.8635666"><ele>1006.8333333333334</ele><time>2026-04-26T13:58:55.449Z</time></trkpt><trkpt lat="46.1887485" lon="11.8636503"><ele>1009.6666666666667</ele><time>2026-04-26T13:58:56.441Z</time></trkpt><trkpt lat="46.1886779" lon="11.8637075"><ele>1012.5</ele><time>2026-04-26T13:58:57.459Z</time></trkpt><trkpt lat="46.1886144" lon="11.8637337"><ele>1015.3333333333333</ele><time>2026-04-26T13:58:58.448Z</time></trkpt><trkpt lat="46.1886462" lon="11.8639012"><ele>1018.1666666666666</ele><time>2026-04-26T13:59:00.448Z</time></trkpt><trkpt lat="46.1887295" lon="11.8639477"><ele>1021.0</ele><time>2026-04-26T13:59:01.467Z</time></trkpt><trkpt lat="46.1888363" lon="11.8639491"><ele>1020.9999999999999</ele><time>2026-04-26T13:59:02.46Z</time></trkpt><trkpt lat="46.1889364" lon="11.8639122"><ele>1021.0</ele><time>2026-04-26T13:59:03.464Z</time></trkpt><trkpt lat="46.1890308" lon="11.8639146"><ele>1021.0</ele><time>2026-04-26T13:59:04.457Z</time></trkpt><trkpt lat="46.1890986" lon="11.8639037"><ele>1021.0</ele><time>2026-04-26T13:59:05.463Z</time></trkpt><trkpt lat="46.1891549" lon="11.8639729"><ele>1020.9999999999999</ele><time>2026-04-26T13:59:06.462Z</time></trkpt><trkpt lat="46.189181" lon="11.8640589"><ele>1021.0</ele><time>2026-04-26T13:59:07.459Z</time></trkpt><trkpt lat="46.1891659" lon="11.8641715"><ele>1021.0</ele><time>2026-04-26T13:59:08.469Z</time></trkpt><trkpt lat="46.189066" lon="11.8642065"><ele>1021.0</ele><time>2026-04-26T13:59:09.461Z</time></trkpt><trkpt lat="46.1889594" lon="11.8642599"><ele>1021.0</ele><time>2026-04-26T13:59:10.467Z</time></trkpt><trkpt lat="46.1888131" lon="11.8643148"><ele>1021.0</ele><time>2026-04-26T13:59:11.454Z</time></trkpt><trkpt lat="46.1886548" lon="11.8644093"><ele>1024.75</ele><time>2026-04-26T13:59:12.451Z</time></trkpt><trkpt lat="46.1885027" lon="11.8644892"><ele>1028.5</ele><time>2026-04-26T13:59:13.465Z</time></trkpt><trkpt lat="46.1883614" lon="11.8645686"><ele>1032.25</ele><time>2026-04-26T13:59:14.456Z</time></trkpt><trkpt lat="46.1882283" lon="11.8646009"><ele>1036.0</ele><time>2026-04-26T13:59:15.458Z</time></trkpt><trkpt lat="46.1881007" lon="11.864594"><ele>1036.0</ele><time>2026-04-26T13:59:16.45Z</time></trkpt><trkpt lat="46.1879738" lon="11.864594"><ele>1036.0</ele><time>2026-04-26T13:59:17.46Z</time></trkpt><trkpt lat="46.1878483" lon="11.8646335"><ele>1036.0</ele><time>2026-04-26T13:59:18.473Z</time></trkpt><trkpt lat="46.1877289" lon="11.8647083"><ele>1036.0</ele><time>2026-04-26T13:59:19.48Z</time></trkpt><trkpt lat="46.1876061" lon="11.8648072"><ele>1036.0</ele><time>2026-04-26T13:59:20.462Z</time></trkpt><trkpt lat="46.1875095" lon="11.8649232"><ele>1036.0</ele><time>2026-04-26T13:59:21.473Z</time></trkpt><trkpt lat="46.1874158" lon="11.8650071"><ele>1036.0</ele><time>2026-04-26T13:59:22.462Z</time></trkpt><trkpt lat="46.1873316" lon="11.8650886"><ele>1036.0</ele><time>2026-04-26T13:59:23.464Z</time></trkpt><trkpt lat="46.187222" lon="11.865115"><ele>1036.0</ele><time>2026-04-26T13:59:24.45Z</time></trkpt><trkpt lat="46.187147" lon="11.8651536"><ele>1035.75</ele><time>2026-04-26T13:59:25.469Z</time></trkpt><trkpt lat="46.1870809" lon="11.8652363"><ele>1035.5</ele><time>2026-04-26T13:59:26.458Z</time></trkpt><trkpt lat="46.1870383" lon="11.8653727"><ele>1035.25</ele><time>2026-04-26T13:59:27.454Z</time></trkpt><trkpt lat="46.1870455" lon="11.8655977"><ele>1035.0</ele><time>2026-04-26T13:59:28.45Z</time></trkpt><trkpt lat="46.1870731" lon="11.8658287"><ele>1037.0</ele><time>2026-04-26T13:59:29.461Z</time></trkpt><trkpt lat="46.1870545" lon="11.8661101"><ele>1039.0</ele><time>2026-04-26T13:59:30.47Z</time></trkpt><trkpt lat="46.1869696" lon="11.8664427"><ele>1041.0</ele><time>2026-04-26T13:59:31.473Z</time></trkpt><trkpt lat="46.1869228" lon="11.8667476"><ele>1045.6666666666667</ele><time>2026-04-26T13:59:32.451Z</time></trkpt><trkpt lat="46.1868571" lon="11.8670409"><ele>1050.3333333333335</ele><time>2026-04-26T13:59:33.469Z</time></trkpt><trkpt lat="46.1867816" lon="11.8673152"><ele>1055.0</ele><time>2026-04-26T13:59:34.459Z</time></trkpt><trkpt lat="46.1866824" lon="11.8675536"><ele>1061.3333333333335</ele><time>2026-04-26T13:59:35.456Z</time></trkpt><trkpt lat="46.1866038" lon="11.8677724"><ele>1067.6666666666667</ele><time>2026-04-26T13:59:36.453Z</time></trkpt><trkpt lat="46.1865284" lon="11.8679818"><ele>1074.0</ele><time>2026-04-26T13:59:37.456Z</time></trkpt><trkpt lat="46.1864595" lon="11.8681924"><ele>1074.5</ele><time>2026-04-26T13:59:38.45Z</time></trkpt><trkpt lat="46.1863964" lon="11.8684003"><ele>1075.0</ele><time>2026-04-26T13:59:39.465Z</time></trkpt><trkpt lat="46.1863365" lon="11.8685945"><ele>1075.5</ele><time>2026-04-26T13:59:40.45Z</time></trkpt><trkpt lat="46.1862924" lon="11.8687687"><ele>1076.0</ele><time>2026-04-26T13:59:41.452Z</time></trkpt><trkpt lat="46.186302" lon="11.8689517"><ele>1077.2</ele><time>2026-04-26T13:59:42.45Z</time></trkpt><trkpt lat="46.1863126" lon="11.8691212"><ele>1078.3999999999999</ele><time>2026-04-26T13:59:43.453Z</time></trkpt><trkpt lat="46.1862751" lon="11.8692677"><ele>1079.6</ele><time>2026-04-26T13:59:44.457Z</time></trkpt><trkpt lat="46.1862428" lon="11.8694027"><ele>1080.8</ele><time>2026-04-26T13:59:45.473Z</time></trkpt><trkpt lat="46.1861785" lon="11.8694896"><ele>1082.0</ele><time>2026-04-26T13:59:46.45Z</time></trkpt><trkpt lat="46.1860831" lon="11.869498"><ele>1082.8</ele><time>2026-04-26T13:59:47.459Z</time></trkpt><trkpt lat="46.1859973" lon="11.8694942"><ele>1083.6</ele><time>2026-04-26T13:59:48.462Z</time></trkpt><trkpt lat="46.1858978" lon="11.8694839"><ele>1084.3999999999999</ele><time>2026-04-26T13:59:49.468Z</time></trkpt><trkpt lat="46.185806" lon="11.8694862"><ele>1085.2</ele><time>2026-04-26T13:59:50.469Z</time></trkpt><trkpt lat="46.1857067" lon="11.8694917"><ele>1086.0</ele><time>2026-04-26T13:59:51.462Z</time></trkpt><trkpt lat="46.1856431" lon="11.8695761"><ele>1086.0</ele><time>2026-04-26T13:59:52.455Z</time></trkpt><trkpt lat="46.1856335" lon="11.8696789"><ele>1086.0</ele><time>2026-04-26T13:59:53.464Z</time></trkpt><trkpt lat="46.1856604" lon="11.8697655"><ele>1086.0</ele><time>2026-04-26T13:59:54.449Z</time></trkpt><trkpt lat="46.185712" lon="11.869834"><ele>1086.0</ele><time>2026-04-26T13:59:55.456Z</time></trkpt><trkpt lat="46.185799" lon="11.8698618"><ele>1086.0</ele><time>2026-04-26T13:59:56.457Z</time></trkpt><trkpt lat="46.1859293" lon="11.8698544"><ele>1086.0</ele><time>2026-04-26T13:59:57.449Z</time></trkpt><trkpt lat="46.1860304" lon="11.8698332"><ele>1086.0</ele><time>2026-04-26T13:59:58.463Z</time></trkpt><trkpt lat="46.1861313" lon="11.869858"><ele>1086.0</ele><time>2026-04-26T13:59:59.457Z</time></trkpt><trkpt lat="46.1862155" lon="11.8698666"><ele>1086.0</ele><time>2026-04-26T14:00:00.467Z</time></trkpt><trkpt lat="46.186285" lon="11.8699232"><ele>1086.0</ele><time>2026-04-26T14:00:01.451Z</time></trkpt><trkpt lat="46.1863459" lon="11.8699733"><ele>1086.0</ele><time>2026-04-26T14:00:02.45Z</time></trkpt><trkpt lat="46.1863647" lon="11.8700758"><ele>1086.0</ele><time>2026-04-26T14:00:03.452Z</time></trkpt><trkpt lat="46.1863453" lon="11.8702009"><ele>1088.0</ele><time>2026-04-26T14:00:04.456Z</time></trkpt><trkpt lat="46.1862721" lon="11.8703221"><ele>1090.0</ele><time>2026-04-26T14:00:05.463Z</time></trkpt><trkpt lat="46.1861824" lon="11.870446"><ele>1092.0</ele><time>2026-04-26T14:00:06.449Z</time></trkpt><trkpt lat="46.1860829" lon="11.8706416"><ele>1094.0</ele><time>2026-04-26T14:00:07.464Z</time></trkpt><trkpt lat="46.1859841" lon="11.8708133"><ele>1097.3333333333335</ele><time>2026-04-26T14:00:08.454Z</time></trkpt><trkpt lat="46.1858989" lon="11.8710144"><ele>1100.6666666666667</ele><time>2026-04-26T14:00:09.47Z</time></trkpt><trkpt lat="46.1858628" lon="11.8712349"><ele>1104.0</ele><time>2026-04-26T14:00:10.454Z</time></trkpt><trkpt lat="46.1858715" lon="11.8714732"><ele>1104.0</ele><time>2026-04-26T14:00:11.458Z</time></trkpt><trkpt lat="46.1859022" lon="11.8717293"><ele>1104.0</ele><time>2026-04-26T14:00:12.457Z</time></trkpt><trkpt lat="46.185988" lon="11.8719396"><ele>1104.0</ele><time>2026-04-26T14:00:13.459Z</time></trkpt><trkpt lat="46.1860376" lon="11.8721463"><ele>1105.0</ele><time>2026-04-26T14:00:14.462Z</time></trkpt><trkpt lat="46.1860855" lon="11.872362"><ele>1106.0</ele><time>2026-04-26T14:00:15.467Z</time></trkpt><trkpt lat="46.1861219" lon="11.8725732"><ele>1107.0</ele><time>2026-04-26T14:00:16.461Z</time></trkpt><trkpt lat="46.186117" lon="11.8727905"><ele>1107.0</ele><time>2026-04-26T14:00:17.461Z</time></trkpt><trkpt lat="46.1860804" lon="11.8729974"><ele>1107.0</ele><time>2026-04-26T14:00:18.451Z</time></trkpt><trkpt lat="46.1859882" lon="11.8731821"><ele>1107.0</ele><time>2026-04-26T14:00:19.471Z</time></trkpt><trkpt lat="46.1858807" lon="11.8733684"><ele>1108.3333333333333</ele><time>2026-04-26T14:00:20.461Z</time></trkpt><trkpt lat="46.1857714" lon="11.8735595"><ele>1109.6666666666665</ele><time>2026-04-26T14:00:21.487Z</time></trkpt><trkpt lat="46.1856541" lon="11.8737385"><ele>1111.0</ele><time>2026-04-26T14:00:22.452Z</time></trkpt><trkpt lat="46.1855315" lon="11.8738981"><ele>1111.0</ele><time>2026-04-26T14:00:23.454Z</time></trkpt><trkpt lat="46.1854139" lon="11.8740557"><ele>1111.0</ele><time>2026-04-26T14:00:24.449Z</time></trkpt><trkpt lat="46.1852877" lon="11.8741703"><ele>1111.0</ele><time>2026-04-26T14:00:25.477Z</time></trkpt><trkpt lat="46.1851869" lon="11.8743094"><ele>1111.0</ele><time>2026-04-26T14:00:26.46Z</time></trkpt><trkpt lat="46.185101" lon="11.8744753"><ele>1111.25</ele><time>2026-04-26T14:00:27.455Z</time></trkpt><trkpt lat="46.1850284" lon="11.874646"><ele>1111.5</ele><time>2026-04-26T14:00:28.456Z</time></trkpt><trkpt lat="46.1849788" lon="11.8748387"><ele>1111.75</ele><time>2026-04-26T14:00:29.45Z</time></trkpt><trkpt lat="46.184988" lon="11.8750696"><ele>1112.0</ele><time>2026-04-26T14:00:30.474Z</time></trkpt><trkpt lat="46.1849889" lon="11.8753175"><ele>1115.0</ele><time>2026-04-26T14:00:31.464Z</time></trkpt><trkpt lat="46.1850136" lon="11.8755964"><ele>1118.0</ele><time>2026-04-26T14:00:32.472Z</time></trkpt><trkpt lat="46.1850468" lon="11.875887"><ele>1121.0</ele><time>2026-04-26T14:00:33.465Z</time></trkpt><trkpt lat="46.1850801" lon="11.8761845"><ele>1125.0</ele><time>2026-04-26T14:00:34.458Z</time></trkpt><trkpt lat="46.1851182" lon="11.8764772"><ele>1129.0</ele><time>2026-04-26T14:00:35.468Z</time></trkpt><trkpt lat="46.1851461" lon="11.8767649"><ele>1133.0</ele><time>2026-04-26T14:00:36.454Z</time></trkpt><trkpt lat="46.1851659" lon="11.8770545"><ele>1134.0</ele><time>2026-04-26T14:00:37.492Z</time></trkpt><trkpt lat="46.185183" lon="11.8773401"><ele>1135.0</ele><time>2026-04-26T14:00:38.48Z</time></trkpt><trkpt lat="46.18521" lon="11.877617"><ele>1136.0</ele><time>2026-04-26T14:00:39.459Z</time></trkpt><trkpt lat="46.185247" lon="11.8778852"><ele>1139.6666666666667</ele><time>2026-04-26T14:00:40.466Z</time></trkpt><trkpt lat="46.1852792" lon="11.8781393"><ele>1143.3333333333333</ele><time>2026-04-26T14:00:41.471Z</time></trkpt><trkpt lat="46.1853109" lon="11.8783856"><ele>1147.0</ele><time>2026-04-26T14:00:42.478Z</time></trkpt><trkpt lat="46.1853511" lon="11.8786302"><ele>1148.6666666666665</ele><time>2026-04-26T14:00:43.472Z</time></trkpt><trkpt lat="46.1854136" lon="11.8788765"><ele>1150.3333333333333</ele><time>2026-04-26T14:00:44.463Z</time></trkpt><trkpt lat="46.1854975" lon="11.8791237"><ele>1152.0</ele><time>2026-04-26T14:00:45.456Z</time></trkpt><trkpt lat="46.1855777" lon="11.8793777"><ele>1151.6666666666667</ele><time>2026-04-26T14:00:46.455Z</time></trkpt><trkpt lat="46.1856616" lon="11.8796307"><ele>1151.3333333333335</ele><time>2026-04-26T14:00:47.465Z</time></trkpt><trkpt lat="46.18575" lon="11.8798812"><ele>1151.0</ele><time>2026-04-26T14:00:48.468Z</time></trkpt><trkpt lat="46.1858422" lon="11.8801297"><ele>1155.0</ele><time>2026-04-26T14:00:49.467Z</time></trkpt><trkpt lat="46.1859266" lon="11.880375"><ele>1159.0</ele><time>2026-04-26T14:00:50.456Z</time></trkpt><trkpt lat="46.1860125" lon="11.8806159"><ele>1163.0</ele><time>2026-04-26T14:00:51.47Z</time></trkpt><trkpt lat="46.1860954" lon="11.8808527"><ele>1166.3333333333335</ele><time>2026-04-26T14:00:52.463Z</time></trkpt><trkpt lat="46.1861776" lon="11.8810882"><ele>1169.6666666666667</ele><time>2026-04-26T14:00:53.466Z</time></trkpt><trkpt lat="46.1862685" lon="11.8813235"><ele>1173.0</ele><time>2026-04-26T14:00:54.467Z</time></trkpt><trkpt lat="46.1863523" lon="11.8815594"><ele>1172.3333333333333</ele><time>2026-04-26T14:00:55.461Z</time></trkpt><trkpt lat="46.1864568" lon="11.8817917"><ele>1171.6666666666665</ele><time>2026-04-26T14:00:56.464Z</time></trkpt><trkpt lat="46.1865244" lon="11.8820307"><ele>1171.0</ele><time>2026-04-26T14:00:57.475Z</time></trkpt><trkpt lat="46.1865921" lon="11.8822725"><ele>1171.0</ele><time>2026-04-26T14:00:58.462Z</time></trkpt><trkpt lat="46.186676" lon="11.8825152"><ele>1171.0</ele><time>2026-04-26T14:00:59.471Z</time></trkpt><trkpt lat="46.1867929" lon="11.8827736"><ele>1171.0</ele><time>2026-04-26T14:01:00.48Z</time></trkpt><trkpt lat="46.1868927" lon="11.8830513"><ele>1176.6666666666665</ele><time>2026-04-26T14:01:01.505Z</time></trkpt><trkpt lat="46.1869816" lon="11.8833398"><ele>1182.3333333333333</ele><time>2026-04-26T14:01:02.458Z</time></trkpt><trkpt lat="46.1870684" lon="11.8836293"><ele>1188.0</ele><time>2026-04-26T14:01:03.461Z</time></trkpt><trkpt lat="46.1871433" lon="11.8839075"><ele>1190.0</ele><time>2026-04-26T14:01:04.45Z</time></trkpt><trkpt lat="46.1872091" lon="11.8841652"><ele>1192.0</ele><time>2026-04-26T14:01:05.454Z</time></trkpt><trkpt lat="46.1872996" lon="11.8844081"><ele>1194.0</ele><time>2026-04-26T14:01:06.465Z</time></trkpt><trkpt lat="46.1873959" lon="11.8846421"><ele>1194.0</ele><time>2026-04-26T14:01:07.46Z</time></trkpt><trkpt lat="46.1875329" lon="11.8848608"><ele>1194.0</ele><time>2026-04-26T14:01:08.458Z</time></trkpt><trkpt lat="46.187685" lon="11.8850454"><ele>1194.0</ele><time>2026-04-26T14:01:09.474Z</time></trkpt><trkpt lat="46.1878325" lon="11.8852342"><ele>1199.3333333333333</ele><time>2026-04-26T14:01:10.464Z</time></trkpt><trkpt lat="46.1879784" lon="11.8854304"><ele>1204.6666666666665</ele><time>2026-04-26T14:01:11.464Z</time></trkpt><trkpt lat="46.1881219" lon="11.8856393"><ele>1210.0</ele><time>2026-04-26T14:01:12.455Z</time></trkpt><trkpt lat="46.1882633" lon="11.8858459"><ele>1221.0</ele><time>2026-04-26T14:01:13.465Z</time></trkpt><trkpt lat="46.1884057" lon="11.886054"><ele>1232.0</ele><time>2026-04-26T14:01:14.458Z</time></trkpt><trkpt lat="46.1885452" lon="11.8862663"><ele>1243.0</ele><time>2026-04-26T14:01:15.467Z</time></trkpt><trkpt lat="46.1886825" lon="11.8864742"><ele>1243.0</ele><time>2026-04-26T14:01:16.483Z</time></trkpt><trkpt lat="46.1888124" lon="11.8866767"><ele>1243.0</ele><time>2026-04-26T14:01:17.496Z</time></trkpt><trkpt lat="46.1889351" lon="11.886865"><ele>1243.0</ele><time>2026-04-26T14:01:18.464Z</time></trkpt><trkpt lat="46.1890525" lon="11.8870432"><ele>1244.6666666666665</ele><time>2026-04-26T14:01:19.459Z</time></trkpt><trkpt lat="46.1891629" lon="11.8872188"><ele>1246.3333333333333</ele><time>2026-04-26T14:01:20.457Z</time></trkpt><trkpt lat="46.189243" lon="11.8874295"><ele>1248.0</ele><time>2026-04-26T14:01:21.457Z</time></trkpt><trkpt lat="46.1892952" lon="11.8876727"><ele>1248.0</ele><time>2026-04-26T14:01:22.479Z</time></trkpt><trkpt lat="46.1893198" lon="11.8879498"><ele>1248.0</ele><time>2026-04-26T14:01:23.465Z</time></trkpt><trkpt lat="46.1893372" lon="11.8882381"><ele>1248.0</ele><time>2026-04-26T14:01:24.484Z</time></trkpt><trkpt lat="46.1893608" lon="11.8885301"><ele>1256.0</ele><time>2026-04-26T14:01:25.47Z</time></trkpt><trkpt lat="46.1894108" lon="11.8888056"><ele>1264.0</ele><time>2026-04-26T14:01:26.455Z</time></trkpt><trkpt lat="46.1894853" lon="11.8890546"><ele>1272.0</ele><time>2026-04-26T14:01:27.473Z</time></trkpt><trkpt lat="46.1895433" lon="11.8892845"><ele>1267.6</ele><time>2026-04-26T14:01:28.463Z</time></trkpt><trkpt lat="46.1896076" lon="11.8894746"><ele>1263.2</ele><time>2026-04-26T14:01:29.467Z</time></trkpt><trkpt lat="46.1896651" lon="11.8896206"><ele>1258.8</ele><time>2026-04-26T14:01:30.48Z</time></trkpt><trkpt lat="46.1897236" lon="11.8897191"><ele>1254.4</ele><time>2026-04-26T14:01:31.473Z</time></trkpt><trkpt lat="46.1898068" lon="11.8897731"><ele>1250.0</ele><time>2026-04-26T14:01:32.465Z</time></trkpt><trkpt lat="46.1899103" lon="11.8897858"><ele>1250.0</ele><time>2026-04-26T14:01:33.466Z</time></trkpt><trkpt lat="46.1900254" lon="11.8897446"><ele>1250.0</ele><time>2026-04-26T14:01:34.464Z</time></trkpt><trkpt lat="46.1901266" lon="11.8896906"><ele>1250.0</ele><time>2026-04-26T14:01:35.475Z</time></trkpt><trkpt lat="46.1902154" lon="11.8896548"><ele>1250.0</ele><time>2026-04-26T14:01:36.466Z</time></trkpt><trkpt lat="46.1903049" lon="11.8896343"><ele>1250.0</ele><time>2026-04-26T14:01:37.466Z</time></trkpt><trkpt lat="46.1903923" lon="11.889635"><ele>1250.0</ele><time>2026-04-26T14:01:38.484Z</time></trkpt><trkpt lat="46.1904734" lon="11.8896513"><ele>1250.0</ele><time>2026-04-26T14:01:39.454Z</time></trkpt><trkpt lat="46.190543" lon="11.8897245"><ele>1250.0</ele><time>2026-04-26T14:01:40.461Z</time></trkpt><trkpt lat="46.1905735" lon="11.8898608"><ele>1250.0</ele><time>2026-04-26T14:01:41.472Z</time></trkpt><trkpt lat="46.190568" lon="11.8900335"><ele>1250.0</ele><time>2026-04-26T14:01:42.457Z</time></trkpt><trkpt lat="46.1905617" lon="11.8902115"><ele>1250.2</ele><time>2026-04-26T14:01:43.449Z</time></trkpt><trkpt lat="46.1905699" lon="11.8903892"><ele>1250.4</ele><time>2026-04-26T14:01:44.459Z</time></trkpt><trkpt lat="46.1906234" lon="11.890514"><ele>1250.6</ele><time>2026-04-26T14:01:45.454Z</time></trkpt><trkpt lat="46.1906748" lon="11.8906142"><ele>1250.8</ele><time>2026-04-26T14:01:46.463Z</time></trkpt><trkpt lat="46.1907786" lon="11.8906357"><ele>1251.0</ele><time>2026-04-26T14:01:47.458Z</time></trkpt><trkpt lat="46.1908977" lon="11.8905746"><ele>1251.0</ele><time>2026-04-26T14:01:48.471Z</time></trkpt><trkpt lat="46.1909997" lon="11.8904884"><ele>1251.0</ele><time>2026-04-26T14:01:49.468Z</time></trkpt><trkpt lat="46.1910974" lon="11.8904085"><ele>1251.0</ele><time>2026-04-26T14:01:50.471Z</time></trkpt><trkpt lat="46.1911477" lon="11.8902756"><ele>1251.0</ele><time>2026-04-26T14:01:51.48Z</time></trkpt><trkpt lat="46.19118" lon="11.8901565"><ele>1251.0</ele><time>2026-04-26T14:01:52.448Z</time></trkpt><trkpt lat="46.1912092" lon="11.89006"><ele>1251.0</ele><time>2026-04-26T14:01:53.467Z</time></trkpt><trkpt lat="46.1912974" lon="11.889958"><ele>1251.0</ele><time>2026-04-26T14:01:55.458Z</time></trkpt><trkpt lat="46.1913882" lon="11.890033"><ele>1251.0</ele><time>2026-04-26T14:01:57.489Z</time></trkpt><trkpt lat="46.1913612" lon="11.8902493"><ele>1251.0</ele><time>2026-04-26T14:01:59.451Z</time></trkpt><trkpt lat="46.1913232" lon="11.8904269"><ele>1251.0</ele><time>2026-04-26T14:02:00.454Z</time></trkpt><trkpt lat="46.1913134" lon="11.8906389"><ele>1251.0</ele><time>2026-04-26T14:02:01.457Z</time></trkpt><trkpt lat="46.191309" lon="11.8908515"><ele>1251.0</ele><time>2026-04-26T14:02:02.455Z</time></trkpt><trkpt lat="46.1913184" lon="11.8910384"><ele>1251.0</ele><time>2026-04-26T14:02:03.465Z</time></trkpt><trkpt lat="46.1913293" lon="11.8911905"><ele>1254.0</ele><time>2026-04-26T14:02:04.476Z</time></trkpt><trkpt lat="46.1913482" lon="11.8912992"><ele>1257.0</ele><time>2026-04-26T14:02:05.47Z</time></trkpt><trkpt lat="46.1914276" lon="11.891415"><ele>1260.0</ele><time>2026-04-26T14:02:07.468Z</time></trkpt><trkpt lat="46.1915037" lon="11.8913806"><ele>1263.0</ele><time>2026-04-26T14:02:08.46Z</time></trkpt><trkpt lat="46.1915641" lon="11.8912869"><ele>1266.0</ele><time>2026-04-26T14:02:09.459Z</time></trkpt><trkpt lat="46.1916046" lon="11.8911397"><ele>1267.0</ele><time>2026-04-26T14:02:10.454Z</time></trkpt><trkpt lat="46.1916229" lon="11.8909427"><ele>1268.0</ele><time>2026-04-26T14:02:11.456Z</time></trkpt><trkpt lat="46.1916558" lon="11.8907537"><ele>1269.0</ele><time>2026-04-26T14:02:12.471Z</time></trkpt><trkpt lat="46.1916824" lon="11.8905711"><ele>1270.0</ele><time>2026-04-26T14:02:13.471Z</time></trkpt><trkpt lat="46.1917044" lon="11.8904099"><ele>1270.0</ele><time>2026-04-26T14:02:14.474Z</time></trkpt><trkpt lat="46.1917147" lon="11.8902825"><ele>1270.0</ele><time>2026-04-26T14:02:15.481Z</time></trkpt><trkpt lat="46.1917356" lon="11.890194"><ele>1270.0</ele><time>2026-04-26T14:02:16.463Z</time></trkpt><trkpt lat="46.1918219" lon="11.8901008"><ele>1270.0</ele><time>2026-04-26T14:02:18.472Z</time></trkpt><trkpt lat="46.1918984" lon="11.8902033"><ele>1270.0</ele><time>2026-04-26T14:02:20.465Z</time></trkpt><trkpt lat="46.1919025" lon="11.8903354"><ele>1270.0</ele><time>2026-04-26T14:02:21.459Z</time></trkpt><trkpt lat="46.1918908" lon="11.8905136"><ele>1270.0</ele><time>2026-04-26T14:02:22.46Z</time></trkpt><trkpt lat="46.1919038" lon="11.8907237"><ele>1270.0</ele><time>2026-04-26T14:02:23.457Z</time></trkpt><trkpt lat="46.1919257" lon="11.8909648"><ele>1270.0</ele><time>2026-04-26T14:02:24.466Z</time></trkpt><trkpt lat="46.1919429" lon="11.8912338"><ele>1272.3333333333333</ele><time>2026-04-26T14:02:25.468Z</time></trkpt><trkpt lat="46.1919554" lon="11.8915305"><ele>1274.6666666666667</ele><time>2026-04-26T14:02:26.464Z</time></trkpt><trkpt lat="46.1919668" lon="11.8918429"><ele>1277.0</ele><time>2026-04-26T14:02:27.464Z</time></trkpt><trkpt lat="46.1919662" lon="11.8921511"><ele>1280.6666666666667</ele><time>2026-04-26T14:02:28.469Z</time></trkpt><trkpt lat="46.1919526" lon="11.89244"><ele>1284.3333333333333</ele><time>2026-04-26T14:02:29.476Z</time></trkpt><trkpt lat="46.1919303" lon="11.8927055"><ele>1288.0</ele><time>2026-04-26T14:02:30.461Z</time></trkpt><trkpt lat="46.1919141" lon="11.8929622"><ele>1289.0</ele><time>2026-04-26T14:02:31.467Z</time></trkpt><trkpt lat="46.1919194" lon="11.893213"><ele>1290.0</ele><time>2026-04-26T14:02:32.484Z</time></trkpt><trkpt lat="46.1919239" lon="11.8934689"><ele>1291.0</ele><time>2026-04-26T14:02:33.457Z</time></trkpt><trkpt lat="46.1919302" lon="11.8937228"><ele>1293.3333333333333</ele><time>2026-04-26T14:02:34.472Z</time></trkpt><trkpt lat="46.1919305" lon="11.8939763"><ele>1295.6666666666667</ele><time>2026-04-26T14:02:35.461Z</time></trkpt><trkpt lat="46.1919245" lon="11.8942329"><ele>1298.0</ele><time>2026-04-26T14:02:36.473Z</time></trkpt><trkpt lat="46.1919002" lon="11.8944886"><ele>1300.6666666666667</ele><time>2026-04-26T14:02:37.476Z</time></trkpt><trkpt lat="46.1918608" lon="11.8947434"><ele>1303.3333333333333</ele><time>2026-04-26T14:02:38.461Z</time></trkpt><trkpt lat="46.1918274" lon="11.894998"><ele>1306.0</ele><time>2026-04-26T14:02:39.462Z</time></trkpt><trkpt lat="46.191797" lon="11.8952526"><ele>1307.6666666666665</ele><time>2026-04-26T14:02:40.469Z</time></trkpt><trkpt lat="46.1917691" lon="11.8955044"><ele>1309.3333333333333</ele><time>2026-04-26T14:02:41.456Z</time></trkpt><trkpt lat="46.191754" lon="11.8957521"><ele>1311.0</ele><time>2026-04-26T14:02:42.458Z</time></trkpt><trkpt lat="46.1917327" lon="11.8959936"><ele>1313.5</ele><time>2026-04-26T14:02:43.469Z</time></trkpt><trkpt lat="46.191709" lon="11.8962208"><ele>1316.0</ele><time>2026-04-26T14:02:44.461Z</time></trkpt><trkpt lat="46.1916908" lon="11.896433"><ele>1318.5</ele><time>2026-04-26T14:02:45.474Z</time></trkpt><trkpt lat="46.191665" lon="11.8966203"><ele>1321.0</ele><time>2026-04-26T14:02:46.458Z</time></trkpt><trkpt lat="46.1916583" lon="11.8967888"><ele>1322.8333333333333</ele><time>2026-04-26T14:02:47.476Z</time></trkpt><trkpt lat="46.1916441" lon="11.8969348"><ele>1324.6666666666665</ele><time>2026-04-26T14:02:48.47Z</time></trkpt><trkpt lat="46.1916295" lon="11.8970534"><ele>1326.5</ele><time>2026-04-26T14:02:49.472Z</time></trkpt><trkpt lat="46.1916278" lon="11.8971461"><ele>1328.3333333333333</ele><time>2026-04-26T14:02:50.455Z</time></trkpt><trkpt lat="46.1916913" lon="11.8972501"><ele>1330.1666666666667</ele><time>2026-04-26T14:02:52.484Z</time></trkpt><trkpt lat="46.1917556" lon="11.8971698"><ele>1332.0</ele><time>2026-04-26T14:02:53.456Z</time></trkpt><trkpt lat="46.1918156" lon="11.897088"><ele>1332.0</ele><time>2026-04-26T14:02:54.455Z</time></trkpt><trkpt lat="46.1918568" lon="11.8969613"><ele>1332.0</ele><time>2026-04-26T14:02:55.462Z</time></trkpt><trkpt lat="46.1918861" lon="11.8968433"><ele>1332.0</ele><time>2026-04-26T14:02:56.457Z</time></trkpt><trkpt lat="46.1919232" lon="11.8967564"><ele>1332.0</ele><time>2026-04-26T14:02:57.476Z</time></trkpt><trkpt lat="46.1920123" lon="11.896671"><ele>1332.0</ele><time>2026-04-26T14:02:59.471Z</time></trkpt><trkpt lat="46.1921043" lon="11.8967468"><ele>1332.0</ele><time>2026-04-26T14:03:01.479Z</time></trkpt><trkpt lat="46.1921557" lon="11.8968435"><ele>1332.0</ele><time>2026-04-26T14:03:02.485Z</time></trkpt><trkpt lat="46.1921564" lon="11.8970034"><ele>1332.0</ele><time>2026-04-26T14:03:03.459Z</time></trkpt><trkpt lat="46.1921317" lon="11.897198"><ele>1332.0</ele><time>2026-04-26T14:03:04.458Z</time></trkpt><trkpt lat="46.1921021" lon="11.8974225"><ele>1334.6666666666667</ele><time>2026-04-26T14:03:05.46Z</time></trkpt><trkpt lat="46.1920855" lon="11.897688"><ele>1337.3333333333335</ele><time>2026-04-26T14:03:06.47Z</time></trkpt><trkpt lat="46.1920887" lon="11.8979736"><ele>1340.0</ele><time>2026-04-26T14:03:07.469Z</time></trkpt><trkpt lat="46.1921074" lon="11.898269"><ele>1343.6666666666667</ele><time>2026-04-26T14:03:08.474Z</time></trkpt><trkpt lat="46.192112" lon="11.8985622"><ele>1347.3333333333333</ele><time>2026-04-26T14:03:09.465Z</time></trkpt><trkpt lat="46.192125" lon="11.8988363"><ele>1351.0</ele><time>2026-04-26T14:03:10.46Z</time></trkpt><trkpt lat="46.1921589" lon="11.8990881"><ele>1354.0</ele><time>2026-04-26T14:03:11.47Z</time></trkpt><trkpt lat="46.1921682" lon="11.8993302"><ele>1357.0</ele><time>2026-04-26T14:03:12.453Z</time></trkpt><trkpt lat="46.1921839" lon="11.8995594"><ele>1360.0</ele><time>2026-04-26T14:03:13.465Z</time></trkpt><trkpt lat="46.1922061" lon="11.8997758"><ele>1360.0</ele><time>2026-04-26T14:03:14.473Z</time></trkpt><trkpt lat="46.1922306" lon="11.8999876"><ele>1360.0</ele><time>2026-04-26T14:03:15.479Z</time></trkpt><trkpt lat="46.1922576" lon="11.9001988"><ele>1360.0</ele><time>2026-04-26T14:03:16.469Z</time></trkpt><trkpt lat="46.1922939" lon="11.9004099"><ele>1360.0</ele><time>2026-04-26T14:03:17.467Z</time></trkpt><trkpt lat="46.1923318" lon="11.9006217"><ele>1358.6666666666665</ele><time>2026-04-26T14:03:18.472Z</time></trkpt><trkpt lat="46.1923733" lon="11.9008332"><ele>1357.3333333333333</ele><time>2026-04-26T14:03:19.477Z</time></trkpt><trkpt lat="46.1924165" lon="11.9010412"><ele>1356.0</ele><time>2026-04-26T14:03:20.462Z</time></trkpt><trkpt lat="46.1924739" lon="11.9012429"><ele>1356.0</ele><time>2026-04-26T14:03:21.454Z</time></trkpt><trkpt lat="46.1924976" lon="11.9014505"><ele>1356.0</ele><time>2026-04-26T14:03:22.456Z</time></trkpt><trkpt lat="46.19253" lon="11.9016494"><ele>1356.0</ele><time>2026-04-26T14:03:23.455Z</time></trkpt><trkpt lat="46.1925475" lon="11.9018379"><ele>1356.0</ele><time>2026-04-26T14:03:24.463Z</time></trkpt><trkpt lat="46.1925729" lon="11.9020173"><ele>1357.25</ele><time>2026-04-26T14:03:25.452Z</time></trkpt><trkpt lat="46.1925752" lon="11.9021957"><ele>1358.5</ele><time>2026-04-26T14:03:26.464Z</time></trkpt><trkpt lat="46.1925837" lon="11.9023654"><ele>1359.75</ele><time>2026-04-26T14:03:27.471Z</time></trkpt><trkpt lat="46.1925915" lon="11.9025318"><ele>1361.0</ele><time>2026-04-26T14:03:28.478Z</time></trkpt><trkpt lat="46.1926091" lon="11.9026978"><ele>1362.25</ele><time>2026-04-26T14:03:29.47Z</time></trkpt><trkpt lat="46.1926102" lon="11.9028687"><ele>1363.5</ele><time>2026-04-26T14:03:30.462Z</time></trkpt><trkpt lat="46.1926302" lon="11.9030388"><ele>1364.75</ele><time>2026-04-26T14:03:31.456Z</time></trkpt><trkpt lat="46.1926462" lon="11.9032112"><ele>1366.0</ele><time>2026-04-26T14:03:32.462Z</time></trkpt><trkpt lat="46.1926678" lon="11.9033779"><ele>1368.0</ele><time>2026-04-26T14:03:33.462Z</time></trkpt><trkpt lat="46.19269" lon="11.903534"><ele>1370.0</ele><time>2026-04-26T14:03:34.45Z</time></trkpt><trkpt lat="46.1927157" lon="11.9036743"><ele>1372.0</ele><time>2026-04-26T14:03:35.467Z</time></trkpt><trkpt lat="46.1927384" lon="11.9038034"><ele>1374.0</ele><time>2026-04-26T14:03:36.474Z</time></trkpt><trkpt lat="46.1927791" lon="11.9039131"><ele>1376.0</ele><time>2026-04-26T14:03:37.477Z</time></trkpt><trkpt lat="46.1928028" lon="11.9040042"><ele>1376.0</ele><time>2026-04-26T14:03:38.458Z</time></trkpt><trkpt lat="46.1928483" lon="11.9041331"><ele>1376.0</ele><time>2026-04-26T14:03:40.454Z</time></trkpt><trkpt lat="46.1928539" lon="11.9042397"><ele>1376.0</ele><time>2026-04-26T14:03:42.455Z</time></trkpt><trkpt lat="46.1928871" lon="11.9043461"><ele>1376.0</ele><time>2026-04-26T14:05:27.454Z</time></trkpt><trkpt lat="46.1929057" lon="11.904439"><ele>1376.0</ele><time>2026-04-26T14:05:29.46Z</time></trkpt><trkpt lat="46.1929411" lon="11.9046274"><ele>1379.0</ele><time>2026-04-26T14:05:31.468Z</time></trkpt><trkpt lat="46.1929576" lon="11.9047442"><ele>1382.0</ele><time>2026-04-26T14:05:32.466Z</time></trkpt><trkpt lat="46.1929769" lon="11.9048727"><ele>1385.0</ele><time>2026-04-26T14:05:33.467Z</time></trkpt><trkpt lat="46.1929982" lon="11.9049997"><ele>1388.0</ele><time>2026-04-26T14:05:34.456Z</time></trkpt><trkpt lat="46.1930209" lon="11.9051361"><ele>1391.0</ele><time>2026-04-26T14:05:35.461Z</time></trkpt><trkpt lat="46.1930435" lon="11.9052722"><ele>1391.5</ele><time>2026-04-26T14:05:36.476Z</time></trkpt><trkpt lat="46.1930606" lon="11.9054052"><ele>1392.0</ele><time>2026-04-26T14:05:37.469Z</time></trkpt><trkpt lat="46.1930781" lon="11.9055314"><ele>1392.5</ele><time>2026-04-26T14:05:38.455Z</time></trkpt><trkpt lat="46.1931008" lon="11.9056474"><ele>1393.0</ele><time>2026-04-26T14:05:39.46Z</time></trkpt><trkpt lat="46.1931232" lon="11.905756"><ele>1393.5</ele><time>2026-04-26T14:05:40.449Z</time></trkpt><trkpt lat="46.1931381" lon="11.9058698"><ele>1394.0</ele><time>2026-04-26T14:05:41.465Z</time></trkpt><trkpt lat="46.1931523" lon="11.9059736"><ele>1392.3333333333335</ele><time>2026-04-26T14:05:42.446Z</time></trkpt><trkpt lat="46.1931658" lon="11.9060647"><ele>1390.6666666666667</ele><time>2026-04-26T14:05:43.472Z</time></trkpt><trkpt lat="46.1932099" lon="11.9062108"><ele>1389.0</ele><time>2026-04-26T14:05:45.453Z</time></trkpt><trkpt lat="46.1932341" lon="11.9063485"><ele>1387.3333333333333</ele><time>2026-04-26T14:05:47.459Z</time></trkpt><trkpt lat="46.1932455" lon="11.9064606"><ele>1385.6666666666665</ele><time>2026-04-26T14:05:49.471Z</time></trkpt><trkpt lat="46.1932358" lon="11.9065507"><ele>1384.0</ele><time>2026-04-26T14:05:51.467Z</time></trkpt><trkpt lat="46.1932478" lon="11.9066694"><ele>1370.0</ele><time>2026-04-26T14:05:54.464Z</time></trkpt><trkpt lat="46.1932595" lon="11.906776"><ele>1367.0</ele><time>2026-04-26T14:05:57.462Z</time></trkpt><trkpt lat="46.1933328" lon="11.9067941"><ele>1367.0</ele><time>2026-04-26T14:06:00.457Z</time></trkpt><trkpt lat="46.1934123" lon="11.9067968"><ele>1367.0</ele><time>2026-04-26T14:07:22.463Z</time></trkpt></trkseg><trkseg><trkpt lat="46.19321" lon="11.9068859"><ele>1367.0</ele><time>2026-04-26T14:26:07.824Z</time></trkpt><trkpt lat="46.1930526" lon="11.9070326"><ele>1367.0</ele><time>2026-04-26T14:26:08.85Z</time></trkpt><trkpt lat="46.1930998" lon="11.9067813"><ele>1367.0</ele><time>2026-04-26T14:27:24.822Z</time></trkpt><trkpt lat="46.1934606" lon="11.9068024"><ele>1367.0</ele><time>2026-04-26T14:29:00.809Z</time></trkpt><trkpt lat="46.1933958" lon="11.906753"><ele>1367.0</ele><time>2026-04-26T14:29:04.823Z</time></trkpt><trkpt lat="46.1931466" lon="11.9067468"><ele>1367.0</ele><time>2026-04-26T14:29:05.869Z</time></trkpt><trkpt lat="46.1933188" lon="11.9067347"><ele>1367.0</ele><time>2026-04-26T14:29:08.87Z</time></trkpt><trkpt lat="46.1934194" lon="11.9067569"><ele>1367.0</ele><time>2026-04-26T14:29:32.845Z</time></trkpt><trkpt lat="46.1933405" lon="11.9069653"><ele>1367.0</ele><time>2026-04-26T14:32:38.86Z</time></trkpt><trkpt lat="46.1932567" lon="11.907196"><ele>1367.0</ele><time>2026-04-26T14:33:00.848Z</time></trkpt><trkpt lat="46.1932817" lon="11.9075061"><ele>1363.0</ele><time>2026-04-26T14:33:44.862Z</time></trkpt><trkpt lat="46.193382" lon="11.9082032"><ele>1363.0</ele><time>2026-04-26T14:33:50.85Z</time></trkpt><trkpt lat="46.1933989" lon="11.9083234"><ele>1363.0</ele><time>2026-04-26T14:33:51.853Z</time></trkpt><trkpt lat="46.1934168" lon="11.9084488"><ele>1363.0</ele><time>2026-04-26T14:33:52.845Z</time></trkpt><trkpt lat="46.1934347" lon="11.9085791"><ele>1363.0</ele><time>2026-04-26T14:33:53.845Z</time></trkpt><trkpt lat="46.193456" lon="11.9087185"><ele>1363.0</ele><time>2026-04-26T14:33:54.843Z</time></trkpt><trkpt lat="46.1934752" lon="11.9088641"><ele>1363.0</ele><time>2026-04-26T14:33:55.857Z</time></trkpt><trkpt lat="46.1934929" lon="11.909008"><ele>1363.0</ele><time>2026-04-26T14:33:56.842Z</time></trkpt><trkpt lat="46.1935058" lon="11.9091485"><ele>1363.0</ele><time>2026-04-26T14:33:57.881Z</time></trkpt><trkpt lat="46.1935147" lon="11.9092876"><ele>1363.0</ele><time>2026-04-26T14:33:58.866Z</time></trkpt><trkpt lat="46.193523" lon="11.9094279"><ele>1363.0</ele><time>2026-04-26T14:33:59.855Z</time></trkpt><trkpt lat="46.1935353" lon="11.9095666"><ele>1361.8000000000002</ele><time>2026-04-26T14:34:00.854Z</time></trkpt><trkpt lat="46.1935458" lon="11.9097076"><ele>1360.6</ele><time>2026-04-26T14:34:01.854Z</time></trkpt><trkpt lat="46.1935574" lon="11.9098476"><ele>1359.4</ele><time>2026-04-26T14:34:02.853Z</time></trkpt><trkpt lat="46.1935665" lon="11.9099857"><ele>1358.1999999999998</ele><time>2026-04-26T14:34:03.851Z</time></trkpt><trkpt lat="46.193576" lon="11.9101245"><ele>1357.0</ele><time>2026-04-26T14:34:04.861Z</time></trkpt><trkpt lat="46.1935866" lon="11.9102667"><ele>1356.0</ele><time>2026-04-26T14:34:05.862Z</time></trkpt><trkpt lat="46.193596" lon="11.9104141"><ele>1355.0</ele><time>2026-04-26T14:34:06.868Z</time></trkpt><trkpt lat="46.1936109" lon="11.9105662"><ele>1354.0</ele><time>2026-04-26T14:34:07.854Z</time></trkpt><trkpt lat="46.193639" lon="11.9107255"><ele>1353.0</ele><time>2026-04-26T14:34:08.86Z</time></trkpt><trkpt lat="46.1936731" lon="11.910888"><ele>1352.0</ele><time>2026-04-26T14:34:09.857Z</time></trkpt><trkpt lat="46.1937107" lon="11.9110586"><ele>1351.25</ele><time>2026-04-26T14:34:10.847Z</time></trkpt><trkpt lat="46.1937525" lon="11.9112368"><ele>1350.5</ele><time>2026-04-26T14:34:11.852Z</time></trkpt><trkpt lat="46.1937941" lon="11.9114194"><ele>1349.75</ele><time>2026-04-26T14:34:12.85Z</time></trkpt><trkpt lat="46.1938345" lon="11.9116063"><ele>1349.0</ele><time>2026-04-26T14:34:13.869Z</time></trkpt><trkpt lat="46.1938749" lon="11.9117923"><ele>1349.25</ele><time>2026-04-26T14:34:14.863Z</time></trkpt><trkpt lat="46.1939133" lon="11.9119805"><ele>1349.5</ele><time>2026-04-26T14:34:15.855Z</time></trkpt><trkpt lat="46.1939531" lon="11.9121672"><ele>1349.75</ele><time>2026-04-26T14:34:16.852Z</time></trkpt><trkpt lat="46.1939978" lon="11.9123503"><ele>1350.0</ele><time>2026-04-26T14:34:17.845Z</time></trkpt><trkpt lat="46.1940442" lon="11.9125324"><ele>1347.5</ele><time>2026-04-26T14:34:18.855Z</time></trkpt><trkpt lat="46.1940928" lon="11.912712"><ele>1345.0</ele><time>2026-04-26T14:34:19.862Z</time></trkpt><trkpt lat="46.1941426" lon="11.9128882"><ele>1342.5</ele><time>2026-04-26T14:34:20.851Z</time></trkpt><trkpt lat="46.1941852" lon="11.9130681"><ele>1340.0</ele><time>2026-04-26T14:34:21.855Z</time></trkpt><trkpt lat="46.1942188" lon="11.9132528"><ele>1337.75</ele><time>2026-04-26T14:34:22.849Z</time></trkpt><trkpt lat="46.1942354" lon="11.9134464"><ele>1335.5</ele><time>2026-04-26T14:34:23.856Z</time></trkpt><trkpt lat="46.1942532" lon="11.9136392"><ele>1333.25</ele><time>2026-04-26T14:34:24.855Z</time></trkpt><trkpt lat="46.1942614" lon="11.913829"><ele>1331.0</ele><time>2026-04-26T14:34:25.871Z</time></trkpt><trkpt lat="46.1942631" lon="11.914008"><ele>1331.0</ele><time>2026-04-26T14:34:26.853Z</time></trkpt><trkpt lat="46.1942631" lon="11.9141646"><ele>1331.0</ele><time>2026-04-26T14:34:27.848Z</time></trkpt><trkpt lat="46.1942698" lon="11.9142997"><ele>1331.0</ele><time>2026-04-26T14:34:28.867Z</time></trkpt><trkpt lat="46.1942772" lon="11.9144204"><ele>1331.0</ele><time>2026-04-26T14:34:29.855Z</time></trkpt><trkpt lat="46.1942973" lon="11.9145323"><ele>1331.0</ele><time>2026-04-26T14:34:30.859Z</time></trkpt><trkpt lat="46.1943565" lon="11.9146187"><ele>1329.6</ele><time>2026-04-26T14:34:31.854Z</time></trkpt><trkpt lat="46.1944368" lon="11.9146693"><ele>1328.1999999999998</ele><time>2026-04-26T14:34:32.849Z</time></trkpt><trkpt lat="46.1945371" lon="11.9146821"><ele>1326.8000000000002</ele><time>2026-04-26T14:34:33.848Z</time></trkpt><trkpt lat="46.1946438" lon="11.9146973"><ele>1325.4</ele><time>2026-04-26T14:34:34.851Z</time></trkpt><trkpt lat="46.1947569" lon="11.9147177"><ele>1324.0</ele><time>2026-04-26T14:34:35.844Z</time></trkpt><trkpt lat="46.1948789" lon="11.9147521"><ele>1323.75</ele><time>2026-04-26T14:34:36.85Z</time></trkpt><trkpt lat="46.1950003" lon="11.9148066"><ele>1323.5</ele><time>2026-04-26T14:34:37.855Z</time></trkpt><trkpt lat="46.1951226" lon="11.9148851"><ele>1323.25</ele><time>2026-04-26T14:34:38.863Z</time></trkpt><trkpt lat="46.1952437" lon="11.9149861"><ele>1323.0</ele><time>2026-04-26T14:34:39.861Z</time></trkpt><trkpt lat="46.1953606" lon="11.915114"><ele>1321.0</ele><time>2026-04-26T14:34:40.852Z</time></trkpt><trkpt lat="46.1954717" lon="11.9152614"><ele>1319.0</ele><time>2026-04-26T14:34:41.843Z</time></trkpt><trkpt lat="46.1955804" lon="11.9154221"><ele>1317.0</ele><time>2026-04-26T14:34:42.858Z</time></trkpt><trkpt lat="46.1956748" lon="11.9156001"><ele>1317.0</ele><time>2026-04-26T14:34:43.851Z</time></trkpt><trkpt lat="46.1957693" lon="11.915768"><ele>1317.0</ele><time>2026-04-26T14:34:44.856Z</time></trkpt><trkpt lat="46.1958644" lon="11.9159273"><ele>1317.0</ele><time>2026-04-26T14:34:45.845Z</time></trkpt><trkpt lat="46.1959549" lon="11.9160865"><ele>1317.0</ele><time>2026-04-26T14:34:46.86Z</time></trkpt><trkpt lat="46.1960343" lon="11.9162517"><ele>1314.5</ele><time>2026-04-26T14:34:47.889Z</time></trkpt><trkpt lat="46.196108" lon="11.9164195"><ele>1312.0</ele><time>2026-04-26T14:34:48.854Z</time></trkpt><trkpt lat="46.1961803" lon="11.9165866"><ele>1309.5</ele><time>2026-04-26T14:34:49.856Z</time></trkpt><trkpt lat="46.1962557" lon="11.9167493"><ele>1307.0</ele><time>2026-04-26T14:34:50.859Z</time></trkpt><trkpt lat="46.1963401" lon="11.9169018"><ele>1306.25</ele><time>2026-04-26T14:34:51.865Z</time></trkpt><trkpt lat="46.1964323" lon="11.9170445"><ele>1305.5</ele><time>2026-04-26T14:34:52.848Z</time></trkpt><trkpt lat="46.1965302" lon="11.9171795"><ele>1304.75</ele><time>2026-04-26T14:34:53.849Z</time></trkpt><trkpt lat="46.196631" lon="11.9173103"><ele>1304.0</ele><time>2026-04-26T14:34:54.849Z</time></trkpt><trkpt lat="46.1967457" lon="11.9174195"><ele>1304.0</ele><time>2026-04-26T14:34:55.845Z</time></trkpt><trkpt lat="46.196855" lon="11.9175326"><ele>1304.0</ele><time>2026-04-26T14:34:56.857Z</time></trkpt><trkpt lat="46.1969638" lon="11.9176443"><ele>1304.0</ele><time>2026-04-26T14:34:57.849Z</time></trkpt><trkpt lat="46.1970686" lon="11.9177633"><ele>1304.0</ele><time>2026-04-26T14:34:58.842Z</time></trkpt><trkpt lat="46.1971658" lon="11.9178928"><ele>1304.0</ele><time>2026-04-26T14:34:59.855Z</time></trkpt><trkpt lat="46.1972574" lon="11.9180321"><ele>1304.0</ele><time>2026-04-26T14:35:00.859Z</time></trkpt><trkpt lat="46.1973406" lon="11.9181848"><ele>1304.0</ele><time>2026-04-26T14:35:01.859Z</time></trkpt><trkpt lat="46.1974102" lon="11.9183538"><ele>1304.0</ele><time>2026-04-26T14:35:02.856Z</time></trkpt><trkpt lat="46.1974781" lon="11.9185322"><ele>1302.75</ele><time>2026-04-26T14:35:03.844Z</time></trkpt><trkpt lat="46.1975337" lon="11.9187257"><ele>1301.5</ele><time>2026-04-26T14:35:04.846Z</time></trkpt><trkpt lat="46.1975788" lon="11.9189291"><ele>1300.25</ele><time>2026-04-26T14:35:05.856Z</time></trkpt><trkpt lat="46.1976164" lon="11.9191338"><ele>1299.0</ele><time>2026-04-26T14:35:06.844Z</time></trkpt><trkpt lat="46.1976377" lon="11.9193462"><ele>1297.25</ele><time>2026-04-26T14:35:07.893Z</time></trkpt><trkpt lat="46.197658" lon="11.9195551"><ele>1295.5</ele><time>2026-04-26T14:35:08.852Z</time></trkpt><trkpt lat="46.197686" lon="11.9197536"><ele>1293.75</ele><time>2026-04-26T14:35:09.843Z</time></trkpt><trkpt lat="46.1976786" lon="11.9199481"><ele>1292.0</ele><time>2026-04-26T14:35:10.865Z</time></trkpt><trkpt lat="46.1976412" lon="11.9201296"><ele>1290.75</ele><time>2026-04-26T14:35:11.853Z</time></trkpt><trkpt lat="46.1975894" lon="11.9203012"><ele>1289.5</ele><time>2026-04-26T14:35:12.853Z</time></trkpt><trkpt lat="46.1975127" lon="11.9204251"><ele>1288.25</ele><time>2026-04-26T14:35:13.862Z</time></trkpt><trkpt lat="46.1974179" lon="11.9204948"><ele>1287.0</ele><time>2026-04-26T14:35:14.846Z</time></trkpt><trkpt lat="46.1973409" lon="11.9205875"><ele>1286.0</ele><time>2026-04-26T14:35:15.857Z</time></trkpt><trkpt lat="46.1972755" lon="11.9206727"><ele>1285.0</ele><time>2026-04-26T14:35:16.855Z</time></trkpt><trkpt lat="46.1972354" lon="11.9207797"><ele>1284.0</ele><time>2026-04-26T14:35:17.854Z</time></trkpt><trkpt lat="46.197272" lon="11.920902"><ele>1283.0</ele><time>2026-04-26T14:35:18.846Z</time></trkpt><trkpt lat="46.1973358" lon="11.9209991"><ele>1282.0</ele><time>2026-04-26T14:35:19.852Z</time></trkpt><trkpt lat="46.197438" lon="11.9210087"><ele>1281.25</ele><time>2026-04-26T14:35:20.85Z</time></trkpt><trkpt lat="46.1975398" lon="11.9209345"><ele>1280.5</ele><time>2026-04-26T14:35:21.864Z</time></trkpt><trkpt lat="46.1976457" lon="11.9209017"><ele>1279.75</ele><time>2026-04-26T14:35:22.85Z</time></trkpt><trkpt lat="46.1977541" lon="11.9208468"><ele>1279.0</ele><time>2026-04-26T14:35:23.845Z</time></trkpt><trkpt lat="46.1978657" lon="11.9208081"><ele>1278.75</ele><time>2026-04-26T14:35:24.842Z</time></trkpt><trkpt lat="46.1979891" lon="11.9208456"><ele>1278.5</ele><time>2026-04-26T14:35:25.86Z</time></trkpt><trkpt lat="46.1981085" lon="11.920846"><ele>1278.25</ele><time>2026-04-26T14:35:26.843Z</time></trkpt><trkpt lat="46.1982285" lon="11.9208381"><ele>1278.0</ele><time>2026-04-26T14:35:27.872Z</time></trkpt><trkpt lat="46.1983494" lon="11.9208256"><ele>1278.0</ele><time>2026-04-26T14:35:28.848Z</time></trkpt><trkpt lat="46.1984716" lon="11.9207953"><ele>1278.0</ele><time>2026-04-26T14:35:29.857Z</time></trkpt><trkpt lat="46.1985914" lon="11.9207858"><ele>1278.0</ele><time>2026-04-26T14:35:30.85Z</time></trkpt><trkpt lat="46.1987068" lon="11.9208435"><ele>1278.0</ele><time>2026-04-26T14:35:31.87Z</time></trkpt><trkpt lat="46.198821" lon="11.9209095"><ele>1276.2</ele><time>2026-04-26T14:35:32.841Z</time></trkpt><trkpt lat="46.1989199" lon="11.9210102"><ele>1274.4</ele><time>2026-04-26T14:35:33.853Z</time></trkpt><trkpt lat="46.1990042" lon="11.9211139"><ele>1272.6000000000001</ele><time>2026-04-26T14:35:34.844Z</time></trkpt><trkpt lat="46.1990791" lon="11.9212169"><ele>1270.8</ele><time>2026-04-26T14:35:35.85Z</time></trkpt><trkpt lat="46.19918" lon="11.9212762"><ele>1269.0</ele><time>2026-04-26T14:35:36.848Z</time></trkpt><trkpt lat="46.1993002" lon="11.9212524"><ele>1265.25</ele><time>2026-04-26T14:35:37.858Z</time></trkpt><trkpt lat="46.1994102" lon="11.9212396"><ele>1261.5</ele><time>2026-04-26T14:35:38.861Z</time></trkpt><trkpt lat="46.1995286" lon="11.9212072"><ele>1257.75</ele><time>2026-04-26T14:35:39.841Z</time></trkpt><trkpt lat="46.1996585" lon="11.9211789"><ele>1254.0</ele><time>2026-04-26T14:35:40.864Z</time></trkpt><trkpt lat="46.1997925" lon="11.92114"><ele>1249.5</ele><time>2026-04-26T14:35:41.862Z</time></trkpt><trkpt lat="46.1999318" lon="11.9210615"><ele>1245.0</ele><time>2026-04-26T14:35:42.858Z</time></trkpt><trkpt lat="46.2000735" lon="11.921014"><ele>1240.5</ele><time>2026-04-26T14:35:43.844Z</time></trkpt><trkpt lat="46.2002139" lon="11.9209922"><ele>1236.0</ele><time>2026-04-26T14:35:44.862Z</time></trkpt><trkpt lat="46.2003526" lon="11.9209548"><ele>1236.0</ele><time>2026-04-26T14:35:45.86Z</time></trkpt><trkpt lat="46.2004835" lon="11.9209448"><ele>1236.0</ele><time>2026-04-26T14:35:46.859Z</time></trkpt><trkpt lat="46.2006059" lon="11.9209394"><ele>1236.0</ele><time>2026-04-26T14:35:47.868Z</time></trkpt><trkpt lat="46.2007146" lon="11.9209595"><ele>1236.0</ele><time>2026-04-26T14:35:48.857Z</time></trkpt><trkpt lat="46.200815" lon="11.9209979"><ele>1234.1666666666667</ele><time>2026-04-26T14:35:49.842Z</time></trkpt><trkpt lat="46.200916" lon="11.9210126"><ele>1232.3333333333333</ele><time>2026-04-26T14:35:50.844Z</time></trkpt><trkpt lat="46.2010133" lon="11.9209932"><ele>1230.5</ele><time>2026-04-26T14:35:51.857Z</time></trkpt><trkpt lat="46.2011006" lon="11.9209603"><ele>1228.6666666666665</ele><time>2026-04-26T14:35:52.861Z</time></trkpt><trkpt lat="46.201154" lon="11.9208907"><ele>1226.8333333333333</ele><time>2026-04-26T14:35:53.852Z</time></trkpt><trkpt lat="46.2012221" lon="11.9208595"><ele>1225.0</ele><time>2026-04-26T14:35:54.841Z</time></trkpt><trkpt lat="46.2012998" lon="11.9208471"><ele>1224.25</ele><time>2026-04-26T14:35:55.841Z</time></trkpt><trkpt lat="46.2013956" lon="11.9208931"><ele>1223.5</ele><time>2026-04-26T14:35:56.854Z</time></trkpt><trkpt lat="46.201504" lon="11.9209482"><ele>1222.75</ele><time>2026-04-26T14:35:57.838Z</time></trkpt><trkpt lat="46.2016287" lon="11.9209793"><ele>1222.0</ele><time>2026-04-26T14:35:58.857Z</time></trkpt><trkpt lat="46.2017688" lon="11.9210855"><ele>1222.0</ele><time>2026-04-26T14:35:59.866Z</time></trkpt><trkpt lat="46.2019179" lon="11.9211697"><ele>1222.0</ele><time>2026-04-26T14:36:00.856Z</time></trkpt><trkpt lat="46.2020665" lon="11.921251"><ele>1222.0</ele><time>2026-04-26T14:36:01.854Z</time></trkpt><trkpt lat="46.2022118" lon="11.9213173"><ele>1222.0</ele><time>2026-04-26T14:36:02.864Z</time></trkpt><trkpt lat="46.2023694" lon="11.9213237"><ele>1222.0</ele><time>2026-04-26T14:36:03.857Z</time></trkpt><trkpt lat="46.2025249" lon="11.9213022"><ele>1222.0</ele><time>2026-04-26T14:36:04.858Z</time></trkpt><trkpt lat="46.2026669" lon="11.9212596"><ele>1222.0</ele><time>2026-04-26T14:36:05.849Z</time></trkpt><trkpt lat="46.2028017" lon="11.9211635"><ele>1222.0</ele><time>2026-04-26T14:36:06.852Z</time></trkpt><trkpt lat="46.2029384" lon="11.9210707"><ele>1222.0</ele><time>2026-04-26T14:36:07.84Z</time></trkpt><trkpt lat="46.2030719" lon="11.9209759"><ele>1218.5</ele><time>2026-04-26T14:36:08.841Z</time></trkpt><trkpt lat="46.2032105" lon="11.9209053"><ele>1215.0</ele><time>2026-04-26T14:36:09.859Z</time></trkpt><trkpt lat="46.2033568" lon="11.9208798"><ele>1211.5</ele><time>2026-04-26T14:36:10.857Z</time></trkpt><trkpt lat="46.203498" lon="11.9208423"><ele>1208.0</ele><time>2026-04-26T14:36:11.852Z</time></trkpt><trkpt lat="46.2036345" lon="11.9208025"><ele>1212.25</ele><time>2026-04-26T14:36:12.851Z</time></trkpt><trkpt lat="46.2037518" lon="11.9207118"><ele>1216.5</ele><time>2026-04-26T14:36:13.85Z</time></trkpt><trkpt lat="46.2038574" lon="11.9205808"><ele>1220.75</ele><time>2026-04-26T14:36:14.845Z</time></trkpt><trkpt lat="46.2039516" lon="11.920479"><ele>1225.0</ele><time>2026-04-26T14:36:15.867Z</time></trkpt><trkpt lat="46.2040272" lon="11.9203965"><ele>1225.0</ele><time>2026-04-26T14:36:16.861Z</time></trkpt><trkpt lat="46.204095" lon="11.9203426"><ele>1225.0</ele><time>2026-04-26T14:36:17.845Z</time></trkpt><trkpt lat="46.2041769" lon="11.9202878"><ele>1225.0</ele><time>2026-04-26T14:36:19.854Z</time></trkpt><trkpt lat="46.2042703" lon="11.9202557"><ele>1225.0</ele><time>2026-04-26T14:36:23.847Z</time></trkpt><trkpt lat="46.2042351" lon="11.92015"><ele>1225.0</ele><time>2026-04-26T14:36:24.849Z</time></trkpt><trkpt lat="46.2040698" lon="11.9201684"><ele>1238.0</ele><time>2026-04-26T14:36:25.858Z</time></trkpt><trkpt lat="46.2037461" lon="11.9206577"><ele>1238.0</ele><time>2026-04-26T14:36:26.853Z</time></trkpt><trkpt lat="46.203609" lon="11.9208173"><ele>1238.0</ele><time>2026-04-26T14:36:27.85Z</time></trkpt><trkpt lat="46.2034737" lon="11.9210181"><ele>1238.0</ele><time>2026-04-26T14:36:28.842Z</time></trkpt><trkpt lat="46.2033304" lon="11.9212408"><ele>1232.6666666666667</ele><time>2026-04-26T14:36:29.85Z</time></trkpt><trkpt lat="46.2032014" lon="11.9213901"><ele>1227.3333333333333</ele><time>2026-04-26T14:36:30.854Z</time></trkpt><trkpt lat="46.2030788" lon="11.9215271"><ele>1222.0</ele><time>2026-04-26T14:36:31.856Z</time></trkpt><trkpt lat="46.2029566" lon="11.9216461"><ele>1212.0</ele><time>2026-04-26T14:36:32.852Z</time></trkpt><trkpt lat="46.2028335" lon="11.921768"><ele>1202.0</ele><time>2026-04-26T14:36:33.839Z</time></trkpt><trkpt lat="46.2027128" lon="11.9218546"><ele>1192.0</ele><time>2026-04-26T14:36:34.845Z</time></trkpt><trkpt lat="46.2025817" lon="11.9219372"><ele>1182.0</ele><time>2026-04-26T14:36:35.862Z</time></trkpt><trkpt lat="46.2024515" lon="11.9219886"><ele>1184.5</ele><time>2026-04-26T14:36:36.86Z</time></trkpt><trkpt lat="46.2023232" lon="11.922078"><ele>1187.0</ele><time>2026-04-26T14:36:37.859Z</time></trkpt><trkpt lat="46.2021874" lon="11.922158"><ele>1189.5</ele><time>2026-04-26T14:36:38.857Z</time></trkpt><trkpt lat="46.20206" lon="11.9222363"><ele>1192.0</ele><time>2026-04-26T14:36:39.843Z</time></trkpt><trkpt lat="46.2019482" lon="11.9222901"><ele>1192.0</ele><time>2026-04-26T14:36:40.864Z</time></trkpt><trkpt lat="46.2018591" lon="11.9223353"><ele>1192.0</ele><time>2026-04-26T14:36:41.86Z</time></trkpt><trkpt lat="46.201793" lon="11.9223892"><ele>1192.0</ele><time>2026-04-26T14:36:42.86Z</time></trkpt><trkpt lat="46.2017239" lon="11.9224898"><ele>1192.0</ele><time>2026-04-26T14:36:44.886Z</time></trkpt><trkpt lat="46.2018296" lon="11.9225537"><ele>1192.0</ele><time>2026-04-26T14:36:46.85Z</time></trkpt><trkpt lat="46.2019379" lon="11.9225624"><ele>1192.0</ele><time>2026-04-26T14:36:47.853Z</time></trkpt><trkpt lat="46.2020613" lon="11.9225727"><ele>1192.0</ele><time>2026-04-26T14:36:48.846Z</time></trkpt><trkpt lat="46.2022066" lon="11.922556"><ele>1192.0</ele><time>2026-04-26T14:36:49.86Z</time></trkpt><trkpt lat="46.2023617" lon="11.9226055"><ele>1192.0</ele><time>2026-04-26T14:36:50.848Z</time></trkpt><trkpt lat="46.2025262" lon="11.9226548"><ele>1183.0</ele><time>2026-04-26T14:36:51.854Z</time></trkpt><trkpt lat="46.2026934" lon="11.9226586"><ele>1174.0</ele><time>2026-04-26T14:36:52.861Z</time></trkpt><trkpt lat="46.2028595" lon="11.9226635"><ele>1165.0</ele><time>2026-04-26T14:36:53.841Z</time></trkpt><trkpt lat="46.203017" lon="11.9226567"><ele>1161.25</ele><time>2026-04-26T14:36:54.858Z</time></trkpt><trkpt lat="46.2031674" lon="11.9226833"><ele>1157.5</ele><time>2026-04-26T14:36:55.84Z</time></trkpt><trkpt lat="46.203314" lon="11.9227276"><ele>1153.75</ele><time>2026-04-26T14:36:56.872Z</time></trkpt><trkpt lat="46.2034518" lon="11.9227689"><ele>1150.0</ele><time>2026-04-26T14:36:57.856Z</time></trkpt><trkpt lat="46.2035755" lon="11.9227862"><ele>1150.0</ele><time>2026-04-26T14:36:58.847Z</time></trkpt><trkpt lat="46.2036914" lon="11.9227441"><ele>1150.0</ele><time>2026-04-26T14:36:59.857Z</time></trkpt><trkpt lat="46.2037978" lon="11.9227145"><ele>1150.0</ele><time>2026-04-26T14:37:00.854Z</time></trkpt><trkpt lat="46.2038731" lon="11.9225707"><ele>1150.0</ele><time>2026-04-26T14:37:01.861Z</time></trkpt><trkpt lat="46.2039405" lon="11.9224269"><ele>1151.0</ele><time>2026-04-26T14:37:02.851Z</time></trkpt><trkpt lat="46.2040111" lon="11.9222582"><ele>1152.0</ele><time>2026-04-26T14:37:03.855Z</time></trkpt><trkpt lat="46.2040707" lon="11.9220901"><ele>1153.0</ele><time>2026-04-26T14:37:04.84Z</time></trkpt><trkpt lat="46.2041401" lon="11.9219732"><ele>1154.0</ele><time>2026-04-26T14:37:05.845Z</time></trkpt><trkpt lat="46.2041934" lon="11.921885"><ele>1154.0</ele><time>2026-04-26T14:37:06.86Z</time></trkpt><trkpt lat="46.2042773" lon="11.9218844"><ele>1154.0</ele><time>2026-04-26T14:37:07.845Z</time></trkpt><trkpt lat="46.2043542" lon="11.9219155"><ele>1154.0</ele><time>2026-04-26T14:37:08.853Z</time></trkpt><trkpt lat="46.2044326" lon="11.9219513"><ele>1154.0</ele><time>2026-04-26T14:37:09.855Z</time></trkpt><trkpt lat="46.2045206" lon="11.9220304"><ele>1154.0</ele><time>2026-04-26T14:37:10.849Z</time></trkpt><trkpt lat="46.2046352" lon="11.9221455"><ele>1154.0</ele><time>2026-04-26T14:37:11.86Z</time></trkpt><trkpt lat="46.2047492" lon="11.9222654"><ele>1154.0</ele><time>2026-04-26T14:37:12.858Z</time></trkpt><trkpt lat="46.2048529" lon="11.9223477"><ele>1154.0</ele><time>2026-04-26T14:37:13.86Z</time></trkpt><trkpt lat="46.2049281" lon="11.9224762"><ele>1154.0</ele><time>2026-04-26T14:37:14.874Z</time></trkpt><trkpt lat="46.2050076" lon="11.9225817"><ele>1150.5</ele><time>2026-04-26T14:37:15.845Z</time></trkpt><trkpt lat="46.2050492" lon="11.9227466"><ele>1147.0</ele><time>2026-04-26T14:37:16.86Z</time></trkpt><trkpt lat="46.2050612" lon="11.9229236"><ele>1143.5</ele><time>2026-04-26T14:37:17.845Z</time></trkpt><trkpt lat="46.2050574" lon="11.9230875"><ele>1140.0</ele><time>2026-04-26T14:37:18.847Z</time></trkpt><trkpt lat="46.2050654" lon="11.9232299"><ele>1140.0</ele><time>2026-04-26T14:37:19.875Z</time></trkpt><trkpt lat="46.2050922" lon="11.9233522"><ele>1140.0</ele><time>2026-04-26T14:37:20.859Z</time></trkpt><trkpt lat="46.2051284" lon="11.9234563"><ele>1140.0</ele><time>2026-04-26T14:37:21.853Z</time></trkpt><trkpt lat="46.2052084" lon="11.9235516"><ele>1140.0</ele><time>2026-04-26T14:37:22.849Z</time></trkpt><trkpt lat="46.2053255" lon="11.9235943"><ele>1140.0</ele><time>2026-04-26T14:37:23.844Z</time></trkpt><trkpt lat="46.20543" lon="11.9235976"><ele>1137.8333333333333</ele><time>2026-04-26T14:37:24.853Z</time></trkpt><trkpt lat="46.2055142" lon="11.9236449"><ele>1135.6666666666667</ele><time>2026-04-26T14:37:25.842Z</time></trkpt><trkpt lat="46.2055973" lon="11.9236736"><ele>1133.5</ele><time>2026-04-26T14:37:26.879Z</time></trkpt><trkpt lat="46.2056435" lon="11.9237743"><ele>1131.3333333333335</ele><time>2026-04-26T14:37:27.855Z</time></trkpt><trkpt lat="46.2056485" lon="11.9238762"><ele>1129.1666666666667</ele><time>2026-04-26T14:37:28.85Z</time></trkpt><trkpt lat="46.205585" lon="11.9239704"><ele>1127.0</ele><time>2026-04-26T14:37:29.847Z</time></trkpt><trkpt lat="46.2055062" lon="11.9240444"><ele>1127.0</ele><time>2026-04-26T14:37:30.848Z</time></trkpt><trkpt lat="46.2053921" lon="11.9241334"><ele>1127.0</ele><time>2026-04-26T14:37:31.855Z</time></trkpt><trkpt lat="46.2052742" lon="11.9241781"><ele>1127.0</ele><time>2026-04-26T14:37:32.858Z</time></trkpt><trkpt lat="46.2051581" lon="11.9242089"><ele>1127.0</ele><time>2026-04-26T14:37:33.852Z</time></trkpt><trkpt lat="46.2050494" lon="11.9242385"><ele>1126.25</ele><time>2026-04-26T14:37:34.856Z</time></trkpt><trkpt lat="46.2049468" lon="11.9242951"><ele>1125.5</ele><time>2026-04-26T14:37:35.848Z</time></trkpt><trkpt lat="46.204872" lon="11.9244203"><ele>1124.75</ele><time>2026-04-26T14:37:36.854Z</time></trkpt><trkpt lat="46.2048395" lon="11.9245974"><ele>1124.0</ele><time>2026-04-26T14:37:37.86Z</time></trkpt><trkpt lat="46.2047954" lon="11.9247542"><ele>1121.25</ele><time>2026-04-26T14:37:38.841Z</time></trkpt><trkpt lat="46.204795" lon="11.9249344"><ele>1118.5</ele><time>2026-04-26T14:37:39.858Z</time></trkpt><trkpt lat="46.2048132" lon="11.9251041"><ele>1115.75</ele><time>2026-04-26T14:37:40.854Z</time></trkpt><trkpt lat="46.2048405" lon="11.9252732"><ele>1113.0</ele><time>2026-04-26T14:37:41.856Z</time></trkpt><trkpt lat="46.2048996" lon="11.9254412"><ele>1113.0</ele><time>2026-04-26T14:37:42.855Z</time></trkpt><trkpt lat="46.2049644" lon="11.9256093"><ele>1113.0</ele><time>2026-04-26T14:37:43.845Z</time></trkpt><trkpt lat="46.2050409" lon="11.9257662"><ele>1113.0</ele><time>2026-04-26T14:37:44.864Z</time></trkpt><trkpt lat="46.2051068" lon="11.925921"><ele>1113.0</ele><time>2026-04-26T14:37:45.856Z</time></trkpt><trkpt lat="46.2051652" lon="11.9260827"><ele>1112.5</ele><time>2026-04-26T14:37:46.87Z</time></trkpt><trkpt lat="46.205224" lon="11.9262448"><ele>1112.0</ele><time>2026-04-26T14:37:47.863Z</time></trkpt><trkpt lat="46.2052923" lon="11.9263993"><ele>1111.5</ele><time>2026-04-26T14:37:48.853Z</time></trkpt><trkpt lat="46.205363" lon="11.9265538"><ele>1111.0</ele><time>2026-04-26T14:37:49.859Z</time></trkpt><trkpt lat="46.2054251" lon="11.926708"><ele>1110.0</ele><time>2026-04-26T14:37:50.866Z</time></trkpt><trkpt lat="46.2054875" lon="11.9268548"><ele>1109.0</ele><time>2026-04-26T14:37:51.863Z</time></trkpt><trkpt lat="46.2055495" lon="11.9269955"><ele>1108.0</ele><time>2026-04-26T14:37:52.863Z</time></trkpt><trkpt lat="46.2056112" lon="11.9271302"><ele>1107.0</ele><time>2026-04-26T14:37:53.851Z</time></trkpt><trkpt lat="46.2056786" lon="11.9272522"><ele>1109.2</ele><time>2026-04-26T14:37:54.865Z</time></trkpt><trkpt lat="46.2057658" lon="11.9273378"><ele>1111.4</ele><time>2026-04-26T14:37:55.841Z</time></trkpt><trkpt lat="46.2058696" lon="11.927382"><ele>1113.6</ele><time>2026-04-26T14:37:56.86Z</time></trkpt><trkpt lat="46.205979" lon="11.9274095"><ele>1115.8</ele><time>2026-04-26T14:37:57.846Z</time></trkpt><trkpt lat="46.206094" lon="11.927426"><ele>1118.0</ele><time>2026-04-26T14:37:58.857Z</time></trkpt><trkpt lat="46.2062059" lon="11.9274554"><ele>1118.0</ele><time>2026-04-26T14:37:59.859Z</time></trkpt><trkpt lat="46.2063193" lon="11.927455"><ele>1118.0</ele><time>2026-04-26T14:38:00.849Z</time></trkpt><trkpt lat="46.2064318" lon="11.9274624"><ele>1118.0</ele><time>2026-04-26T14:38:01.848Z</time></trkpt><trkpt lat="46.2065524" lon="11.9274247"><ele>1118.0</ele><time>2026-04-26T14:38:02.845Z</time></trkpt><trkpt lat="46.2066707" lon="11.927381"><ele>1118.8</ele><time>2026-04-26T14:38:03.832Z</time></trkpt><trkpt lat="46.2067847" lon="11.9273475"><ele>1119.6</ele><time>2026-04-26T14:38:04.858Z</time></trkpt><trkpt lat="46.2068913" lon="11.927315"><ele>1120.4</ele><time>2026-04-26T14:38:05.87Z</time></trkpt><trkpt lat="46.2069903" lon="11.9272999"><ele>1121.2</ele><time>2026-04-26T14:38:06.867Z</time></trkpt><trkpt lat="46.2070796" lon="11.9272745"><ele>1122.0</ele><time>2026-04-26T14:38:07.855Z</time></trkpt><trkpt lat="46.2071624" lon="11.9272678"><ele>1122.0</ele><time>2026-04-26T14:38:08.859Z</time></trkpt><trkpt lat="46.2072336" lon="11.927323"><ele>1122.0</ele><time>2026-04-26T14:38:09.871Z</time></trkpt><trkpt lat="46.2072822" lon="11.9274105"><ele>1122.0</ele><time>2026-04-26T14:38:10.845Z</time></trkpt><trkpt lat="46.2073153" lon="11.9275111"><ele>1122.0</ele><time>2026-04-26T14:38:11.861Z</time></trkpt><trkpt lat="46.2073466" lon="11.9276143"><ele>1122.0</ele><time>2026-04-26T14:38:12.871Z</time></trkpt><trkpt lat="46.2073813" lon="11.9277152"><ele>1122.0</ele><time>2026-04-26T14:38:13.852Z</time></trkpt><trkpt lat="46.2074227" lon="11.9278126"><ele>1120.6</ele><time>2026-04-26T14:38:14.842Z</time></trkpt><trkpt lat="46.2074734" lon="11.9278948"><ele>1119.2</ele><time>2026-04-26T14:38:15.855Z</time></trkpt><trkpt lat="46.2074987" lon="11.9279831"><ele>1117.8</ele><time>2026-04-26T14:38:16.855Z</time></trkpt><trkpt lat="46.2075529" lon="11.9280968"><ele>1116.4</ele><time>2026-04-26T14:38:18.856Z</time></trkpt><trkpt lat="46.2076793" lon="11.9280512"><ele>1115.0</ele><time>2026-04-26T14:38:20.854Z</time></trkpt><trkpt lat="46.2077452" lon="11.9279683"><ele>1115.0</ele><time>2026-04-26T14:38:21.878Z</time></trkpt><trkpt lat="46.2078308" lon="11.9278439"><ele>1115.0</ele><time>2026-04-26T14:38:22.852Z</time></trkpt><trkpt lat="46.2079166" lon="11.9277265"><ele>1115.0</ele><time>2026-04-26T14:38:23.842Z</time></trkpt><trkpt lat="46.2080007" lon="11.9276189"><ele>1115.0</ele><time>2026-04-26T14:38:24.866Z</time></trkpt><trkpt lat="46.2080744" lon="11.9275093"><ele>1117.75</ele><time>2026-04-26T14:38:25.871Z</time></trkpt><trkpt lat="46.2081913" lon="11.9274592"><ele>1120.5</ele><time>2026-04-26T14:38:26.856Z</time></trkpt><trkpt lat="46.2083235" lon="11.927436"><ele>1123.25</ele><time>2026-04-26T14:38:27.852Z</time></trkpt><trkpt lat="46.2084427" lon="11.9274079"><ele>1126.0</ele><time>2026-04-26T14:38:28.852Z</time></trkpt><trkpt lat="46.2085737" lon="11.9274408"><ele>1126.0</ele><time>2026-04-26T14:38:29.844Z</time></trkpt><trkpt lat="46.208708" lon="11.9274655"><ele>1126.0</ele><time>2026-04-26T14:38:30.86Z</time></trkpt><trkpt lat="46.2088186" lon="11.927545"><ele>1126.0</ele><time>2026-04-26T14:38:31.863Z</time></trkpt><trkpt lat="46.2089214" lon="11.9276343"><ele>1126.0</ele><time>2026-04-26T14:38:32.857Z</time></trkpt><trkpt lat="46.2090152" lon="11.9277641"><ele>1125.5</ele><time>2026-04-26T14:38:33.848Z</time></trkpt><trkpt lat="46.2090867" lon="11.927945"><ele>1125.0</ele><time>2026-04-26T14:38:34.854Z</time></trkpt><trkpt lat="46.2091508" lon="11.9281236"><ele>1124.5</ele><time>2026-04-26T14:38:35.842Z</time></trkpt><trkpt lat="46.2092119" lon="11.9282955"><ele>1124.0</ele><time>2026-04-26T14:38:36.842Z</time></trkpt><trkpt lat="46.2092664" lon="11.9284688"><ele>1124.0</ele><time>2026-04-26T14:38:37.859Z</time></trkpt><trkpt lat="46.2093371" lon="11.9286281"><ele>1124.0</ele><time>2026-04-26T14:38:38.863Z</time></trkpt><trkpt lat="46.2093698" lon="11.928806"><ele>1124.0</ele><time>2026-04-26T14:38:39.839Z</time></trkpt><trkpt lat="46.2093575" lon="11.9289972"><ele>1124.0</ele><time>2026-04-26T14:38:40.867Z</time></trkpt><trkpt lat="46.2093329" lon="11.929178"><ele>1126.25</ele><time>2026-04-26T14:38:41.885Z</time></trkpt><trkpt lat="46.209278" lon="11.9293577"><ele>1128.5</ele><time>2026-04-26T14:38:42.853Z</time></trkpt><trkpt lat="46.2092127" lon="11.9295349"><ele>1130.75</ele><time>2026-04-26T14:38:43.859Z</time></trkpt><trkpt lat="46.2091443" lon="11.9297122"><ele>1133.0</ele><time>2026-04-26T14:38:44.849Z</time></trkpt><trkpt lat="46.2090737" lon="11.929885"><ele>1133.0</ele><time>2026-04-26T14:38:45.85Z</time></trkpt><trkpt lat="46.2090077" lon="11.9300497"><ele>1133.0</ele><time>2026-04-26T14:38:46.858Z</time></trkpt><trkpt lat="46.2089502" lon="11.9302178"><ele>1133.0</ele><time>2026-04-26T14:38:47.847Z</time></trkpt><trkpt lat="46.208902" lon="11.9303862"><ele>1133.0</ele><time>2026-04-26T14:38:48.853Z</time></trkpt><trkpt lat="46.2088461" lon="11.9305428"><ele>1131.75</ele><time>2026-04-26T14:38:49.858Z</time></trkpt><trkpt lat="46.2087832" lon="11.9306986"><ele>1130.5</ele><time>2026-04-26T14:38:50.847Z</time></trkpt><trkpt lat="46.2087355" lon="11.9308706"><ele>1129.25</ele><time>2026-04-26T14:38:51.846Z</time></trkpt><trkpt lat="46.2086931" lon="11.9310482"><ele>1128.0</ele><time>2026-04-26T14:38:52.861Z</time></trkpt><trkpt lat="46.2086572" lon="11.9312341"><ele>1128.0</ele><time>2026-04-26T14:38:53.845Z</time></trkpt><trkpt lat="46.208625" lon="11.931421"><ele>1128.0</ele><time>2026-04-26T14:38:54.852Z</time></trkpt><trkpt lat="46.2085939" lon="11.9316072"><ele>1128.0</ele><time>2026-04-26T14:38:55.837Z</time></trkpt><trkpt lat="46.2085657" lon="11.9317986"><ele>1128.0</ele><time>2026-04-26T14:38:56.855Z</time></trkpt><trkpt lat="46.2085385" lon="11.9319974"><ele>1130.25</ele><time>2026-04-26T14:38:57.863Z</time></trkpt><trkpt lat="46.2085125" lon="11.9322026"><ele>1132.5</ele><time>2026-04-26T14:38:58.854Z</time></trkpt><trkpt lat="46.208497" lon="11.9324118"><ele>1134.75</ele><time>2026-04-26T14:38:59.834Z</time></trkpt><trkpt lat="46.2084797" lon="11.9326237"><ele>1137.0</ele><time>2026-04-26T14:39:00.848Z</time></trkpt><trkpt lat="46.208466" lon="11.9328319"><ele>1140.0</ele><time>2026-04-26T14:39:01.845Z</time></trkpt><trkpt lat="46.2084301" lon="11.9330324"><ele>1143.0</ele><time>2026-04-26T14:39:02.844Z</time></trkpt><trkpt lat="46.208401" lon="11.9332223"><ele>1146.0</ele><time>2026-04-26T14:39:03.839Z</time></trkpt><trkpt lat="46.2083755" lon="11.9334074"><ele>1149.0</ele><time>2026-04-26T14:39:04.841Z</time></trkpt><trkpt lat="46.2083462" lon="11.9335918"><ele>1151.5</ele><time>2026-04-26T14:39:05.861Z</time></trkpt><trkpt lat="46.2083128" lon="11.933774"><ele>1154.0</ele><time>2026-04-26T14:39:06.872Z</time></trkpt><trkpt lat="46.2082852" lon="11.9339546"><ele>1156.5</ele><time>2026-04-26T14:39:07.842Z</time></trkpt><trkpt lat="46.2082684" lon="11.9341305"><ele>1159.0</ele><time>2026-04-26T14:39:08.851Z</time></trkpt><trkpt lat="46.2082484" lon="11.9343023"><ele>1162.25</ele><time>2026-04-26T14:39:09.866Z</time></trkpt><trkpt lat="46.208216" lon="11.9344763"><ele>1165.5</ele><time>2026-04-26T14:39:10.851Z</time></trkpt><trkpt lat="46.2081863" lon="11.9346509"><ele>1168.75</ele><time>2026-04-26T14:39:11.845Z</time></trkpt><trkpt lat="46.2081551" lon="11.9348254"><ele>1172.0</ele><time>2026-04-26T14:39:12.866Z</time></trkpt><trkpt lat="46.2081236" lon="11.9350041"><ele>1166.0</ele><time>2026-04-26T14:39:13.855Z</time></trkpt><trkpt lat="46.208095" lon="11.9351941"><ele>1160.0</ele><time>2026-04-26T14:39:14.852Z</time></trkpt><trkpt lat="46.2080864" lon="11.9353931"><ele>1154.0</ele><time>2026-04-26T14:39:15.855Z</time></trkpt><trkpt lat="46.2080484" lon="11.935594"><ele>1148.0</ele><time>2026-04-26T14:39:16.838Z</time></trkpt><trkpt lat="46.208029" lon="11.9357999"><ele>1150.25</ele><time>2026-04-26T14:39:17.855Z</time></trkpt><trkpt lat="46.2080009" lon="11.9360026"><ele>1152.5</ele><time>2026-04-26T14:39:18.842Z</time></trkpt><trkpt lat="46.2079505" lon="11.9361913"><ele>1154.75</ele><time>2026-04-26T14:39:19.836Z</time></trkpt><trkpt lat="46.2078886" lon="11.9363604"><ele>1157.0</ele><time>2026-04-26T14:39:20.847Z</time></trkpt><trkpt lat="46.2078079" lon="11.9365112"><ele>1157.0</ele><time>2026-04-26T14:39:21.872Z</time></trkpt><trkpt lat="46.2077307" lon="11.9366569"><ele>1157.0</ele><time>2026-04-26T14:39:22.846Z</time></trkpt><trkpt lat="46.2076501" lon="11.9367826"><ele>1157.0</ele><time>2026-04-26T14:39:23.86Z</time></trkpt><trkpt lat="46.207577" lon="11.9368998"><ele>1157.0</ele><time>2026-04-26T14:39:24.855Z</time></trkpt><trkpt lat="46.2075142" lon="11.9370101"><ele>1156.3333333333335</ele><time>2026-04-26T14:39:25.851Z</time></trkpt><trkpt lat="46.2074547" lon="11.9371077"><ele>1155.6666666666667</ele><time>2026-04-26T14:39:26.848Z</time></trkpt><trkpt lat="46.2074012" lon="11.9372056"><ele>1155.0</ele><time>2026-04-26T14:39:27.86Z</time></trkpt><trkpt lat="46.2073529" lon="11.9373039"><ele>1154.3333333333333</ele><time>2026-04-26T14:39:28.845Z</time></trkpt><trkpt lat="46.2073073" lon="11.9373988"><ele>1153.6666666666665</ele><time>2026-04-26T14:39:29.843Z</time></trkpt><trkpt lat="46.2072596" lon="11.9374902"><ele>1153.0</ele><time>2026-04-26T14:39:30.853Z</time></trkpt><trkpt lat="46.2072063" lon="11.9375825"><ele>1153.0</ele><time>2026-04-26T14:39:31.846Z</time></trkpt><trkpt lat="46.2071537" lon="11.9376836"><ele>1153.0</ele><time>2026-04-26T14:39:32.842Z</time></trkpt><trkpt lat="46.2070978" lon="11.9377858"><ele>1153.0</ele><time>2026-04-26T14:39:33.853Z</time></trkpt><trkpt lat="46.2070435" lon="11.9378945"><ele>1153.0</ele><time>2026-04-26T14:39:34.869Z</time></trkpt><trkpt lat="46.2069999" lon="11.938016"><ele>1153.0</ele><time>2026-04-26T14:39:35.847Z</time></trkpt><trkpt lat="46.2069563" lon="11.9381395"><ele>1153.0</ele><time>2026-04-26T14:39:36.845Z</time></trkpt><trkpt lat="46.2068993" lon="11.9382516"><ele>1153.0</ele><time>2026-04-26T14:39:37.842Z</time></trkpt><trkpt lat="46.2068515" lon="11.9383707"><ele>1153.0</ele><time>2026-04-26T14:39:38.859Z</time></trkpt><trkpt lat="46.2068103" lon="11.9385046"><ele>1153.0</ele><time>2026-04-26T14:39:39.865Z</time></trkpt><trkpt lat="46.2067523" lon="11.9386346"><ele>1153.0</ele><time>2026-04-26T14:39:40.847Z</time></trkpt><trkpt lat="46.2067055" lon="11.9387757"><ele>1155.2</ele><time>2026-04-26T14:39:41.849Z</time></trkpt><trkpt lat="46.2066425" lon="11.9388979"><ele>1157.4</ele><time>2026-04-26T14:39:42.864Z</time></trkpt><trkpt lat="46.2065849" lon="11.9390221"><ele>1159.6000000000001</ele><time>2026-04-26T14:39:43.854Z</time></trkpt><trkpt lat="46.2065342" lon="11.9391588"><ele>1161.8</ele><time>2026-04-26T14:39:44.847Z</time></trkpt><trkpt lat="46.2064909" lon="11.9393123"><ele>1164.0</ele><time>2026-04-26T14:39:45.842Z</time></trkpt><trkpt lat="46.2064849" lon="11.9394978"><ele>1159.0</ele><time>2026-04-26T14:39:46.866Z</time></trkpt><trkpt lat="46.2064864" lon="11.9396941"><ele>1154.0</ele><time>2026-04-26T14:39:47.868Z</time></trkpt><trkpt lat="46.2064803" lon="11.9398951"><ele>1149.0</ele><time>2026-04-26T14:39:48.868Z</time></trkpt><trkpt lat="46.2064704" lon="11.9400949"><ele>1144.0</ele><time>2026-04-26T14:39:49.843Z</time></trkpt><trkpt lat="46.2064591" lon="11.9402947"><ele>1144.0</ele><time>2026-04-26T14:39:50.872Z</time></trkpt><trkpt lat="46.2064468" lon="11.9404917"><ele>1144.0</ele><time>2026-04-26T14:39:51.854Z</time></trkpt><trkpt lat="46.206416" lon="11.9406827"><ele>1144.0</ele><time>2026-04-26T14:39:52.842Z</time></trkpt><trkpt lat="46.2063778" lon="11.9408723"><ele>1144.0</ele><time>2026-04-26T14:39:53.865Z</time></trkpt><trkpt lat="46.2063451" lon="11.9410693"><ele>1144.0</ele><time>2026-04-26T14:39:54.86Z</time></trkpt><trkpt lat="46.206321" lon="11.9412644"><ele>1144.0</ele><time>2026-04-26T14:39:55.845Z</time></trkpt><trkpt lat="46.2063042" lon="11.9414541"><ele>1144.0</ele><time>2026-04-26T14:39:56.861Z</time></trkpt><trkpt lat="46.2062987" lon="11.9416458"><ele>1144.0</ele><time>2026-04-26T14:39:57.84Z</time></trkpt><trkpt lat="46.2063189" lon="11.9418412"><ele>1144.0</ele><time>2026-04-26T14:39:58.859Z</time></trkpt><trkpt lat="46.2063494" lon="11.942034"><ele>1144.0</ele><time>2026-04-26T14:39:59.846Z</time></trkpt><trkpt lat="46.2063989" lon="11.9422124"><ele>1144.0</ele><time>2026-04-26T14:40:00.854Z</time></trkpt><trkpt lat="46.2064677" lon="11.9423709"><ele>1144.0</ele><time>2026-04-26T14:40:01.852Z</time></trkpt><trkpt lat="46.2065397" lon="11.9425212"><ele>1152.75</ele><time>2026-04-26T14:40:02.841Z</time></trkpt><trkpt lat="46.2066015" lon="11.9426667"><ele>1161.5</ele><time>2026-04-26T14:40:03.858Z</time></trkpt><trkpt lat="46.206628" lon="11.9428276"><ele>1170.25</ele><time>2026-04-26T14:40:04.847Z</time></trkpt><trkpt lat="46.2066192" lon="11.943014"><ele>1179.0</ele><time>2026-04-26T14:40:05.848Z</time></trkpt><trkpt lat="46.2065791" lon="11.9432116"><ele>1178.5</ele><time>2026-04-26T14:40:06.846Z</time></trkpt><trkpt lat="46.2065672" lon="11.943418"><ele>1178.0</ele><time>2026-04-26T14:40:07.852Z</time></trkpt><trkpt lat="46.2065833" lon="11.9436207"><ele>1177.5</ele><time>2026-04-26T14:40:08.842Z</time></trkpt><trkpt lat="46.206605" lon="11.9438171"><ele>1177.0</ele><time>2026-04-26T14:40:09.856Z</time></trkpt><trkpt lat="46.2066233" lon="11.9440146"><ele>1177.5</ele><time>2026-04-26T14:40:10.848Z</time></trkpt><trkpt lat="46.2066229" lon="11.9442198"><ele>1178.0</ele><time>2026-04-26T14:40:11.852Z</time></trkpt><trkpt lat="46.2065989" lon="11.9444291"><ele>1178.5</ele><time>2026-04-26T14:40:12.857Z</time></trkpt><trkpt lat="46.2065683" lon="11.9446382"><ele>1179.0</ele><time>2026-04-26T14:40:13.85Z</time></trkpt><trkpt lat="46.2065342" lon="11.9448497"><ele>1179.75</ele><time>2026-04-26T14:40:14.854Z</time></trkpt><trkpt lat="46.2065082" lon="11.9450605"><ele>1180.5</ele><time>2026-04-26T14:40:15.853Z</time></trkpt><trkpt lat="46.2065022" lon="11.9452642"><ele>1181.25</ele><time>2026-04-26T14:40:16.861Z</time></trkpt><trkpt lat="46.206504" lon="11.9454678"><ele>1182.0</ele><time>2026-04-26T14:40:17.857Z</time></trkpt><trkpt lat="46.206521" lon="11.945655"><ele>1182.0</ele><time>2026-04-26T14:40:18.851Z</time></trkpt><trkpt lat="46.2065571" lon="11.9458511"><ele>1182.0</ele><time>2026-04-26T14:40:19.842Z</time></trkpt><trkpt lat="46.206608" lon="11.9460356"><ele>1182.0</ele><time>2026-04-26T14:40:20.847Z</time></trkpt><trkpt lat="46.206661" lon="11.9462137"><ele>1182.0</ele><time>2026-04-26T14:40:21.841Z</time></trkpt><trkpt lat="46.2067106" lon="11.9463875"><ele>1181.5</ele><time>2026-04-26T14:40:22.861Z</time></trkpt><trkpt lat="46.2067396" lon="11.9465721"><ele>1181.0</ele><time>2026-04-26T14:40:23.863Z</time></trkpt><trkpt lat="46.2067526" lon="11.9467679"><ele>1180.5</ele><time>2026-04-26T14:40:24.86Z</time></trkpt><trkpt lat="46.2067625" lon="11.9469711"><ele>1180.0</ele><time>2026-04-26T14:40:25.857Z</time></trkpt><trkpt lat="46.2067747" lon="11.9471766"><ele>1181.5</ele><time>2026-04-26T14:40:26.854Z</time></trkpt><trkpt lat="46.2067846" lon="11.94738"><ele>1183.0</ele><time>2026-04-26T14:40:27.862Z</time></trkpt><trkpt lat="46.2067815" lon="11.9475765"><ele>1184.5</ele><time>2026-04-26T14:40:28.849Z</time></trkpt><trkpt lat="46.2067687" lon="11.9477638"><ele>1186.0</ele><time>2026-04-26T14:40:29.851Z</time></trkpt><trkpt lat="46.2067622" lon="11.9479394"><ele>1187.0</ele><time>2026-04-26T14:40:30.858Z</time></trkpt><trkpt lat="46.2067316" lon="11.9481104"><ele>1188.0</ele><time>2026-04-26T14:40:31.856Z</time></trkpt><trkpt lat="46.2067009" lon="11.9482892"><ele>1189.0</ele><time>2026-04-26T14:40:32.858Z</time></trkpt><trkpt lat="46.2066854" lon="11.9484766"><ele>1190.0</ele><time>2026-04-26T14:40:33.851Z</time></trkpt><trkpt lat="46.2066966" lon="11.948666"><ele>1190.0</ele><time>2026-04-26T14:40:34.854Z</time></trkpt><trkpt lat="46.2067267" lon="11.9488655"><ele>1190.0</ele><time>2026-04-26T14:40:35.853Z</time></trkpt><trkpt lat="46.2067856" lon="11.9490658"><ele>1190.0</ele><time>2026-04-26T14:40:36.859Z</time></trkpt><trkpt lat="46.2068461" lon="11.9492689"><ele>1190.0</ele><time>2026-04-26T14:40:37.862Z</time></trkpt><trkpt lat="46.2069129" lon="11.9494726"><ele>1185.3333333333335</ele><time>2026-04-26T14:40:38.85Z</time></trkpt><trkpt lat="46.2069878" lon="11.9496748"><ele>1180.6666666666667</ele><time>2026-04-26T14:40:39.86Z</time></trkpt><trkpt lat="46.2070761" lon="11.9498611"><ele>1176.0</ele><time>2026-04-26T14:40:40.858Z</time></trkpt><trkpt lat="46.2071573" lon="11.9500389"><ele>1172.0</ele><time>2026-04-26T14:40:41.856Z</time></trkpt><trkpt lat="46.2072402" lon="11.9501955"><ele>1168.0</ele><time>2026-04-26T14:40:42.853Z</time></trkpt><trkpt lat="46.2073353" lon="11.9503231"><ele>1164.0</ele><time>2026-04-26T14:40:43.856Z</time></trkpt><trkpt lat="46.2074354" lon="11.9504297"><ele>1160.0</ele><time>2026-04-26T14:40:44.856Z</time></trkpt><trkpt lat="46.207538" lon="11.9505301"><ele>1165.5</ele><time>2026-04-26T14:40:45.845Z</time></trkpt><trkpt lat="46.2076311" lon="11.9506494"><ele>1171.0</ele><time>2026-04-26T14:40:46.851Z</time></trkpt><trkpt lat="46.2077017" lon="11.9508015"><ele>1176.5</ele><time>2026-04-26T14:40:47.847Z</time></trkpt><trkpt lat="46.2077574" lon="11.950971"><ele>1182.0</ele><time>2026-04-26T14:40:48.839Z</time></trkpt><trkpt lat="46.2078158" lon="11.9511432"><ele>1182.0</ele><time>2026-04-26T14:40:49.851Z</time></trkpt><trkpt lat="46.207865" lon="11.951316"><ele>1182.0</ele><time>2026-04-26T14:40:50.848Z</time></trkpt><trkpt lat="46.2078962" lon="11.9514915"><ele>1182.0</ele><time>2026-04-26T14:40:51.858Z</time></trkpt><trkpt lat="46.2079328" lon="11.9516636"><ele>1182.0</ele><time>2026-04-26T14:40:52.856Z</time></trkpt><trkpt lat="46.2079653" lon="11.9518435"><ele>1182.0</ele><time>2026-04-26T14:40:53.853Z</time></trkpt><trkpt lat="46.2079895" lon="11.952032"><ele>1182.0</ele><time>2026-04-26T14:40:54.858Z</time></trkpt><trkpt lat="46.2079971" lon="11.9522346"><ele>1182.0</ele><time>2026-04-26T14:40:55.863Z</time></trkpt><trkpt lat="46.2079978" lon="11.9524402"><ele>1182.0</ele><time>2026-04-26T14:40:56.855Z</time></trkpt><trkpt lat="46.2080069" lon="11.9526319"><ele>1182.25</ele><time>2026-04-26T14:40:57.851Z</time></trkpt><trkpt lat="46.2080263" lon="11.9528139"><ele>1182.5</ele><time>2026-04-26T14:40:58.846Z</time></trkpt><trkpt lat="46.2080656" lon="11.9529865"><ele>1182.75</ele><time>2026-04-26T14:40:59.852Z</time></trkpt><trkpt lat="46.208077" lon="11.9531545"><ele>1183.0</ele><time>2026-04-26T14:41:00.861Z</time></trkpt><trkpt lat="46.2080693" lon="11.9533191"><ele>1185.0</ele><time>2026-04-26T14:41:01.844Z</time></trkpt><trkpt lat="46.2080329" lon="11.953489"><ele>1187.0</ele><time>2026-04-26T14:41:02.859Z</time></trkpt><trkpt lat="46.2079795" lon="11.9536601"><ele>1189.0</ele><time>2026-04-26T14:41:03.865Z</time></trkpt><trkpt lat="46.2079171" lon="11.9538112"><ele>1191.0</ele><time>2026-04-26T14:41:04.852Z</time></trkpt><trkpt lat="46.2078623" lon="11.9539591"><ele>1191.0</ele><time>2026-04-26T14:41:05.853Z</time></trkpt><trkpt lat="46.2078194" lon="11.9541165"><ele>1191.0</ele><time>2026-04-26T14:41:06.841Z</time></trkpt><trkpt lat="46.2078056" lon="11.9542836"><ele>1191.0</ele><time>2026-04-26T14:41:07.86Z</time></trkpt><trkpt lat="46.2078176" lon="11.9544447"><ele>1191.0</ele><time>2026-04-26T14:41:08.857Z</time></trkpt><trkpt lat="46.2078797" lon="11.9545967"><ele>1191.0</ele><time>2026-04-26T14:41:09.853Z</time></trkpt><trkpt lat="46.2080125" lon="11.954659"><ele>1191.0</ele><time>2026-04-26T14:41:10.854Z</time></trkpt><trkpt lat="46.208135" lon="11.9547539"><ele>1191.0</ele><time>2026-04-26T14:41:11.855Z</time></trkpt><trkpt lat="46.2082611" lon="11.954846"><ele>1191.0</ele><time>2026-04-26T14:41:12.85Z</time></trkpt><trkpt lat="46.2084136" lon="11.9548575"><ele>1189.5</ele><time>2026-04-26T14:41:13.86Z</time></trkpt><trkpt lat="46.2085609" lon="11.9548814"><ele>1188.0</ele><time>2026-04-26T14:41:14.85Z</time></trkpt><trkpt lat="46.208696" lon="11.9549456"><ele>1186.5</ele><time>2026-04-26T14:41:15.859Z</time></trkpt><trkpt lat="46.2088215" lon="11.9550226"><ele>1185.0</ele><time>2026-04-26T14:41:16.854Z</time></trkpt><trkpt lat="46.2089495" lon="11.9550668"><ele>1188.25</ele><time>2026-04-26T14:41:17.864Z</time></trkpt><trkpt lat="46.2090809" lon="11.9551294"><ele>1191.5</ele><time>2026-04-26T14:41:18.856Z</time></trkpt><trkpt lat="46.2092088" lon="11.9552116"><ele>1194.75</ele><time>2026-04-26T14:41:19.859Z</time></trkpt><trkpt lat="46.2093285" lon="11.9552813"><ele>1198.0</ele><time>2026-04-26T14:41:20.875Z</time></trkpt><trkpt lat="46.2094272" lon="11.9553803"><ele>1198.0</ele><time>2026-04-26T14:41:21.848Z</time></trkpt><trkpt lat="46.2095128" lon="11.9554759"><ele>1198.0</ele><time>2026-04-26T14:41:22.841Z</time></trkpt><trkpt lat="46.2096029" lon="11.9555233"><ele>1198.0</ele><time>2026-04-26T14:41:23.866Z</time></trkpt><trkpt lat="46.2096998" lon="11.9555398"><ele>1198.0</ele><time>2026-04-26T14:41:24.835Z</time></trkpt><trkpt lat="46.2098" lon="11.9555447"><ele>1198.0</ele><time>2026-04-26T14:41:25.856Z</time></trkpt><trkpt lat="46.2098901" lon="11.9555561"><ele>1198.6</ele><time>2026-04-26T14:41:26.845Z</time></trkpt><trkpt lat="46.209977" lon="11.9555538"><ele>1199.1999999999998</ele><time>2026-04-26T14:41:27.858Z</time></trkpt><trkpt lat="46.2100686" lon="11.9554934"><ele>1199.8</ele><time>2026-04-26T14:41:28.844Z</time></trkpt><trkpt lat="46.2101742" lon="11.9554377"><ele>1200.3999999999999</ele><time>2026-04-26T14:41:29.843Z</time></trkpt><trkpt lat="46.2103041" lon="11.9553496"><ele>1201.0</ele><time>2026-04-26T14:41:30.862Z</time></trkpt><trkpt lat="46.2104333" lon="11.9552231"><ele>1201.0</ele><time>2026-04-26T14:41:31.854Z</time></trkpt><trkpt lat="46.2105751" lon="11.9551399"><ele>1201.0</ele><time>2026-04-26T14:41:32.858Z</time></trkpt><trkpt lat="46.2107112" lon="11.9550657"><ele>1201.0</ele><time>2026-04-26T14:41:33.867Z</time></trkpt><trkpt lat="46.2108379" lon="11.955005"><ele>1201.0</ele><time>2026-04-26T14:41:34.847Z</time></trkpt><trkpt lat="46.2109532" lon="11.9549614"><ele>1200.25</ele><time>2026-04-26T14:41:35.849Z</time></trkpt><trkpt lat="46.2110548" lon="11.9548983"><ele>1199.5</ele><time>2026-04-26T14:41:36.858Z</time></trkpt><trkpt lat="46.2111444" lon="11.9547801"><ele>1198.75</ele><time>2026-04-26T14:41:37.853Z</time></trkpt><trkpt lat="46.2112285" lon="11.9546445"><ele>1198.0</ele><time>2026-04-26T14:41:38.865Z</time></trkpt><trkpt lat="46.2113206" lon="11.9545009"><ele>1198.0</ele><time>2026-04-26T14:41:39.857Z</time></trkpt><trkpt lat="46.2114222" lon="11.9543952"><ele>1198.0</ele><time>2026-04-26T14:41:40.847Z</time></trkpt><trkpt lat="46.2115329" lon="11.9543042"><ele>1198.0</ele><time>2026-04-26T14:41:41.854Z</time></trkpt><trkpt lat="46.2116428" lon="11.9542283"><ele>1198.0</ele><time>2026-04-26T14:41:42.842Z</time></trkpt><trkpt lat="46.2117624" lon="11.9542228"><ele>1197.4</ele><time>2026-04-26T14:41:43.862Z</time></trkpt><trkpt lat="46.2118689" lon="11.95423"><ele>1196.8</ele><time>2026-04-26T14:41:44.854Z</time></trkpt><trkpt lat="46.2119611" lon="11.9541929"><ele>1196.2</ele><time>2026-04-26T14:41:45.859Z</time></trkpt><trkpt lat="46.2120475" lon="11.9541127"><ele>1195.6</ele><time>2026-04-26T14:41:46.849Z</time></trkpt><trkpt lat="46.2121161" lon="11.9539856"><ele>1195.0</ele><time>2026-04-26T14:41:47.857Z</time></trkpt><trkpt lat="46.2121836" lon="11.9538492"><ele>1195.0</ele><time>2026-04-26T14:41:48.846Z</time></trkpt><trkpt lat="46.2122543" lon="11.9536961"><ele>1195.0</ele><time>2026-04-26T14:41:49.86Z</time></trkpt><trkpt lat="46.2123324" lon="11.9535673"><ele>1195.0</ele><time>2026-04-26T14:41:50.861Z</time></trkpt><trkpt lat="46.2124305" lon="11.9534542"><ele>1195.0</ele><time>2026-04-26T14:41:51.851Z</time></trkpt><trkpt lat="46.2125501" lon="11.9533695"><ele>1195.0</ele><time>2026-04-26T14:41:52.852Z</time></trkpt><trkpt lat="46.2126829" lon="11.9532777"><ele>1195.0</ele><time>2026-04-26T14:41:53.858Z</time></trkpt><trkpt lat="46.2128128" lon="11.9531847"><ele>1195.0</ele><time>2026-04-26T14:41:54.846Z</time></trkpt><trkpt lat="46.2129391" lon="11.953105"><ele>1195.0</ele><time>2026-04-26T14:41:55.842Z</time></trkpt><trkpt lat="46.2130545" lon="11.9530039"><ele>1193.0</ele><time>2026-04-26T14:41:56.838Z</time></trkpt><trkpt lat="46.2131812" lon="11.9529762"><ele>1191.0</ele><time>2026-04-26T14:41:57.846Z</time></trkpt><trkpt lat="46.2133002" lon="11.952969"><ele>1189.0</ele><time>2026-04-26T14:41:58.862Z</time></trkpt><trkpt lat="46.213412" lon="11.9529568"><ele>1187.0</ele><time>2026-04-26T14:41:59.853Z</time></trkpt><trkpt lat="46.2135114" lon="11.9529515"><ele>1187.0</ele><time>2026-04-26T14:42:00.858Z</time></trkpt><trkpt lat="46.2135998" lon="11.9529276"><ele>1187.0</ele><time>2026-04-26T14:42:01.853Z</time></trkpt><trkpt lat="46.2136845" lon="11.952893"><ele>1187.0</ele><time>2026-04-26T14:42:02.852Z</time></trkpt><trkpt lat="46.2137702" lon="11.9528401"><ele>1187.0</ele><time>2026-04-26T14:42:03.854Z</time></trkpt><trkpt lat="46.2138442" lon="11.9527441"><ele>1187.0</ele><time>2026-04-26T14:42:04.846Z</time></trkpt><trkpt lat="46.2138963" lon="11.9526153"><ele>1188.4</ele><time>2026-04-26T14:42:05.857Z</time></trkpt><trkpt lat="46.2139311" lon="11.9524868"><ele>1189.8000000000002</ele><time>2026-04-26T14:42:06.856Z</time></trkpt><trkpt lat="46.2139887" lon="11.9523968"><ele>1191.2</ele><time>2026-04-26T14:42:07.848Z</time></trkpt><trkpt lat="46.2140422" lon="11.9523037"><ele>1192.6000000000001</ele><time>2026-04-26T14:42:08.86Z</time></trkpt><trkpt lat="46.2141024" lon="11.9522005"><ele>1194.0</ele><time>2026-04-26T14:42:09.855Z</time></trkpt><trkpt lat="46.2142024" lon="11.9521374"><ele>1194.0</ele><time>2026-04-26T14:42:10.852Z</time></trkpt><trkpt lat="46.2143109" lon="11.9520697"><ele>1194.0</ele><time>2026-04-26T14:42:11.857Z</time></trkpt><trkpt lat="46.2144185" lon="11.9520409"><ele>1194.0</ele><time>2026-04-26T14:42:12.853Z</time></trkpt><trkpt lat="46.2145274" lon="11.9520268"><ele>1194.0</ele><time>2026-04-26T14:42:13.868Z</time></trkpt><trkpt lat="46.2146473" lon="11.9520715"><ele>1194.0</ele><time>2026-04-26T14:42:14.842Z</time></trkpt><trkpt lat="46.2147509" lon="11.9521111"><ele>1194.0</ele><time>2026-04-26T14:42:15.864Z</time></trkpt><trkpt lat="46.2148136" lon="11.9521653"><ele>1194.0</ele><time>2026-04-26T14:42:16.868Z</time></trkpt><trkpt lat="46.2149029" lon="11.9522158"><ele>1194.0</ele><time>2026-04-26T14:42:18.861Z</time></trkpt><trkpt lat="46.2149981" lon="11.9522852"><ele>1194.0</ele><time>2026-04-26T14:43:58.847Z</time></trkpt><trkpt lat="46.215103" lon="11.9523258"><ele>1191.4</ele><time>2026-04-26T14:44:01.844Z</time></trkpt><trkpt lat="46.2152196" lon="11.9523859"><ele>1188.8000000000002</ele><time>2026-04-26T14:44:03.864Z</time></trkpt><trkpt lat="46.2152929" lon="11.952433"><ele>1186.1999999999998</ele><time>2026-04-26T14:44:04.848Z</time></trkpt><trkpt lat="46.215366" lon="11.952477"><ele>1183.6</ele><time>2026-04-26T14:44:05.848Z</time></trkpt><trkpt lat="46.2154441" lon="11.9525246"><ele>1181.0</ele><time>2026-04-26T14:44:06.844Z</time></trkpt><trkpt lat="46.215533" lon="11.9525619"><ele>1175.8</ele><time>2026-04-26T14:44:07.852Z</time></trkpt><trkpt lat="46.2156293" lon="11.9525971"><ele>1170.6</ele><time>2026-04-26T14:44:08.846Z</time></trkpt><trkpt lat="46.215724" lon="11.9526269"><ele>1165.4</ele><time>2026-04-26T14:44:09.853Z</time></trkpt><trkpt lat="46.2158198" lon="11.9526515"><ele>1160.2</ele><time>2026-04-26T14:44:10.852Z</time></trkpt><trkpt lat="46.2159191" lon="11.9526786"><ele>1155.0</ele><time>2026-04-26T14:44:11.867Z</time></trkpt><trkpt lat="46.2160264" lon="11.9527012"><ele>1155.0</ele><time>2026-04-26T14:44:12.852Z</time></trkpt><trkpt lat="46.2161337" lon="11.9527415"><ele>1155.0</ele><time>2026-04-26T14:44:13.861Z</time></trkpt><trkpt lat="46.2162356" lon="11.9528034"><ele>1155.0</ele><time>2026-04-26T14:44:14.854Z</time></trkpt><trkpt lat="46.2163269" lon="11.9528645"><ele>1155.0</ele><time>2026-04-26T14:44:15.866Z</time></trkpt><trkpt lat="46.2164184" lon="11.9528943"><ele>1155.0</ele><time>2026-04-26T14:44:16.854Z</time></trkpt><trkpt lat="46.2164998" lon="11.9529524"><ele>1154.4</ele><time>2026-04-26T14:44:17.844Z</time></trkpt><trkpt lat="46.2165907" lon="11.9529874"><ele>1153.8</ele><time>2026-04-26T14:44:18.846Z</time></trkpt><trkpt lat="46.2166749" lon="11.9530329"><ele>1153.2</ele><time>2026-04-26T14:44:19.851Z</time></trkpt><trkpt lat="46.2167768" lon="11.9530393"><ele>1152.6</ele><time>2026-04-26T14:44:20.846Z</time></trkpt><trkpt lat="46.2168851" lon="11.9530229"><ele>1152.0</ele><time>2026-04-26T14:44:21.861Z</time></trkpt><trkpt lat="46.2169947" lon="11.9530366"><ele>1152.0</ele><time>2026-04-26T14:44:22.859Z</time></trkpt><trkpt lat="46.2171059" lon="11.9530522"><ele>1152.0</ele><time>2026-04-26T14:44:23.854Z</time></trkpt><trkpt lat="46.217226" lon="11.9530331"><ele>1152.0</ele><time>2026-04-26T14:44:24.857Z</time></trkpt><trkpt lat="46.2173412" lon="11.9530097"><ele>1152.0</ele><time>2026-04-26T14:44:25.869Z</time></trkpt><trkpt lat="46.2174577" lon="11.9529691"><ele>1148.75</ele><time>2026-04-26T14:44:26.854Z</time></trkpt><trkpt lat="46.2175603" lon="11.9528322"><ele>1145.5</ele><time>2026-04-26T14:44:27.84Z</time></trkpt><trkpt lat="46.217675" lon="11.9527666"><ele>1142.25</ele><time>2026-04-26T14:44:28.86Z</time></trkpt><trkpt lat="46.2178025" lon="11.9527962"><ele>1139.0</ele><time>2026-04-26T14:44:29.855Z</time></trkpt><trkpt lat="46.2179337" lon="11.9528098"><ele>1139.0</ele><time>2026-04-26T14:44:30.854Z</time></trkpt><trkpt lat="46.2180578" lon="11.9528655"><ele>1139.0</ele><time>2026-04-26T14:44:31.869Z</time></trkpt><trkpt lat="46.2181771" lon="11.952929"><ele>1139.0</ele><time>2026-04-26T14:44:32.85Z</time></trkpt><trkpt lat="46.2182869" lon="11.9530069"><ele>1139.0</ele><time>2026-04-26T14:44:33.845Z</time></trkpt><trkpt lat="46.2183823" lon="11.9530999"><ele>1137.6000000000001</ele><time>2026-04-26T14:44:34.879Z</time></trkpt><trkpt lat="46.2184762" lon="11.9531768"><ele>1136.2</ele><time>2026-04-26T14:44:35.869Z</time></trkpt><trkpt lat="46.2185653" lon="11.9532236"><ele>1134.8000000000002</ele><time>2026-04-26T14:44:36.862Z</time></trkpt><trkpt lat="46.2186592" lon="11.9532491"><ele>1133.4</ele><time>2026-04-26T14:44:37.858Z</time></trkpt><trkpt lat="46.2187625" lon="11.9532585"><ele>1132.0</ele><time>2026-04-26T14:44:38.851Z</time></trkpt><trkpt lat="46.2188764" lon="11.9532866"><ele>1129.75</ele><time>2026-04-26T14:44:39.839Z</time></trkpt><trkpt lat="46.218992" lon="11.953329"><ele>1127.5</ele><time>2026-04-26T14:44:40.86Z</time></trkpt><trkpt lat="46.2191099" lon="11.9533613"><ele>1125.25</ele><time>2026-04-26T14:44:41.865Z</time></trkpt><trkpt lat="46.2192239" lon="11.9534129"><ele>1123.0</ele><time>2026-04-26T14:44:42.866Z</time></trkpt><trkpt lat="46.2193373" lon="11.9534616"><ele>1123.0</ele><time>2026-04-26T14:44:43.847Z</time></trkpt><trkpt lat="46.2194488" lon="11.9535019"><ele>1123.0</ele><time>2026-04-26T14:44:44.867Z</time></trkpt><trkpt lat="46.2195543" lon="11.9535547"><ele>1123.0</ele><time>2026-04-26T14:44:45.862Z</time></trkpt><trkpt lat="46.219658" lon="11.9536082"><ele>1123.0</ele><time>2026-04-26T14:44:46.849Z</time></trkpt><trkpt lat="46.2197639" lon="11.9536618"><ele>1123.0</ele><time>2026-04-26T14:44:47.846Z</time></trkpt><trkpt lat="46.2198688" lon="11.953681"><ele>1125.25</ele><time>2026-04-26T14:44:48.853Z</time></trkpt><trkpt lat="46.2199799" lon="11.9536327"><ele>1127.5</ele><time>2026-04-26T14:44:49.858Z</time></trkpt><trkpt lat="46.220088" lon="11.9535388"><ele>1129.75</ele><time>2026-04-26T14:44:50.861Z</time></trkpt><trkpt lat="46.220184" lon="11.9534208"><ele>1132.0</ele><time>2026-04-26T14:44:51.864Z</time></trkpt><trkpt lat="46.2202746" lon="11.9533113"><ele>1134.2</ele><time>2026-04-26T14:44:52.882Z</time></trkpt><trkpt lat="46.2203611" lon="11.9532157"><ele>1136.4</ele><time>2026-04-26T14:44:53.866Z</time></trkpt><trkpt lat="46.2204566" lon="11.9531585"><ele>1138.6</ele><time>2026-04-26T14:44:54.85Z</time></trkpt><trkpt lat="46.220559" lon="11.9531619"><ele>1140.8</ele><time>2026-04-26T14:44:55.862Z</time></trkpt><trkpt lat="46.2206599" lon="11.9532065"><ele>1143.0</ele><time>2026-04-26T14:44:56.849Z</time></trkpt><trkpt lat="46.2207535" lon="11.9532767"><ele>1143.0</ele><time>2026-04-26T14:44:57.843Z</time></trkpt><trkpt lat="46.2208457" lon="11.953372"><ele>1143.0</ele><time>2026-04-26T14:44:58.846Z</time></trkpt><trkpt lat="46.2209241" lon="11.9534979"><ele>1143.0</ele><time>2026-04-26T14:44:59.859Z</time></trkpt><trkpt lat="46.2209897" lon="11.9536325"><ele>1143.0</ele><time>2026-04-26T14:45:00.868Z</time></trkpt><trkpt lat="46.221049" lon="11.9537689"><ele>1142.25</ele><time>2026-04-26T14:45:01.873Z</time></trkpt><trkpt lat="46.2211051" lon="11.9539139"><ele>1141.5</ele><time>2026-04-26T14:45:02.841Z</time></trkpt><trkpt lat="46.2211607" lon="11.954061"><ele>1140.75</ele><time>2026-04-26T14:45:03.861Z</time></trkpt><trkpt lat="46.2212143" lon="11.9542151"><ele>1140.0</ele><time>2026-04-26T14:45:04.867Z</time></trkpt><trkpt lat="46.2212619" lon="11.9543593"><ele>1139.7142857142858</ele><time>2026-04-26T14:45:05.861Z</time></trkpt><trkpt lat="46.2213195" lon="11.9544719"><ele>1139.4285714285716</ele><time>2026-04-26T14:45:06.852Z</time></trkpt><trkpt lat="46.221357" lon="11.9545479"><ele>1139.1428571428573</ele><time>2026-04-26T14:45:07.855Z</time></trkpt><trkpt lat="46.2213897" lon="11.9546408"><ele>1138.857142857143</ele><time>2026-04-26T14:45:09.855Z</time></trkpt><trkpt lat="46.2214289" lon="11.954714"><ele>1138.5714285714287</ele><time>2026-04-26T14:45:12.865Z</time></trkpt><trkpt lat="46.2214964" lon="11.9547015"><ele>1138.2857142857144</ele><time>2026-04-26T14:45:13.874Z</time></trkpt><trkpt lat="46.2215659" lon="11.9546648"><ele>1138.0</ele><time>2026-04-26T14:45:14.846Z</time></trkpt><trkpt lat="46.2216432" lon="11.9546113"><ele>1139.0</ele><time>2026-04-26T14:45:15.869Z</time></trkpt><trkpt lat="46.2217136" lon="11.9545512"><ele>1140.0</ele><time>2026-04-26T14:45:16.862Z</time></trkpt><trkpt lat="46.221771" lon="11.9544841"><ele>1141.0</ele><time>2026-04-26T14:45:17.866Z</time></trkpt><trkpt lat="46.2218117" lon="11.9543944"><ele>1142.0</ele><time>2026-04-26T14:45:18.848Z</time></trkpt><trkpt lat="46.2218276" lon="11.9542812"><ele>1143.0</ele><time>2026-04-26T14:45:19.86Z</time></trkpt><trkpt lat="46.2218146" lon="11.9541433"><ele>1144.0</ele><time>2026-04-26T14:45:20.865Z</time></trkpt><trkpt lat="46.2218131" lon="11.9539945"><ele>1144.6666666666665</ele><time>2026-04-26T14:45:21.862Z</time></trkpt><trkpt lat="46.2218327" lon="11.9538657"><ele>1145.3333333333333</ele><time>2026-04-26T14:45:22.864Z</time></trkpt><trkpt lat="46.2218266" lon="11.9537519"><ele>1146.0</ele><time>2026-04-26T14:45:23.85Z</time></trkpt><trkpt lat="46.2218303" lon="11.9536471"><ele>1146.6666666666667</ele><time>2026-04-26T14:45:24.842Z</time></trkpt><trkpt lat="46.2218526" lon="11.9535542"><ele>1147.3333333333335</ele><time>2026-04-26T14:45:25.869Z</time></trkpt><trkpt lat="46.2219343" lon="11.953431"><ele>1148.0</ele><time>2026-04-26T14:45:27.854Z</time></trkpt><trkpt lat="46.221999" lon="11.9534151"><ele>1148.0</ele><time>2026-04-26T14:45:28.848Z</time></trkpt><trkpt lat="46.2220644" lon="11.9534562"><ele>1148.0</ele><time>2026-04-26T14:45:29.846Z</time></trkpt><trkpt lat="46.2221315" lon="11.9535384"><ele>1148.0</ele><time>2026-04-26T14:45:30.852Z</time></trkpt><trkpt lat="46.222198" lon="11.9536686"><ele>1148.0</ele><time>2026-04-26T14:45:31.856Z</time></trkpt><trkpt lat="46.2222751" lon="11.9537998"><ele>1148.0</ele><time>2026-04-26T14:45:32.854Z</time></trkpt><trkpt lat="46.2223499" lon="11.9539261"><ele>1152.2</ele><time>2026-04-26T14:45:33.837Z</time></trkpt><trkpt lat="46.2224186" lon="11.9540431"><ele>1156.4</ele><time>2026-04-26T14:45:34.855Z</time></trkpt><trkpt lat="46.2224721" lon="11.9541593"><ele>1160.6000000000001</ele><time>2026-04-26T14:45:35.862Z</time></trkpt><trkpt lat="46.2224864" lon="11.9543177"><ele>1164.8</ele><time>2026-04-26T14:45:36.873Z</time></trkpt><trkpt lat="46.2224858" lon="11.9544897"><ele>1169.0</ele><time>2026-04-26T14:45:37.862Z</time></trkpt><trkpt lat="46.2224703" lon="11.9546675"><ele>1168.4</ele><time>2026-04-26T14:45:38.889Z</time></trkpt><trkpt lat="46.2224589" lon="11.9548443"><ele>1167.8000000000002</ele><time>2026-04-26T14:45:39.862Z</time></trkpt><trkpt lat="46.2224482" lon="11.9550126"><ele>1167.1999999999998</ele><time>2026-04-26T14:45:40.854Z</time></trkpt><trkpt lat="46.2224383" lon="11.9551611"><ele>1166.6</ele><time>2026-04-26T14:45:41.855Z</time></trkpt><trkpt lat="46.2224203" lon="11.9552929"><ele>1166.0</ele><time>2026-04-26T14:45:42.86Z</time></trkpt><trkpt lat="46.2224285" lon="11.955399"><ele>1166.0</ele><time>2026-04-26T14:45:43.858Z</time></trkpt><trkpt lat="46.2224667" lon="11.955481"><ele>1166.0</ele><time>2026-04-26T14:45:44.84Z</time></trkpt><trkpt lat="46.2225304" lon="11.9555488"><ele>1166.0</ele><time>2026-04-26T14:45:45.855Z</time></trkpt><trkpt lat="46.2226119" lon="11.9556177"><ele>1166.0</ele><time>2026-04-26T14:45:46.842Z</time></trkpt><trkpt lat="46.2227186" lon="11.9556696"><ele>1166.0</ele><time>2026-04-26T14:45:47.869Z</time></trkpt><trkpt lat="46.2228225" lon="11.955707"><ele>1166.0</ele><time>2026-04-26T14:45:48.86Z</time></trkpt><trkpt lat="46.2229009" lon="11.9557462"><ele>1166.0</ele><time>2026-04-26T14:45:49.859Z</time></trkpt><trkpt lat="46.2229869" lon="11.955795"><ele>1166.0</ele><time>2026-04-26T14:45:51.849Z</time></trkpt><trkpt lat="46.2230429" lon="11.9557229"><ele>1166.0</ele><time>2026-04-26T14:45:53.851Z</time></trkpt><trkpt lat="46.2229811" lon="11.9555545"><ele>1166.0</ele><time>2026-04-26T14:45:55.848Z</time></trkpt><trkpt lat="46.2229053" lon="11.955485"><ele>1166.0</ele><time>2026-04-26T14:45:56.855Z</time></trkpt><trkpt lat="46.2228332" lon="11.9554294"><ele>1166.0</ele><time>2026-04-26T14:45:57.842Z</time></trkpt><trkpt lat="46.2227779" lon="11.9553654"><ele>1166.0</ele><time>2026-04-26T14:45:58.853Z</time></trkpt><trkpt lat="46.2226922" lon="11.9552809"><ele>1166.0</ele><time>2026-04-26T14:46:00.856Z</time></trkpt><trkpt lat="46.2227182" lon="11.9551785"><ele>1166.0</ele><time>2026-04-26T14:46:02.85Z</time></trkpt><trkpt lat="46.222834" lon="11.9552235"><ele>1166.0</ele><time>2026-04-26T14:46:04.843Z</time></trkpt><trkpt lat="46.2229102" lon="11.9553029"><ele>1166.0</ele><time>2026-04-26T14:46:05.857Z</time></trkpt><trkpt lat="46.2230263" lon="11.9553456"><ele>1166.0</ele><time>2026-04-26T14:46:06.844Z</time></trkpt><trkpt lat="46.2231431" lon="11.9554109"><ele>1166.0</ele><time>2026-04-26T14:46:07.851Z</time></trkpt><trkpt lat="46.2232586" lon="11.9554839"><ele>1171.0</ele><time>2026-04-26T14:46:08.853Z</time></trkpt><trkpt lat="46.2233693" lon="11.95553"><ele>1176.0</ele><time>2026-04-26T14:46:09.854Z</time></trkpt><trkpt lat="46.2234755" lon="11.9555558"><ele>1181.0</ele><time>2026-04-26T14:46:10.852Z</time></trkpt><trkpt lat="46.2235824" lon="11.9555699"><ele>1186.0</ele><time>2026-04-26T14:46:11.859Z</time></trkpt><trkpt lat="46.2236807" lon="11.9555762"><ele>1191.0</ele><time>2026-04-26T14:46:12.866Z</time></trkpt><trkpt lat="46.223773" lon="11.9555825"><ele>1191.0</ele><time>2026-04-26T14:46:13.844Z</time></trkpt><trkpt lat="46.2238532" lon="11.9555802"><ele>1191.0</ele><time>2026-04-26T14:46:14.853Z</time></trkpt><trkpt lat="46.2239178" lon="11.9556019"><ele>1191.0</ele><time>2026-04-26T14:46:15.84Z</time></trkpt><trkpt lat="46.2240137" lon="11.9556957"><ele>1191.0</ele><time>2026-04-26T14:46:17.845Z</time></trkpt><trkpt lat="46.2240359" lon="11.9558151"><ele>1191.0</ele><time>2026-04-26T14:46:18.845Z</time></trkpt><trkpt lat="46.2240425" lon="11.9559553"><ele>1191.0</ele><time>2026-04-26T14:46:19.863Z</time></trkpt><trkpt lat="46.2240231" lon="11.956117"><ele>1191.25</ele><time>2026-04-26T14:46:20.855Z</time></trkpt><trkpt lat="46.2239872" lon="11.9562883"><ele>1191.5</ele><time>2026-04-26T14:46:21.867Z</time></trkpt><trkpt lat="46.2239516" lon="11.9564611"><ele>1191.75</ele><time>2026-04-26T14:46:22.846Z</time></trkpt><trkpt lat="46.2239445" lon="11.9566375"><ele>1192.0</ele><time>2026-04-26T14:46:23.877Z</time></trkpt><trkpt lat="46.2239209" lon="11.9568013"><ele>1193.2</ele><time>2026-04-26T14:46:24.851Z</time></trkpt><trkpt lat="46.2238874" lon="11.9569526"><ele>1194.4</ele><time>2026-04-26T14:46:25.842Z</time></trkpt><trkpt lat="46.2238365" lon="11.9570865"><ele>1195.6</ele><time>2026-04-26T14:46:26.849Z</time></trkpt><trkpt lat="46.2237758" lon="11.9571991"><ele>1196.8</ele><time>2026-04-26T14:46:27.851Z</time></trkpt><trkpt lat="46.2237307" lon="11.9573066"><ele>1198.0</ele><time>2026-04-26T14:46:28.85Z</time></trkpt><trkpt lat="46.2237054" lon="11.9574135"><ele>1198.0</ele><time>2026-04-26T14:46:29.851Z</time></trkpt><trkpt lat="46.2237049" lon="11.9575319"><ele>1198.0</ele><time>2026-04-26T14:46:30.839Z</time></trkpt><trkpt lat="46.2237379" lon="11.9576433"><ele>1198.0</ele><time>2026-04-26T14:46:31.849Z</time></trkpt><trkpt lat="46.2237886" lon="11.9577287"><ele>1198.0</ele><time>2026-04-26T14:46:32.854Z</time></trkpt><trkpt lat="46.2238779" lon="11.9577624"><ele>1198.0</ele><time>2026-04-26T14:46:33.84Z</time></trkpt><trkpt lat="46.2239921" lon="11.9577781"><ele>1199.0</ele><time>2026-04-26T14:46:34.853Z</time></trkpt><trkpt lat="46.2241139" lon="11.957797"><ele>1200.0</ele><time>2026-04-26T14:46:35.84Z</time></trkpt><trkpt lat="46.2242432" lon="11.9577821"><ele>1201.0</ele><time>2026-04-26T14:46:36.864Z</time></trkpt><trkpt lat="46.2243742" lon="11.9577619"><ele>1202.0</ele><time>2026-04-26T14:46:37.878Z</time></trkpt><trkpt lat="46.2245051" lon="11.9577484"><ele>1202.0</ele><time>2026-04-26T14:46:38.858Z</time></trkpt><trkpt lat="46.2246296" lon="11.9577377"><ele>1202.0</ele><time>2026-04-26T14:46:39.844Z</time></trkpt><trkpt lat="46.2247413" lon="11.9577281"><ele>1202.0</ele><time>2026-04-26T14:46:40.846Z</time></trkpt><trkpt lat="46.224841" lon="11.957692"><ele>1202.0</ele><time>2026-04-26T14:46:41.869Z</time></trkpt><trkpt lat="46.2249251" lon="11.9576173"><ele>1202.0</ele><time>2026-04-26T14:46:42.845Z</time></trkpt><trkpt lat="46.2249974" lon="11.9575267"><ele>1204.5</ele><time>2026-04-26T14:46:43.868Z</time></trkpt><trkpt lat="46.2250539" lon="11.9574039"><ele>1207.0</ele><time>2026-04-26T14:46:44.845Z</time></trkpt><trkpt lat="46.2250945" lon="11.9572542"><ele>1209.5</ele><time>2026-04-26T14:46:45.854Z</time></trkpt><trkpt lat="46.2251314" lon="11.9570957"><ele>1212.0</ele><time>2026-04-26T14:46:46.847Z</time></trkpt><trkpt lat="46.2251678" lon="11.9569242"><ele>1212.0</ele><time>2026-04-26T14:46:47.855Z</time></trkpt><trkpt lat="46.2252023" lon="11.9567644"><ele>1212.0</ele><time>2026-04-26T14:46:48.85Z</time></trkpt><trkpt lat="46.2252273" lon="11.9566137"><ele>1212.0</ele><time>2026-04-26T14:46:49.849Z</time></trkpt><trkpt lat="46.2252406" lon="11.9564792"><ele>1212.0</ele><time>2026-04-26T14:46:50.861Z</time></trkpt><trkpt lat="46.2252559" lon="11.9563735"><ele>1212.0</ele><time>2026-04-26T14:46:51.851Z</time></trkpt><trkpt lat="46.2252859" lon="11.9562912"><ele>1212.6666666666667</ele><time>2026-04-26T14:46:52.852Z</time></trkpt><trkpt lat="46.225344" lon="11.9562477"><ele>1213.3333333333333</ele><time>2026-04-26T14:46:53.858Z</time></trkpt><trkpt lat="46.2254109" lon="11.9562512"><ele>1214.0</ele><time>2026-04-26T14:46:54.855Z</time></trkpt><trkpt lat="46.2254719" lon="11.9562931"><ele>1214.6666666666665</ele><time>2026-04-26T14:46:55.855Z</time></trkpt><trkpt lat="46.2255318" lon="11.9563834"><ele>1215.3333333333333</ele><time>2026-04-26T14:46:56.85Z</time></trkpt><trkpt lat="46.2256121" lon="11.9564835"><ele>1216.0</ele><time>2026-04-26T14:46:57.847Z</time></trkpt><trkpt lat="46.225715" lon="11.9565114"><ele>1216.75</ele><time>2026-04-26T14:46:58.859Z</time></trkpt><trkpt lat="46.2258148" lon="11.9565904"><ele>1217.5</ele><time>2026-04-26T14:46:59.852Z</time></trkpt><trkpt lat="46.22591" lon="11.9566903"><ele>1218.25</ele><time>2026-04-26T14:47:00.847Z</time></trkpt><trkpt lat="46.2259955" lon="11.9567989"><ele>1219.0</ele><time>2026-04-26T14:47:01.855Z</time></trkpt><trkpt lat="46.226078" lon="11.9569065"><ele>1219.0</ele><time>2026-04-26T14:47:02.857Z</time></trkpt><trkpt lat="46.226166" lon="11.9569855"><ele>1219.0</ele><time>2026-04-26T14:47:03.851Z</time></trkpt><trkpt lat="46.2262698" lon="11.9570245"><ele>1219.0</ele><time>2026-04-26T14:47:04.852Z</time></trkpt><trkpt lat="46.2263816" lon="11.9570281"><ele>1219.0</ele><time>2026-04-26T14:47:05.852Z</time></trkpt><trkpt lat="46.2264951" lon="11.9570614"><ele>1219.0</ele><time>2026-04-26T14:47:06.86Z</time></trkpt><trkpt lat="46.2266075" lon="11.9571434"><ele>1221.75</ele><time>2026-04-26T14:47:07.859Z</time></trkpt><trkpt lat="46.2267188" lon="11.9572749"><ele>1224.5</ele><time>2026-04-26T14:47:08.845Z</time></trkpt><trkpt lat="46.2268255" lon="11.957427"><ele>1227.25</ele><time>2026-04-26T14:47:09.855Z</time></trkpt><trkpt lat="46.2269268" lon="11.9575614"><ele>1230.0</ele><time>2026-04-26T14:47:10.851Z</time></trkpt><trkpt lat="46.2270249" lon="11.9576782"><ele>1230.0</ele><time>2026-04-26T14:47:11.858Z</time></trkpt><trkpt lat="46.227132" lon="11.9577696"><ele>1230.0</ele><time>2026-04-26T14:47:12.872Z</time></trkpt><trkpt lat="46.2272541" lon="11.9578039"><ele>1230.0</ele><time>2026-04-26T14:47:13.874Z</time></trkpt><trkpt lat="46.2273802" lon="11.957818"><ele>1230.0</ele><time>2026-04-26T14:47:14.85Z</time></trkpt><trkpt lat="46.2275011" lon="11.9578307"><ele>1231.75</ele><time>2026-04-26T14:47:15.868Z</time></trkpt><trkpt lat="46.2276152" lon="11.9578378"><ele>1233.5</ele><time>2026-04-26T14:47:16.841Z</time></trkpt><trkpt lat="46.2277292" lon="11.9578738"><ele>1235.25</ele><time>2026-04-26T14:47:17.851Z</time></trkpt><trkpt lat="46.2278489" lon="11.957885"><ele>1237.0</ele><time>2026-04-26T14:47:18.857Z</time></trkpt><trkpt lat="46.2279725" lon="11.9578779"><ele>1237.0</ele><time>2026-04-26T14:47:19.844Z</time></trkpt><trkpt lat="46.2280912" lon="11.9578188"><ele>1237.0</ele><time>2026-04-26T14:47:20.85Z</time></trkpt><trkpt lat="46.2282175" lon="11.9577727"><ele>1237.0</ele><time>2026-04-26T14:47:21.859Z</time></trkpt><trkpt lat="46.228352" lon="11.9577571"><ele>1237.0</ele><time>2026-04-26T14:47:22.852Z</time></trkpt><trkpt lat="46.2284701" lon="11.9576994"><ele>1238.0</ele><time>2026-04-26T14:47:23.865Z</time></trkpt><trkpt lat="46.2285802" lon="11.957652"><ele>1239.0</ele><time>2026-04-26T14:47:24.838Z</time></trkpt><trkpt lat="46.2286892" lon="11.9576274"><ele>1240.0</ele><time>2026-04-26T14:47:25.865Z</time></trkpt><trkpt lat="46.2287896" lon="11.9575801"><ele>1241.0</ele><time>2026-04-26T14:47:26.841Z</time></trkpt><trkpt lat="46.22888" lon="11.9575056"><ele>1242.0</ele><time>2026-04-26T14:47:27.853Z</time></trkpt><trkpt lat="46.2289655" lon="11.9574222"><ele>1244.8</ele><time>2026-04-26T14:47:28.846Z</time></trkpt><trkpt lat="46.2290394" lon="11.957325"><ele>1247.6</ele><time>2026-04-26T14:47:29.844Z</time></trkpt><trkpt lat="46.2291111" lon="11.9572415"><ele>1250.3999999999999</ele><time>2026-04-26T14:47:30.864Z</time></trkpt><trkpt lat="46.2291846" lon="11.9571736"><ele>1253.2</ele><time>2026-04-26T14:47:31.856Z</time></trkpt><trkpt lat="46.2292655" lon="11.9571253"><ele>1256.0</ele><time>2026-04-26T14:47:32.856Z</time></trkpt><trkpt lat="46.2293528" lon="11.9570998"><ele>1256.0</ele><time>2026-04-26T14:47:33.849Z</time></trkpt><trkpt lat="46.2294442" lon="11.9570961"><ele>1256.0</ele><time>2026-04-26T14:47:34.849Z</time></trkpt><trkpt lat="46.229539" lon="11.9571174"><ele>1256.0</ele><time>2026-04-26T14:47:35.86Z</time></trkpt><trkpt lat="46.2296372" lon="11.957164"><ele>1256.0</ele><time>2026-04-26T14:47:36.857Z</time></trkpt><trkpt lat="46.2297395" lon="11.9572174"><ele>1256.0</ele><time>2026-04-26T14:47:37.841Z</time></trkpt><trkpt lat="46.2298471" lon="11.9572636"><ele>1256.5</ele><time>2026-04-26T14:47:38.846Z</time></trkpt><trkpt lat="46.2299573" lon="11.957296"><ele>1257.0</ele><time>2026-04-26T14:47:39.862Z</time></trkpt><trkpt lat="46.2300745" lon="11.9573062"><ele>1257.5</ele><time>2026-04-26T14:47:40.853Z</time></trkpt><trkpt lat="46.2301921" lon="11.957295"><ele>1258.0</ele><time>2026-04-26T14:47:41.842Z</time></trkpt><trkpt lat="46.2303066" lon="11.9572858"><ele>1258.0</ele><time>2026-04-26T14:47:42.841Z</time></trkpt><trkpt lat="46.2304209" lon="11.9572868"><ele>1258.0</ele><time>2026-04-26T14:47:43.869Z</time></trkpt><trkpt lat="46.2305339" lon="11.9573084"><ele>1258.0</ele><time>2026-04-26T14:47:44.846Z</time></trkpt><trkpt lat="46.2306393" lon="11.9573737"><ele>1258.0</ele><time>2026-04-26T14:47:45.851Z</time></trkpt><trkpt lat="46.2307308" lon="11.9574787"><ele>1258.75</ele><time>2026-04-26T14:47:46.849Z</time></trkpt><trkpt lat="46.2308122" lon="11.9575959"><ele>1259.5</ele><time>2026-04-26T14:47:47.851Z</time></trkpt><trkpt lat="46.2308858" lon="11.957689"><ele>1260.25</ele><time>2026-04-26T14:47:48.852Z</time></trkpt><trkpt lat="46.2309787" lon="11.9577735"><ele>1261.0</ele><time>2026-04-26T14:47:49.845Z</time></trkpt><trkpt lat="46.2310984" lon="11.9578413"><ele>1261.0</ele><time>2026-04-26T14:47:50.851Z</time></trkpt><trkpt lat="46.2312258" lon="11.95788"><ele>1261.0</ele><time>2026-04-26T14:47:51.864Z</time></trkpt><trkpt lat="46.2313509" lon="11.9578934"><ele>1261.0</ele><time>2026-04-26T14:47:52.847Z</time></trkpt><trkpt lat="46.23147" lon="11.9579274"><ele>1261.0</ele><time>2026-04-26T14:47:53.852Z</time></trkpt><trkpt lat="46.2315853" lon="11.9579942"><ele>1261.0</ele><time>2026-04-26T14:47:54.845Z</time></trkpt><trkpt lat="46.2316875" lon="11.9581321"><ele>1261.0</ele><time>2026-04-26T14:47:55.862Z</time></trkpt><trkpt lat="46.2317777" lon="11.9583278"><ele>1261.0</ele><time>2026-04-26T14:47:56.853Z</time></trkpt><trkpt lat="46.2318658" lon="11.9585492"><ele>1261.0</ele><time>2026-04-26T14:47:57.857Z</time></trkpt><trkpt lat="46.2319477" lon="11.9587773"><ele>1261.0</ele><time>2026-04-26T14:47:58.837Z</time></trkpt><trkpt lat="46.2320197" lon="11.9589818"><ele>1261.0</ele><time>2026-04-26T14:47:59.844Z</time></trkpt><trkpt lat="46.2320844" lon="11.959171"><ele>1259.25</ele><time>2026-04-26T14:48:00.835Z</time></trkpt><trkpt lat="46.2321501" lon="11.9593354"><ele>1257.5</ele><time>2026-04-26T14:48:01.851Z</time></trkpt><trkpt lat="46.2322279" lon="11.9594666"><ele>1255.75</ele><time>2026-04-26T14:48:02.854Z</time></trkpt><trkpt lat="46.2323407" lon="11.9595403"><ele>1254.0</ele><time>2026-04-26T14:48:03.852Z</time></trkpt><trkpt lat="46.2324925" lon="11.9595816"><ele>1257.75</ele><time>2026-04-26T14:48:04.839Z</time></trkpt><trkpt lat="46.2326535" lon="11.9595964"><ele>1261.5</ele><time>2026-04-26T14:48:05.851Z</time></trkpt><trkpt lat="46.2327943" lon="11.9596147"><ele>1265.25</ele><time>2026-04-26T14:48:06.846Z</time></trkpt><trkpt lat="46.2329218" lon="11.9596457"><ele>1269.0</ele><time>2026-04-26T14:48:07.842Z</time></trkpt><trkpt lat="46.2330313" lon="11.9596889"><ele>1269.0</ele><time>2026-04-26T14:48:08.854Z</time></trkpt><trkpt lat="46.2331132" lon="11.9597493"><ele>1269.0</ele><time>2026-04-26T14:48:09.845Z</time></trkpt><trkpt lat="46.233175" lon="11.959795"><ele>1269.0</ele><time>2026-04-26T14:48:10.844Z</time></trkpt><trkpt lat="46.2332148" lon="11.9598765"><ele>1269.0</ele><time>2026-04-26T14:48:11.847Z</time></trkpt><trkpt lat="46.2332258" lon="11.9599798"><ele>1269.0</ele><time>2026-04-26T14:48:12.862Z</time></trkpt><trkpt lat="46.2332104" lon="11.9600974"><ele>1269.0</ele><time>2026-04-26T14:48:13.866Z</time></trkpt><trkpt lat="46.2331859" lon="11.9602106"><ele>1270.8</ele><time>2026-04-26T14:48:14.853Z</time></trkpt><trkpt lat="46.2331518" lon="11.960302"><ele>1272.6000000000001</ele><time>2026-04-26T14:48:15.845Z</time></trkpt><trkpt lat="46.2330817" lon="11.9603575"><ele>1274.4</ele><time>2026-04-26T14:48:16.85Z</time></trkpt><trkpt lat="46.2329885" lon="11.9604185"><ele>1276.2</ele><time>2026-04-26T14:48:17.855Z</time></trkpt><trkpt lat="46.2328954" lon="11.9604764"><ele>1278.0</ele><time>2026-04-26T14:48:18.849Z</time></trkpt><trkpt lat="46.2328144" lon="11.9605526"><ele>1278.0</ele><time>2026-04-26T14:48:19.847Z</time></trkpt><trkpt lat="46.2327321" lon="11.9606269"><ele>1278.0</ele><time>2026-04-26T14:48:20.841Z</time></trkpt><trkpt lat="46.2326441" lon="11.9607174"><ele>1278.0</ele><time>2026-04-26T14:48:21.848Z</time></trkpt><trkpt lat="46.2325762" lon="11.960871"><ele>1278.0</ele><time>2026-04-26T14:48:22.841Z</time></trkpt><trkpt lat="46.232509" lon="11.9610467"><ele>1273.0</ele><time>2026-04-26T14:48:23.846Z</time></trkpt><trkpt lat="46.2324422" lon="11.9612393"><ele>1268.0</ele><time>2026-04-26T14:48:24.834Z</time></trkpt><trkpt lat="46.2323757" lon="11.9614357"><ele>1263.0</ele><time>2026-04-26T14:48:25.85Z</time></trkpt><trkpt lat="46.2323054" lon="11.9616302"><ele>1263.75</ele><time>2026-04-26T14:48:26.843Z</time></trkpt><trkpt lat="46.2322452" lon="11.9618259"><ele>1264.5</ele><time>2026-04-26T14:48:27.856Z</time></trkpt><trkpt lat="46.2321797" lon="11.9620126"><ele>1265.25</ele><time>2026-04-26T14:48:28.854Z</time></trkpt><trkpt lat="46.2321423" lon="11.962207"><ele>1266.0</ele><time>2026-04-26T14:48:29.838Z</time></trkpt><trkpt lat="46.2321252" lon="11.9624056"><ele>1265.6666666666667</ele><time>2026-04-26T14:48:30.859Z</time></trkpt><trkpt lat="46.2321388" lon="11.9626212"><ele>1265.3333333333335</ele><time>2026-04-26T14:48:31.853Z</time></trkpt><trkpt lat="46.2321805" lon="11.962853"><ele>1265.0</ele><time>2026-04-26T14:48:32.859Z</time></trkpt><trkpt lat="46.2322341" lon="11.9630901"><ele>1265.0</ele><time>2026-04-26T14:48:33.862Z</time></trkpt><trkpt lat="46.2322941" lon="11.963311"><ele>1265.0</ele><time>2026-04-26T14:48:34.854Z</time></trkpt><trkpt lat="46.2323535" lon="11.9635171"><ele>1265.0</ele><time>2026-04-26T14:48:35.849Z</time></trkpt><trkpt lat="46.2324285" lon="11.9637191"><ele>1268.6666666666667</ele><time>2026-04-26T14:48:36.841Z</time></trkpt><trkpt lat="46.2325213" lon="11.9639272"><ele>1272.3333333333333</ele><time>2026-04-26T14:48:37.847Z</time></trkpt><trkpt lat="46.2326194" lon="11.9641471"><ele>1276.0</ele><time>2026-04-26T14:48:38.869Z</time></trkpt><trkpt lat="46.2327239" lon="11.9643695"><ele>1276.0</ele><time>2026-04-26T14:48:39.903Z</time></trkpt><trkpt lat="46.2328515" lon="11.9645736"><ele>1276.0</ele><time>2026-04-26T14:48:40.844Z</time></trkpt><trkpt lat="46.2329686" lon="11.9647888"><ele>1276.0</ele><time>2026-04-26T14:48:41.848Z</time></trkpt><trkpt lat="46.2330632" lon="11.9650172"><ele>1281.3333333333333</ele><time>2026-04-26T14:48:42.874Z</time></trkpt><trkpt lat="46.2331535" lon="11.965236"><ele>1286.6666666666667</ele><time>2026-04-26T14:48:43.863Z</time></trkpt><trkpt lat="46.2332504" lon="11.9654396"><ele>1292.0</ele><time>2026-04-26T14:48:44.827Z</time></trkpt><trkpt lat="46.2333378" lon="11.9656448"><ele>1292.0</ele><time>2026-04-26T14:48:45.837Z</time></trkpt><trkpt lat="46.2334039" lon="11.9658582"><ele>1292.0</ele><time>2026-04-26T14:48:46.845Z</time></trkpt><trkpt lat="46.2334434" lon="11.9660902"><ele>1292.0</ele><time>2026-04-26T14:48:47.835Z</time></trkpt><trkpt lat="46.233466" lon="11.9663327"><ele>1291.0</ele><time>2026-04-26T14:48:48.841Z</time></trkpt><trkpt lat="46.2334793" lon="11.9665699"><ele>1290.0</ele><time>2026-04-26T14:48:49.852Z</time></trkpt><trkpt lat="46.2334994" lon="11.9667973"><ele>1289.0</ele><time>2026-04-26T14:48:50.834Z</time></trkpt><trkpt lat="46.2335346" lon="11.9670153"><ele>1286.3333333333335</ele><time>2026-04-26T14:48:51.84Z</time></trkpt><trkpt lat="46.2336002" lon="11.9672132"><ele>1283.6666666666667</ele><time>2026-04-26T14:48:52.847Z</time></trkpt><trkpt lat="46.2336959" lon="11.9673799"><ele>1281.0</ele><time>2026-04-26T14:48:53.839Z</time></trkpt><trkpt lat="46.2338303" lon="11.9675144"><ele>1282.3333333333333</ele><time>2026-04-26T14:48:54.84Z</time></trkpt><trkpt lat="46.2339697" lon="11.9676697"><ele>1283.6666666666665</ele><time>2026-04-26T14:48:55.847Z</time></trkpt><trkpt lat="46.234109" lon="11.9678675"><ele>1285.0</ele><time>2026-04-26T14:48:56.852Z</time></trkpt><trkpt lat="46.2342461" lon="11.9681039"><ele>1285.0</ele><time>2026-04-26T14:48:57.856Z</time></trkpt><trkpt lat="46.2343778" lon="11.9683576"><ele>1285.0</ele><time>2026-04-26T14:48:58.845Z</time></trkpt><trkpt lat="46.234504" lon="11.9686104"><ele>1285.0</ele><time>2026-04-26T14:48:59.859Z</time></trkpt><trkpt lat="46.2346233" lon="11.9688577"><ele>1283.6666666666665</ele><time>2026-04-26T14:49:00.854Z</time></trkpt><trkpt lat="46.2347485" lon="11.9690922"><ele>1282.3333333333333</ele><time>2026-04-26T14:49:01.849Z</time></trkpt><trkpt lat="46.2348724" lon="11.9693166"><ele>1281.0</ele><time>2026-04-26T14:49:02.843Z</time></trkpt><trkpt lat="46.2349892" lon="11.9695296"><ele>1284.0</ele><time>2026-04-26T14:49:03.867Z</time></trkpt><trkpt lat="46.2351073" lon="11.9697242"><ele>1287.0</ele><time>2026-04-26T14:49:04.864Z</time></trkpt><trkpt lat="46.2352209" lon="11.9699089"><ele>1290.0</ele><time>2026-04-26T14:49:05.864Z</time></trkpt><trkpt lat="46.235327" lon="11.9700903"><ele>1290.3333333333333</ele><time>2026-04-26T14:49:06.863Z</time></trkpt><trkpt lat="46.2354252" lon="11.9702716"><ele>1290.6666666666665</ele><time>2026-04-26T14:49:07.853Z</time></trkpt><trkpt lat="46.2355153" lon="11.9704597"><ele>1291.0</ele><time>2026-04-26T14:49:08.841Z</time></trkpt><trkpt lat="46.2355761" lon="11.9706626"><ele>1289.6666666666665</ele><time>2026-04-26T14:49:09.862Z</time></trkpt><trkpt lat="46.2356604" lon="11.9708586"><ele>1288.3333333333333</ele><time>2026-04-26T14:49:10.86Z</time></trkpt><trkpt lat="46.2357643" lon="11.9710441"><ele>1287.0</ele><time>2026-04-26T14:49:11.883Z</time></trkpt><trkpt lat="46.2358797" lon="11.9712272"><ele>1287.0</ele><time>2026-04-26T14:49:12.837Z</time></trkpt><trkpt lat="46.235992" lon="11.9714072"><ele>1287.0</ele><time>2026-04-26T14:49:13.851Z</time></trkpt><trkpt lat="46.2361016" lon="11.9715759"><ele>1287.0</ele><time>2026-04-26T14:49:14.858Z</time></trkpt><trkpt lat="46.2362" lon="11.9717448"><ele>1289.25</ele><time>2026-04-26T14:49:15.862Z</time></trkpt><trkpt lat="46.2362853" lon="11.9719111"><ele>1291.5</ele><time>2026-04-26T14:49:16.848Z</time></trkpt><trkpt lat="46.2363678" lon="11.972076"><ele>1293.75</ele><time>2026-04-26T14:49:17.852Z</time></trkpt><trkpt lat="46.2364634" lon="11.9722215"><ele>1296.0</ele><time>2026-04-26T14:49:18.855Z</time></trkpt><trkpt lat="46.2365533" lon="11.9723647"><ele>1296.5</ele><time>2026-04-26T14:49:19.857Z</time></trkpt><trkpt lat="46.2366352" lon="11.9725119"><ele>1297.0</ele><time>2026-04-26T14:49:20.86Z</time></trkpt><trkpt lat="46.2366942" lon="11.9726841"><ele>1297.5</ele><time>2026-04-26T14:49:21.849Z</time></trkpt><trkpt lat="46.2367343" lon="11.9728816"><ele>1298.0</ele><time>2026-04-26T14:49:22.854Z</time></trkpt><trkpt lat="46.2367487" lon="11.9730898"><ele>1298.0</ele><time>2026-04-26T14:49:23.853Z</time></trkpt><trkpt lat="46.2367533" lon="11.9732944"><ele>1298.0</ele><time>2026-04-26T14:49:24.846Z</time></trkpt><trkpt lat="46.2367541" lon="11.9734935"><ele>1298.0</ele><time>2026-04-26T14:49:25.855Z</time></trkpt><trkpt lat="46.2367499" lon="11.9736899"><ele>1298.0</ele><time>2026-04-26T14:49:26.864Z</time></trkpt><trkpt lat="46.2367359" lon="11.9738885"><ele>1299.0</ele><time>2026-04-26T14:49:27.845Z</time></trkpt><trkpt lat="46.2367127" lon="11.9740863"><ele>1300.0</ele><time>2026-04-26T14:49:28.847Z</time></trkpt><trkpt lat="46.2366786" lon="11.9742835"><ele>1301.0</ele><time>2026-04-26T14:49:29.844Z</time></trkpt><trkpt lat="46.2366503" lon="11.974482"><ele>1302.0</ele><time>2026-04-26T14:49:30.841Z</time></trkpt><trkpt lat="46.2366163" lon="11.9746786"><ele>1302.25</ele><time>2026-04-26T14:49:31.849Z</time></trkpt><trkpt lat="46.2365889" lon="11.9748759"><ele>1302.5</ele><time>2026-04-26T14:49:32.863Z</time></trkpt><trkpt lat="46.2365641" lon="11.975061"><ele>1302.75</ele><time>2026-04-26T14:49:33.876Z</time></trkpt><trkpt lat="46.2365465" lon="11.9752412"><ele>1303.0</ele><time>2026-04-26T14:49:34.865Z</time></trkpt><trkpt lat="46.2365259" lon="11.9754187"><ele>1303.0</ele><time>2026-04-26T14:49:35.855Z</time></trkpt><trkpt lat="46.2365234" lon="11.9755923"><ele>1303.0</ele><time>2026-04-26T14:49:36.853Z</time></trkpt><trkpt lat="46.2365433" lon="11.9757617"><ele>1303.0</ele><time>2026-04-26T14:49:37.845Z</time></trkpt><trkpt lat="46.2365804" lon="11.9759309"><ele>1303.0</ele><time>2026-04-26T14:49:38.861Z</time></trkpt><trkpt lat="46.2366449" lon="11.9760847"><ele>1300.75</ele><time>2026-04-26T14:49:39.851Z</time></trkpt><trkpt lat="46.2367238" lon="11.9762273"><ele>1298.5</ele><time>2026-04-26T14:49:40.857Z</time></trkpt><trkpt lat="46.2367882" lon="11.9763911"><ele>1296.25</ele><time>2026-04-26T14:49:41.852Z</time></trkpt><trkpt lat="46.2368932" lon="11.9765129"><ele>1294.0</ele><time>2026-04-26T14:49:42.855Z</time></trkpt><trkpt lat="46.236996" lon="11.9766414"><ele>1291.3333333333333</ele><time>2026-04-26T14:49:43.845Z</time></trkpt><trkpt lat="46.2370941" lon="11.976796"><ele>1288.6666666666667</ele><time>2026-04-26T14:49:44.86Z</time></trkpt><trkpt lat="46.2372272" lon="11.9769135"><ele>1286.0</ele><time>2026-04-26T14:49:45.869Z</time></trkpt><trkpt lat="46.2373869" lon="11.9769775"><ele>1286.0</ele><time>2026-04-26T14:49:46.868Z</time></trkpt><trkpt lat="46.2375417" lon="11.9770501"><ele>1286.0</ele><time>2026-04-26T14:49:47.858Z</time></trkpt><trkpt lat="46.2376859" lon="11.9771603"><ele>1286.0</ele><time>2026-04-26T14:49:48.843Z</time></trkpt><trkpt lat="46.2378256" lon="11.9772892"><ele>1286.0</ele><time>2026-04-26T14:49:49.853Z</time></trkpt><trkpt lat="46.2379578" lon="11.977387"><ele>1286.0</ele><time>2026-04-26T14:49:50.844Z</time></trkpt><trkpt lat="46.2380899" lon="11.9775131"><ele>1286.0</ele><time>2026-04-26T14:49:51.858Z</time></trkpt><trkpt lat="46.2382222" lon="11.9776251"><ele>1279.3333333333335</ele><time>2026-04-26T14:49:52.841Z</time></trkpt><trkpt lat="46.2383532" lon="11.9777346"><ele>1272.6666666666667</ele><time>2026-04-26T14:49:53.873Z</time></trkpt><trkpt lat="46.2385147" lon="11.9777552"><ele>1266.0</ele><time>2026-04-26T14:49:54.846Z</time></trkpt><trkpt lat="46.2386629" lon="11.9777997"><ele>1266.0</ele><time>2026-04-26T14:49:55.854Z</time></trkpt><trkpt lat="46.2388132" lon="11.9778251"><ele>1266.0</ele><time>2026-04-26T14:49:56.86Z</time></trkpt><trkpt lat="46.2389558" lon="11.9778613"><ele>1266.0</ele><time>2026-04-26T14:49:57.909Z</time></trkpt><trkpt lat="46.2391003" lon="11.9778668"><ele>1266.0</ele><time>2026-04-26T14:49:58.841Z</time></trkpt><trkpt lat="46.2392338" lon="11.9778889"><ele>1266.25</ele><time>2026-04-26T14:49:59.844Z</time></trkpt><trkpt lat="46.2393546" lon="11.9778798"><ele>1266.5</ele><time>2026-04-26T14:50:00.863Z</time></trkpt><trkpt lat="46.2394637" lon="11.9777975"><ele>1266.75</ele><time>2026-04-26T14:50:01.866Z</time></trkpt><trkpt lat="46.2395694" lon="11.9777273"><ele>1267.0</ele><time>2026-04-26T14:50:02.866Z</time></trkpt><trkpt lat="46.2396766" lon="11.9776546"><ele>1263.75</ele><time>2026-04-26T14:50:03.862Z</time></trkpt><trkpt lat="46.2398069" lon="11.9776094"><ele>1260.5</ele><time>2026-04-26T14:50:04.859Z</time></trkpt><trkpt lat="46.2399366" lon="11.977595"><ele>1257.25</ele><time>2026-04-26T14:50:05.847Z</time></trkpt><trkpt lat="46.2400721" lon="11.9776186"><ele>1254.0</ele><time>2026-04-26T14:50:06.859Z</time></trkpt><trkpt lat="46.2402259" lon="11.9776933"><ele>1254.0</ele><time>2026-04-26T14:50:07.852Z</time></trkpt><trkpt lat="46.2403787" lon="11.9777689"><ele>1254.0</ele><time>2026-04-26T14:50:08.845Z</time></trkpt><trkpt lat="46.2405259" lon="11.9778243"><ele>1254.0</ele><time>2026-04-26T14:50:09.847Z</time></trkpt><trkpt lat="46.2406628" lon="11.9778329"><ele>1253.0</ele><time>2026-04-26T14:50:10.859Z</time></trkpt><trkpt lat="46.2408145" lon="11.9778448"><ele>1252.0</ele><time>2026-04-26T14:50:11.867Z</time></trkpt><trkpt lat="46.2409692" lon="11.9778564"><ele>1251.0</ele><time>2026-04-26T14:50:12.847Z</time></trkpt><trkpt lat="46.2411161" lon="11.977866"><ele>1251.0</ele><time>2026-04-26T14:50:13.864Z</time></trkpt><trkpt lat="46.241245" lon="11.977835"><ele>1251.0</ele><time>2026-04-26T14:50:14.852Z</time></trkpt><trkpt lat="46.2413571" lon="11.9777995"><ele>1251.0</ele><time>2026-04-26T14:50:15.863Z</time></trkpt><trkpt lat="46.2414604" lon="11.9777251"><ele>1251.0</ele><time>2026-04-26T14:50:16.876Z</time></trkpt><trkpt lat="46.2415423" lon="11.9776354"><ele>1250.1666666666667</ele><time>2026-04-26T14:50:17.856Z</time></trkpt><trkpt lat="46.2416022" lon="11.9775563"><ele>1249.3333333333333</ele><time>2026-04-26T14:50:18.871Z</time></trkpt><trkpt lat="46.2416423" lon="11.9774749"><ele>1248.5</ele><time>2026-04-26T14:50:19.842Z</time></trkpt><trkpt lat="46.2417549" lon="11.9774856"><ele>1247.6666666666665</ele><time>2026-04-26T14:50:21.858Z</time></trkpt><trkpt lat="46.2417808" lon="11.9776124"><ele>1246.8333333333333</ele><time>2026-04-26T14:50:23.861Z</time></trkpt><trkpt lat="46.2417273" lon="11.9776788"><ele>1246.0</ele><time>2026-04-26T14:50:24.872Z</time></trkpt><trkpt lat="46.2416394" lon="11.9777597"><ele>1246.0</ele><time>2026-04-26T14:50:25.852Z</time></trkpt><trkpt lat="46.241555" lon="11.9778639"><ele>1246.0</ele><time>2026-04-26T14:50:26.85Z</time></trkpt><trkpt lat="46.2414595" lon="11.9779529"><ele>1246.0</ele><time>2026-04-26T14:50:27.851Z</time></trkpt><trkpt lat="46.2413633" lon="11.978035"><ele>1246.0</ele><time>2026-04-26T14:50:28.839Z</time></trkpt><trkpt lat="46.2412725" lon="11.9781185"><ele>1246.0</ele><time>2026-04-26T14:50:29.861Z</time></trkpt><trkpt lat="46.2411593" lon="11.9781973"><ele>1247.25</ele><time>2026-04-26T14:50:30.852Z</time></trkpt><trkpt lat="46.2410364" lon="11.9782369"><ele>1248.5</ele><time>2026-04-26T14:50:31.858Z</time></trkpt><trkpt lat="46.2409172" lon="11.9782316"><ele>1249.75</ele><time>2026-04-26T14:50:32.842Z</time></trkpt><trkpt lat="46.2408046" lon="11.9782332"><ele>1251.0</ele><time>2026-04-26T14:50:33.867Z</time></trkpt><trkpt lat="46.2406873" lon="11.9782658"><ele>1251.75</ele><time>2026-04-26T14:50:34.84Z</time></trkpt><trkpt lat="46.2405635" lon="11.9783178"><ele>1252.5</ele><time>2026-04-26T14:50:35.865Z</time></trkpt><trkpt lat="46.2404334" lon="11.9783847"><ele>1253.25</ele><time>2026-04-26T14:50:36.858Z</time></trkpt><trkpt lat="46.2403323" lon="11.9785468"><ele>1254.0</ele><time>2026-04-26T14:50:37.846Z</time></trkpt><trkpt lat="46.2402317" lon="11.9786985"><ele>1248.5</ele><time>2026-04-26T14:50:38.85Z</time></trkpt><trkpt lat="46.2401104" lon="11.9787915"><ele>1243.0</ele><time>2026-04-26T14:50:39.861Z</time></trkpt><trkpt lat="46.2400052" lon="11.9789"><ele>1237.5</ele><time>2026-04-26T14:50:40.851Z</time></trkpt><trkpt lat="46.2398835" lon="11.978948"><ele>1232.0</ele><time>2026-04-26T14:50:41.857Z</time></trkpt><trkpt lat="46.2397746" lon="11.9789765"><ele>1232.0</ele><time>2026-04-26T14:50:42.877Z</time></trkpt><trkpt lat="46.2396189" lon="11.9789952"><ele>1232.0</ele><time>2026-04-26T14:50:43.84Z</time></trkpt><trkpt lat="46.2394617" lon="11.9789736"><ele>1232.0</ele><time>2026-04-26T14:50:44.849Z</time></trkpt><trkpt lat="46.239299" lon="11.9789754"><ele>1232.0</ele><time>2026-04-26T14:50:45.856Z</time></trkpt><trkpt lat="46.2391402" lon="11.9789786"><ele>1232.0</ele><time>2026-04-26T14:50:46.858Z</time></trkpt><trkpt lat="46.2389911" lon="11.9790091"><ele>1232.0</ele><time>2026-04-26T14:50:47.847Z</time></trkpt><trkpt lat="46.2388441" lon="11.9790505"><ele>1232.25</ele><time>2026-04-26T14:50:48.842Z</time></trkpt><trkpt lat="46.2386945" lon="11.9790871"><ele>1232.5</ele><time>2026-04-26T14:50:49.852Z</time></trkpt><trkpt lat="46.238566" lon="11.979154"><ele>1232.75</ele><time>2026-04-26T14:50:50.852Z</time></trkpt><trkpt lat="46.2384653" lon="11.979189"><ele>1233.0</ele><time>2026-04-26T14:50:51.846Z</time></trkpt><trkpt lat="46.2383921" lon="11.9791794"><ele>1228.8</ele><time>2026-04-26T14:50:52.851Z</time></trkpt><trkpt lat="46.2383401" lon="11.9792354"><ele>1224.6</ele><time>2026-04-26T14:50:53.849Z</time></trkpt><trkpt lat="46.2383158" lon="11.9793866"><ele>1220.4</ele><time>2026-04-26T14:50:55.851Z</time></trkpt><trkpt lat="46.2383733" lon="11.9794536"><ele>1216.2</ele><time>2026-04-26T14:50:56.847Z</time></trkpt><trkpt lat="46.2384771" lon="11.9794548"><ele>1212.0</ele><time>2026-04-26T14:50:57.845Z</time></trkpt><trkpt lat="46.2385934" lon="11.979386"><ele>1212.0</ele><time>2026-04-26T14:50:58.846Z</time></trkpt><trkpt lat="46.2387258" lon="11.979302"><ele>1212.0</ele><time>2026-04-26T14:50:59.864Z</time></trkpt><trkpt lat="46.2388848" lon="11.9792365"><ele>1212.0</ele><time>2026-04-26T14:51:00.851Z</time></trkpt><trkpt lat="46.2390395" lon="11.9792081"><ele>1209.5</ele><time>2026-04-26T14:51:01.862Z</time></trkpt><trkpt lat="46.2391766" lon="11.9792115"><ele>1207.0</ele><time>2026-04-26T14:51:02.852Z</time></trkpt><trkpt lat="46.2393" lon="11.9792117"><ele>1204.5</ele><time>2026-04-26T14:51:03.847Z</time></trkpt><trkpt lat="46.2394307" lon="11.9792108"><ele>1202.0</ele><time>2026-04-26T14:51:04.845Z</time></trkpt><trkpt lat="46.2395599" lon="11.979261"><ele>1202.0</ele><time>2026-04-26T14:51:05.848Z</time></trkpt><trkpt lat="46.2396738" lon="11.9792818"><ele>1202.0</ele><time>2026-04-26T14:51:06.877Z</time></trkpt><trkpt lat="46.2397694" lon="11.9793313"><ele>1202.0</ele><time>2026-04-26T14:51:07.884Z</time></trkpt><trkpt lat="46.2398612" lon="11.9793909"><ele>1202.0</ele><time>2026-04-26T14:51:08.855Z</time></trkpt><trkpt lat="46.2399663" lon="11.9794192"><ele>1202.0</ele><time>2026-04-26T14:51:09.874Z</time></trkpt><trkpt lat="46.2400822" lon="11.9794381"><ele>1201.75</ele><time>2026-04-26T14:51:10.859Z</time></trkpt><trkpt lat="46.240209" lon="11.9794139"><ele>1201.5</ele><time>2026-04-26T14:51:11.851Z</time></trkpt><trkpt lat="46.2403382" lon="11.9793964"><ele>1201.25</ele><time>2026-04-26T14:51:12.851Z</time></trkpt><trkpt lat="46.2404545" lon="11.9793522"><ele>1201.0</ele><time>2026-04-26T14:51:13.859Z</time></trkpt><trkpt lat="46.2405558" lon="11.979307"><ele>1199.3333333333333</ele><time>2026-04-26T14:51:14.866Z</time></trkpt><trkpt lat="46.2406537" lon="11.9792679"><ele>1197.6666666666665</ele><time>2026-04-26T14:51:15.866Z</time></trkpt><trkpt lat="46.2407434" lon="11.9792547"><ele>1196.0</ele><time>2026-04-26T14:51:16.85Z</time></trkpt><trkpt lat="46.240825" lon="11.9792385"><ele>1194.3333333333333</ele><time>2026-04-26T14:51:17.854Z</time></trkpt><trkpt lat="46.2408998" lon="11.9792188"><ele>1192.6666666666667</ele><time>2026-04-26T14:51:18.847Z</time></trkpt><trkpt lat="46.2409925" lon="11.9791828"><ele>1191.0</ele><time>2026-04-26T14:51:20.848Z</time></trkpt><trkpt lat="46.2410631" lon="11.9791204"><ele>1197.75</ele><time>2026-04-26T14:51:22.847Z</time></trkpt><trkpt lat="46.2412298" lon="11.9791456"><ele>1204.5</ele><time>2026-04-26T14:51:35.835Z</time></trkpt><trkpt lat="46.2413415" lon="11.9791476"><ele>1211.25</ele><time>2026-04-26T14:51:37.836Z</time></trkpt><trkpt lat="46.2414457" lon="11.9790838"><ele>1218.0</ele><time>2026-04-26T14:51:39.85Z</time></trkpt><trkpt lat="46.2415271" lon="11.9791216"><ele>1212.6</ele><time>2026-04-26T14:51:41.843Z</time></trkpt><trkpt lat="46.2415414" lon="11.9792261"><ele>1207.1999999999998</ele><time>2026-04-26T14:51:43.852Z</time></trkpt><trkpt lat="46.2414116" lon="11.9792984"><ele>1201.8</ele><time>2026-04-26T14:51:45.865Z</time></trkpt><trkpt lat="46.2413214" lon="11.9793351"><ele>1196.3999999999999</ele><time>2026-04-26T14:51:46.853Z</time></trkpt><trkpt lat="46.2412263" lon="11.9793849"><ele>1191.0</ele><time>2026-04-26T14:51:47.847Z</time></trkpt><trkpt lat="46.241139" lon="11.9794569"><ele>1191.0</ele><time>2026-04-26T14:51:48.848Z</time></trkpt><trkpt lat="46.2410708" lon="11.9795387"><ele>1191.0</ele><time>2026-04-26T14:51:49.848Z</time></trkpt><trkpt lat="46.2410044" lon="11.9795795"><ele>1191.0</ele><time>2026-04-26T14:51:50.856Z</time></trkpt><trkpt lat="46.2409277" lon="11.9796166"><ele>1191.0</ele><time>2026-04-26T14:51:51.857Z</time></trkpt><trkpt lat="46.240837" lon="11.9796419"><ele>1191.0</ele><time>2026-04-26T14:51:52.847Z</time></trkpt><trkpt lat="46.2407421" lon="11.9796687"><ele>1191.0</ele><time>2026-04-26T14:51:53.847Z</time></trkpt><trkpt lat="46.2406493" lon="11.9797203"><ele>1193.0</ele><time>2026-04-26T14:51:54.855Z</time></trkpt><trkpt lat="46.2405566" lon="11.9797739"><ele>1195.0</ele><time>2026-04-26T14:51:55.856Z</time></trkpt><trkpt lat="46.2404861" lon="11.9798632"><ele>1197.0</ele><time>2026-04-26T14:51:56.859Z</time></trkpt><trkpt lat="46.2404303" lon="11.9799638"><ele>1199.0</ele><time>2026-04-26T14:51:57.858Z</time></trkpt><trkpt lat="46.2403523" lon="11.9800033"><ele>1201.0</ele><time>2026-04-26T14:51:58.838Z</time></trkpt><trkpt lat="46.2402534" lon="11.9800094"><ele>1201.0</ele><time>2026-04-26T14:51:59.852Z</time></trkpt><trkpt lat="46.2401416" lon="11.9799811"><ele>1201.0</ele><time>2026-04-26T14:52:00.841Z</time></trkpt><trkpt lat="46.2400226" lon="11.9799408"><ele>1201.0</ele><time>2026-04-26T14:52:01.853Z</time></trkpt><trkpt lat="46.2398897" lon="11.9799307"><ele>1201.0</ele><time>2026-04-26T14:52:02.857Z</time></trkpt><trkpt lat="46.2397788" lon="11.979918"><ele>1201.25</ele><time>2026-04-26T14:52:03.856Z</time></trkpt><trkpt lat="46.2396571" lon="11.9799084"><ele>1201.5</ele><time>2026-04-26T14:52:04.85Z</time></trkpt><trkpt lat="46.2395366" lon="11.9799519"><ele>1201.75</ele><time>2026-04-26T14:52:05.858Z</time></trkpt><trkpt lat="46.2394208" lon="11.9799968"><ele>1202.0</ele><time>2026-04-26T14:52:06.839Z</time></trkpt><trkpt lat="46.2393157" lon="11.9800606"><ele>1199.75</ele><time>2026-04-26T14:52:07.843Z</time></trkpt><trkpt lat="46.2392113" lon="11.9801247"><ele>1197.5</ele><time>2026-04-26T14:52:08.86Z</time></trkpt><trkpt lat="46.2391067" lon="11.9802121"><ele>1195.25</ele><time>2026-04-26T14:52:09.881Z</time></trkpt><trkpt lat="46.239006" lon="11.9803192"><ele>1193.0</ele><time>2026-04-26T14:52:10.838Z</time></trkpt><trkpt lat="46.2389138" lon="11.9804239"><ele>1193.0</ele><time>2026-04-26T14:52:11.848Z</time></trkpt><trkpt lat="46.2388154" lon="11.9805052"><ele>1193.0</ele><time>2026-04-26T14:52:12.86Z</time></trkpt><trkpt lat="46.2387187" lon="11.9805617"><ele>1193.0</ele><time>2026-04-26T14:52:13.862Z</time></trkpt><trkpt lat="46.2386211" lon="11.980574"><ele>1193.0</ele><time>2026-04-26T14:52:14.846Z</time></trkpt><trkpt lat="46.2385484" lon="11.9805795"><ele>1193.0</ele><time>2026-04-26T14:52:15.855Z</time></trkpt><trkpt lat="46.2384631" lon="11.9806636"><ele>1193.0</ele><time>2026-04-26T14:52:17.852Z</time></trkpt><trkpt lat="46.238492" lon="11.9807854"><ele>1193.0</ele><time>2026-04-26T14:52:19.863Z</time></trkpt><trkpt lat="46.2385556" lon="11.9807597"><ele>1193.0</ele><time>2026-04-26T14:52:20.843Z</time></trkpt><trkpt lat="46.2386239" lon="11.9806992"><ele>1193.0</ele><time>2026-04-26T14:52:21.86Z</time></trkpt><trkpt lat="46.2387223" lon="11.9806307"><ele>1193.0</ele><time>2026-04-26T14:52:22.848Z</time></trkpt><trkpt lat="46.2388527" lon="11.9805555"><ele>1186.3333333333335</ele><time>2026-04-26T14:52:23.866Z</time></trkpt><trkpt lat="46.2390037" lon="11.9805207"><ele>1179.6666666666667</ele><time>2026-04-26T14:52:24.854Z</time></trkpt><trkpt lat="46.239162" lon="11.9804848"><ele>1173.0</ele><time>2026-04-26T14:52:25.87Z</time></trkpt><trkpt lat="46.2393113" lon="11.9804368"><ele>1173.0</ele><time>2026-04-26T14:52:26.856Z</time></trkpt><trkpt lat="46.2394674" lon="11.9804393"><ele>1173.0</ele><time>2026-04-26T14:52:27.854Z</time></trkpt><trkpt lat="46.239621" lon="11.9804481"><ele>1173.0</ele><time>2026-04-26T14:52:28.847Z</time></trkpt><trkpt lat="46.2397669" lon="11.980515"><ele>1173.5</ele><time>2026-04-26T14:52:29.864Z</time></trkpt><trkpt lat="46.2399027" lon="11.9806019"><ele>1174.0</ele><time>2026-04-26T14:52:30.851Z</time></trkpt><trkpt lat="46.2400209" lon="11.9806931"><ele>1174.5</ele><time>2026-04-26T14:52:31.849Z</time></trkpt><trkpt lat="46.2401481" lon="11.9807513"><ele>1175.0</ele><time>2026-04-26T14:52:32.845Z</time></trkpt><trkpt lat="46.2402838" lon="11.9808138"><ele>1175.0</ele><time>2026-04-26T14:52:33.846Z</time></trkpt><trkpt lat="46.2404189" lon="11.9808684"><ele>1175.0</ele><time>2026-04-26T14:52:34.857Z</time></trkpt><trkpt lat="46.2405479" lon="11.980839"><ele>1175.0</ele><time>2026-04-26T14:52:35.841Z</time></trkpt><trkpt lat="46.2406568" lon="11.9808494"><ele>1175.0</ele><time>2026-04-26T14:52:36.87Z</time></trkpt><trkpt lat="46.2407708" lon="11.9807902"><ele>1172.0</ele><time>2026-04-26T14:52:37.844Z</time></trkpt><trkpt lat="46.2408768" lon="11.9806982"><ele>1169.0</ele><time>2026-04-26T14:52:38.869Z</time></trkpt><trkpt lat="46.2409873" lon="11.9806314"><ele>1166.0</ele><time>2026-04-26T14:52:39.839Z</time></trkpt><trkpt lat="46.2411514" lon="11.9806415"><ele>1163.0</ele><time>2026-04-26T14:52:40.837Z</time></trkpt><trkpt lat="46.241317" lon="11.9806938"><ele>1159.0</ele><time>2026-04-26T14:52:41.843Z</time></trkpt><trkpt lat="46.2414846" lon="11.9807326"><ele>1155.0</ele><time>2026-04-26T14:52:42.862Z</time></trkpt><trkpt lat="46.2416518" lon="11.9807353"><ele>1151.0</ele><time>2026-04-26T14:52:43.836Z</time></trkpt><trkpt lat="46.241812" lon="11.9807129"><ele>1151.0</ele><time>2026-04-26T14:52:44.856Z</time></trkpt><trkpt lat="46.2419549" lon="11.9806617"><ele>1151.0</ele><time>2026-04-26T14:52:45.857Z</time></trkpt><trkpt lat="46.2420842" lon="11.9806326"><ele>1151.0</ele><time>2026-04-26T14:52:46.846Z</time></trkpt><trkpt lat="46.2422102" lon="11.9806621"><ele>1151.0</ele><time>2026-04-26T14:52:47.852Z</time></trkpt><trkpt lat="46.2423229" lon="11.9807465"><ele>1146.25</ele><time>2026-04-26T14:52:48.848Z</time></trkpt><trkpt lat="46.2424363" lon="11.9808531"><ele>1141.5</ele><time>2026-04-26T14:52:49.853Z</time></trkpt><trkpt lat="46.2425819" lon="11.9808912"><ele>1136.75</ele><time>2026-04-26T14:52:50.862Z</time></trkpt><trkpt lat="46.2427329" lon="11.9809414"><ele>1132.0</ele><time>2026-04-26T14:52:51.862Z</time></trkpt><trkpt lat="46.2428945" lon="11.9809632"><ele>1132.0</ele><time>2026-04-26T14:52:52.835Z</time></trkpt><trkpt lat="46.2430532" lon="11.9810004"><ele>1132.0</ele><time>2026-04-26T14:52:53.851Z</time></trkpt><trkpt lat="46.2432077" lon="11.981056"><ele>1132.0</ele><time>2026-04-26T14:52:54.85Z</time></trkpt><trkpt lat="46.2433552" lon="11.9811423"><ele>1131.5</ele><time>2026-04-26T14:52:55.839Z</time></trkpt><trkpt lat="46.2434891" lon="11.9812553"><ele>1131.0</ele><time>2026-04-26T14:52:56.848Z</time></trkpt><trkpt lat="46.2436104" lon="11.9813389"><ele>1130.5</ele><time>2026-04-26T14:52:57.864Z</time></trkpt><trkpt lat="46.24374" lon="11.9814072"><ele>1130.0</ele><time>2026-04-26T14:52:58.857Z</time></trkpt><trkpt lat="46.2438904" lon="11.9814276"><ele>1129.0</ele><time>2026-04-26T14:52:59.857Z</time></trkpt><trkpt lat="46.2440394" lon="11.9814743"><ele>1128.0</ele><time>2026-04-26T14:53:00.873Z</time></trkpt><trkpt lat="46.2441765" lon="11.9815776"><ele>1127.0</ele><time>2026-04-26T14:53:01.846Z</time></trkpt><trkpt lat="46.2443205" lon="11.981697"><ele>1121.3333333333335</ele><time>2026-04-26T14:53:02.853Z</time></trkpt><trkpt lat="46.2444644" lon="11.9818249"><ele>1115.6666666666667</ele><time>2026-04-26T14:53:03.848Z</time></trkpt><trkpt lat="46.244604" lon="11.9819492"><ele>1110.0</ele><time>2026-04-26T14:53:04.853Z</time></trkpt><trkpt lat="46.2447409" lon="11.9820728"><ele>1110.6666666666667</ele><time>2026-04-26T14:53:05.865Z</time></trkpt><trkpt lat="46.2448823" lon="11.9821769"><ele>1111.3333333333335</ele><time>2026-04-26T14:53:06.843Z</time></trkpt><trkpt lat="46.2450458" lon="11.982241"><ele>1112.0</ele><time>2026-04-26T14:53:07.845Z</time></trkpt><trkpt lat="46.2452013" lon="11.9822501"><ele>1112.0</ele><time>2026-04-26T14:53:08.86Z</time></trkpt><trkpt lat="46.2453395" lon="11.9822337"><ele>1112.0</ele><time>2026-04-26T14:53:09.842Z</time></trkpt><trkpt lat="46.245459" lon="11.9821535"><ele>1112.0</ele><time>2026-04-26T14:53:10.837Z</time></trkpt><trkpt lat="46.2455676" lon="11.982025"><ele>1112.0</ele><time>2026-04-26T14:53:11.855Z</time></trkpt><trkpt lat="46.2456643" lon="11.9818913"><ele>1111.75</ele><time>2026-04-26T14:53:12.854Z</time></trkpt><trkpt lat="46.2457626" lon="11.9817718"><ele>1111.5</ele><time>2026-04-26T14:53:13.869Z</time></trkpt><trkpt lat="46.2458572" lon="11.981665"><ele>1111.25</ele><time>2026-04-26T14:53:14.847Z</time></trkpt><trkpt lat="46.2459503" lon="11.9815827"><ele>1111.0</ele><time>2026-04-26T14:53:15.851Z</time></trkpt><trkpt lat="46.2460731" lon="11.9815802"><ele>1111.25</ele><time>2026-04-26T14:53:16.853Z</time></trkpt><trkpt lat="46.2462013" lon="11.9815872"><ele>1111.5</ele><time>2026-04-26T14:53:17.845Z</time></trkpt><trkpt lat="46.2463493" lon="11.9815974"><ele>1111.75</ele><time>2026-04-26T14:53:18.858Z</time></trkpt><trkpt lat="46.2465023" lon="11.9816635"><ele>1112.0</ele><time>2026-04-26T14:53:19.863Z</time></trkpt><trkpt lat="46.2466569" lon="11.981702"><ele>1109.5</ele><time>2026-04-26T14:53:20.857Z</time></trkpt><trkpt lat="46.2468094" lon="11.9817369"><ele>1107.0</ele><time>2026-04-26T14:53:21.858Z</time></trkpt><trkpt lat="46.246954" lon="11.9817785"><ele>1104.5</ele><time>2026-04-26T14:53:22.855Z</time></trkpt><trkpt lat="46.2470916" lon="11.9818235"><ele>1102.0</ele><time>2026-04-26T14:53:23.84Z</time></trkpt><trkpt lat="46.2472174" lon="11.981901"><ele>1099.5</ele><time>2026-04-26T14:53:24.857Z</time></trkpt><trkpt lat="46.2473482" lon="11.9819414"><ele>1097.0</ele><time>2026-04-26T14:53:25.859Z</time></trkpt><trkpt lat="46.2474809" lon="11.9819531"><ele>1094.5</ele><time>2026-04-26T14:53:26.852Z</time></trkpt><trkpt lat="46.2476154" lon="11.9819454"><ele>1092.0</ele><time>2026-04-26T14:53:27.864Z</time></trkpt><trkpt lat="46.2477511" lon="11.9819182"><ele>1092.0</ele><time>2026-04-26T14:53:28.851Z</time></trkpt><trkpt lat="46.2478828" lon="11.9818644"><ele>1092.0</ele><time>2026-04-26T14:53:29.845Z</time></trkpt><trkpt lat="46.2480161" lon="11.98181"><ele>1092.0</ele><time>2026-04-26T14:53:30.84Z</time></trkpt><trkpt lat="46.2481558" lon="11.9817597"><ele>1092.0</ele><time>2026-04-26T14:53:31.855Z</time></trkpt><trkpt lat="46.2483012" lon="11.981708"><ele>1097.0</ele><time>2026-04-26T14:53:32.859Z</time></trkpt><trkpt lat="46.2484497" lon="11.9816601"><ele>1102.0</ele><time>2026-04-26T14:53:33.851Z</time></trkpt><trkpt lat="46.2485897" lon="11.9815916"><ele>1107.0</ele><time>2026-04-26T14:53:34.855Z</time></trkpt><trkpt lat="46.2487427" lon="11.9815648"><ele>1107.0</ele><time>2026-04-26T14:53:35.858Z</time></trkpt><trkpt lat="46.248888" lon="11.9815284"><ele>1107.0</ele><time>2026-04-26T14:53:36.847Z</time></trkpt><trkpt lat="46.2490244" lon="11.9814887"><ele>1107.0</ele><time>2026-04-26T14:53:37.856Z</time></trkpt><trkpt lat="46.2491574" lon="11.9814412"><ele>1107.0</ele><time>2026-04-26T14:53:38.851Z</time></trkpt><trkpt lat="46.2492782" lon="11.9813591"><ele>1103.5</ele><time>2026-04-26T14:53:39.847Z</time></trkpt><trkpt lat="46.2493861" lon="11.9812662"><ele>1100.0</ele><time>2026-04-26T14:53:40.836Z</time></trkpt><trkpt lat="46.2495021" lon="11.9812286"><ele>1096.5</ele><time>2026-04-26T14:53:41.841Z</time></trkpt><trkpt lat="46.2496253" lon="11.9811996"><ele>1093.0</ele><time>2026-04-26T14:53:42.842Z</time></trkpt><trkpt lat="46.2497531" lon="11.9811809"><ele>1091.75</ele><time>2026-04-26T14:53:43.868Z</time></trkpt><trkpt lat="46.2498823" lon="11.9811659"><ele>1090.5</ele><time>2026-04-26T14:53:44.86Z</time></trkpt><trkpt lat="46.2500124" lon="11.9811551"><ele>1089.25</ele><time>2026-04-26T14:53:45.844Z</time></trkpt><trkpt lat="46.25014" lon="11.981148"><ele>1088.0</ele><time>2026-04-26T14:53:46.846Z</time></trkpt><trkpt lat="46.2502647" lon="11.9811424"><ele>1088.0</ele><time>2026-04-26T14:53:47.852Z</time></trkpt><trkpt lat="46.2503771" lon="11.9811334"><ele>1088.0</ele><time>2026-04-26T14:53:48.842Z</time></trkpt><trkpt lat="46.2504699" lon="11.981117"><ele>1088.0</ele><time>2026-04-26T14:53:49.859Z</time></trkpt><trkpt lat="46.2505539" lon="11.9810908"><ele>1088.0</ele><time>2026-04-26T14:53:50.856Z</time></trkpt><trkpt lat="46.2506353" lon="11.9810397"><ele>1088.0</ele><time>2026-04-26T14:53:51.851Z</time></trkpt><trkpt lat="46.2507099" lon="11.9809441"><ele>1091.4</ele><time>2026-04-26T14:53:52.848Z</time></trkpt><trkpt lat="46.2507651" lon="11.980808"><ele>1094.8</ele><time>2026-04-26T14:53:53.858Z</time></trkpt><trkpt lat="46.2508355" lon="11.9806987"><ele>1098.2</ele><time>2026-04-26T14:53:54.868Z</time></trkpt><trkpt lat="46.2508909" lon="11.9805874"><ele>1101.6</ele><time>2026-04-26T14:53:55.855Z</time></trkpt><trkpt lat="46.2509619" lon="11.9805164"><ele>1105.0</ele><time>2026-04-26T14:53:56.854Z</time></trkpt><trkpt lat="46.2510168" lon="11.9804415"><ele>1105.0</ele><time>2026-04-26T14:53:57.851Z</time></trkpt><trkpt lat="46.251099" lon="11.9804302"><ele>1105.0</ele><time>2026-04-26T14:53:58.843Z</time></trkpt><trkpt lat="46.251172" lon="11.9804344"><ele>1105.0</ele><time>2026-04-26T14:53:59.851Z</time></trkpt><trkpt lat="46.2512438" lon="11.9804632"><ele>1105.0</ele><time>2026-04-26T14:54:00.859Z</time></trkpt><trkpt lat="46.251321" lon="11.9805249"><ele>1105.0</ele><time>2026-04-26T14:54:01.859Z</time></trkpt><trkpt lat="46.2513962" lon="11.9805907"><ele>1105.0</ele><time>2026-04-26T14:54:02.851Z</time></trkpt><trkpt lat="46.2514542" lon="11.9807106"><ele>1103.5</ele><time>2026-04-26T14:54:03.846Z</time></trkpt><trkpt lat="46.251486" lon="11.9808649"><ele>1102.0</ele><time>2026-04-26T14:54:04.85Z</time></trkpt><trkpt lat="46.2515203" lon="11.9810296"><ele>1100.5</ele><time>2026-04-26T14:54:05.847Z</time></trkpt><trkpt lat="46.2515068" lon="11.9812025"><ele>1099.0</ele><time>2026-04-26T14:54:06.851Z</time></trkpt><trkpt lat="46.2514831" lon="11.9813662"><ele>1099.0</ele><time>2026-04-26T14:54:07.869Z</time></trkpt><trkpt lat="46.2514744" lon="11.9815236"><ele>1099.0</ele><time>2026-04-26T14:54:08.889Z</time></trkpt><trkpt lat="46.2514781" lon="11.9816981"><ele>1099.0</ele><time>2026-04-26T14:54:09.864Z</time></trkpt><trkpt lat="46.2514842" lon="11.9818708"><ele>1099.0</ele><time>2026-04-26T14:54:10.88Z</time></trkpt><trkpt lat="46.2514644" lon="11.9820209"><ele>1096.8</ele><time>2026-04-26T14:54:11.856Z</time></trkpt><trkpt lat="46.2514938" lon="11.9821516"><ele>1094.6000000000001</ele><time>2026-04-26T14:54:12.84Z</time></trkpt><trkpt lat="46.2515181" lon="11.9822734"><ele>1092.4</ele><time>2026-04-26T14:54:13.842Z</time></trkpt><trkpt lat="46.2515834" lon="11.9823676"><ele>1090.2</ele><time>2026-04-26T14:54:14.851Z</time></trkpt><trkpt lat="46.25168" lon="11.9824188"><ele>1088.0</ele><time>2026-04-26T14:54:15.847Z</time></trkpt><trkpt lat="46.2518011" lon="11.9824601"><ele>1088.0</ele><time>2026-04-26T14:54:16.835Z</time></trkpt><trkpt lat="46.2519336" lon="11.9824842"><ele>1088.0</ele><time>2026-04-26T14:54:17.865Z</time></trkpt><trkpt lat="46.2520672" lon="11.982513"><ele>1088.0</ele><time>2026-04-26T14:54:18.846Z</time></trkpt><trkpt lat="46.2521993" lon="11.9825418"><ele>1088.0</ele><time>2026-04-26T14:54:19.85Z</time></trkpt><trkpt lat="46.2523319" lon="11.982569"><ele>1086.25</ele><time>2026-04-26T14:54:20.851Z</time></trkpt><trkpt lat="46.2524601" lon="11.9826095"><ele>1084.5</ele><time>2026-04-26T14:54:21.868Z</time></trkpt><trkpt lat="46.252585" lon="11.9826625"><ele>1082.75</ele><time>2026-04-26T14:54:22.858Z</time></trkpt><trkpt lat="46.2527061" lon="11.9827117"><ele>1081.0</ele><time>2026-04-26T14:54:23.858Z</time></trkpt><trkpt lat="46.2528222" lon="11.9827774"><ele>1081.0</ele><time>2026-04-26T14:54:24.875Z</time></trkpt><trkpt lat="46.2529321" lon="11.9828554"><ele>1081.0</ele><time>2026-04-26T14:54:25.86Z</time></trkpt><trkpt lat="46.2530362" lon="11.9829378"><ele>1081.0</ele><time>2026-04-26T14:54:26.855Z</time></trkpt><trkpt lat="46.2531389" lon="11.9830168"><ele>1081.0</ele><time>2026-04-26T14:54:27.852Z</time></trkpt><trkpt lat="46.2532381" lon="11.9831005"><ele>1080.2</ele><time>2026-04-26T14:54:28.856Z</time></trkpt><trkpt lat="46.2533297" lon="11.9831973"><ele>1079.3999999999999</ele><time>2026-04-26T14:54:29.846Z</time></trkpt><trkpt lat="46.2534205" lon="11.9832871"><ele>1078.6</ele><time>2026-04-26T14:54:30.849Z</time></trkpt><trkpt lat="46.2535125" lon="11.983364"><ele>1077.8</ele><time>2026-04-26T14:54:31.842Z</time></trkpt><trkpt lat="46.2536156" lon="11.9834067"><ele>1077.0</ele><time>2026-04-26T14:54:32.85Z</time></trkpt><trkpt lat="46.2537185" lon="11.9834513"><ele>1077.0</ele><time>2026-04-26T14:54:33.849Z</time></trkpt><trkpt lat="46.2538196" lon="11.983505"><ele>1077.0</ele><time>2026-04-26T14:54:34.849Z</time></trkpt><trkpt lat="46.253923" lon="11.9835572"><ele>1077.0</ele><time>2026-04-26T14:54:35.853Z</time></trkpt><trkpt lat="46.2540246" lon="11.9836111"><ele>1077.0</ele><time>2026-04-26T14:54:36.845Z</time></trkpt><trkpt lat="46.2541246" lon="11.9836587"><ele>1077.0</ele><time>2026-04-26T14:54:37.848Z</time></trkpt><trkpt lat="46.2542135" lon="11.9837224"><ele>1078.6</ele><time>2026-04-26T14:54:38.852Z</time></trkpt><trkpt lat="46.254302" lon="11.9837739"><ele>1080.2</ele><time>2026-04-26T14:54:39.856Z</time></trkpt><trkpt lat="46.2543927" lon="11.9838214"><ele>1081.8</ele><time>2026-04-26T14:54:40.849Z</time></trkpt><trkpt lat="46.2544949" lon="11.9838455"><ele>1083.4</ele><time>2026-04-26T14:54:41.864Z</time></trkpt><trkpt lat="46.2545962" lon="11.9839011"><ele>1085.0</ele><time>2026-04-26T14:54:42.858Z</time></trkpt><trkpt lat="46.2547" lon="11.98395"><ele>1086.2</ele><time>2026-04-26T14:54:43.854Z</time></trkpt><trkpt lat="46.2548076" lon="11.9839866"><ele>1087.4</ele><time>2026-04-26T14:54:44.852Z</time></trkpt><trkpt lat="46.2549066" lon="11.9840438"><ele>1088.6</ele><time>2026-04-26T14:54:45.857Z</time></trkpt><trkpt lat="46.2549945" lon="11.9840866"><ele>1089.8</ele><time>2026-04-26T14:54:46.841Z</time></trkpt><trkpt lat="46.2550687" lon="11.9841261"><ele>1091.0</ele><time>2026-04-26T14:54:47.865Z</time></trkpt><trkpt lat="46.2551337" lon="11.9841609"><ele>1090.1666666666667</ele><time>2026-04-26T14:54:48.856Z</time></trkpt><trkpt lat="46.2552067" lon="11.9841812"><ele>1089.3333333333335</ele><time>2026-04-26T14:54:49.854Z</time></trkpt><trkpt lat="46.2552762" lon="11.9841961"><ele>1088.5</ele><time>2026-04-26T14:54:50.854Z</time></trkpt><trkpt lat="46.2553405" lon="11.9842141"><ele>1087.6666666666667</ele><time>2026-04-26T14:54:51.843Z</time></trkpt><trkpt lat="46.255449" lon="11.9842429"><ele>1086.8333333333333</ele><time>2026-04-26T14:54:53.852Z</time></trkpt><trkpt lat="46.2555126" lon="11.9842747"><ele>1086.0</ele><time>2026-04-26T14:54:54.84Z</time></trkpt><trkpt lat="46.2555916" lon="11.9843115"><ele>1085.8</ele><time>2026-04-26T14:54:55.861Z</time></trkpt><trkpt lat="46.2556858" lon="11.9843484"><ele>1085.6</ele><time>2026-04-26T14:54:56.847Z</time></trkpt><trkpt lat="46.2557901" lon="11.9843862"><ele>1085.4</ele><time>2026-04-26T14:54:57.842Z</time></trkpt><trkpt lat="46.2558949" lon="11.984422"><ele>1085.2</ele><time>2026-04-26T14:54:58.862Z</time></trkpt><trkpt lat="46.2560036" lon="11.9844317"><ele>1085.0</ele><time>2026-04-26T14:54:59.864Z</time></trkpt><trkpt lat="46.256112" lon="11.9844786"><ele>1085.0</ele><time>2026-04-26T14:55:00.859Z</time></trkpt><trkpt lat="46.2562279" lon="11.9845058"><ele>1085.0</ele><time>2026-04-26T14:55:01.86Z</time></trkpt><trkpt lat="46.2563512" lon="11.9845145"><ele>1085.0</ele><time>2026-04-26T14:55:02.854Z</time></trkpt><trkpt lat="46.2564749" lon="11.984534"><ele>1085.0</ele><time>2026-04-26T14:55:03.854Z</time></trkpt><trkpt lat="46.256599" lon="11.9845151"><ele>1085.0</ele><time>2026-04-26T14:55:04.838Z</time></trkpt><trkpt lat="46.2567255" lon="11.9845072"><ele>1085.0</ele><time>2026-04-26T14:55:05.86Z</time></trkpt><trkpt lat="46.2568507" lon="11.9844992"><ele>1085.0</ele><time>2026-04-26T14:55:06.856Z</time></trkpt><trkpt lat="46.2569731" lon="11.9844948"><ele>1085.0</ele><time>2026-04-26T14:55:07.853Z</time></trkpt><trkpt lat="46.2570918" lon="11.9844829"><ele>1085.0</ele><time>2026-04-26T14:55:08.842Z</time></trkpt><trkpt lat="46.2572057" lon="11.9844521"><ele>1085.0</ele><time>2026-04-26T14:55:09.85Z</time></trkpt><trkpt lat="46.2573078" lon="11.9843788"><ele>1085.0</ele><time>2026-04-26T14:55:10.836Z</time></trkpt><trkpt lat="46.2573953" lon="11.9842793"><ele>1085.0</ele><time>2026-04-26T14:55:11.851Z</time></trkpt><trkpt lat="46.2574803" lon="11.9842021"><ele>1085.0</ele><time>2026-04-26T14:55:12.868Z</time></trkpt><trkpt lat="46.257572" lon="11.9841731"><ele>1082.6</ele><time>2026-04-26T14:55:13.86Z</time></trkpt><trkpt lat="46.2576678" lon="11.9841936"><ele>1080.2</ele><time>2026-04-26T14:55:14.862Z</time></trkpt><trkpt lat="46.2577641" lon="11.9842369"><ele>1077.8</ele><time>2026-04-26T14:55:15.867Z</time></trkpt><trkpt lat="46.2578383" lon="11.9843406"><ele>1075.4</ele><time>2026-04-26T14:55:16.857Z</time></trkpt><trkpt lat="46.2578599" lon="11.9845137"><ele>1073.0</ele><time>2026-04-26T14:55:17.858Z</time></trkpt><trkpt lat="46.2578682" lon="11.9846942"><ele>1073.0</ele><time>2026-04-26T14:55:18.855Z</time></trkpt><trkpt lat="46.2578762" lon="11.9848892"><ele>1073.0</ele><time>2026-04-26T14:55:19.861Z</time></trkpt><trkpt lat="46.2578753" lon="11.9851049"><ele>1073.0</ele><time>2026-04-26T14:55:20.835Z</time></trkpt><trkpt lat="46.2578676" lon="11.9853243"><ele>1073.0</ele><time>2026-04-26T14:55:21.847Z</time></trkpt><trkpt lat="46.2578366" lon="11.9855402"><ele>1071.0</ele><time>2026-04-26T14:55:22.843Z</time></trkpt><trkpt lat="46.2577957" lon="11.985747"><ele>1069.0</ele><time>2026-04-26T14:55:23.863Z</time></trkpt><trkpt lat="46.2577407" lon="11.9859426"><ele>1067.0</ele><time>2026-04-26T14:55:24.85Z</time></trkpt><trkpt lat="46.2577082" lon="11.9861339"><ele>1065.0</ele><time>2026-04-26T14:55:25.856Z</time></trkpt><trkpt lat="46.2577014" lon="11.9863201"><ele>1064.6</ele><time>2026-04-26T14:55:26.848Z</time></trkpt><trkpt lat="46.2577089" lon="11.986487"><ele>1064.2</ele><time>2026-04-26T14:55:27.853Z</time></trkpt><trkpt lat="46.2577353" lon="11.9866397"><ele>1063.8</ele><time>2026-04-26T14:55:28.854Z</time></trkpt><trkpt lat="46.2578081" lon="11.9867551"><ele>1063.4</ele><time>2026-04-26T14:55:29.845Z</time></trkpt><trkpt lat="46.2579083" lon="11.9868316"><ele>1063.0</ele><time>2026-04-26T14:55:30.849Z</time></trkpt><trkpt lat="46.2580164" lon="11.9868982"><ele>1063.0</ele><time>2026-04-26T14:55:31.874Z</time></trkpt><trkpt lat="46.2581184" lon="11.9869626"><ele>1063.0</ele><time>2026-04-26T14:55:32.864Z</time></trkpt><trkpt lat="46.2582081" lon="11.9870408"><ele>1063.0</ele><time>2026-04-26T14:55:33.86Z</time></trkpt><trkpt lat="46.2583" lon="11.9871149"><ele>1063.0</ele><time>2026-04-26T14:55:34.869Z</time></trkpt><trkpt lat="46.2583598" lon="11.9872394"><ele>1063.0</ele><time>2026-04-26T14:55:35.856Z</time></trkpt><trkpt lat="46.2583562" lon="11.9874178"><ele>1061.0</ele><time>2026-04-26T14:55:36.863Z</time></trkpt><trkpt lat="46.2583155" lon="11.9876047"><ele>1059.0</ele><time>2026-04-26T14:55:37.862Z</time></trkpt><trkpt lat="46.2582566" lon="11.9878082"><ele>1057.0</ele><time>2026-04-26T14:55:38.842Z</time></trkpt><trkpt lat="46.2582503" lon="11.9879826"><ele>1055.0</ele><time>2026-04-26T14:55:39.863Z</time></trkpt><trkpt lat="46.2582669" lon="11.9881634"><ele>1052.5</ele><time>2026-04-26T14:55:40.859Z</time></trkpt><trkpt lat="46.2582803" lon="11.9883698"><ele>1050.0</ele><time>2026-04-26T14:55:41.862Z</time></trkpt><trkpt lat="46.2583176" lon="11.988561"><ele>1047.5</ele><time>2026-04-26T14:55:42.873Z</time></trkpt><trkpt lat="46.2583673" lon="11.9887279"><ele>1045.0</ele><time>2026-04-26T14:55:43.861Z</time></trkpt><trkpt lat="46.2584367" lon="11.9888717"><ele>1045.0</ele><time>2026-04-26T14:55:44.851Z</time></trkpt><trkpt lat="46.2585331" lon="11.9889737"><ele>1045.0</ele><time>2026-04-26T14:55:45.845Z</time></trkpt><trkpt lat="46.2586422" lon="11.9890424"><ele>1045.0</ele><time>2026-04-26T14:55:46.849Z</time></trkpt><trkpt lat="46.2587582" lon="11.9890648"><ele>1045.0</ele><time>2026-04-26T14:55:47.86Z</time></trkpt><trkpt lat="46.2588806" lon="11.989044"><ele>1046.25</ele><time>2026-04-26T14:55:48.844Z</time></trkpt><trkpt lat="46.2590034" lon="11.9889276"><ele>1047.5</ele><time>2026-04-26T14:55:49.855Z</time></trkpt><trkpt lat="46.2591218" lon="11.9888085"><ele>1048.75</ele><time>2026-04-26T14:55:50.863Z</time></trkpt><trkpt lat="46.2592318" lon="11.9886932"><ele>1050.0</ele><time>2026-04-26T14:55:51.849Z</time></trkpt><trkpt lat="46.2593364" lon="11.9885955"><ele>1050.0</ele><time>2026-04-26T14:55:52.849Z</time></trkpt><trkpt lat="46.259428" lon="11.9885367"><ele>1050.0</ele><time>2026-04-26T14:55:53.855Z</time></trkpt><trkpt lat="46.259519" lon="11.9885128"><ele>1050.0</ele><time>2026-04-26T14:55:54.842Z</time></trkpt><trkpt lat="46.2596026" lon="11.988521"><ele>1050.0</ele><time>2026-04-26T14:55:55.857Z</time></trkpt><trkpt lat="46.2596702" lon="11.9885878"><ele>1050.0</ele><time>2026-04-26T14:55:56.853Z</time></trkpt><trkpt lat="46.2596964" lon="11.9887071"><ele>1050.0</ele><time>2026-04-26T14:55:57.846Z</time></trkpt><trkpt lat="46.2596857" lon="11.9888575"><ele>1050.0</ele><time>2026-04-26T14:55:58.847Z</time></trkpt><trkpt lat="46.2596487" lon="11.9890327"><ele>1050.0</ele><time>2026-04-26T14:55:59.864Z</time></trkpt><trkpt lat="46.2595952" lon="11.9892162"><ele>1050.0</ele><time>2026-04-26T14:56:00.851Z</time></trkpt><trkpt lat="46.2595456" lon="11.9893997"><ele>1050.0</ele><time>2026-04-26T14:56:01.854Z</time></trkpt><trkpt lat="46.2595335" lon="11.9896038"><ele>1046.25</ele><time>2026-04-26T14:56:02.865Z</time></trkpt><trkpt lat="46.2595306" lon="11.9898173"><ele>1042.5</ele><time>2026-04-26T14:56:03.864Z</time></trkpt><trkpt lat="46.2595714" lon="11.9900233"><ele>1038.75</ele><time>2026-04-26T14:56:04.85Z</time></trkpt><trkpt lat="46.2595984" lon="11.9902289"><ele>1035.0</ele><time>2026-04-26T14:56:05.86Z</time></trkpt><trkpt lat="46.2596236" lon="11.9904331"><ele>1033.5</ele><time>2026-04-26T14:56:06.852Z</time></trkpt><trkpt lat="46.2596621" lon="11.990655"><ele>1032.0</ele><time>2026-04-26T14:56:07.849Z</time></trkpt><trkpt lat="46.2596489" lon="11.9908739"><ele>1030.5</ele><time>2026-04-26T14:56:08.856Z</time></trkpt><trkpt lat="46.2596706" lon="11.9910496"><ele>1029.0</ele><time>2026-04-26T14:56:09.861Z</time></trkpt><trkpt lat="46.2596846" lon="11.9912041"><ele>1028.6000000000001</ele><time>2026-04-26T14:56:10.837Z</time></trkpt><trkpt lat="46.2597484" lon="11.9913216"><ele>1028.2</ele><time>2026-04-26T14:56:11.869Z</time></trkpt><trkpt lat="46.2598265" lon="11.9913944"><ele>1027.8000000000002</ele><time>2026-04-26T14:56:12.847Z</time></trkpt><trkpt lat="46.2599025" lon="11.991418"><ele>1027.4</ele><time>2026-04-26T14:56:13.846Z</time></trkpt><trkpt lat="46.259987" lon="11.9913646"><ele>1027.0</ele><time>2026-04-26T14:56:14.855Z</time></trkpt><trkpt lat="46.2600453" lon="11.9912475"><ele>1027.0</ele><time>2026-04-26T14:56:15.854Z</time></trkpt><trkpt lat="46.2600846" lon="11.9911141"><ele>1027.0</ele><time>2026-04-26T14:56:16.845Z</time></trkpt><trkpt lat="46.2601316" lon="11.9909919"><ele>1027.0</ele><time>2026-04-26T14:56:17.859Z</time></trkpt><trkpt lat="46.2601726" lon="11.990889"><ele>1027.0</ele><time>2026-04-26T14:56:18.862Z</time></trkpt><trkpt lat="46.2602526" lon="11.9908611"><ele>1027.0</ele><time>2026-04-26T14:56:19.846Z</time></trkpt><trkpt lat="46.2603361" lon="11.9908926"><ele>1027.0</ele><time>2026-04-26T14:56:20.865Z</time></trkpt><trkpt lat="46.2604153" lon="11.9909456"><ele>1027.0</ele><time>2026-04-26T14:56:21.863Z</time></trkpt><trkpt lat="46.2604515" lon="11.9910874"><ele>1027.0</ele><time>2026-04-26T14:56:22.859Z</time></trkpt><trkpt lat="46.2604673" lon="11.9912523"><ele>1027.0</ele><time>2026-04-26T14:56:23.853Z</time></trkpt><trkpt lat="46.2604755" lon="11.9914432"><ele>1027.0</ele><time>2026-04-26T14:56:24.865Z</time></trkpt><trkpt lat="46.2604859" lon="11.9916616"><ele>1023.0</ele><time>2026-04-26T14:56:25.855Z</time></trkpt><trkpt lat="46.2604998" lon="11.9918948"><ele>1019.0</ele><time>2026-04-26T14:56:26.857Z</time></trkpt><trkpt lat="46.2605209" lon="11.9921305"><ele>1015.0</ele><time>2026-04-26T14:56:27.865Z</time></trkpt><trkpt lat="46.2605505" lon="11.9923696"><ele>1014.0</ele><time>2026-04-26T14:56:28.85Z</time></trkpt><trkpt lat="46.2605918" lon="11.9926013"><ele>1013.0</ele><time>2026-04-26T14:56:29.859Z</time></trkpt><trkpt lat="46.2606275" lon="11.992836"><ele>1012.0</ele><time>2026-04-26T14:56:30.853Z</time></trkpt><trkpt lat="46.260673" lon="11.9930748"><ele>1012.0</ele><time>2026-04-26T14:56:31.854Z</time></trkpt><trkpt lat="46.2607323" lon="11.9933187"><ele>1012.0</ele><time>2026-04-26T14:56:32.852Z</time></trkpt><trkpt lat="46.2607908" lon="11.9935703"><ele>1012.0</ele><time>2026-04-26T14:56:33.863Z</time></trkpt><trkpt lat="46.2608521" lon="11.9938207"><ele>1009.0</ele><time>2026-04-26T14:56:34.846Z</time></trkpt><trkpt lat="46.26091" lon="11.9940696"><ele>1006.0</ele><time>2026-04-26T14:56:35.857Z</time></trkpt><trkpt lat="46.2609904" lon="11.9943041"><ele>1003.0</ele><time>2026-04-26T14:56:36.846Z</time></trkpt><trkpt lat="46.2610893" lon="11.9945298"><ele>1000.0</ele><time>2026-04-26T14:56:37.852Z</time></trkpt><trkpt lat="46.2612139" lon="11.9947376"><ele>997.0</ele><time>2026-04-26T14:56:38.847Z</time></trkpt><trkpt lat="46.2613577" lon="11.9949314"><ele>994.0</ele><time>2026-04-26T14:56:39.844Z</time></trkpt><trkpt lat="46.26151" lon="11.9951224"><ele>994.0</ele><time>2026-04-26T14:56:40.853Z</time></trkpt><trkpt lat="46.2616673" lon="11.995309"><ele>994.0</ele><time>2026-04-26T14:56:41.861Z</time></trkpt><trkpt lat="46.2618274" lon="11.9954882"><ele>994.0</ele><time>2026-04-26T14:56:42.858Z</time></trkpt><trkpt lat="46.2619784" lon="11.9956752"><ele>993.6666666666666</ele><time>2026-04-26T14:56:43.858Z</time></trkpt><trkpt lat="46.2621265" lon="11.9958595"><ele>993.3333333333333</ele><time>2026-04-26T14:56:44.861Z</time></trkpt><trkpt lat="46.2622718" lon="11.9960467"><ele>993.0</ele><time>2026-04-26T14:56:45.859Z</time></trkpt><trkpt lat="46.2624157" lon="11.9962299"><ele>993.0</ele><time>2026-04-26T14:56:46.849Z</time></trkpt><trkpt lat="46.2625516" lon="11.9964161"><ele>993.0</ele><time>2026-04-26T14:56:47.866Z</time></trkpt><trkpt lat="46.262687" lon="11.9966014"><ele>993.0</ele><time>2026-04-26T14:56:48.849Z</time></trkpt><trkpt lat="46.2628158" lon="11.9967966"><ele>989.6666666666667</ele><time>2026-04-26T14:56:49.847Z</time></trkpt><trkpt lat="46.2629368" lon="11.9969831"><ele>986.3333333333334</ele><time>2026-04-26T14:56:50.862Z</time></trkpt><trkpt lat="46.2630802" lon="11.9971269"><ele>983.0</ele><time>2026-04-26T14:56:51.852Z</time></trkpt><trkpt lat="46.2632308" lon="11.9972438"><ele>983.0</ele><time>2026-04-26T14:56:52.852Z</time></trkpt><trkpt lat="46.2633801" lon="11.9973611"><ele>983.0</ele><time>2026-04-26T14:56:53.844Z</time></trkpt><trkpt lat="46.2635275" lon="11.9974984"><ele>983.0</ele><time>2026-04-26T14:56:54.851Z</time></trkpt><trkpt lat="46.2636743" lon="11.9976265"><ele>981.3333333333334</ele><time>2026-04-26T14:56:55.852Z</time></trkpt><trkpt lat="46.2638186" lon="11.9977717"><ele>979.6666666666667</ele><time>2026-04-26T14:56:56.855Z</time></trkpt><trkpt lat="46.2639615" lon="11.997909"><ele>978.0</ele><time>2026-04-26T14:56:57.861Z</time></trkpt><trkpt lat="46.2641053" lon="11.9980356"><ele>978.0</ele><time>2026-04-26T14:56:58.867Z</time></trkpt><trkpt lat="46.2642533" lon="11.9981584"><ele>978.0</ele><time>2026-04-26T14:56:59.869Z</time></trkpt><trkpt lat="46.2643928" lon="11.9982953"><ele>978.0</ele><time>2026-04-26T14:57:00.863Z</time></trkpt><trkpt lat="46.2645256" lon="11.9984318"><ele>974.25</ele><time>2026-04-26T14:57:01.868Z</time></trkpt><trkpt lat="46.2646571" lon="11.9985286"><ele>970.5</ele><time>2026-04-26T14:57:02.867Z</time></trkpt><trkpt lat="46.2647734" lon="11.9986059"><ele>966.75</ele><time>2026-04-26T14:57:03.866Z</time></trkpt><trkpt lat="46.2648672" lon="11.9986669"><ele>963.0</ele><time>2026-04-26T14:57:04.858Z</time></trkpt><trkpt lat="46.2649384" lon="11.9987057"><ele>963.0</ele><time>2026-04-26T14:57:05.871Z</time></trkpt><trkpt lat="46.2650032" lon="11.9987171"><ele>963.0</ele><time>2026-04-26T14:57:06.87Z</time></trkpt><trkpt lat="46.2650572" lon="11.9988479"><ele>963.0</ele><time>2026-04-26T14:57:08.862Z</time></trkpt><trkpt lat="46.2649231" lon="11.9989491"><ele>963.0</ele><time>2026-04-26T14:57:10.864Z</time></trkpt><trkpt lat="46.2648293" lon="11.9989297"><ele>963.0</ele><time>2026-04-26T14:57:11.857Z</time></trkpt><trkpt lat="46.2647337" lon="11.998874"><ele>961.75</ele><time>2026-04-26T14:57:12.847Z</time></trkpt><trkpt lat="46.2646201" lon="11.9987951"><ele>960.5</ele><time>2026-04-26T14:57:13.858Z</time></trkpt><trkpt lat="46.2644734" lon="11.9987655"><ele>959.25</ele><time>2026-04-26T14:57:14.866Z</time></trkpt><trkpt lat="46.2643101" lon="11.9987457"><ele>958.0</ele><time>2026-04-26T14:57:15.862Z</time></trkpt><trkpt lat="46.2641548" lon="11.9987258"><ele>958.0</ele><time>2026-04-26T14:57:16.866Z</time></trkpt><trkpt lat="46.2640031" lon="11.9986844"><ele>958.0</ele><time>2026-04-26T14:57:17.859Z</time></trkpt><trkpt lat="46.2638538" lon="11.9986689"><ele>958.0</ele><time>2026-04-26T14:57:18.876Z</time></trkpt><trkpt lat="46.2637074" lon="11.9986815"><ele>956.75</ele><time>2026-04-26T14:57:19.859Z</time></trkpt><trkpt lat="46.263566" lon="11.9987304"><ele>955.5</ele><time>2026-04-26T14:57:20.852Z</time></trkpt><trkpt lat="46.2634463" lon="11.9988478"><ele>954.25</ele><time>2026-04-26T14:57:21.856Z</time></trkpt><trkpt lat="46.263334" lon="11.9989411"><ele>953.0</ele><time>2026-04-26T14:57:22.858Z</time></trkpt><trkpt lat="46.2632342" lon="11.9989995"><ele>953.0000000000001</ele><time>2026-04-26T14:57:23.868Z</time></trkpt><trkpt lat="46.2631589" lon="11.9990715"><ele>953.0</ele><time>2026-04-26T14:57:24.86Z</time></trkpt><trkpt lat="46.2630973" lon="11.9991526"><ele>953.0</ele><time>2026-04-26T14:57:25.859Z</time></trkpt><trkpt lat="46.2631108" lon="11.9992709"><ele>953.0</ele><time>2026-04-26T14:57:26.85Z</time></trkpt><trkpt lat="46.263151" lon="11.9993713"><ele>953.0000000000001</ele><time>2026-04-26T14:57:27.855Z</time></trkpt><trkpt lat="46.2632588" lon="11.9994172"><ele>953.0</ele><time>2026-04-26T14:57:28.854Z</time></trkpt><trkpt lat="46.2634012" lon="11.9994365"><ele>949.3333333333334</ele><time>2026-04-26T14:57:29.867Z</time></trkpt><trkpt lat="46.2635679" lon="11.9994759"><ele>945.6666666666667</ele><time>2026-04-26T14:57:30.845Z</time></trkpt><trkpt lat="46.2637422" lon="11.999524"><ele>942.0</ele><time>2026-04-26T14:57:31.854Z</time></trkpt><trkpt lat="46.263915" lon="11.9996178"><ele>939.6666666666667</ele><time>2026-04-26T14:57:32.839Z</time></trkpt><trkpt lat="46.2640886" lon="11.9997451"><ele>937.3333333333334</ele><time>2026-04-26T14:57:33.855Z</time></trkpt><trkpt lat="46.264267" lon="11.9998429"><ele>935.0</ele><time>2026-04-26T14:57:34.853Z</time></trkpt><trkpt lat="46.2644397" lon="11.9999478"><ele>935.0</ele><time>2026-04-26T14:57:35.863Z</time></trkpt><trkpt lat="46.2646128" lon="12.0000554"><ele>935.0</ele><time>2026-04-26T14:57:36.856Z</time></trkpt><trkpt lat="46.2647866" lon="12.0001618"><ele>935.0</ele><time>2026-04-26T14:57:37.859Z</time></trkpt><trkpt lat="46.2649571" lon="12.0002832"><ele>937.3333333333334</ele><time>2026-04-26T14:57:38.867Z</time></trkpt><trkpt lat="46.2651298" lon="12.0003977"><ele>939.6666666666667</ele><time>2026-04-26T14:57:39.854Z</time></trkpt><trkpt lat="46.2652998" lon="12.0005059"><ele>942.0</ele><time>2026-04-26T14:57:40.859Z</time></trkpt><trkpt lat="46.2654752" lon="12.000586"><ele>944.6666666666667</ele><time>2026-04-26T14:57:41.86Z</time></trkpt><trkpt lat="46.2656289" lon="12.0007376"><ele>947.3333333333334</ele><time>2026-04-26T14:57:42.855Z</time></trkpt><trkpt lat="46.265794" lon="12.0008849"><ele>950.0</ele><time>2026-04-26T14:57:43.858Z</time></trkpt><trkpt lat="46.2659625" lon="12.0010322"><ele>942.6666666666667</ele><time>2026-04-26T14:57:44.865Z</time></trkpt><trkpt lat="46.2661123" lon="12.0012191"><ele>935.3333333333333</ele><time>2026-04-26T14:57:45.855Z</time></trkpt><trkpt lat="46.2662595" lon="12.0014056"><ele>928.0</ele><time>2026-04-26T14:57:46.857Z</time></trkpt><trkpt lat="46.2664081" lon="12.0015901"><ele>925.6666666666666</ele><time>2026-04-26T14:57:47.849Z</time></trkpt><trkpt lat="46.2665615" lon="12.0017644"><ele>923.3333333333333</ele><time>2026-04-26T14:57:48.846Z</time></trkpt><trkpt lat="46.2667167" lon="12.0019297"><ele>921.0</ele><time>2026-04-26T14:57:49.85Z</time></trkpt><trkpt lat="46.2668783" lon="12.0020823"><ele>921.0</ele><time>2026-04-26T14:57:50.858Z</time></trkpt><trkpt lat="46.2670526" lon="12.0021995"><ele>921.0</ele><time>2026-04-26T14:57:51.855Z</time></trkpt><trkpt lat="46.2672049" lon="12.0023585"><ele>921.0</ele><time>2026-04-26T14:57:52.864Z</time></trkpt><trkpt lat="46.2673534" lon="12.0025171"><ele>917.0</ele><time>2026-04-26T14:57:53.867Z</time></trkpt><trkpt lat="46.2675071" lon="12.0026514"><ele>913.0</ele><time>2026-04-26T14:57:54.856Z</time></trkpt><trkpt lat="46.2676723" lon="12.0027397"><ele>909.0</ele><time>2026-04-26T14:57:55.854Z</time></trkpt><trkpt lat="46.2678231" lon="12.0028515"><ele>909.0</ele><time>2026-04-26T14:57:56.858Z</time></trkpt><trkpt lat="46.2679457" lon="12.0030155"><ele>909.0</ele><time>2026-04-26T14:57:57.852Z</time></trkpt><trkpt lat="46.2680867" lon="12.0031254"><ele>909.0</ele><time>2026-04-26T14:57:58.86Z</time></trkpt><trkpt lat="46.2682272" lon="12.0032358"><ele>912.0</ele><time>2026-04-26T14:57:59.862Z</time></trkpt><trkpt lat="46.2683722" lon="12.0033009"><ele>915.0</ele><time>2026-04-26T14:58:00.853Z</time></trkpt><trkpt lat="46.2685197" lon="12.0033751"><ele>918.0</ele><time>2026-04-26T14:58:01.862Z</time></trkpt><trkpt lat="46.2686561" lon="12.003475"><ele>912.5</ele><time>2026-04-26T14:58:02.856Z</time></trkpt><trkpt lat="46.2687814" lon="12.0035872"><ele>907.0</ele><time>2026-04-26T14:58:03.856Z</time></trkpt><trkpt lat="46.268903" lon="12.0036926"><ele>901.5</ele><time>2026-04-26T14:58:04.856Z</time></trkpt><trkpt lat="46.2690323" lon="12.0037581"><ele>896.0</ele><time>2026-04-26T14:58:05.853Z</time></trkpt><trkpt lat="46.2691584" lon="12.0038326"><ele>895.75</ele><time>2026-04-26T14:58:06.85Z</time></trkpt><trkpt lat="46.2692894" lon="12.0038867"><ele>895.5</ele><time>2026-04-26T14:58:07.874Z</time></trkpt><trkpt lat="46.2694236" lon="12.0039585"><ele>895.25</ele><time>2026-04-26T14:58:08.852Z</time></trkpt><trkpt lat="46.2695576" lon="12.0040199"><ele>895.0</ele><time>2026-04-26T14:58:09.865Z</time></trkpt><trkpt lat="46.2696837" lon="12.0040809"><ele>896.25</ele><time>2026-04-26T14:58:10.847Z</time></trkpt><trkpt lat="46.2697997" lon="12.004153"><ele>897.5</ele><time>2026-04-26T14:58:11.864Z</time></trkpt><trkpt lat="46.2699184" lon="12.004192"><ele>898.75</ele><time>2026-04-26T14:58:12.853Z</time></trkpt><trkpt lat="46.2700219" lon="12.0042771"><ele>900.0</ele><time>2026-04-26T14:58:13.855Z</time></trkpt><trkpt lat="46.2701231" lon="12.0043608"><ele>898.0</ele><time>2026-04-26T14:58:14.848Z</time></trkpt><trkpt lat="46.2702176" lon="12.0044571"><ele>896.0</ele><time>2026-04-26T14:58:15.85Z</time></trkpt><trkpt lat="46.270294" lon="12.0045718"><ele>894.0</ele><time>2026-04-26T14:58:16.849Z</time></trkpt><trkpt lat="46.2703623" lon="12.0046798"><ele>892.0</ele><time>2026-04-26T14:58:17.851Z</time></trkpt><trkpt lat="46.2704426" lon="12.0047623"><ele>890.0</ele><time>2026-04-26T14:58:18.857Z</time></trkpt><trkpt lat="46.2705354" lon="12.004826"><ele>890.0</ele><time>2026-04-26T14:58:19.856Z</time></trkpt><trkpt lat="46.270641" lon="12.0048725"><ele>890.0</ele><time>2026-04-26T14:58:20.85Z</time></trkpt><trkpt lat="46.2707555" lon="12.0049423"><ele>890.0</ele><time>2026-04-26T14:58:21.856Z</time></trkpt><trkpt lat="46.2708786" lon="12.0049905"><ele>890.0</ele><time>2026-04-26T14:58:22.873Z</time></trkpt><trkpt lat="46.271001" lon="12.0050269"><ele>888.75</ele><time>2026-04-26T14:58:23.855Z</time></trkpt><trkpt lat="46.2711234" lon="12.005041"><ele>887.5</ele><time>2026-04-26T14:58:24.853Z</time></trkpt><trkpt lat="46.2712409" lon="12.0050467"><ele>886.25</ele><time>2026-04-26T14:58:25.861Z</time></trkpt><trkpt lat="46.2713545" lon="12.0050348"><ele>885.0</ele><time>2026-04-26T14:58:26.847Z</time></trkpt><trkpt lat="46.2714577" lon="12.0049706"><ele>885.0</ele><time>2026-04-26T14:58:27.854Z</time></trkpt><trkpt lat="46.2715546" lon="12.0048977"><ele>885.0</ele><time>2026-04-26T14:58:28.855Z</time></trkpt><trkpt lat="46.2716576" lon="12.0048701"><ele>885.0</ele><time>2026-04-26T14:58:29.86Z</time></trkpt><trkpt lat="46.2717579" lon="12.0048432"><ele>885.0</ele><time>2026-04-26T14:58:30.863Z</time></trkpt><trkpt lat="46.2718629" lon="12.0048562"><ele>885.0</ele><time>2026-04-26T14:58:31.869Z</time></trkpt><trkpt lat="46.271968" lon="12.0049006"><ele>885.0</ele><time>2026-04-26T14:58:32.85Z</time></trkpt><trkpt lat="46.2720657" lon="12.0049543"><ele>885.0</ele><time>2026-04-26T14:58:33.859Z</time></trkpt><trkpt lat="46.2721586" lon="12.0049974"><ele>885.0</ele><time>2026-04-26T14:58:34.85Z</time></trkpt><trkpt lat="46.2722511" lon="12.0050148"><ele>885.0</ele><time>2026-04-26T14:58:35.854Z</time></trkpt><trkpt lat="46.2723514" lon="12.0049921"><ele>885.0</ele><time>2026-04-26T14:58:36.85Z</time></trkpt><trkpt lat="46.2724506" lon="12.0049205"><ele>885.0</ele><time>2026-04-26T14:58:37.846Z</time></trkpt><trkpt lat="46.2725495" lon="12.004857"><ele>885.0</ele><time>2026-04-26T14:58:38.85Z</time></trkpt><trkpt lat="46.2726518" lon="12.0048256"><ele>885.0</ele><time>2026-04-26T14:58:39.847Z</time></trkpt><trkpt lat="46.2727542" lon="12.0048512"><ele>885.0</ele><time>2026-04-26T14:58:40.84Z</time></trkpt><trkpt lat="46.2728413" lon="12.0048796"><ele>885.0</ele><time>2026-04-26T14:58:41.853Z</time></trkpt><trkpt lat="46.2729165" lon="12.004952"><ele>883.6</ele><time>2026-04-26T14:58:42.844Z</time></trkpt><trkpt lat="46.2729682" lon="12.0050771"><ele>882.2</ele><time>2026-04-26T14:58:43.844Z</time></trkpt><trkpt lat="46.2730189" lon="12.0052239"><ele>880.8</ele><time>2026-04-26T14:58:44.836Z</time></trkpt><trkpt lat="46.2730862" lon="12.0053678"><ele>879.4</ele><time>2026-04-26T14:58:45.867Z</time></trkpt><trkpt lat="46.2731492" lon="12.0055074"><ele>878.0</ele><time>2026-04-26T14:58:46.865Z</time></trkpt><trkpt lat="46.2732257" lon="12.0056143"><ele>878.0</ele><time>2026-04-26T14:58:47.874Z</time></trkpt><trkpt lat="46.2732997" lon="12.0057153"><ele>878.0</ele><time>2026-04-26T14:58:48.865Z</time></trkpt><trkpt lat="46.2734124" lon="12.0057722"><ele>878.0</ele><time>2026-04-26T14:58:49.841Z</time></trkpt><trkpt lat="46.2735481" lon="12.0057982"><ele>878.0</ele><time>2026-04-26T14:58:50.848Z</time></trkpt><trkpt lat="46.2736916" lon="12.0058187"><ele>875.0</ele><time>2026-04-26T14:58:51.838Z</time></trkpt><trkpt lat="46.2738371" lon="12.0058351"><ele>872.0</ele><time>2026-04-26T14:58:52.857Z</time></trkpt><trkpt lat="46.2739815" lon="12.005853"><ele>869.0</ele><time>2026-04-26T14:58:53.863Z</time></trkpt><trkpt lat="46.2741238" lon="12.0058543"><ele>866.0</ele><time>2026-04-26T14:58:54.846Z</time></trkpt><trkpt lat="46.2742599" lon="12.0058617"><ele>866.0</ele><time>2026-04-26T14:58:55.833Z</time></trkpt><trkpt lat="46.2743803" lon="12.0058725"><ele>865.9999999999999</ele><time>2026-04-26T14:58:56.859Z</time></trkpt><trkpt lat="46.2744855" lon="12.0059027"><ele>865.9999999999999</ele><time>2026-04-26T14:58:57.843Z</time></trkpt><trkpt lat="46.2745785" lon="12.0059633"><ele>866.0</ele><time>2026-04-26T14:58:58.857Z</time></trkpt><trkpt lat="46.274669" lon="12.006035"><ele>866.0</ele><time>2026-04-26T14:58:59.865Z</time></trkpt><trkpt lat="46.2747257" lon="12.0061733"><ele>866.0</ele><time>2026-04-26T14:59:00.847Z</time></trkpt><trkpt lat="46.2747597" lon="12.0063461"><ele>866.0</ele><time>2026-04-26T14:59:01.847Z</time></trkpt><trkpt lat="46.2747765" lon="12.0065466"><ele>866.0</ele><time>2026-04-26T14:59:02.856Z</time></trkpt><trkpt lat="46.2747961" lon="12.0067429"><ele>866.0</ele><time>2026-04-26T14:59:03.847Z</time></trkpt><trkpt lat="46.2747967" lon="12.0069322"><ele>864.25</ele><time>2026-04-26T14:59:04.864Z</time></trkpt><trkpt lat="46.2748138" lon="12.0071251"><ele>862.5</ele><time>2026-04-26T14:59:05.876Z</time></trkpt><trkpt lat="46.2748431" lon="12.0073286"><ele>860.75</ele><time>2026-04-26T14:59:06.847Z</time></trkpt><trkpt lat="46.2748778" lon="12.0075324"><ele>859.0</ele><time>2026-04-26T14:59:07.847Z</time></trkpt><trkpt lat="46.2749062" lon="12.0077371"><ele>858.0</ele><time>2026-04-26T14:59:08.851Z</time></trkpt><trkpt lat="46.2749349" lon="12.0079401"><ele>857.0</ele><time>2026-04-26T14:59:09.84Z</time></trkpt><trkpt lat="46.2749408" lon="12.0081427"><ele>856.0</ele><time>2026-04-26T14:59:10.857Z</time></trkpt><trkpt lat="46.2749339" lon="12.0083441"><ele>855.0</ele><time>2026-04-26T14:59:11.867Z</time></trkpt><trkpt lat="46.2749216" lon="12.0085361"><ele>854.75</ele><time>2026-04-26T14:59:12.843Z</time></trkpt><trkpt lat="46.2748979" lon="12.0087157"><ele>854.5</ele><time>2026-04-26T14:59:13.86Z</time></trkpt><trkpt lat="46.2748674" lon="12.0088764"><ele>854.25</ele><time>2026-04-26T14:59:14.87Z</time></trkpt><trkpt lat="46.2748053" lon="12.0090216"><ele>854.0</ele><time>2026-04-26T14:59:15.856Z</time></trkpt><trkpt lat="46.2747321" lon="12.0091461"><ele>850.25</ele><time>2026-04-26T14:59:16.847Z</time></trkpt><trkpt lat="46.2746367" lon="12.0092414"><ele>846.5</ele><time>2026-04-26T14:59:17.86Z</time></trkpt><trkpt lat="46.2745123" lon="12.0092941"><ele>842.75</ele><time>2026-04-26T14:59:18.852Z</time></trkpt><trkpt lat="46.2744062" lon="12.009382"><ele>839.0</ele><time>2026-04-26T14:59:19.842Z</time></trkpt><trkpt lat="46.2743022" lon="12.0094653"><ele>839.0</ele><time>2026-04-26T14:59:20.853Z</time></trkpt><trkpt lat="46.2742026" lon="12.0095577"><ele>839.0</ele><time>2026-04-26T14:59:21.861Z</time></trkpt><trkpt lat="46.2740962" lon="12.0096417"><ele>839.0</ele><time>2026-04-26T14:59:22.852Z</time></trkpt><trkpt lat="46.2739819" lon="12.0097099"><ele>839.0</ele><time>2026-04-26T14:59:23.861Z</time></trkpt><trkpt lat="46.2738791" lon="12.0098083"><ele>839.0</ele><time>2026-04-26T14:59:24.848Z</time></trkpt><trkpt lat="46.2737768" lon="12.0099113"><ele>839.0</ele><time>2026-04-26T14:59:25.852Z</time></trkpt><trkpt lat="46.2736825" lon="12.0100247"><ele>839.0</ele><time>2026-04-26T14:59:26.853Z</time></trkpt><trkpt lat="46.2735957" lon="12.0101456"><ele>839.0</ele><time>2026-04-26T14:59:27.85Z</time></trkpt><trkpt lat="46.2735084" lon="12.0102644"><ele>839.0</ele><time>2026-04-26T14:59:28.862Z</time></trkpt><trkpt lat="46.2734305" lon="12.0103957"><ele>839.0</ele><time>2026-04-26T14:59:29.855Z</time></trkpt><trkpt lat="46.2733398" lon="12.0104852"><ele>839.0</ele><time>2026-04-26T14:59:30.853Z</time></trkpt><trkpt lat="46.2732418" lon="12.0105438"><ele>839.0</ele><time>2026-04-26T14:59:31.847Z</time></trkpt><trkpt lat="46.2731322" lon="12.0105206"><ele>839.0</ele><time>2026-04-26T14:59:32.853Z</time></trkpt><trkpt lat="46.2730373" lon="12.0103885"><ele>835.8000000000001</ele><time>2026-04-26T14:59:33.858Z</time></trkpt><trkpt lat="46.2729702" lon="12.0102528"><ele>832.6</ele><time>2026-04-26T14:59:34.85Z</time></trkpt><trkpt lat="46.2729033" lon="12.0101359"><ele>829.4</ele><time>2026-04-26T14:59:35.86Z</time></trkpt><trkpt lat="46.272814" lon="12.0100698"><ele>826.2</ele><time>2026-04-26T14:59:36.858Z</time></trkpt><trkpt lat="46.2727053" lon="12.01006"><ele>823.0</ele><time>2026-04-26T14:59:37.854Z</time></trkpt><trkpt lat="46.2726071" lon="12.0101381"><ele>823.0</ele><time>2026-04-26T14:59:38.847Z</time></trkpt><trkpt lat="46.2725423" lon="12.0102937"><ele>823.0</ele><time>2026-04-26T14:59:39.861Z</time></trkpt><trkpt lat="46.2724976" lon="12.0104656"><ele>823.0</ele><time>2026-04-26T14:59:40.852Z</time></trkpt><trkpt lat="46.2725031" lon="12.0106595"><ele>823.0</ele><time>2026-04-26T14:59:41.871Z</time></trkpt><trkpt lat="46.2725197" lon="12.0108505"><ele>821.75</ele><time>2026-04-26T14:59:42.852Z</time></trkpt><trkpt lat="46.272556" lon="12.0110237"><ele>820.5</ele><time>2026-04-26T14:59:43.859Z</time></trkpt><trkpt lat="46.2725893" lon="12.0111841"><ele>819.25</ele><time>2026-04-26T14:59:44.857Z</time></trkpt><trkpt lat="46.2726381" lon="12.0113226"><ele>818.0</ele><time>2026-04-26T14:59:45.877Z</time></trkpt><trkpt lat="46.2727168" lon="12.0114366"><ele>818.0</ele><time>2026-04-26T14:59:46.849Z</time></trkpt><trkpt lat="46.2728038" lon="12.0115587"><ele>818.0</ele><time>2026-04-26T14:59:47.85Z</time></trkpt><trkpt lat="46.2729208" lon="12.0116674"><ele>818.0</ele><time>2026-04-26T14:59:48.867Z</time></trkpt><trkpt lat="46.273061" lon="12.0117377"><ele>818.0</ele><time>2026-04-26T14:59:49.861Z</time></trkpt><trkpt lat="46.2732058" lon="12.0118302"><ele>817.3333333333334</ele><time>2026-04-26T14:59:50.85Z</time></trkpt><trkpt lat="46.2733469" lon="12.0119495"><ele>816.6666666666667</ele><time>2026-04-26T14:59:51.873Z</time></trkpt><trkpt lat="46.2734862" lon="12.0120824"><ele>816.0</ele><time>2026-04-26T14:59:52.849Z</time></trkpt><trkpt lat="46.2736132" lon="12.0122426"><ele>816.0</ele><time>2026-04-26T14:59:53.849Z</time></trkpt><trkpt lat="46.273745" lon="12.0123979"><ele>816.0</ele><time>2026-04-26T14:59:54.855Z</time></trkpt><trkpt lat="46.2738738" lon="12.01256"><ele>816.0</ele><time>2026-04-26T14:59:55.845Z</time></trkpt><trkpt lat="46.2740125" lon="12.0127025"><ele>816.3333333333333</ele><time>2026-04-26T14:59:56.846Z</time></trkpt><trkpt lat="46.2741624" lon="12.0128357"><ele>816.6666666666666</ele><time>2026-04-26T14:59:57.849Z</time></trkpt><trkpt lat="46.2743292" lon="12.012928"><ele>817.0</ele><time>2026-04-26T14:59:58.853Z</time></trkpt><trkpt lat="46.2744964" lon="12.0130029"><ele>817.0</ele><time>2026-04-26T14:59:59.857Z</time></trkpt><trkpt lat="46.2746621" lon="12.0130773"><ele>817.0</ele><time>2026-04-26T15:00:00.839Z</time></trkpt><trkpt lat="46.2748239" lon="12.013152"><ele>817.0</ele><time>2026-04-26T15:00:01.852Z</time></trkpt><trkpt lat="46.2749778" lon="12.0132188"><ele>811.6666666666666</ele><time>2026-04-26T15:00:02.847Z</time></trkpt><trkpt lat="46.2751196" lon="12.0133329"><ele>806.3333333333333</ele><time>2026-04-26T15:00:03.846Z</time></trkpt><trkpt lat="46.2752512" lon="12.0134502"><ele>801.0</ele><time>2026-04-26T15:00:04.841Z</time></trkpt><trkpt lat="46.2753668" lon="12.0135902"><ele>801.0</ele><time>2026-04-26T15:00:05.853Z</time></trkpt><trkpt lat="46.2754708" lon="12.0137395"><ele>801.0</ele><time>2026-04-26T15:00:06.87Z</time></trkpt><trkpt lat="46.2755783" lon="12.0138779"><ele>801.0</ele><time>2026-04-26T15:00:07.853Z</time></trkpt><trkpt lat="46.2756799" lon="12.014034"><ele>801.0</ele><time>2026-04-26T15:00:08.853Z</time></trkpt><trkpt lat="46.2757733" lon="12.01421"><ele>799.3333333333333</ele><time>2026-04-26T15:00:09.849Z</time></trkpt><trkpt lat="46.2758411" lon="12.0144202"><ele>797.6666666666666</ele><time>2026-04-26T15:00:10.857Z</time></trkpt><trkpt lat="46.2758823" lon="12.0146486"><ele>796.0</ele><time>2026-04-26T15:00:11.874Z</time></trkpt><trkpt lat="46.2759251" lon="12.0148748"><ele>791.3333333333333</ele><time>2026-04-26T15:00:12.855Z</time></trkpt><trkpt lat="46.275974" lon="12.0150921"><ele>786.6666666666667</ele><time>2026-04-26T15:00:13.854Z</time></trkpt><trkpt lat="46.2760053" lon="12.015311"><ele>782.0</ele><time>2026-04-26T15:00:14.859Z</time></trkpt><trkpt lat="46.2760624" lon="12.0155145"><ele>782.0</ele><time>2026-04-26T15:00:15.859Z</time></trkpt><trkpt lat="46.2761084" lon="12.0157213"><ele>782.0</ele><time>2026-04-26T15:00:16.861Z</time></trkpt><trkpt lat="46.2761598" lon="12.0159108"><ele>782.0</ele><time>2026-04-26T15:00:17.866Z</time></trkpt><trkpt lat="46.2761903" lon="12.0160934"><ele>782.0</ele><time>2026-04-26T15:00:18.861Z</time></trkpt><trkpt lat="46.2762169" lon="12.0162546"><ele>781.25</ele><time>2026-04-26T15:00:19.852Z</time></trkpt><trkpt lat="46.2761913" lon="12.0164053"><ele>780.5</ele><time>2026-04-26T15:00:20.861Z</time></trkpt><trkpt lat="46.2761371" lon="12.0165393"><ele>779.75</ele><time>2026-04-26T15:00:21.86Z</time></trkpt><trkpt lat="46.2760632" lon="12.0166695"><ele>779.0</ele><time>2026-04-26T15:00:22.866Z</time></trkpt><trkpt lat="46.2759734" lon="12.0168025"><ele>778.25</ele><time>2026-04-26T15:00:23.862Z</time></trkpt><trkpt lat="46.275894" lon="12.0169608"><ele>777.5</ele><time>2026-04-26T15:00:24.862Z</time></trkpt><trkpt lat="46.2757952" lon="12.0170871"><ele>776.75</ele><time>2026-04-26T15:00:25.843Z</time></trkpt><trkpt lat="46.2757254" lon="12.0172298"><ele>776.0</ele><time>2026-04-26T15:00:26.863Z</time></trkpt><trkpt lat="46.2756496" lon="12.017365"><ele>776.25</ele><time>2026-04-26T15:00:27.859Z</time></trkpt><trkpt lat="46.2755789" lon="12.0175218"><ele>776.5</ele><time>2026-04-26T15:00:28.847Z</time></trkpt><trkpt lat="46.2755375" lon="12.0177164"><ele>776.75</ele><time>2026-04-26T15:00:29.856Z</time></trkpt><trkpt lat="46.2754947" lon="12.0179141"><ele>777.0</ele><time>2026-04-26T15:00:30.852Z</time></trkpt><trkpt lat="46.2754696" lon="12.0181254"><ele>775.3333333333333</ele><time>2026-04-26T15:00:31.855Z</time></trkpt><trkpt lat="46.2754529" lon="12.0183401"><ele>773.6666666666666</ele><time>2026-04-26T15:00:32.859Z</time></trkpt><trkpt lat="46.2754485" lon="12.0185593"><ele>772.0</ele><time>2026-04-26T15:00:33.87Z</time></trkpt><trkpt lat="46.2754345" lon="12.0187754"><ele>772.0</ele><time>2026-04-26T15:00:34.85Z</time></trkpt><trkpt lat="46.2754163" lon="12.018986"><ele>772.0</ele><time>2026-04-26T15:00:35.859Z</time></trkpt><trkpt lat="46.2754269" lon="12.0191982"><ele>772.0</ele><time>2026-04-26T15:00:36.852Z</time></trkpt><trkpt lat="46.2754488" lon="12.0193951"><ele>772.0</ele><time>2026-04-26T15:00:37.851Z</time></trkpt><trkpt lat="46.2754967" lon="12.0195717"><ele>771.5</ele><time>2026-04-26T15:00:38.846Z</time></trkpt><trkpt lat="46.2755714" lon="12.0197167"><ele>771.0</ele><time>2026-04-26T15:00:39.857Z</time></trkpt><trkpt lat="46.2756291" lon="12.0198648"><ele>770.5</ele><time>2026-04-26T15:00:40.84Z</time></trkpt><trkpt lat="46.2756606" lon="12.0200223"><ele>770.0</ele><time>2026-04-26T15:00:41.85Z</time></trkpt><trkpt lat="46.2756321" lon="12.0202067"><ele>769.8</ele><time>2026-04-26T15:00:42.853Z</time></trkpt><trkpt lat="46.2756072" lon="12.0203804"><ele>769.6</ele><time>2026-04-26T15:00:43.854Z</time></trkpt><trkpt lat="46.2755777" lon="12.0205331"><ele>769.4000000000001</ele><time>2026-04-26T15:00:44.847Z</time></trkpt><trkpt lat="46.2755503" lon="12.0206529"><ele>769.2</ele><time>2026-04-26T15:00:45.839Z</time></trkpt><trkpt lat="46.2755396" lon="12.0207678"><ele>769.0</ele><time>2026-04-26T15:00:46.849Z</time></trkpt><trkpt lat="46.2755779" lon="12.020876"><ele>767.6</ele><time>2026-04-26T15:00:47.854Z</time></trkpt><trkpt lat="46.2756405" lon="12.0209572"><ele>766.2</ele><time>2026-04-26T15:00:48.843Z</time></trkpt><trkpt lat="46.2757179" lon="12.021034"><ele>764.8000000000001</ele><time>2026-04-26T15:00:49.843Z</time></trkpt><trkpt lat="46.2758271" lon="12.0210867"><ele>763.4000000000001</ele><time>2026-04-26T15:00:50.845Z</time></trkpt><trkpt lat="46.2759248" lon="12.0211343"><ele>762.0</ele><time>2026-04-26T15:00:51.852Z</time></trkpt><trkpt lat="46.2760227" lon="12.021143"><ele>762.0</ele><time>2026-04-26T15:00:52.852Z</time></trkpt><trkpt lat="46.27613" lon="12.0211106"><ele>762.0</ele><time>2026-04-26T15:00:53.851Z</time></trkpt><trkpt lat="46.2762333" lon="12.0210254"><ele>762.0</ele><time>2026-04-26T15:00:54.856Z</time></trkpt><trkpt lat="46.2763438" lon="12.0208996"><ele>762.0</ele><time>2026-04-26T15:00:55.859Z</time></trkpt><trkpt lat="46.2764187" lon="12.020707"><ele>757.3333333333334</ele><time>2026-04-26T15:00:56.863Z</time></trkpt><trkpt lat="46.2764766" lon="12.0204906"><ele>752.6666666666667</ele><time>2026-04-26T15:00:57.86Z</time></trkpt><trkpt lat="46.2765262" lon="12.0202775"><ele>748.0</ele><time>2026-04-26T15:00:58.844Z</time></trkpt><trkpt lat="46.2765769" lon="12.0200737"><ele>749.75</ele><time>2026-04-26T15:00:59.839Z</time></trkpt><trkpt lat="46.2766404" lon="12.0198862"><ele>751.5</ele><time>2026-04-26T15:01:00.836Z</time></trkpt><trkpt lat="46.2767102" lon="12.0197075"><ele>753.25</ele><time>2026-04-26T15:01:01.853Z</time></trkpt><trkpt lat="46.276794" lon="12.0195379"><ele>755.0</ele><time>2026-04-26T15:01:02.848Z</time></trkpt><trkpt lat="46.2768918" lon="12.0193723"><ele>755.0</ele><time>2026-04-26T15:01:03.861Z</time></trkpt><trkpt lat="46.2770183" lon="12.0192336"><ele>755.0</ele><time>2026-04-26T15:01:04.85Z</time></trkpt><trkpt lat="46.2771556" lon="12.0191278"><ele>755.0</ele><time>2026-04-26T15:01:05.854Z</time></trkpt><trkpt lat="46.2772882" lon="12.0190127"><ele>757.5</ele><time>2026-04-26T15:01:06.865Z</time></trkpt><trkpt lat="46.2774194" lon="12.018899"><ele>760.0</ele><time>2026-04-26T15:01:07.866Z</time></trkpt><trkpt lat="46.2775384" lon="12.018784"><ele>762.5</ele><time>2026-04-26T15:01:08.865Z</time></trkpt><trkpt lat="46.2776487" lon="12.0186994"><ele>765.0</ele><time>2026-04-26T15:01:09.867Z</time></trkpt><trkpt lat="46.2777536" lon="12.0186354"><ele>765.0</ele><time>2026-04-26T15:01:10.846Z</time></trkpt><trkpt lat="46.2778678" lon="12.0186367"><ele>765.0</ele><time>2026-04-26T15:01:11.858Z</time></trkpt><trkpt lat="46.2779953" lon="12.0186989"><ele>765.0</ele><time>2026-04-26T15:01:12.858Z</time></trkpt><trkpt lat="46.2781192" lon="12.0188013"><ele>765.0</ele><time>2026-04-26T15:01:13.851Z</time></trkpt><trkpt lat="46.278236" lon="12.0188878"><ele>765.75</ele><time>2026-04-26T15:01:14.865Z</time></trkpt><trkpt lat="46.2783743" lon="12.0189066"><ele>766.5</ele><time>2026-04-26T15:01:15.861Z</time></trkpt><trkpt lat="46.2785117" lon="12.018916"><ele>767.25</ele><time>2026-04-26T15:01:16.845Z</time></trkpt><trkpt lat="46.2786344" lon="12.0189253"><ele>768.0</ele><time>2026-04-26T15:01:17.857Z</time></trkpt><trkpt lat="46.2787544" lon="12.0189666"><ele>768.0</ele><time>2026-04-26T15:01:18.857Z</time></trkpt><trkpt lat="46.2788514" lon="12.019069"><ele>768.0</ele><time>2026-04-26T15:01:19.844Z</time></trkpt><trkpt lat="46.2789658" lon="12.0191759"><ele>768.0</ele><time>2026-04-26T15:01:20.859Z</time></trkpt><trkpt lat="46.2790633" lon="12.0192481"><ele>768.0</ele><time>2026-04-26T15:01:21.863Z</time></trkpt><trkpt lat="46.2791784" lon="12.0192832"><ele>763.0</ele><time>2026-04-26T15:01:22.855Z</time></trkpt><trkpt lat="46.2793056" lon="12.0192756"><ele>758.0</ele><time>2026-04-26T15:01:23.875Z</time></trkpt><trkpt lat="46.2794468" lon="12.0192861"><ele>753.0</ele><time>2026-04-26T15:01:24.862Z</time></trkpt><trkpt lat="46.2796066" lon="12.0191928"><ele>748.0</ele><time>2026-04-26T15:01:25.856Z</time></trkpt><trkpt lat="46.279792" lon="12.0190673"><ele>748.0</ele><time>2026-04-26T15:01:26.865Z</time></trkpt><trkpt lat="46.2799783" lon="12.0189392"><ele>748.0</ele><time>2026-04-26T15:01:27.854Z</time></trkpt><trkpt lat="46.2801652" lon="12.0188129"><ele>748.0</ele><time>2026-04-26T15:01:28.856Z</time></trkpt><trkpt lat="46.2803563" lon="12.0186967"><ele>748.0</ele><time>2026-04-26T15:01:29.859Z</time></trkpt><trkpt lat="46.2805467" lon="12.0185988"><ele>748.0</ele><time>2026-04-26T15:01:30.85Z</time></trkpt><trkpt lat="46.2807485" lon="12.0185382"><ele>748.0</ele><time>2026-04-26T15:01:31.845Z</time></trkpt><trkpt lat="46.2809564" lon="12.0184957"><ele>741.0</ele><time>2026-04-26T15:01:32.847Z</time></trkpt><trkpt lat="46.2811507" lon="12.0184475"><ele>734.0</ele><time>2026-04-26T15:01:33.849Z</time></trkpt><trkpt lat="46.2813467" lon="12.0184193"><ele>727.0</ele><time>2026-04-26T15:01:34.854Z</time></trkpt><trkpt lat="46.2815325" lon="12.018365"><ele>732.6666666666667</ele><time>2026-04-26T15:01:35.856Z</time></trkpt><trkpt lat="46.2817093" lon="12.0182822"><ele>738.3333333333334</ele><time>2026-04-26T15:01:36.854Z</time></trkpt><trkpt lat="46.2818815" lon="12.0182159"><ele>744.0</ele><time>2026-04-26T15:01:37.856Z</time></trkpt><trkpt lat="46.2820373" lon="12.0181579"><ele>744.0</ele><time>2026-04-26T15:01:38.855Z</time></trkpt><trkpt lat="46.2821659" lon="12.0180689"><ele>744.0</ele><time>2026-04-26T15:01:39.851Z</time></trkpt><trkpt lat="46.282269" lon="12.0180039"><ele>744.0</ele><time>2026-04-26T15:01:40.864Z</time></trkpt><trkpt lat="46.2823364" lon="12.0179345"><ele>744.0</ele><time>2026-04-26T15:01:41.844Z</time></trkpt><trkpt lat="46.2824505" lon="12.0179406"><ele>740.2</ele><time>2026-04-26T15:01:43.848Z</time></trkpt><trkpt lat="46.2825049" lon="12.018091"><ele>736.4000000000001</ele><time>2026-04-26T15:01:45.856Z</time></trkpt><trkpt lat="46.2824641" lon="12.0181669"><ele>732.6</ele><time>2026-04-26T15:01:46.848Z</time></trkpt><trkpt lat="46.2823853" lon="12.0182338"><ele>728.8</ele><time>2026-04-26T15:01:47.853Z</time></trkpt><trkpt lat="46.2822837" lon="12.0182896"><ele>725.0</ele><time>2026-04-26T15:01:48.839Z</time></trkpt><trkpt lat="46.2821614" lon="12.0183773"><ele>720.3333333333333</ele><time>2026-04-26T15:01:49.858Z</time></trkpt><trkpt lat="46.2820156" lon="12.0184942"><ele>715.6666666666666</ele><time>2026-04-26T15:01:50.861Z</time></trkpt><trkpt lat="46.2818654" lon="12.0186497"><ele>711.0</ele><time>2026-04-26T15:01:51.869Z</time></trkpt><trkpt lat="46.2817203" lon="12.0188178"><ele>711.0</ele><time>2026-04-26T15:01:52.845Z</time></trkpt><trkpt lat="46.2815916" lon="12.0190027"><ele>711.0</ele><time>2026-04-26T15:01:53.855Z</time></trkpt><trkpt lat="46.2814675" lon="12.0191874"><ele>711.0</ele><time>2026-04-26T15:01:54.861Z</time></trkpt><trkpt lat="46.2813629" lon="12.019386"><ele>707.3333333333334</ele><time>2026-04-26T15:01:55.843Z</time></trkpt><trkpt lat="46.2812852" lon="12.019601"><ele>703.6666666666667</ele><time>2026-04-26T15:01:56.85Z</time></trkpt><trkpt lat="46.2812301" lon="12.0198158"><ele>700.0</ele><time>2026-04-26T15:01:57.856Z</time></trkpt><trkpt lat="46.2811944" lon="12.020034"><ele>694.0</ele><time>2026-04-26T15:01:58.84Z</time></trkpt><trkpt lat="46.2811709" lon="12.0202436"><ele>688.0</ele><time>2026-04-26T15:01:59.864Z</time></trkpt><trkpt lat="46.2811576" lon="12.0204294"><ele>682.0</ele><time>2026-04-26T15:02:00.862Z</time></trkpt><trkpt lat="46.2811436" lon="12.0205882"><ele>676.0</ele><time>2026-04-26T15:02:01.867Z</time></trkpt><trkpt lat="46.2811038" lon="12.0207217"><ele>674.0</ele><time>2026-04-26T15:02:02.847Z</time></trkpt><trkpt lat="46.2810404" lon="12.0208442"><ele>672.0</ele><time>2026-04-26T15:02:03.858Z</time></trkpt><trkpt lat="46.280948" lon="12.0209194"><ele>670.0</ele><time>2026-04-26T15:02:04.877Z</time></trkpt><trkpt lat="46.2808309" lon="12.0209247"><ele>668.0</ele><time>2026-04-26T15:02:05.868Z</time></trkpt><trkpt lat="46.2806877" lon="12.0208642"><ele>672.6666666666666</ele><time>2026-04-26T15:02:06.855Z</time></trkpt><trkpt lat="46.2805433" lon="12.020778"><ele>677.3333333333334</ele><time>2026-04-26T15:02:07.855Z</time></trkpt><trkpt lat="46.2803981" lon="12.0207122"><ele>682.0</ele><time>2026-04-26T15:02:08.853Z</time></trkpt><trkpt lat="46.2802491" lon="12.0206754"><ele>682.0</ele><time>2026-04-26T15:02:09.853Z</time></trkpt><trkpt lat="46.2801082" lon="12.0206335"><ele>682.0</ele><time>2026-04-26T15:02:10.859Z</time></trkpt><trkpt lat="46.279977" lon="12.0206041"><ele>682.0</ele><time>2026-04-26T15:02:11.856Z</time></trkpt><trkpt lat="46.2798876" lon="12.0205195"><ele>682.0</ele><time>2026-04-26T15:02:12.846Z</time></trkpt><trkpt lat="46.2798116" lon="12.0204624"><ele>683.6666666666667</ele><time>2026-04-26T15:02:13.855Z</time></trkpt><trkpt lat="46.279734" lon="12.0204546"><ele>685.3333333333334</ele><time>2026-04-26T15:02:14.857Z</time></trkpt><trkpt lat="46.2796696" lon="12.0205027"><ele>687.0</ele><time>2026-04-26T15:02:15.855Z</time></trkpt><trkpt lat="46.2796236" lon="12.020599"><ele>688.6666666666666</ele><time>2026-04-26T15:02:16.852Z</time></trkpt><trkpt lat="46.2796121" lon="12.0207085"><ele>690.3333333333333</ele><time>2026-04-26T15:02:17.848Z</time></trkpt><trkpt lat="46.2796708" lon="12.0208333"><ele>692.0</ele><time>2026-04-26T15:02:18.852Z</time></trkpt><trkpt lat="46.2797543" lon="12.0209326"><ele>685.75</ele><time>2026-04-26T15:02:19.859Z</time></trkpt><trkpt lat="46.2798318" lon="12.0210364"><ele>679.5</ele><time>2026-04-26T15:02:20.847Z</time></trkpt><trkpt lat="46.2799246" lon="12.0210992"><ele>673.25</ele><time>2026-04-26T15:02:21.855Z</time></trkpt><trkpt lat="46.2800406" lon="12.0211031"><ele>667.0</ele><time>2026-04-26T15:02:22.857Z</time></trkpt><trkpt lat="46.2801728" lon="12.0211112"><ele>667.0</ele><time>2026-04-26T15:02:23.853Z</time></trkpt><trkpt lat="46.2803154" lon="12.021151"><ele>667.0</ele><time>2026-04-26T15:02:24.851Z</time></trkpt><trkpt lat="46.2804663" lon="12.0212396"><ele>667.0</ele><time>2026-04-26T15:02:25.847Z</time></trkpt><trkpt lat="46.2806269" lon="12.0212855"><ele>667.25</ele><time>2026-04-26T15:02:26.84Z</time></trkpt><trkpt lat="46.2807793" lon="12.0213347"><ele>667.5</ele><time>2026-04-26T15:02:27.85Z</time></trkpt><trkpt lat="46.2809108" lon="12.0214204"><ele>667.75</ele><time>2026-04-26T15:02:28.862Z</time></trkpt><trkpt lat="46.281049" lon="12.0214196"><ele>668.0</ele><time>2026-04-26T15:02:29.854Z</time></trkpt><trkpt lat="46.2812028" lon="12.021416"><ele>668.0</ele><time>2026-04-26T15:02:30.84Z</time></trkpt><trkpt lat="46.2813672" lon="12.0213778"><ele>668.0</ele><time>2026-04-26T15:02:31.853Z</time></trkpt><trkpt lat="46.2815272" lon="12.021309"><ele>668.0</ele><time>2026-04-26T15:02:32.852Z</time></trkpt><trkpt lat="46.2816865" lon="12.021254"><ele>664.6666666666666</ele><time>2026-04-26T15:02:33.852Z</time></trkpt><trkpt lat="46.2818413" lon="12.0212076"><ele>661.3333333333334</ele><time>2026-04-26T15:02:34.848Z</time></trkpt><trkpt lat="46.2819947" lon="12.021139"><ele>658.0</ele><time>2026-04-26T15:02:35.849Z</time></trkpt><trkpt lat="46.282152" lon="12.0210487"><ele>654.3333333333334</ele><time>2026-04-26T15:02:36.856Z</time></trkpt><trkpt lat="46.2823069" lon="12.020909"><ele>650.6666666666666</ele><time>2026-04-26T15:02:37.853Z</time></trkpt><trkpt lat="46.2824563" lon="12.0207479"><ele>647.0</ele><time>2026-04-26T15:02:38.845Z</time></trkpt><trkpt lat="46.2825953" lon="12.0206036"><ele>647.0</ele><time>2026-04-26T15:02:39.872Z</time></trkpt><trkpt lat="46.2827057" lon="12.0204595"><ele>647.0</ele><time>2026-04-26T15:02:40.859Z</time></trkpt><trkpt lat="46.282805" lon="12.02032"><ele>647.0</ele><time>2026-04-26T15:02:41.846Z</time></trkpt><trkpt lat="46.2828887" lon="12.0201634"><ele>647.0</ele><time>2026-04-26T15:02:42.854Z</time></trkpt><trkpt lat="46.2829665" lon="12.0199975"><ele>648.0</ele><time>2026-04-26T15:02:43.865Z</time></trkpt><trkpt lat="46.283016" lon="12.0198441"><ele>649.0</ele><time>2026-04-26T15:02:44.857Z</time></trkpt><trkpt lat="46.2830407" lon="12.0197042"><ele>650.0</ele><time>2026-04-26T15:02:45.845Z</time></trkpt><trkpt lat="46.2830958" lon="12.0196114"><ele>651.0</ele><time>2026-04-26T15:02:46.85Z</time></trkpt><trkpt lat="46.2831847" lon="12.0195621"><ele>652.0</ele><time>2026-04-26T15:02:47.864Z</time></trkpt><trkpt lat="46.2832771" lon="12.0195416"><ele>652.0</ele><time>2026-04-26T15:02:48.861Z</time></trkpt><trkpt lat="46.2834" lon="12.0195458"><ele>652.0</ele><time>2026-04-26T15:02:49.863Z</time></trkpt><trkpt lat="46.2835169" lon="12.0196039"><ele>652.0</ele><time>2026-04-26T15:02:50.866Z</time></trkpt><trkpt lat="46.2836365" lon="12.0196581"><ele>652.0</ele><time>2026-04-26T15:02:51.844Z</time></trkpt><trkpt lat="46.2837512" lon="12.0196496"><ele>652.0</ele><time>2026-04-26T15:02:52.848Z</time></trkpt><trkpt lat="46.2838666" lon="12.0196317"><ele>652.0</ele><time>2026-04-26T15:02:53.851Z</time></trkpt><trkpt lat="46.2839716" lon="12.0195602"><ele>652.0</ele><time>2026-04-26T15:02:54.843Z</time></trkpt><trkpt lat="46.2840667" lon="12.0194812"><ele>652.0</ele><time>2026-04-26T15:02:55.85Z</time></trkpt><trkpt lat="46.2841427" lon="12.0193812"><ele>652.0</ele><time>2026-04-26T15:02:56.853Z</time></trkpt><trkpt lat="46.2842457" lon="12.0193634"><ele>648.0</ele><time>2026-04-26T15:02:57.851Z</time></trkpt><trkpt lat="46.2843628" lon="12.0193887"><ele>644.0</ele><time>2026-04-26T15:02:58.847Z</time></trkpt><trkpt lat="46.2844905" lon="12.019494"><ele>640.0</ele><time>2026-04-26T15:02:59.862Z</time></trkpt><trkpt lat="46.2846332" lon="12.01961"><ele>636.0</ele><time>2026-04-26T15:03:00.845Z</time></trkpt><trkpt lat="46.2847843" lon="12.0197205"><ele>636.0</ele><time>2026-04-26T15:03:01.859Z</time></trkpt><trkpt lat="46.2849318" lon="12.0198141"><ele>636.0</ele><time>2026-04-26T15:03:02.851Z</time></trkpt><trkpt lat="46.2850725" lon="12.0199066"><ele>636.0</ele><time>2026-04-26T15:03:03.845Z</time></trkpt><trkpt lat="46.2852053" lon="12.0199918"><ele>631.5</ele><time>2026-04-26T15:03:04.853Z</time></trkpt><trkpt lat="46.2853406" lon="12.0200843"><ele>627.0</ele><time>2026-04-26T15:03:05.841Z</time></trkpt><trkpt lat="46.2854633" lon="12.0201988"><ele>622.5</ele><time>2026-04-26T15:03:06.862Z</time></trkpt><trkpt lat="46.2855761" lon="12.0203238"><ele>618.0</ele><time>2026-04-26T15:03:07.845Z</time></trkpt><trkpt lat="46.2856776" lon="12.0204584"><ele>618.0</ele><time>2026-04-26T15:03:08.861Z</time></trkpt><trkpt lat="46.2857782" lon="12.0205764"><ele>618.0</ele><time>2026-04-26T15:03:09.857Z</time></trkpt><trkpt lat="46.2858796" lon="12.0206584"><ele>618.0</ele><time>2026-04-26T15:03:10.839Z</time></trkpt><trkpt lat="46.285987" lon="12.0207145"><ele>618.0</ele><time>2026-04-26T15:03:11.85Z</time></trkpt><trkpt lat="46.2861" lon="12.0207286"><ele>618.0</ele><time>2026-04-26T15:03:12.837Z</time></trkpt><trkpt lat="46.2862167" lon="12.0207377"><ele>618.0</ele><time>2026-04-26T15:03:13.842Z</time></trkpt><trkpt lat="46.2863324" lon="12.0207357"><ele>618.0</ele><time>2026-04-26T15:03:14.85Z</time></trkpt><trkpt lat="46.2864336" lon="12.0207248"><ele>618.0</ele><time>2026-04-26T15:03:15.858Z</time></trkpt><trkpt lat="46.2865265" lon="12.0206979"><ele>618.0</ele><time>2026-04-26T15:03:16.867Z</time></trkpt><trkpt lat="46.2866097" lon="12.0206966"><ele>620.1666666666666</ele><time>2026-04-26T15:03:17.855Z</time></trkpt><trkpt lat="46.2866796" lon="12.0207191"><ele>622.3333333333334</ele><time>2026-04-26T15:03:18.853Z</time></trkpt><trkpt lat="46.2867362" lon="12.0207604"><ele>624.5</ele><time>2026-04-26T15:03:19.857Z</time></trkpt><trkpt lat="46.2867719" lon="12.0208626"><ele>626.6666666666667</ele><time>2026-04-26T15:03:20.831Z</time></trkpt><trkpt lat="46.2868118" lon="12.0209886"><ele>628.8333333333334</ele><time>2026-04-26T15:03:21.852Z</time></trkpt><trkpt lat="46.2868647" lon="12.0211262"><ele>631.0</ele><time>2026-04-26T15:03:22.865Z</time></trkpt><trkpt lat="46.28693" lon="12.0212793"><ele>622.25</ele><time>2026-04-26T15:03:23.843Z</time></trkpt><trkpt lat="46.2870037" lon="12.0214422"><ele>613.5</ele><time>2026-04-26T15:03:24.838Z</time></trkpt><trkpt lat="46.2870837" lon="12.0215985"><ele>604.75</ele><time>2026-04-26T15:03:25.856Z</time></trkpt><trkpt lat="46.2871506" lon="12.0217563"><ele>596.0</ele><time>2026-04-26T15:03:26.849Z</time></trkpt><trkpt lat="46.2872135" lon="12.0219159"><ele>593.75</ele><time>2026-04-26T15:03:27.844Z</time></trkpt><trkpt lat="46.2872755" lon="12.0220762"><ele>591.5</ele><time>2026-04-26T15:03:28.863Z</time></trkpt><trkpt lat="46.287316" lon="12.0222483"><ele>589.25</ele><time>2026-04-26T15:03:29.841Z</time></trkpt><trkpt lat="46.2873349" lon="12.0224238"><ele>587.0</ele><time>2026-04-26T15:03:30.862Z</time></trkpt><trkpt lat="46.2873326" lon="12.0225967"><ele>587.0</ele><time>2026-04-26T15:03:31.855Z</time></trkpt><trkpt lat="46.287315" lon="12.0227574"><ele>587.0</ele><time>2026-04-26T15:03:32.859Z</time></trkpt><trkpt lat="46.2872822" lon="12.0228963"><ele>587.0</ele><time>2026-04-26T15:03:33.854Z</time></trkpt><trkpt lat="46.2872412" lon="12.0230139"><ele>587.0</ele><time>2026-04-26T15:03:34.851Z</time></trkpt><trkpt lat="46.2871969" lon="12.0231128"><ele>587.0</ele><time>2026-04-26T15:03:35.849Z</time></trkpt><trkpt lat="46.2871493" lon="12.0232044"><ele>586.8000000000001</ele><time>2026-04-26T15:03:36.844Z</time></trkpt><trkpt lat="46.2870962" lon="12.0233011"><ele>586.6</ele><time>2026-04-26T15:03:37.852Z</time></trkpt><trkpt lat="46.28703" lon="12.0234092"><ele>586.4000000000001</ele><time>2026-04-26T15:03:38.86Z</time></trkpt><trkpt lat="46.2869501" lon="12.0235226"><ele>586.2</ele><time>2026-04-26T15:03:39.861Z</time></trkpt><trkpt lat="46.2868299" lon="12.0236047"><ele>586.0</ele><time>2026-04-26T15:03:40.85Z</time></trkpt><trkpt lat="46.286705" lon="12.0236765"><ele>586.0</ele><time>2026-04-26T15:03:41.839Z</time></trkpt><trkpt lat="46.2865775" lon="12.0237471"><ele>586.0</ele><time>2026-04-26T15:03:42.861Z</time></trkpt><trkpt lat="46.2864493" lon="12.0238377"><ele>586.0</ele><time>2026-04-26T15:03:43.865Z</time></trkpt><trkpt lat="46.286319" lon="12.0239388"><ele>586.0</ele><time>2026-04-26T15:03:44.85Z</time></trkpt><trkpt lat="46.2861854" lon="12.0240606"><ele>585.0</ele><time>2026-04-26T15:03:45.853Z</time></trkpt><trkpt lat="46.2860476" lon="12.0241992"><ele>584.0</ele><time>2026-04-26T15:03:46.842Z</time></trkpt><trkpt lat="46.2859137" lon="12.0243752"><ele>583.0</ele><time>2026-04-26T15:03:47.855Z</time></trkpt><trkpt lat="46.2857801" lon="12.0245565"><ele>583.0</ele><time>2026-04-26T15:03:48.852Z</time></trkpt><trkpt lat="46.285655" lon="12.024772"><ele>583.0</ele><time>2026-04-26T15:03:49.844Z</time></trkpt><trkpt lat="46.2855361" lon="12.0249974"><ele>583.0</ele><time>2026-04-26T15:03:50.844Z</time></trkpt><trkpt lat="46.2854258" lon="12.0252365"><ele>581.6666666666667</ele><time>2026-04-26T15:03:51.86Z</time></trkpt><trkpt lat="46.2853237" lon="12.0254802"><ele>580.3333333333334</ele><time>2026-04-26T15:03:52.851Z</time></trkpt><trkpt lat="46.2852263" lon="12.0257216"><ele>579.0</ele><time>2026-04-26T15:03:53.855Z</time></trkpt><trkpt lat="46.28513" lon="12.0259565"><ele>579.0</ele><time>2026-04-26T15:03:54.846Z</time></trkpt><trkpt lat="46.2850336" lon="12.0261817"><ele>579.0</ele><time>2026-04-26T15:03:55.848Z</time></trkpt><trkpt lat="46.284935" lon="12.0263966"><ele>579.0</ele><time>2026-04-26T15:03:56.85Z</time></trkpt><trkpt lat="46.284829" lon="12.0266049"><ele>578.0</ele><time>2026-04-26T15:03:57.855Z</time></trkpt><trkpt lat="46.2847152" lon="12.0268056"><ele>577.0</ele><time>2026-04-26T15:03:58.857Z</time></trkpt><trkpt lat="46.2845935" lon="12.0270003"><ele>576.0</ele><time>2026-04-26T15:03:59.858Z</time></trkpt><trkpt lat="46.2844634" lon="12.0271888"><ele>576.0</ele><time>2026-04-26T15:04:00.855Z</time></trkpt><trkpt lat="46.2843265" lon="12.0273691"><ele>576.0</ele><time>2026-04-26T15:04:01.857Z</time></trkpt><trkpt lat="46.284185" lon="12.0275467"><ele>576.0</ele><time>2026-04-26T15:04:02.851Z</time></trkpt><trkpt lat="46.2840379" lon="12.0277232"><ele>575.0</ele><time>2026-04-26T15:04:03.841Z</time></trkpt><trkpt lat="46.2838801" lon="12.0278817"><ele>574.0</ele><time>2026-04-26T15:04:04.854Z</time></trkpt><trkpt lat="46.2837122" lon="12.0280262"><ele>573.0</ele><time>2026-04-26T15:04:05.859Z</time></trkpt><trkpt lat="46.2835343" lon="12.0281545"><ele>573.0</ele><time>2026-04-26T15:04:06.854Z</time></trkpt><trkpt lat="46.2833501" lon="12.0282722"><ele>573.0</ele><time>2026-04-26T15:04:07.857Z</time></trkpt><trkpt lat="46.283158" lon="12.0283751"><ele>573.0</ele><time>2026-04-26T15:04:08.858Z</time></trkpt><trkpt lat="46.2829616" lon="12.0284715"><ele>572.6666666666666</ele><time>2026-04-26T15:04:09.848Z</time></trkpt><trkpt lat="46.2827616" lon="12.0285611"><ele>572.3333333333333</ele><time>2026-04-26T15:04:10.854Z</time></trkpt><trkpt lat="46.282558" lon="12.028642"><ele>572.0</ele><time>2026-04-26T15:04:11.863Z</time></trkpt><trkpt lat="46.2823542" lon="12.0287315"><ele>571.3333333333333</ele><time>2026-04-26T15:04:12.86Z</time></trkpt><trkpt lat="46.2821476" lon="12.0288095"><ele>570.6666666666666</ele><time>2026-04-26T15:04:13.864Z</time></trkpt><trkpt lat="46.2819412" lon="12.0288861"><ele>570.0</ele><time>2026-04-26T15:04:14.858Z</time></trkpt><trkpt lat="46.2817377" lon="12.0289749"><ele>570.0</ele><time>2026-04-26T15:04:15.869Z</time></trkpt><trkpt lat="46.2815298" lon="12.0290223"><ele>570.0</ele><time>2026-04-26T15:04:16.86Z</time></trkpt><trkpt lat="46.2813239" lon="12.0290684"><ele>570.0</ele><time>2026-04-26T15:04:17.851Z</time></trkpt><trkpt lat="46.2811209" lon="12.0291216"><ele>570.3333333333334</ele><time>2026-04-26T15:04:18.85Z</time></trkpt><trkpt lat="46.2809166" lon="12.0291583"><ele>570.6666666666667</ele><time>2026-04-26T15:04:19.837Z</time></trkpt><trkpt lat="46.2807129" lon="12.029185"><ele>571.0</ele><time>2026-04-26T15:04:20.864Z</time></trkpt><trkpt lat="46.2805112" lon="12.0292084"><ele>571.0</ele><time>2026-04-26T15:04:21.866Z</time></trkpt><trkpt lat="46.2803115" lon="12.029219"><ele>571.0</ele><time>2026-04-26T15:04:22.866Z</time></trkpt><trkpt lat="46.2801178" lon="12.0292414"><ele>571.0</ele><time>2026-04-26T15:04:23.879Z</time></trkpt><trkpt lat="46.2799284" lon="12.0292686"><ele>571.0</ele><time>2026-04-26T15:04:24.874Z</time></trkpt><trkpt lat="46.2797423" lon="12.0293028"><ele>571.0</ele><time>2026-04-26T15:04:25.866Z</time></trkpt><trkpt lat="46.2795586" lon="12.0293461"><ele>571.0</ele><time>2026-04-26T15:04:26.862Z</time></trkpt><trkpt lat="46.2793754" lon="12.0293936"><ele>571.0</ele><time>2026-04-26T15:04:27.877Z</time></trkpt><trkpt lat="46.2791951" lon="12.0294503"><ele>571.0</ele><time>2026-04-26T15:04:28.856Z</time></trkpt><trkpt lat="46.2790153" lon="12.0295112"><ele>571.0</ele><time>2026-04-26T15:04:29.855Z</time></trkpt><trkpt lat="46.2788345" lon="12.0295798"><ele>570.0</ele><time>2026-04-26T15:04:30.853Z</time></trkpt><trkpt lat="46.2786535" lon="12.029659"><ele>569.0</ele><time>2026-04-26T15:04:31.854Z</time></trkpt><trkpt lat="46.2784671" lon="12.0297225"><ele>568.0</ele><time>2026-04-26T15:04:32.852Z</time></trkpt><trkpt lat="46.2782803" lon="12.0298072"><ele>567.3333333333334</ele><time>2026-04-26T15:04:33.864Z</time></trkpt><trkpt lat="46.2780883" lon="12.0298894"><ele>566.6666666666666</ele><time>2026-04-26T15:04:34.872Z</time></trkpt><trkpt lat="46.2778955" lon="12.0299871"><ele>566.0</ele><time>2026-04-26T15:04:35.854Z</time></trkpt><trkpt lat="46.2777025" lon="12.0300976"><ele>568.3333333333333</ele><time>2026-04-26T15:04:36.847Z</time></trkpt><trkpt lat="46.2775067" lon="12.0301931"><ele>570.6666666666666</ele><time>2026-04-26T15:04:37.866Z</time></trkpt><trkpt lat="46.2773137" lon="12.0302837"><ele>573.0</ele><time>2026-04-26T15:04:38.86Z</time></trkpt><trkpt lat="46.2771273" lon="12.0303691"><ele>573.0</ele><time>2026-04-26T15:04:39.866Z</time></trkpt><trkpt lat="46.2769465" lon="12.0304521"><ele>573.0</ele><time>2026-04-26T15:04:40.849Z</time></trkpt><trkpt lat="46.2767695" lon="12.0305338"><ele>573.0</ele><time>2026-04-26T15:04:41.856Z</time></trkpt><trkpt lat="46.2765975" lon="12.0306158"><ele>572.3333333333334</ele><time>2026-04-26T15:04:42.867Z</time></trkpt><trkpt lat="46.2764316" lon="12.030709"><ele>571.6666666666667</ele><time>2026-04-26T15:04:43.86Z</time></trkpt><trkpt lat="46.2762684" lon="12.0308086"><ele>571.0</ele><time>2026-04-26T15:04:44.866Z</time></trkpt><trkpt lat="46.2761063" lon="12.030914"><ele>571.0</ele><time>2026-04-26T15:04:45.851Z</time></trkpt><trkpt lat="46.2759482" lon="12.0310356"><ele>571.0</ele><time>2026-04-26T15:04:46.865Z</time></trkpt><trkpt lat="46.2757938" lon="12.0311695"><ele>571.0</ele><time>2026-04-26T15:04:47.87Z</time></trkpt><trkpt lat="46.2756419" lon="12.0313121"><ele>571.0</ele><time>2026-04-26T15:04:48.861Z</time></trkpt><trkpt lat="46.2754967" lon="12.0314702"><ele>571.0</ele><time>2026-04-26T15:04:49.854Z</time></trkpt><trkpt lat="46.275356" lon="12.0316397"><ele>571.0</ele><time>2026-04-26T15:04:50.851Z</time></trkpt><trkpt lat="46.2752157" lon="12.0318188"><ele>571.3333333333334</ele><time>2026-04-26T15:04:51.866Z</time></trkpt><trkpt lat="46.2750846" lon="12.0320177"><ele>571.6666666666666</ele><time>2026-04-26T15:04:52.854Z</time></trkpt><trkpt lat="46.274944" lon="12.0322041"><ele>572.0</ele><time>2026-04-26T15:04:53.857Z</time></trkpt><trkpt lat="46.2748139" lon="12.0324076"><ele>570.3333333333333</ele><time>2026-04-26T15:04:54.862Z</time></trkpt><trkpt lat="46.2746848" lon="12.0326138"><ele>568.6666666666666</ele><time>2026-04-26T15:04:55.858Z</time></trkpt><trkpt lat="46.2745582" lon="12.0328253"><ele>567.0</ele><time>2026-04-26T15:04:56.844Z</time></trkpt><trkpt lat="46.2744308" lon="12.0330351"><ele>567.0</ele><time>2026-04-26T15:04:57.863Z</time></trkpt><trkpt lat="46.2742983" lon="12.0332354"><ele>567.0</ele><time>2026-04-26T15:04:58.86Z</time></trkpt><trkpt lat="46.2741666" lon="12.0334333"><ele>567.0</ele><time>2026-04-26T15:04:59.863Z</time></trkpt><trkpt lat="46.2740382" lon="12.0336298"><ele>567.6666666666666</ele><time>2026-04-26T15:05:00.872Z</time></trkpt><trkpt lat="46.273914" lon="12.0338217"><ele>568.3333333333333</ele><time>2026-04-26T15:05:01.874Z</time></trkpt><trkpt lat="46.2737896" lon="12.0340008"><ele>569.0</ele><time>2026-04-26T15:05:02.865Z</time></trkpt><trkpt lat="46.273671" lon="12.0341768"><ele>569.0</ele><time>2026-04-26T15:05:03.858Z</time></trkpt><trkpt lat="46.2735569" lon="12.0343458"><ele>569.0</ele><time>2026-04-26T15:05:04.852Z</time></trkpt><trkpt lat="46.273442" lon="12.0344979"><ele>569.0</ele><time>2026-04-26T15:05:05.861Z</time></trkpt><trkpt lat="46.2733284" lon="12.0346307"><ele>569.0</ele><time>2026-04-26T15:05:06.863Z</time></trkpt><trkpt lat="46.2732194" lon="12.0347502"><ele>569.0</ele><time>2026-04-26T15:05:07.862Z</time></trkpt><trkpt lat="46.2731087" lon="12.0348519"><ele>569.0</ele><time>2026-04-26T15:05:08.849Z</time></trkpt><trkpt lat="46.2729964" lon="12.034942"><ele>569.0</ele><time>2026-04-26T15:05:09.846Z</time></trkpt><trkpt lat="46.2728813" lon="12.0350286"><ele>570.0</ele><time>2026-04-26T15:05:10.85Z</time></trkpt><trkpt lat="46.272765" lon="12.0351148"><ele>571.0</ele><time>2026-04-26T15:05:11.867Z</time></trkpt><trkpt lat="46.27265" lon="12.0352033"><ele>572.0</ele><time>2026-04-26T15:05:12.854Z</time></trkpt><trkpt lat="46.2725362" lon="12.0352955"><ele>573.0</ele><time>2026-04-26T15:05:13.859Z</time></trkpt><trkpt lat="46.272424" lon="12.0353928"><ele>573.0</ele><time>2026-04-26T15:05:14.856Z</time></trkpt><trkpt lat="46.2723109" lon="12.0354965"><ele>573.0</ele><time>2026-04-26T15:05:15.853Z</time></trkpt><trkpt lat="46.2721979" lon="12.0355966"><ele>573.0</ele><time>2026-04-26T15:05:16.854Z</time></trkpt><trkpt lat="46.2720919" lon="12.035704"><ele>573.0</ele><time>2026-04-26T15:05:17.854Z</time></trkpt><trkpt lat="46.2719955" lon="12.0358142"><ele>574.6</ele><time>2026-04-26T15:05:18.86Z</time></trkpt><trkpt lat="46.2719138" lon="12.0359384"><ele>576.1999999999999</ele><time>2026-04-26T15:05:19.849Z</time></trkpt><trkpt lat="46.2718312" lon="12.0360413"><ele>577.8</ele><time>2026-04-26T15:05:20.839Z</time></trkpt><trkpt lat="46.2717608" lon="12.0361458"><ele>579.4</ele><time>2026-04-26T15:05:21.859Z</time></trkpt><trkpt lat="46.2717056" lon="12.0362408"><ele>581.0</ele><time>2026-04-26T15:05:22.848Z</time></trkpt><trkpt lat="46.2716604" lon="12.0363116"><ele>581.0</ele><time>2026-04-26T15:05:23.857Z</time></trkpt><trkpt lat="46.2716057" lon="12.0364056"><ele>581.0</ele><time>2026-04-26T15:05:25.851Z</time></trkpt><trkpt lat="46.2715602" lon="12.0364785"><ele>581.0</ele><time>2026-04-26T15:05:27.845Z</time></trkpt><trkpt lat="46.2715126" lon="12.0365436"><ele>581.0</ele><time>2026-04-26T15:05:29.843Z</time></trkpt><trkpt lat="46.2714438" lon="12.0366239"><ele>581.0</ele><time>2026-04-26T15:05:31.85Z</time></trkpt><trkpt lat="46.2713809" lon="12.0366427"><ele>581.0</ele><time>2026-04-26T15:05:32.846Z</time></trkpt><trkpt lat="46.2712989" lon="12.0366054"><ele>582.5</ele><time>2026-04-26T15:05:33.851Z</time></trkpt><trkpt lat="46.2712126" lon="12.0364905"><ele>584.0</ele><time>2026-04-26T15:05:34.854Z</time></trkpt><trkpt lat="46.2711307" lon="12.0363762"><ele>585.5</ele><time>2026-04-26T15:05:35.843Z</time></trkpt><trkpt lat="46.2710313" lon="12.0362758"><ele>587.0</ele><time>2026-04-26T15:05:36.841Z</time></trkpt><trkpt lat="46.2709164" lon="12.036217"><ele>587.0</ele><time>2026-04-26T15:05:37.855Z</time></trkpt><trkpt lat="46.2707996" lon="12.0361719"><ele>587.0</ele><time>2026-04-26T15:05:38.848Z</time></trkpt><trkpt lat="46.2706933" lon="12.0361041"><ele>587.0</ele><time>2026-04-26T15:05:39.86Z</time></trkpt><trkpt lat="46.2705862" lon="12.0360557"><ele>587.0</ele><time>2026-04-26T15:05:40.847Z</time></trkpt><trkpt lat="46.2704747" lon="12.0360603"><ele>587.8000000000001</ele><time>2026-04-26T15:05:41.856Z</time></trkpt><trkpt lat="46.2703735" lon="12.0360775"><ele>588.6</ele><time>2026-04-26T15:05:42.85Z</time></trkpt><trkpt lat="46.2702816" lon="12.0361273"><ele>589.4000000000001</ele><time>2026-04-26T15:05:43.844Z</time></trkpt><trkpt lat="46.2701972" lon="12.0361852"><ele>590.2</ele><time>2026-04-26T15:05:44.844Z</time></trkpt><trkpt lat="46.2701186" lon="12.0362554"><ele>591.0</ele><time>2026-04-26T15:05:45.852Z</time></trkpt><trkpt lat="46.2700387" lon="12.0363415"><ele>591.0</ele><time>2026-04-26T15:05:46.852Z</time></trkpt><trkpt lat="46.269977" lon="12.0364577"><ele>591.0</ele><time>2026-04-26T15:05:47.843Z</time></trkpt><trkpt lat="46.2699412" lon="12.0366014"><ele>591.0</ele><time>2026-04-26T15:05:48.845Z</time></trkpt><trkpt lat="46.2699474" lon="12.0367785"><ele>591.0</ele><time>2026-04-26T15:05:49.859Z</time></trkpt><trkpt lat="46.2699303" lon="12.0369469"><ele>591.0</ele><time>2026-04-26T15:05:50.851Z</time></trkpt><trkpt lat="46.2699112" lon="12.0371193"><ele>592.0</ele><time>2026-04-26T15:05:51.849Z</time></trkpt><trkpt lat="46.2699318" lon="12.0373127"><ele>593.0</ele><time>2026-04-26T15:05:52.859Z</time></trkpt><trkpt lat="46.2699712" lon="12.0375076"><ele>594.0</ele><time>2026-04-26T15:05:53.852Z</time></trkpt><trkpt lat="46.270021" lon="12.0376931"><ele>595.0</ele><time>2026-04-26T15:05:54.845Z</time></trkpt><trkpt lat="46.2700845" lon="12.0378629"><ele>595.5</ele><time>2026-04-26T15:05:55.875Z</time></trkpt><trkpt lat="46.270177" lon="12.0379914"><ele>596.0</ele><time>2026-04-26T15:05:56.847Z</time></trkpt><trkpt lat="46.2702787" lon="12.0381029"><ele>596.5</ele><time>2026-04-26T15:05:57.857Z</time></trkpt><trkpt lat="46.2703859" lon="12.0382083"><ele>597.0</ele><time>2026-04-26T15:05:58.844Z</time></trkpt><trkpt lat="46.2704908" lon="12.0383112"><ele>594.75</ele><time>2026-04-26T15:05:59.841Z</time></trkpt><trkpt lat="46.2705808" lon="12.0384397"><ele>592.5</ele><time>2026-04-26T15:06:00.848Z</time></trkpt><trkpt lat="46.2706449" lon="12.0385892"><ele>590.25</ele><time>2026-04-26T15:06:01.848Z</time></trkpt><trkpt lat="46.2706848" lon="12.0387428"><ele>588.0</ele><time>2026-04-26T15:06:02.862Z</time></trkpt><trkpt lat="46.2707009" lon="12.0389045"><ele>593.0</ele><time>2026-04-26T15:06:03.854Z</time></trkpt><trkpt lat="46.2707061" lon="12.0390649"><ele>598.0</ele><time>2026-04-26T15:06:04.857Z</time></trkpt><trkpt lat="46.2706859" lon="12.0393757"><ele>603.0</ele><time>2026-04-26T15:06:06.854Z</time></trkpt><trkpt lat="46.2706694" lon="12.0395251"><ele>608.0</ele><time>2026-04-26T15:06:07.862Z</time></trkpt><trkpt lat="46.2706619" lon="12.0396695"><ele>608.0</ele><time>2026-04-26T15:06:08.86Z</time></trkpt><trkpt lat="46.2706272" lon="12.0398119"><ele>608.0</ele><time>2026-04-26T15:06:09.851Z</time></trkpt><trkpt lat="46.2705884" lon="12.0399417"><ele>608.0</ele><time>2026-04-26T15:06:10.87Z</time></trkpt><trkpt lat="46.2705224" lon="12.040062"><ele>608.0</ele><time>2026-04-26T15:06:11.86Z</time></trkpt><trkpt lat="46.2704347" lon="12.0401528"><ele>608.0</ele><time>2026-04-26T15:06:12.856Z</time></trkpt><trkpt lat="46.2703282" lon="12.0402114"><ele>604.8</ele><time>2026-04-26T15:06:13.875Z</time></trkpt><trkpt lat="46.2702166" lon="12.0402386"><ele>601.5999999999999</ele><time>2026-04-26T15:06:14.853Z</time></trkpt><trkpt lat="46.270111" lon="12.0402322"><ele>598.4000000000001</ele><time>2026-04-26T15:06:15.843Z</time></trkpt><trkpt lat="46.2700096" lon="12.0402038"><ele>595.2</ele><time>2026-04-26T15:06:16.842Z</time></trkpt><trkpt lat="46.2699271" lon="12.0401326"><ele>592.0</ele><time>2026-04-26T15:06:17.851Z</time></trkpt><trkpt lat="46.269855" lon="12.0400272"><ele>590.8000000000001</ele><time>2026-04-26T15:06:18.853Z</time></trkpt><trkpt lat="46.2697958" lon="12.0398974"><ele>589.6</ele><time>2026-04-26T15:06:19.848Z</time></trkpt><trkpt lat="46.2697436" lon="12.0397618"><ele>588.4000000000001</ele><time>2026-04-26T15:06:20.862Z</time></trkpt><trkpt lat="46.2696721" lon="12.0396416"><ele>587.2</ele><time>2026-04-26T15:06:21.855Z</time></trkpt><trkpt lat="46.2695777" lon="12.0395426"><ele>586.0</ele><time>2026-04-26T15:06:22.842Z</time></trkpt><trkpt lat="46.2694891" lon="12.0394412"><ele>586.0</ele><time>2026-04-26T15:06:23.859Z</time></trkpt><trkpt lat="46.2693814" lon="12.0393839"><ele>586.0</ele><time>2026-04-26T15:06:24.852Z</time></trkpt><trkpt lat="46.2692645" lon="12.0393484"><ele>586.0</ele><time>2026-04-26T15:06:25.88Z</time></trkpt><trkpt lat="46.2691396" lon="12.0393483"><ele>586.0</ele><time>2026-04-26T15:06:26.874Z</time></trkpt><trkpt lat="46.2690227" lon="12.0394033"><ele>583.0</ele><time>2026-04-26T15:06:27.853Z</time></trkpt><trkpt lat="46.2689076" lon="12.0394654"><ele>580.0</ele><time>2026-04-26T15:06:28.845Z</time></trkpt><trkpt lat="46.2687971" lon="12.0395463"><ele>577.0</ele><time>2026-04-26T15:06:29.857Z</time></trkpt><trkpt lat="46.2686782" lon="12.0396062"><ele>574.0</ele><time>2026-04-26T15:06:30.852Z</time></trkpt><trkpt lat="46.2685589" lon="12.0396597"><ele>574.0</ele><time>2026-04-26T15:06:31.849Z</time></trkpt><trkpt lat="46.2684363" lon="12.0396969"><ele>574.0</ele><time>2026-04-26T15:06:32.843Z</time></trkpt><trkpt lat="46.2683062" lon="12.0397185"><ele>574.0</ele><time>2026-04-26T15:06:33.852Z</time></trkpt><trkpt lat="46.2681741" lon="12.0397231"><ele>574.0</ele><time>2026-04-26T15:06:34.858Z</time></trkpt><trkpt lat="46.2680386" lon="12.0397198"><ele>573.25</ele><time>2026-04-26T15:06:35.855Z</time></trkpt><trkpt lat="46.2679018" lon="12.0396682"><ele>572.5</ele><time>2026-04-26T15:06:36.842Z</time></trkpt><trkpt lat="46.2677652" lon="12.0396241"><ele>571.75</ele><time>2026-04-26T15:06:37.855Z</time></trkpt><trkpt lat="46.2676292" lon="12.0396026"><ele>571.0</ele><time>2026-04-26T15:06:38.853Z</time></trkpt><trkpt lat="46.2674996" lon="12.0395768"><ele>571.0</ele><time>2026-04-26T15:06:39.859Z</time></trkpt><trkpt lat="46.2673735" lon="12.0395403"><ele>571.0</ele><time>2026-04-26T15:06:40.849Z</time></trkpt><trkpt lat="46.2672488" lon="12.0394649"><ele>571.0</ele><time>2026-04-26T15:06:41.857Z</time></trkpt><trkpt lat="46.2671171" lon="12.039419"><ele>571.0</ele><time>2026-04-26T15:06:42.852Z</time></trkpt><trkpt lat="46.2669875" lon="12.0393754"><ele>571.75</ele><time>2026-04-26T15:06:43.854Z</time></trkpt><trkpt lat="46.2668598" lon="12.0393405"><ele>572.5</ele><time>2026-04-26T15:06:44.849Z</time></trkpt><trkpt lat="46.2667334" lon="12.0393678"><ele>573.25</ele><time>2026-04-26T15:06:45.861Z</time></trkpt><trkpt lat="46.2666127" lon="12.0393903"><ele>574.0</ele><time>2026-04-26T15:06:46.853Z</time></trkpt><trkpt lat="46.2664917" lon="12.039414"><ele>573.75</ele><time>2026-04-26T15:06:47.855Z</time></trkpt><trkpt lat="46.2663668" lon="12.039454"><ele>573.5</ele><time>2026-04-26T15:06:48.852Z</time></trkpt><trkpt lat="46.2662429" lon="12.0395132"><ele>573.25</ele><time>2026-04-26T15:06:49.858Z</time></trkpt><trkpt lat="46.2661238" lon="12.0395822"><ele>573.0</ele><time>2026-04-26T15:06:50.846Z</time></trkpt><trkpt lat="46.2660042" lon="12.0396456"><ele>573.0</ele><time>2026-04-26T15:06:51.867Z</time></trkpt><trkpt lat="46.2658903" lon="12.039722"><ele>573.0</ele><time>2026-04-26T15:06:52.854Z</time></trkpt><trkpt lat="46.2657806" lon="12.0397981"><ele>573.0</ele><time>2026-04-26T15:06:53.891Z</time></trkpt><trkpt lat="46.2656504" lon="12.0398078"><ele>573.0</ele><time>2026-04-26T15:06:54.864Z</time></trkpt><trkpt lat="46.2655417" lon="12.039879"><ele>573.75</ele><time>2026-04-26T15:06:55.849Z</time></trkpt><trkpt lat="46.2654306" lon="12.0399337"><ele>574.5</ele><time>2026-04-26T15:06:56.853Z</time></trkpt><trkpt lat="46.2653221" lon="12.0399946"><ele>575.25</ele><time>2026-04-26T15:06:57.862Z</time></trkpt><trkpt lat="46.2652146" lon="12.0400519"><ele>576.0</ele><time>2026-04-26T15:06:58.858Z</time></trkpt><trkpt lat="46.2651069" lon="12.0401088"><ele>576.0</ele><time>2026-04-26T15:06:59.859Z</time></trkpt><trkpt lat="46.2649988" lon="12.0401601"><ele>576.0</ele><time>2026-04-26T15:07:00.864Z</time></trkpt><trkpt lat="46.2648904" lon="12.0402099"><ele>576.0</ele><time>2026-04-26T15:07:01.856Z</time></trkpt><trkpt lat="46.2647809" lon="12.0402625"><ele>576.0</ele><time>2026-04-26T15:07:02.857Z</time></trkpt><trkpt lat="46.2646678" lon="12.0402893"><ele>575.8</ele><time>2026-04-26T15:07:03.862Z</time></trkpt><trkpt lat="46.2645572" lon="12.0403093"><ele>575.6</ele><time>2026-04-26T15:07:04.86Z</time></trkpt><trkpt lat="46.2644474" lon="12.0403257"><ele>575.4</ele><time>2026-04-26T15:07:05.876Z</time></trkpt><trkpt lat="46.2643366" lon="12.0403457"><ele>575.2</ele><time>2026-04-26T15:07:06.862Z</time></trkpt><trkpt lat="46.2642269" lon="12.0403809"><ele>575.0</ele><time>2026-04-26T15:07:07.856Z</time></trkpt><trkpt lat="46.264117" lon="12.0404144"><ele>575.0</ele><time>2026-04-26T15:07:08.858Z</time></trkpt><trkpt lat="46.2640092" lon="12.0404436"><ele>575.0</ele><time>2026-04-26T15:07:09.857Z</time></trkpt><trkpt lat="46.2639034" lon="12.0404624"><ele>575.0</ele><time>2026-04-26T15:07:10.85Z</time></trkpt><trkpt lat="46.263802" lon="12.0404853"><ele>575.0</ele><time>2026-04-26T15:07:11.867Z</time></trkpt><trkpt lat="46.2637106" lon="12.0405046"><ele>575.0</ele><time>2026-04-26T15:07:12.86Z</time></trkpt><trkpt lat="46.2636252" lon="12.0405246"><ele>574.0</ele><time>2026-04-26T15:07:13.864Z</time></trkpt><trkpt lat="46.263539" lon="12.0405438"><ele>573.0</ele><time>2026-04-26T15:07:14.851Z</time></trkpt><trkpt lat="46.2634474" lon="12.040561"><ele>572.0</ele><time>2026-04-26T15:07:15.857Z</time></trkpt><trkpt lat="46.263351" lon="12.0405772"><ele>571.0</ele><time>2026-04-26T15:07:16.861Z</time></trkpt><trkpt lat="46.2632536" lon="12.0405961"><ele>570.0</ele><time>2026-04-26T15:07:17.855Z</time></trkpt><trkpt lat="46.2631568" lon="12.0406198"><ele>568.0</ele><time>2026-04-26T15:07:18.862Z</time></trkpt><trkpt lat="46.2630593" lon="12.0406396"><ele>566.0</ele><time>2026-04-26T15:07:19.86Z</time></trkpt><trkpt lat="46.2629618" lon="12.040664"><ele>564.0</ele><time>2026-04-26T15:07:20.858Z</time></trkpt><trkpt lat="46.262867" lon="12.0406835"><ele>562.0</ele><time>2026-04-26T15:07:21.856Z</time></trkpt><trkpt lat="46.2627779" lon="12.0406969"><ele>560.0</ele><time>2026-04-26T15:07:22.864Z</time></trkpt><trkpt lat="46.2626971" lon="12.0407109"><ele>560.0</ele><time>2026-04-26T15:07:23.851Z</time></trkpt><trkpt lat="46.2626242" lon="12.0407271"><ele>560.0</ele><time>2026-04-26T15:07:24.857Z</time></trkpt><trkpt lat="46.2625603" lon="12.0407421"><ele>560.0</ele><time>2026-04-26T15:07:25.859Z</time></trkpt><trkpt lat="46.262459" lon="12.0407463"><ele>560.0</ele><time>2026-04-26T15:07:27.866Z</time></trkpt><trkpt lat="46.2623885" lon="12.04069"><ele>560.0</ele><time>2026-04-26T15:07:29.851Z</time></trkpt><trkpt lat="46.2623405" lon="12.0406005"><ele>560.0</ele><time>2026-04-26T15:07:31.878Z</time></trkpt><trkpt lat="46.2622699" lon="12.0405303"><ele>559.1428571428571</ele><time>2026-04-26T15:07:34.854Z</time></trkpt><trkpt lat="46.2622004" lon="12.0405835"><ele>558.2857142857142</ele><time>2026-04-26T15:10:38.845Z</time></trkpt><trkpt lat="46.2621347" lon="12.0406266"><ele>557.4285714285714</ele><time>2026-04-26T15:10:40.847Z</time></trkpt><trkpt lat="46.262055" lon="12.0406639"><ele>556.5714285714286</ele><time>2026-04-26T15:10:42.852Z</time></trkpt><trkpt lat="46.2619964" lon="12.0407093"><ele>555.7142857142857</ele><time>2026-04-26T15:10:44.858Z</time></trkpt><trkpt lat="46.2619479" lon="12.0407913"><ele>554.8571428571429</ele><time>2026-04-26T15:10:49.854Z</time></trkpt><trkpt lat="46.2619033" lon="12.0408686"><ele>554.0</ele><time>2026-04-26T15:10:51.844Z</time></trkpt><trkpt lat="46.2618379" lon="12.0408982"><ele>555.5</ele><time>2026-04-26T15:10:52.837Z</time></trkpt><trkpt lat="46.261749" lon="12.0409206"><ele>557.0</ele><time>2026-04-26T15:10:53.844Z</time></trkpt><trkpt lat="46.2616441" lon="12.0409542"><ele>558.5</ele><time>2026-04-26T15:10:54.851Z</time></trkpt><trkpt lat="46.2615241" lon="12.0409917"><ele>560.0</ele><time>2026-04-26T15:10:55.857Z</time></trkpt><trkpt lat="46.2613937" lon="12.0410284"><ele>560.0</ele><time>2026-04-26T15:10:56.857Z</time></trkpt><trkpt lat="46.2612578" lon="12.0410617"><ele>560.0</ele><time>2026-04-26T15:10:57.856Z</time></trkpt><trkpt lat="46.2611175" lon="12.0410984"><ele>560.0</ele><time>2026-04-26T15:10:58.863Z</time></trkpt><trkpt lat="46.2609732" lon="12.0411292"><ele>560.0</ele><time>2026-04-26T15:10:59.849Z</time></trkpt><trkpt lat="46.2608262" lon="12.0411718"><ele>560.0</ele><time>2026-04-26T15:11:00.847Z</time></trkpt><trkpt lat="46.2606806" lon="12.041242"><ele>560.0</ele><time>2026-04-26T15:11:01.853Z</time></trkpt><trkpt lat="46.2605317" lon="12.0413192"><ele>560.0</ele><time>2026-04-26T15:11:02.852Z</time></trkpt><trkpt lat="46.2603853" lon="12.0414144"><ele>558.0</ele><time>2026-04-26T15:11:03.847Z</time></trkpt><trkpt lat="46.2602376" lon="12.0415172"><ele>556.0</ele><time>2026-04-26T15:11:04.854Z</time></trkpt><trkpt lat="46.260089" lon="12.0416297"><ele>554.0</ele><time>2026-04-26T15:11:05.853Z</time></trkpt><trkpt lat="46.2599335" lon="12.0417367"><ele>552.3333333333333</ele><time>2026-04-26T15:11:06.85Z</time></trkpt><trkpt lat="46.2597841" lon="12.041863"><ele>550.6666666666666</ele><time>2026-04-26T15:11:07.853Z</time></trkpt><trkpt lat="46.259635" lon="12.0419977"><ele>549.0</ele><time>2026-04-26T15:11:08.86Z</time></trkpt><trkpt lat="46.2594969" lon="12.0421612"><ele>549.0</ele><time>2026-04-26T15:11:09.852Z</time></trkpt><trkpt lat="46.2593582" lon="12.042329"><ele>549.0</ele><time>2026-04-26T15:11:10.846Z</time></trkpt><trkpt lat="46.2592262" lon="12.0425066"><ele>549.0</ele><time>2026-04-26T15:11:11.864Z</time></trkpt><trkpt lat="46.2590954" lon="12.0426785"><ele>546.3333333333334</ele><time>2026-04-26T15:11:12.861Z</time></trkpt><trkpt lat="46.2589748" lon="12.0428663"><ele>543.6666666666667</ele><time>2026-04-26T15:11:13.852Z</time></trkpt><trkpt lat="46.2588616" lon="12.0430661"><ele>541.0</ele><time>2026-04-26T15:11:14.853Z</time></trkpt><trkpt lat="46.2587573" lon="12.0432707"><ele>541.3333333333334</ele><time>2026-04-26T15:11:15.854Z</time></trkpt><trkpt lat="46.2586713" lon="12.0434919"><ele>541.6666666666666</ele><time>2026-04-26T15:11:16.854Z</time></trkpt><trkpt lat="46.2585812" lon="12.0436988"><ele>542.0</ele><time>2026-04-26T15:11:17.848Z</time></trkpt><trkpt lat="46.258488" lon="12.0438956"><ele>542.0</ele><time>2026-04-26T15:11:18.852Z</time></trkpt><trkpt lat="46.258394" lon="12.0440845"><ele>542.0</ele><time>2026-04-26T15:11:19.859Z</time></trkpt><trkpt lat="46.2583037" lon="12.0442744"><ele>542.0</ele><time>2026-04-26T15:11:20.871Z</time></trkpt><trkpt lat="46.258238" lon="12.044493"><ele>541.3333333333333</ele><time>2026-04-26T15:11:21.855Z</time></trkpt><trkpt lat="46.2581827" lon="12.0447316"><ele>540.6666666666666</ele><time>2026-04-26T15:11:22.851Z</time></trkpt><trkpt lat="46.2581353" lon="12.0449857"><ele>540.0</ele><time>2026-04-26T15:11:23.861Z</time></trkpt><trkpt lat="46.2581009" lon="12.0452565"><ele>540.0</ele><time>2026-04-26T15:11:24.848Z</time></trkpt><trkpt lat="46.2580583" lon="12.0455265"><ele>540.0</ele><time>2026-04-26T15:11:25.854Z</time></trkpt><trkpt lat="46.2580026" lon="12.0457877"><ele>540.0</ele><time>2026-04-26T15:11:26.865Z</time></trkpt><trkpt lat="46.2579294" lon="12.0460416"><ele>539.3333333333334</ele><time>2026-04-26T15:11:27.851Z</time></trkpt><trkpt lat="46.2578304" lon="12.0462776"><ele>538.6666666666667</ele><time>2026-04-26T15:11:28.848Z</time></trkpt><trkpt lat="46.2577357" lon="12.0465087"><ele>538.0</ele><time>2026-04-26T15:11:29.867Z</time></trkpt><trkpt lat="46.2576489" lon="12.0467326"><ele>540.0</ele><time>2026-04-26T15:11:30.857Z</time></trkpt><trkpt lat="46.257566" lon="12.0469506"><ele>542.0</ele><time>2026-04-26T15:11:31.86Z</time></trkpt><trkpt lat="46.2574844" lon="12.0471634"><ele>544.0</ele><time>2026-04-26T15:11:32.861Z</time></trkpt><trkpt lat="46.2574066" lon="12.0473729"><ele>541.6666666666667</ele><time>2026-04-26T15:11:33.861Z</time></trkpt><trkpt lat="46.2573187" lon="12.0475698"><ele>539.3333333333334</ele><time>2026-04-26T15:11:34.864Z</time></trkpt><trkpt lat="46.2572401" lon="12.0477675"><ele>537.0</ele><time>2026-04-26T15:11:35.862Z</time></trkpt><trkpt lat="46.25717" lon="12.0479581"><ele>537.0</ele><time>2026-04-26T15:11:36.846Z</time></trkpt><trkpt lat="46.2571147" lon="12.0481471"><ele>537.0</ele><time>2026-04-26T15:11:37.855Z</time></trkpt><trkpt lat="46.2570839" lon="12.0483535"><ele>537.0</ele><time>2026-04-26T15:11:38.857Z</time></trkpt><trkpt lat="46.2570653" lon="12.0485699"><ele>537.0</ele><time>2026-04-26T15:11:39.854Z</time></trkpt><trkpt lat="46.2570555" lon="12.0487967"><ele>537.3333333333334</ele><time>2026-04-26T15:11:40.855Z</time></trkpt><trkpt lat="46.2570479" lon="12.049028"><ele>537.6666666666667</ele><time>2026-04-26T15:11:41.855Z</time></trkpt><trkpt lat="46.2570457" lon="12.0492614"><ele>538.0</ele><time>2026-04-26T15:11:42.863Z</time></trkpt><trkpt lat="46.2570675" lon="12.0494975"><ele>538.6666666666667</ele><time>2026-04-26T15:11:43.852Z</time></trkpt><trkpt lat="46.2571139" lon="12.0497458"><ele>539.3333333333334</ele><time>2026-04-26T15:11:44.856Z</time></trkpt><trkpt lat="46.2571674" lon="12.0499918"><ele>540.0</ele><time>2026-04-26T15:11:45.854Z</time></trkpt><trkpt lat="46.2572146" lon="12.0502371"><ele>540.0</ele><time>2026-04-26T15:11:46.861Z</time></trkpt><trkpt lat="46.2572644" lon="12.0504853"><ele>540.0</ele><time>2026-04-26T15:11:47.863Z</time></trkpt><trkpt lat="46.2573353" lon="12.0507191"><ele>540.0</ele><time>2026-04-26T15:11:48.859Z</time></trkpt><trkpt lat="46.2573914" lon="12.0509434"><ele>544.0</ele><time>2026-04-26T15:11:49.847Z</time></trkpt><trkpt lat="46.2574451" lon="12.0511608"><ele>548.0</ele><time>2026-04-26T15:11:50.848Z</time></trkpt><trkpt lat="46.257501" lon="12.0513653"><ele>552.0</ele><time>2026-04-26T15:11:51.853Z</time></trkpt><trkpt lat="46.2575463" lon="12.0515713"><ele>548.3333333333334</ele><time>2026-04-26T15:11:52.853Z</time></trkpt><trkpt lat="46.257571" lon="12.0517895"><ele>544.6666666666667</ele><time>2026-04-26T15:11:53.852Z</time></trkpt><trkpt lat="46.2575863" lon="12.0520085"><ele>541.0</ele><time>2026-04-26T15:11:54.854Z</time></trkpt><trkpt lat="46.2575846" lon="12.0522257"><ele>541.0</ele><time>2026-04-26T15:11:55.851Z</time></trkpt><trkpt lat="46.2575625" lon="12.0524434"><ele>541.0</ele><time>2026-04-26T15:11:56.861Z</time></trkpt><trkpt lat="46.2575277" lon="12.0526617"><ele>541.0</ele><time>2026-04-26T15:11:57.877Z</time></trkpt><trkpt lat="46.2574741" lon="12.0528807"><ele>541.0</ele><time>2026-04-26T15:11:58.847Z</time></trkpt><trkpt lat="46.2573974" lon="12.0530974"><ele>541.0</ele><time>2026-04-26T15:11:59.853Z</time></trkpt><trkpt lat="46.2572909" lon="12.053311"><ele>541.0</ele><time>2026-04-26T15:12:00.848Z</time></trkpt><trkpt lat="46.2569841" lon="12.0536856"><ele>537.3333333333334</ele><time>2026-04-26T15:12:02.853Z</time></trkpt><trkpt lat="46.2568062" lon="12.0538352"><ele>533.6666666666666</ele><time>2026-04-26T15:12:03.848Z</time></trkpt><trkpt lat="46.2566388" lon="12.0539744"><ele>530.0</ele><time>2026-04-26T15:12:04.852Z</time></trkpt><trkpt lat="46.2564735" lon="12.0541048"><ele>528.0</ele><time>2026-04-26T15:12:05.852Z</time></trkpt><trkpt lat="46.2563178" lon="12.0542478"><ele>526.0</ele><time>2026-04-26T15:12:06.848Z</time></trkpt><trkpt lat="46.2561565" lon="12.0543871"><ele>524.0</ele><time>2026-04-26T15:12:07.855Z</time></trkpt><trkpt lat="46.2559942" lon="12.0545382"><ele>524.0</ele><time>2026-04-26T15:12:08.845Z</time></trkpt><trkpt lat="46.2558372" lon="12.0546992"><ele>524.0</ele><time>2026-04-26T15:12:09.854Z</time></trkpt><trkpt lat="46.2556878" lon="12.0548461"><ele>524.0</ele><time>2026-04-26T15:12:10.854Z</time></trkpt><trkpt lat="46.2555621" lon="12.0550236"><ele>529.6666666666666</ele><time>2026-04-26T15:12:11.864Z</time></trkpt><trkpt lat="46.2554277" lon="12.0551655"><ele>535.3333333333334</ele><time>2026-04-26T15:12:12.853Z</time></trkpt><trkpt lat="46.2553272" lon="12.0553957"><ele>541.0</ele><time>2026-04-26T15:12:13.846Z</time></trkpt><trkpt lat="46.2552331" lon="12.0556416"><ele>538.6666666666667</ele><time>2026-04-26T15:12:14.852Z</time></trkpt><trkpt lat="46.2551431" lon="12.0559031"><ele>536.3333333333334</ele><time>2026-04-26T15:12:15.855Z</time></trkpt><trkpt lat="46.2550307" lon="12.056159"><ele>534.0</ele><time>2026-04-26T15:12:16.86Z</time></trkpt><trkpt lat="46.254902" lon="12.0564104"><ele>533.3333333333334</ele><time>2026-04-26T15:12:17.859Z</time></trkpt><trkpt lat="46.2547559" lon="12.05665"><ele>532.6666666666667</ele><time>2026-04-26T15:12:18.858Z</time></trkpt><trkpt lat="46.2546094" lon="12.0569026"><ele>532.0</ele><time>2026-04-26T15:12:19.868Z</time></trkpt><trkpt lat="46.254453" lon="12.0571315"><ele>532.0</ele><time>2026-04-26T15:12:20.863Z</time></trkpt><trkpt lat="46.2542979" lon="12.0573366"><ele>532.0</ele><time>2026-04-26T15:12:21.854Z</time></trkpt><trkpt lat="46.2541703" lon="12.0575595"><ele>532.0</ele><time>2026-04-26T15:12:22.851Z</time></trkpt><trkpt lat="46.2540535" lon="12.0577795"><ele>529.6666666666667</ele><time>2026-04-26T15:12:23.855Z</time></trkpt><trkpt lat="46.2539283" lon="12.0579769"><ele>527.3333333333334</ele><time>2026-04-26T15:12:24.857Z</time></trkpt><trkpt lat="46.2538292" lon="12.0582101"><ele>525.0</ele><time>2026-04-26T15:12:25.86Z</time></trkpt><trkpt lat="46.2537343" lon="12.0584569"><ele>525.0</ele><time>2026-04-26T15:12:26.848Z</time></trkpt><trkpt lat="46.2536609" lon="12.0587164"><ele>525.0</ele><time>2026-04-26T15:12:27.862Z</time></trkpt><trkpt lat="46.2535881" lon="12.0589661"><ele>525.0</ele><time>2026-04-26T15:12:28.853Z</time></trkpt><trkpt lat="46.2535393" lon="12.0592191"><ele>525.0</ele><time>2026-04-26T15:12:29.865Z</time></trkpt><trkpt lat="46.2534789" lon="12.059463"><ele>525.0</ele><time>2026-04-26T15:12:30.858Z</time></trkpt><trkpt lat="46.2534165" lon="12.0597219"><ele>525.0</ele><time>2026-04-26T15:12:31.844Z</time></trkpt><trkpt lat="46.2533579" lon="12.059976"><ele>527.6666666666666</ele><time>2026-04-26T15:12:32.867Z</time></trkpt><trkpt lat="46.2533029" lon="12.0602158"><ele>530.3333333333333</ele><time>2026-04-26T15:12:33.872Z</time></trkpt><trkpt lat="46.2532475" lon="12.0604465"><ele>533.0</ele><time>2026-04-26T15:12:34.862Z</time></trkpt><trkpt lat="46.2531824" lon="12.0606661"><ele>536.0</ele><time>2026-04-26T15:12:35.872Z</time></trkpt><trkpt lat="46.2531304" lon="12.0608867"><ele>539.0</ele><time>2026-04-26T15:12:36.867Z</time></trkpt><trkpt lat="46.2530863" lon="12.0611164"><ele>542.0</ele><time>2026-04-26T15:12:37.877Z</time></trkpt><trkpt lat="46.253028" lon="12.0613372"><ele>535.3333333333333</ele><time>2026-04-26T15:12:38.859Z</time></trkpt><trkpt lat="46.2529756" lon="12.0615595"><ele>528.6666666666666</ele><time>2026-04-26T15:12:39.858Z</time></trkpt><trkpt lat="46.2529324" lon="12.0617857"><ele>522.0</ele><time>2026-04-26T15:12:40.857Z</time></trkpt><trkpt lat="46.2528961" lon="12.0620124"><ele>521.3333333333334</ele><time>2026-04-26T15:12:41.857Z</time></trkpt><trkpt lat="46.2528495" lon="12.0622355"><ele>520.6666666666667</ele><time>2026-04-26T15:12:42.855Z</time></trkpt><trkpt lat="46.2528053" lon="12.0624624"><ele>520.0</ele><time>2026-04-26T15:12:43.855Z</time></trkpt><trkpt lat="46.2527616" lon="12.0626891"><ele>484.0</ele><time>2026-04-26T15:12:44.854Z</time></trkpt><trkpt lat="46.2486613" lon="12.0870635"><ele>484.0</ele><time>2026-04-26T15:14:27.836Z</time></trkpt><trkpt lat="46.248795" lon="12.0873462"><ele>484.0</ele><time>2026-04-26T15:14:28.847Z</time></trkpt><trkpt lat="46.2489327" lon="12.0876029"><ele>486.33333333333337</ele><time>2026-04-26T15:14:29.852Z</time></trkpt><trkpt lat="46.2490023" lon="12.0878285"><ele>488.66666666666663</ele><time>2026-04-26T15:14:30.867Z</time></trkpt><trkpt lat="46.2490828" lon="12.0880655"><ele>491.0</ele><time>2026-04-26T15:14:31.869Z</time></trkpt><trkpt lat="46.2491523" lon="12.0882957"><ele>491.0</ele><time>2026-04-26T15:14:32.852Z</time></trkpt><trkpt lat="46.2491955" lon="12.0885278"><ele>491.0</ele><time>2026-04-26T15:14:33.855Z</time></trkpt><trkpt lat="46.2492205" lon="12.0887682"><ele>491.0</ele><time>2026-04-26T15:14:34.841Z</time></trkpt><trkpt lat="46.249221" lon="12.0890104"><ele>492.0</ele><time>2026-04-26T15:14:35.847Z</time></trkpt><trkpt lat="46.2492085" lon="12.0892635"><ele>493.0</ele><time>2026-04-26T15:14:36.881Z</time></trkpt><trkpt lat="46.249187" lon="12.0895142"><ele>494.0</ele><time>2026-04-26T15:14:37.857Z</time></trkpt><trkpt lat="46.2491635" lon="12.0897585"><ele>494.3333333333333</ele><time>2026-04-26T15:14:38.847Z</time></trkpt><trkpt lat="46.2491414" lon="12.0900043"><ele>494.66666666666663</ele><time>2026-04-26T15:14:39.872Z</time></trkpt><trkpt lat="46.2491201" lon="12.0902509"><ele>495.0</ele><time>2026-04-26T15:14:40.871Z</time></trkpt><trkpt lat="46.2490958" lon="12.0904947"><ele>495.0</ele><time>2026-04-26T15:14:41.881Z</time></trkpt><trkpt lat="46.2490604" lon="12.0907424"><ele>495.0</ele><time>2026-04-26T15:14:42.855Z</time></trkpt><trkpt lat="46.2490256" lon="12.0909887"><ele>495.0</ele><time>2026-04-26T15:14:43.868Z</time></trkpt><trkpt lat="46.2489887" lon="12.0912304"><ele>492.0</ele><time>2026-04-26T15:14:44.846Z</time></trkpt><trkpt lat="46.2489494" lon="12.0914689"><ele>489.0</ele><time>2026-04-26T15:14:45.866Z</time></trkpt><trkpt lat="46.2489077" lon="12.0917004"><ele>486.0</ele><time>2026-04-26T15:14:46.839Z</time></trkpt><trkpt lat="46.2488619" lon="12.091923"><ele>484.66666666666663</ele><time>2026-04-26T15:14:47.86Z</time></trkpt><trkpt lat="46.2488115" lon="12.0921333"><ele>483.3333333333333</ele><time>2026-04-26T15:14:48.855Z</time></trkpt><trkpt lat="46.2487598" lon="12.09234"><ele>482.0</ele><time>2026-04-26T15:14:49.862Z</time></trkpt><trkpt lat="46.248716" lon="12.0925518"><ele>481.3333333333333</ele><time>2026-04-26T15:14:50.858Z</time></trkpt><trkpt lat="46.2486748" lon="12.0927657"><ele>480.66666666666663</ele><time>2026-04-26T15:14:51.883Z</time></trkpt><trkpt lat="46.2486365" lon="12.0929825"><ele>480.0</ele><time>2026-04-26T15:14:52.851Z</time></trkpt><trkpt lat="46.2485958" lon="12.0931992"><ele>480.0</ele><time>2026-04-26T15:14:53.875Z</time></trkpt><trkpt lat="46.2485455" lon="12.0934103"><ele>480.0</ele><time>2026-04-26T15:14:54.846Z</time></trkpt><trkpt lat="46.2484826" lon="12.0936146"><ele>480.0</ele><time>2026-04-26T15:14:55.88Z</time></trkpt><trkpt lat="46.2484096" lon="12.0938133"><ele>480.0</ele><time>2026-04-26T15:14:56.852Z</time></trkpt><trkpt lat="46.2483321" lon="12.0940112"><ele>480.0</ele><time>2026-04-26T15:14:57.86Z</time></trkpt><trkpt lat="46.2482523" lon="12.0942076"><ele>480.0</ele><time>2026-04-26T15:14:58.866Z</time></trkpt><trkpt lat="46.248169" lon="12.0944056"><ele>479.0</ele><time>2026-04-26T15:14:59.856Z</time></trkpt><trkpt lat="46.2480818" lon="12.0945977"><ele>478.0</ele><time>2026-04-26T15:15:00.842Z</time></trkpt><trkpt lat="46.2480006" lon="12.0947884"><ele>477.0</ele><time>2026-04-26T15:15:01.862Z</time></trkpt><trkpt lat="46.2479166" lon="12.094976"><ele>477.0</ele><time>2026-04-26T15:15:02.842Z</time></trkpt><trkpt lat="46.2478468" lon="12.0951758"><ele>477.0</ele><time>2026-04-26T15:15:03.861Z</time></trkpt><trkpt lat="46.2477851" lon="12.0953767"><ele>477.0</ele><time>2026-04-26T15:15:04.853Z</time></trkpt><trkpt lat="46.2477312" lon="12.0955802"><ele>478.33333333333337</ele><time>2026-04-26T15:15:05.857Z</time></trkpt><trkpt lat="46.2476801" lon="12.0957868"><ele>479.6666666666667</ele><time>2026-04-26T15:15:06.874Z</time></trkpt><trkpt lat="46.2476291" lon="12.0959938"><ele>481.0</ele><time>2026-04-26T15:15:07.879Z</time></trkpt><trkpt lat="46.2475672" lon="12.0961919"><ele>481.0</ele><time>2026-04-26T15:15:08.855Z</time></trkpt><trkpt lat="46.2475101" lon="12.0963939"><ele>481.0</ele><time>2026-04-26T15:15:09.867Z</time></trkpt><trkpt lat="46.2474565" lon="12.096601"><ele>481.0</ele><time>2026-04-26T15:15:10.868Z</time></trkpt><trkpt lat="46.247403" lon="12.0968089"><ele>478.33333333333337</ele><time>2026-04-26T15:15:11.872Z</time></trkpt><trkpt lat="46.2473522" lon="12.097018"><ele>475.66666666666663</ele><time>2026-04-26T15:15:12.851Z</time></trkpt><trkpt lat="46.2473076" lon="12.0972316"><ele>473.0</ele><time>2026-04-26T15:15:13.86Z</time></trkpt><trkpt lat="46.247259" lon="12.0974484"><ele>473.0</ele><time>2026-04-26T15:15:14.85Z</time></trkpt><trkpt lat="46.2472105" lon="12.0976687"><ele>473.0</ele><time>2026-04-26T15:15:15.859Z</time></trkpt><trkpt lat="46.2471661" lon="12.0978883"><ele>473.0</ele><time>2026-04-26T15:15:16.847Z</time></trkpt><trkpt lat="46.2471251" lon="12.0981103"><ele>474.0</ele><time>2026-04-26T15:15:17.868Z</time></trkpt><trkpt lat="46.2470867" lon="12.0983327"><ele>475.0</ele><time>2026-04-26T15:15:18.855Z</time></trkpt><trkpt lat="46.247053" lon="12.0985488"><ele>476.0</ele><time>2026-04-26T15:15:19.881Z</time></trkpt><trkpt lat="46.2470202" lon="12.0987575"><ele>476.0</ele><time>2026-04-26T15:15:20.866Z</time></trkpt><trkpt lat="46.2469833" lon="12.0989555"><ele>476.0</ele><time>2026-04-26T15:15:21.859Z</time></trkpt><trkpt lat="46.2469499" lon="12.0991488"><ele>476.0</ele><time>2026-04-26T15:15:22.846Z</time></trkpt><trkpt lat="46.2469197" lon="12.0993424"><ele>476.0</ele><time>2026-04-26T15:15:23.856Z</time></trkpt><trkpt lat="46.246881" lon="12.0995366"><ele>476.75</ele><time>2026-04-26T15:15:24.871Z</time></trkpt><trkpt lat="46.2468506" lon="12.0997395"><ele>477.5</ele><time>2026-04-26T15:15:25.871Z</time></trkpt><trkpt lat="46.2468122" lon="12.0999456"><ele>478.25</ele><time>2026-04-26T15:15:26.854Z</time></trkpt><trkpt lat="46.2467791" lon="12.1001541"><ele>479.0</ele><time>2026-04-26T15:15:27.875Z</time></trkpt><trkpt lat="46.2467418" lon="12.1003603"><ele>479.0</ele><time>2026-04-26T15:15:28.859Z</time></trkpt><trkpt lat="46.2467073" lon="12.1005668"><ele>479.0</ele><time>2026-04-26T15:15:29.861Z</time></trkpt><trkpt lat="46.2466772" lon="12.1007739"><ele>479.0</ele><time>2026-04-26T15:15:30.868Z</time></trkpt><trkpt lat="46.2466555" lon="12.1009845"><ele>479.0</ele><time>2026-04-26T15:15:31.882Z</time></trkpt><trkpt lat="46.2466324" lon="12.1011954"><ele>479.66666666666663</ele><time>2026-04-26T15:15:32.865Z</time></trkpt><trkpt lat="46.2466076" lon="12.1014096"><ele>480.33333333333337</ele><time>2026-04-26T15:15:33.921Z</time></trkpt><trkpt lat="46.2465754" lon="12.1016278"><ele>481.0</ele><time>2026-04-26T15:15:34.857Z</time></trkpt><trkpt lat="46.2465437" lon="12.1018518"><ele>482.6666666666667</ele><time>2026-04-26T15:15:35.852Z</time></trkpt><trkpt lat="46.2464954" lon="12.1020746"><ele>484.33333333333337</ele><time>2026-04-26T15:15:36.855Z</time></trkpt><trkpt lat="46.246425" lon="12.1022918"><ele>486.0</ele><time>2026-04-26T15:15:37.867Z</time></trkpt><trkpt lat="46.2463359" lon="12.1024979"><ele>480.66666666666663</ele><time>2026-04-26T15:15:38.863Z</time></trkpt><trkpt lat="46.2462358" lon="12.1026877"><ele>475.3333333333333</ele><time>2026-04-26T15:15:39.852Z</time></trkpt><trkpt lat="46.2461314" lon="12.102861"><ele>470.0</ele><time>2026-04-26T15:15:40.863Z</time></trkpt><trkpt lat="46.2460262" lon="12.1030257"><ele>470.0</ele><time>2026-04-26T15:15:41.858Z</time></trkpt><trkpt lat="46.245914" lon="12.1031786"><ele>470.0</ele><time>2026-04-26T15:15:42.863Z</time></trkpt><trkpt lat="46.2457857" lon="12.1033128"><ele>470.0</ele><time>2026-04-26T15:15:43.872Z</time></trkpt><trkpt lat="46.2456492" lon="12.103422"><ele>471.3333333333333</ele><time>2026-04-26T15:15:44.85Z</time></trkpt><trkpt lat="46.2455182" lon="12.1035426"><ele>472.66666666666663</ele><time>2026-04-26T15:15:45.854Z</time></trkpt><trkpt lat="46.2453884" lon="12.1036599"><ele>474.0</ele><time>2026-04-26T15:15:46.859Z</time></trkpt><trkpt lat="46.2452623" lon="12.1037836"><ele>474.0</ele><time>2026-04-26T15:15:47.861Z</time></trkpt><trkpt lat="46.2451312" lon="12.1039064"><ele>474.0</ele><time>2026-04-26T15:15:48.865Z</time></trkpt><trkpt lat="46.2449903" lon="12.10401"><ele>474.0</ele><time>2026-04-26T15:15:49.885Z</time></trkpt><trkpt lat="46.2448569" lon="12.1041413"><ele>472.66666666666663</ele><time>2026-04-26T15:15:50.867Z</time></trkpt><trkpt lat="46.2447243" lon="12.1042784"><ele>471.3333333333333</ele><time>2026-04-26T15:15:51.877Z</time></trkpt><trkpt lat="46.2446004" lon="12.1044438"><ele>470.0</ele><time>2026-04-26T15:15:52.859Z</time></trkpt><trkpt lat="46.2444766" lon="12.1046218"><ele>470.0</ele><time>2026-04-26T15:15:53.863Z</time></trkpt><trkpt lat="46.2443598" lon="12.1048198"><ele>470.0</ele><time>2026-04-26T15:15:54.852Z</time></trkpt><trkpt lat="46.24423" lon="12.1050061"><ele>470.0</ele><time>2026-04-26T15:15:55.858Z</time></trkpt><trkpt lat="46.2440901" lon="12.1051748"><ele>469.3333333333333</ele><time>2026-04-26T15:15:56.856Z</time></trkpt><trkpt lat="46.2439458" lon="12.1053332"><ele>468.66666666666663</ele><time>2026-04-26T15:15:57.867Z</time></trkpt><trkpt lat="46.2437989" lon="12.1054804"><ele>468.0</ele><time>2026-04-26T15:15:58.856Z</time></trkpt><trkpt lat="46.2436767" lon="12.1056677"><ele>471.66666666666663</ele><time>2026-04-26T15:15:59.864Z</time></trkpt><trkpt lat="46.2435532" lon="12.105828"><ele>475.3333333333333</ele><time>2026-04-26T15:16:00.868Z</time></trkpt><trkpt lat="46.2434308" lon="12.1059734"><ele>479.0</ele><time>2026-04-26T15:16:01.862Z</time></trkpt><trkpt lat="46.2433037" lon="12.1060992"><ele>479.0</ele><time>2026-04-26T15:16:02.876Z</time></trkpt><trkpt lat="46.2431824" lon="12.1062265"><ele>479.0</ele><time>2026-04-26T15:16:03.866Z</time></trkpt><trkpt lat="46.2430702" lon="12.106365"><ele>479.0</ele><time>2026-04-26T15:16:04.866Z</time></trkpt><trkpt lat="46.2429494" lon="12.1064839"><ele>479.0</ele><time>2026-04-26T15:16:05.873Z</time></trkpt><trkpt lat="46.2428032" lon="12.1065558"><ele>480.0</ele><time>2026-04-26T15:16:06.868Z</time></trkpt><trkpt lat="46.2426716" lon="12.1066602"><ele>481.0</ele><time>2026-04-26T15:16:07.854Z</time></trkpt><trkpt lat="46.2425344" lon="12.1067506"><ele>482.0</ele><time>2026-04-26T15:16:08.879Z</time></trkpt><trkpt lat="46.2423724" lon="12.106788"><ele>478.3333333333333</ele><time>2026-04-26T15:16:09.867Z</time></trkpt><trkpt lat="46.2422093" lon="12.1068296"><ele>474.66666666666663</ele><time>2026-04-26T15:16:10.872Z</time></trkpt><trkpt lat="46.2420479" lon="12.1068715"><ele>471.0</ele><time>2026-04-26T15:16:11.875Z</time></trkpt><trkpt lat="46.241891" lon="12.1068937"><ele>471.0</ele><time>2026-04-26T15:16:12.862Z</time></trkpt><trkpt lat="46.2417417" lon="12.1069178"><ele>471.0</ele><time>2026-04-26T15:16:13.858Z</time></trkpt><trkpt lat="46.2415924" lon="12.1069052"><ele>471.0</ele><time>2026-04-26T15:16:14.864Z</time></trkpt><trkpt lat="46.2414428" lon="12.1069012"><ele>471.0</ele><time>2026-04-26T15:16:15.864Z</time></trkpt><trkpt lat="46.2412916" lon="12.1068868"><ele>471.0</ele><time>2026-04-26T15:16:16.868Z</time></trkpt><trkpt lat="46.2411388" lon="12.1068432"><ele>471.0</ele><time>2026-04-26T15:16:17.867Z</time></trkpt><trkpt lat="46.2409863" lon="12.1067937"><ele>471.0</ele><time>2026-04-26T15:16:18.863Z</time></trkpt><trkpt lat="46.240831" lon="12.1067361"><ele>471.0</ele><time>2026-04-26T15:16:19.851Z</time></trkpt><trkpt lat="46.2406735" lon="12.1066681"><ele>471.0</ele><time>2026-04-26T15:16:20.862Z</time></trkpt><trkpt lat="46.2405125" lon="12.1065945"><ele>471.0</ele><time>2026-04-26T15:16:21.866Z</time></trkpt><trkpt lat="46.2403525" lon="12.1065184"><ele>467.33333333333337</ele><time>2026-04-26T15:16:22.872Z</time></trkpt><trkpt lat="46.2402424" lon="12.1064432"><ele>463.6666666666667</ele><time>2026-04-26T15:16:23.873Z</time></trkpt><trkpt lat="46.2400712" lon="12.1063705"><ele>460.0</ele><time>2026-04-26T15:16:24.856Z</time></trkpt><trkpt lat="46.23992" lon="12.1063"><ele>461.5</ele><time>2026-04-26T15:16:25.858Z</time></trkpt><trkpt lat="46.239773" lon="12.1062341"><ele>463.0</ele><time>2026-04-26T15:16:26.864Z</time></trkpt><trkpt lat="46.239631" lon="12.1061736"><ele>464.5</ele><time>2026-04-26T15:16:27.873Z</time></trkpt><trkpt lat="46.2395094" lon="12.106123"><ele>466.0</ele><time>2026-04-26T15:16:28.855Z</time></trkpt><trkpt lat="46.2393688" lon="12.1060751"><ele>466.0</ele><time>2026-04-26T15:16:29.867Z</time></trkpt><trkpt lat="46.2392441" lon="12.1060582"><ele>466.0</ele><time>2026-04-26T15:16:30.865Z</time></trkpt><trkpt lat="46.2391248" lon="12.1060752"><ele>466.0</ele><time>2026-04-26T15:16:31.871Z</time></trkpt><trkpt lat="46.2389739" lon="12.1060984"><ele>466.0</ele><time>2026-04-26T15:16:32.842Z</time></trkpt><trkpt lat="46.2388474" lon="12.1061609"><ele>464.6666666666667</ele><time>2026-04-26T15:16:33.872Z</time></trkpt><trkpt lat="46.2387006" lon="12.1062436"><ele>463.33333333333337</ele><time>2026-04-26T15:16:34.861Z</time></trkpt><trkpt lat="46.2385685" lon="12.1063472"><ele>462.0</ele><time>2026-04-26T15:16:35.855Z</time></trkpt><trkpt lat="46.2384338" lon="12.1064705"><ele>462.33333333333337</ele><time>2026-04-26T15:16:36.865Z</time></trkpt><trkpt lat="46.238313" lon="12.1066127"><ele>462.6666666666667</ele><time>2026-04-26T15:16:37.873Z</time></trkpt><trkpt lat="46.2382024" lon="12.1067737"><ele>463.0</ele><time>2026-04-26T15:16:38.865Z</time></trkpt><trkpt lat="46.2380969" lon="12.1069527"><ele>463.0</ele><time>2026-04-26T15:16:39.857Z</time></trkpt><trkpt lat="46.2379921" lon="12.1071312"><ele>463.0</ele><time>2026-04-26T15:16:40.851Z</time></trkpt><trkpt lat="46.2378819" lon="12.1073073"><ele>463.0</ele><time>2026-04-26T15:16:41.859Z</time></trkpt><trkpt lat="46.2377607" lon="12.1074826"><ele>464.33333333333337</ele><time>2026-04-26T15:16:42.858Z</time></trkpt><trkpt lat="46.2376435" lon="12.1076493"><ele>465.66666666666663</ele><time>2026-04-26T15:16:43.858Z</time></trkpt><trkpt lat="46.2375158" lon="12.1078262"><ele>467.0</ele><time>2026-04-26T15:16:44.859Z</time></trkpt><trkpt lat="46.2373819" lon="12.1080056"><ele>467.0</ele><time>2026-04-26T15:16:45.872Z</time></trkpt><trkpt lat="46.2372396" lon="12.1081837"><ele>467.0</ele><time>2026-04-26T15:16:46.86Z</time></trkpt><trkpt lat="46.2370926" lon="12.1083519"><ele>467.0</ele><time>2026-04-26T15:16:47.868Z</time></trkpt><trkpt lat="46.2369342" lon="12.1085259"><ele>467.0</ele><time>2026-04-26T15:16:48.861Z</time></trkpt><trkpt lat="46.2367796" lon="12.1086989"><ele>467.0</ele><time>2026-04-26T15:16:49.873Z</time></trkpt><trkpt lat="46.2366285" lon="12.1088653"><ele>467.0</ele><time>2026-04-26T15:16:50.884Z</time></trkpt><trkpt lat="46.2364902" lon="12.1090164"><ele>466.3333333333333</ele><time>2026-04-26T15:16:51.85Z</time></trkpt><trkpt lat="46.2363514" lon="12.1091541"><ele>465.66666666666663</ele><time>2026-04-26T15:16:52.869Z</time></trkpt><trkpt lat="46.2362133" lon="12.1092734"><ele>465.0</ele><time>2026-04-26T15:16:53.865Z</time></trkpt><trkpt lat="46.2360647" lon="12.1093852"><ele>465.0</ele><time>2026-04-26T15:16:54.847Z</time></trkpt><trkpt lat="46.2359223" lon="12.10947"><ele>465.0</ele><time>2026-04-26T15:16:55.843Z</time></trkpt><trkpt lat="46.2357798" lon="12.1095349"><ele>465.0</ele><time>2026-04-26T15:16:56.855Z</time></trkpt><trkpt lat="46.2356302" lon="12.1095968"><ele>464.66666666666663</ele><time>2026-04-26T15:16:57.861Z</time></trkpt><trkpt lat="46.2354928" lon="12.1096519"><ele>464.3333333333333</ele><time>2026-04-26T15:16:58.858Z</time></trkpt><trkpt lat="46.2353459" lon="12.109718"><ele>464.0</ele><time>2026-04-26T15:16:59.861Z</time></trkpt><trkpt lat="46.2352024" lon="12.109796"><ele>464.0</ele><time>2026-04-26T15:17:00.878Z</time></trkpt><trkpt lat="46.2350638" lon="12.1098903"><ele>464.0</ele><time>2026-04-26T15:17:01.863Z</time></trkpt><trkpt lat="46.2349242" lon="12.1100051"><ele>464.0</ele><time>2026-04-26T15:17:02.872Z</time></trkpt><trkpt lat="46.2347876" lon="12.110149"><ele>463.3333333333333</ele><time>2026-04-26T15:17:03.879Z</time></trkpt><trkpt lat="46.2346552" lon="12.1102918"><ele>462.66666666666663</ele><time>2026-04-26T15:17:04.853Z</time></trkpt><trkpt lat="46.2345308" lon="12.1104258"><ele>462.0</ele><time>2026-04-26T15:17:05.863Z</time></trkpt><trkpt lat="46.2344094" lon="12.1105554"><ele>462.0</ele><time>2026-04-26T15:17:06.864Z</time></trkpt><trkpt lat="46.234287" lon="12.1106871"><ele>462.0</ele><time>2026-04-26T15:17:07.856Z</time></trkpt><trkpt lat="46.2341611" lon="12.1108208"><ele>462.0</ele><time>2026-04-26T15:17:08.854Z</time></trkpt><trkpt lat="46.2340343" lon="12.1109485"><ele>460.0</ele><time>2026-04-26T15:17:09.872Z</time></trkpt><trkpt lat="46.233908" lon="12.1110741"><ele>458.0</ele><time>2026-04-26T15:17:10.857Z</time></trkpt><trkpt lat="46.2337833" lon="12.111201"><ele>456.0</ele><time>2026-04-26T15:17:11.869Z</time></trkpt><trkpt lat="46.2336524" lon="12.11133"><ele>456.0</ele><time>2026-04-26T15:17:12.871Z</time></trkpt><trkpt lat="46.2335113" lon="12.1114548"><ele>456.0</ele><time>2026-04-26T15:17:13.864Z</time></trkpt><trkpt lat="46.233362" lon="12.1115654"><ele>456.0</ele><time>2026-04-26T15:17:14.872Z</time></trkpt><trkpt lat="46.2331926" lon="12.1116868"><ele>458.33333333333337</ele><time>2026-04-26T15:17:15.889Z</time></trkpt><trkpt lat="46.2330402" lon="12.1117776"><ele>460.6666666666667</ele><time>2026-04-26T15:17:16.854Z</time></trkpt><trkpt lat="46.2328479" lon="12.1118969"><ele>463.0</ele><time>2026-04-26T15:17:17.853Z</time></trkpt><trkpt lat="46.2326563" lon="12.1120138"><ele>463.0</ele><time>2026-04-26T15:17:18.857Z</time></trkpt><trkpt lat="46.2324452" lon="12.1121408"><ele>463.0</ele><time>2026-04-26T15:17:19.854Z</time></trkpt><trkpt lat="46.2323396" lon="12.112187"><ele>463.0</ele><time>2026-04-26T15:17:20.853Z</time></trkpt><trkpt lat="46.2322215" lon="12.112249"><ele>476.0</ele><time>2026-04-26T15:17:21.845Z</time></trkpt><trkpt lat="46.2319198" lon="12.1124353"><ele>489.0</ele><time>2026-04-26T15:17:22.856Z</time></trkpt><trkpt lat="46.2317484" lon="12.1125327"><ele>454.0</ele><time>2026-04-26T15:17:23.86Z</time></trkpt><trkpt lat="46.2312944" lon="12.1128344"><ele>454.0</ele><time>2026-04-26T15:17:24.862Z</time></trkpt><trkpt lat="46.2310843" lon="12.1129923"><ele>454.0</ele><time>2026-04-26T15:17:25.846Z</time></trkpt><trkpt lat="46.2309683" lon="12.1131038"><ele>454.0</ele><time>2026-04-26T15:17:26.85Z</time></trkpt><trkpt lat="46.2308175" lon="12.1132557"><ele>455.0</ele><time>2026-04-26T15:17:27.874Z</time></trkpt><trkpt lat="46.2306729" lon="12.1134111"><ele>456.0</ele><time>2026-04-26T15:17:28.864Z</time></trkpt><trkpt lat="46.2305279" lon="12.113568"><ele>457.0</ele><time>2026-04-26T15:17:29.863Z</time></trkpt><trkpt lat="46.2303807" lon="12.1137276"><ele>457.0</ele><time>2026-04-26T15:17:30.867Z</time></trkpt><trkpt lat="46.2302361" lon="12.1138811"><ele>457.0</ele><time>2026-04-26T15:17:31.848Z</time></trkpt><trkpt lat="46.2300804" lon="12.1140437"><ele>457.0</ele><time>2026-04-26T15:17:32.847Z</time></trkpt><trkpt lat="46.2299311" lon="12.1142004"><ele>457.33333333333337</ele><time>2026-04-26T15:17:33.855Z</time></trkpt><trkpt lat="46.2297776" lon="12.1143611"><ele>457.66666666666663</ele><time>2026-04-26T15:17:34.862Z</time></trkpt><trkpt lat="46.2296217" lon="12.1145273"><ele>458.0</ele><time>2026-04-26T15:17:35.862Z</time></trkpt><trkpt lat="46.2294638" lon="12.1146942"><ele>458.0</ele><time>2026-04-26T15:17:36.858Z</time></trkpt><trkpt lat="46.229307" lon="12.1148587"><ele>458.0</ele><time>2026-04-26T15:17:37.857Z</time></trkpt><trkpt lat="46.2291443" lon="12.115016"><ele>458.0</ele><time>2026-04-26T15:17:38.862Z</time></trkpt><trkpt lat="46.2289782" lon="12.1151693"><ele>457.0</ele><time>2026-04-26T15:17:39.86Z</time></trkpt><trkpt lat="46.2288115" lon="12.1153218"><ele>456.0</ele><time>2026-04-26T15:17:40.856Z</time></trkpt><trkpt lat="46.2286487" lon="12.1154717"><ele>455.0</ele><time>2026-04-26T15:17:41.851Z</time></trkpt><trkpt lat="46.2284888" lon="12.1156158"><ele>454.0</ele><time>2026-04-26T15:17:42.864Z</time></trkpt><trkpt lat="46.2283295" lon="12.1157588"><ele>453.0</ele><time>2026-04-26T15:17:43.852Z</time></trkpt><trkpt lat="46.228159" lon="12.1158953"><ele>452.0</ele><time>2026-04-26T15:17:44.864Z</time></trkpt><trkpt lat="46.2279881" lon="12.1160177"><ele>452.0</ele><time>2026-04-26T15:17:45.871Z</time></trkpt><trkpt lat="46.227815" lon="12.1161362"><ele>452.0</ele><time>2026-04-26T15:17:46.872Z</time></trkpt><trkpt lat="46.2276458" lon="12.1162545"><ele>452.0</ele><time>2026-04-26T15:17:47.876Z</time></trkpt><trkpt lat="46.227482" lon="12.1163797"><ele>452.0</ele><time>2026-04-26T15:17:48.875Z</time></trkpt><trkpt lat="46.227316" lon="12.116516"><ele>452.0</ele><time>2026-04-26T15:17:49.855Z</time></trkpt><trkpt lat="46.227145" lon="12.1166595"><ele>452.0</ele><time>2026-04-26T15:17:50.861Z</time></trkpt><trkpt lat="46.2269719" lon="12.116808"><ele>451.0</ele><time>2026-04-26T15:17:51.864Z</time></trkpt><trkpt lat="46.226801" lon="12.1169576"><ele>450.0</ele><time>2026-04-26T15:17:52.872Z</time></trkpt><trkpt lat="46.2266361" lon="12.1171053"><ele>449.0</ele><time>2026-04-26T15:17:53.844Z</time></trkpt><trkpt lat="46.2264788" lon="12.1172715"><ele>449.0</ele><time>2026-04-26T15:17:54.854Z</time></trkpt><trkpt lat="46.2263395" lon="12.1174582"><ele>449.0</ele><time>2026-04-26T15:17:55.87Z</time></trkpt><trkpt lat="46.2261904" lon="12.1176643"><ele>449.0</ele><time>2026-04-26T15:17:56.864Z</time></trkpt><trkpt lat="46.2260518" lon="12.1178265"><ele>449.0</ele><time>2026-04-26T15:17:57.852Z</time></trkpt><trkpt lat="46.2258873" lon="12.1179772"><ele>449.0</ele><time>2026-04-26T15:17:58.857Z</time></trkpt><trkpt lat="46.2257184" lon="12.1180895"><ele>449.0</ele><time>2026-04-26T15:17:59.862Z</time></trkpt><trkpt lat="46.2255472" lon="12.1181591"><ele>447.3333333333333</ele><time>2026-04-26T15:18:00.854Z</time></trkpt><trkpt lat="46.2253557" lon="12.1182184"><ele>445.66666666666663</ele><time>2026-04-26T15:18:01.853Z</time></trkpt><trkpt lat="46.2251749" lon="12.1182586"><ele>444.0</ele><time>2026-04-26T15:18:02.863Z</time></trkpt><trkpt lat="46.2249753" lon="12.1183119"><ele>444.66666666666663</ele><time>2026-04-26T15:18:03.854Z</time></trkpt><trkpt lat="46.2247932" lon="12.118388"><ele>445.3333333333333</ele><time>2026-04-26T15:18:04.863Z</time></trkpt><trkpt lat="46.2246192" lon="12.1184957"><ele>446.0</ele><time>2026-04-26T15:18:05.863Z</time></trkpt><trkpt lat="46.2244801" lon="12.118644"><ele>446.0</ele><time>2026-04-26T15:18:06.865Z</time></trkpt><trkpt lat="46.2244074" lon="12.1187895"><ele>446.0</ele><time>2026-04-26T15:18:07.844Z</time></trkpt><trkpt lat="46.2243194" lon="12.1189748"><ele>446.0</ele><time>2026-04-26T15:18:08.865Z</time></trkpt><trkpt lat="46.2242164" lon="12.1191882"><ele>446.66666666666663</ele><time>2026-04-26T15:18:09.85Z</time></trkpt><trkpt lat="46.2240813" lon="12.1194399"><ele>447.33333333333337</ele><time>2026-04-26T15:18:10.851Z</time></trkpt><trkpt lat="46.2239685" lon="12.1196669"><ele>448.0</ele><time>2026-04-26T15:18:11.862Z</time></trkpt><trkpt lat="46.2238353" lon="12.1199131"><ele>448.0</ele><time>2026-04-26T15:18:12.848Z</time></trkpt><trkpt lat="46.2237036" lon="12.1201239"><ele>448.0</ele><time>2026-04-26T15:18:13.857Z</time></trkpt><trkpt lat="46.2235566" lon="12.1203183"><ele>448.0</ele><time>2026-04-26T15:18:14.876Z</time></trkpt><trkpt lat="46.2233886" lon="12.1205348"><ele>446.33333333333337</ele><time>2026-04-26T15:18:15.861Z</time></trkpt><trkpt lat="46.2232331" lon="12.1207457"><ele>444.66666666666663</ele><time>2026-04-26T15:18:16.866Z</time></trkpt><trkpt lat="46.2230771" lon="12.1209565"><ele>443.0</ele><time>2026-04-26T15:18:17.868Z</time></trkpt><trkpt lat="46.2228946" lon="12.1211609"><ele>443.0</ele><time>2026-04-26T15:18:18.852Z</time></trkpt><trkpt lat="46.2228191" lon="12.1212132"><ele>443.0</ele><time>2026-04-26T15:18:19.853Z</time></trkpt><trkpt lat="46.2226392" lon="12.1212688"><ele>443.0</ele><time>2026-04-26T15:18:20.865Z</time></trkpt><trkpt lat="46.2224893" lon="12.1213276"><ele>443.0</ele><time>2026-04-26T15:18:21.863Z</time></trkpt><trkpt lat="46.2223445" lon="12.1213954"><ele>443.0</ele><time>2026-04-26T15:18:22.871Z</time></trkpt><trkpt lat="46.2221616" lon="12.1214979"><ele>443.0</ele><time>2026-04-26T15:18:23.864Z</time></trkpt><trkpt lat="46.2219769" lon="12.1216393"><ele>443.0</ele><time>2026-04-26T15:18:24.863Z</time></trkpt><trkpt lat="46.2217787" lon="12.1219652"><ele>444.5</ele><time>2026-04-26T15:18:26.851Z</time></trkpt><trkpt lat="46.2216166" lon="12.1221896"><ele>446.0</ele><time>2026-04-26T15:18:27.859Z</time></trkpt><trkpt lat="46.2213637" lon="12.1224565"><ele>442.5</ele><time>2026-04-26T15:18:28.861Z</time></trkpt><trkpt lat="46.2211545" lon="12.1226634"><ele>439.0</ele><time>2026-04-26T15:18:29.862Z</time></trkpt><trkpt lat="46.2209487" lon="12.1228554"><ele>439.0</ele><time>2026-04-26T15:18:30.852Z</time></trkpt><trkpt lat="46.2207453" lon="12.1230481"><ele>439.0</ele><time>2026-04-26T15:18:31.854Z</time></trkpt><trkpt lat="46.2205526" lon="12.1232415"><ele>439.0</ele><time>2026-04-26T15:18:32.863Z</time></trkpt><trkpt lat="46.2203675" lon="12.1234526"><ele>439.0</ele><time>2026-04-26T15:18:33.858Z</time></trkpt><trkpt lat="46.2201656" lon="12.1236718"><ele>439.0</ele><time>2026-04-26T15:18:34.874Z</time></trkpt><trkpt lat="46.2199788" lon="12.1238764"><ele>439.0</ele><time>2026-04-26T15:18:35.852Z</time></trkpt><trkpt lat="46.2198661" lon="12.1242681"><ele>439.33333333333337</ele><time>2026-04-26T15:18:36.849Z</time></trkpt><trkpt lat="46.2196945" lon="12.124448"><ele>439.66666666666663</ele><time>2026-04-26T15:18:37.842Z</time></trkpt><trkpt lat="46.2195213" lon="12.124629"><ele>440.0</ele><time>2026-04-26T15:18:38.871Z</time></trkpt><trkpt lat="46.2193411" lon="12.1248011"><ele>440.0</ele><time>2026-04-26T15:18:39.831Z</time></trkpt><trkpt lat="46.21916" lon="12.1249751"><ele>440.0</ele><time>2026-04-26T15:18:40.856Z</time></trkpt><trkpt lat="46.2189916" lon="12.1251698"><ele>440.0</ele><time>2026-04-26T15:18:41.848Z</time></trkpt><trkpt lat="46.2188105" lon="12.1253491"><ele>440.0</ele><time>2026-04-26T15:18:42.851Z</time></trkpt><trkpt lat="46.2186282" lon="12.1255251"><ele>440.0</ele><time>2026-04-26T15:18:43.85Z</time></trkpt><trkpt lat="46.2184487" lon="12.1257036"><ele>440.0</ele><time>2026-04-26T15:18:44.859Z</time></trkpt><trkpt lat="46.2182669" lon="12.1258808"><ele>440.3333333333333</ele><time>2026-04-26T15:18:45.847Z</time></trkpt><trkpt lat="46.2180848" lon="12.1260604"><ele>440.66666666666663</ele><time>2026-04-26T15:18:46.871Z</time></trkpt><trkpt lat="46.2178973" lon="12.126228"><ele>441.0</ele><time>2026-04-26T15:18:47.858Z</time></trkpt><trkpt lat="46.2177087" lon="12.1263879"><ele>443.0</ele><time>2026-04-26T15:18:48.862Z</time></trkpt><trkpt lat="46.2175289" lon="12.1265651"><ele>445.0</ele><time>2026-04-26T15:18:49.864Z</time></trkpt><trkpt lat="46.2173526" lon="12.1267479"><ele>447.0</ele><time>2026-04-26T15:18:50.863Z</time></trkpt><trkpt lat="46.2171798" lon="12.1269357"><ele>447.66666666666663</ele><time>2026-04-26T15:18:51.847Z</time></trkpt><trkpt lat="46.2170046" lon="12.1271151"><ele>448.3333333333333</ele><time>2026-04-26T15:18:52.855Z</time></trkpt><trkpt lat="46.2168327" lon="12.1272984"><ele>449.0</ele><time>2026-04-26T15:18:53.849Z</time></trkpt><trkpt lat="46.2166608" lon="12.1274767"><ele>449.0</ele><time>2026-04-26T15:18:54.857Z</time></trkpt><trkpt lat="46.2164887" lon="12.1276509"><ele>449.0</ele><time>2026-04-26T15:18:55.859Z</time></trkpt><trkpt lat="46.2163143" lon="12.1278134"><ele>449.0</ele><time>2026-04-26T15:18:56.86Z</time></trkpt><trkpt lat="46.2161281" lon="12.1279432"><ele>445.3333333333333</ele><time>2026-04-26T15:18:57.858Z</time></trkpt><trkpt lat="46.2159424" lon="12.128041"><ele>441.66666666666663</ele><time>2026-04-26T15:18:58.845Z</time></trkpt><trkpt lat="46.2157601" lon="12.128108"><ele>438.0</ele><time>2026-04-26T15:18:59.851Z</time></trkpt><trkpt lat="46.2155827" lon="12.1281537"><ele>437.33333333333337</ele><time>2026-04-26T15:19:00.847Z</time></trkpt><trkpt lat="46.2154076" lon="12.1281765"><ele>436.6666666666667</ele><time>2026-04-26T15:19:01.846Z</time></trkpt><trkpt lat="46.215229" lon="12.1281823"><ele>436.0</ele><time>2026-04-26T15:19:02.855Z</time></trkpt><trkpt lat="46.2150454" lon="12.1281809"><ele>436.0</ele><time>2026-04-26T15:19:03.844Z</time></trkpt><trkpt lat="46.2148547" lon="12.1281927"><ele>436.0</ele><time>2026-04-26T15:19:04.861Z</time></trkpt><trkpt lat="46.2146546" lon="12.128224"><ele>436.0</ele><time>2026-04-26T15:19:05.85Z</time></trkpt><trkpt lat="46.2144493" lon="12.1282863"><ele>435.0</ele><time>2026-04-26T15:19:06.851Z</time></trkpt><trkpt lat="46.2142376" lon="12.1283561"><ele>434.0</ele><time>2026-04-26T15:19:07.861Z</time></trkpt><trkpt lat="46.2140236" lon="12.1284346"><ele>433.0</ele><time>2026-04-26T15:19:08.844Z</time></trkpt><trkpt lat="46.2138127" lon="12.1285327"><ele>433.0</ele><time>2026-04-26T15:19:09.856Z</time></trkpt><trkpt lat="46.2136046" lon="12.1286378"><ele>433.0</ele><time>2026-04-26T15:19:10.842Z</time></trkpt><trkpt lat="46.2133957" lon="12.1287339"><ele>433.0</ele><time>2026-04-26T15:19:11.863Z</time></trkpt><trkpt lat="46.2131885" lon="12.1288377"><ele>433.6666666666667</ele><time>2026-04-26T15:19:12.856Z</time></trkpt><trkpt lat="46.2129772" lon="12.1289237"><ele>434.33333333333337</ele><time>2026-04-26T15:19:13.855Z</time></trkpt><trkpt lat="46.2127684" lon="12.1290102"><ele>435.0</ele><time>2026-04-26T15:19:14.864Z</time></trkpt><trkpt lat="46.2125677" lon="12.1291174"><ele>435.0</ele><time>2026-04-26T15:19:15.859Z</time></trkpt><trkpt lat="46.2123602" lon="12.1291859"><ele>435.0</ele><time>2026-04-26T15:19:16.862Z</time></trkpt><trkpt lat="46.21216" lon="12.1292633"><ele>435.0</ele><time>2026-04-26T15:19:17.853Z</time></trkpt><trkpt lat="46.2119665" lon="12.129349"><ele>434.33333333333337</ele><time>2026-04-26T15:19:18.86Z</time></trkpt><trkpt lat="46.2117716" lon="12.1294201"><ele>433.6666666666667</ele><time>2026-04-26T15:19:19.863Z</time></trkpt><trkpt lat="46.2115731" lon="12.1294765"><ele>433.0</ele><time>2026-04-26T15:19:20.862Z</time></trkpt><trkpt lat="46.2113731" lon="12.1295309"><ele>432.33333333333337</ele><time>2026-04-26T15:19:21.872Z</time></trkpt><trkpt lat="46.2111714" lon="12.1295837"><ele>431.66666666666663</ele><time>2026-04-26T15:19:22.856Z</time></trkpt><trkpt lat="46.2109681" lon="12.1296319"><ele>431.0</ele><time>2026-04-26T15:19:23.85Z</time></trkpt><trkpt lat="46.2107637" lon="12.1296743"><ele>431.0</ele><time>2026-04-26T15:19:24.854Z</time></trkpt><trkpt lat="46.2105592" lon="12.1297228"><ele>431.0</ele><time>2026-04-26T15:19:25.874Z</time></trkpt><trkpt lat="46.2103547" lon="12.1297801"><ele>431.0</ele><time>2026-04-26T15:19:26.857Z</time></trkpt><trkpt lat="46.2101483" lon="12.1298151"><ele>431.0</ele><time>2026-04-26T15:19:27.847Z</time></trkpt><trkpt lat="46.2099443" lon="12.1298581"><ele>431.0</ele><time>2026-04-26T15:19:28.86Z</time></trkpt><trkpt lat="46.2097392" lon="12.1299108"><ele>431.0</ele><time>2026-04-26T15:19:29.859Z</time></trkpt><trkpt lat="46.2095281" lon="12.1299462"><ele>431.0</ele><time>2026-04-26T15:19:30.846Z</time></trkpt><trkpt lat="46.2093128" lon="12.1299573"><ele>431.0</ele><time>2026-04-26T15:19:31.858Z</time></trkpt><trkpt lat="46.209096" lon="12.1299541"><ele>431.0</ele><time>2026-04-26T15:19:32.839Z</time></trkpt><trkpt lat="46.2088788" lon="12.1299386"><ele>429.3333333333333</ele><time>2026-04-26T15:19:33.865Z</time></trkpt><trkpt lat="46.2086584" lon="12.1299142"><ele>427.66666666666663</ele><time>2026-04-26T15:19:34.86Z</time></trkpt><trkpt lat="46.2084374" lon="12.12988"><ele>426.0</ele><time>2026-04-26T15:19:35.854Z</time></trkpt><trkpt lat="46.2082143" lon="12.1298552"><ele>426.0</ele><time>2026-04-26T15:19:36.859Z</time></trkpt><trkpt lat="46.2079919" lon="12.1298286"><ele>426.0</ele><time>2026-04-26T15:19:37.871Z</time></trkpt><trkpt lat="46.2077696" lon="12.1297967"><ele>426.0</ele><time>2026-04-26T15:19:38.852Z</time></trkpt><trkpt lat="46.2075477" lon="12.129768"><ele>426.0</ele><time>2026-04-26T15:19:39.869Z</time></trkpt><trkpt lat="46.2073277" lon="12.129733"><ele>426.0</ele><time>2026-04-26T15:19:40.851Z</time></trkpt><trkpt lat="46.2071133" lon="12.1297176"><ele>426.0</ele><time>2026-04-26T15:19:41.851Z</time></trkpt><trkpt lat="46.2069003" lon="12.1296963"><ele>426.0</ele><time>2026-04-26T15:19:42.869Z</time></trkpt><trkpt lat="46.206691" lon="12.129645"><ele>426.0</ele><time>2026-04-26T15:19:43.852Z</time></trkpt><trkpt lat="46.2064844" lon="12.1295668"><ele>426.0</ele><time>2026-04-26T15:19:44.863Z</time></trkpt><trkpt lat="46.2062805" lon="12.129471"><ele>426.0</ele><time>2026-04-26T15:19:45.85Z</time></trkpt><trkpt lat="46.206079" lon="12.1293529"><ele>426.0</ele><time>2026-04-26T15:19:46.851Z</time></trkpt><trkpt lat="46.2058776" lon="12.1292386"><ele>426.0</ele><time>2026-04-26T15:19:47.856Z</time></trkpt><trkpt lat="46.2056777" lon="12.1291236"><ele>426.66666666666663</ele><time>2026-04-26T15:19:48.856Z</time></trkpt><trkpt lat="46.2054784" lon="12.1290183"><ele>427.3333333333333</ele><time>2026-04-26T15:19:49.855Z</time></trkpt><trkpt lat="46.2052877" lon="12.1289182"><ele>428.0</ele><time>2026-04-26T15:19:50.861Z</time></trkpt><trkpt lat="46.2051027" lon="12.1287968"><ele>428.0</ele><time>2026-04-26T15:19:51.859Z</time></trkpt><trkpt lat="46.2049221" lon="12.1286855"><ele>428.0</ele><time>2026-04-26T15:19:52.869Z</time></trkpt><trkpt lat="46.2047453" lon="12.1285695"><ele>428.0</ele><time>2026-04-26T15:19:53.861Z</time></trkpt><trkpt lat="46.2045708" lon="12.128441"><ele>428.3333333333333</ele><time>2026-04-26T15:19:54.86Z</time></trkpt><trkpt lat="46.2043967" lon="12.1283047"><ele>428.66666666666663</ele><time>2026-04-26T15:19:55.844Z</time></trkpt><trkpt lat="46.2042271" lon="12.1281648"><ele>429.0</ele><time>2026-04-26T15:19:56.85Z</time></trkpt><trkpt lat="46.2040625" lon="12.1280189"><ele>428.0</ele><time>2026-04-26T15:19:57.846Z</time></trkpt><trkpt lat="46.2038949" lon="12.1278833"><ele>427.0</ele><time>2026-04-26T15:19:58.855Z</time></trkpt><trkpt lat="46.2037238" lon="12.1277526"><ele>426.0</ele><time>2026-04-26T15:19:59.849Z</time></trkpt><trkpt lat="46.2035472" lon="12.12763"><ele>426.0</ele><time>2026-04-26T15:20:00.861Z</time></trkpt><trkpt lat="46.2033667" lon="12.1275171"><ele>426.0</ele><time>2026-04-26T15:20:01.84Z</time></trkpt><trkpt lat="46.2031847" lon="12.1274122"><ele>426.0</ele><time>2026-04-26T15:20:02.855Z</time></trkpt><trkpt lat="46.2030014" lon="12.1273159"><ele>425.33333333333337</ele><time>2026-04-26T15:20:03.863Z</time></trkpt><trkpt lat="46.2028194" lon="12.1272223"><ele>424.6666666666667</ele><time>2026-04-26T15:20:04.845Z</time></trkpt><trkpt lat="46.2026375" lon="12.1271338"><ele>424.0</ele><time>2026-04-26T15:20:05.856Z</time></trkpt><trkpt lat="46.2024564" lon="12.1270489"><ele>422.33333333333337</ele><time>2026-04-26T15:20:06.855Z</time></trkpt><trkpt lat="46.2022767" lon="12.1269642"><ele>420.66666666666663</ele><time>2026-04-26T15:20:07.858Z</time></trkpt><trkpt lat="46.2020981" lon="12.1268803"><ele>419.0</ele><time>2026-04-26T15:20:08.874Z</time></trkpt><trkpt lat="46.2019204" lon="12.1267968"><ele>419.0</ele><time>2026-04-26T15:20:09.844Z</time></trkpt><trkpt lat="46.2017431" lon="12.1267115"><ele>419.0</ele><time>2026-04-26T15:20:10.857Z</time></trkpt><trkpt lat="46.2015653" lon="12.1266264"><ele>419.0</ele><time>2026-04-26T15:20:11.849Z</time></trkpt><trkpt lat="46.2013861" lon="12.1265423"><ele>418.66666666666663</ele><time>2026-04-26T15:20:12.854Z</time></trkpt><trkpt lat="46.2012049" lon="12.1264613"><ele>418.33333333333337</ele><time>2026-04-26T15:20:13.846Z</time></trkpt><trkpt lat="46.2010227" lon="12.1263802"><ele>418.0</ele><time>2026-04-26T15:20:14.855Z</time></trkpt><trkpt lat="46.2008403" lon="12.1262973"><ele>417.33333333333337</ele><time>2026-04-26T15:20:15.85Z</time></trkpt><trkpt lat="46.2006586" lon="12.1262117"><ele>416.66666666666663</ele><time>2026-04-26T15:20:16.86Z</time></trkpt><trkpt lat="46.2004798" lon="12.1261255"><ele>416.0</ele><time>2026-04-26T15:20:17.86Z</time></trkpt><trkpt lat="46.2003065" lon="12.1260414"><ele>416.0</ele><time>2026-04-26T15:20:18.86Z</time></trkpt><trkpt lat="46.2001363" lon="12.1259607"><ele>416.0</ele><time>2026-04-26T15:20:19.84Z</time></trkpt><trkpt lat="46.1999673" lon="12.1258823"><ele>416.0</ele><time>2026-04-26T15:20:20.868Z</time></trkpt><trkpt lat="46.1998018" lon="12.1258059"><ele>416.66666666666663</ele><time>2026-04-26T15:20:21.86Z</time></trkpt><trkpt lat="46.1996405" lon="12.1257314"><ele>417.33333333333337</ele><time>2026-04-26T15:20:22.856Z</time></trkpt><trkpt lat="46.1994819" lon="12.1256569"><ele>418.0</ele><time>2026-04-26T15:20:23.856Z</time></trkpt><trkpt lat="46.1993255" lon="12.1255596"><ele>418.0</ele><time>2026-04-26T15:20:24.868Z</time></trkpt><trkpt lat="46.1991604" lon="12.1254978"><ele>418.0</ele><time>2026-04-26T15:20:25.86Z</time></trkpt><trkpt lat="46.1989889" lon="12.1254434"><ele>418.0</ele><time>2026-04-26T15:20:26.865Z</time></trkpt><trkpt lat="46.19881" lon="12.1254045"><ele>418.6666666666667</ele><time>2026-04-26T15:20:27.86Z</time></trkpt><trkpt lat="46.1986239" lon="12.1253805"><ele>419.33333333333337</ele><time>2026-04-26T15:20:28.853Z</time></trkpt><trkpt lat="46.1984346" lon="12.1253583"><ele>420.0</ele><time>2026-04-26T15:20:29.853Z</time></trkpt><trkpt lat="46.1982426" lon="12.1253424"><ele>419.0</ele><time>2026-04-26T15:20:30.859Z</time></trkpt><trkpt lat="46.1980501" lon="12.1253217"><ele>418.0</ele><time>2026-04-26T15:20:31.851Z</time></trkpt><trkpt lat="46.1978568" lon="12.1252996"><ele>417.0</ele><time>2026-04-26T15:20:32.865Z</time></trkpt><trkpt lat="46.1976616" lon="12.1252783"><ele>417.0</ele><time>2026-04-26T15:20:33.858Z</time></trkpt><trkpt lat="46.197465" lon="12.1252659"><ele>417.0</ele><time>2026-04-26T15:20:34.852Z</time></trkpt><trkpt lat="46.1972701" lon="12.1252376"><ele>417.0</ele><time>2026-04-26T15:20:35.842Z</time></trkpt><trkpt lat="46.1970745" lon="12.1252166"><ele>416.66666666666663</ele><time>2026-04-26T15:20:36.859Z</time></trkpt><trkpt lat="46.1968769" lon="12.1252078"><ele>416.3333333333333</ele><time>2026-04-26T15:20:37.857Z</time></trkpt><trkpt lat="46.1966793" lon="12.1251909"><ele>416.0</ele><time>2026-04-26T15:20:38.866Z</time></trkpt><trkpt lat="46.19648" lon="12.1251716"><ele>415.0</ele><time>2026-04-26T15:20:39.888Z</time></trkpt><trkpt lat="46.196277" lon="12.1251513"><ele>414.0</ele><time>2026-04-26T15:20:40.877Z</time></trkpt><trkpt lat="46.1960706" lon="12.1251261"><ele>413.0</ele><time>2026-04-26T15:20:41.856Z</time></trkpt><trkpt lat="46.1958645" lon="12.1250982"><ele>412.3333333333333</ele><time>2026-04-26T15:20:42.864Z</time></trkpt><trkpt lat="46.1956559" lon="12.1250742"><ele>411.66666666666663</ele><time>2026-04-26T15:20:43.845Z</time></trkpt><trkpt lat="46.1954443" lon="12.1250589"><ele>411.0</ele><time>2026-04-26T15:20:44.887Z</time></trkpt><trkpt lat="46.1952346" lon="12.1250325"><ele>411.0</ele><time>2026-04-26T15:20:45.875Z</time></trkpt><trkpt lat="46.1950287" lon="12.1250043"><ele>411.0</ele><time>2026-04-26T15:20:46.867Z</time></trkpt><trkpt lat="46.1948249" lon="12.1249756"><ele>411.0</ele><time>2026-04-26T15:20:47.881Z</time></trkpt><trkpt lat="46.1946233" lon="12.1249456"><ele>410.66666666666663</ele><time>2026-04-26T15:20:48.878Z</time></trkpt><trkpt lat="46.1944236" lon="12.1249237"><ele>410.3333333333333</ele><time>2026-04-26T15:20:49.847Z</time></trkpt><trkpt lat="46.1942242" lon="12.124899"><ele>410.0</ele><time>2026-04-26T15:20:50.861Z</time></trkpt><trkpt lat="46.1940249" lon="12.1248752"><ele>408.3333333333333</ele><time>2026-04-26T15:20:51.855Z</time></trkpt><trkpt lat="46.1938258" lon="12.1248542"><ele>406.66666666666663</ele><time>2026-04-26T15:20:52.862Z</time></trkpt><trkpt lat="46.193627" lon="12.1248419"><ele>405.0</ele><time>2026-04-26T15:20:53.853Z</time></trkpt><trkpt lat="46.193427" lon="12.1248253"><ele>405.0</ele><time>2026-04-26T15:20:54.861Z</time></trkpt><trkpt lat="46.1932238" lon="12.1248281"><ele>405.0</ele><time>2026-04-26T15:20:55.865Z</time></trkpt><trkpt lat="46.193017" lon="12.1248428"><ele>405.0</ele><time>2026-04-26T15:20:56.871Z</time></trkpt><trkpt lat="46.1928093" lon="12.1248731"><ele>406.33333333333337</ele><time>2026-04-26T15:20:57.863Z</time></trkpt><trkpt lat="46.1925996" lon="12.1249263"><ele>407.6666666666667</ele><time>2026-04-26T15:20:58.849Z</time></trkpt><trkpt lat="46.1923888" lon="12.1249822"><ele>409.0</ele><time>2026-04-26T15:20:59.867Z</time></trkpt><trkpt lat="46.1921785" lon="12.1250467"><ele>410.0</ele><time>2026-04-26T15:21:00.86Z</time></trkpt><trkpt lat="46.1919689" lon="12.1251129"><ele>411.0</ele><time>2026-04-26T15:21:01.861Z</time></trkpt><trkpt lat="46.1917608" lon="12.1251766"><ele>412.0</ele><time>2026-04-26T15:21:02.866Z</time></trkpt><trkpt lat="46.1915558" lon="12.1252365"><ele>413.0</ele><time>2026-04-26T15:21:03.855Z</time></trkpt><trkpt lat="46.1913525" lon="12.1252916"><ele>414.0</ele><time>2026-04-26T15:21:04.857Z</time></trkpt><trkpt lat="46.1911489" lon="12.1253371"><ele>415.0</ele><time>2026-04-26T15:21:05.865Z</time></trkpt><trkpt lat="46.1909462" lon="12.1253587"><ele>415.0</ele><time>2026-04-26T15:21:06.861Z</time></trkpt><trkpt lat="46.1907452" lon="12.1253398"><ele>415.0</ele><time>2026-04-26T15:21:07.838Z</time></trkpt><trkpt lat="46.1905495" lon="12.1252965"><ele>415.0</ele><time>2026-04-26T15:21:08.858Z</time></trkpt><trkpt lat="46.1903623" lon="12.1252115"><ele>413.6666666666667</ele><time>2026-04-26T15:21:09.853Z</time></trkpt><trkpt lat="46.1901867" lon="12.1251108"><ele>412.33333333333337</ele><time>2026-04-26T15:21:10.873Z</time></trkpt><trkpt lat="46.1900296" lon="12.1249841"><ele>411.0</ele><time>2026-04-26T15:21:11.85Z</time></trkpt><trkpt lat="46.1898846" lon="12.1248396"><ele>412.0</ele><time>2026-04-26T15:21:12.861Z</time></trkpt><trkpt lat="46.189748" lon="12.1246861"><ele>413.0</ele><time>2026-04-26T15:21:13.867Z</time></trkpt><trkpt lat="46.1896069" lon="12.124539"><ele>414.0</ele><time>2026-04-26T15:21:14.874Z</time></trkpt><trkpt lat="46.1894514" lon="12.1244133"><ele>414.0</ele><time>2026-04-26T15:21:15.863Z</time></trkpt><trkpt lat="46.1892812" lon="12.1243169"><ele>414.0</ele><time>2026-04-26T15:21:16.863Z</time></trkpt><trkpt lat="46.1890982" lon="12.1242559"><ele>414.0</ele><time>2026-04-26T15:21:17.858Z</time></trkpt><trkpt lat="46.1889087" lon="12.1242307"><ele>414.0</ele><time>2026-04-26T15:21:18.87Z</time></trkpt><trkpt lat="46.1887146" lon="12.1242642"><ele>414.0</ele><time>2026-04-26T15:21:19.863Z</time></trkpt><trkpt lat="46.1885217" lon="12.1243291"><ele>414.0</ele><time>2026-04-26T15:21:20.878Z</time></trkpt><trkpt lat="46.188329" lon="12.1244472"><ele>412.66666666666663</ele><time>2026-04-26T15:21:21.858Z</time></trkpt><trkpt lat="46.1881358" lon="12.1245435"><ele>411.3333333333333</ele><time>2026-04-26T15:21:22.857Z</time></trkpt><trkpt lat="46.1879493" lon="12.1246075"><ele>410.0</ele><time>2026-04-26T15:21:23.866Z</time></trkpt><trkpt lat="46.187766" lon="12.1246379"><ele>410.0</ele><time>2026-04-26T15:21:24.882Z</time></trkpt><trkpt lat="46.1875777" lon="12.1246377"><ele>410.0</ele><time>2026-04-26T15:21:25.871Z</time></trkpt><trkpt lat="46.1873909" lon="12.1246224"><ele>410.0</ele><time>2026-04-26T15:21:26.862Z</time></trkpt><trkpt lat="46.1872068" lon="12.1245668"><ele>411.0</ele><time>2026-04-26T15:21:27.87Z</time></trkpt><trkpt lat="46.1870119" lon="12.1244931"><ele>412.0</ele><time>2026-04-26T15:21:28.859Z</time></trkpt><trkpt lat="46.1868118" lon="12.1243761"><ele>413.0</ele><time>2026-04-26T15:21:29.857Z</time></trkpt><trkpt lat="46.1866174" lon="12.124202"><ele>411.5</ele><time>2026-04-26T15:21:30.864Z</time></trkpt><trkpt lat="46.1864214" lon="12.1240278"><ele>410.0</ele><time>2026-04-26T15:21:31.847Z</time></trkpt><trkpt lat="46.1862408" lon="12.1238361"><ele>410.0</ele><time>2026-04-26T15:21:32.849Z</time></trkpt><trkpt lat="46.1860536" lon="12.1236896"><ele>410.0</ele><time>2026-04-26T15:21:33.87Z</time></trkpt><trkpt lat="46.1858602" lon="12.1235634"><ele>410.0</ele><time>2026-04-26T15:21:34.854Z</time></trkpt><trkpt lat="46.1856749" lon="12.1234312"><ele>408.3333333333333</ele><time>2026-04-26T15:21:35.868Z</time></trkpt><trkpt lat="46.1854901" lon="12.1233007"><ele>406.66666666666663</ele><time>2026-04-26T15:21:36.863Z</time></trkpt><trkpt lat="46.1853138" lon="12.1231588"><ele>405.0</ele><time>2026-04-26T15:21:37.852Z</time></trkpt><trkpt lat="46.1851372" lon="12.1230229"><ele>405.0</ele><time>2026-04-26T15:21:38.862Z</time></trkpt><trkpt lat="46.184964" lon="12.1228834"><ele>405.0</ele><time>2026-04-26T15:21:39.886Z</time></trkpt><trkpt lat="46.1847773" lon="12.1227909"><ele>405.0</ele><time>2026-04-26T15:21:40.872Z</time></trkpt><trkpt lat="46.1845797" lon="12.1227239"><ele>411.66666666666663</ele><time>2026-04-26T15:21:41.869Z</time></trkpt><trkpt lat="46.1843824" lon="12.1226457"><ele>418.3333333333333</ele><time>2026-04-26T15:21:42.855Z</time></trkpt><trkpt lat="46.1841921" lon="12.122552"><ele>425.0</ele><time>2026-04-26T15:21:43.862Z</time></trkpt><trkpt lat="46.1839953" lon="12.122453"><ele>421.0</ele><time>2026-04-26T15:21:44.853Z</time></trkpt><trkpt lat="46.183802" lon="12.1223239"><ele>417.0</ele><time>2026-04-26T15:21:45.848Z</time></trkpt><trkpt lat="46.1836293" lon="12.1221441"><ele>413.0</ele><time>2026-04-26T15:21:46.856Z</time></trkpt><trkpt lat="46.1834615" lon="12.1219531"><ele>413.0</ele><time>2026-04-26T15:21:47.852Z</time></trkpt><trkpt lat="46.1832865" lon="12.1217836"><ele>413.0</ele><time>2026-04-26T15:21:48.86Z</time></trkpt><trkpt lat="46.1831105" lon="12.1216225"><ele>413.0</ele><time>2026-04-26T15:21:49.866Z</time></trkpt><trkpt lat="46.1829373" lon="12.1214617"><ele>411.0</ele><time>2026-04-26T15:21:50.866Z</time></trkpt><trkpt lat="46.1827495" lon="12.1213298"><ele>409.0</ele><time>2026-04-26T15:21:51.862Z</time></trkpt><trkpt lat="46.1825561" lon="12.1211969"><ele>407.0</ele><time>2026-04-26T15:21:52.849Z</time></trkpt><trkpt lat="46.1823706" lon="12.1210553"><ele>406.0</ele><time>2026-04-26T15:21:53.856Z</time></trkpt><trkpt lat="46.1821916" lon="12.1209124"><ele>405.0</ele><time>2026-04-26T15:21:54.866Z</time></trkpt><trkpt lat="46.1820164" lon="12.1207617"><ele>404.0</ele><time>2026-04-26T15:21:55.865Z</time></trkpt><trkpt lat="46.1818471" lon="12.1206097"><ele>404.0</ele><time>2026-04-26T15:21:56.86Z</time></trkpt><trkpt lat="46.1816849" lon="12.1204578"><ele>404.0</ele><time>2026-04-26T15:21:57.858Z</time></trkpt><trkpt lat="46.1815223" lon="12.1203119"><ele>404.0</ele><time>2026-04-26T15:21:58.856Z</time></trkpt><trkpt lat="46.1813731" lon="12.1201442"><ele>406.66666666666663</ele><time>2026-04-26T15:21:59.854Z</time></trkpt><trkpt lat="46.1812286" lon="12.1199681"><ele>409.33333333333337</ele><time>2026-04-26T15:22:00.855Z</time></trkpt><trkpt lat="46.1811014" lon="12.1197732"><ele>412.0</ele><time>2026-04-26T15:22:01.861Z</time></trkpt><trkpt lat="46.1810007" lon="12.1195589"><ele>412.0</ele><time>2026-04-26T15:22:02.865Z</time></trkpt><trkpt lat="46.1809102" lon="12.1193468"><ele>412.0</ele><time>2026-04-26T15:22:03.871Z</time></trkpt><trkpt lat="46.1807985" lon="12.119159"><ele>412.0</ele><time>2026-04-26T15:22:04.864Z</time></trkpt><trkpt lat="46.1806746" lon="12.1189872"><ele>412.33333333333337</ele><time>2026-04-26T15:22:05.866Z</time></trkpt><trkpt lat="46.1805538" lon="12.1188119"><ele>412.66666666666663</ele><time>2026-04-26T15:22:06.88Z</time></trkpt><trkpt lat="46.1804187" lon="12.1186547"><ele>413.0</ele><time>2026-04-26T15:22:07.863Z</time></trkpt><trkpt lat="46.1802686" lon="12.1185238"><ele>413.0</ele><time>2026-04-26T15:22:08.876Z</time></trkpt><trkpt lat="46.1801134" lon="12.118418"><ele>413.0</ele><time>2026-04-26T15:22:09.847Z</time></trkpt><trkpt lat="46.1799455" lon="12.1183395"><ele>413.0</ele><time>2026-04-26T15:22:10.858Z</time></trkpt><trkpt lat="46.1797792" lon="12.1182465"><ele>411.66666666666663</ele><time>2026-04-26T15:22:11.861Z</time></trkpt><trkpt lat="46.1796205" lon="12.1181519"><ele>410.33333333333337</ele><time>2026-04-26T15:22:12.853Z</time></trkpt><trkpt lat="46.1794447" lon="12.1180932"><ele>409.0</ele><time>2026-04-26T15:22:13.864Z</time></trkpt><trkpt lat="46.1792726" lon="12.1179889"><ele>409.0</ele><time>2026-04-26T15:22:14.855Z</time></trkpt><trkpt lat="46.1791129" lon="12.1178282"><ele>409.0</ele><time>2026-04-26T15:22:15.85Z</time></trkpt><trkpt lat="46.1789455" lon="12.1177005"><ele>409.0</ele><time>2026-04-26T15:22:16.851Z</time></trkpt><trkpt lat="46.1787714" lon="12.1176009"><ele>407.0</ele><time>2026-04-26T15:22:17.857Z</time></trkpt><trkpt lat="46.1785993" lon="12.1175112"><ele>405.0</ele><time>2026-04-26T15:22:18.846Z</time></trkpt><trkpt lat="46.1784344" lon="12.1174228"><ele>403.0</ele><time>2026-04-26T15:22:19.864Z</time></trkpt><trkpt lat="46.1782727" lon="12.1173483"><ele>404.33333333333337</ele><time>2026-04-26T15:22:20.856Z</time></trkpt><trkpt lat="46.1781097" lon="12.1172833"><ele>405.66666666666663</ele><time>2026-04-26T15:22:21.857Z</time></trkpt><trkpt lat="46.177946" lon="12.1172162"><ele>407.0</ele><time>2026-04-26T15:22:22.858Z</time></trkpt><trkpt lat="46.1777946" lon="12.1171245"><ele>407.0</ele><time>2026-04-26T15:22:23.871Z</time></trkpt><trkpt lat="46.1776456" lon="12.1170339"><ele>407.0</ele><time>2026-04-26T15:22:24.863Z</time></trkpt><trkpt lat="46.177494" lon="12.1169438"><ele>407.0</ele><time>2026-04-26T15:22:25.859Z</time></trkpt><trkpt lat="46.1773459" lon="12.116852"><ele>405.3333333333333</ele><time>2026-04-26T15:22:26.865Z</time></trkpt><trkpt lat="46.1771989" lon="12.1167611"><ele>403.66666666666663</ele><time>2026-04-26T15:22:27.851Z</time></trkpt><trkpt lat="46.1770494" lon="12.1166604"><ele>402.0</ele><time>2026-04-26T15:22:28.857Z</time></trkpt><trkpt lat="46.1768974" lon="12.1165458"><ele>402.0</ele><time>2026-04-26T15:22:29.864Z</time></trkpt><trkpt lat="46.1767501" lon="12.1164146"><ele>402.0</ele><time>2026-04-26T15:22:30.863Z</time></trkpt><trkpt lat="46.1766061" lon="12.1163302"><ele>402.0</ele><time>2026-04-26T15:22:31.859Z</time></trkpt><trkpt lat="46.1764767" lon="12.1162415"><ele>405.66666666666663</ele><time>2026-04-26T15:22:32.855Z</time></trkpt><trkpt lat="46.1763638" lon="12.1161056"><ele>409.3333333333333</ele><time>2026-04-26T15:22:33.855Z</time></trkpt><trkpt lat="46.1762724" lon="12.1159313"><ele>413.0</ele><time>2026-04-26T15:22:34.857Z</time></trkpt><trkpt lat="46.1761865" lon="12.1157338"><ele>413.0</ele><time>2026-04-26T15:22:35.854Z</time></trkpt><trkpt lat="46.1760969" lon="12.1155291"><ele>413.0</ele><time>2026-04-26T15:22:36.865Z</time></trkpt><trkpt lat="46.176026" lon="12.1153138"><ele>413.0</ele><time>2026-04-26T15:22:37.857Z</time></trkpt><trkpt lat="46.1759482" lon="12.1151205"><ele>413.0</ele><time>2026-04-26T15:22:38.858Z</time></trkpt><trkpt lat="46.1758566" lon="12.1149478"><ele>413.0</ele><time>2026-04-26T15:22:39.877Z</time></trkpt><trkpt lat="46.1757395" lon="12.1147896"><ele>413.0</ele><time>2026-04-26T15:22:40.878Z</time></trkpt><trkpt lat="46.1756294" lon="12.1146306"><ele>407.3333333333333</ele><time>2026-04-26T15:22:41.866Z</time></trkpt><trkpt lat="46.175503" lon="12.114504"><ele>401.66666666666663</ele><time>2026-04-26T15:22:42.858Z</time></trkpt><trkpt lat="46.1753593" lon="12.1144113"><ele>396.0</ele><time>2026-04-26T15:22:43.861Z</time></trkpt><trkpt lat="46.175213" lon="12.1143663"><ele>396.0</ele><time>2026-04-26T15:22:44.867Z</time></trkpt><trkpt lat="46.1750637" lon="12.1143414"><ele>396.0</ele><time>2026-04-26T15:22:45.879Z</time></trkpt><trkpt lat="46.1749102" lon="12.1143283"><ele>396.0</ele><time>2026-04-26T15:22:46.867Z</time></trkpt><trkpt lat="46.1747574" lon="12.1143448"><ele>394.33333333333337</ele><time>2026-04-26T15:22:47.871Z</time></trkpt><trkpt lat="46.1746049" lon="12.1144494"><ele>392.6666666666667</ele><time>2026-04-26T15:22:48.86Z</time></trkpt><trkpt lat="46.1744596" lon="12.1145632"><ele>391.0</ele><time>2026-04-26T15:22:49.861Z</time></trkpt><trkpt lat="46.1743177" lon="12.1146804"><ele>391.0</ele><time>2026-04-26T15:22:50.862Z</time></trkpt><trkpt lat="46.1741736" lon="12.1147931"><ele>391.0</ele><time>2026-04-26T15:22:51.855Z</time></trkpt><trkpt lat="46.1740236" lon="12.1149102"><ele>391.0</ele><time>2026-04-26T15:22:52.851Z</time></trkpt><trkpt lat="46.1738698" lon="12.1150303"><ele>392.6666666666667</ele><time>2026-04-26T15:22:53.861Z</time></trkpt><trkpt lat="46.1737145" lon="12.1151579"><ele>394.33333333333337</ele><time>2026-04-26T15:22:54.849Z</time></trkpt><trkpt lat="46.1735551" lon="12.115282"><ele>396.0</ele><time>2026-04-26T15:22:55.86Z</time></trkpt><trkpt lat="46.1733935" lon="12.1154076"><ele>396.0</ele><time>2026-04-26T15:22:56.875Z</time></trkpt><trkpt lat="46.1732332" lon="12.1155324"><ele>396.0</ele><time>2026-04-26T15:22:57.876Z</time></trkpt><trkpt lat="46.1730767" lon="12.115656"><ele>396.0</ele><time>2026-04-26T15:22:58.867Z</time></trkpt><trkpt lat="46.1729226" lon="12.1157801"><ele>396.0</ele><time>2026-04-26T15:22:59.858Z</time></trkpt><trkpt lat="46.1727715" lon="12.115905"><ele>396.0</ele><time>2026-04-26T15:23:00.864Z</time></trkpt><trkpt lat="46.1726294" lon="12.116036"><ele>396.0</ele><time>2026-04-26T15:23:01.867Z</time></trkpt><trkpt lat="46.1724955" lon="12.1161694"><ele>396.0</ele><time>2026-04-26T15:23:02.87Z</time></trkpt><trkpt lat="46.1723725" lon="12.1163118"><ele>396.0</ele><time>2026-04-26T15:23:03.849Z</time></trkpt><trkpt lat="46.1722547" lon="12.1164495"><ele>396.0</ele><time>2026-04-26T15:23:04.861Z</time></trkpt><trkpt lat="46.1721398" lon="12.1165845"><ele>395.75</ele><time>2026-04-26T15:23:05.86Z</time></trkpt><trkpt lat="46.1720272" lon="12.116722"><ele>395.5</ele><time>2026-04-26T15:23:06.875Z</time></trkpt><trkpt lat="46.1719144" lon="12.1168586"><ele>395.25</ele><time>2026-04-26T15:23:07.848Z</time></trkpt><trkpt lat="46.1717994" lon="12.1169927"><ele>395.0</ele><time>2026-04-26T15:23:08.863Z</time></trkpt><trkpt lat="46.1716785" lon="12.1171179"><ele>395.0</ele><time>2026-04-26T15:23:09.846Z</time></trkpt><trkpt lat="46.1715496" lon="12.1172321"><ele>395.0</ele><time>2026-04-26T15:23:10.87Z</time></trkpt><trkpt lat="46.1714107" lon="12.117337"><ele>395.0</ele><time>2026-04-26T15:23:11.86Z</time></trkpt><trkpt lat="46.171271" lon="12.1174448"><ele>394.3333333333333</ele><time>2026-04-26T15:23:12.855Z</time></trkpt><trkpt lat="46.1711272" lon="12.1175416"><ele>393.66666666666663</ele><time>2026-04-26T15:23:13.855Z</time></trkpt><trkpt lat="46.1709802" lon="12.1176231"><ele>393.0</ele><time>2026-04-26T15:23:14.873Z</time></trkpt><trkpt lat="46.1708341" lon="12.1176947"><ele>391.33333333333337</ele><time>2026-04-26T15:23:15.854Z</time></trkpt><trkpt lat="46.1706884" lon="12.1177674"><ele>389.6666666666667</ele><time>2026-04-26T15:23:16.862Z</time></trkpt><trkpt lat="46.1705534" lon="12.1178866"><ele>388.0</ele><time>2026-04-26T15:23:17.861Z</time></trkpt><trkpt lat="46.1704127" lon="12.1179887"><ele>388.0</ele><time>2026-04-26T15:23:18.858Z</time></trkpt><trkpt lat="46.1702665" lon="12.118089"><ele>388.0</ele><time>2026-04-26T15:23:19.867Z</time></trkpt><trkpt lat="46.1701419" lon="12.1181657"><ele>388.0</ele><time>2026-04-26T15:23:20.856Z</time></trkpt><trkpt lat="46.169976" lon="12.1182776"><ele>388.6666666666667</ele><time>2026-04-26T15:23:21.86Z</time></trkpt><trkpt lat="46.1698215" lon="12.1183816"><ele>389.33333333333337</ele><time>2026-04-26T15:23:22.875Z</time></trkpt><trkpt lat="46.1696747" lon="12.1184808"><ele>390.0</ele><time>2026-04-26T15:23:23.869Z</time></trkpt><trkpt lat="46.1695321" lon="12.1185757"><ele>390.0</ele><time>2026-04-26T15:23:24.866Z</time></trkpt><trkpt lat="46.1693902" lon="12.1186708"><ele>390.0</ele><time>2026-04-26T15:23:25.857Z</time></trkpt><trkpt lat="46.1692471" lon="12.118769"><ele>390.0</ele><time>2026-04-26T15:23:26.862Z</time></trkpt><trkpt lat="46.1691109" lon="12.1188665"><ele>389.33333333333337</ele><time>2026-04-26T15:23:27.854Z</time></trkpt><trkpt lat="46.1689731" lon="12.1189682"><ele>388.6666666666667</ele><time>2026-04-26T15:23:28.849Z</time></trkpt><trkpt lat="46.168833" lon="12.119067"><ele>388.0</ele><time>2026-04-26T15:23:29.862Z</time></trkpt><trkpt lat="46.1686901" lon="12.1191666"><ele>387.6666666666667</ele><time>2026-04-26T15:23:30.874Z</time></trkpt><trkpt lat="46.1685485" lon="12.1192646"><ele>387.33333333333337</ele><time>2026-04-26T15:23:31.86Z</time></trkpt><trkpt lat="46.1684045" lon="12.1193639"><ele>387.0</ele><time>2026-04-26T15:23:32.863Z</time></trkpt><trkpt lat="46.1682622" lon="12.1194603"><ele>385.6666666666667</ele><time>2026-04-26T15:23:33.863Z</time></trkpt><trkpt lat="46.1681214" lon="12.119554"><ele>384.33333333333337</ele><time>2026-04-26T15:23:34.85Z</time></trkpt><trkpt lat="46.167982" lon="12.1196422"><ele>383.0</ele><time>2026-04-26T15:23:35.857Z</time></trkpt><trkpt lat="46.1678438" lon="12.1197166"><ele>383.0</ele><time>2026-04-26T15:23:36.882Z</time></trkpt><trkpt lat="46.1677066" lon="12.1197691"><ele>383.0</ele><time>2026-04-26T15:23:37.855Z</time></trkpt><trkpt lat="46.1675605" lon="12.1198075"><ele>383.0</ele><time>2026-04-26T15:23:38.863Z</time></trkpt><trkpt lat="46.1674113" lon="12.1198338"><ele>383.0</ele><time>2026-04-26T15:23:39.881Z</time></trkpt><trkpt lat="46.1672648" lon="12.1198567"><ele>383.5</ele><time>2026-04-26T15:23:40.87Z</time></trkpt><trkpt lat="46.1671181" lon="12.1198806"><ele>384.0</ele><time>2026-04-26T15:23:41.878Z</time></trkpt><trkpt lat="46.1669766" lon="12.1199054"><ele>384.5</ele><time>2026-04-26T15:23:42.851Z</time></trkpt><trkpt lat="46.1668355" lon="12.1199297"><ele>385.0</ele><time>2026-04-26T15:23:43.858Z</time></trkpt><trkpt lat="46.1666968" lon="12.1199525"><ele>385.75</ele><time>2026-04-26T15:23:44.862Z</time></trkpt><trkpt lat="46.1665646" lon="12.1199722"><ele>386.5</ele><time>2026-04-26T15:23:45.866Z</time></trkpt><trkpt lat="46.1664367" lon="12.1199938"><ele>387.25</ele><time>2026-04-26T15:23:46.871Z</time></trkpt><trkpt lat="46.1663125" lon="12.120019"><ele>388.0</ele><time>2026-04-26T15:23:47.855Z</time></trkpt><trkpt lat="46.1661862" lon="12.1200467"><ele>388.0</ele><time>2026-04-26T15:23:48.86Z</time></trkpt><trkpt lat="46.1660718" lon="12.1200908"><ele>388.0</ele><time>2026-04-26T15:23:49.866Z</time></trkpt><trkpt lat="46.1659583" lon="12.1201502"><ele>388.0</ele><time>2026-04-26T15:23:50.871Z</time></trkpt><trkpt lat="46.1658478" lon="12.1202326"><ele>388.0</ele><time>2026-04-26T15:23:51.884Z</time></trkpt><trkpt lat="46.1657407" lon="12.1203317"><ele>387.75</ele><time>2026-04-26T15:23:52.857Z</time></trkpt><trkpt lat="46.1656346" lon="12.1204455"><ele>387.5</ele><time>2026-04-26T15:23:53.86Z</time></trkpt><trkpt lat="46.1655338" lon="12.1205695"><ele>387.25</ele><time>2026-04-26T15:23:54.862Z</time></trkpt><trkpt lat="46.1654416" lon="12.1207056"><ele>387.0</ele><time>2026-04-26T15:23:55.848Z</time></trkpt><trkpt lat="46.1653618" lon="12.1208621"><ele>387.0</ele><time>2026-04-26T15:23:56.856Z</time></trkpt><trkpt lat="46.1652967" lon="12.1210352"><ele>387.0</ele><time>2026-04-26T15:23:57.861Z</time></trkpt><trkpt lat="46.1652478" lon="12.1212206"><ele>387.0</ele><time>2026-04-26T15:23:58.867Z</time></trkpt><trkpt lat="46.1652315" lon="12.1213732"><ele>387.0</ele><time>2026-04-26T15:23:59.857Z</time></trkpt><trkpt lat="46.1652303" lon="12.1216252"><ele>387.0</ele><time>2026-04-26T15:24:00.852Z</time></trkpt><trkpt lat="46.165236" lon="12.1218609"><ele>387.0</ele><time>2026-04-26T15:24:01.871Z</time></trkpt><trkpt lat="46.1652408" lon="12.1220875"><ele>387.0</ele><time>2026-04-26T15:24:02.874Z</time></trkpt><trkpt lat="46.1652443" lon="12.1222954"><ele>386.25</ele><time>2026-04-26T15:24:03.843Z</time></trkpt><trkpt lat="46.1652393" lon="12.1224998"><ele>385.5</ele><time>2026-04-26T15:24:04.878Z</time></trkpt><trkpt lat="46.1652265" lon="12.1226721"><ele>384.75</ele><time>2026-04-26T15:24:05.858Z</time></trkpt><trkpt lat="46.1652003" lon="12.12283"><ele>384.0</ele><time>2026-04-26T15:24:06.863Z</time></trkpt><trkpt lat="46.1651616" lon="12.122955"><ele>384.0</ele><time>2026-04-26T15:24:07.855Z</time></trkpt><trkpt lat="46.1651348" lon="12.1231023"><ele>384.0</ele><time>2026-04-26T15:24:08.859Z</time></trkpt><trkpt lat="46.1650876" lon="12.1232358"><ele>384.0</ele><time>2026-04-26T15:24:09.85Z</time></trkpt><trkpt lat="46.1650215" lon="12.1233574"><ele>384.0</ele><time>2026-04-26T15:24:10.853Z</time></trkpt><trkpt lat="46.1649441" lon="12.1234709"><ele>384.0</ele><time>2026-04-26T15:24:11.86Z</time></trkpt><trkpt lat="46.1648665" lon="12.123576"><ele>383.79999999999995</ele><time>2026-04-26T15:24:12.861Z</time></trkpt><trkpt lat="46.1647903" lon="12.1236741"><ele>383.59999999999997</ele><time>2026-04-26T15:24:13.862Z</time></trkpt><trkpt lat="46.164716" lon="12.123771"><ele>383.4</ele><time>2026-04-26T15:24:14.852Z</time></trkpt><trkpt lat="46.1646387" lon="12.123874"><ele>383.2</ele><time>2026-04-26T15:24:15.863Z</time></trkpt><trkpt lat="46.164561" lon="12.1239772"><ele>383.0</ele><time>2026-04-26T15:24:16.864Z</time></trkpt><trkpt lat="46.1644826" lon="12.1240858"><ele>383.0</ele><time>2026-04-26T15:24:17.867Z</time></trkpt><trkpt lat="46.1644025" lon="12.1241985"><ele>383.0</ele><time>2026-04-26T15:24:18.85Z</time></trkpt><trkpt lat="46.1643182" lon="12.1243114"><ele>383.0</ele><time>2026-04-26T15:24:19.863Z</time></trkpt><trkpt lat="46.164232" lon="12.1244242"><ele>383.0</ele><time>2026-04-26T15:24:20.865Z</time></trkpt><trkpt lat="46.1641461" lon="12.1245397"><ele>383.0</ele><time>2026-04-26T15:24:21.858Z</time></trkpt><trkpt lat="46.1640581" lon="12.1246622"><ele>383.0</ele><time>2026-04-26T15:24:22.856Z</time></trkpt><trkpt lat="46.1639767" lon="12.1247885"><ele>383.0</ele><time>2026-04-26T15:24:23.873Z</time></trkpt><trkpt lat="46.1638865" lon="12.1249129"><ele>383.0</ele><time>2026-04-26T15:24:24.858Z</time></trkpt><trkpt lat="46.1637957" lon="12.1250419"><ele>382.75</ele><time>2026-04-26T15:24:25.86Z</time></trkpt><trkpt lat="46.1637012" lon="12.1251737"><ele>382.5</ele><time>2026-04-26T15:24:26.857Z</time></trkpt><trkpt lat="46.1636048" lon="12.1253049"><ele>382.25</ele><time>2026-04-26T15:24:27.85Z</time></trkpt><trkpt lat="46.1635052" lon="12.1254371"><ele>382.0</ele><time>2026-04-26T15:24:28.845Z</time></trkpt><trkpt lat="46.1634045" lon="12.1255683"><ele>382.0</ele><time>2026-04-26T15:24:29.85Z</time></trkpt><trkpt lat="46.1633081" lon="12.1256951"><ele>382.0</ele><time>2026-04-26T15:24:30.852Z</time></trkpt><trkpt lat="46.1632131" lon="12.1258195"><ele>382.0</ele><time>2026-04-26T15:24:31.858Z</time></trkpt><trkpt lat="46.1631244" lon="12.1259434"><ele>382.0</ele><time>2026-04-26T15:24:32.845Z</time></trkpt><trkpt lat="46.1630327" lon="12.1260626"><ele>381.75</ele><time>2026-04-26T15:24:33.856Z</time></trkpt><trkpt lat="46.162937" lon="12.1261851"><ele>381.5</ele><time>2026-04-26T15:24:34.857Z</time></trkpt><trkpt lat="46.1628366" lon="12.126312"><ele>381.25</ele><time>2026-04-26T15:24:35.853Z</time></trkpt><trkpt lat="46.1627334" lon="12.1264441"><ele>381.0</ele><time>2026-04-26T15:24:36.854Z</time></trkpt><trkpt lat="46.1626303" lon="12.126579"><ele>381.0</ele><time>2026-04-26T15:24:37.857Z</time></trkpt><trkpt lat="46.1625287" lon="12.1267069"><ele>381.0</ele><time>2026-04-26T15:24:38.862Z</time></trkpt><trkpt lat="46.1624286" lon="12.126833"><ele>381.0</ele><time>2026-04-26T15:24:39.859Z</time></trkpt><trkpt lat="46.162329" lon="12.1269549"><ele>381.0</ele><time>2026-04-26T15:24:40.852Z</time></trkpt><trkpt lat="46.1622281" lon="12.1270773"><ele>381.0</ele><time>2026-04-26T15:24:41.847Z</time></trkpt><trkpt lat="46.1621282" lon="12.1272016"><ele>381.0</ele><time>2026-04-26T15:24:42.856Z</time></trkpt><trkpt lat="46.1620287" lon="12.1273248"><ele>381.0</ele><time>2026-04-26T15:24:43.855Z</time></trkpt><trkpt lat="46.1619279" lon="12.1274529"><ele>381.0</ele><time>2026-04-26T15:24:44.859Z</time></trkpt><trkpt lat="46.1618266" lon="12.1275814"><ele>381.0</ele><time>2026-04-26T15:24:45.852Z</time></trkpt><trkpt lat="46.1617228" lon="12.127711"><ele>381.0</ele><time>2026-04-26T15:24:46.846Z</time></trkpt><trkpt lat="46.1616184" lon="12.1278405"><ele>381.0</ele><time>2026-04-26T15:24:47.85Z</time></trkpt><trkpt lat="46.1615107" lon="12.1279669"><ele>381.0</ele><time>2026-04-26T15:24:48.853Z</time></trkpt><trkpt lat="46.1613961" lon="12.128082"><ele>381.0</ele><time>2026-04-26T15:24:49.86Z</time></trkpt><trkpt lat="46.1612715" lon="12.128175"><ele>381.0</ele><time>2026-04-26T15:24:50.865Z</time></trkpt><trkpt lat="46.1611356" lon="12.1282474"><ele>381.0</ele><time>2026-04-26T15:24:51.857Z</time></trkpt><trkpt lat="46.1609959" lon="12.1283018"><ele>381.0</ele><time>2026-04-26T15:24:52.857Z</time></trkpt><trkpt lat="46.1608589" lon="12.1283493"><ele>381.25</ele><time>2026-04-26T15:24:53.861Z</time></trkpt><trkpt lat="46.1607244" lon="12.128397"><ele>381.5</ele><time>2026-04-26T15:24:54.853Z</time></trkpt><trkpt lat="46.1605897" lon="12.1284457"><ele>381.75</ele><time>2026-04-26T15:24:55.851Z</time></trkpt><trkpt lat="46.1604564" lon="12.1284958"><ele>382.0</ele><time>2026-04-26T15:24:56.864Z</time></trkpt><trkpt lat="46.1603224" lon="12.1285491"><ele>381.5</ele><time>2026-04-26T15:24:57.855Z</time></trkpt><trkpt lat="46.1601836" lon="12.1286028"><ele>381.0</ele><time>2026-04-26T15:24:58.853Z</time></trkpt><trkpt lat="46.1600369" lon="12.1286593"><ele>380.5</ele><time>2026-04-26T15:24:59.867Z</time></trkpt><trkpt lat="46.159889" lon="12.1287142"><ele>380.0</ele><time>2026-04-26T15:25:00.861Z</time></trkpt><trkpt lat="46.1597411" lon="12.1287729"><ele>379.33333333333337</ele><time>2026-04-26T15:25:01.864Z</time></trkpt><trkpt lat="46.159597" lon="12.1288305"><ele>378.6666666666667</ele><time>2026-04-26T15:25:02.86Z</time></trkpt><trkpt lat="46.1594489" lon="12.128881"><ele>378.0</ele><time>2026-04-26T15:25:03.871Z</time></trkpt><trkpt lat="46.1593" lon="12.12891"><ele>378.0</ele><time>2026-04-26T15:25:04.855Z</time></trkpt><trkpt lat="46.1591444" lon="12.1289125"><ele>378.0</ele><time>2026-04-26T15:25:05.86Z</time></trkpt><trkpt lat="46.1589937" lon="12.1288896"><ele>378.0</ele><time>2026-04-26T15:25:06.867Z</time></trkpt><trkpt lat="46.1588497" lon="12.1288432"><ele>379.0</ele><time>2026-04-26T15:25:07.852Z</time></trkpt><trkpt lat="46.1587088" lon="12.1287755"><ele>380.0</ele><time>2026-04-26T15:25:08.865Z</time></trkpt><trkpt lat="46.1585762" lon="12.1286957"><ele>381.0</ele><time>2026-04-26T15:25:09.864Z</time></trkpt><trkpt lat="46.1584535" lon="12.1286175"><ele>382.0</ele><time>2026-04-26T15:25:10.849Z</time></trkpt><trkpt lat="46.1583338" lon="12.1285413"><ele>382.0</ele><time>2026-04-26T15:25:11.857Z</time></trkpt><trkpt lat="46.1582181" lon="12.1284667"><ele>382.0</ele><time>2026-04-26T15:25:12.87Z</time></trkpt><trkpt lat="46.158106" lon="12.1283932"><ele>382.0</ele><time>2026-04-26T15:25:13.866Z</time></trkpt><trkpt lat="46.1579928" lon="12.1283144"><ele>382.0</ele><time>2026-04-26T15:25:14.867Z</time></trkpt><trkpt lat="46.1578863" lon="12.1282246"><ele>383.5</ele><time>2026-04-26T15:25:15.86Z</time></trkpt><trkpt lat="46.1577799" lon="12.1281164"><ele>385.0</ele><time>2026-04-26T15:25:16.861Z</time></trkpt><trkpt lat="46.157677" lon="12.1279888"><ele>386.5</ele><time>2026-04-26T15:25:17.872Z</time></trkpt><trkpt lat="46.1575857" lon="12.1278485"><ele>388.0</ele><time>2026-04-26T15:25:18.855Z</time></trkpt><trkpt lat="46.1575037" lon="12.1276835"><ele>388.0</ele><time>2026-04-26T15:25:19.858Z</time></trkpt><trkpt lat="46.1574297" lon="12.127502"><ele>388.0</ele><time>2026-04-26T15:25:20.862Z</time></trkpt><trkpt lat="46.1573557" lon="12.127323"><ele>388.0</ele><time>2026-04-26T15:25:21.862Z</time></trkpt><trkpt lat="46.15728" lon="12.1271455"><ele>388.0</ele><time>2026-04-26T15:25:22.86Z</time></trkpt><trkpt lat="46.1572074" lon="12.1269758"><ele>389.5</ele><time>2026-04-26T15:25:23.855Z</time></trkpt><trkpt lat="46.1571351" lon="12.1268125"><ele>391.0</ele><time>2026-04-26T15:25:24.855Z</time></trkpt><trkpt lat="46.1570686" lon="12.1266472"><ele>392.5</ele><time>2026-04-26T15:25:25.859Z</time></trkpt><trkpt lat="46.156998" lon="12.1264894"><ele>394.0</ele><time>2026-04-26T15:25:26.858Z</time></trkpt><trkpt lat="46.1569162" lon="12.1263491"><ele>390.0</ele><time>2026-04-26T15:25:27.859Z</time></trkpt><trkpt lat="46.1568185" lon="12.1262234"><ele>386.0</ele><time>2026-04-26T15:25:28.852Z</time></trkpt><trkpt lat="46.156707" lon="12.1261076"><ele>382.0</ele><time>2026-04-26T15:25:29.865Z</time></trkpt><trkpt lat="46.1566009" lon="12.1260319"><ele>378.0</ele><time>2026-04-26T15:25:30.853Z</time></trkpt><trkpt lat="46.156507" lon="12.1260025"><ele>378.0</ele><time>2026-04-26T15:25:31.861Z</time></trkpt><trkpt lat="46.1563644" lon="12.1259951"><ele>378.0</ele><time>2026-04-26T15:25:32.856Z</time></trkpt><trkpt lat="46.1562221" lon="12.1260058"><ele>378.0</ele><time>2026-04-26T15:25:33.856Z</time></trkpt><trkpt lat="46.1560648" lon="12.1260186"><ele>378.0</ele><time>2026-04-26T15:25:34.849Z</time></trkpt><trkpt lat="46.1559064" lon="12.1260313"><ele>378.0</ele><time>2026-04-26T15:25:35.867Z</time></trkpt><trkpt lat="46.155768" lon="12.1260491"><ele>378.0</ele><time>2026-04-26T15:25:36.86Z</time></trkpt><trkpt lat="46.1556204" lon="12.1260567"><ele>378.0</ele><time>2026-04-26T15:25:37.851Z</time></trkpt><trkpt lat="46.1554865" lon="12.1260315"><ele>378.0</ele><time>2026-04-26T15:25:38.87Z</time></trkpt><trkpt lat="46.1553404" lon="12.1259845"><ele>377.25</ele><time>2026-04-26T15:25:39.871Z</time></trkpt><trkpt lat="46.155205" lon="12.1259199"><ele>376.5</ele><time>2026-04-26T15:25:40.851Z</time></trkpt><trkpt lat="46.1550713" lon="12.1258377"><ele>375.75</ele><time>2026-04-26T15:25:41.854Z</time></trkpt><trkpt lat="46.1549435" lon="12.1257551"><ele>375.0</ele><time>2026-04-26T15:25:42.867Z</time></trkpt><trkpt lat="46.1548206" lon="12.1256846"><ele>375.0</ele><time>2026-04-26T15:25:43.875Z</time></trkpt><trkpt lat="46.1546961" lon="12.1256273"><ele>375.0</ele><time>2026-04-26T15:25:44.867Z</time></trkpt><trkpt lat="46.1545606" lon="12.1255942"><ele>375.0</ele><time>2026-04-26T15:25:45.856Z</time></trkpt><trkpt lat="46.1544415" lon="12.1256018"><ele>375.0</ele><time>2026-04-26T15:25:46.875Z</time></trkpt><trkpt lat="46.1543756" lon="12.1256138"><ele>375.0</ele><time>2026-04-26T15:25:47.861Z</time></trkpt><trkpt lat="46.1542126" lon="12.125626"><ele>375.0</ele><time>2026-04-26T15:25:48.86Z</time></trkpt><trkpt lat="46.1541186" lon="12.1257304"><ele>375.0</ele><time>2026-04-26T15:25:49.867Z</time></trkpt><trkpt lat="46.1540203" lon="12.1258258"><ele>375.0</ele><time>2026-04-26T15:25:50.861Z</time></trkpt><trkpt lat="46.1539126" lon="12.1259145"><ele>375.0</ele><time>2026-04-26T15:25:51.865Z</time></trkpt><trkpt lat="46.153803" lon="12.1259992"><ele>375.0</ele><time>2026-04-26T15:25:52.857Z</time></trkpt><trkpt lat="46.1536464" lon="12.1260813"><ele>375.0</ele><time>2026-04-26T15:25:53.87Z</time></trkpt><trkpt lat="46.1535498" lon="12.126133"><ele>375.0</ele><time>2026-04-26T15:25:54.852Z</time></trkpt><trkpt lat="46.1534613" lon="12.1261896"><ele>375.0</ele><time>2026-04-26T15:25:55.854Z</time></trkpt><trkpt lat="46.153372" lon="12.1262512"><ele>375.0</ele><time>2026-04-26T15:25:56.852Z</time></trkpt><trkpt lat="46.1532866" lon="12.1263142"><ele>375.0</ele><time>2026-04-26T15:25:57.856Z</time></trkpt><trkpt lat="46.1531965" lon="12.1263819"><ele>375.0</ele><time>2026-04-26T15:25:58.853Z</time></trkpt><trkpt lat="46.1531079" lon="12.1264485"><ele>375.0</ele><time>2026-04-26T15:25:59.858Z</time></trkpt><trkpt lat="46.1530184" lon="12.1265154"><ele>375.2</ele><time>2026-04-26T15:26:00.862Z</time></trkpt><trkpt lat="46.1529229" lon="12.1266071"><ele>375.4</ele><time>2026-04-26T15:26:01.872Z</time></trkpt><trkpt lat="46.1528325" lon="12.1266931"><ele>375.6</ele><time>2026-04-26T15:26:02.855Z</time></trkpt><trkpt lat="46.1527402" lon="12.1267802"><ele>375.8</ele><time>2026-04-26T15:26:03.865Z</time></trkpt><trkpt lat="46.1526438" lon="12.1268638"><ele>376.0</ele><time>2026-04-26T15:26:04.851Z</time></trkpt><trkpt lat="46.1525415" lon="12.1269525"><ele>376.0</ele><time>2026-04-26T15:26:05.857Z</time></trkpt><trkpt lat="46.1524383" lon="12.127043"><ele>376.0</ele><time>2026-04-26T15:26:06.855Z</time></trkpt><trkpt lat="46.1523379" lon="12.1271316"><ele>376.0</ele><time>2026-04-26T15:26:07.845Z</time></trkpt><trkpt lat="46.1522361" lon="12.1272144"><ele>376.0</ele><time>2026-04-26T15:26:08.864Z</time></trkpt><trkpt lat="46.1521321" lon="12.1272958"><ele>375.5</ele><time>2026-04-26T15:26:09.864Z</time></trkpt><trkpt lat="46.1520242" lon="12.1273786"><ele>375.0</ele><time>2026-04-26T15:26:10.844Z</time></trkpt><trkpt lat="46.1519149" lon="12.1274661"><ele>374.5</ele><time>2026-04-26T15:26:11.863Z</time></trkpt><trkpt lat="46.1518088" lon="12.1275543"><ele>374.0</ele><time>2026-04-26T15:26:12.863Z</time></trkpt><trkpt lat="46.151708" lon="12.1276359"><ele>374.0</ele><time>2026-04-26T15:26:13.854Z</time></trkpt><trkpt lat="46.1516083" lon="12.1277156"><ele>374.0</ele><time>2026-04-26T15:26:14.868Z</time></trkpt><trkpt lat="46.1515113" lon="12.1277907"><ele>374.0</ele><time>2026-04-26T15:26:15.851Z</time></trkpt><trkpt lat="46.1514125" lon="12.1278703"><ele>374.0</ele><time>2026-04-26T15:26:16.857Z</time></trkpt><trkpt lat="46.1513134" lon="12.1279494"><ele>374.0</ele><time>2026-04-26T15:26:17.862Z</time></trkpt><trkpt lat="46.1512112" lon="12.1280286"><ele>374.0</ele><time>2026-04-26T15:26:18.856Z</time></trkpt><trkpt lat="46.1511049" lon="12.1281153"><ele>374.0</ele><time>2026-04-26T15:26:19.863Z</time></trkpt><trkpt lat="46.1509935" lon="12.128205"><ele>374.0</ele><time>2026-04-26T15:26:20.866Z</time></trkpt><trkpt lat="46.1508798" lon="12.128289"><ele>374.25</ele><time>2026-04-26T15:26:21.854Z</time></trkpt><trkpt lat="46.1507597" lon="12.1283757"><ele>374.5</ele><time>2026-04-26T15:26:22.862Z</time></trkpt><trkpt lat="46.1506352" lon="12.1284622"><ele>374.75</ele><time>2026-04-26T15:26:23.854Z</time></trkpt><trkpt lat="46.1504975" lon="12.1285354"><ele>375.0</ele><time>2026-04-26T15:26:24.852Z</time></trkpt><trkpt lat="46.150349" lon="12.1286109"><ele>374.3333333333333</ele><time>2026-04-26T15:26:25.86Z</time></trkpt><trkpt lat="46.1502" lon="12.1286865"><ele>373.66666666666663</ele><time>2026-04-26T15:26:26.856Z</time></trkpt><trkpt lat="46.1500511" lon="12.1287554"><ele>373.0</ele><time>2026-04-26T15:26:27.855Z</time></trkpt><trkpt lat="46.1499019" lon="12.1288212"><ele>373.0</ele><time>2026-04-26T15:26:28.851Z</time></trkpt><trkpt lat="46.1497497" lon="12.1288939"><ele>373.0</ele><time>2026-04-26T15:26:29.856Z</time></trkpt><trkpt lat="46.1495906" lon="12.1289761"><ele>373.0</ele><time>2026-04-26T15:26:30.844Z</time></trkpt><trkpt lat="46.149412" lon="12.1290605"><ele>372.66666666666663</ele><time>2026-04-26T15:26:31.857Z</time></trkpt><trkpt lat="46.1492142" lon="12.1291518"><ele>372.3333333333333</ele><time>2026-04-26T15:26:32.847Z</time></trkpt><trkpt lat="46.1490004" lon="12.1292454"><ele>372.0</ele><time>2026-04-26T15:26:33.865Z</time></trkpt><trkpt lat="46.1487928" lon="12.1293292"><ele>372.0</ele><time>2026-04-26T15:26:34.854Z</time></trkpt><trkpt lat="46.1485942" lon="12.1294137"><ele>372.0</ele><time>2026-04-26T15:26:35.857Z</time></trkpt><trkpt lat="46.1484061" lon="12.1294973"><ele>372.0</ele><time>2026-04-26T15:26:36.876Z</time></trkpt><trkpt lat="46.1482291" lon="12.129581"><ele>372.6666666666667</ele><time>2026-04-26T15:26:37.861Z</time></trkpt><trkpt lat="46.1480626" lon="12.1296579"><ele>373.33333333333337</ele><time>2026-04-26T15:26:38.868Z</time></trkpt><trkpt lat="46.14791" lon="12.1297243"><ele>374.0</ele><time>2026-04-26T15:26:39.875Z</time></trkpt><trkpt lat="46.1477723" lon="12.1297756"><ele>374.0</ele><time>2026-04-26T15:26:40.864Z</time></trkpt><trkpt lat="46.1476373" lon="12.1298259"><ele>374.0</ele><time>2026-04-26T15:26:41.868Z</time></trkpt><trkpt lat="46.1475127" lon="12.1298474"><ele>374.0</ele><time>2026-04-26T15:26:42.849Z</time></trkpt><trkpt lat="46.1473993" lon="12.1298615"><ele>374.0</ele><time>2026-04-26T15:26:43.857Z</time></trkpt><trkpt lat="46.1472965" lon="12.1298595"><ele>374.2</ele><time>2026-04-26T15:26:44.848Z</time></trkpt><trkpt lat="46.1471985" lon="12.1298541"><ele>374.4</ele><time>2026-04-26T15:26:45.852Z</time></trkpt><trkpt lat="46.1471065" lon="12.1298798"><ele>374.6</ele><time>2026-04-26T15:26:46.85Z</time></trkpt><trkpt lat="46.1470281" lon="12.1299538"><ele>374.8</ele><time>2026-04-26T15:26:47.842Z</time></trkpt><trkpt lat="46.1469638" lon="12.1300477"><ele>375.0</ele><time>2026-04-26T15:26:48.875Z</time></trkpt><trkpt lat="46.1469048" lon="12.1301731"><ele>375.75</ele><time>2026-04-26T15:26:49.868Z</time></trkpt><trkpt lat="46.1468403" lon="12.130304"><ele>376.5</ele><time>2026-04-26T15:26:50.845Z</time></trkpt><trkpt lat="46.1467232" lon="12.1303738"><ele>377.25</ele><time>2026-04-26T15:26:51.843Z</time></trkpt><trkpt lat="46.1465837" lon="12.1304274"><ele>378.0</ele><time>2026-04-26T15:26:52.853Z</time></trkpt><trkpt lat="46.1464328" lon="12.130471"><ele>378.0</ele><time>2026-04-26T15:26:53.855Z</time></trkpt><trkpt lat="46.1462877" lon="12.1305235"><ele>378.0</ele><time>2026-04-26T15:26:54.854Z</time></trkpt><trkpt lat="46.1461436" lon="12.130583"><ele>378.0</ele><time>2026-04-26T15:26:55.874Z</time></trkpt><trkpt lat="46.1460012" lon="12.1306592"><ele>378.3333333333333</ele><time>2026-04-26T15:26:56.85Z</time></trkpt><trkpt lat="46.1458592" lon="12.1307399"><ele>378.66666666666663</ele><time>2026-04-26T15:26:57.861Z</time></trkpt><trkpt lat="46.1457202" lon="12.1308276"><ele>379.0</ele><time>2026-04-26T15:26:58.867Z</time></trkpt><trkpt lat="46.1455826" lon="12.1309159"><ele>379.0</ele><time>2026-04-26T15:26:59.85Z</time></trkpt><trkpt lat="46.1454458" lon="12.1310057"><ele>379.0</ele><time>2026-04-26T15:27:00.85Z</time></trkpt><trkpt lat="46.1453094" lon="12.1310943"><ele>379.0</ele><time>2026-04-26T15:27:01.868Z</time></trkpt><trkpt lat="46.1451731" lon="12.131184"><ele>379.0</ele><time>2026-04-26T15:27:02.85Z</time></trkpt><trkpt lat="46.1450356" lon="12.1312733"><ele>379.0</ele><time>2026-04-26T15:27:03.859Z</time></trkpt><trkpt lat="46.1448967" lon="12.1313609"><ele>379.0</ele><time>2026-04-26T15:27:04.865Z</time></trkpt><trkpt lat="46.1447572" lon="12.1314499"><ele>379.3333333333333</ele><time>2026-04-26T15:27:05.871Z</time></trkpt><trkpt lat="46.1446192" lon="12.1315434"><ele>379.6666666666667</ele><time>2026-04-26T15:27:06.849Z</time></trkpt><trkpt lat="46.1444818" lon="12.1316375"><ele>380.0</ele><time>2026-04-26T15:27:07.853Z</time></trkpt><trkpt lat="46.1443437" lon="12.1317258"><ele>380.0</ele><time>2026-04-26T15:27:08.86Z</time></trkpt><trkpt lat="46.1442095" lon="12.1318118"><ele>380.0</ele><time>2026-04-26T15:27:09.863Z</time></trkpt><trkpt lat="46.1440787" lon="12.1318935"><ele>380.0</ele><time>2026-04-26T15:27:10.863Z</time></trkpt><trkpt lat="46.1439555" lon="12.131985"><ele>380.0</ele><time>2026-04-26T15:27:11.855Z</time></trkpt><trkpt lat="46.1438338" lon="12.1320704"><ele>380.5</ele><time>2026-04-26T15:27:12.856Z</time></trkpt><trkpt lat="46.1437134" lon="12.1321518"><ele>381.0</ele><time>2026-04-26T15:27:13.851Z</time></trkpt><trkpt lat="46.1435977" lon="12.1322459"><ele>381.5</ele><time>2026-04-26T15:27:14.856Z</time></trkpt><trkpt lat="46.1434866" lon="12.1323591"><ele>382.0</ele><time>2026-04-26T15:27:15.855Z</time></trkpt><trkpt lat="46.1433878" lon="12.132516"><ele>382.0</ele><time>2026-04-26T15:27:16.857Z</time></trkpt><trkpt lat="46.143292" lon="12.1326977"><ele>382.0</ele><time>2026-04-26T15:27:17.855Z</time></trkpt><trkpt lat="46.1431928" lon="12.1328893"><ele>382.0</ele><time>2026-04-26T15:27:18.86Z</time></trkpt><trkpt lat="46.1430911" lon="12.1330885"><ele>380.66666666666663</ele><time>2026-04-26T15:27:19.861Z</time></trkpt><trkpt lat="46.1429876" lon="12.1332987"><ele>379.3333333333333</ele><time>2026-04-26T15:27:20.875Z</time></trkpt><trkpt lat="46.1428822" lon="12.1335129"><ele>378.0</ele><time>2026-04-26T15:27:21.853Z</time></trkpt><trkpt lat="46.1427724" lon="12.1337236"><ele>378.0</ele><time>2026-04-26T15:27:22.857Z</time></trkpt><trkpt lat="46.1426636" lon="12.1339318"><ele>378.0</ele><time>2026-04-26T15:27:23.861Z</time></trkpt><trkpt lat="46.1425605" lon="12.1341378"><ele>378.0</ele><time>2026-04-26T15:27:24.862Z</time></trkpt><trkpt lat="46.1424606" lon="12.1343434"><ele>378.3333333333333</ele><time>2026-04-26T15:27:25.854Z</time></trkpt><trkpt lat="46.1423652" lon="12.1345485"><ele>378.66666666666663</ele><time>2026-04-26T15:27:26.846Z</time></trkpt><trkpt lat="46.142275" lon="12.1347544"><ele>379.0</ele><time>2026-04-26T15:27:27.864Z</time></trkpt><trkpt lat="46.1421899" lon="12.1349589"><ele>379.0</ele><time>2026-04-26T15:27:28.852Z</time></trkpt><trkpt lat="46.1421042" lon="12.1351582"><ele>379.0</ele><time>2026-04-26T15:27:29.85Z</time></trkpt><trkpt lat="46.1420218" lon="12.1353581"><ele>379.0</ele><time>2026-04-26T15:27:30.852Z</time></trkpt><trkpt lat="46.1419434" lon="12.135559"><ele>381.3333333333333</ele><time>2026-04-26T15:27:31.862Z</time></trkpt><trkpt lat="46.1418615" lon="12.1357554"><ele>383.66666666666663</ele><time>2026-04-26T15:27:32.859Z</time></trkpt><trkpt lat="46.1417769" lon="12.1359484"><ele>386.0</ele><time>2026-04-26T15:27:33.846Z</time></trkpt><trkpt lat="46.1416942" lon="12.1361401"><ele>386.0</ele><time>2026-04-26T15:27:34.856Z</time></trkpt><trkpt lat="46.1416058" lon="12.1363214"><ele>386.0</ele><time>2026-04-26T15:27:35.849Z</time></trkpt><trkpt lat="46.1415245" lon="12.1364991"><ele>386.0</ele><time>2026-04-26T15:27:36.857Z</time></trkpt><trkpt lat="46.1414508" lon="12.1366753"><ele>386.0</ele><time>2026-04-26T15:27:37.855Z</time></trkpt><trkpt lat="46.1413707" lon="12.1368423"><ele>385.75</ele><time>2026-04-26T15:27:38.85Z</time></trkpt><trkpt lat="46.1412968" lon="12.1370136"><ele>385.5</ele><time>2026-04-26T15:27:39.854Z</time></trkpt><trkpt lat="46.1412135" lon="12.1371754"><ele>385.25</ele><time>2026-04-26T15:27:40.857Z</time></trkpt><trkpt lat="46.1411348" lon="12.1373378"><ele>385.0</ele><time>2026-04-26T15:27:41.863Z</time></trkpt><trkpt lat="46.1410644" lon="12.1375041"><ele>387.75</ele><time>2026-04-26T15:27:42.857Z</time></trkpt><trkpt lat="46.1410299" lon="12.1376924"><ele>390.5</ele><time>2026-04-26T15:27:43.865Z</time></trkpt><trkpt lat="46.1410058" lon="12.1378876"><ele>393.25</ele><time>2026-04-26T15:27:44.856Z</time></trkpt><trkpt lat="46.1410064" lon="12.1381044"><ele>396.0</ele><time>2026-04-26T15:27:45.866Z</time></trkpt><trkpt lat="46.1410097" lon="12.1383308"><ele>397.33333333333337</ele><time>2026-04-26T15:27:46.865Z</time></trkpt><trkpt lat="46.1410158" lon="12.1385659"><ele>398.6666666666667</ele><time>2026-04-26T15:27:47.866Z</time></trkpt><trkpt lat="46.1410139" lon="12.1388022"><ele>400.0</ele><time>2026-04-26T15:27:48.859Z</time></trkpt><trkpt lat="46.1410146" lon="12.1390377"><ele>399.0</ele><time>2026-04-26T15:27:49.858Z</time></trkpt><trkpt lat="46.1410106" lon="12.1392752"><ele>398.0</ele><time>2026-04-26T15:27:50.872Z</time></trkpt><trkpt lat="46.1410068" lon="12.1395141"><ele>397.0</ele><time>2026-04-26T15:27:51.852Z</time></trkpt><trkpt lat="46.1410087" lon="12.1397556"><ele>398.33333333333337</ele><time>2026-04-26T15:27:52.854Z</time></trkpt><trkpt lat="46.1410016" lon="12.1399993"><ele>399.66666666666663</ele><time>2026-04-26T15:27:53.854Z</time></trkpt><trkpt lat="46.1409968" lon="12.1402445"><ele>401.0</ele><time>2026-04-26T15:27:54.849Z</time></trkpt><trkpt lat="46.1409868" lon="12.1404794"><ele>401.0</ele><time>2026-04-26T15:27:55.855Z</time></trkpt><trkpt lat="46.1409884" lon="12.1407019"><ele>401.0</ele><time>2026-04-26T15:27:56.869Z</time></trkpt><trkpt lat="46.1409864" lon="12.1409152"><ele>401.0</ele><time>2026-04-26T15:27:57.864Z</time></trkpt><trkpt lat="46.1409814" lon="12.1411233"><ele>401.0</ele><time>2026-04-26T15:27:58.857Z</time></trkpt><trkpt lat="46.1409753" lon="12.1413239"><ele>402.0</ele><time>2026-04-26T15:27:59.864Z</time></trkpt><trkpt lat="46.140965" lon="12.1415174"><ele>403.0</ele><time>2026-04-26T15:28:00.851Z</time></trkpt><trkpt lat="46.1409613" lon="12.1417036"><ele>404.0</ele><time>2026-04-26T15:28:01.859Z</time></trkpt><trkpt lat="46.1409563" lon="12.1418814"><ele>405.0</ele><time>2026-04-26T15:28:02.862Z</time></trkpt><trkpt lat="46.14096" lon="12.1420543"><ele>405.75</ele><time>2026-04-26T15:28:03.855Z</time></trkpt><trkpt lat="46.1409865" lon="12.1422228"><ele>406.5</ele><time>2026-04-26T15:28:04.854Z</time></trkpt><trkpt lat="46.1410504" lon="12.1423721"><ele>407.25</ele><time>2026-04-26T15:28:05.853Z</time></trkpt><trkpt lat="46.1411408" lon="12.1424978"><ele>408.0</ele><time>2026-04-26T15:28:06.848Z</time></trkpt><trkpt lat="46.1412745" lon="12.1425639"><ele>408.66666666666663</ele><time>2026-04-26T15:28:07.848Z</time></trkpt><trkpt lat="46.1414304" lon="12.1425966"><ele>409.3333333333333</ele><time>2026-04-26T15:28:08.861Z</time></trkpt><trkpt lat="46.1415775" lon="12.1426496"><ele>410.0</ele><time>2026-04-26T15:28:09.857Z</time></trkpt><trkpt lat="46.1417174" lon="12.1427151"><ele>411.5</ele><time>2026-04-26T15:28:10.868Z</time></trkpt><trkpt lat="46.1418523" lon="12.1427751"><ele>413.0</ele><time>2026-04-26T15:28:11.858Z</time></trkpt><trkpt lat="46.1419802" lon="12.1428329"><ele>414.5</ele><time>2026-04-26T15:28:12.858Z</time></trkpt><trkpt lat="46.1420988" lon="12.1428909"><ele>416.0</ele><time>2026-04-26T15:28:13.859Z</time></trkpt><trkpt lat="46.1422103" lon="12.1429609"><ele>416.0</ele><time>2026-04-26T15:28:14.862Z</time></trkpt><trkpt lat="46.1423137" lon="12.1430324"><ele>416.0</ele><time>2026-04-26T15:28:15.862Z</time></trkpt><trkpt lat="46.1423909" lon="12.1431522"><ele>416.0</ele><time>2026-04-26T15:28:16.858Z</time></trkpt><trkpt lat="46.1424476" lon="12.1433094"><ele>416.0</ele><time>2026-04-26T15:28:17.85Z</time></trkpt><trkpt lat="46.1424647" lon="12.1435089"><ele>416.5</ele><time>2026-04-26T15:28:18.857Z</time></trkpt><trkpt lat="46.1424753" lon="12.1436939"><ele>417.0</ele><time>2026-04-26T15:28:19.847Z</time></trkpt><trkpt lat="46.142488" lon="12.1438766"><ele>417.5</ele><time>2026-04-26T15:28:20.854Z</time></trkpt><trkpt lat="46.1425163" lon="12.1440546"><ele>418.0</ele><time>2026-04-26T15:28:21.845Z</time></trkpt><trkpt lat="46.1425465" lon="12.1442331"><ele>418.0</ele><time>2026-04-26T15:28:22.846Z</time></trkpt><trkpt lat="46.1425405" lon="12.1444286"><ele>418.0</ele><time>2026-04-26T15:28:23.85Z</time></trkpt><trkpt lat="46.1425473" lon="12.144622"><ele>418.0</ele><time>2026-04-26T15:28:24.844Z</time></trkpt><trkpt lat="46.1425606" lon="12.1448144"><ele>418.0</ele><time>2026-04-26T15:28:25.854Z</time></trkpt><trkpt lat="46.1425835" lon="12.1450038"><ele>418.5</ele><time>2026-04-26T15:28:26.867Z</time></trkpt><trkpt lat="46.1426082" lon="12.1451916"><ele>419.0</ele><time>2026-04-26T15:28:27.848Z</time></trkpt><trkpt lat="46.1426338" lon="12.1453778"><ele>419.5</ele><time>2026-04-26T15:28:28.855Z</time></trkpt><trkpt lat="46.1426594" lon="12.1455644"><ele>420.0</ele><time>2026-04-26T15:28:29.854Z</time></trkpt><trkpt lat="46.1426831" lon="12.1457527"><ele>420.75</ele><time>2026-04-26T15:28:30.85Z</time></trkpt><trkpt lat="46.142708" lon="12.1459413"><ele>421.5</ele><time>2026-04-26T15:28:31.852Z</time></trkpt><trkpt lat="46.1427355" lon="12.1461294"><ele>422.25</ele><time>2026-04-26T15:28:32.869Z</time></trkpt><trkpt lat="46.1427635" lon="12.1463153"><ele>423.0</ele><time>2026-04-26T15:28:33.861Z</time></trkpt><trkpt lat="46.1427899" lon="12.1464941"><ele>423.59999999999997</ele><time>2026-04-26T15:28:34.847Z</time></trkpt><trkpt lat="46.1428165" lon="12.1466632"><ele>424.2</ele><time>2026-04-26T15:28:35.857Z</time></trkpt><trkpt lat="46.1428396" lon="12.1468209"><ele>424.8</ele><time>2026-04-26T15:28:36.857Z</time></trkpt><trkpt lat="46.1428511" lon="12.1469682"><ele>425.4</ele><time>2026-04-26T15:28:37.857Z</time></trkpt><trkpt lat="46.1428431" lon="12.147109"><ele>426.0</ele><time>2026-04-26T15:28:38.855Z</time></trkpt><trkpt lat="46.1428131" lon="12.1472435"><ele>426.0</ele><time>2026-04-26T15:28:39.847Z</time></trkpt><trkpt lat="46.1427713" lon="12.1473737"><ele>426.0</ele><time>2026-04-26T15:28:40.85Z</time></trkpt><trkpt lat="46.1427047" lon="12.1474863"><ele>426.0</ele><time>2026-04-26T15:28:41.861Z</time></trkpt><trkpt lat="46.1426391" lon="12.1476002"><ele>426.0</ele><time>2026-04-26T15:28:42.848Z</time></trkpt><trkpt lat="46.1425682" lon="12.1477141"><ele>426.0</ele><time>2026-04-26T15:28:43.85Z</time></trkpt><trkpt lat="46.1424878" lon="12.1478234"><ele>426.4</ele><time>2026-04-26T15:28:44.857Z</time></trkpt><trkpt lat="46.1424004" lon="12.1479249"><ele>426.8</ele><time>2026-04-26T15:28:45.864Z</time></trkpt><trkpt lat="46.1423182" lon="12.1480303"><ele>427.19999999999993</ele><time>2026-04-26T15:28:46.863Z</time></trkpt><trkpt lat="46.1422392" lon="12.1481401"><ele>427.59999999999997</ele><time>2026-04-26T15:28:47.849Z</time></trkpt><trkpt lat="46.142166" lon="12.1482553"><ele>428.0</ele><time>2026-04-26T15:28:48.84Z</time></trkpt><trkpt lat="46.1420985" lon="12.1483722"><ele>428.0</ele><time>2026-04-26T15:28:49.867Z</time></trkpt><trkpt lat="46.1420453" lon="12.148497"><ele>427.99999999999994</ele><time>2026-04-26T15:28:50.863Z</time></trkpt><trkpt lat="46.1420002" lon="12.1486323"><ele>427.99999999999994</ele><time>2026-04-26T15:28:51.867Z</time></trkpt><trkpt lat="46.1419687" lon="12.1487841"><ele>428.0</ele><time>2026-04-26T15:28:52.849Z</time></trkpt><trkpt lat="46.1419507" lon="12.1489544"><ele>428.0</ele><time>2026-04-26T15:28:53.86Z</time></trkpt><trkpt lat="46.1419299" lon="12.1491314"><ele>426.75</ele><time>2026-04-26T15:28:54.859Z</time></trkpt><trkpt lat="46.1419186" lon="12.1493164"><ele>425.5</ele><time>2026-04-26T15:28:55.863Z</time></trkpt><trkpt lat="46.1419075" lon="12.1495033"><ele>424.25</ele><time>2026-04-26T15:28:56.852Z</time></trkpt><trkpt lat="46.141894" lon="12.1496893"><ele>423.0</ele><time>2026-04-26T15:28:57.855Z</time></trkpt><trkpt lat="46.1418775" lon="12.1498683"><ele>423.0</ele><time>2026-04-26T15:28:58.854Z</time></trkpt><trkpt lat="46.141862" lon="12.1500436"><ele>423.0</ele><time>2026-04-26T15:28:59.849Z</time></trkpt><trkpt lat="46.1418509" lon="12.1502173"><ele>423.0</ele><time>2026-04-26T15:29:00.86Z</time></trkpt><trkpt lat="46.1418419" lon="12.1503866"><ele>423.0</ele><time>2026-04-26T15:29:01.853Z</time></trkpt><trkpt lat="46.1418495" lon="12.1505601"><ele>425.0</ele><time>2026-04-26T15:29:02.86Z</time></trkpt><trkpt lat="46.1418824" lon="12.1507346"><ele>427.0</ele><time>2026-04-26T15:29:03.867Z</time></trkpt><trkpt lat="46.141927" lon="12.1509015"><ele>429.0</ele><time>2026-04-26T15:29:04.857Z</time></trkpt><trkpt lat="46.1419763" lon="12.151056"><ele>431.0</ele><time>2026-04-26T15:29:05.851Z</time></trkpt><trkpt lat="46.1420292" lon="12.1512124"><ele>431.0</ele><time>2026-04-26T15:29:06.867Z</time></trkpt><trkpt lat="46.142081" lon="12.1513777"><ele>431.0</ele><time>2026-04-26T15:29:07.854Z</time></trkpt><trkpt lat="46.1421367" lon="12.1515375"><ele>431.0</ele><time>2026-04-26T15:29:08.845Z</time></trkpt><trkpt lat="46.1421941" lon="12.1516978"><ele>431.0</ele><time>2026-04-26T15:29:09.863Z</time></trkpt><trkpt lat="46.1422445" lon="12.1518649"><ele>432.5</ele><time>2026-04-26T15:29:10.861Z</time></trkpt><trkpt lat="46.1422978" lon="12.1520321"><ele>434.0</ele><time>2026-04-26T15:29:11.862Z</time></trkpt><trkpt lat="46.1423322" lon="12.1522091"><ele>435.5</ele><time>2026-04-26T15:29:12.858Z</time></trkpt><trkpt lat="46.1423729" lon="12.1523851"><ele>437.0</ele><time>2026-04-26T15:29:13.848Z</time></trkpt><trkpt lat="46.1424262" lon="12.152555"><ele>437.0</ele><time>2026-04-26T15:29:14.85Z</time></trkpt><trkpt lat="46.1424784" lon="12.1527256"><ele>437.0</ele><time>2026-04-26T15:29:15.854Z</time></trkpt><trkpt lat="46.1425212" lon="12.1529028"><ele>437.0</ele><time>2026-04-26T15:29:16.85Z</time></trkpt><trkpt lat="46.1425644" lon="12.1530802"><ele>437.0</ele><time>2026-04-26T15:29:17.856Z</time></trkpt><trkpt lat="46.1426126" lon="12.153254"><ele>438.75</ele><time>2026-04-26T15:29:18.856Z</time></trkpt><trkpt lat="46.1426648" lon="12.1534225"><ele>440.5</ele><time>2026-04-26T15:29:19.843Z</time></trkpt><trkpt lat="46.1427168" lon="12.1535883"><ele>442.25</ele><time>2026-04-26T15:29:20.867Z</time></trkpt><trkpt lat="46.1427558" lon="12.1537587"><ele>444.0</ele><time>2026-04-26T15:29:21.854Z</time></trkpt><trkpt lat="46.142807" lon="12.1539219"><ele>445.5</ele><time>2026-04-26T15:29:22.852Z</time></trkpt><trkpt lat="46.1428627" lon="12.1540823"><ele>447.0</ele><time>2026-04-26T15:29:23.848Z</time></trkpt><trkpt lat="46.142922" lon="12.1542394"><ele>448.5</ele><time>2026-04-26T15:29:24.859Z</time></trkpt><trkpt lat="46.1429765" lon="12.1543974"><ele>450.0</ele><time>2026-04-26T15:29:25.857Z</time></trkpt><trkpt lat="46.1430312" lon="12.1545578"><ele>450.0</ele><time>2026-04-26T15:29:26.851Z</time></trkpt><trkpt lat="46.1430721" lon="12.1547248"><ele>450.0</ele><time>2026-04-26T15:29:27.849Z</time></trkpt><trkpt lat="46.1431168" lon="12.1548901"><ele>450.0</ele><time>2026-04-26T15:29:28.853Z</time></trkpt><trkpt lat="46.1431643" lon="12.1550556"><ele>450.0</ele><time>2026-04-26T15:29:29.861Z</time></trkpt><trkpt lat="46.1432106" lon="12.155222"><ele>450.25</ele><time>2026-04-26T15:29:30.852Z</time></trkpt><trkpt lat="46.1432457" lon="12.1553992"><ele>450.5</ele><time>2026-04-26T15:29:31.857Z</time></trkpt><trkpt lat="46.1432406" lon="12.1555944"><ele>450.75</ele><time>2026-04-26T15:29:32.861Z</time></trkpt><trkpt lat="46.1432161" lon="12.1557962"><ele>451.0</ele><time>2026-04-26T15:29:33.854Z</time></trkpt><trkpt lat="46.1431855" lon="12.1559936"><ele>451.75</ele><time>2026-04-26T15:29:34.86Z</time></trkpt><trkpt lat="46.1431489" lon="12.1561842"><ele>452.5</ele><time>2026-04-26T15:29:35.851Z</time></trkpt><trkpt lat="46.1431236" lon="12.1563745"><ele>453.25</ele><time>2026-04-26T15:29:36.853Z</time></trkpt><trkpt lat="46.1430987" lon="12.1565636"><ele>454.0</ele><time>2026-04-26T15:29:37.848Z</time></trkpt><trkpt lat="46.1430731" lon="12.1567543"><ele>456.0</ele><time>2026-04-26T15:29:38.845Z</time></trkpt><trkpt lat="46.1430487" lon="12.1569433"><ele>458.0</ele><time>2026-04-26T15:29:39.851Z</time></trkpt><trkpt lat="46.1430253" lon="12.1571192"><ele>460.0</ele><time>2026-04-26T15:29:40.865Z</time></trkpt><trkpt lat="46.1430054" lon="12.157273"><ele>462.0</ele><time>2026-04-26T15:29:41.849Z</time></trkpt><trkpt lat="46.1429876" lon="12.1573982"><ele>462.7142857142857</ele><time>2026-04-26T15:29:42.848Z</time></trkpt><trkpt lat="46.1429619" lon="12.1574974"><ele>463.42857142857144</ele><time>2026-04-26T15:29:43.854Z</time></trkpt><trkpt lat="46.1429404" lon="12.1575872"><ele>464.1428571428571</ele><time>2026-04-26T15:29:44.852Z</time></trkpt><trkpt lat="46.1429174" lon="12.1576759"><ele>464.85714285714283</ele><time>2026-04-26T15:29:45.845Z</time></trkpt><trkpt lat="46.1428963" lon="12.1577734"><ele>465.57142857142856</ele><time>2026-04-26T15:29:46.854Z</time></trkpt><trkpt lat="46.1428667" lon="12.1578778"><ele>466.2857142857142</ele><time>2026-04-26T15:29:47.857Z</time></trkpt><trkpt lat="46.1428257" lon="12.1579816"><ele>466.99999999999994</ele><time>2026-04-26T15:29:48.851Z</time></trkpt><trkpt lat="46.1427838" lon="12.1580811"><ele>466.99999999999994</ele><time>2026-04-26T15:29:49.855Z</time></trkpt><trkpt lat="46.1427395" lon="12.1581695"><ele>467.0</ele><time>2026-04-26T15:29:50.852Z</time></trkpt><trkpt lat="46.1426967" lon="12.158248"><ele>466.99999999999994</ele><time>2026-04-26T15:29:51.854Z</time></trkpt><trkpt lat="46.1426558" lon="12.1583211"><ele>466.99999999999994</ele><time>2026-04-26T15:29:52.868Z</time></trkpt><trkpt lat="46.142615" lon="12.1583983"><ele>467.0</ele><time>2026-04-26T15:29:53.853Z</time></trkpt><trkpt lat="46.142572" lon="12.1584836"><ele>466.99999999999994</ele><time>2026-04-26T15:29:54.851Z</time></trkpt><trkpt lat="46.1425331" lon="12.1585814"><ele>466.99999999999994</ele><time>2026-04-26T15:29:55.859Z</time></trkpt><trkpt lat="46.1424942" lon="12.1586827"><ele>466.8</ele><time>2026-04-26T15:29:56.856Z</time></trkpt><trkpt lat="46.1424449" lon="12.1587858"><ele>466.6</ele><time>2026-04-26T15:29:57.85Z</time></trkpt><trkpt lat="46.1423913" lon="12.1588967"><ele>466.40000000000003</ele><time>2026-04-26T15:29:58.855Z</time></trkpt><trkpt lat="46.1423332" lon="12.1590096"><ele>466.20000000000005</ele><time>2026-04-26T15:29:59.85Z</time></trkpt><trkpt lat="46.1422625" lon="12.1591231"><ele>466.0</ele><time>2026-04-26T15:30:00.85Z</time></trkpt><trkpt lat="46.1421851" lon="12.1592517"><ele>468.25</ele><time>2026-04-26T15:30:01.848Z</time></trkpt><trkpt lat="46.1421079" lon="12.1593949"><ele>470.5</ele><time>2026-04-26T15:30:02.841Z</time></trkpt><trkpt lat="46.1420317" lon="12.1595532"><ele>472.75</ele><time>2026-04-26T15:30:03.854Z</time></trkpt><trkpt lat="46.1419494" lon="12.1597172"><ele>475.0</ele><time>2026-04-26T15:30:04.846Z</time></trkpt><trkpt lat="46.1418729" lon="12.1598955"><ele>475.0</ele><time>2026-04-26T15:30:05.864Z</time></trkpt><trkpt lat="46.1417945" lon="12.1600748"><ele>475.0</ele><time>2026-04-26T15:30:06.854Z</time></trkpt><trkpt lat="46.1417175" lon="12.1602558"><ele>475.0</ele><time>2026-04-26T15:30:07.866Z</time></trkpt><trkpt lat="46.1416376" lon="12.160432"><ele>475.0</ele><time>2026-04-26T15:30:08.856Z</time></trkpt><trkpt lat="46.1415547" lon="12.1606046"><ele>476.25</ele><time>2026-04-26T15:30:09.853Z</time></trkpt><trkpt lat="46.1414716" lon="12.160775"><ele>477.5</ele><time>2026-04-26T15:30:10.846Z</time></trkpt><trkpt lat="46.1413891" lon="12.1609403"><ele>478.75</ele><time>2026-04-26T15:30:11.856Z</time></trkpt><trkpt lat="46.1413109" lon="12.1611019"><ele>480.0</ele><time>2026-04-26T15:30:12.845Z</time></trkpt><trkpt lat="46.1412357" lon="12.1612552"><ele>480.0</ele><time>2026-04-26T15:30:13.856Z</time></trkpt><trkpt lat="46.141164" lon="12.1614051"><ele>480.0</ele><time>2026-04-26T15:30:14.854Z</time></trkpt><trkpt lat="46.1411047" lon="12.1615236"><ele>480.0</ele><time>2026-04-26T15:30:15.848Z</time></trkpt><trkpt lat="46.1410383" lon="12.1617099"><ele>480.0</ele><time>2026-04-26T15:30:16.861Z</time></trkpt><trkpt lat="46.1409853" lon="12.1618904"><ele>479.0</ele><time>2026-04-26T15:30:17.86Z</time></trkpt><trkpt lat="46.1409428" lon="12.1620752"><ele>478.0</ele><time>2026-04-26T15:30:18.848Z</time></trkpt><trkpt lat="46.1409089" lon="12.1622564"><ele>477.0</ele><time>2026-04-26T15:30:19.853Z</time></trkpt><trkpt lat="46.1408857" lon="12.1624418"><ele>476.0</ele><time>2026-04-26T15:30:20.847Z</time></trkpt><trkpt lat="46.1408722" lon="12.1626374"><ele>476.0</ele><time>2026-04-26T15:30:21.842Z</time></trkpt><trkpt lat="46.1408704" lon="12.1628378"><ele>476.0</ele><time>2026-04-26T15:30:22.856Z</time></trkpt><trkpt lat="46.140878" lon="12.1630339"><ele>476.0</ele><time>2026-04-26T15:30:23.852Z</time></trkpt><trkpt lat="46.1408885" lon="12.1632324"><ele>476.0</ele><time>2026-04-26T15:30:24.854Z</time></trkpt><trkpt lat="46.1408998" lon="12.1634302"><ele>475.75</ele><time>2026-04-26T15:30:25.858Z</time></trkpt><trkpt lat="46.140912" lon="12.1636227"><ele>475.5</ele><time>2026-04-26T15:30:26.848Z</time></trkpt><trkpt lat="46.1409238" lon="12.163813"><ele>475.25</ele><time>2026-04-26T15:30:27.861Z</time></trkpt><trkpt lat="46.1409336" lon="12.1639943"><ele>475.0</ele><time>2026-04-26T15:30:28.848Z</time></trkpt><trkpt lat="46.140944" lon="12.1641759"><ele>474.0</ele><time>2026-04-26T15:30:29.855Z</time></trkpt><trkpt lat="46.1409564" lon="12.1643478"><ele>473.0</ele><time>2026-04-26T15:30:30.869Z</time></trkpt><trkpt lat="46.1409675" lon="12.1645155"><ele>472.0</ele><time>2026-04-26T15:30:31.858Z</time></trkpt><trkpt lat="46.1409765" lon="12.164683"><ele>471.0</ele><time>2026-04-26T15:30:32.855Z</time></trkpt><trkpt lat="46.1409804" lon="12.1648491"><ele>470.25</ele><time>2026-04-26T15:30:33.857Z</time></trkpt><trkpt lat="46.1409808" lon="12.1650131"><ele>469.5</ele><time>2026-04-26T15:30:34.852Z</time></trkpt><trkpt lat="46.140981" lon="12.1651876"><ele>468.75</ele><time>2026-04-26T15:30:35.854Z</time></trkpt><trkpt lat="46.1409783" lon="12.1653637"><ele>468.0</ele><time>2026-04-26T15:30:36.852Z</time></trkpt><trkpt lat="46.1409684" lon="12.165538"><ele>467.75</ele><time>2026-04-26T15:30:37.856Z</time></trkpt><trkpt lat="46.1409532" lon="12.1657187"><ele>467.5</ele><time>2026-04-26T15:30:38.858Z</time></trkpt><trkpt lat="46.1409404" lon="12.1659055"><ele>467.25</ele><time>2026-04-26T15:30:39.855Z</time></trkpt><trkpt lat="46.1409364" lon="12.1661003"><ele>467.0</ele><time>2026-04-26T15:30:40.852Z</time></trkpt><trkpt lat="46.1409392" lon="12.1663007"><ele>467.0</ele><time>2026-04-26T15:30:41.852Z</time></trkpt><trkpt lat="46.1409486" lon="12.1665044"><ele>467.0</ele><time>2026-04-26T15:30:42.851Z</time></trkpt><trkpt lat="46.1409578" lon="12.1667121"><ele>467.0</ele><time>2026-04-26T15:30:43.862Z</time></trkpt><trkpt lat="46.1409668" lon="12.1669149"><ele>467.0</ele><time>2026-04-26T15:30:44.863Z</time></trkpt><trkpt lat="46.1409754" lon="12.1671038"><ele>466.75</ele><time>2026-04-26T15:30:45.852Z</time></trkpt><trkpt lat="46.1409851" lon="12.1672941"><ele>466.5</ele><time>2026-04-26T15:30:46.864Z</time></trkpt><trkpt lat="46.1409956" lon="12.1674845"><ele>466.25</ele><time>2026-04-26T15:30:47.843Z</time></trkpt><trkpt lat="46.1410087" lon="12.1676729"><ele>466.0</ele><time>2026-04-26T15:30:48.861Z</time></trkpt><trkpt lat="46.1410205" lon="12.1678542"><ele>466.5</ele><time>2026-04-26T15:30:49.852Z</time></trkpt><trkpt lat="46.1410323" lon="12.1680358"><ele>467.0</ele><time>2026-04-26T15:30:50.856Z</time></trkpt><trkpt lat="46.1410447" lon="12.1682221"><ele>467.5</ele><time>2026-04-26T15:30:51.857Z</time></trkpt><trkpt lat="46.1410565" lon="12.1684062"><ele>468.0</ele><time>2026-04-26T15:30:52.857Z</time></trkpt><trkpt lat="46.1410683" lon="12.1685964"><ele>468.0</ele><time>2026-04-26T15:30:53.847Z</time></trkpt><trkpt lat="46.1410819" lon="12.1687953"><ele>468.0</ele><time>2026-04-26T15:30:54.854Z</time></trkpt><trkpt lat="46.1410942" lon="12.1689921"><ele>468.0</ele><time>2026-04-26T15:30:55.866Z</time></trkpt><trkpt lat="46.1411057" lon="12.1691901"><ele>468.0</ele><time>2026-04-26T15:30:56.855Z</time></trkpt><trkpt lat="46.1411117" lon="12.1693846"><ele>468.0</ele><time>2026-04-26T15:30:57.847Z</time></trkpt><trkpt lat="46.1411264" lon="12.1695786"><ele>468.0</ele><time>2026-04-26T15:30:58.858Z</time></trkpt><trkpt lat="46.1411186" lon="12.169775"><ele>468.0</ele><time>2026-04-26T15:30:59.852Z</time></trkpt><trkpt lat="46.1411058" lon="12.169967"><ele>468.0</ele><time>2026-04-26T15:31:00.862Z</time></trkpt><trkpt lat="46.1410982" lon="12.1701538"><ele>468.0</ele><time>2026-04-26T15:31:01.858Z</time></trkpt><trkpt lat="46.1410955" lon="12.1703465"><ele>468.0</ele><time>2026-04-26T15:31:02.855Z</time></trkpt><trkpt lat="46.1410982" lon="12.1705457"><ele>468.0</ele><time>2026-04-26T15:31:03.857Z</time></trkpt><trkpt lat="46.141104" lon="12.1707444"><ele>468.0</ele><time>2026-04-26T15:31:04.861Z</time></trkpt><trkpt lat="46.1411105" lon="12.1709431"><ele>468.25</ele><time>2026-04-26T15:31:05.858Z</time></trkpt><trkpt lat="46.1411157" lon="12.1711431"><ele>468.5</ele><time>2026-04-26T15:31:06.853Z</time></trkpt><trkpt lat="46.1411225" lon="12.1713467"><ele>468.75</ele><time>2026-04-26T15:31:07.859Z</time></trkpt><trkpt lat="46.1411281" lon="12.171547"><ele>469.0</ele><time>2026-04-26T15:31:08.853Z</time></trkpt><trkpt lat="46.1411327" lon="12.1717486"><ele>469.0</ele><time>2026-04-26T15:31:09.864Z</time></trkpt><trkpt lat="46.1411345" lon="12.1719477"><ele>469.0</ele><time>2026-04-26T15:31:10.855Z</time></trkpt><trkpt lat="46.1411322" lon="12.1721433"><ele>469.0</ele><time>2026-04-26T15:31:11.855Z</time></trkpt><trkpt lat="46.1411302" lon="12.1723388"><ele>469.0</ele><time>2026-04-26T15:31:12.869Z</time></trkpt><trkpt lat="46.1411281" lon="12.1725386"><ele>468.75</ele><time>2026-04-26T15:31:13.86Z</time></trkpt><trkpt lat="46.1411232" lon="12.1727372"><ele>468.5</ele><time>2026-04-26T15:31:14.851Z</time></trkpt><trkpt lat="46.1411165" lon="12.1729401"><ele>468.25</ele><time>2026-04-26T15:31:15.856Z</time></trkpt><trkpt lat="46.1411067" lon="12.1731419"><ele>468.0</ele><time>2026-04-26T15:31:16.856Z</time></trkpt><trkpt lat="46.1410845" lon="12.173341"><ele>468.0</ele><time>2026-04-26T15:31:17.875Z</time></trkpt><trkpt lat="46.1410438" lon="12.1735035"><ele>468.0</ele><time>2026-04-26T15:31:18.863Z</time></trkpt><trkpt lat="46.1409914" lon="12.173682"><ele>468.0</ele><time>2026-04-26T15:31:19.845Z</time></trkpt><trkpt lat="46.1409305" lon="12.1738589"><ele>468.0</ele><time>2026-04-26T15:31:20.866Z</time></trkpt><trkpt lat="46.1408676" lon="12.1740325"><ele>467.75</ele><time>2026-04-26T15:31:21.852Z</time></trkpt><trkpt lat="46.1407921" lon="12.1741969"><ele>467.5</ele><time>2026-04-26T15:31:22.855Z</time></trkpt><trkpt lat="46.1407114" lon="12.1743618"><ele>467.25</ele><time>2026-04-26T15:31:23.854Z</time></trkpt><trkpt lat="46.1406314" lon="12.1745204"><ele>467.0</ele><time>2026-04-26T15:31:24.855Z</time></trkpt><trkpt lat="46.1405523" lon="12.1746806"><ele>467.0</ele><time>2026-04-26T15:31:25.859Z</time></trkpt><trkpt lat="46.1404744" lon="12.1748349"><ele>467.0</ele><time>2026-04-26T15:31:26.854Z</time></trkpt><trkpt lat="46.1403946" lon="12.1749875"><ele>467.0</ele><time>2026-04-26T15:31:27.857Z</time></trkpt><trkpt lat="46.140316" lon="12.1751372"><ele>467.0</ele><time>2026-04-26T15:31:28.849Z</time></trkpt><trkpt lat="46.1402412" lon="12.1752845"><ele>466.75</ele><time>2026-04-26T15:31:29.852Z</time></trkpt><trkpt lat="46.1401784" lon="12.1754321"><ele>466.5</ele><time>2026-04-26T15:31:30.862Z</time></trkpt><trkpt lat="46.1401218" lon="12.1755811"><ele>466.25</ele><time>2026-04-26T15:31:31.861Z</time></trkpt><trkpt lat="46.1400608" lon="12.1757344"><ele>466.0</ele><time>2026-04-26T15:31:32.865Z</time></trkpt><trkpt lat="46.1400058" lon="12.1758923"><ele>466.5</ele><time>2026-04-26T15:31:33.856Z</time></trkpt><trkpt lat="46.1399608" lon="12.1760495"><ele>467.0</ele><time>2026-04-26T15:31:34.849Z</time></trkpt><trkpt lat="46.1399263" lon="12.1762071"><ele>467.5</ele><time>2026-04-26T15:31:35.848Z</time></trkpt><trkpt lat="46.1399044" lon="12.1763706"><ele>468.0</ele><time>2026-04-26T15:31:36.846Z</time></trkpt><trkpt lat="46.139893" lon="12.1765387"><ele>468.5</ele><time>2026-04-26T15:31:37.865Z</time></trkpt><trkpt lat="46.139897" lon="12.1767005"><ele>469.0</ele><time>2026-04-26T15:31:38.845Z</time></trkpt><trkpt lat="46.1399089" lon="12.1768763"><ele>469.5</ele><time>2026-04-26T15:31:39.857Z</time></trkpt><trkpt lat="46.1399226" lon="12.1770554"><ele>470.0</ele><time>2026-04-26T15:31:40.852Z</time></trkpt><trkpt lat="46.1399454" lon="12.1772423"><ele>469.0</ele><time>2026-04-26T15:31:41.86Z</time></trkpt><trkpt lat="46.1399718" lon="12.1774348"><ele>468.0</ele><time>2026-04-26T15:31:42.861Z</time></trkpt><trkpt lat="46.1399969" lon="12.1776347"><ele>467.0</ele><time>2026-04-26T15:31:43.869Z</time></trkpt><trkpt lat="46.1400217" lon="12.1778443"><ele>466.0</ele><time>2026-04-26T15:31:44.854Z</time></trkpt><trkpt lat="46.1400491" lon="12.1780599"><ele>465.75</ele><time>2026-04-26T15:31:45.895Z</time></trkpt><trkpt lat="46.1400736" lon="12.1782639"><ele>465.5</ele><time>2026-04-26T15:31:46.864Z</time></trkpt><trkpt lat="46.1400974" lon="12.178476"><ele>465.25</ele><time>2026-04-26T15:31:47.841Z</time></trkpt><trkpt lat="46.1401191" lon="12.1786902"><ele>465.0</ele><time>2026-04-26T15:31:48.855Z</time></trkpt><trkpt lat="46.1401389" lon="12.1789012"><ele>464.5</ele><time>2026-04-26T15:31:49.847Z</time></trkpt><trkpt lat="46.1401604" lon="12.1791099"><ele>464.0</ele><time>2026-04-26T15:31:50.855Z</time></trkpt><trkpt lat="46.1401822" lon="12.1793023"><ele>463.5</ele><time>2026-04-26T15:31:51.867Z</time></trkpt><trkpt lat="46.1402055" lon="12.179503"><ele>463.0</ele><time>2026-04-26T15:31:52.854Z</time></trkpt><trkpt lat="46.1402277" lon="12.1797008"><ele>463.25</ele><time>2026-04-26T15:31:53.865Z</time></trkpt><trkpt lat="46.140251" lon="12.1798987"><ele>463.5</ele><time>2026-04-26T15:31:54.862Z</time></trkpt><trkpt lat="46.1402769" lon="12.1801006"><ele>463.75</ele><time>2026-04-26T15:31:55.855Z</time></trkpt><trkpt lat="46.1403017" lon="12.180298"><ele>464.0</ele><time>2026-04-26T15:31:56.86Z</time></trkpt><trkpt lat="46.1403246" lon="12.1804961"><ele>463.0</ele><time>2026-04-26T15:31:57.871Z</time></trkpt><trkpt lat="46.1403489" lon="12.1806899"><ele>462.0</ele><time>2026-04-26T15:31:58.866Z</time></trkpt><trkpt lat="46.140375" lon="12.1808868"><ele>461.0</ele><time>2026-04-26T15:31:59.885Z</time></trkpt><trkpt lat="46.1404011" lon="12.1810756"><ele>460.0</ele><time>2026-04-26T15:32:00.864Z</time></trkpt><trkpt lat="46.1404294" lon="12.1812671"><ele>460.0</ele><time>2026-04-26T15:32:01.85Z</time></trkpt><trkpt lat="46.1404578" lon="12.1814559"><ele>460.0</ele><time>2026-04-26T15:32:02.884Z</time></trkpt><trkpt lat="46.1404847" lon="12.181638"><ele>460.0</ele><time>2026-04-26T15:32:03.853Z</time></trkpt><trkpt lat="46.1405157" lon="12.1818345"><ele>460.0</ele><time>2026-04-26T15:32:04.869Z</time></trkpt><trkpt lat="46.1405459" lon="12.1820315"><ele>460.0</ele><time>2026-04-26T15:32:05.873Z</time></trkpt><trkpt lat="46.1405726" lon="12.1822343"><ele>460.0</ele><time>2026-04-26T15:32:06.854Z</time></trkpt><trkpt lat="46.1406008" lon="12.182442"><ele>460.0</ele><time>2026-04-26T15:32:07.854Z</time></trkpt><trkpt lat="46.1406293" lon="12.1826536"><ele>460.0</ele><time>2026-04-26T15:32:08.865Z</time></trkpt><trkpt lat="46.1406577" lon="12.182871"><ele>459.33333333333337</ele><time>2026-04-26T15:32:09.87Z</time></trkpt><trkpt lat="46.140686" lon="12.1830909"><ele>458.66666666666663</ele><time>2026-04-26T15:32:10.853Z</time></trkpt><trkpt lat="46.1407131" lon="12.1833088"><ele>458.0</ele><time>2026-04-26T15:32:11.866Z</time></trkpt><trkpt lat="46.1407406" lon="12.1835222"><ele>457.5</ele><time>2026-04-26T15:32:12.87Z</time></trkpt><trkpt lat="46.1407681" lon="12.1837326"><ele>457.0</ele><time>2026-04-26T15:32:13.857Z</time></trkpt><trkpt lat="46.1407956" lon="12.1839405"><ele>456.5</ele><time>2026-04-26T15:32:14.866Z</time></trkpt><trkpt lat="46.1408193" lon="12.1841452"><ele>456.0</ele><time>2026-04-26T15:32:15.855Z</time></trkpt><trkpt lat="46.1408266" lon="12.1843381"><ele>456.0</ele><time>2026-04-26T15:32:16.856Z</time></trkpt><trkpt lat="46.1408448" lon="12.184506"><ele>456.0</ele><time>2026-04-26T15:32:17.876Z</time></trkpt><trkpt lat="46.1408627" lon="12.1846552"><ele>456.0</ele><time>2026-04-26T15:32:18.848Z</time></trkpt><trkpt lat="46.1408855" lon="12.1847948"><ele>456.0</ele><time>2026-04-26T15:32:19.853Z</time></trkpt><trkpt lat="46.1409032" lon="12.1849353"><ele>456.0</ele><time>2026-04-26T15:32:20.854Z</time></trkpt><trkpt lat="46.140925" lon="12.1850711"><ele>456.0</ele><time>2026-04-26T15:32:21.856Z</time></trkpt><trkpt lat="46.1409416" lon="12.1852132"><ele>456.0</ele><time>2026-04-26T15:32:22.866Z</time></trkpt><trkpt lat="46.1409588" lon="12.1853658"><ele>456.0</ele><time>2026-04-26T15:32:23.857Z</time></trkpt><trkpt lat="46.1409776" lon="12.1855293"><ele>456.0</ele><time>2026-04-26T15:32:24.853Z</time></trkpt><trkpt lat="46.1409983" lon="12.1857036"><ele>456.0</ele><time>2026-04-26T15:32:25.848Z</time></trkpt><trkpt lat="46.1410274" lon="12.1858849"><ele>455.75</ele><time>2026-04-26T15:32:26.84Z</time></trkpt><trkpt lat="46.1410529" lon="12.1860678"><ele>455.5</ele><time>2026-04-26T15:32:27.851Z</time></trkpt><trkpt lat="46.141077" lon="12.18625"><ele>455.25</ele><time>2026-04-26T15:32:28.854Z</time></trkpt><trkpt lat="46.1411045" lon="12.1864278"><ele>455.0</ele><time>2026-04-26T15:32:29.867Z</time></trkpt><trkpt lat="46.1411322" lon="12.1866043"><ele>454.5</ele><time>2026-04-26T15:32:30.85Z</time></trkpt><trkpt lat="46.1411592" lon="12.1867834"><ele>454.0</ele><time>2026-04-26T15:32:31.851Z</time></trkpt><trkpt lat="46.1411862" lon="12.1869634"><ele>453.5</ele><time>2026-04-26T15:32:32.845Z</time></trkpt><trkpt lat="46.1412049" lon="12.1871424"><ele>453.0</ele><time>2026-04-26T15:32:33.856Z</time></trkpt><trkpt lat="46.1412205" lon="12.1873209"><ele>452.75</ele><time>2026-04-26T15:32:34.851Z</time></trkpt><trkpt lat="46.1412344" lon="12.1875016"><ele>452.5</ele><time>2026-04-26T15:32:35.861Z</time></trkpt><trkpt lat="46.1412556" lon="12.1876775"><ele>452.25</ele><time>2026-04-26T15:32:36.852Z</time></trkpt><trkpt lat="46.1412756" lon="12.1878516"><ele>452.0</ele><time>2026-04-26T15:32:37.85Z</time></trkpt><trkpt lat="46.1412987" lon="12.1880243"><ele>451.5</ele><time>2026-04-26T15:32:38.853Z</time></trkpt><trkpt lat="46.1413227" lon="12.1881919"><ele>451.0</ele><time>2026-04-26T15:32:39.866Z</time></trkpt><trkpt lat="46.141338" lon="12.1883544"><ele>450.5</ele><time>2026-04-26T15:32:40.854Z</time></trkpt><trkpt lat="46.1413499" lon="12.1885147"><ele>450.0</ele><time>2026-04-26T15:32:41.867Z</time></trkpt><trkpt lat="46.1413693" lon="12.1886699"><ele>450.0</ele><time>2026-04-26T15:32:42.847Z</time></trkpt><trkpt lat="46.1413959" lon="12.1888212"><ele>450.0</ele><time>2026-04-26T15:32:43.853Z</time></trkpt><trkpt lat="46.1414153" lon="12.1889719"><ele>450.0</ele><time>2026-04-26T15:32:44.857Z</time></trkpt><trkpt lat="46.1414324" lon="12.1891203"><ele>450.0</ele><time>2026-04-26T15:32:45.844Z</time></trkpt><trkpt lat="46.1414518" lon="12.1892659"><ele>450.0</ele><time>2026-04-26T15:32:46.839Z</time></trkpt><trkpt lat="46.1414662" lon="12.1894133"><ele>449.4</ele><time>2026-04-26T15:32:47.84Z</time></trkpt><trkpt lat="46.1414828" lon="12.1895628"><ele>448.8</ele><time>2026-04-26T15:32:48.853Z</time></trkpt><trkpt lat="46.1415094" lon="12.1897163"><ele>448.20000000000005</ele><time>2026-04-26T15:32:49.839Z</time></trkpt><trkpt lat="46.1415331" lon="12.1898768"><ele>447.6</ele><time>2026-04-26T15:32:50.854Z</time></trkpt><trkpt lat="46.1415644" lon="12.190038"><ele>447.0</ele><time>2026-04-26T15:32:51.852Z</time></trkpt><trkpt lat="46.1415785" lon="12.1902074"><ele>446.75</ele><time>2026-04-26T15:32:52.853Z</time></trkpt><trkpt lat="46.1415978" lon="12.1903738"><ele>446.5</ele><time>2026-04-26T15:32:53.865Z</time></trkpt><trkpt lat="46.1416157" lon="12.1905383"><ele>446.25</ele><time>2026-04-26T15:32:54.855Z</time></trkpt><trkpt lat="46.1416043" lon="12.1907039"><ele>446.0</ele><time>2026-04-26T15:32:55.853Z</time></trkpt><trkpt lat="46.1415691" lon="12.1908605"><ele>446.0</ele><time>2026-04-26T15:32:56.847Z</time></trkpt><trkpt lat="46.1415219" lon="12.1910156"><ele>446.0</ele><time>2026-04-26T15:32:57.847Z</time></trkpt><trkpt lat="46.1414345" lon="12.1911484"><ele>446.0</ele><time>2026-04-26T15:32:58.849Z</time></trkpt><trkpt lat="46.1413413" lon="12.1912748"><ele>446.0</ele><time>2026-04-26T15:32:59.851Z</time></trkpt><trkpt lat="46.1412619" lon="12.1914098"><ele>446.0</ele><time>2026-04-26T15:33:00.843Z</time></trkpt><trkpt lat="46.1411785" lon="12.1915363"><ele>446.0</ele><time>2026-04-26T15:33:01.85Z</time></trkpt><trkpt lat="46.1411123" lon="12.1916857"><ele>446.0</ele><time>2026-04-26T15:33:02.853Z</time></trkpt><trkpt lat="46.1410473" lon="12.1918433"><ele>446.0</ele><time>2026-04-26T15:33:03.849Z</time></trkpt><trkpt lat="46.1409898" lon="12.1920153"><ele>446.0</ele><time>2026-04-26T15:33:04.846Z</time></trkpt><trkpt lat="46.1409305" lon="12.1921802"><ele>446.0</ele><time>2026-04-26T15:33:05.867Z</time></trkpt><trkpt lat="46.1408801" lon="12.1923517"><ele>446.0</ele><time>2026-04-26T15:33:06.842Z</time></trkpt><trkpt lat="46.1408423" lon="12.1925292"><ele>446.0</ele><time>2026-04-26T15:33:07.851Z</time></trkpt><trkpt lat="46.1408311" lon="12.1927178"><ele>445.75</ele><time>2026-04-26T15:33:08.862Z</time></trkpt><trkpt lat="46.1408265" lon="12.1929126"><ele>445.5</ele><time>2026-04-26T15:33:09.859Z</time></trkpt><trkpt lat="46.1408232" lon="12.1931131"><ele>445.25</ele><time>2026-04-26T15:33:10.864Z</time></trkpt><trkpt lat="46.1408337" lon="12.1933157"><ele>445.0</ele><time>2026-04-26T15:33:11.851Z</time></trkpt><trkpt lat="46.1408544" lon="12.1935258"><ele>445.0</ele><time>2026-04-26T15:33:12.853Z</time></trkpt><trkpt lat="46.140896" lon="12.1937419"><ele>445.0</ele><time>2026-04-26T15:33:13.856Z</time></trkpt><trkpt lat="46.140943" lon="12.1939635"><ele>445.0</ele><time>2026-04-26T15:33:14.854Z</time></trkpt><trkpt lat="46.1409895" lon="12.1941887"><ele>445.0</ele><time>2026-04-26T15:33:15.852Z</time></trkpt><trkpt lat="46.1410362" lon="12.1944125"><ele>445.0</ele><time>2026-04-26T15:33:16.852Z</time></trkpt><trkpt lat="46.1410707" lon="12.1946333"><ele>445.0</ele><time>2026-04-26T15:33:17.862Z</time></trkpt><trkpt lat="46.1411125" lon="12.1948477"><ele>444.6666666666667</ele><time>2026-04-26T15:33:18.856Z</time></trkpt><trkpt lat="46.141148" lon="12.195063"><ele>444.33333333333337</ele><time>2026-04-26T15:33:19.86Z</time></trkpt><trkpt lat="46.1411885" lon="12.1952732"><ele>444.0</ele><time>2026-04-26T15:33:20.855Z</time></trkpt><trkpt lat="46.1412301" lon="12.1954771"><ele>444.0</ele><time>2026-04-26T15:33:21.845Z</time></trkpt><trkpt lat="46.1412768" lon="12.1956696"><ele>444.0</ele><time>2026-04-26T15:33:22.837Z</time></trkpt><trkpt lat="46.1413294" lon="12.1958536"><ele>444.0</ele><time>2026-04-26T15:33:23.856Z</time></trkpt><trkpt lat="46.1413889" lon="12.1960309"><ele>444.0</ele><time>2026-04-26T15:33:24.856Z</time></trkpt><trkpt lat="46.141442" lon="12.1962063"><ele>444.5</ele><time>2026-04-26T15:33:25.854Z</time></trkpt><trkpt lat="46.1414959" lon="12.1963762"><ele>445.0</ele><time>2026-04-26T15:33:26.865Z</time></trkpt><trkpt lat="46.1415509" lon="12.1965418"><ele>445.5</ele><time>2026-04-26T15:33:27.857Z</time></trkpt><trkpt lat="46.1416048" lon="12.196708"><ele>446.0</ele><time>2026-04-26T15:33:28.856Z</time></trkpt><trkpt lat="46.1416637" lon="12.1968766"><ele>446.0</ele><time>2026-04-26T15:33:29.859Z</time></trkpt><trkpt lat="46.1417227" lon="12.1970498"><ele>446.0</ele><time>2026-04-26T15:33:30.854Z</time></trkpt><trkpt lat="46.1417806" lon="12.1972245"><ele>446.0</ele><time>2026-04-26T15:33:31.861Z</time></trkpt><trkpt lat="46.1418391" lon="12.1974007"><ele>446.0</ele><time>2026-04-26T15:33:32.875Z</time></trkpt><trkpt lat="46.1419012" lon="12.1975755"><ele>445.5</ele><time>2026-04-26T15:33:33.861Z</time></trkpt><trkpt lat="46.1419613" lon="12.1977498"><ele>445.0</ele><time>2026-04-26T15:33:34.858Z</time></trkpt><trkpt lat="46.1420192" lon="12.1979237"><ele>444.5</ele><time>2026-04-26T15:33:35.845Z</time></trkpt><trkpt lat="46.1420765" lon="12.1980984"><ele>444.0</ele><time>2026-04-26T15:33:36.857Z</time></trkpt><trkpt lat="46.1421417" lon="12.1982702"><ele>443.75</ele><time>2026-04-26T15:33:37.862Z</time></trkpt><trkpt lat="46.1422003" lon="12.1984514"><ele>443.5</ele><time>2026-04-26T15:33:38.844Z</time></trkpt><trkpt lat="46.1422638" lon="12.198631"><ele>443.25</ele><time>2026-04-26T15:33:39.854Z</time></trkpt><trkpt lat="46.1423292" lon="12.1988095"><ele>443.0</ele><time>2026-04-26T15:33:40.866Z</time></trkpt><trkpt lat="46.142393" lon="12.1989896"><ele>442.5</ele><time>2026-04-26T15:33:41.854Z</time></trkpt><trkpt lat="46.1424578" lon="12.1991675"><ele>442.0</ele><time>2026-04-26T15:33:42.852Z</time></trkpt><trkpt lat="46.1425255" lon="12.1993433"><ele>441.5</ele><time>2026-04-26T15:33:43.872Z</time></trkpt><trkpt lat="46.1425975" lon="12.1995144"><ele>441.0</ele><time>2026-04-26T15:33:44.849Z</time></trkpt><trkpt lat="46.1426695" lon="12.1996824"><ele>440.0</ele><time>2026-04-26T15:33:45.845Z</time></trkpt><trkpt lat="46.1427394" lon="12.1998492"><ele>439.0</ele><time>2026-04-26T15:33:46.848Z</time></trkpt><trkpt lat="46.1428167" lon="12.2000062"><ele>438.0</ele><time>2026-04-26T15:33:47.851Z</time></trkpt><trkpt lat="46.1428797" lon="12.2001755"><ele>437.0</ele><time>2026-04-26T15:33:48.861Z</time></trkpt><trkpt lat="46.1429364" lon="12.2003489"><ele>437.0</ele><time>2026-04-26T15:33:49.86Z</time></trkpt><trkpt lat="46.1430014" lon="12.2005075"><ele>437.0</ele><time>2026-04-26T15:33:50.849Z</time></trkpt><trkpt lat="46.1430679" lon="12.2006544"><ele>437.0</ele><time>2026-04-26T15:33:51.856Z</time></trkpt><trkpt lat="46.1431279" lon="12.2007994"><ele>437.0</ele><time>2026-04-26T15:33:52.85Z</time></trkpt><trkpt lat="46.1431865" lon="12.2009425"><ele>437.5</ele><time>2026-04-26T15:33:53.857Z</time></trkpt><trkpt lat="46.1432456" lon="12.2010853"><ele>438.0</ele><time>2026-04-26T15:33:54.861Z</time></trkpt><trkpt lat="46.1433068" lon="12.2012279"><ele>438.5</ele><time>2026-04-26T15:33:55.871Z</time></trkpt><trkpt lat="46.1433699" lon="12.2013702"><ele>439.0</ele><time>2026-04-26T15:33:56.861Z</time></trkpt><trkpt lat="46.1434297" lon="12.2015136"><ele>437.75</ele><time>2026-04-26T15:33:57.855Z</time></trkpt><trkpt lat="46.1434946" lon="12.2016502"><ele>436.5</ele><time>2026-04-26T15:33:58.859Z</time></trkpt><trkpt lat="46.1435547" lon="12.2017883"><ele>435.25</ele><time>2026-04-26T15:33:59.866Z</time></trkpt><trkpt lat="46.143614" lon="12.2019253"><ele>434.0</ele><time>2026-04-26T15:34:00.871Z</time></trkpt><trkpt lat="46.1436705" lon="12.2020636"><ele>434.0</ele><time>2026-04-26T15:34:01.845Z</time></trkpt><trkpt lat="46.1437377" lon="12.2021947"><ele>434.0</ele><time>2026-04-26T15:34:02.845Z</time></trkpt><trkpt lat="46.1437986" lon="12.2023282"><ele>434.0</ele><time>2026-04-26T15:34:03.846Z</time></trkpt><trkpt lat="46.1438587" lon="12.2024597"><ele>434.0</ele><time>2026-04-26T15:34:04.843Z</time></trkpt><trkpt lat="46.1439084" lon="12.2026023"><ele>434.0</ele><time>2026-04-26T15:34:05.856Z</time></trkpt><trkpt lat="46.1439617" lon="12.2027462"><ele>433.25</ele><time>2026-04-26T15:34:06.849Z</time></trkpt><trkpt lat="46.1440233" lon="12.2028864"><ele>432.5</ele><time>2026-04-26T15:34:07.866Z</time></trkpt><trkpt lat="46.1440879" lon="12.2030242"><ele>431.75</ele><time>2026-04-26T15:34:08.861Z</time></trkpt><trkpt lat="46.1441526" lon="12.2031606"><ele>431.0</ele><time>2026-04-26T15:34:09.856Z</time></trkpt><trkpt lat="46.1442211" lon="12.203292"><ele>430.66666666666663</ele><time>2026-04-26T15:34:10.853Z</time></trkpt><trkpt lat="46.1442668" lon="12.2034287"><ele>430.3333333333333</ele><time>2026-04-26T15:34:11.854Z</time></trkpt><trkpt lat="46.1443097" lon="12.2035429"><ele>430.0</ele><time>2026-04-26T15:34:12.864Z</time></trkpt><trkpt lat="46.1443458" lon="12.2036337"><ele>429.66666666666663</ele><time>2026-04-26T15:34:13.861Z</time></trkpt><trkpt lat="46.1444054" lon="12.2037589"><ele>429.3333333333333</ele><time>2026-04-26T15:34:15.861Z</time></trkpt><trkpt lat="46.1444578" lon="12.2038224"><ele>429.0</ele><time>2026-04-26T15:34:17.855Z</time></trkpt><trkpt lat="46.1445164" lon="12.203914"><ele>428.8333333333333</ele><time>2026-04-26T15:34:19.861Z</time></trkpt><trkpt lat="46.144548" lon="12.2040702"><ele>428.66666666666663</ele><time>2026-04-26T15:34:21.851Z</time></trkpt><trkpt lat="46.1445743" lon="12.2041696"><ele>428.5</ele><time>2026-04-26T15:34:22.866Z</time></trkpt><trkpt lat="46.1445974" lon="12.2042794"><ele>428.3333333333333</ele><time>2026-04-26T15:34:23.874Z</time></trkpt><trkpt lat="46.1446271" lon="12.2043918"><ele>428.16666666666663</ele><time>2026-04-26T15:34:24.864Z</time></trkpt><trkpt lat="46.1446508" lon="12.2045083"><ele>428.0</ele><time>2026-04-26T15:34:25.855Z</time></trkpt><trkpt lat="46.1446737" lon="12.204628"><ele>428.0</ele><time>2026-04-26T15:34:26.865Z</time></trkpt><trkpt lat="46.1447135" lon="12.204742"><ele>427.99999999999994</ele><time>2026-04-26T15:34:27.857Z</time></trkpt><trkpt lat="46.1447538" lon="12.204865"><ele>427.99999999999994</ele><time>2026-04-26T15:34:28.86Z</time></trkpt><trkpt lat="46.1448008" lon="12.2049879"><ele>428.0</ele><time>2026-04-26T15:34:29.855Z</time></trkpt><trkpt lat="46.1448499" lon="12.2051107"><ele>428.0</ele><time>2026-04-26T15:34:30.857Z</time></trkpt><trkpt lat="46.1449013" lon="12.2052278"><ele>427.79999999999995</ele><time>2026-04-26T15:34:31.862Z</time></trkpt><trkpt lat="46.1449617" lon="12.2053347"><ele>427.59999999999997</ele><time>2026-04-26T15:34:32.855Z</time></trkpt><trkpt lat="46.1450208" lon="12.2054391"><ele>427.40000000000003</ele><time>2026-04-26T15:34:33.856Z</time></trkpt><trkpt lat="46.1450782" lon="12.2055485"><ele>427.20000000000005</ele><time>2026-04-26T15:34:34.865Z</time></trkpt><trkpt lat="46.1451354" lon="12.2056628"><ele>427.0</ele><time>2026-04-26T15:34:35.865Z</time></trkpt><trkpt lat="46.1451918" lon="12.2057896"><ele>426.75</ele><time>2026-04-26T15:34:36.859Z</time></trkpt><trkpt lat="46.1452573" lon="12.2059454"><ele>426.5</ele><time>2026-04-26T15:34:37.863Z</time></trkpt><trkpt lat="46.1453489" lon="12.2061211"><ele>426.25</ele><time>2026-04-26T15:34:38.856Z</time></trkpt><trkpt lat="46.1454352" lon="12.2062956"><ele>426.0</ele><time>2026-04-26T15:34:39.857Z</time></trkpt><trkpt lat="46.14552" lon="12.2064658"><ele>424.5</ele><time>2026-04-26T15:34:40.845Z</time></trkpt><trkpt lat="46.1455928" lon="12.2066412"><ele>423.0</ele><time>2026-04-26T15:34:41.849Z</time></trkpt><trkpt lat="46.1456487" lon="12.2068317"><ele>421.5</ele><time>2026-04-26T15:34:42.857Z</time></trkpt><trkpt lat="46.1456851" lon="12.2070371"><ele>420.0</ele><time>2026-04-26T15:34:43.856Z</time></trkpt><trkpt lat="46.1456899" lon="12.2072637"><ele>418.66666666666663</ele><time>2026-04-26T15:34:44.854Z</time></trkpt><trkpt lat="46.1456924" lon="12.2074958"><ele>417.3333333333333</ele><time>2026-04-26T15:34:45.858Z</time></trkpt><trkpt lat="46.1456845" lon="12.2077382"><ele>416.0</ele><time>2026-04-26T15:34:46.867Z</time></trkpt><trkpt lat="46.1456691" lon="12.2079794"><ele>415.3333333333333</ele><time>2026-04-26T15:34:47.848Z</time></trkpt><trkpt lat="46.1456182" lon="12.2082123"><ele>414.66666666666663</ele><time>2026-04-26T15:34:48.852Z</time></trkpt><trkpt lat="46.1456226" lon="12.2084573"><ele>414.0</ele><time>2026-04-26T15:34:49.861Z</time></trkpt><trkpt lat="46.1456163" lon="12.2087005"><ele>414.0</ele><time>2026-04-26T15:34:50.86Z</time></trkpt><trkpt lat="46.1456118" lon="12.2089448"><ele>414.0</ele><time>2026-04-26T15:34:51.855Z</time></trkpt><trkpt lat="46.1456184" lon="12.2091928"><ele>414.0</ele><time>2026-04-26T15:34:52.853Z</time></trkpt><trkpt lat="46.1456069" lon="12.2094369"><ele>413.66666666666663</ele><time>2026-04-26T15:34:53.853Z</time></trkpt><trkpt lat="46.1456043" lon="12.2096797"><ele>413.3333333333333</ele><time>2026-04-26T15:34:54.854Z</time></trkpt><trkpt lat="46.1456015" lon="12.2099185"><ele>413.0</ele><time>2026-04-26T15:34:55.848Z</time></trkpt><trkpt lat="46.145597" lon="12.2101515"><ele>412.3333333333333</ele><time>2026-04-26T15:34:56.851Z</time></trkpt><trkpt lat="46.1455897" lon="12.2103816"><ele>411.66666666666663</ele><time>2026-04-26T15:34:57.861Z</time></trkpt><trkpt lat="46.1455763" lon="12.2106084"><ele>411.0</ele><time>2026-04-26T15:34:58.869Z</time></trkpt><trkpt lat="46.1455469" lon="12.2108289"><ele>410.33333333333337</ele><time>2026-04-26T15:34:59.864Z</time></trkpt><trkpt lat="46.1454943" lon="12.211037"><ele>409.6666666666667</ele><time>2026-04-26T15:35:00.864Z</time></trkpt><trkpt lat="46.1454323" lon="12.2112331"><ele>409.0</ele><time>2026-04-26T15:35:01.85Z</time></trkpt><trkpt lat="46.145353" lon="12.2114249"><ele>408.33333333333337</ele><time>2026-04-26T15:35:02.854Z</time></trkpt><trkpt lat="46.1452556" lon="12.2116054"><ele>407.66666666666663</ele><time>2026-04-26T15:35:03.865Z</time></trkpt><trkpt lat="46.1451376" lon="12.2117611"><ele>407.0</ele><time>2026-04-26T15:35:04.871Z</time></trkpt><trkpt lat="46.1450456" lon="12.2119307"><ele>407.0</ele><time>2026-04-26T15:35:05.849Z</time></trkpt><trkpt lat="46.1449434" lon="12.212049"><ele>407.0</ele><time>2026-04-26T15:35:06.855Z</time></trkpt><trkpt lat="46.1448404" lon="12.2120942"><ele>407.0</ele><time>2026-04-26T15:35:07.86Z</time></trkpt><trkpt lat="46.1447946" lon="12.2121741"><ele>407.0</ele><time>2026-04-26T15:35:08.847Z</time></trkpt><trkpt lat="46.1447273" lon="12.2122858"><ele>407.0</ele><time>2026-04-26T15:35:10.852Z</time></trkpt><trkpt lat="46.1446704" lon="12.2123619"><ele>406.99999999999994</ele><time>2026-04-26T15:35:12.849Z</time></trkpt><trkpt lat="46.1445823" lon="12.2124261"><ele>407.0</ele><time>2026-04-26T15:35:14.844Z</time></trkpt><trkpt lat="46.144475" lon="12.2125144"><ele>407.0</ele><time>2026-04-26T15:35:16.851Z</time></trkpt><trkpt lat="46.1444266" lon="12.2125742"><ele>407.0</ele><time>2026-04-26T15:35:17.859Z</time></trkpt><trkpt lat="46.144389" lon="12.2126543"><ele>406.99999999999994</ele><time>2026-04-26T15:35:18.841Z</time></trkpt><trkpt lat="46.1443454" lon="12.2127238"><ele>407.0</ele><time>2026-04-26T15:35:19.855Z</time></trkpt><trkpt lat="46.1442932" lon="12.2127785"><ele>407.0</ele><time>2026-04-26T15:35:20.842Z</time></trkpt><trkpt lat="46.1442059" lon="12.21286"><ele>407.0</ele><time>2026-04-26T15:35:22.86Z</time></trkpt><trkpt lat="46.1441334" lon="12.2128707"><ele>407.0</ele><time>2026-04-26T15:35:24.846Z</time></trkpt><trkpt lat="46.144041" lon="12.2128708"><ele>407.0</ele><time>2026-04-26T15:35:26.851Z</time></trkpt><trkpt lat="46.1439322" lon="12.212909"><ele>407.0</ele><time>2026-04-26T15:35:28.844Z</time></trkpt><trkpt lat="46.143883" lon="12.2129838"><ele>406.0</ele><time>2026-04-26T15:35:29.849Z</time></trkpt><trkpt lat="46.1438253" lon="12.2130681"><ele>405.0</ele><time>2026-04-26T15:35:30.847Z</time></trkpt><trkpt lat="46.1437564" lon="12.2131576"><ele>404.0</ele><time>2026-04-26T15:35:31.85Z</time></trkpt><trkpt lat="46.143683" lon="12.2132659"><ele>403.0</ele><time>2026-04-26T15:35:32.843Z</time></trkpt><trkpt lat="46.1435881" lon="12.2133409"><ele>402.0</ele><time>2026-04-26T15:35:33.853Z</time></trkpt><trkpt lat="46.143494" lon="12.2134219"><ele>402.0</ele><time>2026-04-26T15:35:34.845Z</time></trkpt><trkpt lat="46.1433938" lon="12.2134884"><ele>402.0</ele><time>2026-04-26T15:35:35.843Z</time></trkpt><trkpt lat="46.1433019" lon="12.213564"><ele>402.0</ele><time>2026-04-26T15:35:36.844Z</time></trkpt><trkpt lat="46.1432074" lon="12.2136383"><ele>402.0</ele><time>2026-04-26T15:35:37.845Z</time></trkpt><trkpt lat="46.1431141" lon="12.2137063"><ele>402.0</ele><time>2026-04-26T15:35:38.837Z</time></trkpt><trkpt lat="46.1430188" lon="12.2137728"><ele>401.6</ele><time>2026-04-26T15:35:39.853Z</time></trkpt><trkpt lat="46.1429238" lon="12.2138445"><ele>401.20000000000005</ele><time>2026-04-26T15:35:40.844Z</time></trkpt><trkpt lat="46.142821" lon="12.2138937"><ele>400.8</ele><time>2026-04-26T15:35:41.845Z</time></trkpt><trkpt lat="46.1427238" lon="12.2139568"><ele>400.4</ele><time>2026-04-26T15:35:42.858Z</time></trkpt><trkpt lat="46.1426281" lon="12.2140224"><ele>400.0</ele><time>2026-04-26T15:35:43.857Z</time></trkpt><trkpt lat="46.1425327" lon="12.2140871"><ele>400.00000000000006</ele><time>2026-04-26T15:35:44.847Z</time></trkpt><trkpt lat="46.1424497" lon="12.2141824"><ele>400.0</ele><time>2026-04-26T15:35:45.847Z</time></trkpt><trkpt lat="46.1423718" lon="12.2142529"><ele>400.0</ele><time>2026-04-26T15:35:46.845Z</time></trkpt><trkpt lat="46.1423042" lon="12.2143022"><ele>400.0</ele><time>2026-04-26T15:35:47.848Z</time></trkpt><trkpt lat="46.1422471" lon="12.2143448"><ele>400.00000000000006</ele><time>2026-04-26T15:35:48.863Z</time></trkpt><trkpt lat="46.1421632" lon="12.2144224"><ele>400.0</ele><time>2026-04-26T15:35:50.863Z</time></trkpt><trkpt lat="46.1420986" lon="12.2144596"><ele>400.0</ele><time>2026-04-26T15:35:52.856Z</time></trkpt><trkpt lat="46.1419916" lon="12.2145338"><ele>400.0</ele><time>2026-04-26T15:36:37.849Z</time></trkpt><trkpt lat="46.1418999" lon="12.2145422"><ele>400.0</ele><time>2026-04-26T15:36:57.838Z</time></trkpt><trkpt lat="46.1418202" lon="12.2146034"><ele>400.0</ele><time>2026-04-26T15:37:00.845Z</time></trkpt><trkpt lat="46.141718" lon="12.2146519"><ele>400.0</ele><time>2026-04-26T15:37:05.835Z</time></trkpt><trkpt lat="46.1416411" lon="12.2147167"><ele>399.83333333333337</ele><time>2026-04-26T15:37:08.841Z</time></trkpt><trkpt lat="46.1416373" lon="12.2148814"><ele>399.6666666666667</ele><time>2026-04-26T15:37:10.837Z</time></trkpt><trkpt lat="46.1416839" lon="12.2149822"><ele>399.5</ele><time>2026-04-26T15:37:11.847Z</time></trkpt><trkpt lat="46.1417325" lon="12.2150891"><ele>399.33333333333337</ele><time>2026-04-26T15:37:12.866Z</time></trkpt><trkpt lat="46.1417775" lon="12.2151803"><ele>399.1666666666667</ele><time>2026-04-26T15:37:13.859Z</time></trkpt><trkpt lat="46.1418221" lon="12.2152799"><ele>399.0</ele><time>2026-04-26T15:37:14.836Z</time></trkpt><trkpt lat="46.1418668" lon="12.2153983"><ele>399.0</ele><time>2026-04-26T15:37:15.844Z</time></trkpt><trkpt lat="46.1419153" lon="12.2155198"><ele>399.0</ele><time>2026-04-26T15:37:16.836Z</time></trkpt><trkpt lat="46.1419588" lon="12.2156292"><ele>399.0</ele><time>2026-04-26T15:37:17.849Z</time></trkpt><trkpt lat="46.1419932" lon="12.2157337"><ele>399.0</ele><time>2026-04-26T15:37:18.84Z</time></trkpt><trkpt lat="46.1420271" lon="12.2158295"><ele>399.0</ele><time>2026-04-26T15:37:19.842Z</time></trkpt><trkpt lat="46.1420494" lon="12.2159276"><ele>399.0</ele><time>2026-04-26T15:37:20.844Z</time></trkpt><trkpt lat="46.1420667" lon="12.2160295"><ele>399.0</ele><time>2026-04-26T15:37:21.865Z</time></trkpt><trkpt lat="46.1420926" lon="12.2161295"><ele>399.0</ele><time>2026-04-26T15:37:22.855Z</time></trkpt><trkpt lat="46.1421351" lon="12.216228"><ele>399.0</ele><time>2026-04-26T15:37:23.844Z</time></trkpt><trkpt lat="46.1421797" lon="12.2163324"><ele>399.0</ele><time>2026-04-26T15:37:24.841Z</time></trkpt><trkpt lat="46.1422247" lon="12.2164396"><ele>399.0</ele><time>2026-04-26T15:37:25.852Z</time></trkpt><trkpt lat="46.1422736" lon="12.2165365"><ele>399.0</ele><time>2026-04-26T15:37:26.852Z</time></trkpt><trkpt lat="46.1423131" lon="12.2166191"><ele>398.5</ele><time>2026-04-26T15:37:27.837Z</time></trkpt><trkpt lat="46.1423509" lon="12.2166981"><ele>398.0</ele><time>2026-04-26T15:37:28.845Z</time></trkpt><trkpt lat="46.1424449" lon="12.2167958"><ele>397.5</ele><time>2026-04-26T15:37:30.843Z</time></trkpt><trkpt lat="46.1425106" lon="12.21679"><ele>397.0</ele><time>2026-04-26T15:37:31.847Z</time></trkpt><trkpt lat="46.1425782" lon="12.2167656"><ele>396.5</ele><time>2026-04-26T15:37:32.851Z</time></trkpt><trkpt lat="46.1426454" lon="12.2167016"><ele>396.0</ele><time>2026-04-26T15:37:33.843Z</time></trkpt><trkpt lat="46.1427193" lon="12.2166099"><ele>396.4</ele><time>2026-04-26T15:37:34.846Z</time></trkpt><trkpt lat="46.1427831" lon="12.2164914"><ele>396.8</ele><time>2026-04-26T15:37:35.853Z</time></trkpt><trkpt lat="46.1428546" lon="12.216378"><ele>397.2</ele><time>2026-04-26T15:37:36.839Z</time></trkpt><trkpt lat="46.1429274" lon="12.2162647"><ele>397.59999999999997</ele><time>2026-04-26T15:37:37.846Z</time></trkpt><trkpt lat="46.1430016" lon="12.2161512"><ele>398.0</ele><time>2026-04-26T15:37:38.844Z</time></trkpt><trkpt lat="46.1430826" lon="12.2160426"><ele>398.0</ele><time>2026-04-26T15:37:39.84Z</time></trkpt><trkpt lat="46.1431654" lon="12.2159356"><ele>398.0</ele><time>2026-04-26T15:37:40.846Z</time></trkpt><trkpt lat="46.1432437" lon="12.2158337"><ele>398.0</ele><time>2026-04-26T15:37:41.864Z</time></trkpt><trkpt lat="46.1433154" lon="12.2157481"><ele>398.0</ele><time>2026-04-26T15:37:42.853Z</time></trkpt><trkpt lat="46.1433759" lon="12.2156709"><ele>398.0</ele><time>2026-04-26T15:37:43.837Z</time></trkpt><trkpt lat="46.1434298" lon="12.2155996"><ele>397.8333333333333</ele><time>2026-04-26T15:37:44.851Z</time></trkpt><trkpt lat="46.1434974" lon="12.215577"><ele>397.66666666666663</ele><time>2026-04-26T15:37:45.841Z</time></trkpt><trkpt lat="46.143568" lon="12.2156183"><ele>397.5</ele><time>2026-04-26T15:37:46.858Z</time></trkpt><trkpt lat="46.143631" lon="12.2156985"><ele>397.33333333333337</ele><time>2026-04-26T15:37:47.86Z</time></trkpt><trkpt lat="46.1436861" lon="12.2157881"><ele>397.1666666666667</ele><time>2026-04-26T15:37:48.837Z</time></trkpt><trkpt lat="46.1437152" lon="12.2158837"><ele>397.0</ele><time>2026-04-26T15:37:49.854Z</time></trkpt><trkpt lat="46.1437025" lon="12.2159771"><ele>395.6666666666667</ele><time>2026-04-26T15:37:50.841Z</time></trkpt><trkpt lat="46.1436601" lon="12.2160601"><ele>394.33333333333337</ele><time>2026-04-26T15:37:51.845Z</time></trkpt><trkpt lat="46.1436052" lon="12.2161496"><ele>393.0</ele><time>2026-04-26T15:37:52.842Z</time></trkpt><trkpt lat="46.1435365" lon="12.2162353"><ele>391.66666666666663</ele><time>2026-04-26T15:37:53.853Z</time></trkpt><trkpt lat="46.1434585" lon="12.2163049"><ele>390.3333333333333</ele><time>2026-04-26T15:37:54.836Z</time></trkpt><trkpt lat="46.1433765" lon="12.2163678"><ele>389.0</ele><time>2026-04-26T15:37:55.842Z</time></trkpt><trkpt lat="46.1433082" lon="12.2164448"><ele>389.42857142857144</ele><time>2026-04-26T15:37:56.839Z</time></trkpt><trkpt lat="46.1432395" lon="12.2164966"><ele>389.85714285714283</ele><time>2026-04-26T15:37:57.84Z</time></trkpt><trkpt lat="46.1431948" lon="12.2165827"><ele>390.2857142857143</ele><time>2026-04-26T15:37:58.841Z</time></trkpt><trkpt lat="46.1431635" lon="12.216682"><ele>390.7142857142857</ele><time>2026-04-26T15:37:59.847Z</time></trkpt><trkpt lat="46.1431506" lon="12.2167718"><ele>391.1428571428571</ele><time>2026-04-26T15:38:00.842Z</time></trkpt><trkpt lat="46.1431855" lon="12.2168838"><ele>391.57142857142856</ele><time>2026-04-26T15:38:02.855Z</time></trkpt><trkpt lat="46.143216" lon="12.2169749"><ele>392.0</ele><time>2026-04-26T15:38:06.849Z</time></trkpt><trkpt lat="46.1432298" lon="12.2170744"><ele>390.0</ele><time>2026-04-26T15:38:13.848Z</time></trkpt><trkpt lat="46.1433046" lon="12.2171321"><ele>388.0</ele><time>2026-04-26T15:38:18.835Z</time></trkpt><trkpt lat="46.1433961" lon="12.2170686"><ele>386.0</ele><time>2026-04-26T15:38:20.84Z</time></trkpt><trkpt lat="46.1434916" lon="12.2169987"><ele>384.0</ele><time>2026-04-26T15:38:22.842Z</time></trkpt><trkpt lat="46.1435854" lon="12.2170212"><ele>382.0</ele><time>2026-04-26T15:38:24.833Z</time></trkpt><trkpt lat="46.1435806" lon="12.2171346"><ele>382.0</ele><time>2026-04-26T15:38:26.86Z</time></trkpt><trkpt lat="46.1435087" lon="12.2172619"><ele>382.0</ele><time>2026-04-26T15:38:28.844Z</time></trkpt><trkpt lat="46.1434532" lon="12.2173295"><ele>382.0</ele><time>2026-04-26T15:38:29.842Z</time></trkpt><trkpt lat="46.1433968" lon="12.2174108"><ele>382.0</ele><time>2026-04-26T15:38:30.848Z</time></trkpt><trkpt lat="46.1433469" lon="12.2174834"><ele>382.0</ele><time>2026-04-26T15:38:31.857Z</time></trkpt><trkpt lat="46.1432904" lon="12.2175585"><ele>382.0</ele><time>2026-04-26T15:38:33.837Z</time></trkpt><trkpt lat="46.1432432" lon="12.2176418"><ele>381.8</ele><time>2026-04-26T15:38:37.862Z</time></trkpt><trkpt lat="46.1432108" lon="12.2177552"><ele>381.6</ele><time>2026-04-26T15:38:44.834Z</time></trkpt><trkpt lat="46.1431638" lon="12.2178825"><ele>381.40000000000003</ele><time>2026-04-26T15:38:46.846Z</time></trkpt><trkpt lat="46.1431206" lon="12.2180535"><ele>381.20000000000005</ele><time>2026-04-26T15:38:48.859Z</time></trkpt><trkpt lat="46.1431045" lon="12.2181528"><ele>381.0</ele><time>2026-04-26T15:38:49.854Z</time></trkpt><trkpt lat="46.1430946" lon="12.2182539"><ele>381.0</ele><time>2026-04-26T15:38:50.833Z</time></trkpt><trkpt lat="46.1430782" lon="12.2183556"><ele>381.0</ele><time>2026-04-26T15:38:51.839Z</time></trkpt><trkpt lat="46.1430754" lon="12.2184568"><ele>381.0</ele><time>2026-04-26T15:38:52.844Z</time></trkpt><trkpt lat="46.1430766" lon="12.2185561"><ele>381.0</ele><time>2026-04-26T15:38:53.84Z</time></trkpt><trkpt lat="46.1430952" lon="12.2186535"><ele>381.0</ele><time>2026-04-26T15:38:54.84Z</time></trkpt><trkpt lat="46.1431218" lon="12.2187489"><ele>381.0</ele><time>2026-04-26T15:38:55.852Z</time></trkpt><trkpt lat="46.1431781" lon="12.2188387"><ele>381.0</ele><time>2026-04-26T15:38:56.84Z</time></trkpt><trkpt lat="46.1432286" lon="12.2189329"><ele>377.6</ele><time>2026-04-26T15:38:57.86Z</time></trkpt><trkpt lat="46.1432861" lon="12.2190367"><ele>374.20000000000005</ele><time>2026-04-26T15:38:58.85Z</time></trkpt><trkpt lat="46.1433373" lon="12.2191461"><ele>370.79999999999995</ele><time>2026-04-26T15:38:59.842Z</time></trkpt><trkpt lat="46.1433566" lon="12.2192536"><ele>367.4</ele><time>2026-04-26T15:39:00.844Z</time></trkpt><trkpt lat="46.1433532" lon="12.2194291"><ele>364.0</ele><time>2026-04-26T15:39:02.847Z</time></trkpt><trkpt lat="46.1433242" lon="12.2195191"><ele>364.0</ele><time>2026-04-26T15:39:03.839Z</time></trkpt><trkpt lat="46.1432692" lon="12.2195733"><ele>364.0</ele><time>2026-04-26T15:39:04.852Z</time></trkpt><trkpt lat="46.1432015" lon="12.2196059"><ele>364.0</ele><time>2026-04-26T15:39:05.845Z</time></trkpt><trkpt lat="46.1431091" lon="12.2196496"><ele>364.0</ele><time>2026-04-26T15:39:07.839Z</time></trkpt><trkpt lat="46.1430359" lon="12.2196813"><ele>364.0</ele><time>2026-04-26T15:39:14.836Z</time></trkpt><trkpt lat="46.1429624" lon="12.2197488"><ele>364.0</ele><time>2026-04-26T15:39:17.847Z</time></trkpt><trkpt lat="46.1429036" lon="12.2197829"><ele>364.2</ele><time>2026-04-26T15:39:19.839Z</time></trkpt><trkpt lat="46.1428148" lon="12.2197882"><ele>364.4</ele><time>2026-04-26T15:39:21.85Z</time></trkpt><trkpt lat="46.1426902" lon="12.2197739"><ele>364.6</ele><time>2026-04-26T15:39:23.843Z</time></trkpt><trkpt lat="46.1426113" lon="12.219754"><ele>364.8</ele><time>2026-04-26T15:39:24.851Z</time></trkpt><trkpt lat="46.1425199" lon="12.2197287"><ele>365.0</ele><time>2026-04-26T15:39:25.838Z</time></trkpt><trkpt lat="46.1424177" lon="12.2197052"><ele>364.5</ele><time>2026-04-26T15:39:26.847Z</time></trkpt><trkpt lat="46.1423088" lon="12.2196921"><ele>364.0</ele><time>2026-04-26T15:39:27.856Z</time></trkpt><trkpt lat="46.1421946" lon="12.2196773"><ele>363.5</ele><time>2026-04-26T15:39:28.845Z</time></trkpt><trkpt lat="46.1420704" lon="12.2196722"><ele>363.0</ele><time>2026-04-26T15:39:29.853Z</time></trkpt><trkpt lat="46.1419438" lon="12.2196792"><ele>363.0</ele><time>2026-04-26T15:39:30.852Z</time></trkpt><trkpt lat="46.1418149" lon="12.2196934"><ele>363.0</ele><time>2026-04-26T15:39:31.848Z</time></trkpt><trkpt lat="46.141686" lon="12.2197001"><ele>363.0</ele><time>2026-04-26T15:39:32.856Z</time></trkpt><trkpt lat="46.1415575" lon="12.2197122"><ele>363.0</ele><time>2026-04-26T15:39:33.863Z</time></trkpt><trkpt lat="46.1414286" lon="12.219726"><ele>365.0</ele><time>2026-04-26T15:39:34.851Z</time></trkpt><trkpt lat="46.1412965" lon="12.2197279"><ele>367.0</ele><time>2026-04-26T15:39:35.854Z</time></trkpt><trkpt lat="46.1411582" lon="12.2197162"><ele>369.0</ele><time>2026-04-26T15:39:36.871Z</time></trkpt><trkpt lat="46.1410152" lon="12.2196961"><ele>371.0</ele><time>2026-04-26T15:39:37.855Z</time></trkpt><trkpt lat="46.140873" lon="12.2196633"><ele>371.0</ele><time>2026-04-26T15:39:38.851Z</time></trkpt><trkpt lat="46.1407341" lon="12.2196464"><ele>371.0</ele><time>2026-04-26T15:39:39.85Z</time></trkpt><trkpt lat="46.1405987" lon="12.2196561"><ele>371.0</ele><time>2026-04-26T15:39:40.85Z</time></trkpt><trkpt lat="46.1404625" lon="12.2196823"><ele>371.0</ele><time>2026-04-26T15:39:41.855Z</time></trkpt><trkpt lat="46.1403279" lon="12.2197343"><ele>372.5</ele><time>2026-04-26T15:39:42.854Z</time></trkpt><trkpt lat="46.1401928" lon="12.2198032"><ele>374.0</ele><time>2026-04-26T15:39:43.854Z</time></trkpt><trkpt lat="46.1400566" lon="12.219884"><ele>375.5</ele><time>2026-04-26T15:39:44.855Z</time></trkpt><trkpt lat="46.1399179" lon="12.2199645"><ele>377.0</ele><time>2026-04-26T15:39:45.856Z</time></trkpt><trkpt lat="46.1397788" lon="12.2200553"><ele>372.0</ele><time>2026-04-26T15:39:46.906Z</time></trkpt><trkpt lat="46.1396346" lon="12.2201509"><ele>367.0</ele><time>2026-04-26T15:39:47.874Z</time></trkpt><trkpt lat="46.1394913" lon="12.2202464"><ele>362.0</ele><time>2026-04-26T15:39:48.853Z</time></trkpt><trkpt lat="46.1393511" lon="12.2203444"><ele>362.0</ele><time>2026-04-26T15:39:49.864Z</time></trkpt><trkpt lat="46.139219" lon="12.2204481"><ele>362.0</ele><time>2026-04-26T15:39:50.865Z</time></trkpt><trkpt lat="46.1390899" lon="12.2205492"><ele>362.0</ele><time>2026-04-26T15:39:51.855Z</time></trkpt><trkpt lat="46.1389612" lon="12.2206443"><ele>362.0</ele><time>2026-04-26T15:39:52.852Z</time></trkpt><trkpt lat="46.1388314" lon="12.2207315"><ele>359.0</ele><time>2026-04-26T15:39:53.857Z</time></trkpt><trkpt lat="46.1387021" lon="12.2208143"><ele>356.0</ele><time>2026-04-26T15:39:54.855Z</time></trkpt><trkpt lat="46.1385755" lon="12.2208953"><ele>353.0</ele><time>2026-04-26T15:39:55.872Z</time></trkpt><trkpt lat="46.1384511" lon="12.2209752"><ele>350.0</ele><time>2026-04-26T15:39:56.854Z</time></trkpt><trkpt lat="46.1383357" lon="12.2210775"><ele>352.25</ele><time>2026-04-26T15:39:57.853Z</time></trkpt><trkpt lat="46.138218" lon="12.221164"><ele>354.5</ele><time>2026-04-26T15:39:58.854Z</time></trkpt><trkpt lat="46.1380963" lon="12.2212297"><ele>356.75</ele><time>2026-04-26T15:39:59.851Z</time></trkpt><trkpt lat="46.1379798" lon="12.2213029"><ele>359.0</ele><time>2026-04-26T15:40:00.855Z</time></trkpt><trkpt lat="46.1378708" lon="12.2213734"><ele>359.0</ele><time>2026-04-26T15:40:01.858Z</time></trkpt><trkpt lat="46.1377701" lon="12.2214281"><ele>359.0</ele><time>2026-04-26T15:40:02.85Z</time></trkpt><trkpt lat="46.1376843" lon="12.2214808"><ele>359.0</ele><time>2026-04-26T15:40:03.854Z</time></trkpt><trkpt lat="46.1376042" lon="12.2215181"><ele>359.0</ele><time>2026-04-26T15:40:04.858Z</time></trkpt><trkpt lat="46.1375326" lon="12.2215663"><ele>359.0</ele><time>2026-04-26T15:40:05.857Z</time></trkpt><trkpt lat="46.137463" lon="12.2215922"><ele>359.0</ele><time>2026-04-26T15:40:06.851Z</time></trkpt><trkpt lat="46.1374059" lon="12.2216392"><ele>358.0</ele><time>2026-04-26T15:40:07.849Z</time></trkpt><trkpt lat="46.1373654" lon="12.221717"><ele>357.0</ele><time>2026-04-26T15:40:08.846Z</time></trkpt><trkpt lat="46.137384" lon="12.2218323"><ele>356.0</ele><time>2026-04-26T15:40:09.85Z</time></trkpt><trkpt lat="46.1374267" lon="12.2219219"><ele>355.0</ele><time>2026-04-26T15:40:10.856Z</time></trkpt><trkpt lat="46.1374614" lon="12.2220126"><ele>354.0</ele><time>2026-04-26T15:40:11.862Z</time></trkpt><trkpt lat="46.1375076" lon="12.2221394"><ele>353.0</ele><time>2026-04-26T15:40:13.861Z</time></trkpt><trkpt lat="46.1375465" lon="12.2222753"><ele>350.59999999999997</ele><time>2026-04-26T15:44:53.967Z</time></trkpt><trkpt lat="46.1375894" lon="12.2223708"><ele>348.2</ele><time>2026-04-26T15:44:54.873Z</time></trkpt><trkpt lat="46.1376388" lon="12.222479"><ele>345.8</ele><time>2026-04-26T15:44:55.879Z</time></trkpt><trkpt lat="46.1376883" lon="12.2226015"><ele>343.4</ele><time>2026-04-26T15:44:56.864Z</time></trkpt><trkpt lat="46.1377353" lon="12.2227238"><ele>341.0</ele><time>2026-04-26T15:44:57.861Z</time></trkpt><trkpt lat="46.1377807" lon="12.2228405"><ele>341.0</ele><time>2026-04-26T15:44:58.863Z</time></trkpt><trkpt lat="46.137826" lon="12.2229422"><ele>341.0</ele><time>2026-04-26T15:44:59.861Z</time></trkpt><trkpt lat="46.1378517" lon="12.2230412"><ele>341.0</ele><time>2026-04-26T15:45:00.867Z</time></trkpt><trkpt lat="46.1378632" lon="12.223138"><ele>341.0</ele><time>2026-04-26T15:45:01.862Z</time></trkpt><trkpt lat="46.1378607" lon="12.2232335"><ele>341.0</ele><time>2026-04-26T15:45:02.871Z</time></trkpt><trkpt lat="46.1378147" lon="12.2233214"><ele>341.0</ele><time>2026-04-26T15:45:03.867Z</time></trkpt><trkpt lat="46.1377386" lon="12.2233877"><ele>340.5</ele><time>2026-04-26T15:45:04.884Z</time></trkpt><trkpt lat="46.137659" lon="12.2234556"><ele>340.0</ele><time>2026-04-26T15:45:05.866Z</time></trkpt><trkpt lat="46.1375701" lon="12.2235354"><ele>339.5</ele><time>2026-04-26T15:45:06.858Z</time></trkpt><trkpt lat="46.1374595" lon="12.2236147"><ele>339.0</ele><time>2026-04-26T15:45:07.865Z</time></trkpt><trkpt lat="46.1373403" lon="12.2237039"><ele>338.75</ele><time>2026-04-26T15:45:08.854Z</time></trkpt><trkpt lat="46.1372132" lon="12.2237962"><ele>338.5</ele><time>2026-04-26T15:45:09.865Z</time></trkpt><trkpt lat="46.1370841" lon="12.2238887"><ele>338.25</ele><time>2026-04-26T15:45:10.863Z</time></trkpt><trkpt lat="46.1369596" lon="12.2239798"><ele>338.0</ele><time>2026-04-26T15:45:11.865Z</time></trkpt><trkpt lat="46.1368411" lon="12.2240716"><ele>338.0</ele><time>2026-04-26T15:45:12.849Z</time></trkpt><trkpt lat="46.136724" lon="12.2241608"><ele>338.0</ele><time>2026-04-26T15:45:13.862Z</time></trkpt><trkpt lat="46.1366076" lon="12.2242514"><ele>338.0</ele><time>2026-04-26T15:45:14.863Z</time></trkpt><trkpt lat="46.1364927" lon="12.2243474"><ele>338.0</ele><time>2026-04-26T15:45:15.862Z</time></trkpt><trkpt lat="46.1363757" lon="12.2244396"><ele>338.0</ele><time>2026-04-26T15:45:16.863Z</time></trkpt><trkpt lat="46.1362584" lon="12.2245301"><ele>338.0</ele><time>2026-04-26T15:45:17.865Z</time></trkpt><trkpt lat="46.1361409" lon="12.2246195"><ele>338.0</ele><time>2026-04-26T15:45:18.857Z</time></trkpt><trkpt lat="46.1360236" lon="12.2247085"><ele>338.0</ele><time>2026-04-26T15:45:19.858Z</time></trkpt><trkpt lat="46.1359078" lon="12.2248038"><ele>338.0</ele><time>2026-04-26T15:45:20.86Z</time></trkpt><trkpt lat="46.1357912" lon="12.2248974"><ele>338.0</ele><time>2026-04-26T15:45:21.861Z</time></trkpt><trkpt lat="46.135669" lon="12.2249755"><ele>338.0</ele><time>2026-04-26T15:45:22.849Z</time></trkpt><trkpt lat="46.1355489" lon="12.2250613"><ele>338.0</ele><time>2026-04-26T15:45:23.859Z</time></trkpt><trkpt lat="46.1354341" lon="12.2251623"><ele>338.0</ele><time>2026-04-26T15:45:24.871Z</time></trkpt><trkpt lat="46.1353242" lon="12.2252769"><ele>338.0</ele><time>2026-04-26T15:45:25.857Z</time></trkpt><trkpt lat="46.1352216" lon="12.2254091"><ele>338.0</ele><time>2026-04-26T15:45:26.86Z</time></trkpt><trkpt lat="46.1351183" lon="12.2255502"><ele>338.0</ele><time>2026-04-26T15:45:27.856Z</time></trkpt><trkpt lat="46.1350202" lon="12.2257155"><ele>337.33333333333337</ele><time>2026-04-26T15:45:28.857Z</time></trkpt><trkpt lat="46.1349224" lon="12.2258969"><ele>336.6666666666667</ele><time>2026-04-26T15:45:29.864Z</time></trkpt><trkpt lat="46.1348217" lon="12.2260828"><ele>336.0</ele><time>2026-04-26T15:45:30.856Z</time></trkpt><trkpt lat="46.1347217" lon="12.2262711"><ele>336.0</ele><time>2026-04-26T15:45:31.871Z</time></trkpt><trkpt lat="46.1346249" lon="12.2264555"><ele>336.0</ele><time>2026-04-26T15:45:32.862Z</time></trkpt><trkpt lat="46.1345236" lon="12.2266298"><ele>336.0</ele><time>2026-04-26T15:45:33.862Z</time></trkpt><trkpt lat="46.1344297" lon="12.226796"><ele>337.4</ele><time>2026-04-26T15:45:34.951Z</time></trkpt><trkpt lat="46.1343469" lon="12.226954"><ele>338.8</ele><time>2026-04-26T15:45:35.874Z</time></trkpt><trkpt lat="46.1342729" lon="12.227084"><ele>340.2</ele><time>2026-04-26T15:45:36.863Z</time></trkpt><trkpt lat="46.1342263" lon="12.227196"><ele>341.59999999999997</ele><time>2026-04-26T15:45:37.865Z</time></trkpt><trkpt lat="46.1341877" lon="12.2272693"><ele>343.0</ele><time>2026-04-26T15:45:38.859Z</time></trkpt><trkpt lat="46.1341414" lon="12.2273319"><ele>344.0</ele><time>2026-04-26T15:45:40.853Z</time></trkpt><trkpt lat="46.1340634" lon="12.2273589"><ele>345.0</ele><time>2026-04-26T15:45:42.857Z</time></trkpt><trkpt lat="46.1339385" lon="12.227391"><ele>346.0</ele><time>2026-04-26T15:45:44.854Z</time></trkpt><trkpt lat="46.1338728" lon="12.2274529"><ele>347.0</ele><time>2026-04-26T15:45:45.851Z</time></trkpt><trkpt lat="46.133819" lon="12.2275421"><ele>348.0</ele><time>2026-04-26T15:45:46.857Z</time></trkpt><trkpt lat="46.1338086" lon="12.2276647"><ele>348.0</ele><time>2026-04-26T15:45:47.867Z</time></trkpt><trkpt lat="46.1338433" lon="12.2277854"><ele>348.0</ele><time>2026-04-26T15:45:48.852Z</time></trkpt><trkpt lat="46.133908" lon="12.2278798"><ele>348.0</ele><time>2026-04-26T15:45:49.848Z</time></trkpt><trkpt lat="46.1339977" lon="12.2279337"><ele>348.0</ele><time>2026-04-26T15:45:50.849Z</time></trkpt><trkpt lat="46.1340976" lon="12.2279932"><ele>348.0</ele><time>2026-04-26T15:45:51.847Z</time></trkpt><trkpt lat="46.1342022" lon="12.2280734"><ele>349.5</ele><time>2026-04-26T15:45:52.86Z</time></trkpt><trkpt lat="46.1342937" lon="12.228211"><ele>351.0</ele><time>2026-04-26T15:45:53.85Z</time></trkpt><trkpt lat="46.134385" lon="12.2283749"><ele>352.5</ele><time>2026-04-26T15:45:54.858Z</time></trkpt><trkpt lat="46.1344864" lon="12.2285507"><ele>354.0</ele><time>2026-04-26T15:45:55.856Z</time></trkpt><trkpt lat="46.1346043" lon="12.2287187"><ele>354.0</ele><time>2026-04-26T15:45:56.851Z</time></trkpt><trkpt lat="46.1347264" lon="12.2288765"><ele>354.0</ele><time>2026-04-26T15:45:57.856Z</time></trkpt><trkpt lat="46.1348476" lon="12.2290251"><ele>354.0</ele><time>2026-04-26T15:45:58.861Z</time></trkpt><trkpt lat="46.134976" lon="12.2291551"><ele>352.6666666666667</ele><time>2026-04-26T15:45:59.852Z</time></trkpt><trkpt lat="46.1351098" lon="12.229277"><ele>351.33333333333337</ele><time>2026-04-26T15:46:00.857Z</time></trkpt><trkpt lat="46.1352453" lon="12.2294037"><ele>350.0</ele><time>2026-04-26T15:46:01.87Z</time></trkpt><trkpt lat="46.1353829" lon="12.2295325"><ele>350.0</ele><time>2026-04-26T15:46:02.849Z</time></trkpt><trkpt lat="46.1355215" lon="12.229664"><ele>350.0</ele><time>2026-04-26T15:46:03.86Z</time></trkpt><trkpt lat="46.1356648" lon="12.2297978"><ele>350.0</ele><time>2026-04-26T15:46:04.858Z</time></trkpt><trkpt lat="46.1358105" lon="12.2299381"><ele>351.0</ele><time>2026-04-26T15:46:05.849Z</time></trkpt><trkpt lat="46.1359527" lon="12.2300872"><ele>352.0</ele><time>2026-04-26T15:46:06.855Z</time></trkpt><trkpt lat="46.1361071" lon="12.2302286"><ele>353.0</ele><time>2026-04-26T15:46:07.851Z</time></trkpt><trkpt lat="46.1362608" lon="12.2303874"><ele>353.0</ele><time>2026-04-26T15:46:08.861Z</time></trkpt><trkpt lat="46.1364186" lon="12.2305443"><ele>353.0</ele><time>2026-04-26T15:46:09.858Z</time></trkpt><trkpt lat="46.1365678" lon="12.230719"><ele>353.0</ele><time>2026-04-26T15:46:10.873Z</time></trkpt><trkpt lat="46.1367119" lon="12.230899"><ele>353.6666666666667</ele><time>2026-04-26T15:46:11.853Z</time></trkpt><trkpt lat="46.1368658" lon="12.2310676"><ele>354.3333333333333</ele><time>2026-04-26T15:46:12.85Z</time></trkpt><trkpt lat="46.1370151" lon="12.2312462"><ele>355.0</ele><time>2026-04-26T15:46:13.86Z</time></trkpt><trkpt lat="46.1371652" lon="12.2314174"><ele>354.66666666666663</ele><time>2026-04-26T15:46:14.851Z</time></trkpt><trkpt lat="46.137309" lon="12.2315818"><ele>354.3333333333333</ele><time>2026-04-26T15:46:15.856Z</time></trkpt><trkpt lat="46.1374455" lon="12.2317492"><ele>354.0</ele><time>2026-04-26T15:46:16.876Z</time></trkpt><trkpt lat="46.1375765" lon="12.2319156"><ele>354.0</ele><time>2026-04-26T15:46:17.852Z</time></trkpt><trkpt lat="46.1377111" lon="12.2320781"><ele>354.0</ele><time>2026-04-26T15:46:18.853Z</time></trkpt><trkpt lat="46.137844" lon="12.2322416"><ele>354.0</ele><time>2026-04-26T15:46:19.855Z</time></trkpt><trkpt lat="46.1379769" lon="12.2324026"><ele>353.0</ele><time>2026-04-26T15:46:20.855Z</time></trkpt><trkpt lat="46.1381043" lon="12.232572"><ele>352.0</ele><time>2026-04-26T15:46:21.854Z</time></trkpt><trkpt lat="46.1382306" lon="12.2327317"><ele>351.0</ele><time>2026-04-26T15:46:22.868Z</time></trkpt><trkpt lat="46.1383532" lon="12.2328962"><ele>351.0</ele><time>2026-04-26T15:46:23.863Z</time></trkpt><trkpt lat="46.1384755" lon="12.2330671"><ele>351.0</ele><time>2026-04-26T15:46:24.854Z</time></trkpt><trkpt lat="46.138598" lon="12.2332342"><ele>351.0</ele><time>2026-04-26T15:46:25.861Z</time></trkpt><trkpt lat="46.1387188" lon="12.2334111"><ele>350.6666666666667</ele><time>2026-04-26T15:46:26.859Z</time></trkpt><trkpt lat="46.1388409" lon="12.2335885"><ele>350.33333333333337</ele><time>2026-04-26T15:46:27.858Z</time></trkpt><trkpt lat="46.1389678" lon="12.2337737"><ele>350.0</ele><time>2026-04-26T15:46:28.866Z</time></trkpt><trkpt lat="46.1390982" lon="12.2339551"><ele>353.6666666666667</ele><time>2026-04-26T15:46:29.864Z</time></trkpt><trkpt lat="46.1392278" lon="12.2341423"><ele>357.3333333333333</ele><time>2026-04-26T15:46:30.876Z</time></trkpt><trkpt lat="46.1393604" lon="12.2343378"><ele>361.0</ele><time>2026-04-26T15:46:31.859Z</time></trkpt><trkpt lat="46.1394958" lon="12.2345336"><ele>361.0</ele><time>2026-04-26T15:46:32.86Z</time></trkpt><trkpt lat="46.1396339" lon="12.2347297"><ele>361.0</ele><time>2026-04-26T15:46:33.865Z</time></trkpt><trkpt lat="46.1397714" lon="12.2349255"><ele>361.0</ele><time>2026-04-26T15:46:34.857Z</time></trkpt><trkpt lat="46.1399105" lon="12.2351169"><ele>360.0</ele><time>2026-04-26T15:46:35.867Z</time></trkpt><trkpt lat="46.1400442" lon="12.2353091"><ele>359.0</ele><time>2026-04-26T15:46:36.867Z</time></trkpt><trkpt lat="46.1401709" lon="12.2355038"><ele>358.0</ele><time>2026-04-26T15:46:37.848Z</time></trkpt><trkpt lat="46.1402971" lon="12.2356933"><ele>362.66666666666663</ele><time>2026-04-26T15:46:38.859Z</time></trkpt><trkpt lat="46.1404224" lon="12.2358816"><ele>367.3333333333333</ele><time>2026-04-26T15:46:39.856Z</time></trkpt><trkpt lat="46.1405496" lon="12.2360628"><ele>372.0</ele><time>2026-04-26T15:46:40.869Z</time></trkpt><trkpt lat="46.1406753" lon="12.2362461"><ele>370.0</ele><time>2026-04-26T15:46:41.855Z</time></trkpt><trkpt lat="46.1407925" lon="12.2364375"><ele>368.0</ele><time>2026-04-26T15:46:42.856Z</time></trkpt><trkpt lat="46.1409113" lon="12.2366288"><ele>366.0</ele><time>2026-04-26T15:46:43.856Z</time></trkpt><trkpt lat="46.141038" lon="12.2368131"><ele>366.0</ele><time>2026-04-26T15:46:44.869Z</time></trkpt><trkpt lat="46.1411669" lon="12.2369951"><ele>366.0</ele><time>2026-04-26T15:46:45.871Z</time></trkpt><trkpt lat="46.1412967" lon="12.2371764"><ele>366.0</ele><time>2026-04-26T15:46:46.866Z</time></trkpt><trkpt lat="46.141432" lon="12.2373544"><ele>363.0</ele><time>2026-04-26T15:46:47.857Z</time></trkpt><trkpt lat="46.1415677" lon="12.2375404"><ele>360.0</ele><time>2026-04-26T15:46:48.857Z</time></trkpt><trkpt lat="46.1417001" lon="12.2377289"><ele>357.0</ele><time>2026-04-26T15:46:49.865Z</time></trkpt><trkpt lat="46.1418293" lon="12.2379212"><ele>357.0</ele><time>2026-04-26T15:46:50.853Z</time></trkpt><trkpt lat="46.1419649" lon="12.2381128"><ele>357.0</ele><time>2026-04-26T15:46:51.857Z</time></trkpt><trkpt lat="46.1420917" lon="12.2383108"><ele>357.0</ele><time>2026-04-26T15:46:52.861Z</time></trkpt><trkpt lat="46.142229" lon="12.2384936"><ele>357.0</ele><time>2026-04-26T15:46:53.862Z</time></trkpt><trkpt lat="46.1423629" lon="12.2386788"><ele>357.0</ele><time>2026-04-26T15:46:54.861Z</time></trkpt><trkpt lat="46.1424922" lon="12.2388723"><ele>357.0</ele><time>2026-04-26T15:46:55.877Z</time></trkpt><trkpt lat="46.1426204" lon="12.2390681"><ele>361.3333333333333</ele><time>2026-04-26T15:46:56.856Z</time></trkpt><trkpt lat="46.1427424" lon="12.2392716"><ele>365.66666666666663</ele><time>2026-04-26T15:46:57.859Z</time></trkpt><trkpt lat="46.1428656" lon="12.2394664"><ele>370.0</ele><time>2026-04-26T15:46:58.864Z</time></trkpt><trkpt lat="46.1429816" lon="12.2396589"><ele>367.0</ele><time>2026-04-26T15:46:59.861Z</time></trkpt><trkpt lat="46.1430886" lon="12.2398583"><ele>364.0</ele><time>2026-04-26T15:47:00.864Z</time></trkpt><trkpt lat="46.1432025" lon="12.2400495"><ele>361.0</ele><time>2026-04-26T15:47:01.855Z</time></trkpt><trkpt lat="46.1433138" lon="12.240243"><ele>361.0</ele><time>2026-04-26T15:47:02.856Z</time></trkpt><trkpt lat="46.1434261" lon="12.2404324"><ele>361.0</ele><time>2026-04-26T15:47:03.857Z</time></trkpt><trkpt lat="46.143537" lon="12.2406285"><ele>361.0</ele><time>2026-04-26T15:47:04.861Z</time></trkpt><trkpt lat="46.1436505" lon="12.2408291"><ele>365.3333333333333</ele><time>2026-04-26T15:47:05.854Z</time></trkpt><trkpt lat="46.1437673" lon="12.241032"><ele>369.6666666666667</ele><time>2026-04-26T15:47:06.876Z</time></trkpt><trkpt lat="46.1438901" lon="12.2412317"><ele>374.0</ele><time>2026-04-26T15:47:07.863Z</time></trkpt><trkpt lat="46.1440092" lon="12.2414391"><ele>372.33333333333337</ele><time>2026-04-26T15:47:08.857Z</time></trkpt><trkpt lat="46.1441304" lon="12.2416413"><ele>370.6666666666667</ele><time>2026-04-26T15:47:09.863Z</time></trkpt><trkpt lat="46.1442499" lon="12.2418409"><ele>369.0</ele><time>2026-04-26T15:47:10.857Z</time></trkpt><trkpt lat="46.1443659" lon="12.2420432"><ele>369.0</ele><time>2026-04-26T15:47:11.866Z</time></trkpt><trkpt lat="46.1444821" lon="12.2422466"><ele>369.0</ele><time>2026-04-26T15:47:12.866Z</time></trkpt><trkpt lat="46.1445986" lon="12.2424506"><ele>369.0</ele><time>2026-04-26T15:47:13.861Z</time></trkpt><trkpt lat="46.1447178" lon="12.242652"><ele>369.6666666666667</ele><time>2026-04-26T15:47:14.864Z</time></trkpt><trkpt lat="46.1448347" lon="12.2428551"><ele>370.33333333333337</ele><time>2026-04-26T15:47:15.855Z</time></trkpt><trkpt lat="46.1449598" lon="12.243048"><ele>371.0</ele><time>2026-04-26T15:47:16.856Z</time></trkpt><trkpt lat="46.1450914" lon="12.2432281"><ele>371.0</ele><time>2026-04-26T15:47:17.869Z</time></trkpt><trkpt lat="46.1452454" lon="12.2433757"><ele>371.0</ele><time>2026-04-26T15:47:18.863Z</time></trkpt><trkpt lat="46.1453913" lon="12.2435367"><ele>371.0</ele><time>2026-04-26T15:47:19.851Z</time></trkpt><trkpt lat="46.1455355" lon="12.2436988"><ele>371.0</ele><time>2026-04-26T15:47:20.857Z</time></trkpt><trkpt lat="46.1456793" lon="12.2438647"><ele>371.0</ele><time>2026-04-26T15:47:21.866Z</time></trkpt><trkpt lat="46.1458244" lon="12.2440323"><ele>371.0</ele><time>2026-04-26T15:47:22.86Z</time></trkpt><trkpt lat="46.1459674" lon="12.2442053"><ele>370.6666666666667</ele><time>2026-04-26T15:47:23.865Z</time></trkpt><trkpt lat="46.1461122" lon="12.2443775"><ele>370.3333333333333</ele><time>2026-04-26T15:47:24.852Z</time></trkpt><trkpt lat="46.1462562" lon="12.2445477"><ele>370.0</ele><time>2026-04-26T15:47:25.849Z</time></trkpt><trkpt lat="46.1463965" lon="12.2447181"><ele>371.0</ele><time>2026-04-26T15:47:26.85Z</time></trkpt><trkpt lat="46.1465385" lon="12.2448769"><ele>372.0</ele><time>2026-04-26T15:47:27.863Z</time></trkpt><trkpt lat="46.1466753" lon="12.2450426"><ele>373.0</ele><time>2026-04-26T15:47:28.861Z</time></trkpt><trkpt lat="46.14679" lon="12.2452499"><ele>373.0</ele><time>2026-04-26T15:47:29.866Z</time></trkpt><trkpt lat="46.1469391" lon="12.2454038"><ele>373.0</ele><time>2026-04-26T15:47:30.864Z</time></trkpt><trkpt lat="46.1470799" lon="12.245573"><ele>373.0</ele><time>2026-04-26T15:47:31.868Z</time></trkpt><trkpt lat="46.1472156" lon="12.2457525"><ele>372.0</ele><time>2026-04-26T15:47:32.852Z</time></trkpt><trkpt lat="46.1473534" lon="12.2459339"><ele>371.0</ele><time>2026-04-26T15:47:33.855Z</time></trkpt><trkpt lat="46.1474861" lon="12.2461271"><ele>370.0</ele><time>2026-04-26T15:47:34.856Z</time></trkpt><trkpt lat="46.147618" lon="12.2463264"><ele>372.3333333333333</ele><time>2026-04-26T15:47:35.861Z</time></trkpt><trkpt lat="46.1477458" lon="12.2465337"><ele>374.6666666666667</ele><time>2026-04-26T15:47:36.856Z</time></trkpt><trkpt lat="46.1478684" lon="12.2467535"><ele>377.0</ele><time>2026-04-26T15:47:37.854Z</time></trkpt><trkpt lat="46.147984" lon="12.2469829"><ele>377.0</ele><time>2026-04-26T15:47:38.848Z</time></trkpt><trkpt lat="46.148092" lon="12.247218"><ele>377.0</ele><time>2026-04-26T15:47:39.856Z</time></trkpt><trkpt lat="46.148179" lon="12.247471"><ele>377.0</ele><time>2026-04-26T15:47:40.861Z</time></trkpt><trkpt lat="46.1482714" lon="12.2477086"><ele>377.33333333333337</ele><time>2026-04-26T15:47:41.874Z</time></trkpt><trkpt lat="46.1483685" lon="12.2479397"><ele>377.6666666666667</ele><time>2026-04-26T15:47:42.887Z</time></trkpt><trkpt lat="46.1484594" lon="12.2481719"><ele>378.0</ele><time>2026-04-26T15:47:43.863Z</time></trkpt><trkpt lat="46.1485571" lon="12.2484048"><ele>378.0</ele><time>2026-04-26T15:47:44.861Z</time></trkpt><trkpt lat="46.1486404" lon="12.2486457"><ele>378.0</ele><time>2026-04-26T15:47:45.863Z</time></trkpt><trkpt lat="46.1487133" lon="12.2488924"><ele>378.0</ele><time>2026-04-26T15:47:46.869Z</time></trkpt><trkpt lat="46.1487911" lon="12.2491349"><ele>378.0</ele><time>2026-04-26T15:47:47.861Z</time></trkpt><trkpt lat="46.1488711" lon="12.2493794"><ele>378.0</ele><time>2026-04-26T15:47:48.854Z</time></trkpt><trkpt lat="46.1489513" lon="12.2496269"><ele>378.0</ele><time>2026-04-26T15:47:49.858Z</time></trkpt><trkpt lat="46.1490335" lon="12.2498765"><ele>376.6666666666667</ele><time>2026-04-26T15:47:50.857Z</time></trkpt><trkpt lat="46.1491217" lon="12.2501262"><ele>375.33333333333337</ele><time>2026-04-26T15:47:51.87Z</time></trkpt><trkpt lat="46.1492094" lon="12.2503772"><ele>374.0</ele><time>2026-04-26T15:47:52.862Z</time></trkpt><trkpt lat="46.1492969" lon="12.2506271"><ele>374.0</ele><time>2026-04-26T15:47:53.854Z</time></trkpt><trkpt lat="46.1493826" lon="12.2508713"><ele>374.0</ele><time>2026-04-26T15:47:54.867Z</time></trkpt><trkpt lat="46.1494697" lon="12.2511078"><ele>374.0</ele><time>2026-04-26T15:47:55.867Z</time></trkpt><trkpt lat="46.1495549" lon="12.2513456"><ele>373.6666666666667</ele><time>2026-04-26T15:47:56.855Z</time></trkpt><trkpt lat="46.1496346" lon="12.2515813"><ele>373.3333333333333</ele><time>2026-04-26T15:47:57.863Z</time></trkpt><trkpt lat="46.14971" lon="12.2518126"><ele>373.0</ele><time>2026-04-26T15:47:58.86Z</time></trkpt><trkpt lat="46.1497876" lon="12.2520326"><ele>373.0</ele><time>2026-04-26T15:47:59.853Z</time></trkpt><trkpt lat="46.1498594" lon="12.2522478"><ele>373.0</ele><time>2026-04-26T15:48:00.878Z</time></trkpt><trkpt lat="46.1499301" lon="12.2524549"><ele>373.0</ele><time>2026-04-26T15:48:01.853Z</time></trkpt><trkpt lat="46.1499985" lon="12.2526558"><ele>373.25</ele><time>2026-04-26T15:48:02.853Z</time></trkpt><trkpt lat="46.1500525" lon="12.2528603"><ele>373.5</ele><time>2026-04-26T15:48:03.861Z</time></trkpt><trkpt lat="46.1501157" lon="12.253054"><ele>373.75</ele><time>2026-04-26T15:48:04.857Z</time></trkpt><trkpt lat="46.1501773" lon="12.2532378"><ele>374.0</ele><time>2026-04-26T15:48:05.885Z</time></trkpt><trkpt lat="46.1502396" lon="12.25341"><ele>374.0</ele><time>2026-04-26T15:48:06.849Z</time></trkpt><trkpt lat="46.1502926" lon="12.2535783"><ele>374.0</ele><time>2026-04-26T15:48:07.85Z</time></trkpt><trkpt lat="46.1503464" lon="12.2537368"><ele>374.0</ele><time>2026-04-26T15:48:08.874Z</time></trkpt><trkpt lat="46.1503991" lon="12.2538899"><ele>374.0</ele><time>2026-04-26T15:48:09.864Z</time></trkpt><trkpt lat="46.1504516" lon="12.254044"><ele>374.75</ele><time>2026-04-26T15:48:10.855Z</time></trkpt><trkpt lat="46.1505095" lon="12.2541966"><ele>375.5</ele><time>2026-04-26T15:48:11.856Z</time></trkpt><trkpt lat="46.150561" lon="12.2543493"><ele>376.25</ele><time>2026-04-26T15:48:12.866Z</time></trkpt><trkpt lat="46.150605" lon="12.2545006"><ele>377.0</ele><time>2026-04-26T15:48:13.86Z</time></trkpt><trkpt lat="46.150642" lon="12.2546516"><ele>376.8</ele><time>2026-04-26T15:48:14.866Z</time></trkpt><trkpt lat="46.1506756" lon="12.2547996"><ele>376.6</ele><time>2026-04-26T15:48:15.863Z</time></trkpt><trkpt lat="46.1507035" lon="12.2549425"><ele>376.40000000000003</ele><time>2026-04-26T15:48:16.862Z</time></trkpt><trkpt lat="46.1507156" lon="12.2550622"><ele>376.20000000000005</ele><time>2026-04-26T15:48:17.873Z</time></trkpt><trkpt lat="46.1507479" lon="12.2551776"><ele>376.0</ele><time>2026-04-26T15:48:19.869Z</time></trkpt><trkpt lat="46.1507808" lon="12.2552789"><ele>375.6</ele><time>2026-04-26T15:48:23.879Z</time></trkpt><trkpt lat="46.1508071" lon="12.2554047"><ele>375.20000000000005</ele><time>2026-04-26T15:48:25.89Z</time></trkpt><trkpt lat="46.1508048" lon="12.2555096"><ele>374.79999999999995</ele><time>2026-04-26T15:48:26.852Z</time></trkpt><trkpt lat="46.1508148" lon="12.2556422"><ele>374.4</ele><time>2026-04-26T15:48:27.861Z</time></trkpt><trkpt lat="46.1508196" lon="12.2558022"><ele>374.0</ele><time>2026-04-26T15:48:28.858Z</time></trkpt><trkpt lat="46.1508309" lon="12.2559755"><ele>374.0</ele><time>2026-04-26T15:48:29.863Z</time></trkpt><trkpt lat="46.1508445" lon="12.2561633"><ele>374.0</ele><time>2026-04-26T15:48:30.854Z</time></trkpt><trkpt lat="46.1508764" lon="12.2563587"><ele>374.0</ele><time>2026-04-26T15:48:31.858Z</time></trkpt><trkpt lat="46.1509027" lon="12.2565731"><ele>374.0</ele><time>2026-04-26T15:48:32.869Z</time></trkpt><trkpt lat="46.1509308" lon="12.2567922"><ele>374.33333333333337</ele><time>2026-04-26T15:48:33.863Z</time></trkpt><trkpt lat="46.1509599" lon="12.2570172"><ele>374.6666666666667</ele><time>2026-04-26T15:48:34.871Z</time></trkpt><trkpt lat="46.1509902" lon="12.2572497"><ele>375.0</ele><time>2026-04-26T15:48:35.859Z</time></trkpt><trkpt lat="46.1510215" lon="12.2574926"><ele>375.0</ele><time>2026-04-26T15:48:36.86Z</time></trkpt><trkpt lat="46.1510534" lon="12.2577414"><ele>375.0</ele><time>2026-04-26T15:48:37.854Z</time></trkpt><trkpt lat="46.1510868" lon="12.2580022"><ele>375.0</ele><time>2026-04-26T15:48:38.857Z</time></trkpt><trkpt lat="46.1511172" lon="12.2582662"><ele>375.0</ele><time>2026-04-26T15:48:39.864Z</time></trkpt><trkpt lat="46.15115" lon="12.2585327"><ele>375.0</ele><time>2026-04-26T15:48:40.86Z</time></trkpt><trkpt lat="46.1511851" lon="12.2587974"><ele>375.0</ele><time>2026-04-26T15:48:41.853Z</time></trkpt><trkpt lat="46.1512206" lon="12.25906"><ele>375.0</ele><time>2026-04-26T15:48:42.854Z</time></trkpt><trkpt lat="46.151255" lon="12.2593184"><ele>375.0</ele><time>2026-04-26T15:48:43.857Z</time></trkpt><trkpt lat="46.1512881" lon="12.2595662"><ele>375.0</ele><time>2026-04-26T15:48:44.855Z</time></trkpt><trkpt lat="46.1513202" lon="12.259811"><ele>375.0</ele><time>2026-04-26T15:48:45.857Z</time></trkpt><trkpt lat="46.1513519" lon="12.260047"><ele>375.0</ele><time>2026-04-26T15:48:46.854Z</time></trkpt><trkpt lat="46.151385" lon="12.2602785"><ele>375.0</ele><time>2026-04-26T15:48:47.854Z</time></trkpt><trkpt lat="46.1514164" lon="12.2605021"><ele>374.75</ele><time>2026-04-26T15:48:48.854Z</time></trkpt><trkpt lat="46.1514462" lon="12.2607185"><ele>374.5</ele><time>2026-04-26T15:48:49.862Z</time></trkpt><trkpt lat="46.151475" lon="12.2609283"><ele>374.25</ele><time>2026-04-26T15:48:50.861Z</time></trkpt><trkpt lat="46.1515079" lon="12.2611277"><ele>374.0</ele><time>2026-04-26T15:48:51.858Z</time></trkpt><trkpt lat="46.1515516" lon="12.2613093"><ele>373.5</ele><time>2026-04-26T15:48:52.856Z</time></trkpt><trkpt lat="46.1516032" lon="12.261481"><ele>373.0</ele><time>2026-04-26T15:48:53.864Z</time></trkpt><trkpt lat="46.1516664" lon="12.2616424"><ele>372.5</ele><time>2026-04-26T15:48:54.851Z</time></trkpt><trkpt lat="46.1517441" lon="12.2617901"><ele>372.0</ele><time>2026-04-26T15:48:55.854Z</time></trkpt><trkpt lat="46.1518337" lon="12.2619331"><ele>372.0</ele><time>2026-04-26T15:48:56.865Z</time></trkpt><trkpt lat="46.1519327" lon="12.2620717"><ele>372.0</ele><time>2026-04-26T15:48:57.85Z</time></trkpt><trkpt lat="46.152041" lon="12.2622092"><ele>372.0</ele><time>2026-04-26T15:48:58.872Z</time></trkpt><trkpt lat="46.1521483" lon="12.2623438"><ele>372.0</ele><time>2026-04-26T15:48:59.861Z</time></trkpt><trkpt lat="46.1522549" lon="12.2624838"><ele>371.75</ele><time>2026-04-26T15:49:00.87Z</time></trkpt><trkpt lat="46.1523617" lon="12.2626219"><ele>371.5</ele><time>2026-04-26T15:49:01.859Z</time></trkpt><trkpt lat="46.1524695" lon="12.2627602"><ele>371.25</ele><time>2026-04-26T15:49:02.857Z</time></trkpt><trkpt lat="46.152578" lon="12.2629008"><ele>371.0</ele><time>2026-04-26T15:49:03.866Z</time></trkpt><trkpt lat="46.1526893" lon="12.2630415"><ele>371.6666666666667</ele><time>2026-04-26T15:49:04.868Z</time></trkpt><trkpt lat="46.152801" lon="12.2631823"><ele>372.3333333333333</ele><time>2026-04-26T15:49:05.857Z</time></trkpt><trkpt lat="46.1529139" lon="12.2633282"><ele>373.0</ele><time>2026-04-26T15:49:06.851Z</time></trkpt><trkpt lat="46.153029" lon="12.2634803"><ele>373.0</ele><time>2026-04-26T15:49:07.863Z</time></trkpt><trkpt lat="46.1531449" lon="12.2636353"><ele>373.0</ele><time>2026-04-26T15:49:08.864Z</time></trkpt><trkpt lat="46.1532666" lon="12.2637958"><ele>373.0</ele><time>2026-04-26T15:49:09.873Z</time></trkpt><trkpt lat="46.1533895" lon="12.2639608"><ele>373.3333333333333</ele><time>2026-04-26T15:49:10.853Z</time></trkpt><trkpt lat="46.1535121" lon="12.264139"><ele>373.6666666666667</ele><time>2026-04-26T15:49:11.851Z</time></trkpt><trkpt lat="46.1536335" lon="12.264302"><ele>374.0</ele><time>2026-04-26T15:49:12.853Z</time></trkpt><trkpt lat="46.1537588" lon="12.2644496"><ele>374.0</ele><time>2026-04-26T15:49:13.86Z</time></trkpt><trkpt lat="46.1538867" lon="12.2645779"><ele>374.0</ele><time>2026-04-26T15:49:14.858Z</time></trkpt><trkpt lat="46.1540185" lon="12.2646976"><ele>374.0</ele><time>2026-04-26T15:49:15.854Z</time></trkpt><trkpt lat="46.1541529" lon="12.2648066"><ele>374.25</ele><time>2026-04-26T15:49:16.851Z</time></trkpt><trkpt lat="46.1542887" lon="12.2649055"><ele>374.5</ele><time>2026-04-26T15:49:17.845Z</time></trkpt><trkpt lat="46.1544222" lon="12.2649998"><ele>374.75</ele><time>2026-04-26T15:49:18.855Z</time></trkpt><trkpt lat="46.1545543" lon="12.2650922"><ele>375.0</ele><time>2026-04-26T15:49:19.856Z</time></trkpt><trkpt lat="46.1546866" lon="12.265187"><ele>375.0</ele><time>2026-04-26T15:49:20.853Z</time></trkpt><trkpt lat="46.1548184" lon="12.2652819"><ele>375.0</ele><time>2026-04-26T15:49:21.848Z</time></trkpt><trkpt lat="46.1549508" lon="12.2653742"><ele>375.0</ele><time>2026-04-26T15:49:22.85Z</time></trkpt><trkpt lat="46.1550822" lon="12.2654652"><ele>375.0</ele><time>2026-04-26T15:49:23.856Z</time></trkpt><trkpt lat="46.1552126" lon="12.2655482"><ele>375.75</ele><time>2026-04-26T15:49:24.857Z</time></trkpt><trkpt lat="46.1553452" lon="12.2656193"><ele>376.5</ele><time>2026-04-26T15:49:25.857Z</time></trkpt><trkpt lat="46.1554792" lon="12.2656786"><ele>377.25</ele><time>2026-04-26T15:49:26.862Z</time></trkpt><trkpt lat="46.155618" lon="12.265731"><ele>378.0</ele><time>2026-04-26T15:49:27.863Z</time></trkpt><trkpt lat="46.1557555" lon="12.2657702"><ele>378.0</ele><time>2026-04-26T15:49:28.843Z</time></trkpt><trkpt lat="46.1559024" lon="12.2658058"><ele>378.0</ele><time>2026-04-26T15:49:29.86Z</time></trkpt><trkpt lat="46.1560537" lon="12.2658348"><ele>378.0</ele><time>2026-04-26T15:49:30.871Z</time></trkpt><trkpt lat="46.1562122" lon="12.2658611"><ele>378.0</ele><time>2026-04-26T15:49:31.871Z</time></trkpt><trkpt lat="46.1563716" lon="12.2658885"><ele>378.0</ele><time>2026-04-26T15:49:32.861Z</time></trkpt><trkpt lat="46.1565331" lon="12.2659161"><ele>378.0</ele><time>2026-04-26T15:49:33.851Z</time></trkpt><trkpt lat="46.1567037" lon="12.2659451"><ele>376.0</ele><time>2026-04-26T15:49:34.858Z</time></trkpt><trkpt lat="46.1568699" lon="12.2659738"><ele>374.0</ele><time>2026-04-26T15:49:35.856Z</time></trkpt><trkpt lat="46.1570347" lon="12.2660029"><ele>372.0</ele><time>2026-04-26T15:49:36.848Z</time></trkpt><trkpt lat="46.157192" lon="12.2660389"><ele>372.0</ele><time>2026-04-26T15:49:37.862Z</time></trkpt><trkpt lat="46.1573464" lon="12.2660692"><ele>372.0</ele><time>2026-04-26T15:49:38.854Z</time></trkpt><trkpt lat="46.1575026" lon="12.2661005"><ele>372.0</ele><time>2026-04-26T15:49:39.85Z</time></trkpt><trkpt lat="46.15766" lon="12.2661375"><ele>371.0</ele><time>2026-04-26T15:49:40.846Z</time></trkpt><trkpt lat="46.157817" lon="12.2661825"><ele>370.0</ele><time>2026-04-26T15:49:41.857Z</time></trkpt><trkpt lat="46.1579719" lon="12.2662417"><ele>369.0</ele><time>2026-04-26T15:49:42.856Z</time></trkpt><trkpt lat="46.1581259" lon="12.2663141"><ele>368.6666666666667</ele><time>2026-04-26T15:49:43.854Z</time></trkpt><trkpt lat="46.1582777" lon="12.2663938"><ele>368.33333333333337</ele><time>2026-04-26T15:49:44.869Z</time></trkpt><trkpt lat="46.1584221" lon="12.266478"><ele>368.0</ele><time>2026-04-26T15:49:45.864Z</time></trkpt><trkpt lat="46.158565" lon="12.266569"><ele>372.33333333333337</ele><time>2026-04-26T15:49:46.858Z</time></trkpt><trkpt lat="46.1587028" lon="12.2666664"><ele>376.6666666666667</ele><time>2026-04-26T15:49:47.848Z</time></trkpt><trkpt lat="46.1588397" lon="12.266773"><ele>381.0</ele><time>2026-04-26T15:49:48.862Z</time></trkpt><trkpt lat="46.1589697" lon="12.2668802"><ele>377.6666666666667</ele><time>2026-04-26T15:49:49.853Z</time></trkpt><trkpt lat="46.1591018" lon="12.2669919"><ele>374.33333333333337</ele><time>2026-04-26T15:49:50.851Z</time></trkpt><trkpt lat="46.1592322" lon="12.2671025"><ele>371.0</ele><time>2026-04-26T15:49:51.839Z</time></trkpt><trkpt lat="46.1593655" lon="12.2672157"><ele>374.6666666666667</ele><time>2026-04-26T15:49:52.867Z</time></trkpt><trkpt lat="46.1594983" lon="12.2673278"><ele>378.3333333333333</ele><time>2026-04-26T15:49:53.852Z</time></trkpt><trkpt lat="46.1596314" lon="12.2674409"><ele>382.0</ele><time>2026-04-26T15:49:54.847Z</time></trkpt><trkpt lat="46.159764" lon="12.2675555"><ele>379.66666666666663</ele><time>2026-04-26T15:49:55.848Z</time></trkpt><trkpt lat="46.159896" lon="12.2676713"><ele>377.3333333333333</ele><time>2026-04-26T15:49:56.855Z</time></trkpt><trkpt lat="46.1600315" lon="12.2677839"><ele>375.0</ele><time>2026-04-26T15:49:57.853Z</time></trkpt><trkpt lat="46.1601617" lon="12.2678933"><ele>375.0</ele><time>2026-04-26T15:49:58.842Z</time></trkpt><trkpt lat="46.1602936" lon="12.2680051"><ele>375.0</ele><time>2026-04-26T15:49:59.865Z</time></trkpt><trkpt lat="46.1604253" lon="12.2681164"><ele>375.0</ele><time>2026-04-26T15:50:00.852Z</time></trkpt><trkpt lat="46.1605601" lon="12.2682294"><ele>377.0</ele><time>2026-04-26T15:50:01.855Z</time></trkpt><trkpt lat="46.1606925" lon="12.2683416"><ele>379.0</ele><time>2026-04-26T15:50:02.847Z</time></trkpt><trkpt lat="46.160828" lon="12.2684578"><ele>381.0</ele><time>2026-04-26T15:50:03.864Z</time></trkpt><trkpt lat="46.160961" lon="12.2685704"><ele>381.0</ele><time>2026-04-26T15:50:04.86Z</time></trkpt><trkpt lat="46.1610893" lon="12.2686803"><ele>381.0</ele><time>2026-04-26T15:50:05.855Z</time></trkpt><trkpt lat="46.1612174" lon="12.2687895"><ele>381.0</ele><time>2026-04-26T15:50:06.857Z</time></trkpt><trkpt lat="46.1613455" lon="12.2688957"><ele>381.0</ele><time>2026-04-26T15:50:07.861Z</time></trkpt><trkpt lat="46.1614683" lon="12.2690023"><ele>382.25</ele><time>2026-04-26T15:50:08.852Z</time></trkpt><trkpt lat="46.1615891" lon="12.2691105"><ele>383.5</ele><time>2026-04-26T15:50:09.851Z</time></trkpt><trkpt lat="46.1617092" lon="12.269218"><ele>384.75</ele><time>2026-04-26T15:50:10.851Z</time></trkpt><trkpt lat="46.1618288" lon="12.2693276"><ele>386.0</ele><time>2026-04-26T15:50:11.849Z</time></trkpt><trkpt lat="46.1619515" lon="12.269439"><ele>386.0</ele><time>2026-04-26T15:50:12.855Z</time></trkpt><trkpt lat="46.1620778" lon="12.269548"><ele>386.0</ele><time>2026-04-26T15:50:13.853Z</time></trkpt><trkpt lat="46.1622097" lon="12.2696518"><ele>386.0</ele><time>2026-04-26T15:50:14.851Z</time></trkpt><trkpt lat="46.162346" lon="12.2697495"><ele>387.0</ele><time>2026-04-26T15:50:15.857Z</time></trkpt><trkpt lat="46.1624841" lon="12.2698366"><ele>388.0</ele><time>2026-04-26T15:50:16.845Z</time></trkpt><trkpt lat="46.1626289" lon="12.2699181"><ele>389.0</ele><time>2026-04-26T15:50:17.851Z</time></trkpt><trkpt lat="46.1627763" lon="12.2699921"><ele>389.0</ele><time>2026-04-26T15:50:18.865Z</time></trkpt><trkpt lat="46.1629254" lon="12.2700583"><ele>389.0</ele><time>2026-04-26T15:50:19.854Z</time></trkpt><trkpt lat="46.163074" lon="12.2701174"><ele>389.0</ele><time>2026-04-26T15:50:20.852Z</time></trkpt><trkpt lat="46.1632289" lon="12.2701695"><ele>389.0</ele><time>2026-04-26T15:50:21.864Z</time></trkpt><trkpt lat="46.1633846" lon="12.2702112"><ele>389.0</ele><time>2026-04-26T15:50:22.847Z</time></trkpt><trkpt lat="46.1635414" lon="12.2702427"><ele>389.0</ele><time>2026-04-26T15:50:23.849Z</time></trkpt><trkpt lat="46.1636965" lon="12.2702625"><ele>389.0</ele><time>2026-04-26T15:50:24.844Z</time></trkpt><trkpt lat="46.163851" lon="12.2702703"><ele>389.0</ele><time>2026-04-26T15:50:25.848Z</time></trkpt><trkpt lat="46.1640073" lon="12.270269"><ele>389.0</ele><time>2026-04-26T15:50:26.871Z</time></trkpt><trkpt lat="46.164162" lon="12.2702562"><ele>388.3333333333333</ele><time>2026-04-26T15:50:27.865Z</time></trkpt><trkpt lat="46.1643199" lon="12.2702386"><ele>387.66666666666663</ele><time>2026-04-26T15:50:28.851Z</time></trkpt><trkpt lat="46.1644779" lon="12.2702168"><ele>387.0</ele><time>2026-04-26T15:50:29.847Z</time></trkpt><trkpt lat="46.1646361" lon="12.2701901"><ele>387.0</ele><time>2026-04-26T15:50:30.864Z</time></trkpt><trkpt lat="46.1647909" lon="12.2701605"><ele>387.0</ele><time>2026-04-26T15:50:31.855Z</time></trkpt><trkpt lat="46.1649451" lon="12.2701311"><ele>387.0</ele><time>2026-04-26T15:50:32.846Z</time></trkpt><trkpt lat="46.1651008" lon="12.2701035"><ele>388.66666666666663</ele><time>2026-04-26T15:50:33.851Z</time></trkpt><trkpt lat="46.1652567" lon="12.270083"><ele>390.3333333333333</ele><time>2026-04-26T15:50:34.858Z</time></trkpt><trkpt lat="46.1654115" lon="12.27007"><ele>392.0</ele><time>2026-04-26T15:50:35.854Z</time></trkpt><trkpt lat="46.165564" lon="12.2700638"><ele>392.66666666666663</ele><time>2026-04-26T15:50:36.852Z</time></trkpt><trkpt lat="46.165715" lon="12.2700667"><ele>393.33333333333337</ele><time>2026-04-26T15:50:37.86Z</time></trkpt><trkpt lat="46.165867" lon="12.2700744"><ele>394.0</ele><time>2026-04-26T15:50:38.848Z</time></trkpt><trkpt lat="46.166017" lon="12.2700919"><ele>394.0</ele><time>2026-04-26T15:50:39.849Z</time></trkpt><trkpt lat="46.1661709" lon="12.2701155"><ele>394.0</ele><time>2026-04-26T15:50:40.849Z</time></trkpt><trkpt lat="46.1663304" lon="12.2701483"><ele>394.0</ele><time>2026-04-26T15:50:41.858Z</time></trkpt><trkpt lat="46.1664845" lon="12.2701922"><ele>391.0</ele><time>2026-04-26T15:50:42.854Z</time></trkpt><trkpt lat="46.1666466" lon="12.2702476"><ele>388.0</ele><time>2026-04-26T15:50:43.857Z</time></trkpt><trkpt lat="46.1668101" lon="12.2703094"><ele>385.0</ele><time>2026-04-26T15:50:44.845Z</time></trkpt><trkpt lat="46.1669753" lon="12.2703786"><ele>385.0</ele><time>2026-04-26T15:50:45.847Z</time></trkpt><trkpt lat="46.1671391" lon="12.2704479"><ele>385.0</ele><time>2026-04-26T15:50:46.843Z</time></trkpt><trkpt lat="46.1673018" lon="12.2705172"><ele>385.0</ele><time>2026-04-26T15:50:47.859Z</time></trkpt><trkpt lat="46.1674598" lon="12.2705848"><ele>390.6666666666667</ele><time>2026-04-26T15:50:48.85Z</time></trkpt><trkpt lat="46.167619" lon="12.2706529"><ele>396.33333333333337</ele><time>2026-04-26T15:50:49.862Z</time></trkpt><trkpt lat="46.1677754" lon="12.2707204"><ele>402.0</ele><time>2026-04-26T15:50:50.85Z</time></trkpt><trkpt lat="46.1679304" lon="12.2707874"><ele>402.0</ele><time>2026-04-26T15:50:51.842Z</time></trkpt><trkpt lat="46.1680845" lon="12.2708549"><ele>402.0</ele><time>2026-04-26T15:50:52.844Z</time></trkpt><trkpt lat="46.1682376" lon="12.2709211"><ele>402.0</ele><time>2026-04-26T15:50:53.867Z</time></trkpt><trkpt lat="46.1683827" lon="12.2709871"><ele>398.0</ele><time>2026-04-26T15:50:54.857Z</time></trkpt><trkpt lat="46.1685337" lon="12.2710575"><ele>394.0</ele><time>2026-04-26T15:50:55.854Z</time></trkpt><trkpt lat="46.1686834" lon="12.2711274"><ele>390.0</ele><time>2026-04-26T15:50:56.851Z</time></trkpt><trkpt lat="46.1688377" lon="12.2712019"><ele>390.0</ele><time>2026-04-26T15:50:57.85Z</time></trkpt><trkpt lat="46.1689918" lon="12.2712841"><ele>390.0</ele><time>2026-04-26T15:50:58.867Z</time></trkpt><trkpt lat="46.1691457" lon="12.2713736"><ele>390.0</ele><time>2026-04-26T15:50:59.873Z</time></trkpt><trkpt lat="46.1692972" lon="12.2714739"><ele>393.66666666666663</ele><time>2026-04-26T15:51:00.857Z</time></trkpt><trkpt lat="46.1694482" lon="12.2715898"><ele>397.3333333333333</ele><time>2026-04-26T15:51:01.883Z</time></trkpt><trkpt lat="46.1695938" lon="12.2717107"><ele>401.0</ele><time>2026-04-26T15:51:02.862Z</time></trkpt><trkpt lat="46.1697395" lon="12.2718429"><ele>400.66666666666663</ele><time>2026-04-26T15:51:03.854Z</time></trkpt><trkpt lat="46.1698831" lon="12.2719808"><ele>400.33333333333337</ele><time>2026-04-26T15:51:04.84Z</time></trkpt><trkpt lat="46.1700238" lon="12.2721268"><ele>400.0</ele><time>2026-04-26T15:51:05.846Z</time></trkpt><trkpt lat="46.1701604" lon="12.2722827"><ele>400.0</ele><time>2026-04-26T15:51:06.856Z</time></trkpt><trkpt lat="46.1702918" lon="12.2724461"><ele>400.0</ele><time>2026-04-26T15:51:07.854Z</time></trkpt><trkpt lat="46.1704164" lon="12.2726162"><ele>400.0</ele><time>2026-04-26T15:51:08.86Z</time></trkpt><trkpt lat="46.1705345" lon="12.2727911"><ele>400.0</ele><time>2026-04-26T15:51:09.856Z</time></trkpt><trkpt lat="46.1706483" lon="12.2729702"><ele>400.0</ele><time>2026-04-26T15:51:10.853Z</time></trkpt><trkpt lat="46.1707592" lon="12.2731525"><ele>400.0</ele><time>2026-04-26T15:51:11.852Z</time></trkpt><trkpt lat="46.1708647" lon="12.2733392"><ele>399.0</ele><time>2026-04-26T15:51:12.859Z</time></trkpt><trkpt lat="46.1709658" lon="12.2735374"><ele>398.0</ele><time>2026-04-26T15:51:13.853Z</time></trkpt><trkpt lat="46.1710541" lon="12.2737479"><ele>397.0</ele><time>2026-04-26T15:51:14.853Z</time></trkpt><trkpt lat="46.1711355" lon="12.2739609"><ele>397.0</ele><time>2026-04-26T15:51:15.846Z</time></trkpt><trkpt lat="46.1712111" lon="12.2741755"><ele>397.0</ele><time>2026-04-26T15:51:16.842Z</time></trkpt><trkpt lat="46.1712815" lon="12.2743963"><ele>397.0</ele><time>2026-04-26T15:51:17.856Z</time></trkpt><trkpt lat="46.1713453" lon="12.2746154"><ele>398.0</ele><time>2026-04-26T15:51:18.844Z</time></trkpt><trkpt lat="46.1714074" lon="12.2748385"><ele>399.0</ele><time>2026-04-26T15:51:19.853Z</time></trkpt><trkpt lat="46.1714661" lon="12.2750618"><ele>400.0</ele><time>2026-04-26T15:51:20.848Z</time></trkpt><trkpt lat="46.1715189" lon="12.27529"><ele>397.33333333333337</ele><time>2026-04-26T15:51:21.87Z</time></trkpt><trkpt lat="46.1715649" lon="12.2755181"><ele>394.66666666666663</ele><time>2026-04-26T15:51:22.859Z</time></trkpt><trkpt lat="46.1716061" lon="12.2757428"><ele>392.0</ele><time>2026-04-26T15:51:23.852Z</time></trkpt><trkpt lat="46.1716421" lon="12.2759671"><ele>392.0</ele><time>2026-04-26T15:51:24.849Z</time></trkpt><trkpt lat="46.1716714" lon="12.2761875"><ele>392.0</ele><time>2026-04-26T15:51:25.844Z</time></trkpt><trkpt lat="46.1716912" lon="12.2764123"><ele>392.0</ele><time>2026-04-26T15:51:26.854Z</time></trkpt><trkpt lat="46.1717048" lon="12.2766369"><ele>391.66666666666663</ele><time>2026-04-26T15:51:27.855Z</time></trkpt><trkpt lat="46.1717171" lon="12.276864"><ele>391.33333333333337</ele><time>2026-04-26T15:51:28.851Z</time></trkpt><trkpt lat="46.171727" lon="12.2770922"><ele>391.0</ele><time>2026-04-26T15:51:29.854Z</time></trkpt><trkpt lat="46.1717337" lon="12.2773172"><ele>391.0</ele><time>2026-04-26T15:51:30.849Z</time></trkpt><trkpt lat="46.1717383" lon="12.2775393"><ele>391.0</ele><time>2026-04-26T15:51:31.853Z</time></trkpt><trkpt lat="46.1717435" lon="12.2777609"><ele>391.0</ele><time>2026-04-26T15:51:32.86Z</time></trkpt><trkpt lat="46.1717504" lon="12.2779823"><ele>391.0</ele><time>2026-04-26T15:51:33.865Z</time></trkpt><trkpt lat="46.171758" lon="12.2782046"><ele>391.0</ele><time>2026-04-26T15:51:34.863Z</time></trkpt><trkpt lat="46.1717647" lon="12.2784209"><ele>391.0</ele><time>2026-04-26T15:51:35.856Z</time></trkpt><trkpt lat="46.1717713" lon="12.2786436"><ele>391.0</ele><time>2026-04-26T15:51:36.854Z</time></trkpt><trkpt lat="46.1717726" lon="12.2788648"><ele>391.0</ele><time>2026-04-26T15:51:37.859Z</time></trkpt><trkpt lat="46.1717746" lon="12.2790904"><ele>391.0</ele><time>2026-04-26T15:51:38.862Z</time></trkpt><trkpt lat="46.1717791" lon="12.2793152"><ele>390.6666666666667</ele><time>2026-04-26T15:51:39.849Z</time></trkpt><trkpt lat="46.1717861" lon="12.2795418"><ele>390.33333333333337</ele><time>2026-04-26T15:51:40.85Z</time></trkpt><trkpt lat="46.1717943" lon="12.2797643"><ele>390.0</ele><time>2026-04-26T15:51:41.844Z</time></trkpt><trkpt lat="46.1718035" lon="12.2799891"><ele>389.5</ele><time>2026-04-26T15:51:42.853Z</time></trkpt><trkpt lat="46.1718111" lon="12.2802085"><ele>389.0</ele><time>2026-04-26T15:51:43.845Z</time></trkpt><trkpt lat="46.1718189" lon="12.2804231"><ele>388.5</ele><time>2026-04-26T15:51:44.864Z</time></trkpt><trkpt lat="46.1718291" lon="12.280627"><ele>388.0</ele><time>2026-04-26T15:51:45.857Z</time></trkpt><trkpt lat="46.1718432" lon="12.2808283"><ele>388.0</ele><time>2026-04-26T15:51:46.856Z</time></trkpt><trkpt lat="46.1718573" lon="12.281021"><ele>388.0</ele><time>2026-04-26T15:51:47.865Z</time></trkpt><trkpt lat="46.1718698" lon="12.2812031"><ele>388.0</ele><time>2026-04-26T15:51:48.847Z</time></trkpt><trkpt lat="46.1718842" lon="12.2813806"><ele>388.0</ele><time>2026-04-26T15:51:49.868Z</time></trkpt><trkpt lat="46.1718995" lon="12.281546"><ele>388.4</ele><time>2026-04-26T15:51:50.848Z</time></trkpt><trkpt lat="46.1719132" lon="12.2817047"><ele>388.79999999999995</ele><time>2026-04-26T15:51:51.864Z</time></trkpt><trkpt lat="46.1719272" lon="12.2818661"><ele>389.2</ele><time>2026-04-26T15:51:52.854Z</time></trkpt><trkpt lat="46.1719408" lon="12.2820214"><ele>389.6</ele><time>2026-04-26T15:51:53.85Z</time></trkpt><trkpt lat="46.1719527" lon="12.2821681"><ele>390.0</ele><time>2026-04-26T15:51:54.845Z</time></trkpt><trkpt lat="46.1719645" lon="12.2823078"><ele>390.3333333333333</ele><time>2026-04-26T15:51:55.85Z</time></trkpt><trkpt lat="46.1719759" lon="12.2824353"><ele>390.66666666666663</ele><time>2026-04-26T15:51:56.856Z</time></trkpt><trkpt lat="46.1719856" lon="12.2825479"><ele>391.0</ele><time>2026-04-26T15:51:57.868Z</time></trkpt><trkpt lat="46.1719932" lon="12.2826397"><ele>391.3333333333333</ele><time>2026-04-26T15:51:58.849Z</time></trkpt><trkpt lat="46.1720017" lon="12.2827726"><ele>391.66666666666663</ele><time>2026-04-26T15:52:00.853Z</time></trkpt><trkpt lat="46.1720011" lon="12.2829341"><ele>392.0</ele><time>2026-04-26T15:52:06.854Z</time></trkpt><trkpt lat="46.1719592" lon="12.2830311"><ele>392.5</ele><time>2026-04-26T15:52:08.85Z</time></trkpt><trkpt lat="46.1718967" lon="12.2831311"><ele>393.0</ele><time>2026-04-26T15:52:10.85Z</time></trkpt><trkpt lat="46.1719017" lon="12.2832597"><ele>393.5</ele><time>2026-04-26T15:52:13.866Z</time></trkpt><trkpt lat="46.1719877" lon="12.2833776"><ele>394.0</ele><time>2026-04-26T15:52:15.863Z</time></trkpt><trkpt lat="46.172044" lon="12.2835858"><ele>394.0</ele><time>2026-04-26T15:52:16.853Z</time></trkpt><trkpt lat="46.1721065" lon="12.2836982"><ele>394.0</ele><time>2026-04-26T15:52:17.851Z</time></trkpt><trkpt lat="46.1721437" lon="12.2838492"><ele>394.0</ele><time>2026-04-26T15:52:18.854Z</time></trkpt><trkpt lat="46.1721611" lon="12.2840228"><ele>394.0</ele><time>2026-04-26T15:52:19.848Z</time></trkpt><trkpt lat="46.1721771" lon="12.2842127"><ele>394.6666666666667</ele><time>2026-04-26T15:52:20.84Z</time></trkpt><trkpt lat="46.1721936" lon="12.2844187"><ele>395.33333333333337</ele><time>2026-04-26T15:52:21.848Z</time></trkpt><trkpt lat="46.1722114" lon="12.284637"><ele>396.0</ele><time>2026-04-26T15:52:22.846Z</time></trkpt><trkpt lat="46.1722238" lon="12.2848633"><ele>396.33333333333337</ele><time>2026-04-26T15:52:23.858Z</time></trkpt><trkpt lat="46.1722425" lon="12.2850952"><ele>396.6666666666667</ele><time>2026-04-26T15:52:24.86Z</time></trkpt><trkpt lat="46.1722635" lon="12.2853329"><ele>397.0</ele><time>2026-04-26T15:52:25.855Z</time></trkpt><trkpt lat="46.1722902" lon="12.2855757"><ele>399.0</ele><time>2026-04-26T15:52:26.85Z</time></trkpt><trkpt lat="46.1723031" lon="12.2858206"><ele>401.0</ele><time>2026-04-26T15:52:27.843Z</time></trkpt><trkpt lat="46.1723212" lon="12.2860628"><ele>403.0</ele><time>2026-04-26T15:52:28.842Z</time></trkpt><trkpt lat="46.172346" lon="12.2863038"><ele>398.6666666666667</ele><time>2026-04-26T15:52:29.848Z</time></trkpt><trkpt lat="46.1723598" lon="12.286545"><ele>394.33333333333337</ele><time>2026-04-26T15:52:30.853Z</time></trkpt><trkpt lat="46.1723692" lon="12.2867857"><ele>390.0</ele><time>2026-04-26T15:52:31.854Z</time></trkpt><trkpt lat="46.1723833" lon="12.2870178"><ele>390.0</ele><time>2026-04-26T15:52:32.842Z</time></trkpt><trkpt lat="46.1723917" lon="12.2872423"><ele>390.0</ele><time>2026-04-26T15:52:33.845Z</time></trkpt><trkpt lat="46.1724114" lon="12.2874615"><ele>390.0</ele><time>2026-04-26T15:52:34.853Z</time></trkpt><trkpt lat="46.172434" lon="12.2876834"><ele>391.33333333333337</ele><time>2026-04-26T15:52:35.865Z</time></trkpt><trkpt lat="46.1724367" lon="12.2879129"><ele>392.6666666666667</ele><time>2026-04-26T15:52:36.854Z</time></trkpt><trkpt lat="46.1724526" lon="12.2881423"><ele>394.0</ele><time>2026-04-26T15:52:37.844Z</time></trkpt><trkpt lat="46.172473" lon="12.2883742"><ele>394.6666666666667</ele><time>2026-04-26T15:52:38.844Z</time></trkpt><trkpt lat="46.1724921" lon="12.2886091"><ele>395.33333333333337</ele><time>2026-04-26T15:52:39.847Z</time></trkpt><trkpt lat="46.1725277" lon="12.2888444"><ele>396.0</ele><time>2026-04-26T15:52:40.835Z</time></trkpt><trkpt lat="46.1725385" lon="12.2890906"><ele>397.33333333333337</ele><time>2026-04-26T15:52:41.861Z</time></trkpt><trkpt lat="46.1725544" lon="12.289338"><ele>398.6666666666667</ele><time>2026-04-26T15:52:42.84Z</time></trkpt><trkpt lat="46.1725894" lon="12.2895809"><ele>400.0</ele><time>2026-04-26T15:52:43.845Z</time></trkpt><trkpt lat="46.1726053" lon="12.2898279"><ele>400.33333333333337</ele><time>2026-04-26T15:52:44.834Z</time></trkpt><trkpt lat="46.1725993" lon="12.2900827"><ele>400.66666666666663</ele><time>2026-04-26T15:52:45.884Z</time></trkpt><trkpt lat="46.1726036" lon="12.2903366"><ele>401.0</ele><time>2026-04-26T15:52:46.855Z</time></trkpt><trkpt lat="46.1726165" lon="12.2905883"><ele>401.66666666666663</ele><time>2026-04-26T15:52:47.837Z</time></trkpt><trkpt lat="46.1726525" lon="12.2908374"><ele>402.33333333333337</ele><time>2026-04-26T15:52:48.849Z</time></trkpt><trkpt lat="46.1727017" lon="12.2910829"><ele>403.0</ele><time>2026-04-26T15:52:49.838Z</time></trkpt><trkpt lat="46.1727654" lon="12.2913254"><ele>403.33333333333337</ele><time>2026-04-26T15:52:50.841Z</time></trkpt><trkpt lat="46.1728407" lon="12.2915627"><ele>403.66666666666663</ele><time>2026-04-26T15:52:51.847Z</time></trkpt><trkpt lat="46.1729198" lon="12.2917996"><ele>404.0</ele><time>2026-04-26T15:52:52.841Z</time></trkpt><trkpt lat="46.1730274" lon="12.2920318"><ele>402.0</ele><time>2026-04-26T15:52:53.843Z</time></trkpt><trkpt lat="46.1731396" lon="12.2922633"><ele>400.0</ele><time>2026-04-26T15:52:54.843Z</time></trkpt><trkpt lat="46.1732515" lon="12.2924936"><ele>398.0</ele><time>2026-04-26T15:52:55.846Z</time></trkpt><trkpt lat="46.1733613" lon="12.29272"><ele>398.0</ele><time>2026-04-26T15:52:56.857Z</time></trkpt><trkpt lat="46.1734744" lon="12.2929355"><ele>398.0</ele><time>2026-04-26T15:52:57.841Z</time></trkpt><trkpt lat="46.1735805" lon="12.2931501"><ele>398.0</ele><time>2026-04-26T15:52:58.839Z</time></trkpt><trkpt lat="46.1736967" lon="12.2933455"><ele>398.0</ele><time>2026-04-26T15:52:59.869Z</time></trkpt><trkpt lat="46.1738172" lon="12.2935334"><ele>398.0</ele><time>2026-04-26T15:53:00.844Z</time></trkpt><trkpt lat="46.1739496" lon="12.2937014"><ele>398.0</ele><time>2026-04-26T15:53:01.844Z</time></trkpt><trkpt lat="46.1740855" lon="12.2938582"><ele>399.66666666666663</ele><time>2026-04-26T15:53:02.854Z</time></trkpt><trkpt lat="46.1742392" lon="12.2939771"><ele>401.33333333333337</ele><time>2026-04-26T15:53:03.848Z</time></trkpt><trkpt lat="46.1743972" lon="12.2940857"><ele>403.0</ele><time>2026-04-26T15:53:04.841Z</time></trkpt><trkpt lat="46.1745489" lon="12.2941914"><ele>403.0</ele><time>2026-04-26T15:53:05.847Z</time></trkpt><trkpt lat="46.1746886" lon="12.2942978"><ele>403.0</ele><time>2026-04-26T15:53:06.839Z</time></trkpt><trkpt lat="46.1748298" lon="12.2943836"><ele>403.0</ele><time>2026-04-26T15:53:07.876Z</time></trkpt><trkpt lat="46.1749687" lon="12.2944718"><ele>402.75</ele><time>2026-04-26T15:53:08.847Z</time></trkpt><trkpt lat="46.1750927" lon="12.2945892"><ele>402.5</ele><time>2026-04-26T15:53:09.842Z</time></trkpt><trkpt lat="46.1752" lon="12.2947398"><ele>402.25</ele><time>2026-04-26T15:53:10.848Z</time></trkpt><trkpt lat="46.1752729" lon="12.2949215"><ele>402.0</ele><time>2026-04-26T15:53:11.851Z</time></trkpt><trkpt lat="46.1753339" lon="12.2951067"><ele>404.0</ele><time>2026-04-26T15:53:12.851Z</time></trkpt><trkpt lat="46.1753718" lon="12.2953001"><ele>406.0</ele><time>2026-04-26T15:53:13.857Z</time></trkpt><trkpt lat="46.175378" lon="12.2955021"><ele>408.0</ele><time>2026-04-26T15:53:14.839Z</time></trkpt><trkpt lat="46.1753795" lon="12.2956966"><ele>410.0</ele><time>2026-04-26T15:53:15.85Z</time></trkpt><trkpt lat="46.1753673" lon="12.2958894"><ele>409.5</ele><time>2026-04-26T15:53:16.844Z</time></trkpt><trkpt lat="46.1753298" lon="12.2960825"><ele>409.0</ele><time>2026-04-26T15:53:17.842Z</time></trkpt><trkpt lat="46.1752707" lon="12.2962716"><ele>408.5</ele><time>2026-04-26T15:53:18.856Z</time></trkpt><trkpt lat="46.1751976" lon="12.296452"><ele>408.0</ele><time>2026-04-26T15:53:19.836Z</time></trkpt><trkpt lat="46.1750984" lon="12.2966172"><ele>408.0</ele><time>2026-04-26T15:53:20.855Z</time></trkpt><trkpt lat="46.1749833" lon="12.2967701"><ele>408.0</ele><time>2026-04-26T15:53:21.867Z</time></trkpt><trkpt lat="46.1748624" lon="12.2969144"><ele>408.0</ele><time>2026-04-26T15:53:22.846Z</time></trkpt><trkpt lat="46.1747456" lon="12.2970629"><ele>408.66666666666663</ele><time>2026-04-26T15:53:23.853Z</time></trkpt><trkpt lat="46.1746319" lon="12.2972107"><ele>409.3333333333333</ele><time>2026-04-26T15:53:24.84Z</time></trkpt><trkpt lat="46.1745185" lon="12.297354"><ele>410.0</ele><time>2026-04-26T15:53:25.851Z</time></trkpt><trkpt lat="46.1744084" lon="12.2975018"><ele>410.0</ele><time>2026-04-26T15:53:26.848Z</time></trkpt><trkpt lat="46.1743001" lon="12.2976571"><ele>410.0</ele><time>2026-04-26T15:53:27.854Z</time></trkpt><trkpt lat="46.1741986" lon="12.2978263"><ele>410.0</ele><time>2026-04-26T15:53:28.84Z</time></trkpt><trkpt lat="46.174095" lon="12.2979964"><ele>411.0</ele><time>2026-04-26T15:53:29.848Z</time></trkpt><trkpt lat="46.1740113" lon="12.2981855"><ele>412.0</ele><time>2026-04-26T15:53:30.842Z</time></trkpt><trkpt lat="46.1739382" lon="12.2983777"><ele>413.0</ele><time>2026-04-26T15:53:31.852Z</time></trkpt><trkpt lat="46.1738665" lon="12.2985681"><ele>413.0</ele><time>2026-04-26T15:53:32.837Z</time></trkpt><trkpt lat="46.173808" lon="12.2987714"><ele>413.0</ele><time>2026-04-26T15:53:33.842Z</time></trkpt><trkpt lat="46.1737699" lon="12.2989784"><ele>413.0</ele><time>2026-04-26T15:53:34.836Z</time></trkpt><trkpt lat="46.1737413" lon="12.2991837"><ele>413.0</ele><time>2026-04-26T15:53:35.845Z</time></trkpt><trkpt lat="46.1737243" lon="12.2993918"><ele>412.25</ele><time>2026-04-26T15:53:36.842Z</time></trkpt><trkpt lat="46.1736916" lon="12.2995862"><ele>411.5</ele><time>2026-04-26T15:53:37.848Z</time></trkpt><trkpt lat="46.1736767" lon="12.2997807"><ele>410.75</ele><time>2026-04-26T15:53:38.864Z</time></trkpt><trkpt lat="46.173674" lon="12.2999717"><ele>410.0</ele><time>2026-04-26T15:53:39.847Z</time></trkpt><trkpt lat="46.173676" lon="12.3001541"><ele>408.75</ele><time>2026-04-26T15:53:40.847Z</time></trkpt><trkpt lat="46.1736956" lon="12.3003295"><ele>407.5</ele><time>2026-04-26T15:53:41.851Z</time></trkpt><trkpt lat="46.1737525" lon="12.3004886"><ele>406.25</ele><time>2026-04-26T15:53:42.853Z</time></trkpt><trkpt lat="46.1737978" lon="12.3006411"><ele>405.0</ele><time>2026-04-26T15:53:43.85Z</time></trkpt><trkpt lat="46.1738561" lon="12.3007833"><ele>405.0</ele><time>2026-04-26T15:53:44.834Z</time></trkpt><trkpt lat="46.1739376" lon="12.3008999"><ele>405.0</ele><time>2026-04-26T15:53:45.844Z</time></trkpt><trkpt lat="46.173985" lon="12.3010321"><ele>405.0</ele><time>2026-04-26T15:53:46.84Z</time></trkpt><trkpt lat="46.1740189" lon="12.3011673"><ele>405.0</ele><time>2026-04-26T15:53:47.856Z</time></trkpt><trkpt lat="46.174024" lon="12.3013161"><ele>405.0</ele><time>2026-04-26T15:53:48.844Z</time></trkpt><trkpt lat="46.1740084" lon="12.3014707"><ele>406.0</ele><time>2026-04-26T15:53:49.848Z</time></trkpt><trkpt lat="46.1740017" lon="12.3016292"><ele>407.0</ele><time>2026-04-26T15:53:50.842Z</time></trkpt><trkpt lat="46.1739879" lon="12.3017914"><ele>408.0</ele><time>2026-04-26T15:53:51.845Z</time></trkpt><trkpt lat="46.1739765" lon="12.3019576"><ele>409.0</ele><time>2026-04-26T15:53:52.866Z</time></trkpt><trkpt lat="46.1739617" lon="12.3021226"><ele>409.2</ele><time>2026-04-26T15:53:53.853Z</time></trkpt><trkpt lat="46.1739385" lon="12.3022812"><ele>409.4</ele><time>2026-04-26T15:53:54.845Z</time></trkpt><trkpt lat="46.1739305" lon="12.302439"><ele>409.6</ele><time>2026-04-26T15:53:55.859Z</time></trkpt><trkpt lat="46.1739131" lon="12.302597"><ele>409.8</ele><time>2026-04-26T15:53:56.844Z</time></trkpt><trkpt lat="46.1739075" lon="12.3027601"><ele>410.0</ele><time>2026-04-26T15:53:57.846Z</time></trkpt><trkpt lat="46.1738923" lon="12.3029284"><ele>409.5</ele><time>2026-04-26T15:53:58.86Z</time></trkpt><trkpt lat="46.1738918" lon="12.3031051"><ele>409.0</ele><time>2026-04-26T15:53:59.848Z</time></trkpt><trkpt lat="46.1738785" lon="12.3032805"><ele>408.5</ele><time>2026-04-26T15:54:00.847Z</time></trkpt><trkpt lat="46.173852" lon="12.3034517"><ele>408.0</ele><time>2026-04-26T15:54:01.84Z</time></trkpt><trkpt lat="46.1738118" lon="12.3036209"><ele>408.0</ele><time>2026-04-26T15:54:02.839Z</time></trkpt><trkpt lat="46.1737632" lon="12.3037843"><ele>408.0</ele><time>2026-04-26T15:54:03.845Z</time></trkpt><trkpt lat="46.1736668" lon="12.3039221"><ele>408.0</ele><time>2026-04-26T15:54:04.851Z</time></trkpt><trkpt lat="46.1735551" lon="12.3040389"><ele>408.0</ele><time>2026-04-26T15:54:05.845Z</time></trkpt><trkpt lat="46.1734354" lon="12.3041338"><ele>408.25</ele><time>2026-04-26T15:54:06.843Z</time></trkpt><trkpt lat="46.1733174" lon="12.3042287"><ele>408.5</ele><time>2026-04-26T15:54:07.869Z</time></trkpt><trkpt lat="46.1731945" lon="12.3043174"><ele>408.75</ele><time>2026-04-26T15:54:08.857Z</time></trkpt><trkpt lat="46.1730858" lon="12.3044429"><ele>409.0</ele><time>2026-04-26T15:54:09.844Z</time></trkpt><trkpt lat="46.1729845" lon="12.3045877"><ele>407.0</ele><time>2026-04-26T15:54:10.841Z</time></trkpt><trkpt lat="46.1729079" lon="12.3047634"><ele>405.0</ele><time>2026-04-26T15:54:11.849Z</time></trkpt><trkpt lat="46.1728268" lon="12.3049377"><ele>403.0</ele><time>2026-04-26T15:54:12.838Z</time></trkpt><trkpt lat="46.1727507" lon="12.3051242"><ele>401.0</ele><time>2026-04-26T15:54:13.844Z</time></trkpt><trkpt lat="46.1726738" lon="12.3053142"><ele>401.0</ele><time>2026-04-26T15:54:14.85Z</time></trkpt><trkpt lat="46.1725907" lon="12.3055063"><ele>401.0</ele><time>2026-04-26T15:54:15.836Z</time></trkpt><trkpt lat="46.1725058" lon="12.3057007"><ele>401.0</ele><time>2026-04-26T15:54:16.868Z</time></trkpt><trkpt lat="46.172424" lon="12.3058997"><ele>401.3333333333333</ele><time>2026-04-26T15:54:17.842Z</time></trkpt><trkpt lat="46.1723227" lon="12.3060813"><ele>401.66666666666663</ele><time>2026-04-26T15:54:18.836Z</time></trkpt><trkpt lat="46.1722072" lon="12.3062492"><ele>402.0</ele><time>2026-04-26T15:54:19.848Z</time></trkpt><trkpt lat="46.1721021" lon="12.306432"><ele>402.0</ele><time>2026-04-26T15:54:20.844Z</time></trkpt><trkpt lat="46.1719971" lon="12.3066239"><ele>402.0</ele><time>2026-04-26T15:54:21.844Z</time></trkpt><trkpt lat="46.1718796" lon="12.306798"><ele>402.0</ele><time>2026-04-26T15:54:22.848Z</time></trkpt><trkpt lat="46.1717634" lon="12.3069708"><ele>402.0</ele><time>2026-04-26T15:54:23.836Z</time></trkpt><trkpt lat="46.1716446" lon="12.3071378"><ele>402.0</ele><time>2026-04-26T15:54:24.839Z</time></trkpt><trkpt lat="46.1715345" lon="12.3073062"><ele>402.0</ele><time>2026-04-26T15:54:25.837Z</time></trkpt><trkpt lat="46.1714292" lon="12.307466"><ele>404.0</ele><time>2026-04-26T15:54:26.857Z</time></trkpt><trkpt lat="46.1713325" lon="12.3076223"><ele>406.0</ele><time>2026-04-26T15:54:27.867Z</time></trkpt><trkpt lat="46.1712394" lon="12.3077734"><ele>408.0</ele><time>2026-04-26T15:54:28.843Z</time></trkpt><trkpt lat="46.171153" lon="12.3079266"><ele>410.0</ele><time>2026-04-26T15:54:29.85Z</time></trkpt><trkpt lat="46.1710671" lon="12.3080728"><ele>407.5</ele><time>2026-04-26T15:54:30.843Z</time></trkpt><trkpt lat="46.1709933" lon="12.3082287"><ele>405.0</ele><time>2026-04-26T15:54:31.841Z</time></trkpt><trkpt lat="46.1709223" lon="12.3083865"><ele>402.5</ele><time>2026-04-26T15:54:32.837Z</time></trkpt><trkpt lat="46.1708381" lon="12.3085335"><ele>400.0</ele><time>2026-04-26T15:54:33.845Z</time></trkpt><trkpt lat="46.1707362" lon="12.308666"><ele>401.75</ele><time>2026-04-26T15:54:34.843Z</time></trkpt><trkpt lat="46.1706432" lon="12.3088155"><ele>403.5</ele><time>2026-04-26T15:54:35.864Z</time></trkpt><trkpt lat="46.1705345" lon="12.3089523"><ele>405.25</ele><time>2026-04-26T15:54:36.84Z</time></trkpt><trkpt lat="46.1704296" lon="12.3090985"><ele>407.0</ele><time>2026-04-26T15:54:37.864Z</time></trkpt><trkpt lat="46.1703344" lon="12.3092596"><ele>407.0</ele><time>2026-04-26T15:54:38.85Z</time></trkpt><trkpt lat="46.1702334" lon="12.3094107"><ele>407.0</ele><time>2026-04-26T15:54:39.84Z</time></trkpt><trkpt lat="46.1701192" lon="12.3095437"><ele>407.0</ele><time>2026-04-26T15:54:40.846Z</time></trkpt><trkpt lat="46.170075" lon="12.3097413"><ele>407.0</ele><time>2026-04-26T15:54:41.851Z</time></trkpt><trkpt lat="46.169998" lon="12.3098614"><ele>407.8</ele><time>2026-04-26T15:54:42.842Z</time></trkpt><trkpt lat="46.1699304" lon="12.3099406"><ele>408.6</ele><time>2026-04-26T15:54:43.861Z</time></trkpt><trkpt lat="46.1698998" lon="12.3100217"><ele>409.40000000000003</ele><time>2026-04-26T15:54:44.858Z</time></trkpt><trkpt lat="46.1698897" lon="12.3101335"><ele>410.20000000000005</ele><time>2026-04-26T15:54:46.856Z</time></trkpt><trkpt lat="46.1698737" lon="12.3102598"><ele>411.0</ele><time>2026-04-26T15:55:59.859Z</time></trkpt><trkpt lat="46.1698485" lon="12.3104489"><ele>411.0</ele><time>2026-04-26T15:56:01.87Z</time></trkpt><trkpt lat="46.1697621" lon="12.3105528"><ele>411.0</ele><time>2026-04-26T15:56:02.852Z</time></trkpt><trkpt lat="46.1696844" lon="12.3106423"><ele>411.0</ele><time>2026-04-26T15:56:03.861Z</time></trkpt><trkpt lat="46.1696164" lon="12.3107397"><ele>411.0</ele><time>2026-04-26T15:56:04.866Z</time></trkpt><trkpt lat="46.1695312" lon="12.3108659"><ele>411.0</ele><time>2026-04-26T15:56:05.865Z</time></trkpt><trkpt lat="46.1694297" lon="12.3109933"><ele>407.25</ele><time>2026-04-26T15:56:06.854Z</time></trkpt><trkpt lat="46.1693141" lon="12.3111231"><ele>403.5</ele><time>2026-04-26T15:56:07.851Z</time></trkpt><trkpt lat="46.1691995" lon="12.3112556"><ele>399.75</ele><time>2026-04-26T15:56:08.86Z</time></trkpt><trkpt lat="46.1690821" lon="12.311384"><ele>396.0</ele><time>2026-04-26T15:56:09.865Z</time></trkpt><trkpt lat="46.168964" lon="12.3114983"><ele>395.5</ele><time>2026-04-26T15:56:10.854Z</time></trkpt><trkpt lat="46.1688441" lon="12.3115974"><ele>395.0</ele><time>2026-04-26T15:56:11.87Z</time></trkpt><trkpt lat="46.1687265" lon="12.3116864"><ele>394.5</ele><time>2026-04-26T15:56:12.854Z</time></trkpt><trkpt lat="46.1686196" lon="12.3117897"><ele>394.0</ele><time>2026-04-26T15:56:13.867Z</time></trkpt><trkpt lat="46.1685175" lon="12.3118912"><ele>394.0</ele><time>2026-04-26T15:56:14.853Z</time></trkpt><trkpt lat="46.1684123" lon="12.3119716"><ele>394.0</ele><time>2026-04-26T15:56:15.864Z</time></trkpt><trkpt lat="46.1683359" lon="12.3121065"><ele>394.0</ele><time>2026-04-26T15:56:16.85Z</time></trkpt><trkpt lat="46.1682916" lon="12.3122774"><ele>394.0</ele><time>2026-04-26T15:56:17.858Z</time></trkpt><trkpt lat="46.1682709" lon="12.3124715"><ele>394.0</ele><time>2026-04-26T15:56:18.845Z</time></trkpt><trkpt lat="46.1682739" lon="12.3126786"><ele>394.0</ele><time>2026-04-26T15:56:19.854Z</time></trkpt><trkpt lat="46.1682768" lon="12.3128866"><ele>394.0</ele><time>2026-04-26T15:56:20.865Z</time></trkpt><trkpt lat="46.1682693" lon="12.313093"><ele>394.0</ele><time>2026-04-26T15:56:21.862Z</time></trkpt><trkpt lat="46.1682525" lon="12.3132994"><ele>394.0</ele><time>2026-04-26T15:56:22.854Z</time></trkpt><trkpt lat="46.1682427" lon="12.3135057"><ele>394.0</ele><time>2026-04-26T15:56:23.841Z</time></trkpt><trkpt lat="46.1682383" lon="12.3137085"><ele>394.0</ele><time>2026-04-26T15:56:24.851Z</time></trkpt><trkpt lat="46.168231" lon="12.3139047"><ele>394.0</ele><time>2026-04-26T15:56:25.849Z</time></trkpt><trkpt lat="46.1681991" lon="12.3140898"><ele>394.5</ele><time>2026-04-26T15:56:26.845Z</time></trkpt><trkpt lat="46.1681374" lon="12.314244"><ele>395.0</ele><time>2026-04-26T15:56:27.849Z</time></trkpt><trkpt lat="46.1680617" lon="12.3143898"><ele>395.5</ele><time>2026-04-26T15:56:28.873Z</time></trkpt><trkpt lat="46.1679632" lon="12.3144992"><ele>396.0</ele><time>2026-04-26T15:56:29.865Z</time></trkpt><trkpt lat="46.1678538" lon="12.3145867"><ele>396.0</ele><time>2026-04-26T15:56:30.884Z</time></trkpt><trkpt lat="46.1677234" lon="12.3146341"><ele>396.0</ele><time>2026-04-26T15:56:31.866Z</time></trkpt><trkpt lat="46.1676005" lon="12.3146774"><ele>396.0</ele><time>2026-04-26T15:56:32.853Z</time></trkpt><trkpt lat="46.1674903" lon="12.3147144"><ele>396.0</ele><time>2026-04-26T15:56:33.863Z</time></trkpt><trkpt lat="46.1673775" lon="12.3147004"><ele>395.3333333333333</ele><time>2026-04-26T15:56:34.852Z</time></trkpt><trkpt lat="46.1672839" lon="12.314674"><ele>394.66666666666663</ele><time>2026-04-26T15:56:35.86Z</time></trkpt><trkpt lat="46.16721" lon="12.3146321"><ele>394.0</ele><time>2026-04-26T15:56:36.861Z</time></trkpt><trkpt lat="46.1671493" lon="12.3145821"><ele>393.3333333333333</ele><time>2026-04-26T15:56:37.855Z</time></trkpt><trkpt lat="46.1670912" lon="12.314509"><ele>392.66666666666663</ele><time>2026-04-26T15:56:38.849Z</time></trkpt><trkpt lat="46.1670355" lon="12.3144062"><ele>392.0</ele><time>2026-04-26T15:56:39.85Z</time></trkpt><trkpt lat="46.1669717" lon="12.3142996"><ele>392.0</ele><time>2026-04-26T15:56:40.845Z</time></trkpt><trkpt lat="46.1668964" lon="12.314203"><ele>392.0</ele><time>2026-04-26T15:56:41.852Z</time></trkpt><trkpt lat="46.166819" lon="12.314114"><ele>392.0</ele><time>2026-04-26T15:56:42.853Z</time></trkpt><trkpt lat="46.1667591" lon="12.3139984"><ele>392.0</ele><time>2026-04-26T15:56:43.858Z</time></trkpt><trkpt lat="46.1667051" lon="12.3138671"><ele>392.0</ele><time>2026-04-26T15:56:44.86Z</time></trkpt><trkpt lat="46.1666856" lon="12.3137062"><ele>392.5</ele><time>2026-04-26T15:56:45.853Z</time></trkpt><trkpt lat="46.166689" lon="12.3135295"><ele>393.0</ele><time>2026-04-26T15:56:46.85Z</time></trkpt><trkpt lat="46.166702" lon="12.3133422"><ele>393.5</ele><time>2026-04-26T15:56:47.85Z</time></trkpt><trkpt lat="46.1667129" lon="12.313153"><ele>394.0</ele><time>2026-04-26T15:56:48.848Z</time></trkpt><trkpt lat="46.1667176" lon="12.3129703"><ele>394.5</ele><time>2026-04-26T15:56:49.857Z</time></trkpt><trkpt lat="46.1667247" lon="12.3127934"><ele>395.0</ele><time>2026-04-26T15:56:50.856Z</time></trkpt><trkpt lat="46.1667462" lon="12.3126212"><ele>395.5</ele><time>2026-04-26T15:56:51.868Z</time></trkpt><trkpt lat="46.1667867" lon="12.3124502"><ele>396.0</ele><time>2026-04-26T15:56:52.853Z</time></trkpt><trkpt lat="46.1668473" lon="12.3122837"><ele>396.75</ele><time>2026-04-26T15:56:53.861Z</time></trkpt><trkpt lat="46.1669312" lon="12.3121256"><ele>397.5</ele><time>2026-04-26T15:56:54.849Z</time></trkpt><trkpt lat="46.1670548" lon="12.3120044"><ele>398.25</ele><time>2026-04-26T15:56:55.861Z</time></trkpt><trkpt lat="46.1671982" lon="12.3119141"><ele>399.0</ele><time>2026-04-26T15:56:56.859Z</time></trkpt><trkpt lat="46.1673471" lon="12.3118424"><ele>398.25</ele><time>2026-04-26T15:56:57.849Z</time></trkpt><trkpt lat="46.1674945" lon="12.3117872"><ele>397.5</ele><time>2026-04-26T15:56:58.85Z</time></trkpt><trkpt lat="46.1676224" lon="12.3117358"><ele>396.75</ele><time>2026-04-26T15:56:59.861Z</time></trkpt><trkpt lat="46.1677365" lon="12.3116872"><ele>396.0</ele><time>2026-04-26T15:57:00.85Z</time></trkpt><trkpt lat="46.1678428" lon="12.3116318"><ele>396.0</ele><time>2026-04-26T15:57:01.857Z</time></trkpt><trkpt lat="46.167934" lon="12.3115403"><ele>396.0</ele><time>2026-04-26T15:57:02.856Z</time></trkpt><trkpt lat="46.1679951" lon="12.3114095"><ele>396.0</ele><time>2026-04-26T15:57:03.864Z</time></trkpt><trkpt lat="46.1680432" lon="12.3112786"><ele>396.0</ele><time>2026-04-26T15:57:04.846Z</time></trkpt><trkpt lat="46.1680715" lon="12.3111081"><ele>396.0</ele><time>2026-04-26T15:57:06.844Z</time></trkpt><trkpt lat="46.1680683" lon="12.3109997"><ele>407.0</ele><time>2026-04-26T15:57:07.896Z</time></trkpt><trkpt lat="46.1657443" lon="12.3116653"><ele>409.66666666666663</ele><time>2026-04-26T15:57:25.864Z</time></trkpt><trkpt lat="46.1655938" lon="12.311726"><ele>412.33333333333337</ele><time>2026-04-26T15:57:26.869Z</time></trkpt><trkpt lat="46.1654555" lon="12.311819"><ele>415.0</ele><time>2026-04-26T15:57:27.852Z</time></trkpt><trkpt lat="46.1653218" lon="12.3119221"><ele>415.0</ele><time>2026-04-26T15:57:28.847Z</time></trkpt><trkpt lat="46.1651744" lon="12.3120113"><ele>415.0</ele><time>2026-04-26T15:57:29.836Z</time></trkpt><trkpt lat="46.1650192" lon="12.3120899"><ele>415.0</ele><time>2026-04-26T15:57:30.836Z</time></trkpt><trkpt lat="46.1648515" lon="12.3121492"><ele>413.6666666666667</ele><time>2026-04-26T15:57:31.852Z</time></trkpt><trkpt lat="46.1646893" lon="12.3122385"><ele>412.33333333333337</ele><time>2026-04-26T15:57:32.86Z</time></trkpt><trkpt lat="46.1645179" lon="12.3123135"><ele>411.0</ele><time>2026-04-26T15:57:33.838Z</time></trkpt><trkpt lat="46.1643456" lon="12.3123929"><ele>411.0</ele><time>2026-04-26T15:57:34.832Z</time></trkpt><trkpt lat="46.164175" lon="12.3124699"><ele>411.0</ele><time>2026-04-26T15:57:35.837Z</time></trkpt><trkpt lat="46.1640122" lon="12.312548"><ele>411.0</ele><time>2026-04-26T15:57:36.902Z</time></trkpt><trkpt lat="46.163848" lon="12.3126049"><ele>411.66666666666663</ele><time>2026-04-26T15:57:37.835Z</time></trkpt><trkpt lat="46.1636819" lon="12.3126652"><ele>412.3333333333333</ele><time>2026-04-26T15:57:38.836Z</time></trkpt><trkpt lat="46.1635127" lon="12.3127458"><ele>413.0</ele><time>2026-04-26T15:57:39.835Z</time></trkpt><trkpt lat="46.1633468" lon="12.3128105"><ele>409.0</ele><time>2026-04-26T15:57:40.847Z</time></trkpt><trkpt lat="46.1578883" lon="12.3155102"><ele>403.0</ele><time>2026-04-26T15:58:05.849Z</time></trkpt><trkpt lat="46.1576687" lon="12.3156457"><ele>397.0</ele><time>2026-04-26T15:58:06.853Z</time></trkpt><trkpt lat="46.1574646" lon="12.3157743"><ele>408.0</ele><time>2026-04-26T15:58:07.873Z</time></trkpt><trkpt lat="46.157255" lon="12.3159277"><ele>419.0</ele><time>2026-04-26T15:58:08.839Z</time></trkpt><trkpt lat="46.1570574" lon="12.3160953"><ele>419.0</ele><time>2026-04-26T15:58:09.84Z</time></trkpt><trkpt lat="46.1568574" lon="12.3162511"><ele>419.0</ele><time>2026-04-26T15:58:10.844Z</time></trkpt><trkpt lat="46.1566487" lon="12.3163915"><ele>418.0</ele><time>2026-04-26T15:58:11.853Z</time></trkpt><trkpt lat="46.1564466" lon="12.3165339"><ele>417.0</ele><time>2026-04-26T15:58:12.849Z</time></trkpt><trkpt lat="46.1562447" lon="12.3166764"><ele>417.0</ele><time>2026-04-26T15:58:13.852Z</time></trkpt><trkpt lat="46.1560444" lon="12.3168198"><ele>417.0</ele><time>2026-04-26T15:58:14.844Z</time></trkpt><trkpt lat="46.1558456" lon="12.3169611"><ele>417.0</ele><time>2026-04-26T15:58:15.845Z</time></trkpt><trkpt lat="46.1556495" lon="12.3171003"><ele>415.66666666666663</ele><time>2026-04-26T15:58:16.851Z</time></trkpt><trkpt lat="46.1554534" lon="12.3172361"><ele>414.3333333333333</ele><time>2026-04-26T15:58:17.84Z</time></trkpt><trkpt lat="46.1552544" lon="12.3173671"><ele>413.0</ele><time>2026-04-26T15:58:18.838Z</time></trkpt><trkpt lat="46.1550491" lon="12.3174905"><ele>416.0</ele><time>2026-04-26T15:58:19.846Z</time></trkpt><trkpt lat="46.1548388" lon="12.3176031"><ele>419.0</ele><time>2026-04-26T15:58:20.856Z</time></trkpt><trkpt lat="46.1546269" lon="12.317707"><ele>422.0</ele><time>2026-04-26T15:58:21.853Z</time></trkpt><trkpt lat="46.1544135" lon="12.3177967"><ele>422.0</ele><time>2026-04-26T15:58:22.844Z</time></trkpt><trkpt lat="46.154198" lon="12.3178611"><ele>422.0</ele><time>2026-04-26T15:58:23.852Z</time></trkpt><trkpt lat="46.1539814" lon="12.3179076"><ele>422.0</ele><time>2026-04-26T15:58:24.837Z</time></trkpt><trkpt lat="46.1537647" lon="12.3179366"><ele>422.3333333333333</ele><time>2026-04-26T15:58:25.869Z</time></trkpt><trkpt lat="46.1535476" lon="12.3179373"><ele>422.66666666666663</ele><time>2026-04-26T15:58:26.849Z</time></trkpt><trkpt lat="46.153331" lon="12.3179315"><ele>423.0</ele><time>2026-04-26T15:58:27.853Z</time></trkpt><trkpt lat="46.1531145" lon="12.3179118"><ele>422.33333333333337</ele><time>2026-04-26T15:58:28.84Z</time></trkpt><trkpt lat="46.1529" lon="12.3178704"><ele>421.6666666666667</ele><time>2026-04-26T15:58:29.851Z</time></trkpt><trkpt lat="46.1526885" lon="12.3178161"><ele>421.0</ele><time>2026-04-26T15:58:30.855Z</time></trkpt><trkpt lat="46.1524826" lon="12.3177481"><ele>419.33333333333337</ele><time>2026-04-26T15:58:31.845Z</time></trkpt><trkpt lat="46.1522813" lon="12.3176739"><ele>417.66666666666663</ele><time>2026-04-26T15:58:32.844Z</time></trkpt><trkpt lat="46.1520832" lon="12.3175961"><ele>416.0</ele><time>2026-04-26T15:58:33.848Z</time></trkpt><trkpt lat="46.1518868" lon="12.3175258"><ele>416.0</ele><time>2026-04-26T15:58:34.853Z</time></trkpt><trkpt lat="46.1516945" lon="12.3174646"><ele>416.0</ele><time>2026-04-26T15:58:35.845Z</time></trkpt><trkpt lat="46.1515052" lon="12.3174114"><ele>416.0</ele><time>2026-04-26T15:58:36.854Z</time></trkpt><trkpt lat="46.1513181" lon="12.3173642"><ele>413.66666666666663</ele><time>2026-04-26T15:58:37.856Z</time></trkpt><trkpt lat="46.1511367" lon="12.3173213"><ele>411.33333333333337</ele><time>2026-04-26T15:58:38.84Z</time></trkpt><trkpt lat="46.1509609" lon="12.3172901"><ele>409.0</ele><time>2026-04-26T15:58:39.85Z</time></trkpt><trkpt lat="46.1507944" lon="12.3172699"><ele>409.25</ele><time>2026-04-26T15:58:40.841Z</time></trkpt><trkpt lat="46.1506425" lon="12.3172584"><ele>409.5</ele><time>2026-04-26T15:58:41.858Z</time></trkpt><trkpt lat="46.1505043" lon="12.3172517"><ele>409.75</ele><time>2026-04-26T15:58:42.847Z</time></trkpt><trkpt lat="46.150376" lon="12.3172504"><ele>410.0</ele><time>2026-04-26T15:58:43.851Z</time></trkpt><trkpt lat="46.1502594" lon="12.3172561"><ele>410.0</ele><time>2026-04-26T15:58:44.841Z</time></trkpt><trkpt lat="46.1501513" lon="12.3172612"><ele>410.0</ele><time>2026-04-26T15:58:45.849Z</time></trkpt><trkpt lat="46.1500496" lon="12.31727"><ele>410.0</ele><time>2026-04-26T15:58:46.836Z</time></trkpt><trkpt lat="46.1499555" lon="12.3172726"><ele>410.0</ele><time>2026-04-26T15:58:47.846Z</time></trkpt><trkpt lat="46.149873" lon="12.3172796"><ele>410.0</ele><time>2026-04-26T15:58:48.852Z</time></trkpt><trkpt lat="46.1498011" lon="12.3172848"><ele>409.8333333333333</ele><time>2026-04-26T15:58:49.862Z</time></trkpt><trkpt lat="46.1497345" lon="12.3172888"><ele>409.66666666666663</ele><time>2026-04-26T15:58:50.862Z</time></trkpt><trkpt lat="46.1496718" lon="12.3172977"><ele>409.5</ele><time>2026-04-26T15:58:51.869Z</time></trkpt><trkpt lat="46.1496087" lon="12.3173317"><ele>409.33333333333337</ele><time>2026-04-26T15:58:52.837Z</time></trkpt><trkpt lat="46.1495238" lon="12.3173408"><ele>409.1666666666667</ele><time>2026-04-26T15:58:53.842Z</time></trkpt><trkpt lat="46.1494127" lon="12.3173698"><ele>409.0</ele><time>2026-04-26T15:58:54.847Z</time></trkpt><trkpt lat="46.1492679" lon="12.3173952"><ele>409.0</ele><time>2026-04-26T15:58:55.855Z</time></trkpt><trkpt lat="46.1491064" lon="12.3174156"><ele>409.0</ele><time>2026-04-26T15:58:56.839Z</time></trkpt><trkpt lat="46.1489288" lon="12.3174426"><ele>409.0</ele><time>2026-04-26T15:58:57.859Z</time></trkpt><trkpt lat="46.1487316" lon="12.3174744"><ele>410.0</ele><time>2026-04-26T15:58:58.854Z</time></trkpt><trkpt lat="46.1485176" lon="12.3175141"><ele>411.0</ele><time>2026-04-26T15:58:59.857Z</time></trkpt><trkpt lat="46.1482937" lon="12.3175599"><ele>412.0</ele><time>2026-04-26T15:59:00.853Z</time></trkpt><trkpt lat="46.1480589" lon="12.3175992"><ele>413.5</ele><time>2026-04-26T15:59:01.841Z</time></trkpt><trkpt lat="46.1478179" lon="12.3176376"><ele>415.0</ele><time>2026-04-26T15:59:02.848Z</time></trkpt><trkpt lat="46.1475701" lon="12.3176664"><ele>414.0</ele><time>2026-04-26T15:59:03.846Z</time></trkpt><trkpt lat="46.1473156" lon="12.3176918"><ele>413.0</ele><time>2026-04-26T15:59:04.836Z</time></trkpt><trkpt lat="46.147053" lon="12.3177036"><ele>413.0</ele><time>2026-04-26T15:59:05.852Z</time></trkpt><trkpt lat="46.1467834" lon="12.3176978"><ele>413.0</ele><time>2026-04-26T15:59:06.851Z</time></trkpt><trkpt lat="46.1465083" lon="12.3176737"><ele>411.5</ele><time>2026-04-26T15:59:07.844Z</time></trkpt><trkpt lat="46.1462309" lon="12.3176269"><ele>410.0</ele><time>2026-04-26T15:59:08.858Z</time></trkpt><trkpt lat="46.1459525" lon="12.3175607"><ele>408.5</ele><time>2026-04-26T15:59:09.866Z</time></trkpt><trkpt lat="46.1456738" lon="12.3174694"><ele>407.0</ele><time>2026-04-26T15:59:10.843Z</time></trkpt><trkpt lat="46.1453954" lon="12.3173562"><ele>408.5</ele><time>2026-04-26T15:59:11.844Z</time></trkpt><trkpt lat="46.1451211" lon="12.3172157"><ele>410.0</ele><time>2026-04-26T15:59:12.849Z</time></trkpt><trkpt lat="46.1448478" lon="12.3170463"><ele>410.0</ele><time>2026-04-26T15:59:13.853Z</time></trkpt><trkpt lat="46.1445748" lon="12.3168584"><ele>410.0</ele><time>2026-04-26T15:59:14.842Z</time></trkpt><trkpt lat="46.1443025" lon="12.3166545"><ele>410.0</ele><time>2026-04-26T15:59:15.864Z</time></trkpt><trkpt lat="46.1440321" lon="12.3164284"><ele>410.0</ele><time>2026-04-26T15:59:16.849Z</time></trkpt><trkpt lat="46.1437515" lon="12.3162067"><ele>410.0</ele><time>2026-04-26T15:59:17.857Z</time></trkpt><trkpt lat="46.143463" lon="12.3159729"><ele>410.0</ele><time>2026-04-26T15:59:18.862Z</time></trkpt><trkpt lat="46.1431669" lon="12.3157366"><ele>410.0</ele><time>2026-04-26T15:59:19.866Z</time></trkpt><trkpt lat="46.1428794" lon="12.3155056"><ele>410.0</ele><time>2026-04-26T15:59:20.856Z</time></trkpt><trkpt lat="46.1426049" lon="12.315282"><ele>409.5</ele><time>2026-04-26T15:59:21.883Z</time></trkpt><trkpt lat="46.1423342" lon="12.3150696"><ele>409.0</ele><time>2026-04-26T15:59:22.852Z</time></trkpt><trkpt lat="46.1420609" lon="12.3148786"><ele>413.0</ele><time>2026-04-26T15:59:23.861Z</time></trkpt><trkpt lat="46.1417832" lon="12.314714"><ele>417.0</ele><time>2026-04-26T15:59:24.855Z</time></trkpt><trkpt lat="46.1414973" lon="12.3145841"><ele>417.0</ele><time>2026-04-26T15:59:25.867Z</time></trkpt><trkpt lat="46.1412031" lon="12.3144912"><ele>417.0</ele><time>2026-04-26T15:59:26.857Z</time></trkpt><trkpt lat="46.1409007" lon="12.3144341"><ele>417.5</ele><time>2026-04-26T15:59:27.858Z</time></trkpt><trkpt lat="46.1405937" lon="12.3144165"><ele>418.0</ele><time>2026-04-26T15:59:28.865Z</time></trkpt><trkpt lat="46.1402838" lon="12.3144317"><ele>418.0</ele><time>2026-04-26T15:59:29.868Z</time></trkpt><trkpt lat="46.1399693" lon="12.3144824"><ele>418.0</ele><time>2026-04-26T15:59:30.86Z</time></trkpt><trkpt lat="46.13965" lon="12.3145594"><ele>420.0</ele><time>2026-04-26T15:59:31.878Z</time></trkpt><trkpt lat="46.1393263" lon="12.3146463"><ele>422.0</ele><time>2026-04-26T15:59:32.86Z</time></trkpt><trkpt lat="46.139005" lon="12.3147457"><ele>416.0</ele><time>2026-04-26T15:59:33.872Z</time></trkpt><trkpt lat="46.1386838" lon="12.3148356"><ele>410.0</ele><time>2026-04-26T15:59:34.861Z</time></trkpt><trkpt lat="46.1383623" lon="12.3149196"><ele>413.5</ele><time>2026-04-26T15:59:35.87Z</time></trkpt><trkpt lat="46.1380429" lon="12.3150036"><ele>417.0</ele><time>2026-04-26T15:59:36.869Z</time></trkpt><trkpt lat="46.1377271" lon="12.3150852"><ele>417.0</ele><time>2026-04-26T15:59:37.86Z</time></trkpt><trkpt lat="46.137416" lon="12.3151627"><ele>417.0</ele><time>2026-04-26T15:59:38.865Z</time></trkpt><trkpt lat="46.1371067" lon="12.3152349"><ele>417.0</ele><time>2026-04-26T15:59:39.867Z</time></trkpt><trkpt lat="46.1367973" lon="12.3153041"><ele>417.0</ele><time>2026-04-26T15:59:40.859Z</time></trkpt><trkpt lat="46.1364876" lon="12.3153719"><ele>417.0</ele><time>2026-04-26T15:59:41.867Z</time></trkpt><trkpt lat="46.1361762" lon="12.3154366"><ele>417.0</ele><time>2026-04-26T15:59:42.869Z</time></trkpt><trkpt lat="46.1358617" lon="12.3154958"><ele>413.5</ele><time>2026-04-26T15:59:43.871Z</time></trkpt><trkpt lat="46.1355449" lon="12.3155465"><ele>410.0</ele><time>2026-04-26T15:59:44.867Z</time></trkpt><trkpt lat="46.1352279" lon="12.3155916"><ele>409.0</ele><time>2026-04-26T15:59:45.876Z</time></trkpt><trkpt lat="46.1349111" lon="12.3156299"><ele>408.0</ele><time>2026-04-26T15:59:46.85Z</time></trkpt><trkpt lat="46.1345942" lon="12.315665"><ele>408.0</ele><time>2026-04-26T15:59:47.878Z</time></trkpt><trkpt lat="46.1342785" lon="12.3156983"><ele>408.0</ele><time>2026-04-26T15:59:48.908Z</time></trkpt><trkpt lat="46.133963" lon="12.3157317"><ele>411.0</ele><time>2026-04-26T15:59:49.881Z</time></trkpt><trkpt lat="46.1336464" lon="12.3157637"><ele>414.0</ele><time>2026-04-26T15:59:50.876Z</time></trkpt><trkpt lat="46.1333291" lon="12.3157974"><ele>417.5</ele><time>2026-04-26T15:59:51.87Z</time></trkpt><trkpt lat="46.1330113" lon="12.3158315"><ele>421.0</ele><time>2026-04-26T15:59:52.866Z</time></trkpt><trkpt lat="46.1326918" lon="12.3158654"><ele>425.0</ele><time>2026-04-26T15:59:53.882Z</time></trkpt><trkpt lat="46.1323685" lon="12.315898"><ele>429.0</ele><time>2026-04-26T15:59:54.878Z</time></trkpt><trkpt lat="46.1320451" lon="12.3159277"><ele>429.0</ele><time>2026-04-26T15:59:55.882Z</time></trkpt><trkpt lat="46.1317251" lon="12.3159575"><ele>429.0</ele><time>2026-04-26T15:59:56.86Z</time></trkpt><trkpt lat="46.1314014" lon="12.3159932"><ele>432.5</ele><time>2026-04-26T15:59:57.881Z</time></trkpt><trkpt lat="46.1310901" lon="12.3160289"><ele>436.0</ele><time>2026-04-26T15:59:58.872Z</time></trkpt><trkpt lat="46.1307757" lon="12.3160651"><ele>435.0</ele><time>2026-04-26T15:59:59.86Z</time></trkpt><trkpt lat="46.130462" lon="12.3161041"><ele>434.0</ele><time>2026-04-26T16:00:00.856Z</time></trkpt><trkpt lat="46.13015" lon="12.3161462"><ele>438.0</ele><time>2026-04-26T16:00:01.855Z</time></trkpt><trkpt lat="46.129838" lon="12.3161874"><ele>442.0</ele><time>2026-04-26T16:00:02.858Z</time></trkpt><trkpt lat="46.1295256" lon="12.3162243"><ele>442.0</ele><time>2026-04-26T16:00:03.865Z</time></trkpt><trkpt lat="46.1292171" lon="12.3162603"><ele>442.0</ele><time>2026-04-26T16:00:04.852Z</time></trkpt><trkpt lat="46.1289033" lon="12.3163038"><ele>445.5</ele><time>2026-04-26T16:00:05.864Z</time></trkpt><trkpt lat="46.128587" lon="12.3163481"><ele>449.0</ele><time>2026-04-26T16:00:06.858Z</time></trkpt><trkpt lat="46.128283" lon="12.3163909"><ele>446.0</ele><time>2026-04-26T16:00:07.865Z</time></trkpt><trkpt lat="46.1279431" lon="12.3164455"><ele>443.0</ele><time>2026-04-26T16:00:08.851Z</time></trkpt><trkpt lat="46.1276184" lon="12.3165004"><ele>445.5</ele><time>2026-04-26T16:00:09.848Z</time></trkpt><trkpt lat="46.1272987" lon="12.3165603"><ele>448.0</ele><time>2026-04-26T16:00:10.831Z</time></trkpt><trkpt lat="46.1269633" lon="12.3166291"><ele>448.0</ele><time>2026-04-26T16:00:11.84Z</time></trkpt><trkpt lat="46.1266303" lon="12.3166993"><ele>448.0</ele><time>2026-04-26T16:00:12.84Z</time></trkpt><trkpt lat="46.1263022" lon="12.3167689"><ele>452.5</ele><time>2026-04-26T16:00:13.849Z</time></trkpt><trkpt lat="46.1259827" lon="12.3168342"><ele>457.0</ele><time>2026-04-26T16:00:14.838Z</time></trkpt><trkpt lat="46.1256739" lon="12.3168968"><ele>463.5</ele><time>2026-04-26T16:00:15.836Z</time></trkpt><trkpt lat="46.1253488" lon="12.3169713"><ele>470.0</ele><time>2026-04-26T16:00:16.814Z</time></trkpt><trkpt lat="46.1250575" lon="12.3170356"><ele>480.5</ele><time>2026-04-26T16:00:17.773Z</time></trkpt><trkpt lat="46.1247496" lon="12.3171047"><ele>491.0</ele><time>2026-04-26T16:00:18.771Z</time></trkpt><trkpt lat="46.1244343" lon="12.3171744"><ele>488.5</ele><time>2026-04-26T16:00:19.761Z</time></trkpt><trkpt lat="46.1241019" lon="12.3172542"><ele>486.0</ele><time>2026-04-26T16:00:20.765Z</time></trkpt><trkpt lat="46.1238091" lon="12.3173219"><ele>486.0</ele><time>2026-04-26T16:00:21.753Z</time></trkpt><trkpt lat="46.1234913" lon="12.3173913"><ele>486.0</ele><time>2026-04-26T16:00:22.751Z</time></trkpt><trkpt lat="46.1231629" lon="12.3174612"><ele>495.5</ele><time>2026-04-26T16:00:23.756Z</time></trkpt><trkpt lat="46.1228112" lon="12.3175353"><ele>505.0</ele><time>2026-04-26T16:00:24.751Z</time></trkpt><trkpt lat="46.1224589" lon="12.3176075"><ele>514.5</ele><time>2026-04-26T16:00:25.756Z</time></trkpt><trkpt lat="46.1220742" lon="12.3176874"><ele>524.0</ele><time>2026-04-26T16:00:26.756Z</time></trkpt><trkpt lat="46.1216777" lon="12.3177745"><ele>538.0</ele><time>2026-04-26T16:00:27.759Z</time></trkpt><trkpt lat="46.1213411" lon="12.3178421"><ele>552.0</ele><time>2026-04-26T16:00:28.752Z</time></trkpt><trkpt lat="46.1209916" lon="12.3179125"><ele>560.0</ele><time>2026-04-26T16:00:29.754Z</time></trkpt><trkpt lat="46.1206462" lon="12.3179898"><ele>568.0</ele><time>2026-04-26T16:00:30.754Z</time></trkpt><trkpt lat="46.1205109" lon="12.3180095"><ele>568.0</ele><time>2026-04-26T16:00:31.757Z</time></trkpt><trkpt lat="46.1204036" lon="12.3180182"><ele>568.0</ele><time>2026-04-26T16:00:32.755Z</time></trkpt><trkpt lat="46.1201279" lon="12.3180698"><ele>568.0</ele><time>2026-04-26T16:00:33.761Z</time></trkpt><trkpt lat="46.1198413" lon="12.3181321"><ele>569.5</ele><time>2026-04-26T16:00:34.753Z</time></trkpt><trkpt lat="46.1195587" lon="12.3181897"><ele>571.0</ele><time>2026-04-26T16:00:35.751Z</time></trkpt><trkpt lat="46.1193069" lon="12.3182404"><ele>586.0</ele><time>2026-04-26T16:00:36.754Z</time></trkpt><trkpt lat="46.1189647" lon="12.3183161"><ele>601.0</ele><time>2026-04-26T16:00:37.753Z</time></trkpt><trkpt lat="46.1187844" lon="12.3183539"><ele>601.0</ele><time>2026-04-26T16:00:38.75Z</time></trkpt><trkpt lat="46.1186618" lon="12.3183759"><ele>601.0</ele><time>2026-04-26T16:00:39.749Z</time></trkpt><trkpt lat="46.1184658" lon="12.3184125"><ele>601.0</ele><time>2026-04-26T16:00:40.756Z</time></trkpt><trkpt lat="46.118362" lon="12.3184351"><ele>601.0</ele><time>2026-04-26T16:00:41.749Z</time></trkpt><trkpt lat="46.118177" lon="12.3184691"><ele>607.0</ele><time>2026-04-26T16:00:42.75Z</time></trkpt><trkpt lat="46.1179619" lon="12.3185116"><ele>613.0</ele><time>2026-04-26T16:00:44.758Z</time></trkpt><trkpt lat="46.1177422" lon="12.31857"><ele>619.0</ele><time>2026-04-26T16:00:46.752Z</time></trkpt><trkpt lat="46.1176274" lon="12.3185941"><ele>619.0</ele><time>2026-04-26T16:00:47.75Z</time></trkpt><trkpt lat="46.1174192" lon="12.318639"><ele>619.0</ele><time>2026-04-26T16:00:48.752Z</time></trkpt><trkpt lat="46.1172885" lon="12.318664"><ele>619.0</ele><time>2026-04-26T16:00:49.757Z</time></trkpt><trkpt lat="46.1171865" lon="12.3186833"><ele>619.0</ele><time>2026-04-26T16:00:50.753Z</time></trkpt><trkpt lat="46.1171168" lon="12.3187041"><ele>625.5</ele><time>2026-04-26T16:00:51.759Z</time></trkpt><trkpt lat="46.1172308" lon="12.3186819"><ele>632.0</ele><time>2026-04-26T16:00:52.747Z</time></trkpt><trkpt lat="46.1170593" lon="12.3187217"><ele>638.5</ele><time>2026-04-26T16:00:56.756Z</time></trkpt><trkpt lat="46.1171522" lon="12.3186937"><ele>645.0</ele><time>2026-04-26T16:00:57.752Z</time></trkpt><trkpt lat="46.1169932" lon="12.3187333"><ele>645.0</ele><time>2026-04-26T16:00:58.751Z</time></trkpt><trkpt lat="46.1168226" lon="12.3187678"><ele>645.0</ele><time>2026-04-26T16:00:59.755Z</time></trkpt><trkpt lat="46.1165987" lon="12.3188137"><ele>645.0</ele><time>2026-04-26T16:01:00.758Z</time></trkpt><trkpt lat="46.1164952" lon="12.3188326"><ele>645.0</ele><time>2026-04-26T16:01:01.756Z</time></trkpt><trkpt lat="46.1164068" lon="12.3188476"><ele>645.0</ele><time>2026-04-26T16:01:02.758Z</time></trkpt><trkpt lat="46.1166608" lon="12.3187994"><ele>645.0</ele><time>2026-04-26T16:01:03.757Z</time></trkpt><trkpt lat="46.0951422" lon="12.3239562"><ele>559.5</ele><time>2026-04-26T16:01:52.801Z</time></trkpt><trkpt lat="46.0948883" lon="12.3240257"><ele>474.0</ele><time>2026-04-26T16:01:53.896Z</time></trkpt><trkpt lat="46.0945747" lon="12.3241345"><ele>474.0</ele><time>2026-04-26T16:01:54.844Z</time></trkpt><trkpt lat="46.0942787" lon="12.3242479"><ele>474.0</ele><time>2026-04-26T16:01:55.862Z</time></trkpt><trkpt lat="46.0940025" lon="12.3243501"><ele>485.0</ele><time>2026-04-26T16:01:56.855Z</time></trkpt><trkpt lat="46.0936798" lon="12.324456"><ele>496.0</ele><time>2026-04-26T16:01:57.859Z</time></trkpt><trkpt lat="46.0934347" lon="12.324536"><ele>505.5</ele><time>2026-04-26T16:01:58.846Z</time></trkpt><trkpt lat="46.0931713" lon="12.3246234"><ele>515.0</ele><time>2026-04-26T16:01:59.871Z</time></trkpt><trkpt lat="46.0929354" lon="12.3247018"><ele>506.0</ele><time>2026-04-26T16:02:00.84Z</time></trkpt><trkpt lat="46.0926967" lon="12.3247819"><ele>497.0</ele><time>2026-04-26T16:02:01.882Z</time></trkpt><trkpt lat="46.0924955" lon="12.3248505"><ele>503.0</ele><time>2026-04-26T16:02:02.845Z</time></trkpt><trkpt lat="46.0922992" lon="12.3249167"><ele>509.0</ele><time>2026-04-26T16:02:03.858Z</time></trkpt><trkpt lat="46.0921273" lon="12.3249758"><ele>515.0</ele><time>2026-04-26T16:02:04.811Z</time></trkpt><trkpt lat="46.0919577" lon="12.3250362"><ele>515.0</ele><time>2026-04-26T16:02:05.828Z</time></trkpt><trkpt lat="46.0917914" lon="12.3250954"><ele>515.0</ele><time>2026-04-26T16:02:06.827Z</time></trkpt><trkpt lat="46.0916561" lon="12.3251448"><ele>515.0</ele><time>2026-04-26T16:02:07.824Z</time></trkpt><trkpt lat="46.0915042" lon="12.3252023"><ele>519.75</ele><time>2026-04-26T16:02:08.828Z</time></trkpt><trkpt lat="46.0913665" lon="12.3252561"><ele>524.5</ele><time>2026-04-26T16:02:09.785Z</time></trkpt><trkpt lat="46.0912307" lon="12.3253079"><ele>529.25</ele><time>2026-04-26T16:02:10.779Z</time></trkpt><trkpt lat="46.091129" lon="12.3253369"><ele>534.0</ele><time>2026-04-26T16:02:11.776Z</time></trkpt><trkpt lat="46.0912506" lon="12.3252581"><ele>534.0</ele><time>2026-04-26T16:02:16.757Z</time></trkpt><trkpt lat="46.0910118" lon="12.3253417"><ele>534.0</ele><time>2026-04-26T16:02:18.752Z</time></trkpt><trkpt lat="46.0908944" lon="12.3253832"><ele>534.0</ele><time>2026-04-26T16:02:20.76Z</time></trkpt><trkpt lat="46.0906987" lon="12.3254526"><ele>534.0</ele><time>2026-04-26T16:02:23.763Z</time></trkpt><trkpt lat="46.090825" lon="12.3254085"><ele>534.0</ele><time>2026-04-26T16:02:28.75Z</time></trkpt><trkpt lat="46.0909986" lon="12.3253515"><ele>534.0</ele><time>2026-04-26T16:02:30.753Z</time></trkpt><trkpt lat="46.0911379" lon="12.3253033"><ele>558.0</ele><time>2026-04-26T16:02:36.756Z</time></trkpt><trkpt lat="46.0906761" lon="12.3254541"><ele>549.0</ele><time>2026-04-26T16:02:37.753Z</time></trkpt><trkpt lat="46.0903158" lon="12.3255759"><ele>540.0</ele><time>2026-04-26T16:02:38.779Z</time></trkpt><trkpt lat="46.0901568" lon="12.3256313"><ele>549.0</ele><time>2026-04-26T16:02:39.754Z</time></trkpt><trkpt lat="46.0905382" lon="12.3254967"><ele>558.0</ele><time>2026-04-26T16:02:42.743Z</time></trkpt><trkpt lat="46.0906194" lon="12.325469"><ele>558.0</ele><time>2026-04-26T16:02:43.758Z</time></trkpt><trkpt lat="46.0906908" lon="12.3254419"><ele>558.0</ele><time>2026-04-26T16:02:44.75Z</time></trkpt><trkpt lat="46.0908875" lon="12.3253678"><ele>558.0</ele><time>2026-04-26T16:02:45.756Z</time></trkpt><trkpt lat="46.0909695" lon="12.3253353"><ele>558.0</ele><time>2026-04-26T16:02:46.751Z</time></trkpt><trkpt lat="46.0911008" lon="12.325284"><ele>546.0</ele><time>2026-04-26T16:02:47.755Z</time></trkpt><trkpt lat="46.091204" lon="12.3252437"><ele>534.0</ele><time>2026-04-26T16:02:48.755Z</time></trkpt><trkpt lat="46.0917765" lon="12.3250185"><ele>534.0</ele><time>2026-04-26T16:02:50.754Z</time></trkpt><trkpt lat="46.0914938" lon="12.3251408"><ele>534.0</ele><time>2026-04-26T16:02:51.769Z</time></trkpt><trkpt lat="46.091259" lon="12.3252469"><ele>515.0</ele><time>2026-04-26T16:02:52.76Z</time></trkpt><trkpt lat="46.0917323" lon="12.3250467"><ele>557.0</ele><time>2026-04-26T16:02:53.78Z</time></trkpt><trkpt lat="46.0770985" lon="12.3313315"><ele>462.0</ele><time>2026-04-26T16:02:55.796Z</time></trkpt><trkpt lat="46.0757824" lon="12.332215"><ele>405.0</ele><time>2026-04-26T16:02:56.84Z</time></trkpt><trkpt lat="46.0752398" lon="12.3328488"><ele>405.0</ele><time>2026-04-26T16:02:57.861Z</time></trkpt><trkpt lat="46.0749511" lon="12.3330516"><ele>405.0</ele><time>2026-04-26T16:02:58.857Z</time></trkpt><trkpt lat="46.0746575" lon="12.3332595"><ele>397.0</ele><time>2026-04-26T16:02:59.845Z</time></trkpt><trkpt lat="46.0743788" lon="12.3334657"><ele>389.0</ele><time>2026-04-26T16:03:00.854Z</time></trkpt><trkpt lat="46.0741011" lon="12.3336673"><ele>382.0</ele><time>2026-04-26T16:03:01.844Z</time></trkpt><trkpt lat="46.0738488" lon="12.3338959"><ele>375.0</ele><time>2026-04-26T16:03:02.849Z</time></trkpt><trkpt lat="46.0735667" lon="12.3341137"><ele>375.0</ele><time>2026-04-26T16:03:03.885Z</time></trkpt><trkpt lat="46.0732892" lon="12.3343211"><ele>375.0</ele><time>2026-04-26T16:03:04.874Z</time></trkpt><trkpt lat="46.073012" lon="12.334521"><ele>364.0</ele><time>2026-04-26T16:03:05.853Z</time></trkpt><trkpt lat="46.0727204" lon="12.3347178"><ele>353.0</ele><time>2026-04-26T16:03:06.866Z</time></trkpt><trkpt lat="46.0724303" lon="12.3348974"><ele>344.0</ele><time>2026-04-26T16:03:07.856Z</time></trkpt><trkpt lat="46.0721325" lon="12.3350701"><ele>335.0</ele><time>2026-04-26T16:03:08.869Z</time></trkpt><trkpt lat="46.0718361" lon="12.3352136"><ele>328.0</ele><time>2026-04-26T16:03:09.873Z</time></trkpt><trkpt lat="46.0715301" lon="12.3353409"><ele>321.0</ele><time>2026-04-26T16:03:10.852Z</time></trkpt><trkpt lat="46.0712232" lon="12.3354462"><ele>321.0</ele><time>2026-04-26T16:03:11.866Z</time></trkpt><trkpt lat="46.0709113" lon="12.3355404"><ele>321.0</ele><time>2026-04-26T16:03:12.851Z</time></trkpt><trkpt lat="46.0705984" lon="12.3356168"><ele>323.5</ele><time>2026-04-26T16:03:13.852Z</time></trkpt><trkpt lat="46.0702822" lon="12.3356827"><ele>326.0</ele><time>2026-04-26T16:03:14.854Z</time></trkpt><trkpt lat="46.0699669" lon="12.3357319"><ele>323.5</ele><time>2026-04-26T16:03:15.865Z</time></trkpt><trkpt lat="46.0696538" lon="12.3357604"><ele>321.0</ele><time>2026-04-26T16:03:16.844Z</time></trkpt><trkpt lat="46.0693351" lon="12.3357694"><ele>324.5</ele><time>2026-04-26T16:03:17.87Z</time></trkpt><trkpt lat="46.069025" lon="12.3357593"><ele>328.0</ele><time>2026-04-26T16:03:18.858Z</time></trkpt><trkpt lat="46.0687158" lon="12.3357274"><ele>328.0</ele><time>2026-04-26T16:03:19.851Z</time></trkpt><trkpt lat="46.0684026" lon="12.3356817"><ele>328.0</ele><time>2026-04-26T16:03:20.855Z</time></trkpt><trkpt lat="46.0680908" lon="12.3356223"><ele>324.0</ele><time>2026-04-26T16:03:21.861Z</time></trkpt><trkpt lat="46.0677835" lon="12.3355463"><ele>320.0</ele><time>2026-04-26T16:03:22.858Z</time></trkpt><trkpt lat="46.0674764" lon="12.3354517"><ele>328.0</ele><time>2026-04-26T16:03:23.856Z</time></trkpt><trkpt lat="46.0671765" lon="12.3353336"><ele>336.0</ele><time>2026-04-26T16:03:24.854Z</time></trkpt><trkpt lat="46.0668757" lon="12.3351962"><ele>350.5</ele><time>2026-04-26T16:03:25.883Z</time></trkpt><trkpt lat="46.0665865" lon="12.3350459"><ele>365.0</ele><time>2026-04-26T16:03:26.873Z</time></trkpt><trkpt lat="46.0662818" lon="12.334866"><ele>369.5</ele><time>2026-04-26T16:03:27.874Z</time></trkpt><trkpt lat="46.0659803" lon="12.3346668"><ele>374.0</ele><time>2026-04-26T16:03:28.86Z</time></trkpt><trkpt lat="46.0656888" lon="12.3344538"><ele>374.0</ele><time>2026-04-26T16:03:29.852Z</time></trkpt><trkpt lat="46.0654098" lon="12.3342306"><ele>374.0</ele><time>2026-04-26T16:03:30.843Z</time></trkpt><trkpt lat="46.0651318" lon="12.3339968"><ele>376.0</ele><time>2026-04-26T16:03:31.852Z</time></trkpt><trkpt lat="46.0648566" lon="12.3337573"><ele>378.0</ele><time>2026-04-26T16:03:32.862Z</time></trkpt><trkpt lat="46.0645879" lon="12.3335089"><ele>378.0</ele><time>2026-04-26T16:03:33.855Z</time></trkpt><trkpt lat="46.0643268" lon="12.3332511"><ele>378.0</ele><time>2026-04-26T16:03:34.863Z</time></trkpt><trkpt lat="46.0640682" lon="12.3329752"><ele>385.5</ele><time>2026-04-26T16:03:35.867Z</time></trkpt><trkpt lat="46.0638201" lon="12.3326909"><ele>393.0</ele><time>2026-04-26T16:03:36.848Z</time></trkpt><trkpt lat="46.0635717" lon="12.3324004"><ele>396.5</ele><time>2026-04-26T16:03:37.854Z</time></trkpt><trkpt lat="46.0633298" lon="12.3321008"><ele>400.0</ele><time>2026-04-26T16:03:38.846Z</time></trkpt><trkpt lat="46.0630865" lon="12.3317928"><ele>400.0</ele><time>2026-04-26T16:03:39.853Z</time></trkpt><trkpt lat="46.0628225" lon="12.3314803"><ele>400.0</ele><time>2026-04-26T16:03:40.852Z</time></trkpt><trkpt lat="46.0625905" lon="12.3311773"><ele>400.0</ele><time>2026-04-26T16:03:41.851Z</time></trkpt><trkpt lat="46.0623606" lon="12.3308662"><ele>400.0</ele><time>2026-04-26T16:03:42.86Z</time></trkpt><trkpt lat="46.0621367" lon="12.3305563"><ele>386.0</ele><time>2026-04-26T16:03:43.848Z</time></trkpt><trkpt lat="46.0619138" lon="12.3302418"><ele>372.0</ele><time>2026-04-26T16:03:44.86Z</time></trkpt><trkpt lat="46.0616908" lon="12.3299331"><ele>375.0</ele><time>2026-04-26T16:03:45.848Z</time></trkpt><trkpt lat="46.0614633" lon="12.3296239"><ele>378.0</ele><time>2026-04-26T16:03:46.85Z</time></trkpt><trkpt lat="46.0612276" lon="12.3293076"><ele>378.0</ele><time>2026-04-26T16:03:47.868Z</time></trkpt><trkpt lat="46.0610021" lon="12.3290031"><ele>378.0</ele><time>2026-04-26T16:03:48.853Z</time></trkpt><trkpt lat="46.0607743" lon="12.3286897"><ele>378.0</ele><time>2026-04-26T16:03:49.859Z</time></trkpt><trkpt lat="46.0605419" lon="12.3283713"><ele>378.0</ele><time>2026-04-26T16:03:50.856Z</time></trkpt><trkpt lat="46.060317" lon="12.3280647"><ele>381.5</ele><time>2026-04-26T16:03:51.857Z</time></trkpt><trkpt lat="46.0600839" lon="12.3277552"><ele>385.0</ele><time>2026-04-26T16:03:52.865Z</time></trkpt><trkpt lat="46.0598536" lon="12.3274552"><ele>370.0</ele><time>2026-04-26T16:03:53.866Z</time></trkpt><trkpt lat="46.0596197" lon="12.3271599"><ele>355.0</ele><time>2026-04-26T16:03:54.846Z</time></trkpt><trkpt lat="46.0593782" lon="12.3268676"><ele>355.0</ele><time>2026-04-26T16:03:55.852Z</time></trkpt><trkpt lat="46.0591345" lon="12.326575"><ele>355.0</ele><time>2026-04-26T16:03:56.86Z</time></trkpt><trkpt lat="46.0588941" lon="12.3262858"><ele>351.0</ele><time>2026-04-26T16:03:57.86Z</time></trkpt><trkpt lat="46.0586542" lon="12.3259977"><ele>347.0</ele><time>2026-04-26T16:03:58.85Z</time></trkpt><trkpt lat="46.0584105" lon="12.3257058"><ele>346.0</ele><time>2026-04-26T16:03:59.853Z</time></trkpt><trkpt lat="46.0581607" lon="12.3254118"><ele>345.0</ele><time>2026-04-26T16:04:00.865Z</time></trkpt><trkpt lat="46.0579226" lon="12.3251265"><ele>345.0</ele><time>2026-04-26T16:04:01.854Z</time></trkpt><trkpt lat="46.0576787" lon="12.3248414"><ele>345.0</ele><time>2026-04-26T16:04:02.851Z</time></trkpt><trkpt lat="46.0574291" lon="12.3245533"><ele>346.5</ele><time>2026-04-26T16:04:03.857Z</time></trkpt><trkpt lat="46.0571865" lon="12.3242723"><ele>348.0</ele><time>2026-04-26T16:04:04.842Z</time></trkpt><trkpt lat="46.0569422" lon="12.3239831"><ele>351.0</ele><time>2026-04-26T16:04:05.851Z</time></trkpt><trkpt lat="46.056699" lon="12.323694"><ele>354.0</ele><time>2026-04-26T16:04:06.857Z</time></trkpt><trkpt lat="46.0564564" lon="12.3234075"><ele>354.0</ele><time>2026-04-26T16:04:07.86Z</time></trkpt><trkpt lat="46.0562148" lon="12.3231196"><ele>354.0</ele><time>2026-04-26T16:04:08.869Z</time></trkpt><trkpt lat="46.055974" lon="12.3228299"><ele>348.5</ele><time>2026-04-26T16:04:09.855Z</time></trkpt><trkpt lat="46.0557304" lon="12.3225363"><ele>343.0</ele><time>2026-04-26T16:04:10.875Z</time></trkpt><trkpt lat="46.0554909" lon="12.322249"><ele>331.0</ele><time>2026-04-26T16:04:11.854Z</time></trkpt><trkpt lat="46.055248" lon="12.3219547"><ele>319.0</ele><time>2026-04-26T16:04:12.87Z</time></trkpt><trkpt lat="46.0550063" lon="12.3216624"><ele>322.0</ele><time>2026-04-26T16:04:13.87Z</time></trkpt><trkpt lat="46.0547648" lon="12.3213712"><ele>325.0</ele><time>2026-04-26T16:04:14.871Z</time></trkpt><trkpt lat="46.0545265" lon="12.321086"><ele>325.0</ele><time>2026-04-26T16:04:15.86Z</time></trkpt><trkpt lat="46.0542857" lon="12.3207991"><ele>325.0</ele><time>2026-04-26T16:04:16.852Z</time></trkpt><trkpt lat="46.054042" lon="12.3205094"><ele>325.0</ele><time>2026-04-26T16:04:17.848Z</time></trkpt><trkpt lat="46.0537974" lon="12.3202211"><ele>325.0</ele><time>2026-04-26T16:04:18.843Z</time></trkpt><trkpt lat="46.053551" lon="12.3199329"><ele>327.5</ele><time>2026-04-26T16:04:19.856Z</time></trkpt><trkpt lat="46.0533068" lon="12.3196428"><ele>330.0</ele><time>2026-04-26T16:04:20.865Z</time></trkpt><trkpt lat="46.053064" lon="12.3193542"><ele>330.0</ele><time>2026-04-26T16:04:21.873Z</time></trkpt><trkpt lat="46.0528151" lon="12.3190642"><ele>330.0</ele><time>2026-04-26T16:04:22.881Z</time></trkpt><trkpt lat="46.0525625" lon="12.3187724"><ele>326.5</ele><time>2026-04-26T16:04:23.853Z</time></trkpt><trkpt lat="46.0523092" lon="12.3184572"><ele>323.0</ele><time>2026-04-26T16:04:24.864Z</time></trkpt><trkpt lat="46.0520584" lon="12.3181345"><ele>317.5</ele><time>2026-04-26T16:04:25.859Z</time></trkpt><trkpt lat="46.0518027" lon="12.3178257"><ele>312.0</ele><time>2026-04-26T16:04:26.867Z</time></trkpt><trkpt lat="46.0515394" lon="12.31754"><ele>309.5</ele><time>2026-04-26T16:04:27.868Z</time></trkpt><trkpt lat="46.0512772" lon="12.3172752"><ele>307.0</ele><time>2026-04-26T16:04:28.85Z</time></trkpt><trkpt lat="46.0510047" lon="12.3170202"><ele>306.0</ele><time>2026-04-26T16:04:29.876Z</time></trkpt><trkpt lat="46.0507363" lon="12.3167936"><ele>305.0</ele><time>2026-04-26T16:04:30.854Z</time></trkpt><trkpt lat="46.0504551" lon="12.3165785"><ele>305.0</ele><time>2026-04-26T16:04:31.867Z</time></trkpt><trkpt lat="46.0501702" lon="12.3163832"><ele>305.0</ele><time>2026-04-26T16:04:32.856Z</time></trkpt><trkpt lat="46.0498731" lon="12.3162009"><ele>309.5</ele><time>2026-04-26T16:04:33.856Z</time></trkpt><trkpt lat="46.0495792" lon="12.3160391"><ele>314.0</ele><time>2026-04-26T16:04:34.846Z</time></trkpt><trkpt lat="46.0492771" lon="12.3158856"><ele>314.0</ele><time>2026-04-26T16:04:35.863Z</time></trkpt><trkpt lat="46.0489797" lon="12.3157455"><ele>314.0</ele><time>2026-04-26T16:04:36.853Z</time></trkpt><trkpt lat="46.0486772" lon="12.3156075"><ele>315.5</ele><time>2026-04-26T16:04:37.857Z</time></trkpt><trkpt lat="46.0483769" lon="12.315474"><ele>317.0</ele><time>2026-04-26T16:04:38.857Z</time></trkpt><trkpt lat="46.0480733" lon="12.3153443"><ele>317.0</ele><time>2026-04-26T16:04:39.854Z</time></trkpt><trkpt lat="46.0477746" lon="12.3152131"><ele>317.0</ele><time>2026-04-26T16:04:40.846Z</time></trkpt><trkpt lat="46.0474639" lon="12.3150725"><ele>317.5</ele><time>2026-04-26T16:04:41.888Z</time></trkpt><trkpt lat="46.0471713" lon="12.3149397"><ele>318.0</ele><time>2026-04-26T16:04:42.847Z</time></trkpt><trkpt lat="46.0468649" lon="12.3148052"><ele>317.0</ele><time>2026-04-26T16:04:43.854Z</time></trkpt><trkpt lat="46.0465603" lon="12.3146782"><ele>316.0</ele><time>2026-04-26T16:04:44.846Z</time></trkpt><trkpt lat="46.0462525" lon="12.3145523"><ele>316.0</ele><time>2026-04-26T16:04:45.867Z</time></trkpt><trkpt lat="46.045949" lon="12.314425"><ele>316.0</ele><time>2026-04-26T16:04:46.865Z</time></trkpt><trkpt lat="46.0456468" lon="12.3142965"><ele>315.5</ele><time>2026-04-26T16:04:47.85Z</time></trkpt><trkpt lat="46.0453416" lon="12.3141631"><ele>315.0</ele><time>2026-04-26T16:04:48.856Z</time></trkpt><trkpt lat="46.0450333" lon="12.3140271"><ele>312.5</ele><time>2026-04-26T16:04:49.867Z</time></trkpt><trkpt lat="46.0447335" lon="12.3138948"><ele>310.0</ele><time>2026-04-26T16:04:50.857Z</time></trkpt><trkpt lat="46.0444322" lon="12.3137628"><ele>312.0</ele><time>2026-04-26T16:04:51.847Z</time></trkpt><trkpt lat="46.0441234" lon="12.3136261"><ele>314.0</ele><time>2026-04-26T16:04:52.873Z</time></trkpt><trkpt lat="46.0438288" lon="12.3134907"><ele>314.0</ele><time>2026-04-26T16:04:53.851Z</time></trkpt><trkpt lat="46.0435284" lon="12.3133498"><ele>314.0</ele><time>2026-04-26T16:04:54.848Z</time></trkpt><trkpt lat="46.0432221" lon="12.3131998"><ele>313.0</ele><time>2026-04-26T16:04:55.876Z</time></trkpt><trkpt lat="46.0429676" lon="12.3130519"><ele>312.0</ele><time>2026-04-26T16:04:56.837Z</time></trkpt><trkpt lat="46.0426953" lon="12.3128993"><ele>308.5</ele><time>2026-04-26T16:04:57.844Z</time></trkpt><trkpt lat="46.0424266" lon="12.312745"><ele>305.0</ele><time>2026-04-26T16:04:58.84Z</time></trkpt><trkpt lat="46.0421626" lon="12.3125901"><ele>305.0</ele><time>2026-04-26T16:04:59.832Z</time></trkpt><trkpt lat="46.0418802" lon="12.3124414"><ele>305.0</ele><time>2026-04-26T16:05:00.824Z</time></trkpt><trkpt lat="46.0415739" lon="12.3122689"><ele>295.5</ele><time>2026-04-26T16:05:01.864Z</time></trkpt><trkpt lat="46.0412718" lon="12.3120902"><ele>286.0</ele><time>2026-04-26T16:05:02.85Z</time></trkpt><trkpt lat="46.0409062" lon="12.3118539"><ele>278.5</ele><time>2026-04-26T16:05:03.856Z</time></trkpt><trkpt lat="46.0405842" lon="12.3116414"><ele>271.0</ele><time>2026-04-26T16:05:04.863Z</time></trkpt><trkpt lat="46.0402645" lon="12.3114645"><ele>259.5</ele><time>2026-04-26T16:05:05.85Z</time></trkpt><trkpt lat="46.0399645" lon="12.3112979"><ele>248.0</ele><time>2026-04-26T16:05:06.868Z</time></trkpt><trkpt lat="46.039681" lon="12.3111354"><ele>248.0</ele><time>2026-04-26T16:05:07.856Z</time></trkpt><trkpt lat="46.0393901" lon="12.3109729"><ele>248.0</ele><time>2026-04-26T16:05:08.848Z</time></trkpt><trkpt lat="46.039107" lon="12.3108028"><ele>252.0</ele><time>2026-04-26T16:05:09.85Z</time></trkpt><trkpt lat="46.0388231" lon="12.3106229"><ele>256.0</ele><time>2026-04-26T16:05:10.865Z</time></trkpt><trkpt lat="46.0385403" lon="12.3104405"><ele>251.0</ele><time>2026-04-26T16:05:11.851Z</time></trkpt><trkpt lat="46.0382543" lon="12.310254"><ele>246.0</ele><time>2026-04-26T16:05:12.847Z</time></trkpt><trkpt lat="46.0379642" lon="12.3100653"><ele>246.0</ele><time>2026-04-26T16:05:13.871Z</time></trkpt><trkpt lat="46.0376809" lon="12.3098825"><ele>246.0</ele><time>2026-04-26T16:05:14.859Z</time></trkpt><trkpt lat="46.0373926" lon="12.3097003"><ele>239.0</ele><time>2026-04-26T16:05:15.86Z</time></trkpt><trkpt lat="46.0371062" lon="12.3095193"><ele>232.0</ele><time>2026-04-26T16:05:16.847Z</time></trkpt><trkpt lat="46.0368148" lon="12.3093335"><ele>244.0</ele><time>2026-04-26T16:05:17.856Z</time></trkpt><trkpt lat="46.0365278" lon="12.3091477"><ele>256.0</ele><time>2026-04-26T16:05:18.852Z</time></trkpt><trkpt lat="46.0362389" lon="12.3089589"><ele>244.5</ele><time>2026-04-26T16:05:19.859Z</time></trkpt><trkpt lat="46.0359495" lon="12.3087691"><ele>233.0</ele><time>2026-04-26T16:05:20.867Z</time></trkpt><trkpt lat="46.0356628" lon="12.3085837"><ele>233.0</ele><time>2026-04-26T16:05:21.865Z</time></trkpt><trkpt lat="46.0353771" lon="12.3084028"><ele>233.0</ele><time>2026-04-26T16:05:22.858Z</time></trkpt><trkpt lat="46.0350892" lon="12.3082212"><ele>225.0</ele><time>2026-04-26T16:05:23.85Z</time></trkpt><trkpt lat="46.0348017" lon="12.3080392"><ele>217.0</ele><time>2026-04-26T16:05:24.842Z</time></trkpt><trkpt lat="46.0345088" lon="12.307851"><ele>217.0</ele><time>2026-04-26T16:05:25.87Z</time></trkpt><trkpt lat="46.0342247" lon="12.3076698"><ele>217.0</ele><time>2026-04-26T16:05:26.852Z</time></trkpt><trkpt lat="46.0339352" lon="12.3074823"><ele>210.0</ele><time>2026-04-26T16:05:27.858Z</time></trkpt><trkpt lat="46.0336519" lon="12.3072888"><ele>203.0</ele><time>2026-04-26T16:05:28.846Z</time></trkpt><trkpt lat="46.0333747" lon="12.3070842"><ele>216.0</ele><time>2026-04-26T16:05:29.839Z</time></trkpt><trkpt lat="46.0330961" lon="12.3068626"><ele>229.0</ele><time>2026-04-26T16:05:30.836Z</time></trkpt><trkpt lat="46.0328235" lon="12.3066267"><ele>233.5</ele><time>2026-04-26T16:05:31.85Z</time></trkpt><trkpt lat="46.0325625" lon="12.3063776"><ele>238.0</ele><time>2026-04-26T16:05:32.849Z</time></trkpt><trkpt lat="46.0322983" lon="12.3061181"><ele>238.0</ele><time>2026-04-26T16:05:33.878Z</time></trkpt><trkpt lat="46.0320597" lon="12.3058474"><ele>238.0</ele><time>2026-04-26T16:05:34.843Z</time></trkpt><trkpt lat="46.0318145" lon="12.3055424"><ele>234.5</ele><time>2026-04-26T16:05:35.867Z</time></trkpt><trkpt lat="46.0315931" lon="12.3052188"><ele>231.0</ele><time>2026-04-26T16:05:36.851Z</time></trkpt><trkpt lat="46.0313673" lon="12.3048884"><ele>226.0</ele><time>2026-04-26T16:05:37.865Z</time></trkpt><trkpt lat="46.031155" lon="12.3045547"><ele>221.0</ele><time>2026-04-26T16:05:38.844Z</time></trkpt><trkpt lat="46.0309454" lon="12.3041969"><ele>209.0</ele><time>2026-04-26T16:05:39.87Z</time></trkpt><trkpt lat="46.0307483" lon="12.3038577"><ele>197.0</ele><time>2026-04-26T16:05:40.842Z</time></trkpt><trkpt lat="46.0305702" lon="12.3034708"><ele>197.0</ele><time>2026-04-26T16:05:41.848Z</time></trkpt><trkpt lat="46.0303931" lon="12.3030919"><ele>197.0</ele><time>2026-04-26T16:05:42.848Z</time></trkpt><trkpt lat="46.030217" lon="12.3027037"><ele>191.0</ele><time>2026-04-26T16:05:43.868Z</time></trkpt><trkpt lat="46.0300487" lon="12.3023238"><ele>185.0</ele><time>2026-04-26T16:05:44.841Z</time></trkpt><trkpt lat="46.0298752" lon="12.3019302"><ele>182.5</ele><time>2026-04-26T16:05:45.861Z</time></trkpt><trkpt lat="46.0297079" lon="12.3015488"><ele>180.0</ele><time>2026-04-26T16:05:46.847Z</time></trkpt><trkpt lat="46.0295381" lon="12.3011644"><ele>180.0</ele><time>2026-04-26T16:05:47.852Z</time></trkpt><trkpt lat="46.0293675" lon="12.3007797"><ele>180.0</ele><time>2026-04-26T16:05:48.854Z</time></trkpt><trkpt lat="46.0291975" lon="12.3003992"><ele>177.0</ele><time>2026-04-26T16:05:49.848Z</time></trkpt><trkpt lat="46.0290256" lon="12.3000208"><ele>174.0</ele><time>2026-04-26T16:05:50.843Z</time></trkpt><trkpt lat="46.0288503" lon="12.2996371"><ele>174.0</ele><time>2026-04-26T16:05:51.859Z</time></trkpt><trkpt lat="46.0286791" lon="12.2992596"><ele>174.0</ele><time>2026-04-26T16:05:52.864Z</time></trkpt><trkpt lat="46.028512" lon="12.2988859"><ele>176.5</ele><time>2026-04-26T16:05:53.85Z</time></trkpt><trkpt lat="46.0283435" lon="12.298509"><ele>179.0</ele><time>2026-04-26T16:05:54.839Z</time></trkpt><trkpt lat="46.0281709" lon="12.2981256"><ele>183.5</ele><time>2026-04-26T16:05:55.853Z</time></trkpt><trkpt lat="46.0280008" lon="12.2977521"><ele>188.0</ele><time>2026-04-26T16:05:56.854Z</time></trkpt><trkpt lat="46.0278275" lon="12.2973797"><ele>186.5</ele><time>2026-04-26T16:05:57.841Z</time></trkpt><trkpt lat="46.0276493" lon="12.2970097"><ele>185.0</ele><time>2026-04-26T16:05:58.842Z</time></trkpt><trkpt lat="46.0274614" lon="12.2966401"><ele>193.0</ele><time>2026-04-26T16:05:59.855Z</time></trkpt><trkpt lat="46.0272692" lon="12.2962895"><ele>201.0</ele><time>2026-04-26T16:06:00.853Z</time></trkpt><trkpt lat="46.0270658" lon="12.2959524"><ele>201.0</ele><time>2026-04-26T16:06:01.851Z</time></trkpt><trkpt lat="46.0268495" lon="12.2956275"><ele>201.0</ele><time>2026-04-26T16:06:02.844Z</time></trkpt><trkpt lat="46.0266152" lon="12.2953092"><ele>203.5</ele><time>2026-04-26T16:06:03.865Z</time></trkpt><trkpt lat="46.0263783" lon="12.2950151"><ele>206.0</ele><time>2026-04-26T16:06:04.847Z</time></trkpt><trkpt lat="46.0261297" lon="12.2947292"><ele>201.0</ele><time>2026-04-26T16:06:05.846Z</time></trkpt><trkpt lat="46.0258742" lon="12.2944581"><ele>196.0</ele><time>2026-04-26T16:06:06.842Z</time></trkpt><trkpt lat="46.0256084" lon="12.2942004"><ele>196.0</ele><time>2026-04-26T16:06:07.866Z</time></trkpt><trkpt lat="46.0253386" lon="12.2939613"><ele>196.0</ele><time>2026-04-26T16:06:08.887Z</time></trkpt><trkpt lat="46.0250665" lon="12.2937627"><ele>196.0</ele><time>2026-04-26T16:06:09.848Z</time></trkpt><trkpt lat="46.0247869" lon="12.2935442"><ele>196.0</ele><time>2026-04-26T16:06:10.845Z</time></trkpt><trkpt lat="46.0245031" lon="12.2933224"><ele>196.0</ele><time>2026-04-26T16:06:11.871Z</time></trkpt><trkpt lat="46.0242283" lon="12.2931064"><ele>196.0</ele><time>2026-04-26T16:06:12.863Z</time></trkpt><trkpt lat="46.0239522" lon="12.2928919"><ele>198.5</ele><time>2026-04-26T16:06:13.853Z</time></trkpt><trkpt lat="46.0236742" lon="12.2926771"><ele>201.0</ele><time>2026-04-26T16:06:14.843Z</time></trkpt><trkpt lat="46.0233942" lon="12.2924604"><ele>198.0</ele><time>2026-04-26T16:06:15.853Z</time></trkpt><trkpt lat="46.0231179" lon="12.2922456"><ele>195.0</ele><time>2026-04-26T16:06:16.843Z</time></trkpt><trkpt lat="46.0228398" lon="12.2920245"><ele>195.0</ele><time>2026-04-26T16:06:17.863Z</time></trkpt><trkpt lat="46.0225702" lon="12.2918056"><ele>195.0</ele><time>2026-04-26T16:06:18.847Z</time></trkpt><trkpt lat="46.0222964" lon="12.2915789"><ele>193.0</ele><time>2026-04-26T16:06:19.859Z</time></trkpt><trkpt lat="46.0220285" lon="12.2913537"><ele>191.0</ele><time>2026-04-26T16:06:20.843Z</time></trkpt><trkpt lat="46.0217532" lon="12.2911191"><ele>184.0</ele><time>2026-04-26T16:06:21.852Z</time></trkpt><trkpt lat="46.0214841" lon="12.2908807"><ele>177.0</ele><time>2026-04-26T16:06:22.855Z</time></trkpt><trkpt lat="46.0212197" lon="12.2906313"><ele>179.0</ele><time>2026-04-26T16:06:23.832Z</time></trkpt><trkpt lat="46.0209582" lon="12.2903767"><ele>181.0</ele><time>2026-04-26T16:06:24.843Z</time></trkpt><trkpt lat="46.0206988" lon="12.2901153"><ele>181.0</ele><time>2026-04-26T16:06:25.851Z</time></trkpt><trkpt lat="46.0204454" lon="12.2898483"><ele>181.0</ele><time>2026-04-26T16:06:26.867Z</time></trkpt><trkpt lat="46.0201954" lon="12.2895795"><ele>182.5</ele><time>2026-04-26T16:06:27.863Z</time></trkpt><trkpt lat="46.019945" lon="12.289309"><ele>184.0</ele><time>2026-04-26T16:06:28.848Z</time></trkpt><trkpt lat="46.0196915" lon="12.289028"><ele>184.0</ele><time>2026-04-26T16:06:29.856Z</time></trkpt><trkpt lat="46.0194446" lon="12.2887497"><ele>184.0</ele><time>2026-04-26T16:06:30.862Z</time></trkpt><trkpt lat="46.0191973" lon="12.288468"><ele>183.5</ele><time>2026-04-26T16:06:31.847Z</time></trkpt><trkpt lat="46.0189568" lon="12.288178"><ele>183.0</ele><time>2026-04-26T16:06:32.836Z</time></trkpt><trkpt lat="46.0187165" lon="12.287876"><ele>184.0</ele><time>2026-04-26T16:06:33.855Z</time></trkpt><trkpt lat="46.0184846" lon="12.2875742"><ele>185.0</ele><time>2026-04-26T16:06:34.85Z</time></trkpt><trkpt lat="46.0182529" lon="12.287267"><ele>187.0</ele><time>2026-04-26T16:06:35.849Z</time></trkpt><trkpt lat="46.0180236" lon="12.2869548"><ele>189.0</ele><time>2026-04-26T16:06:36.853Z</time></trkpt><trkpt lat="46.0177942" lon="12.2866429"><ele>189.5</ele><time>2026-04-26T16:06:37.846Z</time></trkpt><trkpt lat="46.0175654" lon="12.286328"><ele>190.0</ele><time>2026-04-26T16:06:38.868Z</time></trkpt><trkpt lat="46.0173419" lon="12.2860129"><ele>190.5</ele><time>2026-04-26T16:06:39.853Z</time></trkpt><trkpt lat="46.0171176" lon="12.2856887"><ele>191.0</ele><time>2026-04-26T16:06:40.86Z</time></trkpt><trkpt lat="46.0169002" lon="12.2853623"><ele>191.0</ele><time>2026-04-26T16:06:41.862Z</time></trkpt><trkpt lat="46.0166861" lon="12.2850334"><ele>191.0</ele><time>2026-04-26T16:06:42.845Z</time></trkpt><trkpt lat="46.0164712" lon="12.2846959"><ele>190.0</ele><time>2026-04-26T16:06:43.859Z</time></trkpt><trkpt lat="46.0162595" lon="12.284364"><ele>189.0</ele><time>2026-04-26T16:06:44.862Z</time></trkpt><trkpt lat="46.0160456" lon="12.2840263"><ele>189.0</ele><time>2026-04-26T16:06:45.857Z</time></trkpt><trkpt lat="46.015836" lon="12.2836918"><ele>189.0</ele><time>2026-04-26T16:06:46.853Z</time></trkpt><trkpt lat="46.0156228" lon="12.2833556"><ele>189.5</ele><time>2026-04-26T16:06:47.845Z</time></trkpt><trkpt lat="46.0154103" lon="12.2830226"><ele>190.0</ele><time>2026-04-26T16:06:48.854Z</time></trkpt><trkpt lat="46.0151952" lon="12.2826883"><ele>189.5</ele><time>2026-04-26T16:06:49.853Z</time></trkpt><trkpt lat="46.014981" lon="12.2823554"><ele>189.0</ele><time>2026-04-26T16:06:50.854Z</time></trkpt><trkpt lat="46.0147673" lon="12.2820237"><ele>190.5</ele><time>2026-04-26T16:06:51.859Z</time></trkpt><trkpt lat="46.0145552" lon="12.2816937"><ele>192.0</ele><time>2026-04-26T16:06:52.847Z</time></trkpt><trkpt lat="46.0143363" lon="12.281362"><ele>194.5</ele><time>2026-04-26T16:06:53.86Z</time></trkpt><trkpt lat="46.0141133" lon="12.2810447"><ele>197.0</ele><time>2026-04-26T16:06:54.845Z</time></trkpt><trkpt lat="46.0138787" lon="12.280726"><ele>201.5</ele><time>2026-04-26T16:06:55.865Z</time></trkpt><trkpt lat="46.0136441" lon="12.2804248"><ele>206.0</ele><time>2026-04-26T16:06:56.862Z</time></trkpt><trkpt lat="46.0134002" lon="12.2801302"><ele>205.5</ele><time>2026-04-26T16:06:57.882Z</time></trkpt><trkpt lat="46.0131547" lon="12.2798463"><ele>205.0</ele><time>2026-04-26T16:06:58.859Z</time></trkpt><trkpt lat="46.0129063" lon="12.2795662"><ele>205.0</ele><time>2026-04-26T16:06:59.855Z</time></trkpt><trkpt lat="46.0126533" lon="12.2792946"><ele>205.0</ele><time>2026-04-26T16:07:00.857Z</time></trkpt><trkpt lat="46.0123944" lon="12.2790327"><ele>204.0</ele><time>2026-04-26T16:07:01.862Z</time></trkpt><trkpt lat="46.0121309" lon="12.2787783"><ele>203.0</ele><time>2026-04-26T16:07:02.849Z</time></trkpt><trkpt lat="46.0118646" lon="12.2785314"><ele>200.0</ele><time>2026-04-26T16:07:03.848Z</time></trkpt><trkpt lat="46.0115927" lon="12.278292"><ele>197.0</ele><time>2026-04-26T16:07:04.859Z</time></trkpt><trkpt lat="46.0113166" lon="12.278063"><ele>197.0</ele><time>2026-04-26T16:07:05.877Z</time></trkpt><trkpt lat="46.0110418" lon="12.2778486"><ele>197.0</ele><time>2026-04-26T16:07:06.869Z</time></trkpt><trkpt lat="46.010761" lon="12.2776419"><ele>191.0</ele><time>2026-04-26T16:07:07.866Z</time></trkpt><trkpt lat="46.0104786" lon="12.2774445"><ele>185.0</ele><time>2026-04-26T16:07:08.846Z</time></trkpt><trkpt lat="46.0101889" lon="12.2772501"><ele>183.5</ele><time>2026-04-26T16:07:09.875Z</time></trkpt><trkpt lat="46.0099013" lon="12.2770674"><ele>182.0</ele><time>2026-04-26T16:07:10.866Z</time></trkpt><trkpt lat="46.0096066" lon="12.276895"><ele>182.0</ele><time>2026-04-26T16:07:11.895Z</time></trkpt><trkpt lat="46.0093162" lon="12.2767375"><ele>182.0</ele><time>2026-04-26T16:07:12.869Z</time></trkpt><trkpt lat="46.0090146" lon="12.2765909"><ele>180.5</ele><time>2026-04-26T16:07:13.86Z</time></trkpt><trkpt lat="46.0087136" lon="12.2764528"><ele>179.0</ele><time>2026-04-26T16:07:14.85Z</time></trkpt><trkpt lat="46.008409" lon="12.2763198"><ele>179.5</ele><time>2026-04-26T16:07:15.869Z</time></trkpt><trkpt lat="46.0081038" lon="12.2761956"><ele>180.0</ele><time>2026-04-26T16:07:16.865Z</time></trkpt><trkpt lat="46.007799" lon="12.2760826"><ele>179.0</ele><time>2026-04-26T16:07:17.872Z</time></trkpt><trkpt lat="46.0074934" lon="12.2759799"><ele>178.0</ele><time>2026-04-26T16:07:18.854Z</time></trkpt><trkpt lat="46.0071808" lon="12.2758825"><ele>178.0</ele><time>2026-04-26T16:07:19.857Z</time></trkpt><trkpt lat="46.00687" lon="12.2757931"><ele>178.0</ele><time>2026-04-26T16:07:20.869Z</time></trkpt><trkpt lat="46.0065601" lon="12.2757099"><ele>178.0</ele><time>2026-04-26T16:07:21.848Z</time></trkpt><trkpt lat="46.0062457" lon="12.2756273"><ele>178.0</ele><time>2026-04-26T16:07:22.871Z</time></trkpt><trkpt lat="46.0059378" lon="12.2755421"><ele>178.0</ele><time>2026-04-26T16:07:23.876Z</time></trkpt><trkpt lat="46.0056308" lon="12.2754553"><ele>178.0</ele><time>2026-04-26T16:07:24.855Z</time></trkpt><trkpt lat="46.0053185" lon="12.2753669"><ele>178.0</ele><time>2026-04-26T16:07:25.873Z</time></trkpt><trkpt lat="46.0050111" lon="12.2752816"><ele>178.0</ele><time>2026-04-26T16:07:26.852Z</time></trkpt><trkpt lat="46.0046964" lon="12.2751941"><ele>184.0</ele><time>2026-04-26T16:07:27.871Z</time></trkpt><trkpt lat="46.0043908" lon="12.275107"><ele>190.0</ele><time>2026-04-26T16:07:28.851Z</time></trkpt><trkpt lat="46.0040793" lon="12.2750202"><ele>194.5</ele><time>2026-04-26T16:07:29.859Z</time></trkpt><trkpt lat="46.0037702" lon="12.274933"><ele>199.0</ele><time>2026-04-26T16:07:30.855Z</time></trkpt><trkpt lat="46.0034604" lon="12.2748444"><ele>198.0</ele><time>2026-04-26T16:07:31.857Z</time></trkpt><trkpt lat="46.0031504" lon="12.2747535"><ele>197.0</ele><time>2026-04-26T16:07:32.874Z</time></trkpt><trkpt lat="46.0028432" lon="12.2746625"><ele>197.0</ele><time>2026-04-26T16:07:33.865Z</time></trkpt><trkpt lat="46.0025362" lon="12.2745684"><ele>197.0</ele><time>2026-04-26T16:07:34.867Z</time></trkpt><trkpt lat="46.0022303" lon="12.2744768"><ele>204.5</ele><time>2026-04-26T16:07:35.863Z</time></trkpt><trkpt lat="46.0019198" lon="12.2743859"><ele>212.0</ele><time>2026-04-26T16:07:36.872Z</time></trkpt><trkpt lat="46.0016089" lon="12.2742988"><ele>229.0</ele><time>2026-04-26T16:07:37.851Z</time></trkpt><trkpt lat="46.0012978" lon="12.2742216"><ele>246.0</ele><time>2026-04-26T16:07:38.857Z</time></trkpt><trkpt lat="46.0009824" lon="12.2741588"><ele>252.0</ele><time>2026-04-26T16:07:39.846Z</time></trkpt><trkpt lat="46.0006522" lon="12.2741087"><ele>258.0</ele><time>2026-04-26T16:07:40.842Z</time></trkpt><trkpt lat="46.0003155" lon="12.2740629"><ele>258.0</ele><time>2026-04-26T16:07:41.844Z</time></trkpt><trkpt lat="45.9999832" lon="12.2740222"><ele>258.0</ele><time>2026-04-26T16:07:42.834Z</time></trkpt><trkpt lat="45.9996459" lon="12.2739864"><ele>258.0</ele><time>2026-04-26T16:07:43.833Z</time></trkpt><trkpt lat="45.9993037" lon="12.2739564"><ele>258.0</ele><time>2026-04-26T16:07:44.832Z</time></trkpt><trkpt lat="45.9989485" lon="12.2739347"><ele>270.0</ele><time>2026-04-26T16:07:45.84Z</time></trkpt><trkpt lat="45.9986014" lon="12.273926"><ele>282.0</ele><time>2026-04-26T16:07:46.838Z</time></trkpt><trkpt lat="45.9982488" lon="12.2739278"><ele>294.5</ele><time>2026-04-26T16:07:47.826Z</time></trkpt><trkpt lat="45.997875" lon="12.2739391"><ele>307.0</ele><time>2026-04-26T16:07:48.821Z</time></trkpt><trkpt lat="45.9975096" lon="12.2739668"><ele>327.5</ele><time>2026-04-26T16:07:49.848Z</time></trkpt><trkpt lat="45.9971734" lon="12.274"><ele>348.0</ele><time>2026-04-26T16:07:50.785Z</time></trkpt><trkpt lat="45.9968179" lon="12.2740377"><ele>369.5</ele><time>2026-04-26T16:07:51.769Z</time></trkpt><trkpt lat="45.9964386" lon="12.2740729"><ele>391.0</ele><time>2026-04-26T16:07:52.775Z</time></trkpt><trkpt lat="45.9960677" lon="12.274095"><ele>416.0</ele><time>2026-04-26T16:07:53.784Z</time></trkpt><trkpt lat="45.9957023" lon="12.2741255"><ele>441.0</ele><time>2026-04-26T16:07:54.765Z</time></trkpt><trkpt lat="45.9953348" lon="12.2741567"><ele>250.0</ele><time>2026-04-26T16:07:55.768Z</time></trkpt><trkpt lat="45.9839526" lon="12.2757371"><ele>250.0</ele><time>2026-04-26T16:08:33.859Z</time></trkpt><trkpt lat="45.9836475" lon="12.2758347"><ele>250.0</ele><time>2026-04-26T16:08:34.838Z</time></trkpt><trkpt lat="45.9833345" lon="12.2759245"><ele>249.5</ele><time>2026-04-26T16:08:35.865Z</time></trkpt><trkpt lat="45.9830408" lon="12.2760611"><ele>249.0</ele><time>2026-04-26T16:08:36.843Z</time></trkpt><trkpt lat="45.9827626" lon="12.2762163"><ele>251.5</ele><time>2026-04-26T16:08:37.859Z</time></trkpt><trkpt lat="45.9824989" lon="12.276407"><ele>254.0</ele><time>2026-04-26T16:08:38.85Z</time></trkpt><trkpt lat="45.9822435" lon="12.2766405"><ele>247.5</ele><time>2026-04-26T16:08:39.862Z</time></trkpt><trkpt lat="45.982002" lon="12.2769138"><ele>241.0</ele><time>2026-04-26T16:08:40.851Z</time></trkpt><trkpt lat="45.9817721" lon="12.2772169"><ele>235.5</ele><time>2026-04-26T16:08:41.855Z</time></trkpt><trkpt lat="45.9815364" lon="12.2775446"><ele>230.0</ele><time>2026-04-26T16:08:42.873Z</time></trkpt><trkpt lat="45.9813351" lon="12.2779367"><ele>231.5</ele><time>2026-04-26T16:08:43.851Z</time></trkpt><trkpt lat="45.9811228" lon="12.2782772"><ele>233.0</ele><time>2026-04-26T16:08:44.849Z</time></trkpt><trkpt lat="45.9809041" lon="12.2786134"><ele>230.0</ele><time>2026-04-26T16:08:45.879Z</time></trkpt><trkpt lat="45.980692" lon="12.2789327"><ele>227.0</ele><time>2026-04-26T16:08:46.853Z</time></trkpt><trkpt lat="45.980475" lon="12.2792612"><ele>227.0</ele><time>2026-04-26T16:08:47.845Z</time></trkpt><trkpt lat="45.9802559" lon="12.2795928"><ele>227.0</ele><time>2026-04-26T16:08:48.846Z</time></trkpt><trkpt lat="45.9800369" lon="12.2799286"><ele>221.5</ele><time>2026-04-26T16:08:49.86Z</time></trkpt><trkpt lat="45.9798198" lon="12.2802592"><ele>216.0</ele><time>2026-04-26T16:08:50.847Z</time></trkpt><trkpt lat="45.9796029" lon="12.280583"><ele>220.5</ele><time>2026-04-26T16:08:51.863Z</time></trkpt><trkpt lat="45.979381" lon="12.2809126"><ele>225.0</ele><time>2026-04-26T16:08:52.848Z</time></trkpt><trkpt lat="45.9791527" lon="12.2812226"><ele>211.0</ele><time>2026-04-26T16:08:53.848Z</time></trkpt><trkpt lat="45.978915" lon="12.2814853"><ele>197.0</ele><time>2026-04-26T16:08:54.846Z</time></trkpt><trkpt lat="45.9786541" lon="12.2817264"><ele>197.0</ele><time>2026-04-26T16:08:55.853Z</time></trkpt><trkpt lat="45.978379" lon="12.2819201"><ele>197.0</ele><time>2026-04-26T16:08:56.841Z</time></trkpt><trkpt lat="45.9781022" lon="12.2820655"><ele>193.0</ele><time>2026-04-26T16:08:57.844Z</time></trkpt><trkpt lat="45.9778257" lon="12.2821785"><ele>189.0</ele><time>2026-04-26T16:08:58.844Z</time></trkpt><trkpt lat="45.9775409" lon="12.2822545"><ele>185.0</ele><time>2026-04-26T16:08:59.852Z</time></trkpt><trkpt lat="45.9772126" lon="12.2823244"><ele>181.0</ele><time>2026-04-26T16:09:00.835Z</time></trkpt><trkpt lat="45.9769392" lon="12.2823232"><ele>188.5</ele><time>2026-04-26T16:09:01.859Z</time></trkpt><trkpt lat="45.9766487" lon="12.2823033"><ele>196.0</ele><time>2026-04-26T16:09:02.838Z</time></trkpt><trkpt lat="45.9762649" lon="12.2824503"><ele>196.0</ele><time>2026-04-26T16:09:03.843Z</time></trkpt><trkpt lat="45.9759549" lon="12.2824583"><ele>196.0</ele><time>2026-04-26T16:09:04.844Z</time></trkpt><trkpt lat="45.9756375" lon="12.2824684"><ele>196.5</ele><time>2026-04-26T16:09:05.843Z</time></trkpt><trkpt lat="45.9753168" lon="12.2824868"><ele>197.0</ele><time>2026-04-26T16:09:06.841Z</time></trkpt><trkpt lat="45.9749912" lon="12.2825273"><ele>197.0</ele><time>2026-04-26T16:09:07.857Z</time></trkpt><trkpt lat="45.974677" lon="12.2826002"><ele>197.0</ele><time>2026-04-26T16:09:08.846Z</time></trkpt><trkpt lat="45.9743612" lon="12.2827085"><ele>193.0</ele><time>2026-04-26T16:09:09.855Z</time></trkpt><trkpt lat="45.9740661" lon="12.2828495"><ele>189.0</ele><time>2026-04-26T16:09:10.856Z</time></trkpt><trkpt lat="45.9737956" lon="12.2830398"><ele>182.0</ele><time>2026-04-26T16:09:11.861Z</time></trkpt><trkpt lat="45.9735441" lon="12.283256"><ele>175.0</ele><time>2026-04-26T16:09:12.867Z</time></trkpt><trkpt lat="45.9732952" lon="12.2835063"><ele>172.5</ele><time>2026-04-26T16:09:13.85Z</time></trkpt><trkpt lat="45.9730312" lon="12.2838032"><ele>170.0</ele><time>2026-04-26T16:09:14.85Z</time></trkpt><trkpt lat="45.9727805" lon="12.2841209"><ele>170.0</ele><time>2026-04-26T16:09:15.845Z</time></trkpt><trkpt lat="45.9725363" lon="12.2844554"><ele>170.0</ele><time>2026-04-26T16:09:16.851Z</time></trkpt><trkpt lat="45.9722932" lon="12.2847995"><ele>171.0</ele><time>2026-04-26T16:09:17.855Z</time></trkpt><trkpt lat="45.9720239" lon="12.2851893"><ele>172.0</ele><time>2026-04-26T16:09:18.857Z</time></trkpt><trkpt lat="45.9718029" lon="12.2854823"><ele>175.5</ele><time>2026-04-26T16:09:19.852Z</time></trkpt><trkpt lat="45.9715831" lon="12.2857591"><ele>179.0</ele><time>2026-04-26T16:09:20.859Z</time></trkpt><trkpt lat="45.9713551" lon="12.2860162"><ele>179.0</ele><time>2026-04-26T16:09:21.842Z</time></trkpt><trkpt lat="45.9710965" lon="12.2862426"><ele>179.0</ele><time>2026-04-26T16:09:22.847Z</time></trkpt><trkpt lat="45.9708491" lon="12.2863949"><ele>174.0</ele><time>2026-04-26T16:09:23.859Z</time></trkpt><trkpt lat="45.9705681" lon="12.2865368"><ele>169.0</ele><time>2026-04-26T16:09:24.868Z</time></trkpt><trkpt lat="45.9702558" lon="12.2866638"><ele>166.5</ele><time>2026-04-26T16:09:25.863Z</time></trkpt><trkpt lat="45.9699301" lon="12.2867591"><ele>164.0</ele><time>2026-04-26T16:09:26.864Z</time></trkpt><trkpt lat="45.9696353" lon="12.2867897"><ele>164.0</ele><time>2026-04-26T16:09:27.845Z</time></trkpt><trkpt lat="45.9692826" lon="12.2867896"><ele>164.0</ele><time>2026-04-26T16:09:28.853Z</time></trkpt><trkpt lat="45.9689544" lon="12.2867581"><ele>160.0</ele><time>2026-04-26T16:09:29.861Z</time></trkpt><trkpt lat="45.9686591" lon="12.2866867"><ele>156.0</ele><time>2026-04-26T16:09:30.85Z</time></trkpt><trkpt lat="45.9683484" lon="12.2866045"><ele>154.5</ele><time>2026-04-26T16:09:31.854Z</time></trkpt><trkpt lat="45.9680313" lon="12.2865248"><ele>153.0</ele><time>2026-04-26T16:09:32.845Z</time></trkpt><trkpt lat="45.9677105" lon="12.2864486"><ele>156.5</ele><time>2026-04-26T16:09:33.843Z</time></trkpt><trkpt lat="45.967392" lon="12.2863701"><ele>160.0</ele><time>2026-04-26T16:09:34.847Z</time></trkpt><trkpt lat="45.9670863" lon="12.2862954"><ele>160.0</ele><time>2026-04-26T16:09:35.845Z</time></trkpt><trkpt lat="45.9667722" lon="12.2862151"><ele>160.0</ele><time>2026-04-26T16:09:36.843Z</time></trkpt><trkpt lat="45.9664473" lon="12.2861253"><ele>156.5</ele><time>2026-04-26T16:09:37.857Z</time></trkpt><trkpt lat="45.9661344" lon="12.2860575"><ele>153.0</ele><time>2026-04-26T16:09:38.844Z</time></trkpt><trkpt lat="45.9658146" lon="12.286013"><ele>149.0</ele><time>2026-04-26T16:09:39.862Z</time></trkpt><trkpt lat="45.9655099" lon="12.2859906"><ele>145.0</ele><time>2026-04-26T16:09:40.851Z</time></trkpt><trkpt lat="45.9651993" lon="12.2859884"><ele>142.0</ele><time>2026-04-26T16:09:41.848Z</time></trkpt><trkpt lat="45.9648757" lon="12.2860036"><ele>139.0</ele><time>2026-04-26T16:09:42.873Z</time></trkpt><trkpt lat="45.9645691" lon="12.2860372"><ele>139.0</ele><time>2026-04-26T16:09:43.842Z</time></trkpt><trkpt lat="45.964254" lon="12.286091"><ele>139.0</ele><time>2026-04-26T16:09:44.853Z</time></trkpt><trkpt lat="45.9639487" lon="12.2861588"><ele>139.5</ele><time>2026-04-26T16:09:45.843Z</time></trkpt><trkpt lat="45.9636344" lon="12.286244"><ele>140.0</ele><time>2026-04-26T16:09:46.852Z</time></trkpt><trkpt lat="45.9633258" lon="12.2863474"><ele>139.0</ele><time>2026-04-26T16:09:47.87Z</time></trkpt><trkpt lat="45.9630245" lon="12.2864651"><ele>138.0</ele><time>2026-04-26T16:09:48.855Z</time></trkpt><trkpt lat="45.9627243" lon="12.2866026"><ele>140.0</ele><time>2026-04-26T16:09:49.853Z</time></trkpt><trkpt lat="45.9624342" lon="12.2867628"><ele>142.0</ele><time>2026-04-26T16:09:50.851Z</time></trkpt><trkpt lat="45.9621412" lon="12.2869415"><ele>142.0</ele><time>2026-04-26T16:09:51.858Z</time></trkpt><trkpt lat="45.961857" lon="12.2871328"><ele>142.0</ele><time>2026-04-26T16:09:52.855Z</time></trkpt><trkpt lat="45.9615806" lon="12.2873412"><ele>147.0</ele><time>2026-04-26T16:09:53.874Z</time></trkpt><trkpt lat="45.9613109" lon="12.2875682"><ele>152.0</ele><time>2026-04-26T16:09:54.859Z</time></trkpt><trkpt lat="45.9610469" lon="12.2878122"><ele>154.5</ele><time>2026-04-26T16:09:55.85Z</time></trkpt><trkpt lat="45.9607833" lon="12.2880687"><ele>157.0</ele><time>2026-04-26T16:09:56.858Z</time></trkpt><trkpt lat="45.960523" lon="12.2883256"><ele>157.0</ele><time>2026-04-26T16:09:57.856Z</time></trkpt><trkpt lat="45.9602642" lon="12.2885828"><ele>157.0</ele><time>2026-04-26T16:09:58.853Z</time></trkpt><trkpt lat="45.9600035" lon="12.2888422"><ele>154.5</ele><time>2026-04-26T16:09:59.876Z</time></trkpt><trkpt lat="45.9597445" lon="12.2890989"><ele>152.0</ele><time>2026-04-26T16:10:00.87Z</time></trkpt><trkpt lat="45.9594862" lon="12.289353"><ele>152.0</ele><time>2026-04-26T16:10:01.865Z</time></trkpt><trkpt lat="45.9592256" lon="12.2896108"><ele>152.0</ele><time>2026-04-26T16:10:02.853Z</time></trkpt><trkpt lat="45.9589649" lon="12.2898693"><ele>151.5</ele><time>2026-04-26T16:10:03.858Z</time></trkpt><trkpt lat="45.9587099" lon="12.2901243"><ele>151.0</ele><time>2026-04-26T16:10:04.864Z</time></trkpt><trkpt lat="45.9584671" lon="12.2903629"><ele>151.5</ele><time>2026-04-26T16:10:05.879Z</time></trkpt><trkpt lat="45.9582297" lon="12.2905855"><ele>152.0</ele><time>2026-04-26T16:10:06.858Z</time></trkpt><trkpt lat="45.9579938" lon="12.290796"><ele>152.0</ele><time>2026-04-26T16:10:07.857Z</time></trkpt><trkpt lat="45.9577511" lon="12.2910014"><ele>152.0</ele><time>2026-04-26T16:10:08.862Z</time></trkpt><trkpt lat="45.9575134" lon="12.291186"><ele>152.5</ele><time>2026-04-26T16:10:09.858Z</time></trkpt><trkpt lat="45.9572689" lon="12.2913531"><ele>153.0</ele><time>2026-04-26T16:10:10.859Z</time></trkpt><trkpt lat="45.9570171" lon="12.2914992"><ele>150.0</ele><time>2026-04-26T16:10:11.863Z</time></trkpt><trkpt lat="45.9567605" lon="12.2916328"><ele>147.0</ele><time>2026-04-26T16:10:12.856Z</time></trkpt><trkpt lat="45.9565052" lon="12.2917569"><ele>147.0</ele><time>2026-04-26T16:10:13.855Z</time></trkpt><trkpt lat="45.956249" lon="12.291878"><ele>147.0</ele><time>2026-04-26T16:10:14.853Z</time></trkpt><trkpt lat="45.9559955" lon="12.2920018"><ele>148.5</ele><time>2026-04-26T16:10:15.859Z</time></trkpt><trkpt lat="45.9557431" lon="12.2921263"><ele>150.0</ele><time>2026-04-26T16:10:16.866Z</time></trkpt><trkpt lat="45.9554871" lon="12.2922476"><ele>144.5</ele><time>2026-04-26T16:10:17.86Z</time></trkpt><trkpt lat="45.9552272" lon="12.2923732"><ele>139.0</ele><time>2026-04-26T16:10:18.866Z</time></trkpt><trkpt lat="45.9549588" lon="12.2925012"><ele>139.0</ele><time>2026-04-26T16:10:19.859Z</time></trkpt><trkpt lat="45.9546787" lon="12.2926352"><ele>139.0</ele><time>2026-04-26T16:10:20.848Z</time></trkpt><trkpt lat="45.9543956" lon="12.2927782"><ele>138.5</ele><time>2026-04-26T16:10:21.866Z</time></trkpt><trkpt lat="45.9541024" lon="12.2929351"><ele>138.0</ele><time>2026-04-26T16:10:22.867Z</time></trkpt><trkpt lat="45.953806" lon="12.2931087"><ele>134.0</ele><time>2026-04-26T16:10:23.873Z</time></trkpt><trkpt lat="45.9535152" lon="12.2933002"><ele>130.0</ele><time>2026-04-26T16:10:24.855Z</time></trkpt><trkpt lat="45.9532192" lon="12.2935124"><ele>130.0</ele><time>2026-04-26T16:10:25.86Z</time></trkpt><trkpt lat="45.9529319" lon="12.2937396"><ele>130.0</ele><time>2026-04-26T16:10:26.872Z</time></trkpt><trkpt lat="45.9526546" lon="12.2939717"><ele>127.0</ele><time>2026-04-26T16:10:27.853Z</time></trkpt><trkpt lat="45.9523708" lon="12.2942237"><ele>124.0</ele><time>2026-04-26T16:10:28.857Z</time></trkpt><trkpt lat="45.9520973" lon="12.2944865"><ele>123.0</ele><time>2026-04-26T16:10:29.862Z</time></trkpt><trkpt lat="45.9518304" lon="12.2947632"><ele>122.0</ele><time>2026-04-26T16:10:30.865Z</time></trkpt><trkpt lat="45.9515754" lon="12.2950537"><ele>122.0</ele><time>2026-04-26T16:10:31.861Z</time></trkpt><trkpt lat="45.951321" lon="12.2953569"><ele>122.0</ele><time>2026-04-26T16:10:32.855Z</time></trkpt><trkpt lat="45.9510634" lon="12.2956696"><ele>121.0</ele><time>2026-04-26T16:10:33.854Z</time></trkpt><trkpt lat="45.9508025" lon="12.2959771"><ele>120.0</ele><time>2026-04-26T16:10:34.855Z</time></trkpt><trkpt lat="45.9505395" lon="12.2962859"><ele>119.0</ele><time>2026-04-26T16:10:35.842Z</time></trkpt><trkpt lat="45.950272" lon="12.2966148"><ele>118.0</ele><time>2026-04-26T16:10:36.863Z</time></trkpt><trkpt lat="45.9499996" lon="12.2969356"><ele>118.0</ele><time>2026-04-26T16:10:37.887Z</time></trkpt><trkpt lat="45.9497261" lon="12.2972335"><ele>118.0</ele><time>2026-04-26T16:10:38.86Z</time></trkpt><trkpt lat="45.9494435" lon="12.2975191"><ele>117.5</ele><time>2026-04-26T16:10:39.863Z</time></trkpt><trkpt lat="45.9491496" lon="12.2977844"><ele>117.0</ele><time>2026-04-26T16:10:40.876Z</time></trkpt><trkpt lat="45.9488567" lon="12.2980222"><ele>113.0</ele><time>2026-04-26T16:10:41.86Z</time></trkpt><trkpt lat="45.9485568" lon="12.298243"><ele>109.0</ele><time>2026-04-26T16:10:42.864Z</time></trkpt><trkpt lat="45.9482594" lon="12.2984458"><ele>108.5</ele><time>2026-04-26T16:10:43.849Z</time></trkpt><trkpt lat="45.9479592" lon="12.2986363"><ele>108.0</ele><time>2026-04-26T16:10:44.847Z</time></trkpt><trkpt lat="45.9476579" lon="12.2988201"><ele>106.5</ele><time>2026-04-26T16:10:45.868Z</time></trkpt><trkpt lat="45.9473581" lon="12.2990005"><ele>105.0</ele><time>2026-04-26T16:10:46.865Z</time></trkpt><trkpt lat="45.9470615" lon="12.2991783"><ele>105.0</ele><time>2026-04-26T16:10:47.876Z</time></trkpt><trkpt lat="45.946767" lon="12.2993582"><ele>105.0</ele><time>2026-04-26T16:10:48.863Z</time></trkpt><trkpt lat="45.9464728" lon="12.2995418"><ele>104.0</ele><time>2026-04-26T16:10:49.855Z</time></trkpt><trkpt lat="45.9461828" lon="12.2997332"><ele>103.0</ele><time>2026-04-26T16:10:50.851Z</time></trkpt><trkpt lat="45.945893" lon="12.2999347"><ele>103.5</ele><time>2026-04-26T16:10:51.855Z</time></trkpt><trkpt lat="45.9456087" lon="12.3001419"><ele>104.0</ele><time>2026-04-26T16:10:52.852Z</time></trkpt><trkpt lat="45.9453246" lon="12.3003575"><ele>103.5</ele><time>2026-04-26T16:10:53.842Z</time></trkpt><trkpt lat="45.9450392" lon="12.3005751"><ele>103.0</ele><time>2026-04-26T16:10:54.844Z</time></trkpt><trkpt lat="45.94476" lon="12.3007963"><ele>103.0</ele><time>2026-04-26T16:10:55.853Z</time></trkpt><trkpt lat="45.9444875" lon="12.3010295"><ele>103.0</ele><time>2026-04-26T16:10:56.855Z</time></trkpt><trkpt lat="45.9442224" lon="12.3012748"><ele>104.0</ele><time>2026-04-26T16:10:57.864Z</time></trkpt><trkpt lat="45.9439602" lon="12.3015304"><ele>105.0</ele><time>2026-04-26T16:10:58.849Z</time></trkpt><trkpt lat="45.9436933" lon="12.3017907"><ele>105.0</ele><time>2026-04-26T16:10:59.859Z</time></trkpt><trkpt lat="45.9434321" lon="12.3020584"><ele>105.0</ele><time>2026-04-26T16:11:00.857Z</time></trkpt><trkpt lat="45.9431761" lon="12.3023362"><ele>104.0</ele><time>2026-04-26T16:11:01.856Z</time></trkpt><trkpt lat="45.942927" lon="12.3026225"><ele>103.0</ele><time>2026-04-26T16:11:02.844Z</time></trkpt><trkpt lat="45.9426814" lon="12.3029192"><ele>102.0</ele><time>2026-04-26T16:11:03.85Z</time></trkpt><trkpt lat="45.9424403" lon="12.3032222"><ele>101.0</ele><time>2026-04-26T16:11:04.848Z</time></trkpt><trkpt lat="45.9422048" lon="12.303535"><ele>101.0</ele><time>2026-04-26T16:11:05.854Z</time></trkpt><trkpt lat="45.9419741" lon="12.3038548"><ele>101.0</ele><time>2026-04-26T16:11:06.851Z</time></trkpt><trkpt lat="45.9417444" lon="12.3041786"><ele>100.5</ele><time>2026-04-26T16:11:07.866Z</time></trkpt><trkpt lat="45.9415205" lon="12.3045031"><ele>100.0</ele><time>2026-04-26T16:11:08.85Z</time></trkpt><trkpt lat="45.9412927" lon="12.3048295"><ele>100.0</ele><time>2026-04-26T16:11:09.854Z</time></trkpt><trkpt lat="45.9410676" lon="12.3051515"><ele>100.0</ele><time>2026-04-26T16:11:10.85Z</time></trkpt><trkpt lat="45.9408421" lon="12.3054787"><ele>97.0</ele><time>2026-04-26T16:11:11.852Z</time></trkpt><trkpt lat="45.9406157" lon="12.3058056"><ele>94.0</ele><time>2026-04-26T16:11:12.855Z</time></trkpt><trkpt lat="45.9403923" lon="12.3061322"><ele>94.0</ele><time>2026-04-26T16:11:13.846Z</time></trkpt><trkpt lat="45.9401701" lon="12.3064595"><ele>94.0</ele><time>2026-04-26T16:11:14.844Z</time></trkpt><trkpt lat="45.9399488" lon="12.3067844"><ele>94.0</ele><time>2026-04-26T16:11:15.851Z</time></trkpt><trkpt lat="45.9397276" lon="12.3071035"><ele>94.0</ele><time>2026-04-26T16:11:16.855Z</time></trkpt><trkpt lat="45.9395025" lon="12.3074216"><ele>94.0</ele><time>2026-04-26T16:11:17.857Z</time></trkpt><trkpt lat="45.9392757" lon="12.3077309"><ele>94.0</ele><time>2026-04-26T16:11:18.845Z</time></trkpt><trkpt lat="45.9390388" lon="12.3080413"><ele>93.5</ele><time>2026-04-26T16:11:19.859Z</time></trkpt><trkpt lat="45.9388034" lon="12.3083427"><ele>93.0</ele><time>2026-04-26T16:11:20.851Z</time></trkpt><trkpt lat="45.9385641" lon="12.3086466"><ele>91.5</ele><time>2026-04-26T16:11:21.857Z</time></trkpt><trkpt lat="45.9383254" lon="12.3089439"><ele>90.0</ele><time>2026-04-26T16:11:22.857Z</time></trkpt><trkpt lat="45.9380848" lon="12.309237"><ele>90.0</ele><time>2026-04-26T16:11:23.864Z</time></trkpt><trkpt lat="45.9378435" lon="12.3095247"><ele>90.0</ele><time>2026-04-26T16:11:24.855Z</time></trkpt><trkpt lat="45.9375975" lon="12.3098125"><ele>90.5</ele><time>2026-04-26T16:11:25.854Z</time></trkpt><trkpt lat="45.9373523" lon="12.3100947"><ele>91.0</ele><time>2026-04-26T16:11:26.851Z</time></trkpt><trkpt lat="45.9371045" lon="12.3103776"><ele>89.5</ele><time>2026-04-26T16:11:27.853Z</time></trkpt><trkpt lat="45.9368557" lon="12.3106592"><ele>88.0</ele><time>2026-04-26T16:11:28.846Z</time></trkpt><trkpt lat="45.9366067" lon="12.3109385"><ele>88.5</ele><time>2026-04-26T16:11:29.85Z</time></trkpt><trkpt lat="45.9363572" lon="12.3112178"><ele>89.0</ele><time>2026-04-26T16:11:30.855Z</time></trkpt><trkpt lat="45.9361053" lon="12.311492"><ele>92.0</ele><time>2026-04-26T16:11:31.859Z</time></trkpt><trkpt lat="45.935847" lon="12.3117493"><ele>95.0</ele><time>2026-04-26T16:11:32.863Z</time></trkpt><trkpt lat="45.935581" lon="12.3119812"><ele>95.0</ele><time>2026-04-26T16:11:33.848Z</time></trkpt><trkpt lat="45.9353059" lon="12.3121853"><ele>95.0</ele><time>2026-04-26T16:11:34.851Z</time></trkpt><trkpt lat="45.9350213" lon="12.3123621"><ele>91.5</ele><time>2026-04-26T16:11:35.861Z</time></trkpt><trkpt lat="45.9347296" lon="12.3125169"><ele>88.0</ele><time>2026-04-26T16:11:36.856Z</time></trkpt><trkpt lat="45.9344233" lon="12.3126827"><ele>89.0</ele><time>2026-04-26T16:11:37.858Z</time></trkpt><trkpt lat="45.9341176" lon="12.3128078"><ele>90.0</ele><time>2026-04-26T16:11:38.869Z</time></trkpt><trkpt lat="45.9338156" lon="12.3128927"><ele>90.0</ele><time>2026-04-26T16:11:39.861Z</time></trkpt><trkpt lat="45.9335005" lon="12.3129553"><ele>90.0</ele><time>2026-04-26T16:11:40.864Z</time></trkpt><trkpt lat="45.9331869" lon="12.312993"><ele>91.0</ele><time>2026-04-26T16:11:41.864Z</time></trkpt><trkpt lat="45.9328676" lon="12.3130163"><ele>92.0</ele><time>2026-04-26T16:11:42.87Z</time></trkpt><trkpt lat="45.9325537" lon="12.3130255"><ele>90.0</ele><time>2026-04-26T16:11:43.876Z</time></trkpt><trkpt lat="45.9322368" lon="12.3130314"><ele>88.0</ele><time>2026-04-26T16:11:44.865Z</time></trkpt><trkpt lat="45.9319188" lon="12.3130284"><ele>88.5</ele><time>2026-04-26T16:11:45.853Z</time></trkpt><trkpt lat="45.9316005" lon="12.313024"><ele>89.0</ele><time>2026-04-26T16:11:46.855Z</time></trkpt><trkpt lat="45.9312837" lon="12.3130123"><ele>89.0</ele><time>2026-04-26T16:11:47.85Z</time></trkpt><trkpt lat="45.9309644" lon="12.3130002"><ele>89.0</ele><time>2026-04-26T16:11:48.858Z</time></trkpt><trkpt lat="45.9306476" lon="12.3129857"><ele>88.0</ele><time>2026-04-26T16:11:49.86Z</time></trkpt><trkpt lat="45.9303346" lon="12.3129742"><ele>87.0</ele><time>2026-04-26T16:11:50.878Z</time></trkpt><trkpt lat="45.9300181" lon="12.3129613"><ele>86.5</ele><time>2026-04-26T16:11:51.866Z</time></trkpt><trkpt lat="45.9297033" lon="12.3129482"><ele>86.0</ele><time>2026-04-26T16:11:52.857Z</time></trkpt><trkpt lat="45.929387" lon="12.3129321"><ele>86.5</ele><time>2026-04-26T16:11:53.87Z</time></trkpt><trkpt lat="45.9290749" lon="12.3129141"><ele>87.0</ele><time>2026-04-26T16:11:54.855Z</time></trkpt><trkpt lat="45.9287611" lon="12.3129013"><ele>87.0</ele><time>2026-04-26T16:11:55.854Z</time></trkpt><trkpt lat="45.9284483" lon="12.3128915"><ele>87.0</ele><time>2026-04-26T16:11:56.854Z</time></trkpt><trkpt lat="45.9281324" lon="12.3128823"><ele>86.5</ele><time>2026-04-26T16:11:57.855Z</time></trkpt><trkpt lat="45.9278165" lon="12.3128724"><ele>86.0</ele><time>2026-04-26T16:11:58.859Z</time></trkpt><trkpt lat="45.9275031" lon="12.3128677"><ele>86.0</ele><time>2026-04-26T16:11:59.863Z</time></trkpt><trkpt lat="45.9271879" lon="12.3128819"><ele>86.0</ele><time>2026-04-26T16:12:00.858Z</time></trkpt><trkpt lat="45.9268763" lon="12.3129201"><ele>86.0</ele><time>2026-04-26T16:12:01.854Z</time></trkpt><trkpt lat="45.926563" lon="12.3129825"><ele>86.0</ele><time>2026-04-26T16:12:02.862Z</time></trkpt><trkpt lat="45.9262591" lon="12.313073"><ele>84.5</ele><time>2026-04-26T16:12:03.852Z</time></trkpt><trkpt lat="45.9259532" lon="12.313192"><ele>83.0</ele><time>2026-04-26T16:12:04.857Z</time></trkpt><trkpt lat="45.9256531" lon="12.3133371"><ele>83.0</ele><time>2026-04-26T16:12:05.866Z</time></trkpt><trkpt lat="45.9253603" lon="12.3135026"><ele>83.0</ele><time>2026-04-26T16:12:06.872Z</time></trkpt><trkpt lat="45.9250772" lon="12.313689"><ele>82.5</ele><time>2026-04-26T16:12:07.851Z</time></trkpt><trkpt lat="45.9247992" lon="12.3139034"><ele>82.0</ele><time>2026-04-26T16:12:08.851Z</time></trkpt><trkpt lat="45.9245317" lon="12.3141432"><ele>82.0</ele><time>2026-04-26T16:12:09.859Z</time></trkpt><trkpt lat="45.924272" lon="12.3144023"><ele>82.0</ele><time>2026-04-26T16:12:10.852Z</time></trkpt><trkpt lat="45.9240209" lon="12.3146843"><ele>81.5</ele><time>2026-04-26T16:12:11.856Z</time></trkpt><trkpt lat="45.923782" lon="12.314982"><ele>81.0</ele><time>2026-04-26T16:12:12.845Z</time></trkpt><trkpt lat="45.9235593" lon="12.3152987"><ele>80.5</ele><time>2026-04-26T16:12:13.857Z</time></trkpt><trkpt lat="45.9233508" lon="12.3156357"><ele>80.0</ele><time>2026-04-26T16:12:14.86Z</time></trkpt><trkpt lat="45.9231589" lon="12.315988"><ele>80.0</ele><time>2026-04-26T16:12:15.848Z</time></trkpt><trkpt lat="45.9229764" lon="12.3163601"><ele>80.0</ele><time>2026-04-26T16:12:16.865Z</time></trkpt><trkpt lat="45.922811" lon="12.3167437"><ele>79.5</ele><time>2026-04-26T16:12:17.861Z</time></trkpt><trkpt lat="45.9226609" lon="12.3171399"><ele>79.0</ele><time>2026-04-26T16:12:18.858Z</time></trkpt><trkpt lat="45.9225242" lon="12.3175531"><ele>80.0</ele><time>2026-04-26T16:12:19.871Z</time></trkpt><trkpt lat="45.9224096" lon="12.3179724"><ele>81.0</ele><time>2026-04-26T16:12:20.858Z</time></trkpt><trkpt lat="45.9223163" lon="12.3184013"><ele>81.0</ele><time>2026-04-26T16:12:21.859Z</time></trkpt><trkpt lat="45.9222289" lon="12.3188358"><ele>81.0</ele><time>2026-04-26T16:12:22.861Z</time></trkpt><trkpt lat="45.9221425" lon="12.3192816"><ele>81.0</ele><time>2026-04-26T16:12:23.856Z</time></trkpt><trkpt lat="45.9220537" lon="12.3197111"><ele>81.0</ele><time>2026-04-26T16:12:24.863Z</time></trkpt><trkpt lat="45.9219578" lon="12.3201519"><ele>80.5</ele><time>2026-04-26T16:12:25.866Z</time></trkpt><trkpt lat="45.9218589" lon="12.3205738"><ele>80.0</ele><time>2026-04-26T16:12:26.858Z</time></trkpt><trkpt lat="45.9216403" lon="12.3214277"><ele>79.5</ele><time>2026-04-26T16:12:28.855Z</time></trkpt><trkpt lat="45.9215206" lon="12.3218475"><ele>79.0</ele><time>2026-04-26T16:12:29.87Z</time></trkpt><trkpt lat="45.9213947" lon="12.3222593"><ele>78.0</ele><time>2026-04-26T16:12:30.856Z</time></trkpt><trkpt lat="45.9212599" lon="12.3226775"><ele>77.0</ele><time>2026-04-26T16:12:31.853Z</time></trkpt><trkpt lat="45.9211213" lon="12.3230899"><ele>77.0</ele><time>2026-04-26T16:12:32.844Z</time></trkpt><trkpt lat="45.9209794" lon="12.3235004"><ele>77.0</ele><time>2026-04-26T16:12:33.864Z</time></trkpt><trkpt lat="45.9208364" lon="12.3239021"><ele>76.5</ele><time>2026-04-26T16:12:34.854Z</time></trkpt><trkpt lat="45.9206898" lon="12.324302"><ele>76.0</ele><time>2026-04-26T16:12:35.861Z</time></trkpt><trkpt lat="45.9205392" lon="12.3246968"><ele>76.0</ele><time>2026-04-26T16:12:36.847Z</time></trkpt><trkpt lat="45.9203827" lon="12.3250907"><ele>76.0</ele><time>2026-04-26T16:12:37.855Z</time></trkpt><trkpt lat="45.9202189" lon="12.3254785"><ele>78.0</ele><time>2026-04-26T16:12:38.853Z</time></trkpt><trkpt lat="45.9200487" lon="12.3258567"><ele>80.0</ele><time>2026-04-26T16:12:39.855Z</time></trkpt><trkpt lat="45.9198698" lon="12.3262347"><ele>82.5</ele><time>2026-04-26T16:12:40.857Z</time></trkpt><trkpt lat="45.9196877" lon="12.326604"><ele>85.0</ele><time>2026-04-26T16:12:41.848Z</time></trkpt><trkpt lat="45.9195006" lon="12.3269709"><ele>87.5</ele><time>2026-04-26T16:12:42.855Z</time></trkpt><trkpt lat="45.9193115" lon="12.327331"><ele>90.0</ele><time>2026-04-26T16:12:43.855Z</time></trkpt><trkpt lat="45.9191158" lon="12.327693"><ele>90.0</ele><time>2026-04-26T16:12:44.863Z</time></trkpt><trkpt lat="45.9189169" lon="12.328045"><ele>90.0</ele><time>2026-04-26T16:12:45.858Z</time></trkpt><trkpt lat="45.9187156" lon="12.3283895"><ele>91.5</ele><time>2026-04-26T16:12:46.853Z</time></trkpt><trkpt lat="45.9185087" lon="12.3287355"><ele>93.0</ele><time>2026-04-26T16:12:47.856Z</time></trkpt><trkpt lat="45.9183008" lon="12.3290733"><ele>94.5</ele><time>2026-04-26T16:12:48.85Z</time></trkpt><trkpt lat="45.9180858" lon="12.3294058"><ele>96.0</ele><time>2026-04-26T16:12:49.861Z</time></trkpt><trkpt lat="45.9178661" lon="12.3297328"><ele>96.0</ele><time>2026-04-26T16:12:50.857Z</time></trkpt><trkpt lat="45.9176457" lon="12.330049"><ele>96.0</ele><time>2026-04-26T16:12:51.852Z</time></trkpt><trkpt lat="45.9174163" lon="12.3303658"><ele>94.0</ele><time>2026-04-26T16:12:52.854Z</time></trkpt><trkpt lat="45.9171845" lon="12.3306769"><ele>92.0</ele><time>2026-04-26T16:12:53.862Z</time></trkpt><trkpt lat="45.9169537" lon="12.3309799"><ele>93.0</ele><time>2026-04-26T16:12:54.851Z</time></trkpt><trkpt lat="45.9167154" lon="12.3312842"><ele>94.0</ele><time>2026-04-26T16:12:55.844Z</time></trkpt><trkpt lat="45.9164751" lon="12.3315833"><ele>94.0</ele><time>2026-04-26T16:12:56.857Z</time></trkpt><trkpt lat="45.916233" lon="12.3318749"><ele>94.0</ele><time>2026-04-26T16:12:57.882Z</time></trkpt><trkpt lat="45.9159903" lon="12.3321517"><ele>93.5</ele><time>2026-04-26T16:12:58.862Z</time></trkpt><trkpt lat="45.9157402" lon="12.3324269"><ele>93.0</ele><time>2026-04-26T16:12:59.85Z</time></trkpt><trkpt lat="45.915486" lon="12.3326981"><ele>93.0</ele><time>2026-04-26T16:13:00.851Z</time></trkpt><trkpt lat="45.9152283" lon="12.3329661"><ele>93.0</ele><time>2026-04-26T16:13:01.863Z</time></trkpt><trkpt lat="45.9149708" lon="12.3332225"><ele>90.0</ele><time>2026-04-26T16:13:02.846Z</time></trkpt><trkpt lat="45.914705" lon="12.3334739"><ele>87.0</ele><time>2026-04-26T16:13:03.855Z</time></trkpt><trkpt lat="45.914437" lon="12.3337188"><ele>83.5</ele><time>2026-04-26T16:13:04.857Z</time></trkpt><trkpt lat="45.9141685" lon="12.3339581"><ele>80.0</ele><time>2026-04-26T16:13:05.85Z</time></trkpt><trkpt lat="45.9138981" lon="12.3341974"><ele>80.0</ele><time>2026-04-26T16:13:06.853Z</time></trkpt><trkpt lat="45.9136268" lon="12.3344372"><ele>80.0</ele><time>2026-04-26T16:13:07.857Z</time></trkpt><trkpt lat="45.9133599" lon="12.3346746"><ele>77.0</ele><time>2026-04-26T16:13:08.854Z</time></trkpt><trkpt lat="45.9130923" lon="12.3349183"><ele>74.0</ele><time>2026-04-26T16:13:09.862Z</time></trkpt><trkpt lat="45.9128316" lon="12.3351668"><ele>73.5</ele><time>2026-04-26T16:13:10.844Z</time></trkpt><trkpt lat="45.9125685" lon="12.3354233"><ele>73.0</ele><time>2026-04-26T16:13:11.871Z</time></trkpt><trkpt lat="45.912315" lon="12.3356817"><ele>70.0</ele><time>2026-04-26T16:13:12.853Z</time></trkpt><trkpt lat="45.912062" lon="12.3359503"><ele>67.0</ele><time>2026-04-26T16:13:13.857Z</time></trkpt><trkpt lat="45.9118143" lon="12.3362213"><ele>67.0</ele><time>2026-04-26T16:13:14.856Z</time></trkpt><trkpt lat="45.9115655" lon="12.3365045"><ele>67.0</ele><time>2026-04-26T16:13:15.864Z</time></trkpt><trkpt lat="45.9113193" lon="12.3367848"><ele>67.0</ele><time>2026-04-26T16:13:16.85Z</time></trkpt><trkpt lat="45.9110718" lon="12.3370688"><ele>67.0</ele><time>2026-04-26T16:13:17.865Z</time></trkpt><trkpt lat="45.91083" lon="12.3373585"><ele>66.5</ele><time>2026-04-26T16:13:18.845Z</time></trkpt><trkpt lat="45.9105889" lon="12.337658"><ele>66.0</ele><time>2026-04-26T16:13:19.864Z</time></trkpt><trkpt lat="45.9103578" lon="12.3379601"><ele>66.0</ele><time>2026-04-26T16:13:20.847Z</time></trkpt><trkpt lat="45.9101273" lon="12.3382771"><ele>66.0</ele><time>2026-04-26T16:13:21.873Z</time></trkpt><trkpt lat="45.9099056" lon="12.3385969"><ele>64.0</ele><time>2026-04-26T16:13:22.856Z</time></trkpt><trkpt lat="45.9096867" lon="12.3389253"><ele>62.0</ele><time>2026-04-26T16:13:23.854Z</time></trkpt><trkpt lat="45.9094707" lon="12.3392577"><ele>62.0</ele><time>2026-04-26T16:13:24.851Z</time></trkpt><trkpt lat="45.9092585" lon="12.3395941"><ele>62.0</ele><time>2026-04-26T16:13:25.851Z</time></trkpt><trkpt lat="45.9090505" lon="12.3399347"><ele>62.0</ele><time>2026-04-26T16:13:26.847Z</time></trkpt><trkpt lat="45.9088422" lon="12.3402796"><ele>62.0</ele><time>2026-04-26T16:13:27.854Z</time></trkpt><trkpt lat="45.9086385" lon="12.3406214"><ele>62.0</ele><time>2026-04-26T16:13:28.854Z</time></trkpt><trkpt lat="45.9084324" lon="12.3409668"><ele>62.0</ele><time>2026-04-26T16:13:29.847Z</time></trkpt><trkpt lat="45.9082256" lon="12.3413128"><ele>62.5</ele><time>2026-04-26T16:13:30.857Z</time></trkpt><trkpt lat="45.9080192" lon="12.3416524"><ele>63.0</ele><time>2026-04-26T16:13:31.857Z</time></trkpt><trkpt lat="45.9078027" lon="12.3419871"><ele>61.5</ele><time>2026-04-26T16:13:32.854Z</time></trkpt><trkpt lat="45.9075783" lon="12.3423043"><ele>60.0</ele><time>2026-04-26T16:13:33.871Z</time></trkpt><trkpt lat="45.9073477" lon="12.342604"><ele>59.0</ele><time>2026-04-26T16:13:34.85Z</time></trkpt><trkpt lat="45.9071026" lon="12.3428945"><ele>58.0</ele><time>2026-04-26T16:13:35.868Z</time></trkpt><trkpt lat="45.9068582" lon="12.3431658"><ele>59.0</ele><time>2026-04-26T16:13:36.853Z</time></trkpt><trkpt lat="45.9066029" lon="12.3434238"><ele>60.0</ele><time>2026-04-26T16:13:37.853Z</time></trkpt><trkpt lat="45.906338" lon="12.3436692"><ele>58.0</ele><time>2026-04-26T16:13:38.857Z</time></trkpt><trkpt lat="45.9060652" lon="12.3438996"><ele>56.0</ele><time>2026-04-26T16:13:39.856Z</time></trkpt><trkpt lat="45.905789" lon="12.3441097"><ele>56.0</ele><time>2026-04-26T16:13:40.846Z</time></trkpt><trkpt lat="45.9055026" lon="12.3443013"><ele>56.0</ele><time>2026-04-26T16:13:41.869Z</time></trkpt><trkpt lat="45.9052104" lon="12.3444689"><ele>56.0</ele><time>2026-04-26T16:13:42.866Z</time></trkpt><trkpt lat="45.9049156" lon="12.3446139"><ele>56.0</ele><time>2026-04-26T16:13:43.861Z</time></trkpt><trkpt lat="45.9046084" lon="12.3447339"><ele>56.0</ele><time>2026-04-26T16:13:44.869Z</time></trkpt><trkpt lat="45.9043003" lon="12.3448283"><ele>56.0</ele><time>2026-04-26T16:13:45.858Z</time></trkpt><trkpt lat="45.9039891" lon="12.3449122"><ele>56.0</ele><time>2026-04-26T16:13:46.853Z</time></trkpt><trkpt lat="45.9036694" lon="12.3449768"><ele>56.0</ele><time>2026-04-26T16:13:47.856Z</time></trkpt><trkpt lat="45.9033543" lon="12.345021"><ele>58.0</ele><time>2026-04-26T16:13:48.848Z</time></trkpt><trkpt lat="45.9030362" lon="12.3450483"><ele>60.0</ele><time>2026-04-26T16:13:49.844Z</time></trkpt><trkpt lat="45.9027155" lon="12.3450593"><ele>60.5</ele><time>2026-04-26T16:13:50.861Z</time></trkpt><trkpt lat="45.9024003" lon="12.3450497"><ele>61.0</ele><time>2026-04-26T16:13:51.853Z</time></trkpt><trkpt lat="45.9020821" lon="12.345021"><ele>61.0</ele><time>2026-04-26T16:13:52.896Z</time></trkpt><trkpt lat="45.90178" lon="12.3449663"><ele>61.0</ele><time>2026-04-26T16:13:53.866Z</time></trkpt><trkpt lat="45.9014685" lon="12.344894"><ele>60.0</ele><time>2026-04-26T16:13:54.87Z</time></trkpt><trkpt lat="45.9011621" lon="12.3448079"><ele>59.0</ele><time>2026-04-26T16:13:55.86Z</time></trkpt><trkpt lat="45.9008536" lon="12.344719"><ele>58.5</ele><time>2026-04-26T16:13:56.86Z</time></trkpt><trkpt lat="45.9005422" lon="12.3446244"><ele>58.0</ele><time>2026-04-26T16:13:57.867Z</time></trkpt><trkpt lat="45.900234" lon="12.3445251"><ele>57.5</ele><time>2026-04-26T16:13:58.87Z</time></trkpt><trkpt lat="45.8999263" lon="12.3444221"><ele>57.0</ele><time>2026-04-26T16:13:59.862Z</time></trkpt><trkpt lat="45.8996195" lon="12.3443231"><ele>57.0</ele><time>2026-04-26T16:14:00.851Z</time></trkpt><trkpt lat="45.8993093" lon="12.3442263"><ele>57.0</ele><time>2026-04-26T16:14:01.859Z</time></trkpt><trkpt lat="45.8990052" lon="12.344134"><ele>57.0</ele><time>2026-04-26T16:14:02.845Z</time></trkpt><trkpt lat="45.8986909" lon="12.3440403"><ele>57.0</ele><time>2026-04-26T16:14:03.872Z</time></trkpt><trkpt lat="45.8983879" lon="12.3439479"><ele>59.0</ele><time>2026-04-26T16:14:04.856Z</time></trkpt><trkpt lat="45.8980785" lon="12.3438536"><ele>61.0</ele><time>2026-04-26T16:14:05.864Z</time></trkpt><trkpt lat="45.8977702" lon="12.343762"><ele>58.5</ele><time>2026-04-26T16:14:06.856Z</time></trkpt><trkpt lat="45.8974611" lon="12.3436718"><ele>56.0</ele><time>2026-04-26T16:14:07.856Z</time></trkpt><trkpt lat="45.8971496" lon="12.3435826"><ele>56.0</ele><time>2026-04-26T16:14:08.868Z</time></trkpt><trkpt lat="45.8968428" lon="12.3434958"><ele>56.0</ele><time>2026-04-26T16:14:09.86Z</time></trkpt><trkpt lat="45.8965331" lon="12.3434035"><ele>56.0</ele><time>2026-04-26T16:14:10.871Z</time></trkpt><trkpt lat="45.896226" lon="12.3433113"><ele>56.0</ele><time>2026-04-26T16:14:11.853Z</time></trkpt><trkpt lat="45.8959161" lon="12.3432157"><ele>55.0</ele><time>2026-04-26T16:14:12.854Z</time></trkpt><trkpt lat="45.8956052" lon="12.3431216"><ele>54.0</ele><time>2026-04-26T16:14:13.864Z</time></trkpt><trkpt lat="45.8952977" lon="12.3430308"><ele>53.0</ele><time>2026-04-26T16:14:14.844Z</time></trkpt><trkpt lat="45.8949869" lon="12.3429365"><ele>52.0</ele><time>2026-04-26T16:14:15.861Z</time></trkpt><trkpt lat="45.8946794" lon="12.3428442"><ele>52.0</ele><time>2026-04-26T16:14:16.85Z</time></trkpt><trkpt lat="45.8943682" lon="12.3427507"><ele>52.0</ele><time>2026-04-26T16:14:17.858Z</time></trkpt><trkpt lat="45.8940612" lon="12.3426559"><ele>49.5</ele><time>2026-04-26T16:14:18.857Z</time></trkpt><trkpt lat="45.8937512" lon="12.3425595"><ele>47.0</ele><time>2026-04-26T16:14:19.863Z</time></trkpt><trkpt lat="45.8934432" lon="12.3424639"><ele>49.0</ele><time>2026-04-26T16:14:20.857Z</time></trkpt><trkpt lat="45.8931332" lon="12.3423678"><ele>51.0</ele><time>2026-04-26T16:14:21.865Z</time></trkpt><trkpt lat="45.8928266" lon="12.3422741"><ele>51.0</ele><time>2026-04-26T16:14:22.864Z</time></trkpt><trkpt lat="45.8925176" lon="12.3421804"><ele>51.0</ele><time>2026-04-26T16:14:23.845Z</time></trkpt><trkpt lat="45.8922059" lon="12.342085"><ele>51.0</ele><time>2026-04-26T16:14:24.861Z</time></trkpt><trkpt lat="45.8918984" lon="12.3419894"><ele>51.0</ele><time>2026-04-26T16:14:25.854Z</time></trkpt><trkpt lat="45.8915894" lon="12.341893"><ele>49.5</ele><time>2026-04-26T16:14:26.85Z</time></trkpt><trkpt lat="45.8912796" lon="12.3417997"><ele>48.0</ele><time>2026-04-26T16:14:27.847Z</time></trkpt><trkpt lat="45.890971" lon="12.3417081"><ele>49.5</ele><time>2026-04-26T16:14:28.862Z</time></trkpt><trkpt lat="45.8906605" lon="12.3416168"><ele>51.0</ele><time>2026-04-26T16:14:29.854Z</time></trkpt><trkpt lat="45.8903529" lon="12.3415265"><ele>50.0</ele><time>2026-04-26T16:14:30.856Z</time></trkpt><trkpt lat="45.8900446" lon="12.3414329"><ele>49.0</ele><time>2026-04-26T16:14:31.86Z</time></trkpt><trkpt lat="45.8897374" lon="12.3413384"><ele>49.0</ele><time>2026-04-26T16:14:32.845Z</time></trkpt><trkpt lat="45.8894268" lon="12.3412442"><ele>49.0</ele><time>2026-04-26T16:14:33.862Z</time></trkpt><trkpt lat="45.8891157" lon="12.3411568"><ele>49.0</ele><time>2026-04-26T16:14:34.871Z</time></trkpt><trkpt lat="45.888804" lon="12.341081"><ele>49.0</ele><time>2026-04-26T16:14:35.867Z</time></trkpt><trkpt lat="45.8884914" lon="12.3410176"><ele>49.5</ele><time>2026-04-26T16:14:36.862Z</time></trkpt><trkpt lat="45.8881758" lon="12.3409583"><ele>50.0</ele><time>2026-04-26T16:14:37.861Z</time></trkpt><trkpt lat="45.8878628" lon="12.3409032"><ele>49.0</ele><time>2026-04-26T16:14:38.852Z</time></trkpt><trkpt lat="45.8875489" lon="12.340853"><ele>48.0</ele><time>2026-04-26T16:14:39.856Z</time></trkpt><trkpt lat="45.8872351" lon="12.3408097"><ele>48.0</ele><time>2026-04-26T16:14:40.841Z</time></trkpt><trkpt lat="45.8869163" lon="12.3407721"><ele>48.0</ele><time>2026-04-26T16:14:41.858Z</time></trkpt><trkpt lat="45.8866004" lon="12.3407417"><ele>48.5</ele><time>2026-04-26T16:14:42.859Z</time></trkpt><trkpt lat="45.8862841" lon="12.3407202"><ele>49.0</ele><time>2026-04-26T16:14:43.863Z</time></trkpt><trkpt lat="45.8859694" lon="12.3407097"><ele>50.0</ele><time>2026-04-26T16:14:44.852Z</time></trkpt><trkpt lat="45.8856515" lon="12.3407074"><ele>51.0</ele><time>2026-04-26T16:14:45.872Z</time></trkpt><trkpt lat="45.8853348" lon="12.3407134"><ele>50.0</ele><time>2026-04-26T16:14:46.869Z</time></trkpt><trkpt lat="45.8850217" lon="12.340728"><ele>49.0</ele><time>2026-04-26T16:14:47.861Z</time></trkpt><trkpt lat="45.8847072" lon="12.3407474"><ele>49.0</ele><time>2026-04-26T16:14:48.86Z</time></trkpt><trkpt lat="45.8843903" lon="12.3407753"><ele>49.0</ele><time>2026-04-26T16:14:49.866Z</time></trkpt><trkpt lat="45.8840776" lon="12.3408139"><ele>47.5</ele><time>2026-04-26T16:14:50.846Z</time></trkpt><trkpt lat="45.8837575" lon="12.3408631"><ele>46.0</ele><time>2026-04-26T16:14:51.89Z</time></trkpt><trkpt lat="45.8834503" lon="12.3409183"><ele>46.0</ele><time>2026-04-26T16:14:52.868Z</time></trkpt><trkpt lat="45.8831383" lon="12.3409839"><ele>46.0</ele><time>2026-04-26T16:14:53.856Z</time></trkpt><trkpt lat="45.8828227" lon="12.3410561"><ele>45.0</ele><time>2026-04-26T16:14:54.865Z</time></trkpt><trkpt lat="45.8825123" lon="12.3411326"><ele>44.0</ele><time>2026-04-26T16:14:55.863Z</time></trkpt><trkpt lat="45.8821994" lon="12.3412159"><ele>44.0</ele><time>2026-04-26T16:14:56.86Z</time></trkpt><trkpt lat="45.8818865" lon="12.3412991"><ele>44.0</ele><time>2026-04-26T16:14:57.862Z</time></trkpt><trkpt lat="45.8815731" lon="12.3413828"><ele>43.5</ele><time>2026-04-26T16:14:58.855Z</time></trkpt><trkpt lat="45.8812598" lon="12.3414702"><ele>43.0</ele><time>2026-04-26T16:14:59.858Z</time></trkpt><trkpt lat="45.8809428" lon="12.3415618"><ele>44.5</ele><time>2026-04-26T16:15:00.852Z</time></trkpt><trkpt lat="45.8806257" lon="12.3416561"><ele>46.0</ele><time>2026-04-26T16:15:01.863Z</time></trkpt><trkpt lat="45.8803114" lon="12.3417493"><ele>44.5</ele><time>2026-04-26T16:15:02.87Z</time></trkpt><trkpt lat="45.880001" lon="12.3418412"><ele>43.0</ele><time>2026-04-26T16:15:03.858Z</time></trkpt><trkpt lat="45.8796877" lon="12.3419323"><ele>43.0</ele><time>2026-04-26T16:15:04.868Z</time></trkpt><trkpt lat="45.8793784" lon="12.3420252"><ele>43.0</ele><time>2026-04-26T16:15:05.853Z</time></trkpt><trkpt lat="45.879064" lon="12.3421254"><ele>43.5</ele><time>2026-04-26T16:15:06.862Z</time></trkpt><trkpt lat="45.8787508" lon="12.3422287"><ele>44.0</ele><time>2026-04-26T16:15:07.879Z</time></trkpt><trkpt lat="45.8784455" lon="12.3423336"><ele>42.5</ele><time>2026-04-26T16:15:08.857Z</time></trkpt><trkpt lat="45.8781348" lon="12.342441"><ele>41.0</ele><time>2026-04-26T16:15:09.868Z</time></trkpt><trkpt lat="45.8778286" lon="12.3425435"><ele>42.0</ele><time>2026-04-26T16:15:10.867Z</time></trkpt><trkpt lat="45.8775207" lon="12.3426446"><ele>43.0</ele><time>2026-04-26T16:15:11.857Z</time></trkpt><trkpt lat="45.8772079" lon="12.3427448"><ele>43.0</ele><time>2026-04-26T16:15:12.867Z</time></trkpt><trkpt lat="45.8768961" lon="12.3428358"><ele>43.0</ele><time>2026-04-26T16:15:13.858Z</time></trkpt><trkpt lat="45.8765834" lon="12.342915"><ele>43.0</ele><time>2026-04-26T16:15:14.864Z</time></trkpt><trkpt lat="45.8762699" lon="12.3429844"><ele>43.0</ele><time>2026-04-26T16:15:15.857Z</time></trkpt><trkpt lat="45.8759574" lon="12.343034"><ele>42.5</ele><time>2026-04-26T16:15:16.858Z</time></trkpt><trkpt lat="45.8756446" lon="12.3430667"><ele>42.0</ele><time>2026-04-26T16:15:17.85Z</time></trkpt><trkpt lat="45.8753252" lon="12.3430858"><ele>41.5</ele><time>2026-04-26T16:15:18.854Z</time></trkpt><trkpt lat="45.8750109" lon="12.3430944"><ele>41.0</ele><time>2026-04-26T16:15:19.855Z</time></trkpt><trkpt lat="45.8746927" lon="12.3430972"><ele>41.0</ele><time>2026-04-26T16:15:20.849Z</time></trkpt><trkpt lat="45.8743723" lon="12.3430967"><ele>41.0</ele><time>2026-04-26T16:15:21.869Z</time></trkpt><trkpt lat="45.8740614" lon="12.3430901"><ele>41.0</ele><time>2026-04-26T16:15:22.853Z</time></trkpt><trkpt lat="45.8737451" lon="12.3430704"><ele>41.0</ele><time>2026-04-26T16:15:23.86Z</time></trkpt><trkpt lat="45.8734312" lon="12.3430377"><ele>41.0</ele><time>2026-04-26T16:15:24.851Z</time></trkpt><trkpt lat="45.8731131" lon="12.3429945"><ele>41.0</ele><time>2026-04-26T16:15:25.873Z</time></trkpt><trkpt lat="45.8728016" lon="12.3429421"><ele>41.5</ele><time>2026-04-26T16:15:26.859Z</time></trkpt><trkpt lat="45.8724882" lon="12.3428807"><ele>42.0</ele><time>2026-04-26T16:15:27.86Z</time></trkpt><trkpt lat="45.8721769" lon="12.3428128"><ele>42.0</ele><time>2026-04-26T16:15:28.855Z</time></trkpt><trkpt lat="45.8718664" lon="12.3427388"><ele>42.0</ele><time>2026-04-26T16:15:29.857Z</time></trkpt><trkpt lat="45.8715544" lon="12.3426603"><ele>41.0</ele><time>2026-04-26T16:15:30.856Z</time></trkpt><trkpt lat="45.8712408" lon="12.3425823"><ele>40.0</ele><time>2026-04-26T16:15:31.86Z</time></trkpt><trkpt lat="45.8709312" lon="12.3425097"><ele>40.0</ele><time>2026-04-26T16:15:32.85Z</time></trkpt><trkpt lat="45.8706175" lon="12.3424365"><ele>40.0</ele><time>2026-04-26T16:15:33.86Z</time></trkpt><trkpt lat="45.8703088" lon="12.3423644"><ele>39.5</ele><time>2026-04-26T16:15:34.847Z</time></trkpt><trkpt lat="45.869994" lon="12.3422905"><ele>39.0</ele><time>2026-04-26T16:15:35.853Z</time></trkpt><trkpt lat="45.8696817" lon="12.3422179"><ele>39.0</ele><time>2026-04-26T16:15:36.857Z</time></trkpt><trkpt lat="45.8693708" lon="12.3421441"><ele>39.0</ele><time>2026-04-26T16:15:37.857Z</time></trkpt><trkpt lat="45.8690628" lon="12.3420708"><ele>39.0</ele><time>2026-04-26T16:15:38.854Z</time></trkpt><trkpt lat="45.8687501" lon="12.3419993"><ele>39.0</ele><time>2026-04-26T16:15:39.853Z</time></trkpt><trkpt lat="45.8684392" lon="12.3419268"><ele>40.5</ele><time>2026-04-26T16:15:40.853Z</time></trkpt><trkpt lat="45.8681247" lon="12.3418532"><ele>42.0</ele><time>2026-04-26T16:15:41.849Z</time></trkpt><trkpt lat="45.8678118" lon="12.3417801"><ele>40.5</ele><time>2026-04-26T16:15:42.86Z</time></trkpt><trkpt lat="45.8675031" lon="12.3417053"><ele>39.0</ele><time>2026-04-26T16:15:43.85Z</time></trkpt><trkpt lat="45.8671911" lon="12.341628"><ele>39.0</ele><time>2026-04-26T16:15:44.856Z</time></trkpt><trkpt lat="45.8668791" lon="12.3415514"><ele>39.0</ele><time>2026-04-26T16:15:45.853Z</time></trkpt><trkpt lat="45.8665657" lon="12.3414756"><ele>39.0</ele><time>2026-04-26T16:15:46.87Z</time></trkpt><trkpt lat="45.8662539" lon="12.3414044"><ele>39.0</ele><time>2026-04-26T16:15:47.868Z</time></trkpt><trkpt lat="45.8659464" lon="12.3413363"><ele>39.5</ele><time>2026-04-26T16:15:48.85Z</time></trkpt><trkpt lat="45.8656335" lon="12.341268"><ele>40.0</ele><time>2026-04-26T16:15:49.85Z</time></trkpt><trkpt lat="45.8653193" lon="12.3411975"><ele>39.5</ele><time>2026-04-26T16:15:50.854Z</time></trkpt><trkpt lat="45.86501" lon="12.3411223"><ele>39.0</ele><time>2026-04-26T16:15:51.853Z</time></trkpt><trkpt lat="45.864699" lon="12.341045"><ele>39.0</ele><time>2026-04-26T16:15:52.853Z</time></trkpt><trkpt lat="45.864388" lon="12.3409686"><ele>39.0</ele><time>2026-04-26T16:15:53.853Z</time></trkpt><trkpt lat="45.8640785" lon="12.3408919"><ele>39.5</ele><time>2026-04-26T16:15:54.856Z</time></trkpt><trkpt lat="45.8637677" lon="12.3408171"><ele>40.0</ele><time>2026-04-26T16:15:55.861Z</time></trkpt><trkpt lat="45.8634567" lon="12.340739"><ele>39.5</ele><time>2026-04-26T16:15:56.855Z</time></trkpt><trkpt lat="45.8631458" lon="12.3406508"><ele>39.0</ele><time>2026-04-26T16:15:57.854Z</time></trkpt><trkpt lat="45.8628342" lon="12.3405559"><ele>40.0</ele><time>2026-04-26T16:15:58.858Z</time></trkpt><trkpt lat="45.8625296" lon="12.340449"><ele>41.0</ele><time>2026-04-26T16:15:59.863Z</time></trkpt><trkpt lat="45.8622287" lon="12.3403257"><ele>41.0</ele><time>2026-04-26T16:16:00.847Z</time></trkpt><trkpt lat="45.8619241" lon="12.3401818"><ele>41.0</ele><time>2026-04-26T16:16:01.858Z</time></trkpt><trkpt lat="45.8616304" lon="12.340021"><ele>40.0</ele><time>2026-04-26T16:16:02.864Z</time></trkpt><trkpt lat="45.8613395" lon="12.3398411"><ele>39.0</ele><time>2026-04-26T16:16:03.865Z</time></trkpt><trkpt lat="45.8610541" lon="12.3396483"><ele>38.5</ele><time>2026-04-26T16:16:04.863Z</time></trkpt><trkpt lat="45.8607726" lon="12.3394405"><ele>38.0</ele><time>2026-04-26T16:16:05.873Z</time></trkpt><trkpt lat="45.8605028" lon="12.3392203"><ele>38.0</ele><time>2026-04-26T16:16:06.84Z</time></trkpt><trkpt lat="45.8602311" lon="12.3389826"><ele>38.0</ele><time>2026-04-26T16:16:07.856Z</time></trkpt><trkpt lat="45.859967" lon="12.3387344"><ele>39.0</ele><time>2026-04-26T16:16:08.861Z</time></trkpt><trkpt lat="45.8597069" lon="12.3384743"><ele>40.0</ele><time>2026-04-26T16:16:09.853Z</time></trkpt><trkpt lat="45.8594524" lon="12.3381973"><ele>40.0</ele><time>2026-04-26T16:16:10.864Z</time></trkpt><trkpt lat="45.8592067" lon="12.337911"><ele>40.0</ele><time>2026-04-26T16:16:11.866Z</time></trkpt><trkpt lat="45.8589688" lon="12.3376138"><ele>40.0</ele><time>2026-04-26T16:16:12.863Z</time></trkpt><trkpt lat="45.85874" lon="12.3373013"><ele>40.0</ele><time>2026-04-26T16:16:13.857Z</time></trkpt><trkpt lat="45.8585195" lon="12.3369803"><ele>39.0</ele><time>2026-04-26T16:16:14.864Z</time></trkpt><trkpt lat="45.8583038" lon="12.3366467"><ele>38.0</ele><time>2026-04-26T16:16:15.855Z</time></trkpt><trkpt lat="45.8580959" lon="12.336306"><ele>38.0</ele><time>2026-04-26T16:16:16.854Z</time></trkpt><trkpt lat="45.8578901" lon="12.3359689"><ele>38.0</ele><time>2026-04-26T16:16:17.843Z</time></trkpt><trkpt lat="45.857682" lon="12.3356243"><ele>39.0</ele><time>2026-04-26T16:16:18.838Z</time></trkpt><trkpt lat="45.8574738" lon="12.3352782"><ele>40.0</ele><time>2026-04-26T16:16:19.867Z</time></trkpt><trkpt lat="45.8572686" lon="12.3349389"><ele>39.0</ele><time>2026-04-26T16:16:20.854Z</time></trkpt><trkpt lat="45.8570659" lon="12.334602"><ele>38.0</ele><time>2026-04-26T16:16:21.841Z</time></trkpt><trkpt lat="45.8568553" lon="12.3342602"><ele>38.0</ele><time>2026-04-26T16:16:22.857Z</time></trkpt><trkpt lat="45.8566447" lon="12.3339288"><ele>38.0</ele><time>2026-04-26T16:16:23.844Z</time></trkpt><trkpt lat="45.8564279" lon="12.3335929"><ele>38.5</ele><time>2026-04-26T16:16:24.858Z</time></trkpt><trkpt lat="45.8562096" lon="12.3332714"><ele>39.0</ele><time>2026-04-26T16:16:25.86Z</time></trkpt><trkpt lat="45.855984" lon="12.3329551"><ele>39.0</ele><time>2026-04-26T16:16:26.859Z</time></trkpt><trkpt lat="45.8557537" lon="12.3326447"><ele>39.0</ele><time>2026-04-26T16:16:27.853Z</time></trkpt><trkpt lat="45.8555187" lon="12.3323456"><ele>39.0</ele><time>2026-04-26T16:16:28.858Z</time></trkpt><trkpt lat="45.8552793" lon="12.3320501"><ele>39.0</ele><time>2026-04-26T16:16:29.875Z</time></trkpt><trkpt lat="45.8550431" lon="12.3317594"><ele>39.0</ele><time>2026-04-26T16:16:30.854Z</time></trkpt><trkpt lat="45.8547986" lon="12.3314699"><ele>39.0</ele><time>2026-04-26T16:16:31.864Z</time></trkpt><trkpt lat="45.854552" lon="12.3311894"><ele>39.5</ele><time>2026-04-26T16:16:32.85Z</time></trkpt><trkpt lat="45.8543006" lon="12.3309134"><ele>40.0</ele><time>2026-04-26T16:16:33.844Z</time></trkpt><trkpt lat="45.854045" lon="12.3306437"><ele>41.0</ele><time>2026-04-26T16:16:34.845Z</time></trkpt><trkpt lat="45.8537871" lon="12.3303732"><ele>42.0</ele><time>2026-04-26T16:16:35.862Z</time></trkpt><trkpt lat="45.8535313" lon="12.3301125"><ele>41.5</ele><time>2026-04-26T16:16:36.858Z</time></trkpt><trkpt lat="45.8532779" lon="12.3298474"><ele>41.0</ele><time>2026-04-26T16:16:37.862Z</time></trkpt><trkpt lat="45.853024" lon="12.3295825"><ele>40.0</ele><time>2026-04-26T16:16:38.871Z</time></trkpt><trkpt lat="45.8527709" lon="12.3293219"><ele>39.0</ele><time>2026-04-26T16:16:39.854Z</time></trkpt><trkpt lat="45.8525147" lon="12.3290606"><ele>39.0</ele><time>2026-04-26T16:16:40.845Z</time></trkpt><trkpt lat="45.8522544" lon="12.3287956"><ele>39.0</ele><time>2026-04-26T16:16:41.866Z</time></trkpt><trkpt lat="45.8519998" lon="12.3285295"><ele>38.0</ele><time>2026-04-26T16:16:42.861Z</time></trkpt><trkpt lat="45.8517445" lon="12.3282569"><ele>37.0</ele><time>2026-04-26T16:16:43.856Z</time></trkpt><trkpt lat="45.8514917" lon="12.327986"><ele>37.0</ele><time>2026-04-26T16:16:44.859Z</time></trkpt><trkpt lat="45.8512378" lon="12.3277175"><ele>37.0</ele><time>2026-04-26T16:16:45.857Z</time></trkpt><trkpt lat="45.8509832" lon="12.3274541"><ele>38.5</ele><time>2026-04-26T16:16:46.848Z</time></trkpt><trkpt lat="45.8507244" lon="12.3271901"><ele>40.0</ele><time>2026-04-26T16:16:47.856Z</time></trkpt><trkpt lat="45.8504683" lon="12.3269287"><ele>40.0</ele><time>2026-04-26T16:16:48.845Z</time></trkpt><trkpt lat="45.8502113" lon="12.3266648"><ele>40.0</ele><time>2026-04-26T16:16:49.85Z</time></trkpt><trkpt lat="45.8499546" lon="12.3264018"><ele>41.0</ele><time>2026-04-26T16:16:50.846Z</time></trkpt><trkpt lat="45.8496952" lon="12.3261359"><ele>42.0</ele><time>2026-04-26T16:16:51.864Z</time></trkpt><trkpt lat="45.8494417" lon="12.3258738"><ele>42.0</ele><time>2026-04-26T16:16:52.859Z</time></trkpt><trkpt lat="45.8491832" lon="12.3256104"><ele>42.0</ele><time>2026-04-26T16:16:53.878Z</time></trkpt><trkpt lat="45.848926" lon="12.3253474"><ele>42.0</ele><time>2026-04-26T16:16:54.87Z</time></trkpt><trkpt lat="45.8486715" lon="12.3250864"><ele>42.0</ele><time>2026-04-26T16:16:55.873Z</time></trkpt><trkpt lat="45.8484161" lon="12.3248244"><ele>41.0</ele><time>2026-04-26T16:16:56.863Z</time></trkpt><trkpt lat="45.8481574" lon="12.3245607"><ele>40.0</ele><time>2026-04-26T16:16:57.863Z</time></trkpt><trkpt lat="45.8478996" lon="12.3242987"><ele>40.0</ele><time>2026-04-26T16:16:58.858Z</time></trkpt><trkpt lat="45.8476433" lon="12.3240389"><ele>40.0</ele><time>2026-04-26T16:16:59.848Z</time></trkpt><trkpt lat="45.8473843" lon="12.323777"><ele>40.0</ele><time>2026-04-26T16:17:00.868Z</time></trkpt><trkpt lat="45.8471277" lon="12.3235171"><ele>40.0</ele><time>2026-04-26T16:17:01.863Z</time></trkpt><trkpt lat="45.8468685" lon="12.3232514"><ele>40.0</ele><time>2026-04-26T16:17:02.859Z</time></trkpt><trkpt lat="45.8466122" lon="12.3229845"><ele>40.0</ele><time>2026-04-26T16:17:03.868Z</time></trkpt><trkpt lat="45.846356" lon="12.3227164"><ele>40.0</ele><time>2026-04-26T16:17:04.867Z</time></trkpt><trkpt lat="45.8461006" lon="12.322455"><ele>40.0</ele><time>2026-04-26T16:17:05.856Z</time></trkpt><trkpt lat="45.8458431" lon="12.3221935"><ele>41.5</ele><time>2026-04-26T16:17:06.855Z</time></trkpt><trkpt lat="45.8455813" lon="12.3219295"><ele>43.0</ele><time>2026-04-26T16:17:07.863Z</time></trkpt><trkpt lat="45.845324" lon="12.3216713"><ele>43.5</ele><time>2026-04-26T16:17:08.867Z</time></trkpt><trkpt lat="45.8450637" lon="12.3214117"><ele>44.0</ele><time>2026-04-26T16:17:09.861Z</time></trkpt><trkpt lat="45.8448011" lon="12.3211587"><ele>44.5</ele><time>2026-04-26T16:17:10.861Z</time></trkpt><trkpt lat="45.8445345" lon="12.3209151"><ele>45.0</ele><time>2026-04-26T16:17:11.871Z</time></trkpt><trkpt lat="45.8442656" lon="12.3206822"><ele>44.5</ele><time>2026-04-26T16:17:12.862Z</time></trkpt><trkpt lat="45.8439897" lon="12.3204554"><ele>44.0</ele><time>2026-04-26T16:17:13.876Z</time></trkpt><trkpt lat="45.8437152" lon="12.3202366"><ele>44.0</ele><time>2026-04-26T16:17:14.855Z</time></trkpt><trkpt lat="45.8434377" lon="12.3200215"><ele>44.0</ele><time>2026-04-26T16:17:15.852Z</time></trkpt><trkpt lat="45.8431555" lon="12.3198089"><ele>44.0</ele><time>2026-04-26T16:17:16.857Z</time></trkpt><trkpt lat="45.842872" lon="12.3196034"><ele>44.0</ele><time>2026-04-26T16:17:17.861Z</time></trkpt><trkpt lat="45.8425874" lon="12.3194063"><ele>42.5</ele><time>2026-04-26T16:17:18.872Z</time></trkpt><trkpt lat="45.8423026" lon="12.3192198"><ele>41.0</ele><time>2026-04-26T16:17:19.871Z</time></trkpt><trkpt lat="45.8420146" lon="12.3190423"><ele>43.0</ele><time>2026-04-26T16:17:20.857Z</time></trkpt><trkpt lat="45.8417215" lon="12.3188734"><ele>45.0</ele><time>2026-04-26T16:17:21.854Z</time></trkpt><trkpt lat="45.8414256" lon="12.3187098"><ele>45.0</ele><time>2026-04-26T16:17:22.842Z</time></trkpt><trkpt lat="45.8411245" lon="12.3185493"><ele>45.0</ele><time>2026-04-26T16:17:23.864Z</time></trkpt><trkpt lat="45.8408247" lon="12.3184046"><ele>44.5</ele><time>2026-04-26T16:17:24.863Z</time></trkpt><trkpt lat="45.8405216" lon="12.3182686"><ele>44.0</ele><time>2026-04-26T16:17:25.868Z</time></trkpt><trkpt lat="45.8402222" lon="12.3181338"><ele>44.0</ele><time>2026-04-26T16:17:26.854Z</time></trkpt><trkpt lat="45.8399161" lon="12.3180034"><ele>44.0</ele><time>2026-04-26T16:17:27.874Z</time></trkpt><trkpt lat="45.8396146" lon="12.3178841"><ele>44.0</ele><time>2026-04-26T16:17:28.855Z</time></trkpt><trkpt lat="45.839305" lon="12.3177704"><ele>44.0</ele><time>2026-04-26T16:17:29.86Z</time></trkpt><trkpt lat="45.8389988" lon="12.3176662"><ele>44.5</ele><time>2026-04-26T16:17:30.851Z</time></trkpt><trkpt lat="45.8386894" lon="12.3175722"><ele>45.0</ele><time>2026-04-26T16:17:31.851Z</time></trkpt><trkpt lat="45.838379" lon="12.3174865"><ele>45.0</ele><time>2026-04-26T16:17:32.856Z</time></trkpt><trkpt lat="45.8380654" lon="12.3174053"><ele>45.0</ele><time>2026-04-26T16:17:33.878Z</time></trkpt><trkpt lat="45.8377569" lon="12.3173306"><ele>45.0</ele><time>2026-04-26T16:17:34.858Z</time></trkpt><trkpt lat="45.8374459" lon="12.3172664"><ele>45.0</ele><time>2026-04-26T16:17:35.857Z</time></trkpt><trkpt lat="45.837132" lon="12.3172114"><ele>44.5</ele><time>2026-04-26T16:17:36.844Z</time></trkpt><trkpt lat="45.8368139" lon="12.3171746"><ele>44.0</ele><time>2026-04-26T16:17:37.851Z</time></trkpt><trkpt lat="45.8364978" lon="12.3171276"><ele>44.0</ele><time>2026-04-26T16:17:38.862Z</time></trkpt><trkpt lat="45.8361827" lon="12.3170768"><ele>44.0</ele><time>2026-04-26T16:17:39.856Z</time></trkpt><trkpt lat="45.8358689" lon="12.3170232"><ele>44.5</ele><time>2026-04-26T16:17:40.859Z</time></trkpt><trkpt lat="45.8355588" lon="12.3169661"><ele>45.0</ele><time>2026-04-26T16:17:41.851Z</time></trkpt><trkpt lat="45.8352421" lon="12.316906"><ele>45.0</ele><time>2026-04-26T16:17:42.859Z</time></trkpt><trkpt lat="45.8349325" lon="12.3168503"><ele>45.0</ele><time>2026-04-26T16:17:43.856Z</time></trkpt><trkpt lat="45.8346183" lon="12.3167953"><ele>45.0</ele><time>2026-04-26T16:17:44.852Z</time></trkpt><trkpt lat="45.8343053" lon="12.3167312"><ele>45.0</ele><time>2026-04-26T16:17:45.857Z</time></trkpt><trkpt lat="45.8339937" lon="12.3166653"><ele>44.5</ele><time>2026-04-26T16:17:46.845Z</time></trkpt><trkpt lat="45.8336798" lon="12.3166076"><ele>44.0</ele><time>2026-04-26T16:17:47.851Z</time></trkpt><trkpt lat="45.8333635" lon="12.3165534"><ele>44.0</ele><time>2026-04-26T16:17:48.857Z</time></trkpt><trkpt lat="45.8330513" lon="12.3165011"><ele>44.0</ele><time>2026-04-26T16:17:49.851Z</time></trkpt><trkpt lat="45.832735" lon="12.3164491"><ele>43.5</ele><time>2026-04-26T16:17:50.866Z</time></trkpt><trkpt lat="45.8324214" lon="12.3164008"><ele>43.0</ele><time>2026-04-26T16:17:51.883Z</time></trkpt><trkpt lat="45.8321072" lon="12.316351"><ele>43.0</ele><time>2026-04-26T16:17:52.857Z</time></trkpt><trkpt lat="45.8317941" lon="12.3163001"><ele>43.0</ele><time>2026-04-26T16:17:53.871Z</time></trkpt><trkpt lat="45.831481" lon="12.3162512"><ele>43.0</ele><time>2026-04-26T16:17:54.854Z</time></trkpt><trkpt lat="45.8311625" lon="12.3162037"><ele>43.0</ele><time>2026-04-26T16:17:55.857Z</time></trkpt><trkpt lat="45.8308508" lon="12.3161554"><ele>43.5</ele><time>2026-04-26T16:17:56.848Z</time></trkpt><trkpt lat="45.830532" lon="12.3161032"><ele>44.0</ele><time>2026-04-26T16:17:57.861Z</time></trkpt><trkpt lat="45.830218" lon="12.3160515"><ele>44.5</ele><time>2026-04-26T16:17:58.854Z</time></trkpt><trkpt lat="45.8299006" lon="12.3160108"><ele>45.0</ele><time>2026-04-26T16:17:59.853Z</time></trkpt><trkpt lat="45.8295856" lon="12.3159612"><ele>46.0</ele><time>2026-04-26T16:18:00.845Z</time></trkpt><trkpt lat="45.8292718" lon="12.3159088"><ele>47.0</ele><time>2026-04-26T16:18:01.86Z</time></trkpt><trkpt lat="45.8289603" lon="12.3158572"><ele>47.0</ele><time>2026-04-26T16:18:02.85Z</time></trkpt><trkpt lat="45.8286453" lon="12.3158062"><ele>47.0</ele><time>2026-04-26T16:18:03.862Z</time></trkpt><trkpt lat="45.8283323" lon="12.3157549"><ele>47.0</ele><time>2026-04-26T16:18:04.87Z</time></trkpt><trkpt lat="45.8280183" lon="12.3157039"><ele>47.0</ele><time>2026-04-26T16:18:05.893Z</time></trkpt><trkpt lat="45.8277076" lon="12.3156529"><ele>46.5</ele><time>2026-04-26T16:18:06.874Z</time></trkpt><trkpt lat="45.8273936" lon="12.3156024"><ele>46.0</ele><time>2026-04-26T16:18:07.865Z</time></trkpt><trkpt lat="45.8270797" lon="12.3155524"><ele>45.0</ele><time>2026-04-26T16:18:08.873Z</time></trkpt><trkpt lat="45.8267659" lon="12.3155022"><ele>44.0</ele><time>2026-04-26T16:18:09.871Z</time></trkpt><trkpt lat="45.826452" lon="12.3154526"><ele>44.0</ele><time>2026-04-26T16:18:10.863Z</time></trkpt><trkpt lat="45.8261386" lon="12.3154003"><ele>44.0</ele><time>2026-04-26T16:18:11.875Z</time></trkpt><trkpt lat="45.8258224" lon="12.3153452"><ele>43.5</ele><time>2026-04-26T16:18:12.884Z</time></trkpt><trkpt lat="45.8255114" lon="12.3152923"><ele>43.0</ele><time>2026-04-26T16:18:13.885Z</time></trkpt><trkpt lat="45.8252013" lon="12.315241"><ele>45.0</ele><time>2026-04-26T16:18:14.863Z</time></trkpt><trkpt lat="45.8248847" lon="12.315189"><ele>47.0</ele><time>2026-04-26T16:18:15.884Z</time></trkpt><trkpt lat="45.8245737" lon="12.3151382"><ele>46.5</ele><time>2026-04-26T16:18:16.874Z</time></trkpt><trkpt lat="45.824257" lon="12.3150869"><ele>46.0</ele><time>2026-04-26T16:18:17.864Z</time></trkpt><trkpt lat="45.8239446" lon="12.3150361"><ele>46.0</ele><time>2026-04-26T16:18:18.863Z</time></trkpt><trkpt lat="45.823628" lon="12.3149843"><ele>46.0</ele><time>2026-04-26T16:18:19.87Z</time></trkpt><trkpt lat="45.8233135" lon="12.3149334"><ele>46.0</ele><time>2026-04-26T16:18:20.88Z</time></trkpt><trkpt lat="45.8230002" lon="12.3148825"><ele>46.0</ele><time>2026-04-26T16:18:21.88Z</time></trkpt><trkpt lat="45.8226876" lon="12.3148311"><ele>46.5</ele><time>2026-04-26T16:18:22.871Z</time></trkpt><trkpt lat="45.8223706" lon="12.3147777"><ele>47.0</ele><time>2026-04-26T16:18:23.886Z</time></trkpt><trkpt lat="45.8220618" lon="12.3147192"><ele>47.0</ele><time>2026-04-26T16:18:24.872Z</time></trkpt><trkpt lat="45.8217511" lon="12.3146547"><ele>47.0</ele><time>2026-04-26T16:18:25.871Z</time></trkpt><trkpt lat="45.8214403" lon="12.3145813"><ele>47.0</ele><time>2026-04-26T16:18:26.875Z</time></trkpt><trkpt lat="45.8211346" lon="12.3144987"><ele>47.0</ele><time>2026-04-26T16:18:27.873Z</time></trkpt><trkpt lat="45.820829" lon="12.3144019"><ele>46.5</ele><time>2026-04-26T16:18:28.864Z</time></trkpt><trkpt lat="45.8205174" lon="12.3142914"><ele>46.0</ele><time>2026-04-26T16:18:29.876Z</time></trkpt><trkpt lat="45.820216" lon="12.3141715"><ele>45.5</ele><time>2026-04-26T16:18:30.871Z</time></trkpt><trkpt lat="45.8199165" lon="12.314043"><ele>45.0</ele><time>2026-04-26T16:18:31.863Z</time></trkpt><trkpt lat="45.8196112" lon="12.3139016"><ele>46.0</ele><time>2026-04-26T16:18:32.881Z</time></trkpt><trkpt lat="45.8193135" lon="12.3137515"><ele>47.0</ele><time>2026-04-26T16:18:33.878Z</time></trkpt><trkpt lat="45.8190228" lon="12.3135901"><ele>47.0</ele><time>2026-04-26T16:18:34.864Z</time></trkpt><trkpt lat="45.818734" lon="12.3134115"><ele>47.0</ele><time>2026-04-26T16:18:35.866Z</time></trkpt><trkpt lat="45.8184432" lon="12.3132231"><ele>47.5</ele><time>2026-04-26T16:18:36.873Z</time></trkpt><trkpt lat="45.8181597" lon="12.3130271"><ele>48.0</ele><time>2026-04-26T16:18:37.872Z</time></trkpt><trkpt lat="45.8178765" lon="12.3128219"><ele>48.5</ele><time>2026-04-26T16:18:38.882Z</time></trkpt><trkpt lat="45.8176006" lon="12.3126108"><ele>49.0</ele><time>2026-04-26T16:18:39.859Z</time></trkpt><trkpt lat="45.8173235" lon="12.3123876"><ele>48.0</ele><time>2026-04-26T16:18:40.859Z</time></trkpt><trkpt lat="45.817049" lon="12.3121545"><ele>47.0</ele><time>2026-04-26T16:18:41.88Z</time></trkpt><trkpt lat="45.816782" lon="12.3119153"><ele>47.0</ele><time>2026-04-26T16:18:42.876Z</time></trkpt><trkpt lat="45.8165146" lon="12.3116689"><ele>47.0</ele><time>2026-04-26T16:18:43.861Z</time></trkpt><trkpt lat="45.8162479" lon="12.3114212"><ele>47.0</ele><time>2026-04-26T16:18:44.872Z</time></trkpt><trkpt lat="45.8159836" lon="12.3111742"><ele>47.0</ele><time>2026-04-26T16:18:45.875Z</time></trkpt><trkpt lat="45.8157205" lon="12.3109285"><ele>47.0</ele><time>2026-04-26T16:18:46.86Z</time></trkpt><trkpt lat="45.8154547" lon="12.3106802"><ele>47.0</ele><time>2026-04-26T16:18:47.874Z</time></trkpt><trkpt lat="45.8151883" lon="12.3104318"><ele>46.5</ele><time>2026-04-26T16:18:48.89Z</time></trkpt><trkpt lat="45.8149294" lon="12.3101882"><ele>46.0</ele><time>2026-04-26T16:18:49.861Z</time></trkpt><trkpt lat="45.8146639" lon="12.3099368"><ele>47.5</ele><time>2026-04-26T16:18:50.866Z</time></trkpt><trkpt lat="45.8143974" lon="12.3096865"><ele>49.0</ele><time>2026-04-26T16:18:51.871Z</time></trkpt><trkpt lat="45.814134" lon="12.3094385"><ele>49.0</ele><time>2026-04-26T16:18:52.87Z</time></trkpt><trkpt lat="45.8138694" lon="12.3091913"><ele>49.0</ele><time>2026-04-26T16:18:53.87Z</time></trkpt><trkpt lat="45.8136065" lon="12.3089423"><ele>47.5</ele><time>2026-04-26T16:18:54.872Z</time></trkpt><trkpt lat="45.8133431" lon="12.308691"><ele>46.0</ele><time>2026-04-26T16:18:55.875Z</time></trkpt><trkpt lat="45.8130823" lon="12.3084425"><ele>46.0</ele><time>2026-04-26T16:18:56.845Z</time></trkpt><trkpt lat="45.8128144" lon="12.3081904"><ele>46.0</ele><time>2026-04-26T16:18:57.865Z</time></trkpt><trkpt lat="45.8125503" lon="12.3079451"><ele>47.0</ele><time>2026-04-26T16:18:58.883Z</time></trkpt><trkpt lat="45.8122859" lon="12.3077017"><ele>48.0</ele><time>2026-04-26T16:18:59.872Z</time></trkpt><trkpt lat="45.812019" lon="12.3074635"><ele>47.5</ele><time>2026-04-26T16:19:00.865Z</time></trkpt><trkpt lat="45.8117462" lon="12.3072278"><ele>47.0</ele><time>2026-04-26T16:19:01.871Z</time></trkpt><trkpt lat="45.8114738" lon="12.307"><ele>47.0</ele><time>2026-04-26T16:19:02.871Z</time></trkpt><trkpt lat="45.8112001" lon="12.3067802"><ele>47.0</ele><time>2026-04-26T16:19:03.873Z</time></trkpt><trkpt lat="45.8109245" lon="12.3065595"><ele>48.5</ele><time>2026-04-26T16:19:04.874Z</time></trkpt><trkpt lat="45.8106498" lon="12.3063411"><ele>50.0</ele><time>2026-04-26T16:19:05.864Z</time></trkpt><trkpt lat="45.8103711" lon="12.3061197"><ele>49.5</ele><time>2026-04-26T16:19:06.868Z</time></trkpt><trkpt lat="45.8100946" lon="12.3058996"><ele>49.0</ele><time>2026-04-26T16:19:07.874Z</time></trkpt><trkpt lat="45.8098188" lon="12.3056845"><ele>48.0</ele><time>2026-04-26T16:19:08.867Z</time></trkpt><trkpt lat="45.8095393" lon="12.3054718"><ele>47.0</ele><time>2026-04-26T16:19:09.864Z</time></trkpt><trkpt lat="45.8092599" lon="12.3052619"><ele>47.0</ele><time>2026-04-26T16:19:10.866Z</time></trkpt><trkpt lat="45.8089783" lon="12.3050549"><ele>47.0</ele><time>2026-04-26T16:19:11.857Z</time></trkpt><trkpt lat="45.8086961" lon="12.3048518"><ele>48.0</ele><time>2026-04-26T16:19:12.86Z</time></trkpt><trkpt lat="45.8084098" lon="12.3046519"><ele>49.0</ele><time>2026-04-26T16:19:13.883Z</time></trkpt><trkpt lat="45.8081293" lon="12.3044609"><ele>49.0</ele><time>2026-04-26T16:19:14.868Z</time></trkpt><trkpt lat="45.8078403" lon="12.3042682"><ele>49.0</ele><time>2026-04-26T16:19:15.874Z</time></trkpt><trkpt lat="45.8075576" lon="12.3040814"><ele>48.0</ele><time>2026-04-26T16:19:16.87Z</time></trkpt><trkpt lat="45.8072639" lon="12.3038962"><ele>47.0</ele><time>2026-04-26T16:19:17.887Z</time></trkpt><trkpt lat="45.8069768" lon="12.3037177"><ele>47.0</ele><time>2026-04-26T16:19:18.866Z</time></trkpt><trkpt lat="45.8066847" lon="12.3035388"><ele>47.0</ele><time>2026-04-26T16:19:19.88Z</time></trkpt><trkpt lat="45.8061106" lon="12.3031739"><ele>47.5</ele><time>2026-04-26T16:19:21.863Z</time></trkpt><trkpt lat="45.8058245" lon="12.3029834"><ele>48.0</ele><time>2026-04-26T16:19:22.864Z</time></trkpt><trkpt lat="45.8055365" lon="12.3027907"><ele>48.0</ele><time>2026-04-26T16:19:23.868Z</time></trkpt><trkpt lat="45.805252" lon="12.3026016"><ele>48.0</ele><time>2026-04-26T16:19:24.862Z</time></trkpt><trkpt lat="45.804964" lon="12.302412"><ele>49.5</ele><time>2026-04-26T16:19:25.87Z</time></trkpt><trkpt lat="45.804677" lon="12.3022277"><ele>51.0</ele><time>2026-04-26T16:19:26.858Z</time></trkpt><trkpt lat="45.8043881" lon="12.3020467"><ele>50.0</ele><time>2026-04-26T16:19:27.86Z</time></trkpt><trkpt lat="45.804097" lon="12.3018673"><ele>49.0</ele><time>2026-04-26T16:19:28.877Z</time></trkpt><trkpt lat="45.803809" lon="12.3016875"><ele>49.0</ele><time>2026-04-26T16:19:29.871Z</time></trkpt><trkpt lat="45.8035205" lon="12.3015063"><ele>49.0</ele><time>2026-04-26T16:19:30.859Z</time></trkpt><trkpt lat="45.8032296" lon="12.3013251"><ele>49.0</ele><time>2026-04-26T16:19:31.883Z</time></trkpt><trkpt lat="45.8029412" lon="12.3011452"><ele>49.0</ele><time>2026-04-26T16:19:32.877Z</time></trkpt><trkpt lat="45.8026528" lon="12.3009645"><ele>49.0</ele><time>2026-04-26T16:19:33.877Z</time></trkpt><trkpt lat="45.8023648" lon="12.3007841"><ele>49.0</ele><time>2026-04-26T16:19:34.861Z</time></trkpt><trkpt lat="45.8020737" lon="12.3006022"><ele>49.0</ele><time>2026-04-26T16:19:35.876Z</time></trkpt><trkpt lat="45.8017856" lon="12.3004214"><ele>49.0</ele><time>2026-04-26T16:19:36.862Z</time></trkpt><trkpt lat="45.801495" lon="12.3002366"><ele>49.0</ele><time>2026-04-26T16:19:37.866Z</time></trkpt><trkpt lat="45.8012083" lon="12.3000552"><ele>49.0</ele><time>2026-04-26T16:19:38.862Z</time></trkpt><trkpt lat="45.8009191" lon="12.299871"><ele>48.5</ele><time>2026-04-26T16:19:39.868Z</time></trkpt><trkpt lat="45.8006307" lon="12.2996875"><ele>48.0</ele><time>2026-04-26T16:19:40.863Z</time></trkpt><trkpt lat="45.8003425" lon="12.2995036"><ele>49.0</ele><time>2026-04-26T16:19:41.858Z</time></trkpt><trkpt lat="45.8000529" lon="12.2993213"><ele>50.0</ele><time>2026-04-26T16:19:42.865Z</time></trkpt><trkpt lat="45.7997623" lon="12.2991385"><ele>50.0</ele><time>2026-04-26T16:19:43.872Z</time></trkpt><trkpt lat="45.7994738" lon="12.2989577"><ele>50.0</ele><time>2026-04-26T16:19:44.868Z</time></trkpt><trkpt lat="45.7991834" lon="12.29878"><ele>50.5</ele><time>2026-04-26T16:19:45.889Z</time></trkpt><trkpt lat="45.7988949" lon="12.2986036"><ele>51.0</ele><time>2026-04-26T16:19:46.877Z</time></trkpt><trkpt lat="45.798605" lon="12.2984279"><ele>52.0</ele><time>2026-04-26T16:19:47.879Z</time></trkpt><trkpt lat="45.7983156" lon="12.2982524"><ele>53.0</ele><time>2026-04-26T16:19:48.87Z</time></trkpt><trkpt lat="45.7980242" lon="12.2980748"><ele>53.0</ele><time>2026-04-26T16:19:49.87Z</time></trkpt><trkpt lat="45.7977337" lon="12.297895"><ele>53.0</ele><time>2026-04-26T16:19:50.865Z</time></trkpt><trkpt lat="45.797446" lon="12.2977134"><ele>51.5</ele><time>2026-04-26T16:19:51.864Z</time></trkpt><trkpt lat="45.7971575" lon="12.2975293"><ele>50.0</ele><time>2026-04-26T16:19:52.859Z</time></trkpt><trkpt lat="45.7968701" lon="12.2973442"><ele>50.0</ele><time>2026-04-26T16:19:53.868Z</time></trkpt><trkpt lat="45.7965819" lon="12.2971586"><ele>50.0</ele><time>2026-04-26T16:19:54.871Z</time></trkpt><trkpt lat="45.7962931" lon="12.2969766"><ele>50.0</ele><time>2026-04-26T16:19:55.882Z</time></trkpt><trkpt lat="45.7960084" lon="12.2967933"><ele>50.0</ele><time>2026-04-26T16:19:56.88Z</time></trkpt><trkpt lat="45.7957208" lon="12.2966077"><ele>49.5</ele><time>2026-04-26T16:19:57.875Z</time></trkpt><trkpt lat="45.7954325" lon="12.2964234"><ele>49.0</ele><time>2026-04-26T16:19:58.864Z</time></trkpt><trkpt lat="45.7951436" lon="12.2962402"><ele>50.0</ele><time>2026-04-26T16:19:59.871Z</time></trkpt><trkpt lat="45.7948533" lon="12.2960576"><ele>51.0</ele><time>2026-04-26T16:20:00.885Z</time></trkpt><trkpt lat="45.7945662" lon="12.2958756"><ele>51.0</ele><time>2026-04-26T16:20:01.875Z</time></trkpt><trkpt lat="45.7942784" lon="12.2956912"><ele>51.0</ele><time>2026-04-26T16:20:02.864Z</time></trkpt><trkpt lat="45.7939893" lon="12.2955049"><ele>50.5</ele><time>2026-04-26T16:20:03.866Z</time></trkpt><trkpt lat="45.7936997" lon="12.2953187"><ele>50.0</ele><time>2026-04-26T16:20:04.862Z</time></trkpt><trkpt lat="45.7934103" lon="12.2951349"><ele>48.5</ele><time>2026-04-26T16:20:05.879Z</time></trkpt><trkpt lat="45.793126" lon="12.2949539"><ele>47.0</ele><time>2026-04-26T16:20:06.859Z</time></trkpt><trkpt lat="45.792835" lon="12.2947683"><ele>45.5</ele><time>2026-04-26T16:20:07.867Z</time></trkpt><trkpt lat="45.792545" lon="12.2945853"><ele>44.0</ele><time>2026-04-26T16:20:08.875Z</time></trkpt><trkpt lat="45.7922599" lon="12.2944037"><ele>44.0</ele><time>2026-04-26T16:20:09.856Z</time></trkpt><trkpt lat="45.7919669" lon="12.2942175"><ele>44.0</ele><time>2026-04-26T16:20:10.859Z</time></trkpt><trkpt lat="45.7916775" lon="12.2940311"><ele>44.5</ele><time>2026-04-26T16:20:11.871Z</time></trkpt><trkpt lat="45.791391" lon="12.2938473"><ele>45.0</ele><time>2026-04-26T16:20:12.862Z</time></trkpt><trkpt lat="45.7911017" lon="12.2936654"><ele>45.5</ele><time>2026-04-26T16:20:13.864Z</time></trkpt><trkpt lat="45.7908108" lon="12.2934837"><ele>46.0</ele><time>2026-04-26T16:20:14.877Z</time></trkpt><trkpt lat="45.7905199" lon="12.293301"><ele>46.0</ele><time>2026-04-26T16:20:15.879Z</time></trkpt><trkpt lat="45.7902325" lon="12.2931184"><ele>46.0</ele><time>2026-04-26T16:20:16.866Z</time></trkpt><trkpt lat="45.7899433" lon="12.292933"><ele>45.5</ele><time>2026-04-26T16:20:17.877Z</time></trkpt><trkpt lat="45.7896544" lon="12.2927477"><ele>45.0</ele><time>2026-04-26T16:20:18.868Z</time></trkpt><trkpt lat="45.7893672" lon="12.292564"><ele>46.5</ele><time>2026-04-26T16:20:19.862Z</time></trkpt><trkpt lat="45.7890783" lon="12.2923783"><ele>48.0</ele><time>2026-04-26T16:20:20.855Z</time></trkpt><trkpt lat="45.7887891" lon="12.2921927"><ele>47.5</ele><time>2026-04-26T16:20:21.859Z</time></trkpt><trkpt lat="45.7885009" lon="12.292007"><ele>47.0</ele><time>2026-04-26T16:20:22.863Z</time></trkpt><trkpt lat="45.7882114" lon="12.2918233"><ele>47.0</ele><time>2026-04-26T16:20:23.86Z</time></trkpt><trkpt lat="45.7879217" lon="12.291639"><ele>47.0</ele><time>2026-04-26T16:20:24.874Z</time></trkpt><trkpt lat="45.7876307" lon="12.2914547"><ele>48.5</ele><time>2026-04-26T16:20:25.895Z</time></trkpt><trkpt lat="45.7873455" lon="12.2912774"><ele>50.0</ele><time>2026-04-26T16:20:26.866Z</time></trkpt><trkpt lat="45.787043" lon="12.2910907"><ele>51.0</ele><time>2026-04-26T16:20:27.865Z</time></trkpt><trkpt lat="45.7867286" lon="12.2908922"><ele>52.0</ele><time>2026-04-26T16:20:28.864Z</time></trkpt><trkpt lat="45.7864013" lon="12.2906845"><ele>50.5</ele><time>2026-04-26T16:20:29.861Z</time></trkpt><trkpt lat="45.7860575" lon="12.2904701"><ele>49.0</ele><time>2026-04-26T16:20:30.886Z</time></trkpt><trkpt lat="45.7857067" lon="12.2902595"><ele>49.0</ele><time>2026-04-26T16:20:31.859Z</time></trkpt><trkpt lat="45.7853356" lon="12.2900299"><ele>49.0</ele><time>2026-04-26T16:20:32.872Z</time></trkpt><trkpt lat="45.7849579" lon="12.289794"><ele>49.5</ele><time>2026-04-26T16:20:33.862Z</time></trkpt><trkpt lat="45.7845787" lon="12.2895414"><ele>50.0</ele><time>2026-04-26T16:20:34.874Z</time></trkpt><trkpt lat="45.7842002" lon="12.2893056"><ele>50.0</ele><time>2026-04-26T16:20:35.88Z</time></trkpt><trkpt lat="45.7838276" lon="12.2890846"><ele>50.0</ele><time>2026-04-26T16:20:36.865Z</time></trkpt><trkpt lat="45.7834647" lon="12.2888846"><ele>49.5</ele><time>2026-04-26T16:20:37.862Z</time></trkpt><trkpt lat="45.7831125" lon="12.2887088"><ele>49.0</ele><time>2026-04-26T16:20:38.877Z</time></trkpt><trkpt lat="45.7827671" lon="12.2885552"><ele>48.5</ele><time>2026-04-26T16:20:39.879Z</time></trkpt><trkpt lat="45.7824247" lon="12.2884174"><ele>48.0</ele><time>2026-04-26T16:20:40.86Z</time></trkpt><trkpt lat="45.7820853" lon="12.288274"><ele>48.0</ele><time>2026-04-26T16:20:41.867Z</time></trkpt><trkpt lat="45.7817677" lon="12.288167"><ele>48.0</ele><time>2026-04-26T16:20:42.875Z</time></trkpt><trkpt lat="45.7814509" lon="12.2880695"><ele>47.0</ele><time>2026-04-26T16:20:43.859Z</time></trkpt><trkpt lat="45.7811356" lon="12.2879808"><ele>46.0</ele><time>2026-04-26T16:20:44.88Z</time></trkpt><trkpt lat="45.7808283" lon="12.2879039"><ele>45.5</ele><time>2026-04-26T16:20:45.869Z</time></trkpt><trkpt lat="45.7805186" lon="12.2878331"><ele>45.0</ele><time>2026-04-26T16:20:46.866Z</time></trkpt><trkpt lat="45.7802083" lon="12.2877722"><ele>45.5</ele><time>2026-04-26T16:20:47.863Z</time></trkpt><trkpt lat="45.7798999" lon="12.2877138"><ele>46.0</ele><time>2026-04-26T16:20:48.848Z</time></trkpt><trkpt lat="45.7795829" lon="12.2876531"><ele>45.0</ele><time>2026-04-26T16:20:49.857Z</time></trkpt><trkpt lat="45.7792703" lon="12.2875938"><ele>44.0</ele><time>2026-04-26T16:20:50.855Z</time></trkpt><trkpt lat="45.778955" lon="12.2875306"><ele>44.0</ele><time>2026-04-26T16:20:51.868Z</time></trkpt><trkpt lat="45.7786433" lon="12.2874689"><ele>44.0</ele><time>2026-04-26T16:20:52.856Z</time></trkpt><trkpt lat="45.7783302" lon="12.2874013"><ele>44.0</ele><time>2026-04-26T16:20:53.877Z</time></trkpt><trkpt lat="45.7780225" lon="12.2873388"><ele>44.0</ele><time>2026-04-26T16:20:54.839Z</time></trkpt><trkpt lat="45.7777048" lon="12.2872775"><ele>43.5</ele><time>2026-04-26T16:20:55.846Z</time></trkpt><trkpt lat="45.7773908" lon="12.287216"><ele>43.0</ele><time>2026-04-26T16:20:56.849Z</time></trkpt><trkpt lat="45.7770776" lon="12.2871551"><ele>45.5</ele><time>2026-04-26T16:20:57.853Z</time></trkpt><trkpt lat="45.7767651" lon="12.2870918"><ele>48.0</ele><time>2026-04-26T16:20:58.845Z</time></trkpt><trkpt lat="45.7764515" lon="12.2870257"><ele>48.0</ele><time>2026-04-26T16:20:59.862Z</time></trkpt><trkpt lat="45.7761409" lon="12.2869637"><ele>48.0</ele><time>2026-04-26T16:21:00.849Z</time></trkpt><trkpt lat="45.7758223" lon="12.2868946"><ele>47.5</ele><time>2026-04-26T16:21:01.853Z</time></trkpt><trkpt lat="45.7755118" lon="12.2868156"><ele>47.0</ele><time>2026-04-26T16:21:02.857Z</time></trkpt><trkpt lat="45.7752003" lon="12.2867301"><ele>45.5</ele><time>2026-04-26T16:21:03.866Z</time></trkpt><trkpt lat="45.7748913" lon="12.2866383"><ele>44.0</ele><time>2026-04-26T16:21:04.849Z</time></trkpt><trkpt lat="45.7745833" lon="12.2865365"><ele>44.5</ele><time>2026-04-26T16:21:05.858Z</time></trkpt><trkpt lat="45.7742754" lon="12.2864266"><ele>45.0</ele><time>2026-04-26T16:21:06.858Z</time></trkpt><trkpt lat="45.7739687" lon="12.2863113"><ele>45.0</ele><time>2026-04-26T16:21:07.856Z</time></trkpt><trkpt lat="45.7736703" lon="12.2861869"><ele>45.0</ele><time>2026-04-26T16:21:08.86Z</time></trkpt><trkpt lat="45.7733704" lon="12.2860512"><ele>45.5</ele><time>2026-04-26T16:21:09.864Z</time></trkpt><trkpt lat="45.7730718" lon="12.2859061"><ele>46.0</ele><time>2026-04-26T16:21:10.855Z</time></trkpt><trkpt lat="45.7727729" lon="12.2857538"><ele>46.0</ele><time>2026-04-26T16:21:11.864Z</time></trkpt><trkpt lat="45.7724765" lon="12.2855992"><ele>46.0</ele><time>2026-04-26T16:21:12.861Z</time></trkpt><trkpt lat="45.7721819" lon="12.2854351"><ele>45.5</ele><time>2026-04-26T16:21:13.873Z</time></trkpt><trkpt lat="45.7718902" lon="12.285273"><ele>45.0</ele><time>2026-04-26T16:21:14.854Z</time></trkpt><trkpt lat="45.7715947" lon="12.2851094"><ele>45.0</ele><time>2026-04-26T16:21:15.858Z</time></trkpt><trkpt lat="45.771301" lon="12.2849459"><ele>45.0</ele><time>2026-04-26T16:21:16.851Z</time></trkpt><trkpt lat="45.7710056" lon="12.2847822"><ele>44.5</ele><time>2026-04-26T16:21:17.858Z</time></trkpt><trkpt lat="45.770709" lon="12.2846187"><ele>44.0</ele><time>2026-04-26T16:21:18.852Z</time></trkpt><trkpt lat="45.7704157" lon="12.2844558"><ele>45.0</ele><time>2026-04-26T16:21:19.863Z</time></trkpt><trkpt lat="45.7701232" lon="12.2842938"><ele>46.0</ele><time>2026-04-26T16:21:20.851Z</time></trkpt><trkpt lat="45.7698252" lon="12.2841332"><ele>46.0</ele><time>2026-04-26T16:21:21.866Z</time></trkpt><trkpt lat="45.7695298" lon="12.2839773"><ele>46.0</ele><time>2026-04-26T16:21:22.852Z</time></trkpt><trkpt lat="45.7692289" lon="12.2838243"><ele>45.0</ele><time>2026-04-26T16:21:23.863Z</time></trkpt><trkpt lat="45.7689314" lon="12.2836745"><ele>44.0</ele><time>2026-04-26T16:21:24.858Z</time></trkpt><trkpt lat="45.7686345" lon="12.2835273"><ele>41.5</ele><time>2026-04-26T16:21:25.863Z</time></trkpt><trkpt lat="45.7683373" lon="12.2833812"><ele>39.0</ele><time>2026-04-26T16:21:26.863Z</time></trkpt><trkpt lat="45.7680398" lon="12.2832379"><ele>40.5</ele><time>2026-04-26T16:21:27.852Z</time></trkpt><trkpt lat="45.7677377" lon="12.283094"><ele>42.0</ele><time>2026-04-26T16:21:28.866Z</time></trkpt><trkpt lat="45.7674377" lon="12.2829534"><ele>42.0</ele><time>2026-04-26T16:21:29.868Z</time></trkpt><trkpt lat="45.767137" lon="12.2828158"><ele>42.0</ele><time>2026-04-26T16:21:30.856Z</time></trkpt><trkpt lat="45.7668387" lon="12.2826654"><ele>41.5</ele><time>2026-04-26T16:21:31.854Z</time></trkpt><trkpt lat="45.7665361" lon="12.2825312"><ele>41.0</ele><time>2026-04-26T16:21:32.872Z</time></trkpt><trkpt lat="45.7662366" lon="12.2824029"><ele>41.0</ele><time>2026-04-26T16:21:33.855Z</time></trkpt><trkpt lat="45.7659311" lon="12.2822733"><ele>41.0</ele><time>2026-04-26T16:21:34.855Z</time></trkpt><trkpt lat="45.7656292" lon="12.2821444"><ele>41.5</ele><time>2026-04-26T16:21:35.856Z</time></trkpt><trkpt lat="45.7653263" lon="12.2820161"><ele>42.0</ele><time>2026-04-26T16:21:36.856Z</time></trkpt><trkpt lat="45.7650244" lon="12.2818857"><ele>42.0</ele><time>2026-04-26T16:21:37.863Z</time></trkpt><trkpt lat="45.7647242" lon="12.2817558"><ele>42.0</ele><time>2026-04-26T16:21:38.857Z</time></trkpt><trkpt lat="45.7644202" lon="12.2816255"><ele>42.0</ele><time>2026-04-26T16:21:39.856Z</time></trkpt><trkpt lat="45.7641192" lon="12.2814935"><ele>42.0</ele><time>2026-04-26T16:21:40.859Z</time></trkpt><trkpt lat="45.7638191" lon="12.2813602"><ele>42.0</ele><time>2026-04-26T16:21:41.869Z</time></trkpt><trkpt lat="45.7635132" lon="12.281225"><ele>42.0</ele><time>2026-04-26T16:21:42.867Z</time></trkpt><trkpt lat="45.7632138" lon="12.2810939"><ele>42.0</ele><time>2026-04-26T16:21:43.861Z</time></trkpt><trkpt lat="45.7629086" lon="12.2809607"><ele>42.0</ele><time>2026-04-26T16:21:44.88Z</time></trkpt><trkpt lat="45.7626069" lon="12.2808306"><ele>42.0</ele><time>2026-04-26T16:21:45.894Z</time></trkpt><trkpt lat="45.7623091" lon="12.2807032"><ele>42.0</ele><time>2026-04-26T16:21:46.861Z</time></trkpt><trkpt lat="45.7620048" lon="12.2805703"><ele>41.0</ele><time>2026-04-26T16:21:47.861Z</time></trkpt><trkpt lat="45.7617012" lon="12.2804364"><ele>40.0</ele><time>2026-04-26T16:21:48.872Z</time></trkpt><trkpt lat="45.7613984" lon="12.2803051"><ele>40.0</ele><time>2026-04-26T16:21:49.867Z</time></trkpt><trkpt lat="45.7610936" lon="12.2801695"><ele>40.0</ele><time>2026-04-26T16:21:50.882Z</time></trkpt><trkpt lat="45.7607961" lon="12.2800351"><ele>41.5</ele><time>2026-04-26T16:21:51.86Z</time></trkpt><trkpt lat="45.7604932" lon="12.2798983"><ele>43.0</ele><time>2026-04-26T16:21:52.868Z</time></trkpt><trkpt lat="45.760191" lon="12.2797668"><ele>43.0</ele><time>2026-04-26T16:21:53.87Z</time></trkpt><trkpt lat="45.7598896" lon="12.2796382"><ele>43.0</ele><time>2026-04-26T16:21:54.861Z</time></trkpt><trkpt lat="45.7595859" lon="12.2795081"><ele>43.0</ele><time>2026-04-26T16:21:55.864Z</time></trkpt><trkpt lat="45.7592818" lon="12.2793812"><ele>43.0</ele><time>2026-04-26T16:21:56.858Z</time></trkpt><trkpt lat="45.7589779" lon="12.2792527"><ele>43.0</ele><time>2026-04-26T16:21:57.87Z</time></trkpt><trkpt lat="45.7586775" lon="12.2791269"><ele>43.0</ele><time>2026-04-26T16:21:58.868Z</time></trkpt><trkpt lat="45.7583717" lon="12.2790037"><ele>43.5</ele><time>2026-04-26T16:21:59.864Z</time></trkpt><trkpt lat="45.758069" lon="12.2788857"><ele>44.0</ele><time>2026-04-26T16:22:00.859Z</time></trkpt><trkpt lat="45.7577622" lon="12.2787822"><ele>43.5</ele><time>2026-04-26T16:22:01.852Z</time></trkpt><trkpt lat="45.7574504" lon="12.2786927"><ele>43.0</ele><time>2026-04-26T16:22:02.858Z</time></trkpt><trkpt lat="45.7571423" lon="12.2786117"><ele>42.5</ele><time>2026-04-26T16:22:03.854Z</time></trkpt><trkpt lat="45.7568286" lon="12.2785377"><ele>42.0</ele><time>2026-04-26T16:22:04.868Z</time></trkpt><trkpt lat="45.7565181" lon="12.2784762"><ele>42.0</ele><time>2026-04-26T16:22:05.871Z</time></trkpt><trkpt lat="45.7562084" lon="12.278425"><ele>42.0</ele><time>2026-04-26T16:22:06.854Z</time></trkpt><trkpt lat="45.7558898" lon="12.2783809"><ele>41.5</ele><time>2026-04-26T16:22:07.874Z</time></trkpt><trkpt lat="45.7555778" lon="12.2783478"><ele>41.0</ele><time>2026-04-26T16:22:08.878Z</time></trkpt><trkpt lat="45.7552678" lon="12.2783303"><ele>40.0</ele><time>2026-04-26T16:22:09.859Z</time></trkpt><trkpt lat="45.7549512" lon="12.2783222"><ele>39.0</ele><time>2026-04-26T16:22:10.855Z</time></trkpt><trkpt lat="45.7546368" lon="12.278328"><ele>39.0</ele><time>2026-04-26T16:22:11.861Z</time></trkpt><trkpt lat="45.754319" lon="12.278342"><ele>39.0</ele><time>2026-04-26T16:22:12.869Z</time></trkpt><trkpt lat="45.7540054" lon="12.2783641"><ele>39.0</ele><time>2026-04-26T16:22:13.853Z</time></trkpt><trkpt lat="45.7536893" lon="12.2783976"><ele>39.0</ele><time>2026-04-26T16:22:14.869Z</time></trkpt><trkpt lat="45.7533759" lon="12.2784375"><ele>39.0</ele><time>2026-04-26T16:22:15.853Z</time></trkpt><trkpt lat="45.753063" lon="12.278488"><ele>39.0</ele><time>2026-04-26T16:22:16.853Z</time></trkpt><trkpt lat="45.7527512" lon="12.2785477"><ele>38.5</ele><time>2026-04-26T16:22:17.862Z</time></trkpt><trkpt lat="45.7524367" lon="12.2786189"><ele>38.0</ele><time>2026-04-26T16:22:18.856Z</time></trkpt><trkpt lat="45.752126" lon="12.2787008"><ele>37.0</ele><time>2026-04-26T16:22:19.865Z</time></trkpt><trkpt lat="45.7518229" lon="12.2787906"><ele>36.0</ele><time>2026-04-26T16:22:20.842Z</time></trkpt><trkpt lat="45.7515081" lon="12.2788895"><ele>36.5</ele><time>2026-04-26T16:22:21.856Z</time></trkpt><trkpt lat="45.7512002" lon="12.2789862"><ele>37.0</ele><time>2026-04-26T16:22:22.855Z</time></trkpt><trkpt lat="45.7508885" lon="12.2790819"><ele>37.5</ele><time>2026-04-26T16:22:23.863Z</time></trkpt><trkpt lat="45.7505838" lon="12.2791775"><ele>38.0</ele><time>2026-04-26T16:22:24.852Z</time></trkpt><trkpt lat="45.7502742" lon="12.2792752"><ele>38.0</ele><time>2026-04-26T16:22:25.856Z</time></trkpt><trkpt lat="45.7499663" lon="12.2793715"><ele>38.0</ele><time>2026-04-26T16:22:26.859Z</time></trkpt><trkpt lat="45.7496568" lon="12.279469"><ele>38.0</ele><time>2026-04-26T16:22:27.857Z</time></trkpt><trkpt lat="45.7493505" lon="12.2795659"><ele>38.0</ele><time>2026-04-26T16:22:28.851Z</time></trkpt><trkpt lat="45.7490398" lon="12.2796652"><ele>38.0</ele><time>2026-04-26T16:22:29.86Z</time></trkpt><trkpt lat="45.7487343" lon="12.279761"><ele>38.0</ele><time>2026-04-26T16:22:30.844Z</time></trkpt><trkpt lat="45.7484231" lon="12.2798591"><ele>37.0</ele><time>2026-04-26T16:22:31.851Z</time></trkpt><trkpt lat="45.7481149" lon="12.2799564"><ele>36.0</ele><time>2026-04-26T16:22:32.85Z</time></trkpt><trkpt lat="45.7478057" lon="12.2800551"><ele>36.5</ele><time>2026-04-26T16:22:33.866Z</time></trkpt><trkpt lat="45.7474999" lon="12.2801544"><ele>37.0</ele><time>2026-04-26T16:22:34.852Z</time></trkpt><trkpt lat="45.7471894" lon="12.2802552"><ele>37.0</ele><time>2026-04-26T16:22:35.854Z</time></trkpt><trkpt lat="45.7468842" lon="12.2803519"><ele>37.0</ele><time>2026-04-26T16:22:36.849Z</time></trkpt><trkpt lat="45.7465718" lon="12.2804511"><ele>36.5</ele><time>2026-04-26T16:22:37.854Z</time></trkpt><trkpt lat="45.7462668" lon="12.2805462"><ele>36.0</ele><time>2026-04-26T16:22:38.84Z</time></trkpt><trkpt lat="45.7459566" lon="12.2806418"><ele>36.0</ele><time>2026-04-26T16:22:39.853Z</time></trkpt><trkpt lat="45.7456473" lon="12.2807373"><ele>36.0</ele><time>2026-04-26T16:22:40.847Z</time></trkpt><trkpt lat="45.745335" lon="12.2808352"><ele>35.5</ele><time>2026-04-26T16:22:41.863Z</time></trkpt><trkpt lat="45.7450323" lon="12.2809327"><ele>35.0</ele><time>2026-04-26T16:22:42.849Z</time></trkpt><trkpt lat="45.7447209" lon="12.2810316"><ele>35.0</ele><time>2026-04-26T16:22:43.867Z</time></trkpt><trkpt lat="45.7444125" lon="12.2811281"><ele>35.0</ele><time>2026-04-26T16:22:44.878Z</time></trkpt><trkpt lat="45.744107" lon="12.2812242"><ele>35.0</ele><time>2026-04-26T16:22:45.865Z</time></trkpt><trkpt lat="45.7438" lon="12.2813213"><ele>35.0</ele><time>2026-04-26T16:22:46.854Z</time></trkpt><trkpt lat="45.7434904" lon="12.2814162"><ele>35.0</ele><time>2026-04-26T16:22:47.862Z</time></trkpt><trkpt lat="45.7431807" lon="12.281506"><ele>35.0</ele><time>2026-04-26T16:22:48.857Z</time></trkpt><trkpt lat="45.742871" lon="12.2815948"><ele>33.0</ele><time>2026-04-26T16:22:49.854Z</time></trkpt><trkpt lat="45.7425602" lon="12.2816777"><ele>31.0</ele><time>2026-04-26T16:22:50.86Z</time></trkpt><trkpt lat="45.7422487" lon="12.2817582"><ele>31.0</ele><time>2026-04-26T16:22:51.86Z</time></trkpt><trkpt lat="45.7419372" lon="12.2818372"><ele>31.0</ele><time>2026-04-26T16:22:52.859Z</time></trkpt><trkpt lat="45.7416255" lon="12.2819099"><ele>32.0</ele><time>2026-04-26T16:22:53.861Z</time></trkpt><trkpt lat="45.741315" lon="12.2819763"><ele>33.0</ele><time>2026-04-26T16:22:54.851Z</time></trkpt><trkpt lat="45.7410009" lon="12.2820392"><ele>33.0</ele><time>2026-04-26T16:22:55.854Z</time></trkpt><trkpt lat="45.7406867" lon="12.2820963"><ele>33.0</ele><time>2026-04-26T16:22:56.845Z</time></trkpt><trkpt lat="45.7403691" lon="12.2821483"><ele>32.5</ele><time>2026-04-26T16:22:57.864Z</time></trkpt><trkpt lat="45.7400578" lon="12.2821947"><ele>32.0</ele><time>2026-04-26T16:22:58.869Z</time></trkpt><trkpt lat="45.7397448" lon="12.2822381"><ele>32.0</ele><time>2026-04-26T16:22:59.856Z</time></trkpt><trkpt lat="45.7394296" lon="12.2822791"><ele>32.0</ele><time>2026-04-26T16:23:00.865Z</time></trkpt><trkpt lat="45.7391141" lon="12.2823195"><ele>32.0</ele><time>2026-04-26T16:23:01.872Z</time></trkpt><trkpt lat="45.7388001" lon="12.2823554"><ele>32.0</ele><time>2026-04-26T16:23:02.868Z</time></trkpt><trkpt lat="45.7384886" lon="12.2823859"><ele>32.5</ele><time>2026-04-26T16:23:03.857Z</time></trkpt><trkpt lat="45.7381701" lon="12.2824193"><ele>33.0</ele><time>2026-04-26T16:23:04.872Z</time></trkpt><trkpt lat="45.7378586" lon="12.2824562"><ele>32.5</ele><time>2026-04-26T16:23:05.847Z</time></trkpt><trkpt lat="45.7375423" lon="12.2824931"><ele>32.0</ele><time>2026-04-26T16:23:06.851Z</time></trkpt><trkpt lat="45.7372221" lon="12.2825292"><ele>32.0</ele><time>2026-04-26T16:23:07.888Z</time></trkpt><trkpt lat="45.7369153" lon="12.2825617"><ele>32.0</ele><time>2026-04-26T16:23:08.854Z</time></trkpt><trkpt lat="45.7366012" lon="12.2825968"><ele>32.0</ele><time>2026-04-26T16:23:09.851Z</time></trkpt><trkpt lat="45.7362836" lon="12.2826323"><ele>32.0</ele><time>2026-04-26T16:23:10.869Z</time></trkpt><trkpt lat="45.7359692" lon="12.2826685"><ele>32.0</ele><time>2026-04-26T16:23:11.857Z</time></trkpt><trkpt lat="45.7356538" lon="12.2827096"><ele>32.0</ele><time>2026-04-26T16:23:12.864Z</time></trkpt><trkpt lat="45.7353385" lon="12.282748"><ele>31.5</ele><time>2026-04-26T16:23:13.864Z</time></trkpt><trkpt lat="45.7350243" lon="12.2827831"><ele>31.0</ele><time>2026-04-26T16:23:14.859Z</time></trkpt><trkpt lat="45.7347092" lon="12.282818"><ele>31.0</ele><time>2026-04-26T16:23:15.86Z</time></trkpt><trkpt lat="45.7343946" lon="12.2828508"><ele>31.0</ele><time>2026-04-26T16:23:16.868Z</time></trkpt><trkpt lat="45.7340787" lon="12.2828859"><ele>31.0</ele><time>2026-04-26T16:23:17.863Z</time></trkpt><trkpt lat="45.7337658" lon="12.2829211"><ele>31.0</ele><time>2026-04-26T16:23:18.857Z</time></trkpt><trkpt lat="45.733452" lon="12.2829557"><ele>31.5</ele><time>2026-04-26T16:23:19.857Z</time></trkpt><trkpt lat="45.7331331" lon="12.2829929"><ele>32.0</ele><time>2026-04-26T16:23:20.851Z</time></trkpt><trkpt lat="45.7328175" lon="12.2830275"><ele>31.5</ele><time>2026-04-26T16:23:21.873Z</time></trkpt><trkpt lat="45.7325041" lon="12.2830609"><ele>31.0</ele><time>2026-04-26T16:23:22.847Z</time></trkpt><trkpt lat="45.7321871" lon="12.283093"><ele>31.0</ele><time>2026-04-26T16:23:23.852Z</time></trkpt><trkpt lat="45.7318726" lon="12.2831295"><ele>31.0</ele><time>2026-04-26T16:23:24.871Z</time></trkpt><trkpt lat="45.7315607" lon="12.2831676"><ele>31.0</ele><time>2026-04-26T16:23:25.858Z</time></trkpt><trkpt lat="45.7312448" lon="12.2832039"><ele>31.0</ele><time>2026-04-26T16:23:26.855Z</time></trkpt><trkpt lat="45.7309286" lon="12.28325"><ele>30.0</ele><time>2026-04-26T16:23:27.865Z</time></trkpt><trkpt lat="45.7306145" lon="12.2833026"><ele>29.0</ele><time>2026-04-26T16:23:28.871Z</time></trkpt><trkpt lat="45.7302999" lon="12.2833633"><ele>29.0</ele><time>2026-04-26T16:23:29.868Z</time></trkpt><trkpt lat="45.7299895" lon="12.2834338"><ele>29.0</ele><time>2026-04-26T16:23:30.864Z</time></trkpt><trkpt lat="45.7296813" lon="12.283515"><ele>30.0</ele><time>2026-04-26T16:23:31.859Z</time></trkpt><trkpt lat="45.729369" lon="12.2836062"><ele>31.0</ele><time>2026-04-26T16:23:32.876Z</time></trkpt><trkpt lat="45.7290611" lon="12.2837033"><ele>31.0</ele><time>2026-04-26T16:23:33.866Z</time></trkpt><trkpt lat="45.7287544" lon="12.2838067"><ele>31.0</ele><time>2026-04-26T16:23:34.87Z</time></trkpt><trkpt lat="45.7284466" lon="12.2839188"><ele>29.5</ele><time>2026-04-26T16:23:35.869Z</time></trkpt><trkpt lat="45.7281422" lon="12.2840345"><ele>28.0</ele><time>2026-04-26T16:23:36.852Z</time></trkpt><trkpt lat="45.7278378" lon="12.2841579"><ele>27.5</ele><time>2026-04-26T16:23:37.869Z</time></trkpt><trkpt lat="45.7275384" lon="12.2842889"><ele>27.0</ele><time>2026-04-26T16:23:38.853Z</time></trkpt><trkpt lat="45.727235" lon="12.2844298"><ele>27.0</ele><time>2026-04-26T16:23:39.875Z</time></trkpt><trkpt lat="45.7269371" lon="12.2845725"><ele>27.0</ele><time>2026-04-26T16:23:40.856Z</time></trkpt><trkpt lat="45.7266379" lon="12.2847222"><ele>27.0</ele><time>2026-04-26T16:23:41.858Z</time></trkpt><trkpt lat="45.7263412" lon="12.2848808"><ele>27.0</ele><time>2026-04-26T16:23:42.861Z</time></trkpt><trkpt lat="45.7260469" lon="12.285047"><ele>27.0</ele><time>2026-04-26T16:23:43.867Z</time></trkpt><trkpt lat="45.7257557" lon="12.2852204"><ele>27.0</ele><time>2026-04-26T16:23:44.86Z</time></trkpt><trkpt lat="45.7254671" lon="12.2854018"><ele>27.5</ele><time>2026-04-26T16:23:45.86Z</time></trkpt><trkpt lat="45.7251766" lon="12.2855888"><ele>28.0</ele><time>2026-04-26T16:23:46.864Z</time></trkpt><trkpt lat="45.7248894" lon="12.2857838"><ele>28.0</ele><time>2026-04-26T16:23:47.875Z</time></trkpt><trkpt lat="45.7246077" lon="12.2859739"><ele>28.0</ele><time>2026-04-26T16:23:48.872Z</time></trkpt><trkpt lat="45.724322" lon="12.2861678"><ele>28.0</ele><time>2026-04-26T16:23:49.854Z</time></trkpt><trkpt lat="45.7240348" lon="12.2863577"><ele>28.0</ele><time>2026-04-26T16:23:50.857Z</time></trkpt><trkpt lat="45.7237439" lon="12.2865476"><ele>29.5</ele><time>2026-04-26T16:23:51.884Z</time></trkpt><trkpt lat="45.7234606" lon="12.2867325"><ele>31.0</ele><time>2026-04-26T16:23:52.871Z</time></trkpt><trkpt lat="45.7231736" lon="12.2869268"><ele>31.0</ele><time>2026-04-26T16:23:53.871Z</time></trkpt><trkpt lat="45.722888" lon="12.2871201"><ele>31.0</ele><time>2026-04-26T16:23:54.873Z</time></trkpt><trkpt lat="45.7226026" lon="12.2873158"><ele>30.0</ele><time>2026-04-26T16:23:55.868Z</time></trkpt><trkpt lat="45.722317" lon="12.2875105"><ele>29.0</ele><time>2026-04-26T16:23:56.866Z</time></trkpt><trkpt lat="45.7220297" lon="12.2877021"><ele>28.0</ele><time>2026-04-26T16:23:57.874Z</time></trkpt><trkpt lat="45.7217436" lon="12.2878927"><ele>27.0</ele><time>2026-04-26T16:23:58.86Z</time></trkpt><trkpt lat="45.7214538" lon="12.2880834"><ele>26.0</ele><time>2026-04-26T16:23:59.868Z</time></trkpt><trkpt lat="45.7211669" lon="12.2882681"><ele>25.0</ele><time>2026-04-26T16:24:00.858Z</time></trkpt><trkpt lat="45.7208774" lon="12.2884516"><ele>24.0</ele><time>2026-04-26T16:24:01.873Z</time></trkpt><trkpt lat="45.7205869" lon="12.2886337"><ele>23.0</ele><time>2026-04-26T16:24:02.858Z</time></trkpt><trkpt lat="45.7202963" lon="12.2888167"><ele>25.5</ele><time>2026-04-26T16:24:03.864Z</time></trkpt><trkpt lat="45.7200061" lon="12.2889951"><ele>28.0</ele><time>2026-04-26T16:24:04.848Z</time></trkpt><trkpt lat="45.7197134" lon="12.2891684"><ele>28.0</ele><time>2026-04-26T16:24:05.858Z</time></trkpt><trkpt lat="45.7194183" lon="12.289333"><ele>28.0</ele><time>2026-04-26T16:24:06.865Z</time></trkpt><trkpt lat="45.7191242" lon="12.2894879"><ele>27.5</ele><time>2026-04-26T16:24:07.851Z</time></trkpt><trkpt lat="45.7188236" lon="12.289633"><ele>27.0</ele><time>2026-04-26T16:24:08.861Z</time></trkpt><trkpt lat="45.718522" lon="12.2897713"><ele>25.0</ele><time>2026-04-26T16:24:09.863Z</time></trkpt><trkpt lat="45.7182176" lon="12.2898997"><ele>23.0</ele><time>2026-04-26T16:24:10.869Z</time></trkpt><trkpt lat="45.7179151" lon="12.2900224"><ele>24.5</ele><time>2026-04-26T16:24:11.857Z</time></trkpt><trkpt lat="45.7176081" lon="12.2901377"><ele>26.0</ele><time>2026-04-26T16:24:12.868Z</time></trkpt><trkpt lat="45.717303" lon="12.2902405"><ele>26.0</ele><time>2026-04-26T16:24:13.862Z</time></trkpt><trkpt lat="45.7169916" lon="12.2903336"><ele>26.0</ele><time>2026-04-26T16:24:14.865Z</time></trkpt><trkpt lat="45.7166825" lon="12.2904152"><ele>25.5</ele><time>2026-04-26T16:24:15.887Z</time></trkpt><trkpt lat="45.7163727" lon="12.2904861"><ele>25.0</ele><time>2026-04-26T16:24:16.862Z</time></trkpt><trkpt lat="45.7160575" lon="12.2905489"><ele>23.5</ele><time>2026-04-26T16:24:17.866Z</time></trkpt><trkpt lat="45.715746" lon="12.2905984"><ele>22.0</ele><time>2026-04-26T16:24:18.855Z</time></trkpt><trkpt lat="45.7154334" lon="12.2906385"><ele>23.5</ele><time>2026-04-26T16:24:19.855Z</time></trkpt><trkpt lat="45.7151158" lon="12.2906723"><ele>25.0</ele><time>2026-04-26T16:24:20.865Z</time></trkpt><trkpt lat="45.7147992" lon="12.2906921"><ele>25.0</ele><time>2026-04-26T16:24:21.871Z</time></trkpt><trkpt lat="45.714485" lon="12.2907043"><ele>25.0</ele><time>2026-04-26T16:24:22.861Z</time></trkpt><trkpt lat="45.7141702" lon="12.2907138"><ele>25.0</ele><time>2026-04-26T16:24:23.854Z</time></trkpt><trkpt lat="45.7138569" lon="12.2907179"><ele>25.0</ele><time>2026-04-26T16:24:24.852Z</time></trkpt><trkpt lat="45.7135375" lon="12.2907178"><ele>24.5</ele><time>2026-04-26T16:24:25.866Z</time></trkpt><trkpt lat="45.713225" lon="12.2907233"><ele>24.0</ele><time>2026-04-26T16:24:26.878Z</time></trkpt><trkpt lat="45.7129102" lon="12.2907322"><ele>22.0</ele><time>2026-04-26T16:24:27.852Z</time></trkpt><trkpt lat="45.7125937" lon="12.2907421"><ele>20.0</ele><time>2026-04-26T16:24:28.861Z</time></trkpt><trkpt lat="45.7122775" lon="12.2907525"><ele>20.0</ele><time>2026-04-26T16:24:29.855Z</time></trkpt><trkpt lat="45.7119635" lon="12.2907622"><ele>20.0</ele><time>2026-04-26T16:24:30.852Z</time></trkpt><trkpt lat="45.7116476" lon="12.2907716"><ele>20.0</ele><time>2026-04-26T16:24:31.865Z</time></trkpt><trkpt lat="45.7113316" lon="12.2907821"><ele>20.0</ele><time>2026-04-26T16:24:32.844Z</time></trkpt><trkpt lat="45.711016" lon="12.290792"><ele>20.0</ele><time>2026-04-26T16:24:33.851Z</time></trkpt><trkpt lat="45.7107006" lon="12.290803"><ele>20.0</ele><time>2026-04-26T16:24:34.848Z</time></trkpt><trkpt lat="45.7103846" lon="12.2908128"><ele>21.0</ele><time>2026-04-26T16:24:35.863Z</time></trkpt><trkpt lat="45.7100726" lon="12.2908255"><ele>22.0</ele><time>2026-04-26T16:24:36.852Z</time></trkpt><trkpt lat="45.7097583" lon="12.2908492"><ele>22.0</ele><time>2026-04-26T16:24:37.858Z</time></trkpt><trkpt lat="45.7094413" lon="12.2908843"><ele>22.0</ele><time>2026-04-26T16:24:38.857Z</time></trkpt><trkpt lat="45.7091281" lon="12.2909357"><ele>21.5</ele><time>2026-04-26T16:24:39.844Z</time></trkpt><trkpt lat="45.7088118" lon="12.2909981"><ele>21.0</ele><time>2026-04-26T16:24:40.867Z</time></trkpt><trkpt lat="45.7085016" lon="12.2910652"><ele>21.0</ele><time>2026-04-26T16:24:41.865Z</time></trkpt><trkpt lat="45.7081903" lon="12.2911405"><ele>21.0</ele><time>2026-04-26T16:24:42.873Z</time></trkpt><trkpt lat="45.7078804" lon="12.2912259"><ele>22.0</ele><time>2026-04-26T16:24:43.881Z</time></trkpt><trkpt lat="45.707579" lon="12.2913253"><ele>23.0</ele><time>2026-04-26T16:24:44.852Z</time></trkpt><trkpt lat="45.7072724" lon="12.2914393"><ele>23.0</ele><time>2026-04-26T16:24:45.857Z</time></trkpt><trkpt lat="45.7069668" lon="12.2915622"><ele>23.0</ele><time>2026-04-26T16:24:46.862Z</time></trkpt><trkpt lat="45.7066655" lon="12.2916919"><ele>21.0</ele><time>2026-04-26T16:24:47.855Z</time></trkpt><trkpt lat="45.7063644" lon="12.2918274"><ele>19.0</ele><time>2026-04-26T16:24:48.859Z</time></trkpt><trkpt lat="45.7060649" lon="12.2919738"><ele>18.5</ele><time>2026-04-26T16:24:49.856Z</time></trkpt><trkpt lat="45.7057689" lon="12.2921302"><ele>18.0</ele><time>2026-04-26T16:24:50.851Z</time></trkpt><trkpt lat="45.7054743" lon="12.2923039"><ele>19.5</ele><time>2026-04-26T16:24:51.863Z</time></trkpt><trkpt lat="45.7051878" lon="12.2924872"><ele>21.0</ele><time>2026-04-26T16:24:52.852Z</time></trkpt><trkpt lat="45.7049013" lon="12.2926827"><ele>21.0</ele><time>2026-04-26T16:24:53.857Z</time></trkpt><trkpt lat="45.7046122" lon="12.29287"><ele>21.0</ele><time>2026-04-26T16:24:54.882Z</time></trkpt><trkpt lat="45.7043191" lon="12.2930527"><ele>19.5</ele><time>2026-04-26T16:24:55.868Z</time></trkpt><trkpt lat="45.7040308" lon="12.2932347"><ele>18.0</ele><time>2026-04-26T16:24:56.876Z</time></trkpt><trkpt lat="45.7037445" lon="12.293419"><ele>17.0</ele><time>2026-04-26T16:24:57.869Z</time></trkpt><trkpt lat="45.7034529" lon="12.2936083"><ele>16.0</ele><time>2026-04-26T16:24:58.873Z</time></trkpt><trkpt lat="45.7031703" lon="12.293796"><ele>17.0</ele><time>2026-04-26T16:24:59.852Z</time></trkpt><trkpt lat="45.7028803" lon="12.2939856"><ele>18.0</ele><time>2026-04-26T16:25:00.87Z</time></trkpt><trkpt lat="45.7025912" lon="12.2941723"><ele>19.5</ele><time>2026-04-26T16:25:01.853Z</time></trkpt><trkpt lat="45.7023055" lon="12.2943545"><ele>21.0</ele><time>2026-04-26T16:25:02.841Z</time></trkpt><trkpt lat="45.7020123" lon="12.2945419"><ele>21.5</ele><time>2026-04-26T16:25:03.871Z</time></trkpt><trkpt lat="45.7017261" lon="12.2947235"><ele>22.0</ele><time>2026-04-26T16:25:04.85Z</time></trkpt><trkpt lat="45.7014357" lon="12.2949056"><ele>20.5</ele><time>2026-04-26T16:25:05.856Z</time></trkpt><trkpt lat="45.701146" lon="12.295085"><ele>19.0</ele><time>2026-04-26T16:25:06.87Z</time></trkpt><trkpt lat="45.7008595" lon="12.2952622"><ele>19.0</ele><time>2026-04-26T16:25:07.85Z</time></trkpt><trkpt lat="45.7005667" lon="12.2954438"><ele>19.0</ele><time>2026-04-26T16:25:08.856Z</time></trkpt><trkpt lat="45.700277" lon="12.2956244"><ele>19.5</ele><time>2026-04-26T16:25:09.866Z</time></trkpt><trkpt lat="45.6999887" lon="12.2958045"><ele>20.0</ele><time>2026-04-26T16:25:10.856Z</time></trkpt><trkpt lat="45.6997011" lon="12.2959826"><ele>19.0</ele><time>2026-04-26T16:25:11.848Z</time></trkpt><trkpt lat="45.6994105" lon="12.2961631"><ele>18.0</ele><time>2026-04-26T16:25:12.856Z</time></trkpt><trkpt lat="45.6991213" lon="12.2963419"><ele>18.5</ele><time>2026-04-26T16:25:13.857Z</time></trkpt><trkpt lat="45.6988309" lon="12.2965225"><ele>19.0</ele><time>2026-04-26T16:25:14.868Z</time></trkpt><trkpt lat="45.698541" lon="12.2967037"><ele>19.0</ele><time>2026-04-26T16:25:15.857Z</time></trkpt><trkpt lat="45.6982528" lon="12.2968841"><ele>19.0</ele><time>2026-04-26T16:25:16.854Z</time></trkpt><trkpt lat="45.6979602" lon="12.2970628"><ele>18.5</ele><time>2026-04-26T16:25:17.857Z</time></trkpt><trkpt lat="45.6976716" lon="12.2972396"><ele>18.0</ele><time>2026-04-26T16:25:18.858Z</time></trkpt><trkpt lat="45.6973812" lon="12.2974182"><ele>18.0</ele><time>2026-04-26T16:25:19.857Z</time></trkpt><trkpt lat="45.6970902" lon="12.2976"><ele>18.0</ele><time>2026-04-26T16:25:20.867Z</time></trkpt><trkpt lat="45.6968017" lon="12.2977813"><ele>18.0</ele><time>2026-04-26T16:25:21.862Z</time></trkpt><trkpt lat="45.696512" lon="12.2979644"><ele>18.0</ele><time>2026-04-26T16:25:22.877Z</time></trkpt><trkpt lat="45.6962238" lon="12.2981471"><ele>18.0</ele><time>2026-04-26T16:25:23.884Z</time></trkpt><trkpt lat="45.695945" lon="12.2983226"><ele>18.0</ele><time>2026-04-26T16:25:24.884Z</time></trkpt><trkpt lat="45.695677" lon="12.2984918"><ele>18.0</ele><time>2026-04-26T16:25:25.875Z</time></trkpt><trkpt lat="45.6954126" lon="12.2986588"><ele>18.0</ele><time>2026-04-26T16:25:26.864Z</time></trkpt><trkpt lat="45.6951491" lon="12.298828"><ele>18.0</ele><time>2026-04-26T16:25:27.843Z</time></trkpt><trkpt lat="45.6948746" lon="12.2990065"><ele>18.0</ele><time>2026-04-26T16:25:28.848Z</time></trkpt><trkpt lat="45.6945956" lon="12.2991841"><ele>17.5</ele><time>2026-04-26T16:25:29.857Z</time></trkpt><trkpt lat="45.6943116" lon="12.2993607"><ele>17.0</ele><time>2026-04-26T16:25:30.867Z</time></trkpt><trkpt lat="45.6940182" lon="12.2995333"><ele>17.0</ele><time>2026-04-26T16:25:31.864Z</time></trkpt><trkpt lat="45.6937183" lon="12.2996891"><ele>17.0</ele><time>2026-04-26T16:25:32.862Z</time></trkpt><trkpt lat="45.6934148" lon="12.2998332"><ele>16.5</ele><time>2026-04-26T16:25:33.872Z</time></trkpt><trkpt lat="45.6931089" lon="12.2999646"><ele>16.0</ele><time>2026-04-26T16:25:34.876Z</time></trkpt><trkpt lat="45.6928" lon="12.3000827"><ele>15.5</ele><time>2026-04-26T16:25:35.863Z</time></trkpt><trkpt lat="45.6924962" lon="12.3001873"><ele>15.0</ele><time>2026-04-26T16:25:36.853Z</time></trkpt><trkpt lat="45.6921937" lon="12.3002809"><ele>15.0</ele><time>2026-04-26T16:25:37.861Z</time></trkpt><trkpt lat="45.6919044" lon="12.3003635"><ele>15.0</ele><time>2026-04-26T16:25:38.845Z</time></trkpt><trkpt lat="45.6916157" lon="12.3004408"><ele>15.0</ele><time>2026-04-26T16:25:39.861Z</time></trkpt><trkpt lat="45.69133" lon="12.3005097"><ele>15.0</ele><time>2026-04-26T16:25:40.864Z</time></trkpt><trkpt lat="45.6910497" lon="12.3005672"><ele>14.5</ele><time>2026-04-26T16:25:41.854Z</time></trkpt><trkpt lat="45.690767" lon="12.3006148"><ele>14.0</ele><time>2026-04-26T16:25:42.848Z</time></trkpt><trkpt lat="45.6904822" lon="12.3006541"><ele>14.5</ele><time>2026-04-26T16:25:43.853Z</time></trkpt><trkpt lat="45.6901976" lon="12.3006842"><ele>15.0</ele><time>2026-04-26T16:25:44.856Z</time></trkpt><trkpt lat="45.689916" lon="12.3007044"><ele>15.0</ele><time>2026-04-26T16:25:45.861Z</time></trkpt><trkpt lat="45.6896341" lon="12.3007189"><ele>15.0</ele><time>2026-04-26T16:25:46.857Z</time></trkpt><trkpt lat="45.6893532" lon="12.3007238"><ele>15.5</ele><time>2026-04-26T16:25:47.854Z</time></trkpt><trkpt lat="45.6890726" lon="12.3007167"><ele>16.0</ele><time>2026-04-26T16:25:48.86Z</time></trkpt><trkpt lat="45.6887928" lon="12.3007055"><ele>15.5</ele><time>2026-04-26T16:25:49.852Z</time></trkpt><trkpt lat="45.6885068" lon="12.3006983"><ele>15.0</ele><time>2026-04-26T16:25:50.859Z</time></trkpt><trkpt lat="45.6882263" lon="12.3006912"><ele>15.0</ele><time>2026-04-26T16:25:51.859Z</time></trkpt><trkpt lat="45.6879455" lon="12.3006817"><ele>15.0</ele><time>2026-04-26T16:25:52.871Z</time></trkpt><trkpt lat="45.6876693" lon="12.3006725"><ele>15.0</ele><time>2026-04-26T16:25:53.858Z</time></trkpt><trkpt lat="45.6873956" lon="12.300667"><ele>15.0</ele><time>2026-04-26T16:25:54.849Z</time></trkpt><trkpt lat="45.687118" lon="12.3006624"><ele>14.5</ele><time>2026-04-26T16:25:55.866Z</time></trkpt><trkpt lat="45.6868479" lon="12.3006544"><ele>14.0</ele><time>2026-04-26T16:25:56.856Z</time></trkpt><trkpt lat="45.6865778" lon="12.3006445"><ele>14.0</ele><time>2026-04-26T16:25:57.863Z</time></trkpt><trkpt lat="45.6863116" lon="12.3006352"><ele>14.0</ele><time>2026-04-26T16:25:58.863Z</time></trkpt><trkpt lat="45.6860526" lon="12.3006288"><ele>13.5</ele><time>2026-04-26T16:25:59.857Z</time></trkpt><trkpt lat="45.6857971" lon="12.3006313"><ele>13.0</ele><time>2026-04-26T16:26:00.868Z</time></trkpt><trkpt lat="45.6855417" lon="12.3006336"><ele>13.0</ele><time>2026-04-26T16:26:01.874Z</time></trkpt><trkpt lat="45.6852809" lon="12.3006413"><ele>13.0</ele><time>2026-04-26T16:26:02.868Z</time></trkpt><trkpt lat="45.6850217" lon="12.3006573"><ele>12.0</ele><time>2026-04-26T16:26:03.856Z</time></trkpt><trkpt lat="45.6847552" lon="12.3006799"><ele>11.0</ele><time>2026-04-26T16:26:04.865Z</time></trkpt><trkpt lat="45.6844857" lon="12.300711"><ele>12.5</ele><time>2026-04-26T16:26:05.856Z</time></trkpt><trkpt lat="45.6842144" lon="12.3007509"><ele>14.0</ele><time>2026-04-26T16:26:06.867Z</time></trkpt><trkpt lat="45.6839444" lon="12.300805"><ele>14.0</ele><time>2026-04-26T16:26:07.87Z</time></trkpt><trkpt lat="45.6836745" lon="12.3008702"><ele>14.0</ele><time>2026-04-26T16:26:08.856Z</time></trkpt><trkpt lat="45.6834019" lon="12.3009474"><ele>13.5</ele><time>2026-04-26T16:26:09.864Z</time></trkpt><trkpt lat="45.6831337" lon="12.3010391"><ele>13.0</ele><time>2026-04-26T16:26:10.856Z</time></trkpt><trkpt lat="45.6828681" lon="12.301143"><ele>14.5</ele><time>2026-04-26T16:26:11.853Z</time></trkpt><trkpt lat="45.6825983" lon="12.3012599"><ele>16.0</ele><time>2026-04-26T16:26:12.867Z</time></trkpt><trkpt lat="45.6823354" lon="12.3013866"><ele>16.0</ele><time>2026-04-26T16:26:13.857Z</time></trkpt><trkpt lat="45.6820643" lon="12.3015229"><ele>16.0</ele><time>2026-04-26T16:26:14.864Z</time></trkpt><trkpt lat="45.6817926" lon="12.3016578"><ele>16.0</ele><time>2026-04-26T16:26:15.864Z</time></trkpt><trkpt lat="45.6815146" lon="12.3017929"><ele>16.0</ele><time>2026-04-26T16:26:16.856Z</time></trkpt><trkpt lat="45.6812308" lon="12.3019336"><ele>14.5</ele><time>2026-04-26T16:26:17.849Z</time></trkpt><trkpt lat="45.6809419" lon="12.3020809"><ele>13.0</ele><time>2026-04-26T16:26:18.871Z</time></trkpt><trkpt lat="45.6806623" lon="12.3022234"><ele>13.0</ele><time>2026-04-26T16:26:19.853Z</time></trkpt><trkpt lat="45.6803781" lon="12.3023688"><ele>13.0</ele><time>2026-04-26T16:26:20.848Z</time></trkpt><trkpt lat="45.6800933" lon="12.3025145"><ele>14.5</ele><time>2026-04-26T16:26:21.854Z</time></trkpt><trkpt lat="45.6798104" lon="12.3026616"><ele>16.0</ele><time>2026-04-26T16:26:22.841Z</time></trkpt><trkpt lat="45.6795212" lon="12.3028137"><ele>15.5</ele><time>2026-04-26T16:26:23.854Z</time></trkpt><trkpt lat="45.67923" lon="12.3029671"><ele>15.0</ele><time>2026-04-26T16:26:24.849Z</time></trkpt><trkpt lat="45.6789361" lon="12.3031219"><ele>14.5</ele><time>2026-04-26T16:26:25.873Z</time></trkpt><trkpt lat="45.6786469" lon="12.303273"><ele>14.0</ele><time>2026-04-26T16:26:26.873Z</time></trkpt><trkpt lat="45.6783568" lon="12.3034245"><ele>14.0</ele><time>2026-04-26T16:26:27.854Z</time></trkpt><trkpt lat="45.6780614" lon="12.3035801"><ele>14.0</ele><time>2026-04-26T16:26:28.864Z</time></trkpt><trkpt lat="45.6777633" lon="12.3037376"><ele>14.0</ele><time>2026-04-26T16:26:29.865Z</time></trkpt><trkpt lat="45.6774681" lon="12.3038906"><ele>14.0</ele><time>2026-04-26T16:26:30.862Z</time></trkpt><trkpt lat="45.677171" lon="12.3040435"><ele>13.5</ele><time>2026-04-26T16:26:31.856Z</time></trkpt><trkpt lat="45.6768726" lon="12.3042002"><ele>13.0</ele><time>2026-04-26T16:26:32.864Z</time></trkpt><trkpt lat="45.6765777" lon="12.3043556"><ele>13.0</ele><time>2026-04-26T16:26:33.854Z</time></trkpt><trkpt lat="45.6762839" lon="12.3045122"><ele>13.0</ele><time>2026-04-26T16:26:34.856Z</time></trkpt><trkpt lat="45.6759881" lon="12.3046703"><ele>13.5</ele><time>2026-04-26T16:26:35.85Z</time></trkpt><trkpt lat="45.6756926" lon="12.3048265"><ele>14.0</ele><time>2026-04-26T16:26:36.856Z</time></trkpt><trkpt lat="45.6753953" lon="12.30498"><ele>14.5</ele><time>2026-04-26T16:26:37.857Z</time></trkpt><trkpt lat="45.6751007" lon="12.3051358"><ele>15.0</ele><time>2026-04-26T16:26:38.867Z</time></trkpt><trkpt lat="45.6748081" lon="12.3052955"><ele>15.0</ele><time>2026-04-26T16:26:39.851Z</time></trkpt><trkpt lat="45.674511" lon="12.3054637"><ele>15.0</ele><time>2026-04-26T16:26:40.862Z</time></trkpt><trkpt lat="45.6742169" lon="12.3056363"><ele>14.5</ele><time>2026-04-26T16:26:41.864Z</time></trkpt><trkpt lat="45.6739316" lon="12.3058138"><ele>14.0</ele><time>2026-04-26T16:26:42.852Z</time></trkpt><trkpt lat="45.6736414" lon="12.3060028"><ele>12.5</ele><time>2026-04-26T16:26:43.86Z</time></trkpt><trkpt lat="45.6733562" lon="12.3061978"><ele>11.0</ele><time>2026-04-26T16:26:44.86Z</time></trkpt><trkpt lat="45.6730747" lon="12.3063981"><ele>13.0</ele><time>2026-04-26T16:26:45.854Z</time></trkpt><trkpt lat="45.6727923" lon="12.3066059"><ele>15.0</ele><time>2026-04-26T16:26:46.854Z</time></trkpt><trkpt lat="45.6725118" lon="12.3068197"><ele>15.0</ele><time>2026-04-26T16:26:47.869Z</time></trkpt><trkpt lat="45.6722383" lon="12.3070385"><ele>15.0</ele><time>2026-04-26T16:26:48.857Z</time></trkpt><trkpt lat="45.6719627" lon="12.3072658"><ele>13.0</ele><time>2026-04-26T16:26:49.861Z</time></trkpt><trkpt lat="45.671692" lon="12.3074989"><ele>11.0</ele><time>2026-04-26T16:26:50.866Z</time></trkpt><trkpt lat="45.6714243" lon="12.3077374"><ele>11.0</ele><time>2026-04-26T16:26:51.86Z</time></trkpt><trkpt lat="45.6711602" lon="12.3079859"><ele>11.0</ele><time>2026-04-26T16:26:52.865Z</time></trkpt><trkpt lat="45.6708992" lon="12.3082435"><ele>10.5</ele><time>2026-04-26T16:26:53.874Z</time></trkpt><trkpt lat="45.6706446" lon="12.3085045"><ele>10.0</ele><time>2026-04-26T16:26:54.856Z</time></trkpt><trkpt lat="45.6703913" lon="12.3087751"><ele>10.0</ele><time>2026-04-26T16:26:55.861Z</time></trkpt><trkpt lat="45.6701407" lon="12.3090507"><ele>10.0</ele><time>2026-04-26T16:26:56.857Z</time></trkpt><trkpt lat="45.6698907" lon="12.3093279"><ele>10.0</ele><time>2026-04-26T16:26:57.86Z</time></trkpt><trkpt lat="45.6696407" lon="12.3096049"><ele>10.0</ele><time>2026-04-26T16:26:58.864Z</time></trkpt><trkpt lat="45.6693914" lon="12.309881"><ele>10.0</ele><time>2026-04-26T16:26:59.853Z</time></trkpt><trkpt lat="45.6691405" lon="12.3101579"><ele>10.0</ele><time>2026-04-26T16:27:00.859Z</time></trkpt><trkpt lat="45.6688926" lon="12.310432"><ele>9.5</ele><time>2026-04-26T16:27:01.852Z</time></trkpt><trkpt lat="45.6686431" lon="12.3107097"><ele>9.0</ele><time>2026-04-26T16:27:02.851Z</time></trkpt><trkpt lat="45.6683931" lon="12.3109883"><ele>9.0</ele><time>2026-04-26T16:27:03.854Z</time></trkpt><trkpt lat="45.6681439" lon="12.3112672"><ele>9.0</ele><time>2026-04-26T16:27:04.861Z</time></trkpt><trkpt lat="45.6678943" lon="12.3115493"><ele>9.5</ele><time>2026-04-26T16:27:05.869Z</time></trkpt><trkpt lat="45.6676482" lon="12.3118296"><ele>10.0</ele><time>2026-04-26T16:27:06.853Z</time></trkpt><trkpt lat="45.6674013" lon="12.3121073"><ele>9.5</ele><time>2026-04-26T16:27:07.867Z</time></trkpt><trkpt lat="45.6671533" lon="12.3123837"><ele>9.0</ele><time>2026-04-26T16:27:08.849Z</time></trkpt><trkpt lat="45.6669026" lon="12.3126625"><ele>9.0</ele><time>2026-04-26T16:27:09.855Z</time></trkpt><trkpt lat="45.6666553" lon="12.312941"><ele>9.0</ele><time>2026-04-26T16:27:10.846Z</time></trkpt><trkpt lat="45.6664055" lon="12.3132229"><ele>8.0</ele><time>2026-04-26T16:27:11.856Z</time></trkpt><trkpt lat="45.6661583" lon="12.3134988"><ele>7.0</ele><time>2026-04-26T16:27:12.854Z</time></trkpt><trkpt lat="45.6659097" lon="12.3137783"><ele>7.0</ele><time>2026-04-26T16:27:13.851Z</time></trkpt><trkpt lat="45.6656595" lon="12.314055"><ele>7.0</ele><time>2026-04-26T16:27:14.847Z</time></trkpt><trkpt lat="45.6654091" lon="12.3143299"><ele>7.5</ele><time>2026-04-26T16:27:15.85Z</time></trkpt><trkpt lat="45.6651586" lon="12.3146059"><ele>8.0</ele><time>2026-04-26T16:27:16.853Z</time></trkpt><trkpt lat="45.6649076" lon="12.3148813"><ele>8.0</ele><time>2026-04-26T16:27:17.857Z</time></trkpt><trkpt lat="45.6646564" lon="12.3151526"><ele>8.0</ele><time>2026-04-26T16:27:18.851Z</time></trkpt><trkpt lat="45.6643954" lon="12.3154085"><ele>9.5</ele><time>2026-04-26T16:27:19.853Z</time></trkpt><trkpt lat="45.664128" lon="12.3156494"><ele>11.0</ele><time>2026-04-26T16:27:20.855Z</time></trkpt><trkpt lat="45.6638585" lon="12.315876"><ele>10.5</ele><time>2026-04-26T16:27:21.858Z</time></trkpt><trkpt lat="45.6635809" lon="12.316093"><ele>10.0</ele><time>2026-04-26T16:27:22.846Z</time></trkpt><trkpt lat="45.663298" lon="12.3162946"><ele>9.0</ele><time>2026-04-26T16:27:23.854Z</time></trkpt><trkpt lat="45.6630072" lon="12.3164785"><ele>8.0</ele><time>2026-04-26T16:27:24.876Z</time></trkpt><trkpt lat="45.6627165" lon="12.3166403"><ele>8.0</ele><time>2026-04-26T16:27:25.86Z</time></trkpt><trkpt lat="45.6624196" lon="12.3167861"><ele>8.0</ele><time>2026-04-26T16:27:26.852Z</time></trkpt><trkpt lat="45.6621165" lon="12.3169214"><ele>7.0</ele><time>2026-04-26T16:27:27.855Z</time></trkpt><trkpt lat="45.6618125" lon="12.3170447"><ele>6.0</ele><time>2026-04-26T16:27:28.859Z</time></trkpt><trkpt lat="45.6615027" lon="12.317154"><ele>7.0</ele><time>2026-04-26T16:27:29.854Z</time></trkpt><trkpt lat="45.6611958" lon="12.3172485"><ele>8.0</ele><time>2026-04-26T16:27:30.853Z</time></trkpt><trkpt lat="45.660885" lon="12.3173295"><ele>8.0</ele><time>2026-04-26T16:27:31.854Z</time></trkpt><trkpt lat="45.6605729" lon="12.3173928"><ele>8.0</ele><time>2026-04-26T16:27:32.851Z</time></trkpt><trkpt lat="45.6602598" lon="12.3174413"><ele>7.5</ele><time>2026-04-26T16:27:33.851Z</time></trkpt><trkpt lat="45.6599466" lon="12.3174718"><ele>7.0</ele><time>2026-04-26T16:27:34.86Z</time></trkpt><trkpt lat="45.6596307" lon="12.3174849"><ele>6.5</ele><time>2026-04-26T16:27:35.854Z</time></trkpt><trkpt lat="45.6593155" lon="12.3174782"><ele>6.0</ele><time>2026-04-26T16:27:36.854Z</time></trkpt><trkpt lat="45.6590008" lon="12.3174567"><ele>6.0</ele><time>2026-04-26T16:27:37.847Z</time></trkpt><trkpt lat="45.6586836" lon="12.3174192"><ele>6.0</ele><time>2026-04-26T16:27:38.865Z</time></trkpt><trkpt lat="45.6583707" lon="12.3173697"><ele>5.5</ele><time>2026-04-26T16:27:39.852Z</time></trkpt><trkpt lat="45.6580536" lon="12.31732"><ele>5.0</ele><time>2026-04-26T16:27:40.863Z</time></trkpt><trkpt lat="45.6577403" lon="12.317275"><ele>6.0</ele><time>2026-04-26T16:27:41.848Z</time></trkpt><trkpt lat="45.6574238" lon="12.3172326"><ele>7.0</ele><time>2026-04-26T16:27:42.85Z</time></trkpt><trkpt lat="45.6571059" lon="12.317193"><ele>7.5</ele><time>2026-04-26T16:27:43.86Z</time></trkpt><trkpt lat="45.6567937" lon="12.3171504"><ele>8.0</ele><time>2026-04-26T16:27:44.849Z</time></trkpt><trkpt lat="45.6564801" lon="12.3171075"><ele>8.0</ele><time>2026-04-26T16:27:45.856Z</time></trkpt><trkpt lat="45.6561633" lon="12.3170641"><ele>8.0</ele><time>2026-04-26T16:27:46.868Z</time></trkpt><trkpt lat="45.6558517" lon="12.317021"><ele>9.0</ele><time>2026-04-26T16:27:47.867Z</time></trkpt><trkpt lat="45.6555372" lon="12.3169805"><ele>10.0</ele><time>2026-04-26T16:27:48.848Z</time></trkpt><trkpt lat="45.6552196" lon="12.3169405"><ele>10.0</ele><time>2026-04-26T16:27:49.852Z</time></trkpt><trkpt lat="45.6549035" lon="12.3169044"><ele>10.0</ele><time>2026-04-26T16:27:50.853Z</time></trkpt><trkpt lat="45.6545886" lon="12.3168693"><ele>10.0</ele><time>2026-04-26T16:27:51.85Z</time></trkpt><trkpt lat="45.6542728" lon="12.3168329"><ele>10.0</ele><time>2026-04-26T16:27:52.857Z</time></trkpt><trkpt lat="45.6539588" lon="12.3167962"><ele>10.0</ele><time>2026-04-26T16:27:53.845Z</time></trkpt><trkpt lat="45.6536449" lon="12.3167647"><ele>10.0</ele><time>2026-04-26T16:27:54.852Z</time></trkpt><trkpt lat="45.6533278" lon="12.3167385"><ele>10.0</ele><time>2026-04-26T16:27:55.856Z</time></trkpt><trkpt lat="45.6530152" lon="12.3167098"><ele>10.0</ele><time>2026-04-26T16:27:56.861Z</time></trkpt><trkpt lat="45.6527005" lon="12.3166764"><ele>9.5</ele><time>2026-04-26T16:27:57.849Z</time></trkpt><trkpt lat="45.6523855" lon="12.3166419"><ele>9.0</ele><time>2026-04-26T16:27:58.855Z</time></trkpt><trkpt lat="45.6520695" lon="12.3166077"><ele>8.5</ele><time>2026-04-26T16:27:59.849Z</time></trkpt><trkpt lat="45.6517553" lon="12.316576"><ele>8.0</ele><time>2026-04-26T16:28:00.841Z</time></trkpt><trkpt lat="45.6514359" lon="12.3165473"><ele>9.0</ele><time>2026-04-26T16:28:01.866Z</time></trkpt><trkpt lat="45.6511229" lon="12.3165226"><ele>10.0</ele><time>2026-04-26T16:28:02.854Z</time></trkpt><trkpt lat="45.6508059" lon="12.3165012"><ele>10.0</ele><time>2026-04-26T16:28:03.851Z</time></trkpt><trkpt lat="45.6504908" lon="12.3164809"><ele>10.0</ele><time>2026-04-26T16:28:04.849Z</time></trkpt><trkpt lat="45.6501718" lon="12.316462"><ele>10.0</ele><time>2026-04-26T16:28:05.864Z</time></trkpt><trkpt lat="45.649862" lon="12.3164462"><ele>10.0</ele><time>2026-04-26T16:28:06.845Z</time></trkpt><trkpt lat="45.649541" lon="12.316432"><ele>9.5</ele><time>2026-04-26T16:28:07.856Z</time></trkpt><trkpt lat="45.6492287" lon="12.3164244"><ele>9.0</ele><time>2026-04-26T16:28:08.841Z</time></trkpt><trkpt lat="45.6489118" lon="12.3164218"><ele>8.5</ele><time>2026-04-26T16:28:09.848Z</time></trkpt><trkpt lat="45.6485956" lon="12.3164231"><ele>8.0</ele><time>2026-04-26T16:28:10.857Z</time></trkpt><trkpt lat="45.6482812" lon="12.3164265"><ele>8.0</ele><time>2026-04-26T16:28:11.852Z</time></trkpt><trkpt lat="45.6479639" lon="12.3164297"><ele>8.0</ele><time>2026-04-26T16:28:12.864Z</time></trkpt><trkpt lat="45.6476491" lon="12.3164359"><ele>8.5</ele><time>2026-04-26T16:28:13.86Z</time></trkpt><trkpt lat="45.6473322" lon="12.3164458"><ele>9.0</ele><time>2026-04-26T16:28:14.866Z</time></trkpt><trkpt lat="45.6470153" lon="12.3164597"><ele>9.0</ele><time>2026-04-26T16:28:15.856Z</time></trkpt><trkpt lat="45.6466988" lon="12.3164738"><ele>9.0</ele><time>2026-04-26T16:28:16.878Z</time></trkpt><trkpt lat="45.6463847" lon="12.3164867"><ele>9.5</ele><time>2026-04-26T16:28:17.869Z</time></trkpt><trkpt lat="45.6460726" lon="12.3164957"><ele>10.0</ele><time>2026-04-26T16:28:18.854Z</time></trkpt><trkpt lat="45.6457549" lon="12.3165058"><ele>10.0</ele><time>2026-04-26T16:28:19.865Z</time></trkpt><trkpt lat="45.64544" lon="12.3165197"><ele>10.0</ele><time>2026-04-26T16:28:20.867Z</time></trkpt><trkpt lat="45.6451265" lon="12.3165319"><ele>8.5</ele><time>2026-04-26T16:28:21.854Z</time></trkpt><trkpt lat="45.6448115" lon="12.3165413"><ele>7.0</ele><time>2026-04-26T16:28:22.845Z</time></trkpt><trkpt lat="45.6444931" lon="12.3165485"><ele>8.5</ele><time>2026-04-26T16:28:23.863Z</time></trkpt><trkpt lat="45.6441798" lon="12.3165338"><ele>10.0</ele><time>2026-04-26T16:28:24.857Z</time></trkpt><trkpt lat="45.6438661" lon="12.316495"><ele>9.5</ele><time>2026-04-26T16:28:25.874Z</time></trkpt><trkpt lat="45.6435564" lon="12.316443"><ele>9.0</ele><time>2026-04-26T16:28:26.871Z</time></trkpt><trkpt lat="45.6432473" lon="12.3163745"><ele>9.0</ele><time>2026-04-26T16:28:27.872Z</time></trkpt><trkpt lat="45.6429385" lon="12.3162901"><ele>9.0</ele><time>2026-04-26T16:28:28.86Z</time></trkpt><trkpt lat="45.6426283" lon="12.316194"><ele>9.0</ele><time>2026-04-26T16:28:29.862Z</time></trkpt><trkpt lat="45.6423224" lon="12.3160872"><ele>9.0</ele><time>2026-04-26T16:28:30.854Z</time></trkpt><trkpt lat="45.6420179" lon="12.3159605"><ele>7.0</ele><time>2026-04-26T16:28:31.868Z</time></trkpt><trkpt lat="45.641724" lon="12.3158171"><ele>5.0</ele><time>2026-04-26T16:28:32.859Z</time></trkpt><trkpt lat="45.6414258" lon="12.3156556"><ele>6.0</ele><time>2026-04-26T16:28:33.856Z</time></trkpt><trkpt lat="45.6411352" lon="12.3154856"><ele>7.0</ele><time>2026-04-26T16:28:34.86Z</time></trkpt><trkpt lat="45.6408423" lon="12.3153109"><ele>8.5</ele><time>2026-04-26T16:28:35.871Z</time></trkpt><trkpt lat="45.6405539" lon="12.3151371"><ele>10.0</ele><time>2026-04-26T16:28:36.861Z</time></trkpt><trkpt lat="45.6402624" lon="12.3149594"><ele>10.0</ele><time>2026-04-26T16:28:37.853Z</time></trkpt><trkpt lat="45.6399711" lon="12.3147804"><ele>10.0</ele><time>2026-04-26T16:28:38.86Z</time></trkpt><trkpt lat="45.6396803" lon="12.3146002"><ele>7.5</ele><time>2026-04-26T16:28:39.861Z</time></trkpt><trkpt lat="45.6393902" lon="12.3144223"><ele>5.0</ele><time>2026-04-26T16:28:40.863Z</time></trkpt><trkpt lat="45.6390948" lon="12.3142477"><ele>5.0</ele><time>2026-04-26T16:28:41.862Z</time></trkpt><trkpt lat="45.6388022" lon="12.3140777"><ele>5.0</ele><time>2026-04-26T16:28:42.864Z</time></trkpt><trkpt lat="45.6385114" lon="12.3139062"><ele>5.0</ele><time>2026-04-26T16:28:43.857Z</time></trkpt><trkpt lat="45.6382182" lon="12.3137312"><ele>5.0</ele><time>2026-04-26T16:28:44.86Z</time></trkpt><trkpt lat="45.637927" lon="12.3135591"><ele>5.5</ele><time>2026-04-26T16:28:45.852Z</time></trkpt><trkpt lat="45.637634" lon="12.3133886"><ele>6.0</ele><time>2026-04-26T16:28:46.854Z</time></trkpt><trkpt lat="45.6373423" lon="12.3132206"><ele>4.0</ele><time>2026-04-26T16:28:47.859Z</time></trkpt><trkpt lat="45.6370513" lon="12.3130513"><ele>2.0</ele><time>2026-04-26T16:28:48.865Z</time></trkpt><trkpt lat="45.6367559" lon="12.312882"><ele>1.5</ele><time>2026-04-26T16:28:49.88Z</time></trkpt><trkpt lat="45.6364669" lon="12.3127159"><ele>1.0</ele><time>2026-04-26T16:28:50.867Z</time></trkpt><trkpt lat="45.636177" lon="12.3125484"><ele>1.5</ele><time>2026-04-26T16:28:51.854Z</time></trkpt><trkpt lat="45.6358827" lon="12.3123766"><ele>2.0</ele><time>2026-04-26T16:28:52.856Z</time></trkpt><trkpt lat="45.6355909" lon="12.3122028"><ele>2.0</ele><time>2026-04-26T16:28:53.871Z</time></trkpt><trkpt lat="45.635302" lon="12.3120213"><ele>2.0</ele><time>2026-04-26T16:28:54.856Z</time></trkpt><trkpt lat="45.6350024" lon="12.3118481"><ele>2.0</ele><time>2026-04-26T16:28:55.866Z</time></trkpt><trkpt lat="45.6347158" lon="12.3116619"><ele>2.0</ele><time>2026-04-26T16:28:56.869Z</time></trkpt><trkpt lat="45.634435" lon="12.3114646"><ele>2.0</ele><time>2026-04-26T16:28:57.856Z</time></trkpt><trkpt lat="45.6341523" lon="12.3112614"><ele>2.0</ele><time>2026-04-26T16:28:58.855Z</time></trkpt><trkpt lat="45.6338734" lon="12.3110581"><ele>2.0</ele><time>2026-04-26T16:28:59.854Z</time></trkpt><trkpt lat="45.6335931" lon="12.3108482"><ele>2.0</ele><time>2026-04-26T16:29:00.864Z</time></trkpt><trkpt lat="45.6333151" lon="12.3106346"><ele>1.5</ele><time>2026-04-26T16:29:01.871Z</time></trkpt><trkpt lat="45.6330368" lon="12.3104171"><ele>1.0</ele><time>2026-04-26T16:29:02.862Z</time></trkpt><trkpt lat="45.6327616" lon="12.3101964"><ele>0.5</ele><time>2026-04-26T16:29:03.854Z</time></trkpt><trkpt lat="45.6324784" lon="12.3099653"><ele>0.0</ele><time>2026-04-26T16:29:04.86Z</time></trkpt><trkpt lat="45.6321809" lon="12.3097223"><ele>3.0</ele><time>2026-04-26T16:29:05.877Z</time></trkpt><trkpt lat="45.6318758" lon="12.3094613"><ele>6.0</ele><time>2026-04-26T16:29:06.867Z</time></trkpt><trkpt lat="45.6315618" lon="12.3091777"><ele>5.5</ele><time>2026-04-26T16:29:07.865Z</time></trkpt><trkpt lat="45.63126" lon="12.3088864"><ele>5.0</ele><time>2026-04-26T16:29:08.858Z</time></trkpt><trkpt lat="45.6309615" lon="12.308586"><ele>5.0</ele><time>2026-04-26T16:29:09.89Z</time></trkpt><trkpt lat="45.6306814" lon="12.3083005"><ele>5.0</ele><time>2026-04-26T16:29:10.87Z</time></trkpt><trkpt lat="45.6304093" lon="12.3080107"><ele>6.0</ele><time>2026-04-26T16:29:11.878Z</time></trkpt><trkpt lat="45.6301481" lon="12.3077281"><ele>7.0</ele><time>2026-04-26T16:29:12.861Z</time></trkpt><trkpt lat="45.6298913" lon="12.3074465"><ele>6.5</ele><time>2026-04-26T16:29:13.862Z</time></trkpt><trkpt lat="45.6296385" lon="12.3071698"><ele>6.0</ele><time>2026-04-26T16:29:14.864Z</time></trkpt><trkpt lat="45.6293905" lon="12.3068968"><ele>6.0</ele><time>2026-04-26T16:29:15.858Z</time></trkpt><trkpt lat="45.6291394" lon="12.3066278"><ele>6.0</ele><time>2026-04-26T16:29:16.855Z</time></trkpt><trkpt lat="45.6288898" lon="12.3063597"><ele>7.5</ele><time>2026-04-26T16:29:17.866Z</time></trkpt><trkpt lat="45.6286389" lon="12.3060939"><ele>9.0</ele><time>2026-04-26T16:29:18.848Z</time></trkpt><trkpt lat="45.6283843" lon="12.3058252"><ele>8.0</ele><time>2026-04-26T16:29:19.855Z</time></trkpt><trkpt lat="45.6281285" lon="12.3055639"><ele>7.0</ele><time>2026-04-26T16:29:20.86Z</time></trkpt><trkpt lat="45.6278681" lon="12.3053134"><ele>7.5</ele><time>2026-04-26T16:29:21.87Z</time></trkpt><trkpt lat="45.6276021" lon="12.3050687"><ele>8.0</ele><time>2026-04-26T16:29:22.866Z</time></trkpt><trkpt lat="45.6273347" lon="12.3048361"><ele>8.0</ele><time>2026-04-26T16:29:23.87Z</time></trkpt><trkpt lat="45.6270614" lon="12.3046098"><ele>8.0</ele><time>2026-04-26T16:29:24.856Z</time></trkpt><trkpt lat="45.6267854" lon="12.3043918"><ele>6.5</ele><time>2026-04-26T16:29:25.863Z</time></trkpt><trkpt lat="45.6265072" lon="12.3041809"><ele>5.0</ele><time>2026-04-26T16:29:26.857Z</time></trkpt><trkpt lat="45.6262281" lon="12.3039764"><ele>5.5</ele><time>2026-04-26T16:29:27.858Z</time></trkpt><trkpt lat="45.625942" lon="12.303782"><ele>6.0</ele><time>2026-04-26T16:29:28.864Z</time></trkpt><trkpt lat="45.6256543" lon="12.3036"><ele>6.0</ele><time>2026-04-26T16:29:29.853Z</time></trkpt><trkpt lat="45.62536" lon="12.3034291"><ele>6.0</ele><time>2026-04-26T16:29:30.862Z</time></trkpt><trkpt lat="45.6250661" lon="12.303267"><ele>6.0</ele><time>2026-04-26T16:29:31.87Z</time></trkpt><trkpt lat="45.62477" lon="12.3031138"><ele>6.0</ele><time>2026-04-26T16:29:32.872Z</time></trkpt><trkpt lat="45.6244697" lon="12.3029699"><ele>6.0</ele><time>2026-04-26T16:29:33.866Z</time></trkpt><trkpt lat="45.6241684" lon="12.3028375"><ele>6.0</ele><time>2026-04-26T16:29:34.867Z</time></trkpt><trkpt lat="45.623867" lon="12.3027129"><ele>6.5</ele><time>2026-04-26T16:29:35.865Z</time></trkpt><trkpt lat="45.6235601" lon="12.3025883"><ele>7.0</ele><time>2026-04-26T16:29:36.872Z</time></trkpt><trkpt lat="45.6232571" lon="12.3024701"><ele>7.0</ele><time>2026-04-26T16:29:37.851Z</time></trkpt><trkpt lat="45.6229463" lon="12.3023526"><ele>7.0</ele><time>2026-04-26T16:29:38.864Z</time></trkpt><trkpt lat="45.6226381" lon="12.3022508"><ele>6.0</ele><time>2026-04-26T16:29:39.853Z</time></trkpt><trkpt lat="45.6223346" lon="12.3021423"><ele>5.0</ele><time>2026-04-26T16:29:40.855Z</time></trkpt><trkpt lat="45.6220282" lon="12.302031"><ele>6.0</ele><time>2026-04-26T16:29:41.851Z</time></trkpt><trkpt lat="45.6217221" lon="12.3019203"><ele>7.0</ele><time>2026-04-26T16:29:42.871Z</time></trkpt><trkpt lat="45.6214182" lon="12.3018057"><ele>6.0</ele><time>2026-04-26T16:29:43.862Z</time></trkpt><trkpt lat="45.6211118" lon="12.3016911"><ele>5.0</ele><time>2026-04-26T16:29:44.871Z</time></trkpt><trkpt lat="45.6208085" lon="12.3015793"><ele>5.0</ele><time>2026-04-26T16:29:45.857Z</time></trkpt><trkpt lat="45.6205028" lon="12.3014662"><ele>5.0</ele><time>2026-04-26T16:29:46.858Z</time></trkpt><trkpt lat="45.620199" lon="12.3013502"><ele>5.5</ele><time>2026-04-26T16:29:47.849Z</time></trkpt><trkpt lat="45.6198915" lon="12.3012311"><ele>6.0</ele><time>2026-04-26T16:29:48.861Z</time></trkpt><trkpt lat="45.619585" lon="12.301118"><ele>6.5</ele><time>2026-04-26T16:29:49.863Z</time></trkpt><trkpt lat="45.6192802" lon="12.3010057"><ele>7.0</ele><time>2026-04-26T16:29:50.867Z</time></trkpt><trkpt lat="45.6189721" lon="12.3009031"><ele>7.0</ele><time>2026-04-26T16:29:51.857Z</time></trkpt><trkpt lat="45.6186657" lon="12.3007923"><ele>7.0</ele><time>2026-04-26T16:29:52.868Z</time></trkpt><trkpt lat="45.6183602" lon="12.3006817"><ele>7.0</ele><time>2026-04-26T16:29:53.877Z</time></trkpt><trkpt lat="45.6180554" lon="12.3005733"><ele>7.0</ele><time>2026-04-26T16:29:54.859Z</time></trkpt><trkpt lat="45.6177474" lon="12.3004598"><ele>7.0</ele><time>2026-04-26T16:29:55.866Z</time></trkpt><trkpt lat="45.6174434" lon="12.3003443"><ele>7.0</ele><time>2026-04-26T16:29:56.865Z</time></trkpt><trkpt lat="45.6171346" lon="12.300231"><ele>7.5</ele><time>2026-04-26T16:29:57.88Z</time></trkpt><trkpt lat="45.6168307" lon="12.3001182"><ele>8.0</ele><time>2026-04-26T16:29:58.855Z</time></trkpt><trkpt lat="45.6165233" lon="12.3000084"><ele>8.0</ele><time>2026-04-26T16:29:59.862Z</time></trkpt><trkpt lat="45.6162165" lon="12.2998976"><ele>8.0</ele><time>2026-04-26T16:30:00.854Z</time></trkpt><trkpt lat="45.6159097" lon="12.2997872"><ele>7.5</ele><time>2026-04-26T16:30:01.852Z</time></trkpt><trkpt lat="45.615603" lon="12.2996751"><ele>7.0</ele><time>2026-04-26T16:30:02.854Z</time></trkpt><trkpt lat="45.6152968" lon="12.2995599"><ele>7.0</ele><time>2026-04-26T16:30:03.864Z</time></trkpt><trkpt lat="45.6149902" lon="12.2994453"><ele>7.0</ele><time>2026-04-26T16:30:04.864Z</time></trkpt><trkpt lat="45.6146821" lon="12.299336"><ele>6.5</ele><time>2026-04-26T16:30:05.873Z</time></trkpt><trkpt lat="45.6143742" lon="12.2992296"><ele>6.0</ele><time>2026-04-26T16:30:06.857Z</time></trkpt><trkpt lat="45.6140687" lon="12.2991273"><ele>6.0</ele><time>2026-04-26T16:30:07.852Z</time></trkpt><trkpt lat="45.6137544" lon="12.2990254"><ele>6.0</ele><time>2026-04-26T16:30:08.882Z</time></trkpt><trkpt lat="45.613451" lon="12.2989217"><ele>6.5</ele><time>2026-04-26T16:30:09.865Z</time></trkpt><trkpt lat="45.6131389" lon="12.2988226"><ele>7.0</ele><time>2026-04-26T16:30:10.856Z</time></trkpt><trkpt lat="45.6128297" lon="12.2987311"><ele>7.0</ele><time>2026-04-26T16:30:11.856Z</time></trkpt><trkpt lat="45.6125185" lon="12.2986429"><ele>7.0</ele><time>2026-04-26T16:30:12.851Z</time></trkpt><trkpt lat="45.612207" lon="12.298558"><ele>7.0</ele><time>2026-04-26T16:30:13.866Z</time></trkpt><trkpt lat="45.6118978" lon="12.2984795"><ele>7.0</ele><time>2026-04-26T16:30:14.856Z</time></trkpt><trkpt lat="45.6115832" lon="12.2984046"><ele>7.0</ele><time>2026-04-26T16:30:15.857Z</time></trkpt><trkpt lat="45.6112723" lon="12.2983318"><ele>7.0</ele><time>2026-04-26T16:30:16.86Z</time></trkpt><trkpt lat="45.6109602" lon="12.2982626"><ele>6.5</ele><time>2026-04-26T16:30:17.857Z</time></trkpt><trkpt lat="45.6106485" lon="12.2981973"><ele>6.0</ele><time>2026-04-26T16:30:18.866Z</time></trkpt><trkpt lat="45.6103367" lon="12.2981335"><ele>6.0</ele><time>2026-04-26T16:30:19.858Z</time></trkpt><trkpt lat="45.6100239" lon="12.298075"><ele>6.0</ele><time>2026-04-26T16:30:20.864Z</time></trkpt><trkpt lat="45.6097113" lon="12.2980309"><ele>6.0</ele><time>2026-04-26T16:30:21.863Z</time></trkpt><trkpt lat="45.6093973" lon="12.2979847"><ele>6.0</ele><time>2026-04-26T16:30:22.856Z</time></trkpt><trkpt lat="45.6090815" lon="12.2979395"><ele>6.0</ele><time>2026-04-26T16:30:23.862Z</time></trkpt><trkpt lat="45.6087682" lon="12.2978946"><ele>6.0</ele><time>2026-04-26T16:30:24.867Z</time></trkpt><trkpt lat="45.6084554" lon="12.2978492"><ele>7.0</ele><time>2026-04-26T16:30:25.86Z</time></trkpt><trkpt lat="45.6081398" lon="12.2978036"><ele>8.0</ele><time>2026-04-26T16:30:26.875Z</time></trkpt><trkpt lat="45.6078305" lon="12.2977614"><ele>8.0</ele><time>2026-04-26T16:30:27.86Z</time></trkpt><trkpt lat="45.6075158" lon="12.2977186"><ele>8.0</ele><time>2026-04-26T16:30:28.861Z</time></trkpt><trkpt lat="45.6072014" lon="12.2976728"><ele>8.5</ele><time>2026-04-26T16:30:29.865Z</time></trkpt><trkpt lat="45.606888" lon="12.2976271"><ele>9.0</ele><time>2026-04-26T16:30:30.846Z</time></trkpt><trkpt lat="45.6065717" lon="12.2975786"><ele>9.0</ele><time>2026-04-26T16:30:31.86Z</time></trkpt><trkpt lat="45.6062573" lon="12.297529"><ele>9.0</ele><time>2026-04-26T16:30:32.869Z</time></trkpt><trkpt lat="45.6059484" lon="12.2974799"><ele>9.0</ele><time>2026-04-26T16:30:33.855Z</time></trkpt><trkpt lat="45.6056319" lon="12.2974284"><ele>9.0</ele><time>2026-04-26T16:30:34.864Z</time></trkpt><trkpt lat="45.60532" lon="12.2973782"><ele>9.0</ele><time>2026-04-26T16:30:35.866Z</time></trkpt><trkpt lat="45.6050083" lon="12.2973268"><ele>9.0</ele><time>2026-04-26T16:30:36.856Z</time></trkpt><trkpt lat="45.6046939" lon="12.2972768"><ele>7.5</ele><time>2026-04-26T16:30:37.863Z</time></trkpt><trkpt lat="45.6043788" lon="12.2972275"><ele>6.0</ele><time>2026-04-26T16:30:38.873Z</time></trkpt><trkpt lat="45.6040667" lon="12.2971783"><ele>6.0</ele><time>2026-04-26T16:30:39.869Z</time></trkpt><trkpt lat="45.603753" lon="12.297131"><ele>6.0</ele><time>2026-04-26T16:30:40.865Z</time></trkpt><trkpt lat="45.6034374" lon="12.2970834"><ele>5.5</ele><time>2026-04-26T16:30:41.867Z</time></trkpt><trkpt lat="45.6031241" lon="12.297037"><ele>5.0</ele><time>2026-04-26T16:30:42.871Z</time></trkpt><trkpt lat="45.6028102" lon="12.2969911"><ele>5.0</ele><time>2026-04-26T16:30:43.875Z</time></trkpt><trkpt lat="45.602498" lon="12.2969421"><ele>5.0</ele><time>2026-04-26T16:30:44.852Z</time></trkpt><trkpt lat="45.602178" lon="12.2968926"><ele>5.5</ele><time>2026-04-26T16:30:45.869Z</time></trkpt><trkpt lat="45.6018658" lon="12.2968457"><ele>6.0</ele><time>2026-04-26T16:30:46.858Z</time></trkpt><trkpt lat="45.6015515" lon="12.2968"><ele>6.0</ele><time>2026-04-26T16:30:47.856Z</time></trkpt><trkpt lat="45.6012394" lon="12.2967568"><ele>6.0</ele><time>2026-04-26T16:30:48.856Z</time></trkpt><trkpt lat="45.6009245" lon="12.2967123"><ele>5.5</ele><time>2026-04-26T16:30:49.854Z</time></trkpt><trkpt lat="45.6006093" lon="12.2966674"><ele>5.0</ele><time>2026-04-26T16:30:50.855Z</time></trkpt><trkpt lat="45.6002924" lon="12.2966194"><ele>4.0</ele><time>2026-04-26T16:30:51.872Z</time></trkpt><trkpt lat="45.5999811" lon="12.2965699"><ele>3.0</ele><time>2026-04-26T16:30:52.855Z</time></trkpt><trkpt lat="45.599667" lon="12.2965233"><ele>3.5</ele><time>2026-04-26T16:30:53.86Z</time></trkpt><trkpt lat="45.5993506" lon="12.296482"><ele>4.0</ele><time>2026-04-26T16:30:54.863Z</time></trkpt><trkpt lat="45.5990389" lon="12.296443"><ele>4.0</ele><time>2026-04-26T16:30:55.863Z</time></trkpt><trkpt lat="45.5987235" lon="12.2964046"><ele>4.0</ele><time>2026-04-26T16:30:56.86Z</time></trkpt><trkpt lat="45.5984085" lon="12.2963665"><ele>4.0</ele><time>2026-04-26T16:30:57.864Z</time></trkpt><trkpt lat="45.5980957" lon="12.2963231"><ele>4.0</ele><time>2026-04-26T16:30:58.849Z</time></trkpt><trkpt lat="45.5977804" lon="12.2962745"><ele>3.5</ele><time>2026-04-26T16:30:59.859Z</time></trkpt><trkpt lat="45.5974678" lon="12.2962168"><ele>3.0</ele><time>2026-04-26T16:31:00.858Z</time></trkpt><trkpt lat="45.5971556" lon="12.2961582"><ele>3.5</ele><time>2026-04-26T16:31:01.853Z</time></trkpt><trkpt lat="45.596844" lon="12.2960982"><ele>4.0</ele><time>2026-04-26T16:31:02.861Z</time></trkpt><trkpt lat="45.59653" lon="12.2960415"><ele>4.0</ele><time>2026-04-26T16:31:03.855Z</time></trkpt><trkpt lat="45.5962157" lon="12.2959867"><ele>4.0</ele><time>2026-04-26T16:31:04.858Z</time></trkpt><trkpt lat="45.5959016" lon="12.2959336"><ele>3.5</ele><time>2026-04-26T16:31:05.861Z</time></trkpt><trkpt lat="45.5955886" lon="12.295882"><ele>3.0</ele><time>2026-04-26T16:31:06.86Z</time></trkpt><trkpt lat="45.5952778" lon="12.2958341"><ele>2.5</ele><time>2026-04-26T16:31:07.856Z</time></trkpt><trkpt lat="45.5949781" lon="12.2957903"><ele>2.0</ele><time>2026-04-26T16:31:08.858Z</time></trkpt><trkpt lat="45.5946847" lon="12.2957449"><ele>4.0</ele><time>2026-04-26T16:31:09.87Z</time></trkpt><trkpt lat="45.5943924" lon="12.2957017"><ele>6.0</ele><time>2026-04-26T16:31:10.863Z</time></trkpt><trkpt lat="45.5940985" lon="12.2956598"><ele>6.0</ele><time>2026-04-26T16:31:11.857Z</time></trkpt><trkpt lat="45.5938051" lon="12.2956164"><ele>6.0</ele><time>2026-04-26T16:31:12.866Z</time></trkpt><trkpt lat="45.5935105" lon="12.2955715"><ele>6.0</ele><time>2026-04-26T16:31:13.873Z</time></trkpt><trkpt lat="45.5932189" lon="12.2955279"><ele>6.0</ele><time>2026-04-26T16:31:14.867Z</time></trkpt><trkpt lat="45.5929234" lon="12.2954809"><ele>5.0</ele><time>2026-04-26T16:31:15.856Z</time></trkpt><trkpt lat="45.5926268" lon="12.295435"><ele>4.0</ele><time>2026-04-26T16:31:16.866Z</time></trkpt><trkpt lat="45.5923396" lon="12.2953873"><ele>4.0</ele><time>2026-04-26T16:31:17.857Z</time></trkpt><trkpt lat="45.5920542" lon="12.2953361"><ele>4.0</ele><time>2026-04-26T16:31:18.864Z</time></trkpt><trkpt lat="45.5917767" lon="12.295288"><ele>4.5</ele><time>2026-04-26T16:31:19.854Z</time></trkpt><trkpt lat="45.5915075" lon="12.2952421"><ele>5.0</ele><time>2026-04-26T16:31:20.853Z</time></trkpt><trkpt lat="45.5912569" lon="12.2951989"><ele>5.5</ele><time>2026-04-26T16:31:21.865Z</time></trkpt><trkpt lat="45.5910165" lon="12.2951588"><ele>6.0</ele><time>2026-04-26T16:31:22.85Z</time></trkpt><trkpt lat="45.5907828" lon="12.2951201"><ele>6.0</ele><time>2026-04-26T16:31:23.855Z</time></trkpt><trkpt lat="45.5905593" lon="12.2950834"><ele>6.0</ele><time>2026-04-26T16:31:24.86Z</time></trkpt><trkpt lat="45.5903435" lon="12.2950459"><ele>6.0</ele><time>2026-04-26T16:31:25.861Z</time></trkpt><trkpt lat="45.5901418" lon="12.2950041"><ele>6.333333333333334</ele><time>2026-04-26T16:31:26.855Z</time></trkpt><trkpt lat="45.5899477" lon="12.2949504"><ele>6.666666666666667</ele><time>2026-04-26T16:31:27.864Z</time></trkpt><trkpt lat="45.5897533" lon="12.2948815"><ele>7.0</ele><time>2026-04-26T16:31:28.872Z</time></trkpt><trkpt lat="45.5895649" lon="12.2947861"><ele>5.333333333333334</ele><time>2026-04-26T16:31:29.863Z</time></trkpt><trkpt lat="45.5893959" lon="12.2946608"><ele>3.666666666666667</ele><time>2026-04-26T16:31:30.852Z</time></trkpt><trkpt lat="45.589237" lon="12.2945039"><ele>2.0</ele><time>2026-04-26T16:31:31.861Z</time></trkpt><trkpt lat="45.5890859" lon="12.2943175"><ele>2.0</ele><time>2026-04-26T16:31:32.853Z</time></trkpt><trkpt lat="45.5889602" lon="12.2941169"><ele>2.0</ele><time>2026-04-26T16:31:33.859Z</time></trkpt><trkpt lat="45.5888506" lon="12.2938973"><ele>2.0</ele><time>2026-04-26T16:31:34.853Z</time></trkpt><trkpt lat="45.5887492" lon="12.2936501"><ele>2.0</ele><time>2026-04-26T16:31:35.866Z</time></trkpt><trkpt lat="45.5886551" lon="12.2933802"><ele>2.0</ele><time>2026-04-26T16:31:36.851Z</time></trkpt><trkpt lat="45.5885763" lon="12.2931139"><ele>2.0</ele><time>2026-04-26T16:31:37.856Z</time></trkpt><trkpt lat="45.5884994" lon="12.2928439"><ele>1.6666666666666665</ele><time>2026-04-26T16:31:38.855Z</time></trkpt><trkpt lat="45.5884266" lon="12.2925826"><ele>1.3333333333333333</ele><time>2026-04-26T16:31:39.856Z</time></trkpt><trkpt lat="45.588361" lon="12.2923158"><ele>1.0</ele><time>2026-04-26T16:31:40.864Z</time></trkpt><trkpt lat="45.5882725" lon="12.291968"><ele>1.0</ele><time>2026-04-26T16:31:41.863Z</time></trkpt><trkpt lat="45.588231" lon="12.2916955"><ele>1.0</ele><time>2026-04-26T16:31:42.867Z</time></trkpt><trkpt lat="45.5882222" lon="12.2913704"><ele>1.0</ele><time>2026-04-26T16:31:43.863Z</time></trkpt><trkpt lat="45.5882283" lon="12.2911029"><ele>1.3333333333333333</ele><time>2026-04-26T16:31:44.855Z</time></trkpt><trkpt lat="45.5882435" lon="12.2908266"><ele>1.6666666666666665</ele><time>2026-04-26T16:31:45.863Z</time></trkpt><trkpt lat="45.5882749" lon="12.2905598"><ele>2.0</ele><time>2026-04-26T16:31:46.864Z</time></trkpt><trkpt lat="45.5883186" lon="12.290295"><ele>2.0</ele><time>2026-04-26T16:31:47.857Z</time></trkpt><trkpt lat="45.5883705" lon="12.2900216"><ele>2.0</ele><time>2026-04-26T16:31:48.862Z</time></trkpt><trkpt lat="45.5884267" lon="12.2897347"><ele>2.0</ele><time>2026-04-26T16:31:49.864Z</time></trkpt><trkpt lat="45.5884867" lon="12.2894342"><ele>2.5</ele><time>2026-04-26T16:31:50.86Z</time></trkpt><trkpt lat="45.5885498" lon="12.2891311"><ele>3.0</ele><time>2026-04-26T16:31:51.858Z</time></trkpt><trkpt lat="45.5886177" lon="12.2888169"><ele>3.0</ele><time>2026-04-26T16:31:52.86Z</time></trkpt><trkpt lat="45.5886889" lon="12.2884897"><ele>3.0</ele><time>2026-04-26T16:31:53.872Z</time></trkpt><trkpt lat="45.5887611" lon="12.2881503"><ele>4.0</ele><time>2026-04-26T16:31:54.867Z</time></trkpt><trkpt lat="45.5888349" lon="12.2878001"><ele>5.0</ele><time>2026-04-26T16:31:55.864Z</time></trkpt><trkpt lat="45.5889099" lon="12.2874387"><ele>5.0</ele><time>2026-04-26T16:31:56.869Z</time></trkpt><trkpt lat="45.5889862" lon="12.2870716"><ele>5.0</ele><time>2026-04-26T16:31:57.862Z</time></trkpt><trkpt lat="45.5890619" lon="12.286704"><ele>5.0</ele><time>2026-04-26T16:31:58.86Z</time></trkpt><trkpt lat="45.5891381" lon="12.2863347"><ele>5.0</ele><time>2026-04-26T16:31:59.867Z</time></trkpt><trkpt lat="45.5892154" lon="12.2859638"><ele>5.5</ele><time>2026-04-26T16:32:00.856Z</time></trkpt><trkpt lat="45.5892932" lon="12.2855901"><ele>6.0</ele><time>2026-04-26T16:32:01.854Z</time></trkpt><trkpt lat="45.5893701" lon="12.2852172"><ele>6.0</ele><time>2026-04-26T16:32:02.855Z</time></trkpt><trkpt lat="45.5894464" lon="12.2848436"><ele>6.0</ele><time>2026-04-26T16:32:03.864Z</time></trkpt><trkpt lat="45.5895235" lon="12.2844696"><ele>5.0</ele><time>2026-04-26T16:32:04.859Z</time></trkpt><trkpt lat="45.589601" lon="12.2840905"><ele>4.0</ele><time>2026-04-26T16:32:05.864Z</time></trkpt><trkpt lat="45.5896779" lon="12.2837166"><ele>3.5</ele><time>2026-04-26T16:32:06.857Z</time></trkpt><trkpt lat="45.5897554" lon="12.2833352"><ele>3.0</ele><time>2026-04-26T16:32:07.883Z</time></trkpt><trkpt lat="45.5898305" lon="12.2829613"><ele>3.0</ele><time>2026-04-26T16:32:08.859Z</time></trkpt><trkpt lat="45.5899076" lon="12.2825798"><ele>3.0</ele><time>2026-04-26T16:32:09.854Z</time></trkpt><trkpt lat="45.5899857" lon="12.2821915"><ele>3.0</ele><time>2026-04-26T16:32:10.863Z</time></trkpt><trkpt lat="45.5900626" lon="12.2818052"><ele>3.0</ele><time>2026-04-26T16:32:11.861Z</time></trkpt><trkpt lat="45.590141" lon="12.2814139"><ele>4.0</ele><time>2026-04-26T16:32:12.859Z</time></trkpt><trkpt lat="45.5902201" lon="12.2810166"><ele>5.0</ele><time>2026-04-26T16:32:13.862Z</time></trkpt><trkpt lat="45.5902986" lon="12.2806212"><ele>6.5</ele><time>2026-04-26T16:32:14.871Z</time></trkpt><trkpt lat="45.5903785" lon="12.280228"><ele>8.0</ele><time>2026-04-26T16:32:15.863Z</time></trkpt><trkpt lat="45.5904584" lon="12.2798352"><ele>7.5</ele><time>2026-04-26T16:32:16.853Z</time></trkpt><trkpt lat="45.59054" lon="12.2794381"><ele>7.0</ele><time>2026-04-26T16:32:17.86Z</time></trkpt><trkpt lat="45.5906225" lon="12.2790415"><ele>6.0</ele><time>2026-04-26T16:32:18.859Z</time></trkpt><trkpt lat="45.5907061" lon="12.2786405"><ele>5.0</ele><time>2026-04-26T16:32:19.85Z</time></trkpt><trkpt lat="45.5907933" lon="12.278233"><ele>4.5</ele><time>2026-04-26T16:32:20.855Z</time></trkpt><trkpt lat="45.5908838" lon="12.2778221"><ele>4.0</ele><time>2026-04-26T16:32:21.851Z</time></trkpt><trkpt lat="45.5909736" lon="12.277408"><ele>4.0</ele><time>2026-04-26T16:32:22.856Z</time></trkpt><trkpt lat="45.5910606" lon="12.2770002"><ele>4.0</ele><time>2026-04-26T16:32:23.853Z</time></trkpt><trkpt lat="45.5911424" lon="12.2766003"><ele>3.5</ele><time>2026-04-26T16:32:24.859Z</time></trkpt><trkpt lat="45.5912198" lon="12.2762203"><ele>3.0</ele><time>2026-04-26T16:32:25.853Z</time></trkpt><trkpt lat="45.5912954" lon="12.2758572"><ele>3.0</ele><time>2026-04-26T16:32:26.856Z</time></trkpt><trkpt lat="45.5913664" lon="12.2755141"><ele>3.0</ele><time>2026-04-26T16:32:27.861Z</time></trkpt><trkpt lat="45.5914372" lon="12.2751913"><ele>3.0</ele><time>2026-04-26T16:32:28.848Z</time></trkpt><trkpt lat="45.5915117" lon="12.2748853"><ele>3.0</ele><time>2026-04-26T16:32:29.858Z</time></trkpt><trkpt lat="45.5915901" lon="12.2745984"><ele>3.0</ele><time>2026-04-26T16:32:30.847Z</time></trkpt><trkpt lat="45.5916707" lon="12.2743206"><ele>3.0</ele><time>2026-04-26T16:32:31.881Z</time></trkpt><trkpt lat="45.5917395" lon="12.2740552"><ele>3.0</ele><time>2026-04-26T16:32:32.845Z</time></trkpt><trkpt lat="45.5918021" lon="12.2737787"><ele>3.0</ele><time>2026-04-26T16:32:33.863Z</time></trkpt><trkpt lat="45.591863" lon="12.2734879"><ele>3.0</ele><time>2026-04-26T16:32:34.849Z</time></trkpt><trkpt lat="45.59192" lon="12.2731928"><ele>3.0</ele><time>2026-04-26T16:32:35.859Z</time></trkpt><trkpt lat="45.5919756" lon="12.2729131"><ele>3.0</ele><time>2026-04-26T16:32:36.858Z</time></trkpt><trkpt lat="45.5920294" lon="12.2726408"><ele>3.333333333333333</ele><time>2026-04-26T16:32:37.857Z</time></trkpt><trkpt lat="45.5920798" lon="12.2723832"><ele>3.6666666666666665</ele><time>2026-04-26T16:32:38.858Z</time></trkpt><trkpt lat="45.5921272" lon="12.2721394"><ele>4.0</ele><time>2026-04-26T16:32:39.845Z</time></trkpt><trkpt lat="45.5921723" lon="12.271907"><ele>4.0</ele><time>2026-04-26T16:32:40.853Z</time></trkpt><trkpt lat="45.5922109" lon="12.2716994"><ele>4.0</ele><time>2026-04-26T16:32:41.854Z</time></trkpt><trkpt lat="45.592243" lon="12.271525"><ele>4.0</ele><time>2026-04-26T16:32:42.854Z</time></trkpt><trkpt lat="45.5922704" lon="12.2713751"><ele>4.0</ele><time>2026-04-26T16:32:43.87Z</time></trkpt><trkpt lat="45.5922952" lon="12.2712428"><ele>3.9999999999999996</ele><time>2026-04-26T16:32:44.856Z</time></trkpt><trkpt lat="45.5923169" lon="12.2711283"><ele>4.0</ele><time>2026-04-26T16:32:45.86Z</time></trkpt><trkpt lat="45.5923348" lon="12.2710346"><ele>4.0</ele><time>2026-04-26T16:32:46.864Z</time></trkpt><trkpt lat="45.592355" lon="12.2709141"><ele>4.0</ele><time>2026-04-26T16:32:48.866Z</time></trkpt><trkpt lat="45.5923341" lon="12.2708278"><ele>3.9999999999999996</ele><time>2026-04-26T16:33:29.86Z</time></trkpt><trkpt lat="45.5923905" lon="12.2707101"><ele>4.0</ele><time>2026-04-26T16:34:56.879Z</time></trkpt><trkpt lat="45.5923982" lon="12.2705897"><ele>4.0</ele><time>2026-04-26T16:35:02.862Z</time></trkpt><trkpt lat="45.5924349" lon="12.2704309"><ele>4.0</ele><time>2026-04-26T16:35:04.866Z</time></trkpt><trkpt lat="45.5924685" lon="12.2702774"><ele>4.0</ele><time>2026-04-26T16:35:05.853Z</time></trkpt><trkpt lat="45.5925073" lon="12.2700777"><ele>4.0</ele><time>2026-04-26T16:35:06.859Z</time></trkpt><trkpt lat="45.5925477" lon="12.2698567"><ele>4.0</ele><time>2026-04-26T16:35:07.86Z</time></trkpt><trkpt lat="45.5925642" lon="12.2696122"><ele>4.0</ele><time>2026-04-26T16:35:08.854Z</time></trkpt><trkpt lat="45.5925988" lon="12.2693813"><ele>4.0</ele><time>2026-04-26T16:35:09.86Z</time></trkpt><trkpt lat="45.5926369" lon="12.2691636"><ele>4.0</ele><time>2026-04-26T16:35:10.863Z</time></trkpt><trkpt lat="45.5926727" lon="12.2689575"><ele>4.0</ele><time>2026-04-26T16:35:11.86Z</time></trkpt><trkpt lat="45.5926996" lon="12.2687899"><ele>4.0</ele><time>2026-04-26T16:35:12.859Z</time></trkpt><trkpt lat="45.5927384" lon="12.2686675"><ele>4.0</ele><time>2026-04-26T16:35:13.854Z</time></trkpt><trkpt lat="45.5927917" lon="12.2685807"><ele>4.0</ele><time>2026-04-26T16:35:14.856Z</time></trkpt><trkpt lat="45.592866" lon="12.2685104"><ele>4.25</ele><time>2026-04-26T16:35:15.861Z</time></trkpt><trkpt lat="45.5929575" lon="12.2684585"><ele>4.5</ele><time>2026-04-26T16:35:16.863Z</time></trkpt><trkpt lat="45.5930791" lon="12.2684068"><ele>4.75</ele><time>2026-04-26T16:35:17.865Z</time></trkpt><trkpt lat="45.5931941" lon="12.2683043"><ele>5.0</ele><time>2026-04-26T16:35:18.855Z</time></trkpt><trkpt lat="45.593293" lon="12.2681661"><ele>4.5</ele><time>2026-04-26T16:35:19.862Z</time></trkpt><trkpt lat="45.5933519" lon="12.2679899"><ele>4.0</ele><time>2026-04-26T16:35:20.872Z</time></trkpt><trkpt lat="45.5933995" lon="12.2678253"><ele>3.5</ele><time>2026-04-26T16:35:21.872Z</time></trkpt><trkpt lat="45.5934327" lon="12.2676609"><ele>3.0</ele><time>2026-04-26T16:35:22.857Z</time></trkpt><trkpt lat="45.5934936" lon="12.2675011"><ele>3.0</ele><time>2026-04-26T16:35:23.854Z</time></trkpt><trkpt lat="45.5935938" lon="12.2673627"><ele>3.0</ele><time>2026-04-26T16:35:24.852Z</time></trkpt><trkpt lat="45.5937489" lon="12.2672745"><ele>3.0</ele><time>2026-04-26T16:35:25.857Z</time></trkpt><trkpt lat="45.5939049" lon="12.2671944"><ele>3.0</ele><time>2026-04-26T16:35:26.863Z</time></trkpt><trkpt lat="45.5940636" lon="12.2670998"><ele>3.0</ele><time>2026-04-26T16:35:27.858Z</time></trkpt><trkpt lat="45.5942395" lon="12.2670187"><ele>3.0</ele><time>2026-04-26T16:35:28.859Z</time></trkpt><trkpt lat="45.5944051" lon="12.2669162"><ele>3.666666666666667</ele><time>2026-04-26T16:35:29.865Z</time></trkpt><trkpt lat="45.5945736" lon="12.2668304"><ele>4.333333333333334</ele><time>2026-04-26T16:35:30.871Z</time></trkpt><trkpt lat="45.5947405" lon="12.2667458"><ele>5.0</ele><time>2026-04-26T16:35:31.871Z</time></trkpt><trkpt lat="45.594909" lon="12.2666647"><ele>5.0</ele><time>2026-04-26T16:35:32.906Z</time></trkpt><trkpt lat="45.5950763" lon="12.2665761"><ele>5.0</ele><time>2026-04-26T16:35:33.862Z</time></trkpt><trkpt lat="45.5952457" lon="12.2664924"><ele>5.0</ele><time>2026-04-26T16:35:34.866Z</time></trkpt><trkpt lat="45.5954173" lon="12.2664139"><ele>4.666666666666667</ele><time>2026-04-26T16:35:35.872Z</time></trkpt><trkpt lat="45.5955902" lon="12.2663429"><ele>4.333333333333333</ele><time>2026-04-26T16:35:36.863Z</time></trkpt><trkpt lat="45.595762" lon="12.2662735"><ele>4.0</ele><time>2026-04-26T16:35:37.853Z</time></trkpt><trkpt lat="45.5959333" lon="12.2662016"><ele>4.0</ele><time>2026-04-26T16:35:38.849Z</time></trkpt><trkpt lat="45.5961082" lon="12.2661488"><ele>4.0</ele><time>2026-04-26T16:35:39.857Z</time></trkpt><trkpt lat="45.5962825" lon="12.2661099"><ele>4.0</ele><time>2026-04-26T16:35:40.856Z</time></trkpt><trkpt lat="45.5964523" lon="12.2660728"><ele>4.333333333333333</ele><time>2026-04-26T16:35:41.851Z</time></trkpt><trkpt lat="45.5966169" lon="12.2660497"><ele>4.666666666666667</ele><time>2026-04-26T16:35:42.856Z</time></trkpt><trkpt lat="45.5967759" lon="12.2660365"><ele>5.0</ele><time>2026-04-26T16:35:43.857Z</time></trkpt><trkpt lat="45.5969235" lon="12.2660478"><ele>4.75</ele><time>2026-04-26T16:35:44.861Z</time></trkpt><trkpt lat="45.5970484" lon="12.266082"><ele>4.5</ele><time>2026-04-26T16:35:45.855Z</time></trkpt><trkpt lat="45.5971508" lon="12.2661607"><ele>4.25</ele><time>2026-04-26T16:35:46.855Z</time></trkpt><trkpt lat="45.5972402" lon="12.2662549"><ele>4.0</ele><time>2026-04-26T16:35:47.858Z</time></trkpt><trkpt lat="45.5973033" lon="12.2663874"><ele>4.25</ele><time>2026-04-26T16:35:48.852Z</time></trkpt><trkpt lat="45.5973348" lon="12.2665378"><ele>4.5</ele><time>2026-04-26T16:35:49.86Z</time></trkpt><trkpt lat="45.5973903" lon="12.2666731"><ele>4.75</ele><time>2026-04-26T16:35:50.855Z</time></trkpt><trkpt lat="45.5974835" lon="12.2667831"><ele>5.0</ele><time>2026-04-26T16:35:51.848Z</time></trkpt><trkpt lat="45.5976035" lon="12.2668777"><ele>5.0</ele><time>2026-04-26T16:35:52.855Z</time></trkpt><trkpt lat="45.5977545" lon="12.2669028"><ele>5.0</ele><time>2026-04-26T16:35:53.855Z</time></trkpt><trkpt lat="45.5979087" lon="12.2669241"><ele>5.0</ele><time>2026-04-26T16:35:54.85Z</time></trkpt><trkpt lat="45.5980585" lon="12.26685"><ele>5.25</ele><time>2026-04-26T16:35:55.857Z</time></trkpt><trkpt lat="45.5981814" lon="12.2667229"><ele>5.5</ele><time>2026-04-26T16:35:56.864Z</time></trkpt><trkpt lat="45.5982847" lon="12.2665728"><ele>5.75</ele><time>2026-04-26T16:35:57.863Z</time></trkpt><trkpt lat="45.5983466" lon="12.2663891"><ele>6.0</ele><time>2026-04-26T16:35:58.856Z</time></trkpt><trkpt lat="45.5983943" lon="12.2662008"><ele>6.0</ele><time>2026-04-26T16:35:59.862Z</time></trkpt><trkpt lat="45.598419" lon="12.2660189"><ele>6.0</ele><time>2026-04-26T16:36:00.865Z</time></trkpt><trkpt lat="45.5984479" lon="12.2658521"><ele>6.0</ele><time>2026-04-26T16:36:01.878Z</time></trkpt><trkpt lat="45.5984873" lon="12.2656984"><ele>6.0</ele><time>2026-04-26T16:36:02.863Z</time></trkpt><trkpt lat="45.5985627" lon="12.2655877"><ele>6.25</ele><time>2026-04-26T16:36:03.857Z</time></trkpt><trkpt lat="45.5986714" lon="12.2655376"><ele>6.5</ele><time>2026-04-26T16:36:04.865Z</time></trkpt><trkpt lat="45.5988028" lon="12.2655192"><ele>6.75</ele><time>2026-04-26T16:36:05.849Z</time></trkpt><trkpt lat="45.5989571" lon="12.2654731"><ele>7.0</ele><time>2026-04-26T16:36:06.862Z</time></trkpt><trkpt lat="45.5991359" lon="12.2654188"><ele>7.0</ele><time>2026-04-26T16:36:07.859Z</time></trkpt><trkpt lat="45.5993311" lon="12.2653607"><ele>7.0</ele><time>2026-04-26T16:36:08.851Z</time></trkpt><trkpt lat="45.5995286" lon="12.2653091"><ele>7.0</ele><time>2026-04-26T16:36:09.86Z</time></trkpt><trkpt lat="45.5997178" lon="12.2652625"><ele>6.333333333333334</ele><time>2026-04-26T16:36:10.856Z</time></trkpt><trkpt lat="45.5998974" lon="12.2652227"><ele>5.666666666666667</ele><time>2026-04-26T16:36:11.858Z</time></trkpt><trkpt lat="45.6000691" lon="12.2652065"><ele>5.0</ele><time>2026-04-26T16:36:12.862Z</time></trkpt><trkpt lat="45.6002307" lon="12.2652185"><ele>5.25</ele><time>2026-04-26T16:36:13.852Z</time></trkpt><trkpt lat="45.6003717" lon="12.2652643"><ele>5.5</ele><time>2026-04-26T16:36:14.858Z</time></trkpt><trkpt lat="45.6004846" lon="12.2653144"><ele>5.75</ele><time>2026-04-26T16:36:15.851Z</time></trkpt><trkpt lat="45.6005728" lon="12.2653899"><ele>6.0</ele><time>2026-04-26T16:36:16.852Z</time></trkpt><trkpt lat="45.6006252" lon="12.2655116"><ele>6.199999999999999</ele><time>2026-04-26T16:36:17.846Z</time></trkpt><trkpt lat="45.6006519" lon="12.2656532"><ele>6.3999999999999995</ele><time>2026-04-26T16:36:18.851Z</time></trkpt><trkpt lat="45.6006593" lon="12.2657936"><ele>6.6</ele><time>2026-04-26T16:36:19.848Z</time></trkpt><trkpt lat="45.6006762" lon="12.2659296"><ele>6.8</ele><time>2026-04-26T16:36:20.855Z</time></trkpt><trkpt lat="45.6007092" lon="12.2660649"><ele>7.0</ele><time>2026-04-26T16:36:21.856Z</time></trkpt><trkpt lat="45.6007784" lon="12.2661705"><ele>7.000000000000001</ele><time>2026-04-26T16:36:22.854Z</time></trkpt><trkpt lat="45.6008578" lon="12.2662484"><ele>7.0</ele><time>2026-04-26T16:36:23.855Z</time></trkpt><trkpt lat="45.6009384" lon="12.2663118"><ele>7.0</ele><time>2026-04-26T16:36:24.857Z</time></trkpt><trkpt lat="45.6010146" lon="12.2663684"><ele>7.0</ele><time>2026-04-26T16:36:25.854Z</time></trkpt><trkpt lat="45.6010771" lon="12.2664335"><ele>7.000000000000001</ele><time>2026-04-26T16:36:26.849Z</time></trkpt><trkpt lat="45.6011202" lon="12.2665084"><ele>7.0</ele><time>2026-04-26T16:36:27.855Z</time></trkpt><trkpt lat="45.6011436" lon="12.2666047"><ele>7.0</ele><time>2026-04-26T16:36:28.847Z</time></trkpt><trkpt lat="45.6011581" lon="12.2667209"><ele>6.999999999999999</ele><time>2026-04-26T16:36:29.851Z</time></trkpt><trkpt lat="45.6011664" lon="12.266862"><ele>6.999999999999999</ele><time>2026-04-26T16:36:30.855Z</time></trkpt><trkpt lat="45.6011748" lon="12.2670203"><ele>7.0</ele><time>2026-04-26T16:36:31.852Z</time></trkpt><trkpt lat="45.6011585" lon="12.2671848"><ele>7.0</ele><time>2026-04-26T16:36:32.852Z</time></trkpt><trkpt lat="45.6011381" lon="12.2673376"><ele>6.6</ele><time>2026-04-26T16:36:33.85Z</time></trkpt><trkpt lat="45.6010945" lon="12.2674585"><ele>6.199999999999999</ele><time>2026-04-26T16:36:34.86Z</time></trkpt><trkpt lat="45.6010422" lon="12.267557"><ele>5.8</ele><time>2026-04-26T16:36:35.852Z</time></trkpt><trkpt lat="45.6009699" lon="12.2676349"><ele>5.4</ele><time>2026-04-26T16:36:36.859Z</time></trkpt><trkpt lat="45.6008805" lon="12.2676999"><ele>5.0</ele><time>2026-04-26T16:36:37.856Z</time></trkpt><trkpt lat="45.6007865" lon="12.2677647"><ele>5.0</ele><time>2026-04-26T16:36:38.847Z</time></trkpt><trkpt lat="45.6007048" lon="12.2678549"><ele>5.0</ele><time>2026-04-26T16:36:39.85Z</time></trkpt><trkpt lat="45.6006395" lon="12.2679608"><ele>5.0</ele><time>2026-04-26T16:36:40.871Z</time></trkpt><trkpt lat="45.600603" lon="12.2680882"><ele>5.0</ele><time>2026-04-26T16:36:41.849Z</time></trkpt><trkpt lat="45.6005947" lon="12.2682258"><ele>5.0</ele><time>2026-04-26T16:36:42.844Z</time></trkpt><trkpt lat="45.6006127" lon="12.2683636"><ele>4.8</ele><time>2026-04-26T16:36:43.856Z</time></trkpt><trkpt lat="45.6006498" lon="12.2684963"><ele>4.6</ele><time>2026-04-26T16:36:44.853Z</time></trkpt><trkpt lat="45.600721" lon="12.2686003"><ele>4.4</ele><time>2026-04-26T16:36:45.861Z</time></trkpt><trkpt lat="45.6008091" lon="12.2686744"><ele>4.2</ele><time>2026-04-26T16:36:46.86Z</time></trkpt><trkpt lat="45.6008983" lon="12.2687459"><ele>4.0</ele><time>2026-04-26T16:36:47.878Z</time></trkpt><trkpt lat="45.6009821" lon="12.2688416"><ele>4.25</ele><time>2026-04-26T16:36:48.851Z</time></trkpt><trkpt lat="45.6010483" lon="12.2689822"><ele>4.5</ele><time>2026-04-26T16:36:49.851Z</time></trkpt><trkpt lat="45.6011088" lon="12.2691552"><ele>4.75</ele><time>2026-04-26T16:36:50.853Z</time></trkpt><trkpt lat="45.6011624" lon="12.2693533"><ele>5.0</ele><time>2026-04-26T16:36:51.852Z</time></trkpt><trkpt lat="45.6012022" lon="12.2695618"><ele>5.0</ele><time>2026-04-26T16:36:52.853Z</time></trkpt><trkpt lat="45.6012293" lon="12.2697789"><ele>5.0</ele><time>2026-04-26T16:36:53.859Z</time></trkpt><trkpt lat="45.6012211" lon="12.2700037"><ele>5.0</ele><time>2026-04-26T16:36:54.852Z</time></trkpt><trkpt lat="45.6012075" lon="12.2702331"><ele>5.0</ele><time>2026-04-26T16:36:55.861Z</time></trkpt><trkpt lat="45.601192" lon="12.2704707"><ele>5.0</ele><time>2026-04-26T16:36:56.867Z</time></trkpt><trkpt lat="45.6011821" lon="12.2707179"><ele>5.0</ele><time>2026-04-26T16:36:57.87Z</time></trkpt><trkpt lat="45.6011739" lon="12.2709738"><ele>5.0</ele><time>2026-04-26T16:36:58.858Z</time></trkpt><trkpt lat="45.6011662" lon="12.2712371"><ele>5.0</ele><time>2026-04-26T16:36:59.859Z</time></trkpt><trkpt lat="45.6011469" lon="12.271504"><ele>5.0</ele><time>2026-04-26T16:37:00.88Z</time></trkpt><trkpt lat="45.6011294" lon="12.2717741"><ele>5.0</ele><time>2026-04-26T16:37:01.871Z</time></trkpt><trkpt lat="45.6011128" lon="12.2720451"><ele>5.0</ele><time>2026-04-26T16:37:02.876Z</time></trkpt><trkpt lat="45.6010997" lon="12.2723166"><ele>5.0</ele><time>2026-04-26T16:37:03.861Z</time></trkpt><trkpt lat="45.6010818" lon="12.2725867"><ele>5.0</ele><time>2026-04-26T16:37:04.872Z</time></trkpt><trkpt lat="45.6010762" lon="12.2728576"><ele>5.0</ele><time>2026-04-26T16:37:05.857Z</time></trkpt><trkpt lat="45.6010664" lon="12.2731281"><ele>5.0</ele><time>2026-04-26T16:37:06.85Z</time></trkpt><trkpt lat="45.601051" lon="12.2733983"><ele>5.0</ele><time>2026-04-26T16:37:07.859Z</time></trkpt><trkpt lat="45.6010486" lon="12.2736717"><ele>5.0</ele><time>2026-04-26T16:37:08.862Z</time></trkpt><trkpt lat="45.6010365" lon="12.2739451"><ele>5.0</ele><time>2026-04-26T16:37:09.865Z</time></trkpt><trkpt lat="45.6010289" lon="12.2742189"><ele>5.333333333333334</ele><time>2026-04-26T16:37:10.856Z</time></trkpt><trkpt lat="45.6010169" lon="12.2744902"><ele>5.666666666666667</ele><time>2026-04-26T16:37:11.866Z</time></trkpt><trkpt lat="45.6010046" lon="12.2747611"><ele>6.0</ele><time>2026-04-26T16:37:12.864Z</time></trkpt><trkpt lat="45.6009928" lon="12.2750316"><ele>6.0</ele><time>2026-04-26T16:37:13.859Z</time></trkpt><trkpt lat="45.6009836" lon="12.2753005"><ele>6.0</ele><time>2026-04-26T16:37:14.863Z</time></trkpt><trkpt lat="45.600973" lon="12.2755668"><ele>6.0</ele><time>2026-04-26T16:37:15.869Z</time></trkpt><trkpt lat="45.6009602" lon="12.2758315"><ele>6.0</ele><time>2026-04-26T16:37:16.874Z</time></trkpt><trkpt lat="45.6009472" lon="12.2760955"><ele>6.0</ele><time>2026-04-26T16:37:17.87Z</time></trkpt><trkpt lat="45.60093" lon="12.2763555"><ele>6.0</ele><time>2026-04-26T16:37:18.855Z</time></trkpt><trkpt lat="45.6009159" lon="12.2766132"><ele>5.666666666666667</ele><time>2026-04-26T16:37:19.856Z</time></trkpt><trkpt lat="45.6008998" lon="12.27687"><ele>5.333333333333334</ele><time>2026-04-26T16:37:20.861Z</time></trkpt><trkpt lat="45.6008777" lon="12.277125"><ele>5.0</ele><time>2026-04-26T16:37:21.87Z</time></trkpt><trkpt lat="45.6008499" lon="12.2773741"><ele>5.0</ele><time>2026-04-26T16:37:22.86Z</time></trkpt><trkpt lat="45.6008152" lon="12.2776097"><ele>5.0</ele><time>2026-04-26T16:37:23.864Z</time></trkpt><trkpt lat="45.6007742" lon="12.2778298"><ele>5.0</ele><time>2026-04-26T16:37:24.867Z</time></trkpt><trkpt lat="45.6007352" lon="12.2780282"><ele>5.4</ele><time>2026-04-26T16:37:25.871Z</time></trkpt><trkpt lat="45.6006862" lon="12.2781927"><ele>5.8</ele><time>2026-04-26T16:37:26.862Z</time></trkpt><trkpt lat="45.6006157" lon="12.2783179"><ele>6.199999999999999</ele><time>2026-04-26T16:37:27.865Z</time></trkpt><trkpt lat="45.6005208" lon="12.2783989"><ele>6.6</ele><time>2026-04-26T16:37:28.862Z</time></trkpt><trkpt lat="45.6004494" lon="12.2784934"><ele>7.0</ele><time>2026-04-26T16:37:29.855Z</time></trkpt><trkpt lat="45.6004351" lon="12.2786244"><ele>7.0</ele><time>2026-04-26T16:37:30.863Z</time></trkpt><trkpt lat="45.6004734" lon="12.2787479"><ele>6.999999999999999</ele><time>2026-04-26T16:37:31.859Z</time></trkpt><trkpt lat="45.6005284" lon="12.278852"><ele>6.999999999999999</ele><time>2026-04-26T16:37:32.851Z</time></trkpt><trkpt lat="45.600606" lon="12.2789459"><ele>7.0</ele><time>2026-04-26T16:37:33.855Z</time></trkpt><trkpt lat="45.6006792" lon="12.2790871"><ele>7.0</ele><time>2026-04-26T16:37:34.858Z</time></trkpt><trkpt lat="45.6007604" lon="12.2792598"><ele>7.0</ele><time>2026-04-26T16:37:35.85Z</time></trkpt><trkpt lat="45.6008249" lon="12.2794793"><ele>7.0</ele><time>2026-04-26T16:37:36.85Z</time></trkpt><trkpt lat="45.600891" lon="12.2797226"><ele>7.0</ele><time>2026-04-26T16:37:37.854Z</time></trkpt><trkpt lat="45.6009815" lon="12.2799711"><ele>6.666666666666667</ele><time>2026-04-26T16:37:38.854Z</time></trkpt><trkpt lat="45.601092" lon="12.2802222"><ele>6.333333333333334</ele><time>2026-04-26T16:37:39.853Z</time></trkpt><trkpt lat="45.6012196" lon="12.2804637"><ele>6.0</ele><time>2026-04-26T16:37:40.855Z</time></trkpt><trkpt lat="45.6013395" lon="12.2807017"><ele>6.0</ele><time>2026-04-26T16:37:41.851Z</time></trkpt><trkpt lat="45.6014491" lon="12.2809425"><ele>6.0</ele><time>2026-04-26T16:37:42.848Z</time></trkpt><trkpt lat="45.6015592" lon="12.2811716"><ele>6.0</ele><time>2026-04-26T16:37:43.848Z</time></trkpt><trkpt lat="45.6016712" lon="12.281392"><ele>5.666666666666667</ele><time>2026-04-26T16:37:44.855Z</time></trkpt><trkpt lat="45.601785" lon="12.2816103"><ele>5.333333333333334</ele><time>2026-04-26T16:37:45.86Z</time></trkpt><trkpt lat="45.6018956" lon="12.2818328"><ele>5.0</ele><time>2026-04-26T16:37:46.851Z</time></trkpt><trkpt lat="45.6019986" lon="12.282067"><ele>5.0</ele><time>2026-04-26T16:37:47.851Z</time></trkpt><trkpt lat="45.6020873" lon="12.2823164"><ele>5.0</ele><time>2026-04-26T16:37:48.849Z</time></trkpt><trkpt lat="45.6021573" lon="12.2825787"><ele>5.0</ele><time>2026-04-26T16:37:49.844Z</time></trkpt><trkpt lat="45.6022068" lon="12.2828506"><ele>4.666666666666667</ele><time>2026-04-26T16:37:50.859Z</time></trkpt><trkpt lat="45.6022277" lon="12.2831426"><ele>4.333333333333333</ele><time>2026-04-26T16:37:51.858Z</time></trkpt><trkpt lat="45.6022367" lon="12.2834499"><ele>4.0</ele><time>2026-04-26T16:37:52.867Z</time></trkpt><trkpt lat="45.602242" lon="12.2837677"><ele>4.0</ele><time>2026-04-26T16:37:53.858Z</time></trkpt><trkpt lat="45.6022501" lon="12.2840925"><ele>4.0</ele><time>2026-04-26T16:37:54.865Z</time></trkpt><trkpt lat="45.6022597" lon="12.284413"><ele>4.0</ele><time>2026-04-26T16:37:55.855Z</time></trkpt><trkpt lat="45.6022605" lon="12.2847202"><ele>4.0</ele><time>2026-04-26T16:37:56.852Z</time></trkpt><trkpt lat="45.6022656" lon="12.2850122"><ele>4.0</ele><time>2026-04-26T16:37:57.854Z</time></trkpt><trkpt lat="45.6022698" lon="12.2852892"><ele>4.0</ele><time>2026-04-26T16:37:58.851Z</time></trkpt><trkpt lat="45.6022805" lon="12.2855549"><ele>4.0</ele><time>2026-04-26T16:37:59.846Z</time></trkpt><trkpt lat="45.6022856" lon="12.2858096"><ele>4.0</ele><time>2026-04-26T16:38:00.852Z</time></trkpt><trkpt lat="45.6022852" lon="12.2860476"><ele>4.25</ele><time>2026-04-26T16:38:01.852Z</time></trkpt><trkpt lat="45.6022805" lon="12.2862572"><ele>4.5</ele><time>2026-04-26T16:38:02.853Z</time></trkpt><trkpt lat="45.6022636" lon="12.2864415"><ele>4.75</ele><time>2026-04-26T16:38:03.855Z</time></trkpt><trkpt lat="45.6022225" lon="12.2866092"><ele>5.0</ele><time>2026-04-26T16:38:04.843Z</time></trkpt><trkpt lat="45.6021692" lon="12.2867585"><ele>5.0</ele><time>2026-04-26T16:38:05.849Z</time></trkpt><trkpt lat="45.6021465" lon="12.2869053"><ele>5.0</ele><time>2026-04-26T16:38:06.857Z</time></trkpt><trkpt lat="45.6021583" lon="12.287054"><ele>5.0</ele><time>2026-04-26T16:38:07.851Z</time></trkpt><trkpt lat="45.6022212" lon="12.2872098"><ele>5.0</ele><time>2026-04-26T16:38:08.863Z</time></trkpt><trkpt lat="45.6022637" lon="12.2873946"><ele>4.666666666666667</ele><time>2026-04-26T16:38:09.85Z</time></trkpt><trkpt lat="45.6022904" lon="12.2876197"><ele>4.333333333333333</ele><time>2026-04-26T16:38:10.849Z</time></trkpt><trkpt lat="45.602287" lon="12.2878735"><ele>4.0</ele><time>2026-04-26T16:38:11.856Z</time></trkpt><trkpt lat="45.6022712" lon="12.288148"><ele>4.0</ele><time>2026-04-26T16:38:12.843Z</time></trkpt><trkpt lat="45.6022711" lon="12.2884411"><ele>4.0</ele><time>2026-04-26T16:38:13.861Z</time></trkpt><trkpt lat="45.6022764" lon="12.288741"><ele>4.0</ele><time>2026-04-26T16:38:14.84Z</time></trkpt><trkpt lat="45.6022861" lon="12.2890431"><ele>4.333333333333333</ele><time>2026-04-26T16:38:15.845Z</time></trkpt><trkpt lat="45.6022895" lon="12.2893424"><ele>4.666666666666667</ele><time>2026-04-26T16:38:16.844Z</time></trkpt><trkpt lat="45.6022916" lon="12.2896379"><ele>5.0</ele><time>2026-04-26T16:38:17.847Z</time></trkpt><trkpt lat="45.6022947" lon="12.2899309"><ele>5.0</ele><time>2026-04-26T16:38:18.857Z</time></trkpt><trkpt lat="45.6022968" lon="12.2902229"><ele>5.0</ele><time>2026-04-26T16:38:19.838Z</time></trkpt><trkpt lat="45.6023003" lon="12.2905164"><ele>5.0</ele><time>2026-04-26T16:38:20.841Z</time></trkpt><trkpt lat="45.6023094" lon="12.2908115"><ele>5.0</ele><time>2026-04-26T16:38:21.859Z</time></trkpt><trkpt lat="45.6023268" lon="12.2911079"><ele>5.0</ele><time>2026-04-26T16:38:22.852Z</time></trkpt><trkpt lat="45.6023497" lon="12.2914053"><ele>5.0</ele><time>2026-04-26T16:38:23.854Z</time></trkpt><trkpt lat="45.6023764" lon="12.2917027"><ele>5.0</ele><time>2026-04-26T16:38:24.846Z</time></trkpt><trkpt lat="45.6023972" lon="12.2920003"><ele>5.0</ele><time>2026-04-26T16:38:25.857Z</time></trkpt><trkpt lat="45.6024277" lon="12.292296"><ele>5.0</ele><time>2026-04-26T16:38:26.845Z</time></trkpt><trkpt lat="45.6024536" lon="12.2925913"><ele>5.333333333333334</ele><time>2026-04-26T16:38:27.861Z</time></trkpt><trkpt lat="45.6024768" lon="12.2928875"><ele>5.666666666666667</ele><time>2026-04-26T16:38:28.857Z</time></trkpt><trkpt lat="45.6024989" lon="12.293185"><ele>6.0</ele><time>2026-04-26T16:38:29.855Z</time></trkpt><trkpt lat="45.6025125" lon="12.2934837"><ele>6.333333333333334</ele><time>2026-04-26T16:38:30.849Z</time></trkpt><trkpt lat="45.6025264" lon="12.2937834"><ele>6.666666666666667</ele><time>2026-04-26T16:38:31.863Z</time></trkpt><trkpt lat="45.6025254" lon="12.2940853"><ele>7.0</ele><time>2026-04-26T16:38:32.852Z</time></trkpt><trkpt lat="45.6025058" lon="12.2943844"><ele>7.0</ele><time>2026-04-26T16:38:33.854Z</time></trkpt><trkpt lat="45.6024891" lon="12.294682"><ele>7.0</ele><time>2026-04-26T16:38:34.85Z</time></trkpt><trkpt lat="45.6024721" lon="12.2949777"><ele>7.0</ele><time>2026-04-26T16:38:35.851Z</time></trkpt><trkpt lat="45.6024542" lon="12.2952713"><ele>6.666666666666667</ele><time>2026-04-26T16:38:36.847Z</time></trkpt><trkpt lat="45.6024398" lon="12.2955635"><ele>6.333333333333334</ele><time>2026-04-26T16:38:37.859Z</time></trkpt><trkpt lat="45.6024194" lon="12.2958519"><ele>6.0</ele><time>2026-04-26T16:38:38.861Z</time></trkpt><trkpt lat="45.6023942" lon="12.2961376"><ele>5.666666666666667</ele><time>2026-04-26T16:38:39.855Z</time></trkpt><trkpt lat="45.602372" lon="12.2964233"><ele>5.333333333333334</ele><time>2026-04-26T16:38:40.849Z</time></trkpt><trkpt lat="45.6023516" lon="12.2967088"><ele>5.0</ele><time>2026-04-26T16:38:41.852Z</time></trkpt><trkpt lat="45.6023324" lon="12.2969941"><ele>5.666666666666667</ele><time>2026-04-26T16:38:42.853Z</time></trkpt><trkpt lat="45.6023078" lon="12.2972775"><ele>6.333333333333334</ele><time>2026-04-26T16:38:43.843Z</time></trkpt><trkpt lat="45.6022851" lon="12.2975629"><ele>7.0</ele><time>2026-04-26T16:38:44.859Z</time></trkpt><trkpt lat="45.6022586" lon="12.2978509"><ele>7.0</ele><time>2026-04-26T16:38:45.853Z</time></trkpt><trkpt lat="45.6022269" lon="12.2981452"><ele>7.0</ele><time>2026-04-26T16:38:46.845Z</time></trkpt><trkpt lat="45.6021791" lon="12.2984403"><ele>7.0</ele><time>2026-04-26T16:38:47.854Z</time></trkpt><trkpt lat="45.6021165" lon="12.2987344"><ele>6.666666666666667</ele><time>2026-04-26T16:38:48.841Z</time></trkpt><trkpt lat="45.6020368" lon="12.2990282"><ele>6.333333333333334</ele><time>2026-04-26T16:38:49.85Z</time></trkpt><trkpt lat="45.6019544" lon="12.2993321"><ele>6.0</ele><time>2026-04-26T16:38:50.847Z</time></trkpt><trkpt lat="45.6018565" lon="12.2996255"><ele>5.0</ele><time>2026-04-26T16:38:51.851Z</time></trkpt><trkpt lat="45.6017686" lon="12.2999232"><ele>4.0</ele><time>2026-04-26T16:38:52.842Z</time></trkpt><trkpt lat="45.6016852" lon="12.3002254"><ele>4.0</ele><time>2026-04-26T16:38:53.851Z</time></trkpt><trkpt lat="45.6015948" lon="12.3005281"><ele>4.0</ele><time>2026-04-26T16:38:54.85Z</time></trkpt><trkpt lat="45.6015304" lon="12.3008437"><ele>4.0</ele><time>2026-04-26T16:38:55.864Z</time></trkpt><trkpt lat="45.6014747" lon="12.3011629"><ele>4.0</ele><time>2026-04-26T16:38:56.837Z</time></trkpt><trkpt lat="45.6014103" lon="12.3014732"><ele>4.0</ele><time>2026-04-26T16:38:57.853Z</time></trkpt><trkpt lat="45.6013715" lon="12.3017806"><ele>4.0</ele><time>2026-04-26T16:38:58.843Z</time></trkpt><trkpt lat="45.6013372" lon="12.3020783"><ele>4.0</ele><time>2026-04-26T16:38:59.853Z</time></trkpt><trkpt lat="45.6013152" lon="12.3023732"><ele>3.6666666666666665</ele><time>2026-04-26T16:39:00.851Z</time></trkpt><trkpt lat="45.6013106" lon="12.3026706"><ele>3.333333333333333</ele><time>2026-04-26T16:39:01.852Z</time></trkpt><trkpt lat="45.6013212" lon="12.302969"><ele>3.0</ele><time>2026-04-26T16:39:02.853Z</time></trkpt><trkpt lat="45.6013478" lon="12.3032674"><ele>3.0</ele><time>2026-04-26T16:39:03.864Z</time></trkpt><trkpt lat="45.6013706" lon="12.3035627"><ele>3.0</ele><time>2026-04-26T16:39:04.846Z</time></trkpt><trkpt lat="45.6013944" lon="12.3038566"><ele>3.0</ele><time>2026-04-26T16:39:05.855Z</time></trkpt><trkpt lat="45.6014144" lon="12.3041499"><ele>3.0</ele><time>2026-04-26T16:39:06.85Z</time></trkpt><trkpt lat="45.601433" lon="12.3044419"><ele>3.0</ele><time>2026-04-26T16:39:07.852Z</time></trkpt><trkpt lat="45.60145" lon="12.3047317"><ele>3.0</ele><time>2026-04-26T16:39:08.856Z</time></trkpt><trkpt lat="45.6014466" lon="12.305019"><ele>3.0</ele><time>2026-04-26T16:39:09.856Z</time></trkpt><trkpt lat="45.6014235" lon="12.305309"><ele>3.0</ele><time>2026-04-26T16:39:10.849Z</time></trkpt><trkpt lat="45.6013813" lon="12.3055936"><ele>3.0</ele><time>2026-04-26T16:39:11.858Z</time></trkpt><trkpt lat="45.6013485" lon="12.305879"><ele>3.0</ele><time>2026-04-26T16:39:12.853Z</time></trkpt><trkpt lat="45.6013208" lon="12.3061551"><ele>3.0</ele><time>2026-04-26T16:39:13.845Z</time></trkpt><trkpt lat="45.6012998" lon="12.3064191"><ele>3.0</ele><time>2026-04-26T16:39:14.85Z</time></trkpt><trkpt lat="45.6012787" lon="12.3066731"><ele>3.333333333333333</ele><time>2026-04-26T16:39:15.851Z</time></trkpt><trkpt lat="45.6012568" lon="12.3069174"><ele>3.6666666666666665</ele><time>2026-04-26T16:39:16.857Z</time></trkpt><trkpt lat="45.6012318" lon="12.3071525"><ele>4.0</ele><time>2026-04-26T16:39:17.859Z</time></trkpt><trkpt lat="45.6012114" lon="12.3073816"><ele>4.333333333333333</ele><time>2026-04-26T16:39:18.854Z</time></trkpt><trkpt lat="45.6011918" lon="12.3076043"><ele>4.666666666666667</ele><time>2026-04-26T16:39:19.85Z</time></trkpt><trkpt lat="45.6011684" lon="12.30782"><ele>5.0</ele><time>2026-04-26T16:39:20.85Z</time></trkpt><trkpt lat="45.601143" lon="12.3080305"><ele>5.333333333333334</ele><time>2026-04-26T16:39:21.868Z</time></trkpt><trkpt lat="45.601113" lon="12.3082386"><ele>5.666666666666667</ele><time>2026-04-26T16:39:22.855Z</time></trkpt><trkpt lat="45.6010762" lon="12.3084476"><ele>6.0</ele><time>2026-04-26T16:39:23.858Z</time></trkpt><trkpt lat="45.6010334" lon="12.3086589"><ele>6.0</ele><time>2026-04-26T16:39:24.85Z</time></trkpt><trkpt lat="45.6009868" lon="12.3088734"><ele>6.0</ele><time>2026-04-26T16:39:25.857Z</time></trkpt><trkpt lat="45.6009306" lon="12.309085"><ele>6.0</ele><time>2026-04-26T16:39:26.853Z</time></trkpt><trkpt lat="45.6008802" lon="12.3092904"><ele>5.75</ele><time>2026-04-26T16:39:27.858Z</time></trkpt><trkpt lat="45.6008407" lon="12.3094842"><ele>5.5</ele><time>2026-04-26T16:39:28.858Z</time></trkpt><trkpt lat="45.600811" lon="12.3096654"><ele>5.25</ele><time>2026-04-26T16:39:29.858Z</time></trkpt><trkpt lat="45.6007763" lon="12.3098266"><ele>5.0</ele><time>2026-04-26T16:39:30.853Z</time></trkpt><trkpt lat="45.60073" lon="12.3099737"><ele>5.0</ele><time>2026-04-26T16:39:31.844Z</time></trkpt><trkpt lat="45.6006781" lon="12.3101213"><ele>5.0</ele><time>2026-04-26T16:39:32.852Z</time></trkpt><trkpt lat="45.6006357" lon="12.3102937"><ele>5.0</ele><time>2026-04-26T16:39:33.857Z</time></trkpt><trkpt lat="45.6006178" lon="12.3104959"><ele>5.0</ele><time>2026-04-26T16:39:34.866Z</time></trkpt><trkpt lat="45.6006035" lon="12.3107083"><ele>4.666666666666667</ele><time>2026-04-26T16:39:35.86Z</time></trkpt><trkpt lat="45.6005873" lon="12.3109303"><ele>4.333333333333333</ele><time>2026-04-26T16:39:36.859Z</time></trkpt><trkpt lat="45.6005641" lon="12.3111666"><ele>4.0</ele><time>2026-04-26T16:39:37.856Z</time></trkpt><trkpt lat="45.6005564" lon="12.3114308"><ele>4.0</ele><time>2026-04-26T16:39:38.864Z</time></trkpt><trkpt lat="45.6005621" lon="12.3117148"><ele>4.0</ele><time>2026-04-26T16:39:39.854Z</time></trkpt><trkpt lat="45.6005718" lon="12.3120025"><ele>4.0</ele><time>2026-04-26T16:39:40.855Z</time></trkpt><trkpt lat="45.6005932" lon="12.3122819"><ele>4.0</ele><time>2026-04-26T16:39:41.852Z</time></trkpt><trkpt lat="45.6006033" lon="12.3125546"><ele>4.0</ele><time>2026-04-26T16:39:42.856Z</time></trkpt><trkpt lat="45.6006011" lon="12.3128241"><ele>4.0</ele><time>2026-04-26T16:39:43.857Z</time></trkpt><trkpt lat="45.6005846" lon="12.3130891"><ele>4.0</ele><time>2026-04-26T16:39:44.866Z</time></trkpt><trkpt lat="45.6005567" lon="12.313352"><ele>4.0</ele><time>2026-04-26T16:39:45.847Z</time></trkpt><trkpt lat="45.6005109" lon="12.3136119"><ele>4.0</ele><time>2026-04-26T16:39:46.861Z</time></trkpt><trkpt lat="45.6004511" lon="12.3138731"><ele>3.6666666666666665</ele><time>2026-04-26T16:39:47.88Z</time></trkpt><trkpt lat="45.6003815" lon="12.3141401"><ele>3.333333333333333</ele><time>2026-04-26T16:39:48.861Z</time></trkpt><trkpt lat="45.600301" lon="12.3144132"><ele>3.0</ele><time>2026-04-26T16:39:49.854Z</time></trkpt><trkpt lat="45.6002209" lon="12.3146945"><ele>3.0</ele><time>2026-04-26T16:39:50.856Z</time></trkpt><trkpt lat="45.6001348" lon="12.3149697"><ele>3.0</ele><time>2026-04-26T16:39:51.859Z</time></trkpt><trkpt lat="45.6000529" lon="12.3152415"><ele>3.0</ele><time>2026-04-26T16:39:52.855Z</time></trkpt><trkpt lat="45.5999677" lon="12.3155049"><ele>3.0</ele><time>2026-04-26T16:39:53.851Z</time></trkpt><trkpt lat="45.5998892" lon="12.3157671"><ele>3.0</ele><time>2026-04-26T16:39:54.848Z</time></trkpt><trkpt lat="45.5998085" lon="12.3160188"><ele>3.0</ele><time>2026-04-26T16:39:55.858Z</time></trkpt><trkpt lat="45.5997394" lon="12.3162668"><ele>3.333333333333333</ele><time>2026-04-26T16:39:56.852Z</time></trkpt><trkpt lat="45.5996677" lon="12.3164961"><ele>3.6666666666666665</ele><time>2026-04-26T16:39:57.851Z</time></trkpt><trkpt lat="45.5995992" lon="12.3167099"><ele>4.0</ele><time>2026-04-26T16:39:58.852Z</time></trkpt><trkpt lat="45.5995355" lon="12.316909"><ele>4.2</ele><time>2026-04-26T16:39:59.862Z</time></trkpt><trkpt lat="45.5994796" lon="12.3170939"><ele>4.4</ele><time>2026-04-26T16:40:00.86Z</time></trkpt><trkpt lat="45.5994278" lon="12.317255"><ele>4.6</ele><time>2026-04-26T16:40:01.864Z</time></trkpt><trkpt lat="45.5994022" lon="12.3173954"><ele>4.8</ele><time>2026-04-26T16:40:02.868Z</time></trkpt><trkpt lat="45.5993893" lon="12.317502"><ele>5.0</ele><time>2026-04-26T16:40:03.87Z</time></trkpt><trkpt lat="45.5993088" lon="12.3176053"><ele>5.0</ele><time>2026-04-26T16:40:05.851Z</time></trkpt><trkpt lat="45.5992317" lon="12.3175723"><ele>5.0</ele><time>2026-04-26T16:40:06.856Z</time></trkpt><trkpt lat="45.5991434" lon="12.3175095"><ele>5.0</ele><time>2026-04-26T16:40:07.849Z</time></trkpt><trkpt lat="45.5990469" lon="12.3174237"><ele>5.0</ele><time>2026-04-26T16:40:08.847Z</time></trkpt><trkpt lat="45.598934" lon="12.3173173"><ele>5.0</ele><time>2026-04-26T16:40:09.861Z</time></trkpt><trkpt lat="45.5988193" lon="12.3171878"><ele>5.0</ele><time>2026-04-26T16:40:10.854Z</time></trkpt><trkpt lat="45.598703" lon="12.3170397"><ele>5.0</ele><time>2026-04-26T16:40:11.86Z</time></trkpt><trkpt lat="45.5985845" lon="12.316895"><ele>5.0</ele><time>2026-04-26T16:40:12.852Z</time></trkpt><trkpt lat="45.5984686" lon="12.3167592"><ele>5.0</ele><time>2026-04-26T16:40:13.856Z</time></trkpt><trkpt lat="45.5983546" lon="12.316635"><ele>5.0</ele><time>2026-04-26T16:40:14.853Z</time></trkpt><trkpt lat="45.5982455" lon="12.3165107"><ele>5.0</ele><time>2026-04-26T16:40:15.843Z</time></trkpt><trkpt lat="45.5981415" lon="12.3163875"><ele>5.0</ele><time>2026-04-26T16:40:16.85Z</time></trkpt><trkpt lat="45.598042" lon="12.3162658"><ele>4.75</ele><time>2026-04-26T16:40:17.855Z</time></trkpt><trkpt lat="45.5979507" lon="12.3161374"><ele>4.5</ele><time>2026-04-26T16:40:18.841Z</time></trkpt><trkpt lat="45.5978679" lon="12.3160036"><ele>4.25</ele><time>2026-04-26T16:40:19.86Z</time></trkpt><trkpt lat="45.5977951" lon="12.3158626"><ele>4.0</ele><time>2026-04-26T16:40:20.852Z</time></trkpt><trkpt lat="45.5977312" lon="12.315716"><ele>3.5</ele><time>2026-04-26T16:40:21.851Z</time></trkpt><trkpt lat="45.5976796" lon="12.3155632"><ele>3.0</ele><time>2026-04-26T16:40:22.853Z</time></trkpt><trkpt lat="45.5976406" lon="12.3154058"><ele>2.5</ele><time>2026-04-26T16:40:23.855Z</time></trkpt><trkpt lat="45.5976166" lon="12.3152412"><ele>2.0</ele><time>2026-04-26T16:40:24.846Z</time></trkpt><trkpt lat="45.5975964" lon="12.3150676"><ele>2.0</ele><time>2026-04-26T16:40:25.864Z</time></trkpt><trkpt lat="45.5975779" lon="12.3148716"><ele>2.0</ele><time>2026-04-26T16:40:26.85Z</time></trkpt><trkpt lat="45.5975546" lon="12.3146632"><ele>2.0</ele><time>2026-04-26T16:40:27.851Z</time></trkpt><trkpt lat="45.5975251" lon="12.314464"><ele>2.0</ele><time>2026-04-26T16:40:28.847Z</time></trkpt><trkpt lat="45.5974913" lon="12.3142841"><ele>2.2</ele><time>2026-04-26T16:40:29.853Z</time></trkpt><trkpt lat="45.5974572" lon="12.3141272"><ele>2.4000000000000004</ele><time>2026-04-26T16:40:30.858Z</time></trkpt><trkpt lat="45.5974234" lon="12.3139965"><ele>2.5999999999999996</ele><time>2026-04-26T16:40:31.859Z</time></trkpt><trkpt lat="45.5973789" lon="12.3138918"><ele>2.8</ele><time>2026-04-26T16:40:32.849Z</time></trkpt><trkpt lat="45.597323" lon="12.3138059"><ele>3.0</ele><time>2026-04-26T16:40:33.857Z</time></trkpt><trkpt lat="45.5972332" lon="12.3137259"><ele>3.0</ele><time>2026-04-26T16:40:34.847Z</time></trkpt><trkpt lat="45.5971412" lon="12.313639"><ele>3.0</ele><time>2026-04-26T16:40:35.853Z</time></trkpt><trkpt lat="45.5970528" lon="12.3135494"><ele>3.0</ele><time>2026-04-26T16:40:36.866Z</time></trkpt><trkpt lat="45.5969559" lon="12.3134833"><ele>3.0</ele><time>2026-04-26T16:40:37.862Z</time></trkpt><trkpt lat="45.5968776" lon="12.3134093"><ele>3.0</ele><time>2026-04-26T16:40:38.861Z</time></trkpt><trkpt lat="45.5967967" lon="12.313336"><ele>3.0</ele><time>2026-04-26T16:40:39.858Z</time></trkpt><trkpt lat="45.5967153" lon="12.313263"><ele>3.0</ele><time>2026-04-26T16:40:40.861Z</time></trkpt><trkpt lat="45.5966336" lon="12.3131971"><ele>3.0</ele><time>2026-04-26T16:40:41.848Z</time></trkpt><trkpt lat="45.5965549" lon="12.3131291"><ele>3.0</ele><time>2026-04-26T16:40:42.859Z</time></trkpt><trkpt lat="45.5964777" lon="12.3130658"><ele>3.0</ele><time>2026-04-26T16:40:43.862Z</time></trkpt><trkpt lat="45.5964074" lon="12.3129896"><ele>2.8</ele><time>2026-04-26T16:40:44.854Z</time></trkpt><trkpt lat="45.596336" lon="12.3129186"><ele>2.5999999999999996</ele><time>2026-04-26T16:40:45.879Z</time></trkpt><trkpt lat="45.5962629" lon="12.3128481"><ele>2.4000000000000004</ele><time>2026-04-26T16:40:46.876Z</time></trkpt><trkpt lat="45.5961909" lon="12.3127562"><ele>2.2</ele><time>2026-04-26T16:40:47.875Z</time></trkpt><trkpt lat="45.5961173" lon="12.3126714"><ele>2.0</ele><time>2026-04-26T16:40:48.862Z</time></trkpt><trkpt lat="45.5960562" lon="12.3125778"><ele>2.1666666666666665</ele><time>2026-04-26T16:40:49.854Z</time></trkpt><trkpt lat="45.5960004" lon="12.3124973"><ele>2.333333333333333</ele><time>2026-04-26T16:40:50.866Z</time></trkpt><trkpt lat="45.5959456" lon="12.3124363"><ele>2.5</ele><time>2026-04-26T16:40:51.857Z</time></trkpt><trkpt lat="45.5958613" lon="12.3123373"><ele>2.6666666666666665</ele><time>2026-04-26T16:40:53.857Z</time></trkpt><trkpt lat="45.5958046" lon="12.3122426"><ele>2.8333333333333335</ele><time>2026-04-26T16:40:55.849Z</time></trkpt><trkpt lat="45.5957495" lon="12.3121804"><ele>3.0</ele><time>2026-04-26T16:40:57.865Z</time></trkpt><trkpt lat="45.595675" lon="12.3121127"><ele>3.0</ele><time>2026-04-26T16:41:03.848Z</time></trkpt><trkpt lat="45.5956076" lon="12.3121621"><ele>3.0</ele><time>2026-04-26T16:41:05.889Z</time></trkpt><trkpt lat="45.5955838" lon="12.3122719"><ele>3.0</ele><time>2026-04-26T16:41:07.848Z</time></trkpt><trkpt lat="45.5955423" lon="12.3123671"><ele>3.0</ele><time>2026-04-26T16:41:09.848Z</time></trkpt><trkpt lat="45.5955035" lon="12.3124429"><ele>3.0</ele><time>2026-04-26T16:41:11.852Z</time></trkpt><trkpt lat="45.5954618" lon="12.3125344"><ele>3.0</ele><time>2026-04-26T16:41:14.854Z</time></trkpt><trkpt lat="45.5953795" lon="12.3126001"><ele>4.0</ele><time>2026-04-26T16:41:53.854Z</time></trkpt><trkpt lat="45.5952991" lon="12.3125766"><ele>5.0</ele><time>2026-04-26T16:52:07.852Z</time></trkpt><trkpt lat="45.5952825" lon="12.3123195"><ele>5.0</ele><time>2026-04-26T16:52:08.877Z</time></trkpt><trkpt lat="45.5952825" lon="12.3123195"><ele>5.0</ele><time>2026-04-26T16:52:08.877Z</time></trkpt></trkseg></trk></gpx>